<?xml version="1.0" encoding="UTF-8"?>
<gpx xmlns="http://www.topografix.com/GPX/1/1" version="1.1" creator="Little Navmap" xmlns:xsi="http://www.w3.org/2001/XMLSchema-instance" xsi:schemaLocation="http://www.topografix.com/GPX/1/1 http://www.topografix.com/GPX/1/1/gpx.xsd">
  <metadata>
    <link href="https://www.littlenavmap.org">
      <text>Created by Little Navmap Version 3.0.18 (revision 62ad4270) on 2026 09 04T17:53:20+02:00</text>
    </link>
  </metadata>
  <rte>
    <name>EDTM to EDTZ - Flight Plan</name>
    <desc>Mengen-Hohentengen (EDTM) to Konstanz (EDTZ) at 8500 ft, VFR</desc>
    <rtept lon="9.3727779" lat="48.0538902">
      <ele>553.506</ele>
      <name>EDTM</name>
      <desc>Airport</desc>
    </rtept>
    <rtept lon="9.2166109" lat="48.0881500">
      <ele>2590.8</ele>
      <name>Schloss Hohenzollern</name>
      <desc>User</desc>
    </rtept>
    <rtept lon="8.9694271" lat="48.0505753">
      <ele>2590.8</ele>
      <name>Kloster Beuron</name>
      <desc>User</desc>
    </rtept>
    <rtept lon="8.9307089" lat="48.0199547">
      <ele>2590.8</ele>
      <name>Fridingen</name>
      <desc>User</desc>
    </rtept>
    <rtept lon="8.8090000" lat="47.9841766">
      <ele>2590.8</ele>
      <name>Tuttlingen</name>
      <desc>User</desc>
    </rtept>
    <rtept lon="8.7668772" lat="47.9591217">
      <ele>2590.8</ele>
      <name>Möhringen - Donauversickerung</name>
      <desc>User</desc>
    </rtept>
    <rtept lon="8.7654190" lat="47.9361000">
      <ele>2590.8</ele>
      <name>Gewann Brühl - Donauversickerung</name>
      <desc>User</desc>
    </rtept>
    <rtept lon="8.7372446" lat="47.9362717">
      <ele>2590.8</ele>
      <name>Immendingen - Donauversickerung</name>
      <desc>User</desc>
    </rtept>
    <rtept lon="8.5221109" lat="47.9735184">
      <ele>2590.8</ele>
      <name>EDTD</name>
      <desc>Airport</desc>
    </rtept>
    <rtept lon="8.7471809" lat="47.8368950">
      <ele>2590.8</ele>
      <name>Hohenhewen</name>
      <desc>User</desc>
    </rtept>
    <rtept lon="8.7488976" lat="47.7958603">
      <ele>2590.8</ele>
      <name>Hohenstoffeln</name>
      <desc>User</desc>
    </rtept>
    <rtept lon="8.8171167" lat="47.7636757">
      <ele>2590.8</ele>
      <name>Hohentwiel</name>
      <desc>User</desc>
    </rtept>
    <rtept lon="8.8580084" lat="47.8467140">
      <ele>2590.8</ele>
      <name>Aachtopf</name>
      <desc>User</desc>
    </rtept>
    <rtept lon="8.9796667" lat="47.8026657">
      <ele>2284.71</ele>
      <name>EDSR</name>
      <desc>Airport</desc>
    </rtept>
    <rtept lon="8.9412861" lat="47.7325134">
      <ele>1920.91</ele>
      <name>Aachmündung</name>
      <desc>User</desc>
    </rtept>
    <rtept lon="8.9346361" lat="47.7245140">
      <ele>1876.3</ele>
      <name>Höri - Moos</name>
      <desc>User</desc>
    </rtept>
    <rtept lon="8.9598274" lat="47.7158546">
      <ele>1783.67</ele>
      <name>Höri - Iznang</name>
      <desc>User</desc>
    </rtept>
    <rtept lon="8.8595333" lat="47.6598969">
      <ele>1356.85</ele>
      <name>Höri - Stein am Rhein</name>
      <desc>User</desc>
    </rtept>
    <rtept lon="8.8843803" lat="47.6609116">
      <ele>1275.25</ele>
      <name>Höri - Öhningen</name>
      <desc>User</desc>
    </rtept>
    <rtept lon="8.9799967" lat="47.6807022">
      <ele>947.393</ele>
      <name>Höri - Gaienhofen</name>
      <desc>User</desc>
    </rtept>
    <rtept lon="9.0608053" lat="47.6953201">
      <ele>673.231</ele>
      <name>Reichenau</name>
      <desc>User</desc>
    </rtept>
    <rtept lon="9.1408329" lat="47.6775017">
      <ele>397.044</ele>
      <name>EDTZ</name>
      <desc>Airport</desc>
    </rtept>
  </rte>
  <trk>
    <name>Little Navmap - Track</name>
    <trkseg>
      <trkpt lon="12.226754" lat="46.727476">
        <ele>1215.23</ele>
        <time>2025-12-17T09:43:18.796Z</time>
      </trkpt>
      <trkpt lon="12.226058" lat="46.727365">
        <ele>1216.67</ele>
        <time>2025-12-17T09:43:31.536Z</time>
      </trkpt>
      <trkpt lon="12.226060" lat="46.727374">
        <ele>1216.65</ele>
        <time>2025-12-17T09:46:16.192Z</time>
      </trkpt>
    </trkseg>
    <trkseg>
      <trkpt lon="6.785184" lat="51.289779">
        <ele>37.7464</ele>
        <time>2025-12-17T09:48:38.992Z</time>
      </trkpt>
      <trkpt lon="6.785175" lat="51.289780">
        <ele>38.5357</ele>
        <time>2025-12-17T09:50:13.032Z</time>
      </trkpt>
      <trkpt lon="6.785165" lat="51.289780">
        <ele>38.5345</ele>
        <time>2025-12-17T09:51:37.576Z</time>
      </trkpt>
      <trkpt lon="6.785155" lat="51.289780">
        <ele>38.5301</ele>
        <time>2025-12-17T09:53:01.552Z</time>
      </trkpt>
    </trkseg>
    <trkseg>
      <trkpt lon="-84.215271" lat="39.911378">
        <ele>1672.31</ele>
        <time>2025-12-17T15:00:45.992Z</time>
      </trkpt>
      <trkpt lon="-84.215595" lat="39.910705">
        <ele>1672.69</ele>
        <time>2025-12-17T15:02:13.572Z</time>
      </trkpt>
      <trkpt lon="-84.220377" lat="39.900152">
        <ele>1635.62</ele>
        <time>2025-12-17T15:02:24.268Z</time>
      </trkpt>
      <trkpt lon="-84.233188" lat="39.867612">
        <ele>1627.7</ele>
        <time>2025-12-17T15:02:55.192Z</time>
      </trkpt>
      <trkpt lon="-84.245807" lat="39.834033">
        <ele>1626.99</ele>
        <time>2025-12-17T15:03:26.608Z</time>
      </trkpt>
      <trkpt lon="-84.215238" lat="39.911367">
        <ele>1665.28</ele>
        <time>2025-12-17T15:03:36.688Z</time>
      </trkpt>
      <trkpt lon="-84.215380" lat="39.911109">
        <ele>1664.96</ele>
        <time>2025-12-17T15:21:57.212Z</time>
      </trkpt>
      <trkpt lon="-84.229759" lat="39.877550">
        <ele>1651.25</ele>
        <time>2025-12-17T15:22:29.164Z</time>
      </trkpt>
      <trkpt lon="-84.242463" lat="39.843409">
        <ele>1642.88</ele>
        <time>2025-12-17T15:23:00.892Z</time>
      </trkpt>
      <trkpt lon="-84.254619" lat="39.810354">
        <ele>1636.61</ele>
        <time>2025-12-17T15:23:31.708Z</time>
      </trkpt>
      <trkpt lon="-84.266766" lat="39.777161">
        <ele>1637.49</ele>
        <time>2025-12-17T15:24:02.668Z</time>
      </trkpt>
      <trkpt lon="-84.279021" lat="39.743817">
        <ele>1633.11</ele>
        <time>2025-12-17T15:24:33.780Z</time>
      </trkpt>
      <trkpt lon="-84.291631" lat="39.709368">
        <ele>1628.73</ele>
        <time>2025-12-17T15:25:05.908Z</time>
      </trkpt>
      <trkpt lon="-84.303925" lat="39.676246">
        <ele>1627.15</ele>
        <time>2025-12-17T15:25:36.868Z</time>
      </trkpt>
      <trkpt lon="-84.316864" lat="39.642318">
        <ele>1630.52</ele>
        <time>2025-12-17T15:26:08.728Z</time>
      </trkpt>
      <trkpt lon="-84.329965" lat="39.608586">
        <ele>1631.45</ele>
        <time>2025-12-17T15:26:40.492Z</time>
      </trkpt>
      <trkpt lon="-84.342742" lat="39.575937">
        <ele>1629.13</ele>
        <time>2025-12-17T15:27:11.296Z</time>
      </trkpt>
      <trkpt lon="-84.356100" lat="39.541763">
        <ele>1627.97</ele>
        <time>2025-12-17T15:27:43.600Z</time>
      </trkpt>
      <trkpt lon="-84.369641" lat="39.507070">
        <ele>1630.56</ele>
        <time>2025-12-17T15:28:16.352Z</time>
      </trkpt>
      <trkpt lon="-84.383059" lat="39.472656">
        <ele>1627.51</ele>
        <time>2025-12-17T15:28:48.872Z</time>
      </trkpt>
      <trkpt lon="-84.396488" lat="39.438702">
        <ele>1627.38</ele>
        <time>2025-12-17T15:29:20.948Z</time>
      </trkpt>
      <trkpt lon="-84.410159" lat="39.405483">
        <ele>1631.22</ele>
        <time>2025-12-17T15:29:52.600Z</time>
      </trkpt>
      <trkpt lon="-84.424002" lat="39.371923">
        <ele>1630.47</ele>
        <time>2025-12-17T15:30:24.576Z</time>
      </trkpt>
      <trkpt lon="-84.437436" lat="39.339475">
        <ele>1629.62</ele>
        <time>2025-12-17T15:30:55.516Z</time>
      </trkpt>
      <trkpt lon="-84.450740" lat="39.307590">
        <ele>1631.9</ele>
        <time>2025-12-17T15:31:25.976Z</time>
      </trkpt>
      <trkpt lon="-84.464649" lat="39.274774">
        <ele>1630.37</ele>
        <time>2025-12-17T15:31:57.460Z</time>
      </trkpt>
      <trkpt lon="-84.479282" lat="39.240679">
        <ele>1606.76</ele>
        <time>2025-12-17T15:32:30.136Z</time>
      </trkpt>
      <trkpt lon="-84.484961" lat="39.230801">
        <ele>1591.94</ele>
        <time>2025-12-17T15:32:40.464Z</time>
      </trkpt>
      <trkpt lon="-84.500416" lat="39.212829">
        <ele>1566.93</ele>
        <time>2025-12-17T15:33:01.564Z</time>
      </trkpt>
      <trkpt lon="-84.519170" lat="39.196410">
        <ele>1543.42</ele>
        <time>2025-12-17T15:33:22.448Z</time>
      </trkpt>
      <trkpt lon="-84.540370" lat="39.181054">
        <ele>1507.86</ele>
        <time>2025-12-17T15:33:43.788Z</time>
      </trkpt>
      <trkpt lon="-84.574789" lat="39.159547">
        <ele>1458.97</ele>
        <time>2025-12-17T15:34:16.156Z</time>
      </trkpt>
      <trkpt lon="-84.599127" lat="39.146280">
        <ele>1449.92</ele>
        <time>2025-12-17T15:34:38.028Z</time>
      </trkpt>
      <trkpt lon="-84.622993" lat="39.133757">
        <ele>1420.14</ele>
        <time>2025-12-17T15:34:59.152Z</time>
      </trkpt>
      <trkpt lon="-84.645084" lat="39.118454">
        <ele>1337.94</ele>
        <time>2025-12-17T15:35:20.004Z</time>
      </trkpt>
      <trkpt lon="-84.661706" lat="39.104743">
        <ele>1286.23</ele>
        <time>2025-12-17T15:35:36.916Z</time>
      </trkpt>
      <trkpt lon="-84.666198" lat="39.100041">
        <ele>1278.49</ele>
        <time>2025-12-17T15:35:42.224Z</time>
      </trkpt>
      <trkpt lon="-84.669686" lat="39.094457">
        <ele>1239.55</ele>
        <time>2025-12-17T15:35:47.748Z</time>
      </trkpt>
      <trkpt lon="-84.671664" lat="39.088627">
        <ele>1156.12</ele>
        <time>2025-12-17T15:35:52.952Z</time>
      </trkpt>
      <trkpt lon="-84.672710" lat="39.081767">
        <ele>1037.19</ele>
        <time>2025-12-17T15:35:58.748Z</time>
      </trkpt>
      <trkpt lon="-84.672814" lat="39.076226">
        <ele>940.213</ele>
        <time>2025-12-17T15:36:03.872Z</time>
      </trkpt>
      <trkpt lon="-84.672491" lat="39.071440">
        <ele>838.319</ele>
        <time>2025-12-17T15:36:08.928Z</time>
      </trkpt>
      <trkpt lon="-84.672002" lat="39.066978">
        <ele>709.553</ele>
        <time>2025-12-17T15:36:14.228Z</time>
      </trkpt>
      <trkpt lon="-84.671305" lat="39.062798">
        <ele>549.857</ele>
        <time>2025-12-17T15:36:19.692Z</time>
      </trkpt>
      <trkpt lon="-84.670368" lat="39.058887">
        <ele>371.384</ele>
        <time>2025-12-17T15:36:25.148Z</time>
      </trkpt>
      <trkpt lon="-84.669475" lat="39.055358">
        <ele>291.761</ele>
        <time>2025-12-17T15:36:30.280Z</time>
      </trkpt>
      <trkpt lon="-84.669072" lat="39.052270">
        <ele>295.424</ele>
        <time>2025-12-17T15:36:35.620Z</time>
      </trkpt>
      <trkpt lon="-84.668983" lat="39.049772">
        <ele>266.419</ele>
        <time>2025-12-17T15:36:40.808Z</time>
      </trkpt>
      <trkpt lon="-84.669064" lat="39.047527">
        <ele>266.36</ele>
        <time>2025-12-17T15:36:46.212Z</time>
      </trkpt>
      <trkpt lon="-84.669143" lat="39.045731">
        <ele>266.838</ele>
        <time>2025-12-17T15:36:51.468Z</time>
      </trkpt>
      <trkpt lon="-84.669013" lat="39.044293">
        <ele>265.604</ele>
        <time>2025-12-17T15:36:56.584Z</time>
      </trkpt>
      <trkpt lon="-84.669359" lat="39.043122">
        <ele>264.807</ele>
        <time>2025-12-17T15:37:01.916Z</time>
      </trkpt>
      <trkpt lon="-84.669570" lat="39.042082">
        <ele>265.014</ele>
        <time>2025-12-17T15:37:07.648Z</time>
      </trkpt>
      <trkpt lon="-84.669587" lat="39.041320">
        <ele>264.792</ele>
        <time>2025-12-17T15:37:12.780Z</time>
      </trkpt>
      <trkpt lon="-84.669496" lat="39.040646">
        <ele>264.289</ele>
        <time>2025-12-17T15:37:18.344Z</time>
      </trkpt>
      <trkpt lon="-84.669288" lat="39.039737">
        <ele>264.421</ele>
        <time>2025-12-17T15:37:28.884Z</time>
      </trkpt>
      <trkpt lon="-84.669166" lat="39.039372">
        <ele>264.659</ele>
        <time>2025-12-17T15:37:39.624Z</time>
      </trkpt>
      <trkpt lon="-84.669158" lat="39.039355">
        <ele>264.68</ele>
        <time>2025-12-17T15:37:50.252Z</time>
      </trkpt>
      <trkpt lon="-84.669132" lat="39.039300">
        <ele>264.727</ele>
        <time>2025-12-17T15:39:55.600Z</time>
      </trkpt>
      <trkpt lon="-84.668980" lat="39.038787">
        <ele>265.264</ele>
        <time>2025-12-17T15:40:00.836Z</time>
      </trkpt>
      <trkpt lon="-84.668984" lat="39.037919">
        <ele>265.929</ele>
        <time>2025-12-17T15:40:05.864Z</time>
      </trkpt>
      <trkpt lon="-84.668867" lat="39.036694">
        <ele>266.297</ele>
        <time>2025-12-17T15:40:11.032Z</time>
      </trkpt>
      <trkpt lon="-84.668498" lat="39.035043">
        <ele>267.803</ele>
        <time>2025-12-17T15:40:16.044Z</time>
      </trkpt>
      <trkpt lon="-84.667533" lat="39.032700">
        <ele>268.728</ele>
        <time>2025-12-17T15:40:21.092Z</time>
      </trkpt>
      <trkpt lon="-84.666357" lat="39.029739">
        <ele>316.425</ele>
        <time>2025-12-17T15:40:26.512Z</time>
      </trkpt>
      <trkpt lon="-84.664877" lat="39.026808">
        <ele>397.675</ele>
        <time>2025-12-17T15:40:31.812Z</time>
      </trkpt>
      <trkpt lon="-84.662618" lat="39.024068">
        <ele>469.926</ele>
        <time>2025-12-17T15:40:36.964Z</time>
      </trkpt>
      <trkpt lon="-84.659313" lat="39.021446">
        <ele>542.165</ele>
        <time>2025-12-17T15:40:42.356Z</time>
      </trkpt>
      <trkpt lon="-84.655380" lat="39.019090">
        <ele>601.177</ele>
        <time>2025-12-17T15:40:47.584Z</time>
      </trkpt>
      <trkpt lon="-84.651096" lat="39.016868">
        <ele>667.657</ele>
        <time>2025-12-17T15:40:52.708Z</time>
      </trkpt>
      <trkpt lon="-84.646196" lat="39.014494">
        <ele>751.452</ele>
        <time>2025-12-17T15:40:58.332Z</time>
      </trkpt>
      <trkpt lon="-84.641780" lat="39.012343">
        <ele>821.956</ele>
        <time>2025-12-17T15:41:03.352Z</time>
      </trkpt>
      <trkpt lon="-84.637114" lat="39.009921">
        <ele>904.153</ele>
        <time>2025-12-17T15:41:08.756Z</time>
      </trkpt>
      <trkpt lon="-84.632902" lat="39.007375">
        <ele>989.607</ele>
        <time>2025-12-17T15:41:14.036Z</time>
      </trkpt>
      <trkpt lon="-84.628826" lat="39.004350">
        <ele>1065.29</ele>
        <time>2025-12-17T15:41:19.656Z</time>
      </trkpt>
      <trkpt lon="-84.625317" lat="39.001337">
        <ele>1090.32</ele>
        <time>2025-12-17T15:41:24.656Z</time>
      </trkpt>
      <trkpt lon="-84.621425" lat="38.997683">
        <ele>1075.47</ele>
        <time>2025-12-17T15:41:30.044Z</time>
      </trkpt>
      <trkpt lon="-84.617520" lat="38.993913">
        <ele>1064.26</ele>
        <time>2025-12-17T15:41:35.196Z</time>
      </trkpt>
      <trkpt lon="-84.608548" lat="38.986353">
        <ele>1061.03</ele>
        <time>2025-12-17T15:41:45.436Z</time>
      </trkpt>
      <trkpt lon="-84.603165" lat="38.982700">
        <ele>1058.42</ele>
        <time>2025-12-17T15:41:50.708Z</time>
      </trkpt>
      <trkpt lon="-84.597334" lat="38.979413">
        <ele>1062.67</ele>
        <time>2025-12-17T15:41:55.912Z</time>
      </trkpt>
      <trkpt lon="-84.591061" lat="38.976443">
        <ele>1062.23</ele>
        <time>2025-12-17T15:42:01.112Z</time>
      </trkpt>
      <trkpt lon="-84.584530" lat="38.973898">
        <ele>1057.97</ele>
        <time>2025-12-17T15:42:06.208Z</time>
      </trkpt>
      <trkpt lon="-84.577447" lat="38.971739">
        <ele>1061.71</ele>
        <time>2025-12-17T15:42:11.456Z</time>
      </trkpt>
      <trkpt lon="-84.569951" lat="38.969999">
        <ele>1060.73</ele>
        <time>2025-12-17T15:42:16.824Z</time>
      </trkpt>
      <trkpt lon="-84.562009" lat="38.968736">
        <ele>1061.67</ele>
        <time>2025-12-17T15:42:22.368Z</time>
      </trkpt>
      <trkpt lon="-84.554070" lat="38.968005">
        <ele>1059.69</ele>
        <time>2025-12-17T15:42:27.828Z</time>
      </trkpt>
      <trkpt lon="-84.546271" lat="38.967825">
        <ele>1061.45</ele>
        <time>2025-12-17T15:42:33.160Z</time>
      </trkpt>
      <trkpt lon="-84.530785" lat="38.968925">
        <ele>1057.89</ele>
        <time>2025-12-17T15:42:43.756Z</time>
      </trkpt>
      <trkpt lon="-84.523515" lat="38.970191">
        <ele>1060.93</ele>
        <time>2025-12-17T15:42:48.836Z</time>
      </trkpt>
      <trkpt lon="-84.516258" lat="38.971955">
        <ele>1059.54</ele>
        <time>2025-12-17T15:42:54.020Z</time>
      </trkpt>
      <trkpt lon="-84.509311" lat="38.974178">
        <ele>1061.29</ele>
        <time>2025-12-17T15:42:59.152Z</time>
      </trkpt>
      <trkpt lon="-84.502237" lat="38.977034">
        <ele>1063.64</ele>
        <time>2025-12-17T15:43:04.624Z</time>
      </trkpt>
      <trkpt lon="-84.495850" lat="38.980176">
        <ele>1060.34</ele>
        <time>2025-12-17T15:43:09.856Z</time>
      </trkpt>
      <trkpt lon="-84.489957" lat="38.983697">
        <ele>1061.25</ele>
        <time>2025-12-17T15:43:15.028Z</time>
      </trkpt>
      <trkpt lon="-84.478864" lat="38.991922">
        <ele>1060.39</ele>
        <time>2025-12-17T15:43:25.720Z</time>
      </trkpt>
      <trkpt lon="-84.459533" lat="39.009813">
        <ele>1062.14</ele>
        <time>2025-12-17T15:43:46.848Z</time>
      </trkpt>
      <trkpt lon="-84.669146" lat="39.039341">
        <ele>1132.82</ele>
        <time>2025-12-17T15:43:52.172Z</time>
      </trkpt>
      <trkpt lon="-84.667543" lat="39.041049">
        <ele>1128.4</ele>
        <time>2025-12-17T15:44:18.632Z</time>
      </trkpt>
      <trkpt lon="-84.639795" lat="39.069966">
        <ele>1137.65</ele>
        <time>2025-12-17T15:44:50.436Z</time>
      </trkpt>
      <trkpt lon="-84.611599" lat="39.099127">
        <ele>1148.64</ele>
        <time>2025-12-17T15:45:22.180Z</time>
      </trkpt>
      <trkpt lon="-84.583704" lat="39.127857">
        <ele>1151.8</ele>
        <time>2025-12-17T15:45:53.392Z</time>
      </trkpt>
      <trkpt lon="-84.556093" lat="39.156429">
        <ele>1152.39</ele>
        <time>2025-12-17T15:46:24.360Z</time>
      </trkpt>
      <trkpt lon="-84.526870" lat="39.186784">
        <ele>1170.95</ele>
        <time>2025-12-17T15:46:57.192Z</time>
      </trkpt>
      <trkpt lon="-84.518288" lat="39.195827">
        <ele>1174.48</ele>
        <time>2025-12-17T15:50:33.880Z</time>
      </trkpt>
      <trkpt lon="-84.489747" lat="39.225470">
        <ele>1172.28</ele>
        <time>2025-12-17T15:51:06.084Z</time>
      </trkpt>
      <trkpt lon="-84.460376" lat="39.255490">
        <ele>1173.31</ele>
        <time>2025-12-17T15:51:38.896Z</time>
      </trkpt>
      <trkpt lon="-84.432998" lat="39.283242">
        <ele>1174.96</ele>
        <time>2025-12-17T15:52:09.300Z</time>
      </trkpt>
      <trkpt lon="-84.404141" lat="39.312652">
        <ele>1186.05</ele>
        <time>2025-12-17T15:52:41.416Z</time>
      </trkpt>
      <trkpt lon="-84.375857" lat="39.341436">
        <ele>1190.51</ele>
        <time>2025-12-17T15:53:12.864Z</time>
      </trkpt>
      <trkpt lon="-84.347337" lat="39.370518">
        <ele>1189.9</ele>
        <time>2025-12-17T15:53:44.588Z</time>
      </trkpt>
      <trkpt lon="-84.317858" lat="39.400578">
        <ele>1197.35</ele>
        <time>2025-12-17T15:54:17.296Z</time>
      </trkpt>
      <trkpt lon="-84.289123" lat="39.430001">
        <ele>1204.48</ele>
        <time>2025-12-17T15:54:49.304Z</time>
      </trkpt>
      <trkpt lon="-84.261415" lat="39.457878">
        <ele>1223.57</ele>
        <time>2025-12-17T15:55:19.780Z</time>
      </trkpt>
      <trkpt lon="-84.232453" lat="39.486876">
        <ele>1232.26</ele>
        <time>2025-12-17T15:55:51.588Z</time>
      </trkpt>
      <trkpt lon="-84.203911" lat="39.515358">
        <ele>1237.57</ele>
        <time>2025-12-17T15:56:22.888Z</time>
      </trkpt>
      <trkpt lon="-84.175458" lat="39.543755">
        <ele>1243.75</ele>
        <time>2025-12-17T15:56:54.124Z</time>
      </trkpt>
      <trkpt lon="-84.144898" lat="39.574308">
        <ele>1242.25</ele>
        <time>2025-12-17T15:57:27.688Z</time>
      </trkpt>
      <trkpt lon="-84.116478" lat="39.602743">
        <ele>1239.08</ele>
        <time>2025-12-17T15:57:58.940Z</time>
      </trkpt>
      <trkpt lon="-84.087400" lat="39.631789">
        <ele>1233.6</ele>
        <time>2025-12-17T15:58:30.920Z</time>
      </trkpt>
      <trkpt lon="-84.058874" lat="39.659805">
        <ele>1255.48</ele>
        <time>2025-12-17T15:59:01.928Z</time>
      </trkpt>
      <trkpt lon="-84.039884" lat="39.678253">
        <ele>1237.1</ele>
        <time>2025-12-17T15:59:22.844Z</time>
      </trkpt>
      <trkpt lon="-84.022653" lat="39.698731">
        <ele>1199.79</ele>
        <time>2025-12-17T15:59:44.796Z</time>
      </trkpt>
      <trkpt lon="-84.009160" lat="39.719319">
        <ele>1111.51</ele>
        <time>2025-12-17T16:00:05.792Z</time>
      </trkpt>
      <trkpt lon="-84.004154" lat="39.730184">
        <ele>1032.97</ele>
        <time>2025-12-17T16:00:16.316Z</time>
      </trkpt>
      <trkpt lon="-84.000362" lat="39.741852">
        <ele>940.995</ele>
        <time>2025-12-17T16:00:27.272Z</time>
      </trkpt>
      <trkpt lon="-83.998107" lat="39.754138">
        <ele>865.896</ele>
        <time>2025-12-17T16:00:38.700Z</time>
      </trkpt>
      <trkpt lon="-83.997475" lat="39.766074">
        <ele>828.721</ele>
        <time>2025-12-17T16:00:49.992Z</time>
      </trkpt>
      <trkpt lon="-83.999751" lat="39.789742">
        <ele>837.624</ele>
        <time>2025-12-17T16:01:13.164Z</time>
      </trkpt>
      <trkpt lon="-84.003993" lat="39.811244">
        <ele>856.735</ele>
        <time>2025-12-17T16:01:34.880Z</time>
      </trkpt>
      <trkpt lon="-84.005740" lat="39.815946">
        <ele>830.538</ele>
        <time>2025-12-17T16:01:40.160Z</time>
      </trkpt>
      <trkpt lon="-84.007836" lat="39.820277">
        <ele>758.284</ele>
        <time>2025-12-17T16:01:45.584Z</time>
      </trkpt>
      <trkpt lon="-84.010954" lat="39.823509">
        <ele>641.145</ele>
        <time>2025-12-17T16:01:50.636Z</time>
      </trkpt>
      <trkpt lon="-84.014963" lat="39.826406">
        <ele>573.621</ele>
        <time>2025-12-17T16:01:55.912Z</time>
      </trkpt>
      <trkpt lon="-84.019181" lat="39.829167">
        <ele>510.292</ele>
        <time>2025-12-17T16:02:01.296Z</time>
      </trkpt>
      <trkpt lon="-84.023404" lat="39.831189">
        <ele>433.32</ele>
        <time>2025-12-17T16:02:06.576Z</time>
      </trkpt>
      <trkpt lon="-84.027614" lat="39.832024">
        <ele>353.215</ele>
        <time>2025-12-17T16:02:11.972Z</time>
      </trkpt>
      <trkpt lon="-84.031015" lat="39.831753">
        <ele>287.689</ele>
        <time>2025-12-17T16:02:16.848Z</time>
      </trkpt>
      <trkpt lon="-84.033691" lat="39.831211">
        <ele>253.004</ele>
        <time>2025-12-17T16:02:21.908Z</time>
      </trkpt>
      <trkpt lon="-84.034363" lat="39.830866">
        <ele>253.144</ele>
        <time>2025-12-17T16:02:27.356Z</time>
      </trkpt>
      <trkpt lon="-84.034780" lat="39.830425">
        <ele>252.872</ele>
        <time>2025-12-17T16:04:02.896Z</time>
      </trkpt>
      <trkpt lon="-84.036362" lat="39.829544">
        <ele>252.264</ele>
        <time>2025-12-17T16:04:08.124Z</time>
      </trkpt>
      <trkpt lon="-84.038878" lat="39.828235">
        <ele>254.765</ele>
        <time>2025-12-17T16:04:13.300Z</time>
      </trkpt>
      <trkpt lon="-84.042064" lat="39.826524">
        <ele>302.254</ele>
        <time>2025-12-17T16:04:18.696Z</time>
      </trkpt>
      <trkpt lon="-84.045344" lat="39.824717">
        <ele>392.993</ele>
        <time>2025-12-17T16:04:24.156Z</time>
      </trkpt>
      <trkpt lon="-84.048553" lat="39.822869">
        <ele>485.719</ele>
        <time>2025-12-17T16:04:29.544Z</time>
      </trkpt>
      <trkpt lon="-84.051430" lat="39.820993">
        <ele>578.378</ele>
        <time>2025-12-17T16:04:34.624Z</time>
      </trkpt>
      <trkpt lon="-84.054025" lat="39.818717">
        <ele>679.997</ele>
        <time>2025-12-17T16:04:39.940Z</time>
      </trkpt>
      <trkpt lon="-84.056075" lat="39.816147">
        <ele>776.388</ele>
        <time>2025-12-17T16:04:45.128Z</time>
      </trkpt>
      <trkpt lon="-84.057707" lat="39.813366">
        <ele>868.168</ele>
        <time>2025-12-17T16:04:50.208Z</time>
      </trkpt>
      <trkpt lon="-84.059207" lat="39.810212">
        <ele>963.396</ele>
        <time>2025-12-17T16:04:55.652Z</time>
      </trkpt>
      <trkpt lon="-84.060605" lat="39.807033">
        <ele>1044.35</ele>
        <time>2025-12-17T16:05:00.968Z</time>
      </trkpt>
      <trkpt lon="-84.062172" lat="39.803606">
        <ele>1082.41</ele>
        <time>2025-12-17T16:05:06.320Z</time>
      </trkpt>
      <trkpt lon="-84.064032" lat="39.799852">
        <ele>1073.72</ele>
        <time>2025-12-17T16:05:11.652Z</time>
      </trkpt>
      <trkpt lon="-84.066280" lat="39.795674">
        <ele>1060.99</ele>
        <time>2025-12-17T16:05:17.084Z</time>
      </trkpt>
      <trkpt lon="-84.071269" lat="39.786957">
        <ele>1054.66</ele>
        <time>2025-12-17T16:05:27.712Z</time>
      </trkpt>
      <trkpt lon="-84.034373" lat="39.830851">
        <ele>1007.51</ele>
        <time>2025-12-17T16:05:43.116Z</time>
      </trkpt>
      <trkpt lon="-84.036907" lat="39.827323">
        <ele>1008.03</ele>
        <time>2025-12-17T16:06:09.320Z</time>
      </trkpt>
      <trkpt lon="-84.052477" lat="39.803764">
        <ele>1050.54</ele>
        <time>2025-12-17T16:06:36.024Z</time>
      </trkpt>
      <trkpt lon="-84.070484" lat="39.774260">
        <ele>1053.97</ele>
        <time>2025-12-17T16:07:07.676Z</time>
      </trkpt>
      <trkpt lon="-84.088871" lat="39.744086">
        <ele>1052.83</ele>
        <time>2025-12-17T16:07:39.696Z</time>
      </trkpt>
      <trkpt lon="-84.106902" lat="39.714296">
        <ele>1053.06</ele>
        <time>2025-12-17T16:08:11.188Z</time>
      </trkpt>
      <trkpt lon="-84.125147" lat="39.684215">
        <ele>1052.51</ele>
        <time>2025-12-17T16:08:43.076Z</time>
      </trkpt>
      <trkpt lon="-84.143038" lat="39.654590">
        <ele>1052.67</ele>
        <time>2025-12-17T16:09:14.556Z</time>
      </trkpt>
      <trkpt lon="-84.160968" lat="39.625169">
        <ele>1051.3</ele>
        <time>2025-12-17T16:09:46.156Z</time>
      </trkpt>
      <trkpt lon="-84.178946" lat="39.595728">
        <ele>1054.08</ele>
        <time>2025-12-17T16:10:18.044Z</time>
      </trkpt>
      <trkpt lon="-84.196536" lat="39.566974">
        <ele>1052.54</ele>
        <time>2025-12-17T16:10:49.628Z</time>
      </trkpt>
      <trkpt lon="-84.216327" lat="39.537818">
        <ele>1065.91</ele>
        <time>2025-12-17T16:11:21.564Z</time>
      </trkpt>
      <trkpt lon="-84.239433" lat="39.508260">
        <ele>1065.73</ele>
        <time>2025-12-17T16:11:53.796Z</time>
      </trkpt>
      <trkpt lon="-84.267114" lat="39.473486">
        <ele>1067.1</ele>
        <time>2025-12-17T16:12:31.584Z</time>
      </trkpt>
      <trkpt lon="-84.291381" lat="39.443144">
        <ele>1068.9</ele>
        <time>2025-12-17T16:13:04.600Z</time>
      </trkpt>
      <trkpt lon="-84.316109" lat="39.412164">
        <ele>1065.43</ele>
        <time>2025-12-17T16:13:38.184Z</time>
      </trkpt>
      <trkpt lon="-84.339425" lat="39.382905">
        <ele>1065.1</ele>
        <time>2025-12-17T16:14:09.900Z</time>
      </trkpt>
      <trkpt lon="-84.362507" lat="39.354015">
        <ele>1067.3</ele>
        <time>2025-12-17T16:14:41.268Z</time>
      </trkpt>
      <trkpt lon="-84.387956" lat="39.324051">
        <ele>1022.43</ele>
        <time>2025-12-17T16:15:14.308Z</time>
      </trkpt>
      <trkpt lon="-84.397893" lat="39.314214">
        <ele>971.68</ele>
        <time>2025-12-17T16:15:25.548Z</time>
      </trkpt>
      <trkpt lon="-84.408824" lat="39.304736">
        <ele>909.961</ele>
        <time>2025-12-17T16:15:36.912Z</time>
      </trkpt>
      <trkpt lon="-84.431415" lat="39.288151">
        <ele>840.185</ele>
        <time>2025-12-17T16:15:58.496Z</time>
      </trkpt>
      <trkpt lon="-84.464961" lat="39.264444">
        <ele>816.217</ele>
        <time>2025-12-17T16:16:30.924Z</time>
      </trkpt>
      <trkpt lon="-84.486843" lat="39.248226">
        <ele>768.872</ele>
        <time>2025-12-17T16:16:52.528Z</time>
      </trkpt>
      <trkpt lon="-84.507989" lat="39.231851">
        <ele>703.596</ele>
        <time>2025-12-17T16:17:13.732Z</time>
      </trkpt>
      <trkpt lon="-84.527368" lat="39.213862">
        <ele>688.497</ele>
        <time>2025-12-17T16:17:35.284Z</time>
      </trkpt>
      <trkpt lon="-84.552800" lat="39.184047">
        <ele>665.658</ele>
        <time>2025-12-17T16:18:08.588Z</time>
      </trkpt>
      <trkpt lon="-84.569864" lat="39.163941">
        <ele>628.352</ele>
        <time>2025-12-17T16:18:30.936Z</time>
      </trkpt>
      <trkpt lon="-84.587576" lat="39.143608">
        <ele>590.801</ele>
        <time>2025-12-17T16:18:53.696Z</time>
      </trkpt>
      <trkpt lon="-84.604479" lat="39.123896">
        <ele>553.163</ele>
        <time>2025-12-17T16:19:15.656Z</time>
      </trkpt>
      <trkpt lon="-84.620662" lat="39.104262">
        <ele>519.882</ele>
        <time>2025-12-17T16:19:37.320Z</time>
      </trkpt>
      <trkpt lon="-84.642103" lat="39.077018">
        <ele>500.098</ele>
        <time>2025-12-17T16:20:07.152Z</time>
      </trkpt>
      <trkpt lon="-84.644957" lat="39.072226">
        <ele>481.846</ele>
        <time>2025-12-17T16:20:12.308Z</time>
      </trkpt>
      <trkpt lon="-84.646663" lat="39.067754">
        <ele>443.135</ele>
        <time>2025-12-17T16:20:17.640Z</time>
      </trkpt>
      <trkpt lon="-84.647382" lat="39.064005">
        <ele>378.866</ele>
        <time>2025-12-17T16:20:23.136Z</time>
      </trkpt>
      <trkpt lon="-84.647499" lat="39.061070">
        <ele>318.208</ele>
        <time>2025-12-17T16:20:28.500Z</time>
      </trkpt>
      <trkpt lon="-84.647443" lat="39.058785">
        <ele>267.267</ele>
        <time>2025-12-17T16:20:33.848Z</time>
      </trkpt>
      <trkpt lon="-84.647490" lat="39.057650">
        <ele>264.623</ele>
        <time>2025-12-17T16:20:39.240Z</time>
      </trkpt>
      <trkpt lon="-84.647489" lat="39.057569">
        <ele>264.425</ele>
        <time>2025-12-17T16:20:45.128Z</time>
      </trkpt>
    </trkseg>
    <trkseg>
      <trkpt lon="-88.129714" lat="44.484633">
        <ele>215.769</ele>
        <time>2025-12-17T16:42:26.052Z</time>
      </trkpt>
      <trkpt lon="-88.129714" lat="44.484633">
        <ele>208.966</ele>
        <time>2025-12-17T16:42:49.412Z</time>
      </trkpt>
      <trkpt lon="-88.129704" lat="44.484435">
        <ele>210.395</ele>
        <time>2025-12-17T16:45:02.580Z</time>
      </trkpt>
      <trkpt lon="-88.129596" lat="44.483193">
        <ele>208.723</ele>
        <time>2025-12-17T16:45:08.176Z</time>
      </trkpt>
      <trkpt lon="-88.129728" lat="44.481156">
        <ele>208.652</ele>
        <time>2025-12-17T16:45:13.256Z</time>
      </trkpt>
      <trkpt lon="-88.130455" lat="44.478391">
        <ele>215.259</ele>
        <time>2025-12-17T16:45:18.424Z</time>
      </trkpt>
      <trkpt lon="-88.131443" lat="44.475088">
        <ele>256.508</ele>
        <time>2025-12-17T16:45:23.740Z</time>
      </trkpt>
      <trkpt lon="-88.132475" lat="44.471815">
        <ele>326.931</ele>
        <time>2025-12-17T16:45:28.792Z</time>
      </trkpt>
      <trkpt lon="-88.133625" lat="44.468253">
        <ele>405.753</ele>
        <time>2025-12-17T16:45:34.168Z</time>
      </trkpt>
      <trkpt lon="-88.134859" lat="44.464665">
        <ele>484.624</ele>
        <time>2025-12-17T16:45:39.492Z</time>
      </trkpt>
      <trkpt lon="-88.136354" lat="44.461328">
        <ele>561.173</ele>
        <time>2025-12-17T16:45:44.520Z</time>
      </trkpt>
      <trkpt lon="-88.138430" lat="44.458139">
        <ele>639.783</ele>
        <time>2025-12-17T16:45:49.548Z</time>
      </trkpt>
      <trkpt lon="-88.141304" lat="44.455111">
        <ele>722.036</ele>
        <time>2025-12-17T16:45:54.728Z</time>
      </trkpt>
      <trkpt lon="-88.144995" lat="44.452350">
        <ele>808.585</ele>
        <time>2025-12-17T16:46:00.104Z</time>
      </trkpt>
      <trkpt lon="-88.149176" lat="44.450122">
        <ele>893.615</ele>
        <time>2025-12-17T16:46:05.316Z</time>
      </trkpt>
      <trkpt lon="-88.154193" lat="44.448296">
        <ele>986.241</ele>
        <time>2025-12-17T16:46:10.904Z</time>
      </trkpt>
      <trkpt lon="-88.159435" lat="44.447076">
        <ele>1071.08</ele>
        <time>2025-12-17T16:46:16.352Z</time>
      </trkpt>
      <trkpt lon="-88.164928" lat="44.446123">
        <ele>1110.71</ele>
        <time>2025-12-17T16:46:21.628Z</time>
      </trkpt>
      <trkpt lon="-88.170970" lat="44.445271">
        <ele>1104.56</ele>
        <time>2025-12-17T16:46:26.888Z</time>
      </trkpt>
      <trkpt lon="-88.177819" lat="44.444499">
        <ele>1093.06</ele>
        <time>2025-12-17T16:46:32.344Z</time>
      </trkpt>
      <trkpt lon="-88.185156" lat="44.443807">
        <ele>1080.82</ele>
        <time>2025-12-17T16:46:37.828Z</time>
      </trkpt>
      <trkpt lon="-88.200558" lat="44.442578">
        <ele>1068.45</ele>
        <time>2025-12-17T16:46:48.748Z</time>
      </trkpt>
      <trkpt lon="-88.246404" lat="44.439609">
        <ele>1069.35</ele>
        <time>2025-12-17T16:47:19.820Z</time>
      </trkpt>
      <trkpt lon="-88.129714" lat="44.484633">
        <ele>1046.34</ele>
        <time>2025-12-17T16:47:45.832Z</time>
      </trkpt>
      <trkpt lon="-88.135071" lat="44.484349">
        <ele>1045.18</ele>
        <time>2025-12-17T16:48:01.868Z</time>
      </trkpt>
      <trkpt lon="-88.182062" lat="44.481889">
        <ele>1065.29</ele>
        <time>2025-12-17T16:48:33.376Z</time>
      </trkpt>
      <trkpt lon="-88.230065" lat="44.479209">
        <ele>1066.69</ele>
        <time>2025-12-17T16:49:05.352Z</time>
      </trkpt>
      <trkpt lon="-88.279004" lat="44.476389">
        <ele>1067.54</ele>
        <time>2025-12-17T16:49:37.928Z</time>
      </trkpt>
      <trkpt lon="-88.129714" lat="44.484633">
        <ele>1027.86</ele>
        <time>2025-12-17T16:50:10.616Z</time>
      </trkpt>
      <trkpt lon="-88.133101" lat="44.484448">
        <ele>1021.37</ele>
        <time>2025-12-17T16:55:53.940Z</time>
      </trkpt>
      <trkpt lon="-88.181251" lat="44.481871">
        <ele>1063.52</ele>
        <time>2025-12-17T16:56:26.268Z</time>
      </trkpt>
      <trkpt lon="-88.227673" lat="44.479239">
        <ele>1069.96</ele>
        <time>2025-12-17T16:56:57.376Z</time>
      </trkpt>
      <trkpt lon="-88.275145" lat="44.476409">
        <ele>1065.6</ele>
        <time>2025-12-17T16:57:29.060Z</time>
      </trkpt>
      <trkpt lon="-88.323326" lat="44.473537">
        <ele>1063.91</ele>
        <time>2025-12-17T16:58:01.248Z</time>
      </trkpt>
      <trkpt lon="-88.370442" lat="44.470725">
        <ele>1068.57</ele>
        <time>2025-12-17T16:58:32.664Z</time>
      </trkpt>
      <trkpt lon="-88.416885" lat="44.467965">
        <ele>1062.53</ele>
        <time>2025-12-17T16:59:03.620Z</time>
      </trkpt>
      <trkpt lon="-88.464430" lat="44.465192">
        <ele>1066.09</ele>
        <time>2025-12-17T16:59:35.312Z</time>
      </trkpt>
      <trkpt lon="-88.511653" lat="44.462437">
        <ele>1065.57</ele>
        <time>2025-12-17T17:00:06.764Z</time>
      </trkpt>
      <trkpt lon="-88.557595" lat="44.459769">
        <ele>1062.31</ele>
        <time>2025-12-17T17:00:37.460Z</time>
      </trkpt>
      <trkpt lon="-88.604690" lat="44.457060">
        <ele>1067.12</ele>
        <time>2025-12-17T17:01:08.920Z</time>
      </trkpt>
      <trkpt lon="-88.652507" lat="44.454343">
        <ele>1066.21</ele>
        <time>2025-12-17T17:01:40.828Z</time>
      </trkpt>
      <trkpt lon="-88.700192" lat="44.451658">
        <ele>1066.81</ele>
        <time>2025-12-17T17:02:12.604Z</time>
      </trkpt>
      <trkpt lon="-88.747651" lat="44.449004">
        <ele>1064.68</ele>
        <time>2025-12-17T17:02:44.252Z</time>
      </trkpt>
      <trkpt lon="-88.795673" lat="44.446343">
        <ele>1064.51</ele>
        <time>2025-12-17T17:03:16.236Z</time>
      </trkpt>
      <trkpt lon="-88.843707" lat="44.443685">
        <ele>1063.11</ele>
        <time>2025-12-17T17:03:48.160Z</time>
      </trkpt>
      <trkpt lon="-88.891910" lat="44.441075">
        <ele>1064.84</ele>
        <time>2025-12-17T17:04:20.336Z</time>
      </trkpt>
      <trkpt lon="-88.939146" lat="44.438519">
        <ele>1065.8</ele>
        <time>2025-12-17T17:04:51.848Z</time>
      </trkpt>
      <trkpt lon="-88.986607" lat="44.435982">
        <ele>1064.02</ele>
        <time>2025-12-17T17:05:23.504Z</time>
      </trkpt>
      <trkpt lon="-89.034710" lat="44.433444">
        <ele>1066.09</ele>
        <time>2025-12-17T17:05:55.548Z</time>
      </trkpt>
      <trkpt lon="-89.083281" lat="44.430896">
        <ele>1066.86</ele>
        <time>2025-12-17T17:06:27.956Z</time>
      </trkpt>
      <trkpt lon="-89.130522" lat="44.428442">
        <ele>1065.14</ele>
        <time>2025-12-17T17:06:59.404Z</time>
      </trkpt>
      <trkpt lon="-89.178503" lat="44.425984">
        <ele>1064.21</ele>
        <time>2025-12-17T17:07:31.340Z</time>
      </trkpt>
      <trkpt lon="-89.227157" lat="44.423497">
        <ele>1064.81</ele>
        <time>2025-12-17T17:08:03.728Z</time>
      </trkpt>
      <trkpt lon="-89.276030" lat="44.421023">
        <ele>1064.37</ele>
        <time>2025-12-17T17:08:36.316Z</time>
      </trkpt>
      <trkpt lon="-89.323113" lat="44.418657">
        <ele>1066.21</ele>
        <time>2025-12-17T17:09:07.672Z</time>
      </trkpt>
      <trkpt lon="-89.370159" lat="44.416320">
        <ele>1066.36</ele>
        <time>2025-12-17T17:09:38.968Z</time>
      </trkpt>
      <trkpt lon="-89.416858" lat="44.414047">
        <ele>1062.33</ele>
        <time>2025-12-17T17:10:10.032Z</time>
      </trkpt>
      <trkpt lon="-89.464685" lat="44.411732">
        <ele>1069.09</ele>
        <time>2025-12-17T17:10:41.888Z</time>
      </trkpt>
      <trkpt lon="-89.510735" lat="44.409490">
        <ele>1064.73</ele>
        <time>2025-12-17T17:11:12.528Z</time>
      </trkpt>
      <trkpt lon="-89.557334" lat="44.407264">
        <ele>1063.91</ele>
        <time>2025-12-17T17:11:43.536Z</time>
      </trkpt>
      <trkpt lon="-89.605910" lat="44.404974">
        <ele>1065.64</ele>
        <time>2025-12-17T17:12:15.936Z</time>
      </trkpt>
      <trkpt lon="-89.651540" lat="44.402860">
        <ele>1065.62</ele>
        <time>2025-12-17T17:12:46.372Z</time>
      </trkpt>
      <trkpt lon="-89.695917" lat="44.400113">
        <ele>1109.34</ele>
        <time>2025-12-17T17:13:16.236Z</time>
      </trkpt>
      <trkpt lon="-89.710831" lat="44.397804">
        <ele>1133.74</ele>
        <time>2025-12-17T17:13:26.636Z</time>
      </trkpt>
      <trkpt lon="-89.725961" lat="44.394237">
        <ele>1155.69</ele>
        <time>2025-12-17T17:13:37.508Z</time>
      </trkpt>
      <trkpt lon="-89.739435" lat="44.389632">
        <ele>1153.76</ele>
        <time>2025-12-17T17:13:48.064Z</time>
      </trkpt>
      <trkpt lon="-89.744741" lat="44.387302">
        <ele>1116.06</ele>
        <time>2025-12-17T17:13:53.236Z</time>
      </trkpt>
      <trkpt lon="-89.749406" lat="44.384939">
        <ele>1038.33</ele>
        <time>2025-12-17T17:13:58.328Z</time>
      </trkpt>
      <trkpt lon="-89.754274" lat="44.381977">
        <ele>930.18</ele>
        <time>2025-12-17T17:14:03.592Z</time>
      </trkpt>
      <trkpt lon="-89.759058" lat="44.378386">
        <ele>858.632</ele>
        <time>2025-12-17T17:14:08.708Z</time>
      </trkpt>
      <trkpt lon="-89.764142" lat="44.374656">
        <ele>815.739</ele>
        <time>2025-12-17T17:14:13.848Z</time>
      </trkpt>
      <trkpt lon="-89.770106" lat="44.371125">
        <ele>780.515</ele>
        <time>2025-12-17T17:14:19.252Z</time>
      </trkpt>
      <trkpt lon="-89.776873" lat="44.368177">
        <ele>750.289</ele>
        <time>2025-12-17T17:14:24.776Z</time>
      </trkpt>
      <trkpt lon="-89.784086" lat="44.366030">
        <ele>727.913</ele>
        <time>2025-12-17T17:14:30.200Z</time>
      </trkpt>
      <trkpt lon="-89.791443" lat="44.364704">
        <ele>704.639</ele>
        <time>2025-12-17T17:14:35.476Z</time>
      </trkpt>
      <trkpt lon="-89.799360" lat="44.363958">
        <ele>667.504</ele>
        <time>2025-12-17T17:14:41.108Z</time>
      </trkpt>
      <trkpt lon="-89.805821" lat="44.363591">
        <ele>628.558</ele>
        <time>2025-12-17T17:14:46.072Z</time>
      </trkpt>
      <trkpt lon="-89.811725" lat="44.363212">
        <ele>572.392</ele>
        <time>2025-12-17T17:14:51.164Z</time>
      </trkpt>
      <trkpt lon="-89.817301" lat="44.362694">
        <ele>492.591</ele>
        <time>2025-12-17T17:14:56.420Z</time>
      </trkpt>
      <trkpt lon="-89.822285" lat="44.362097">
        <ele>418.679</ele>
        <time>2025-12-17T17:15:01.568Z</time>
      </trkpt>
      <trkpt lon="-89.826890" lat="44.361535">
        <ele>364.553</ele>
        <time>2025-12-17T17:15:06.672Z</time>
      </trkpt>
      <trkpt lon="-89.831225" lat="44.361064">
        <ele>322.064</ele>
        <time>2025-12-17T17:15:11.844Z</time>
      </trkpt>
      <trkpt lon="-89.834500" lat="44.360803">
        <ele>311.256</ele>
        <time>2025-12-17T17:15:17.060Z</time>
      </trkpt>
      <trkpt lon="-89.835730" lat="44.360719">
        <ele>311.471</ele>
        <time>2025-12-17T17:15:22.464Z</time>
      </trkpt>
      <trkpt lon="-89.835750" lat="44.360718">
        <ele>311.473</ele>
        <time>2025-12-17T17:15:33.052Z</time>
      </trkpt>
      <trkpt lon="-89.835864" lat="44.360712">
        <ele>311.488</ele>
        <time>2025-12-17T17:18:14.272Z</time>
      </trkpt>
      <trkpt lon="-89.836591" lat="44.360677">
        <ele>311.562</ele>
        <time>2025-12-17T17:18:19.660Z</time>
      </trkpt>
      <trkpt lon="-89.838380" lat="44.360956">
        <ele>311.527</ele>
        <time>2025-12-17T17:18:24.860Z</time>
      </trkpt>
      <trkpt lon="-89.841195" lat="44.361804">
        <ele>312.436</ele>
        <time>2025-12-17T17:18:30.228Z</time>
      </trkpt>
      <trkpt lon="-89.844909" lat="44.362942">
        <ele>327.634</ele>
        <time>2025-12-17T17:18:35.600Z</time>
      </trkpt>
      <trkpt lon="-89.848971" lat="44.364181">
        <ele>381.375</ele>
        <time>2025-12-17T17:18:40.912Z</time>
      </trkpt>
      <trkpt lon="-89.853187" lat="44.365465">
        <ele>462.285</ele>
        <time>2025-12-17T17:18:46.316Z</time>
      </trkpt>
      <trkpt lon="-89.857322" lat="44.366746">
        <ele>538.986</ele>
        <time>2025-12-17T17:18:51.572Z</time>
      </trkpt>
      <trkpt lon="-89.861195" lat="44.368201">
        <ele>613.76</ele>
        <time>2025-12-17T17:18:56.616Z</time>
      </trkpt>
      <trkpt lon="-89.864847" lat="44.370114">
        <ele>692.022</ele>
        <time>2025-12-17T17:19:01.764Z</time>
      </trkpt>
      <trkpt lon="-89.868021" lat="44.372476">
        <ele>771.239</ele>
        <time>2025-12-17T17:19:06.920Z</time>
      </trkpt>
      <trkpt lon="-89.870601" lat="44.375319">
        <ele>854.985</ele>
        <time>2025-12-17T17:19:12.208Z</time>
      </trkpt>
      <trkpt lon="-89.872302" lat="44.378316">
        <ele>934.351</ele>
        <time>2025-12-17T17:19:17.224Z</time>
      </trkpt>
      <trkpt lon="-89.873244" lat="44.381674">
        <ele>1019.96</ele>
        <time>2025-12-17T17:19:22.504Z</time>
      </trkpt>
      <trkpt lon="-89.873386" lat="44.385131">
        <ele>1093.91</ele>
        <time>2025-12-17T17:19:27.760Z</time>
      </trkpt>
      <trkpt lon="-89.872989" lat="44.389039">
        <ele>1128.86</ele>
        <time>2025-12-17T17:19:33.264Z</time>
      </trkpt>
      <trkpt lon="-89.872196" lat="44.393090">
        <ele>1122.02</ele>
        <time>2025-12-17T17:19:38.448Z</time>
      </trkpt>
      <trkpt lon="-89.870915" lat="44.397772">
        <ele>1111.35</ele>
        <time>2025-12-17T17:19:43.916Z</time>
      </trkpt>
      <trkpt lon="-89.869353" lat="44.402667">
        <ele>1099.68</ele>
        <time>2025-12-17T17:19:49.304Z</time>
      </trkpt>
      <trkpt lon="-89.835773" lat="44.360713">
        <ele>1083.49</ele>
        <time>2025-12-17T17:19:59.860Z</time>
      </trkpt>
      <trkpt lon="-89.835723" lat="44.360850">
        <ele>1083.37</ele>
        <time>2025-12-17T17:20:10.924Z</time>
      </trkpt>
      <trkpt lon="-89.829910" lat="44.376542">
        <ele>1067.73</ele>
        <time>2025-12-17T17:20:26.568Z</time>
      </trkpt>
      <trkpt lon="-89.816241" lat="44.411389">
        <ele>1070.26</ele>
        <time>2025-12-17T17:21:00.284Z</time>
      </trkpt>
      <trkpt lon="-89.802687" lat="44.445360">
        <ele>1070.35</ele>
        <time>2025-12-17T17:21:32.828Z</time>
      </trkpt>
      <trkpt lon="-89.789653" lat="44.477911">
        <ele>1064.5</ele>
        <time>2025-12-17T17:22:03.932Z</time>
      </trkpt>
      <trkpt lon="-89.776604" lat="44.510462">
        <ele>1067.07</ele>
        <time>2025-12-17T17:22:35.040Z</time>
      </trkpt>
      <trkpt lon="-89.763299" lat="44.543703">
        <ele>1063.17</ele>
        <time>2025-12-17T17:23:06.756Z</time>
      </trkpt>
      <trkpt lon="-89.750162" lat="44.576559">
        <ele>1064.66</ele>
        <time>2025-12-17T17:23:38.160Z</time>
      </trkpt>
      <trkpt lon="-89.736984" lat="44.609424">
        <ele>1068.44</ele>
        <time>2025-12-17T17:24:09.484Z</time>
      </trkpt>
      <trkpt lon="-89.724082" lat="44.641692">
        <ele>1061.91</ele>
        <time>2025-12-17T17:24:40.248Z</time>
      </trkpt>
      <trkpt lon="-89.710989" lat="44.674503">
        <ele>1064.71</ele>
        <time>2025-12-17T17:25:11.536Z</time>
      </trkpt>
      <trkpt lon="-89.697798" lat="44.707557">
        <ele>1068.57</ele>
        <time>2025-12-17T17:25:43.084Z</time>
      </trkpt>
      <trkpt lon="-89.684463" lat="44.740857">
        <ele>1063.46</ele>
        <time>2025-12-17T17:26:14.824Z</time>
      </trkpt>
      <trkpt lon="-89.671049" lat="44.774427">
        <ele>1065.8</ele>
        <time>2025-12-17T17:26:46.788Z</time>
      </trkpt>
      <trkpt lon="-89.657518" lat="44.808231">
        <ele>1064.52</ele>
        <time>2025-12-17T17:27:18.972Z</time>
      </trkpt>
      <trkpt lon="-89.644303" lat="44.841328">
        <ele>1064.94</ele>
        <time>2025-12-17T17:27:50.608Z</time>
      </trkpt>
      <trkpt lon="-89.630753" lat="44.875269">
        <ele>1063.6</ele>
        <time>2025-12-17T17:28:22.948Z</time>
      </trkpt>
      <trkpt lon="-89.620064" lat="44.903341">
        <ele>1031.34</ele>
        <time>2025-12-17T17:28:49.600Z</time>
      </trkpt>
      <trkpt lon="-89.619270" lat="44.908530">
        <ele>980.686</ele>
        <time>2025-12-17T17:28:54.824Z</time>
      </trkpt>
      <trkpt lon="-89.619478" lat="44.913157">
        <ele>869.564</ele>
        <time>2025-12-17T17:29:00.192Z</time>
      </trkpt>
      <trkpt lon="-89.621061" lat="44.916988">
        <ele>720.041</ele>
        <time>2025-12-17T17:29:05.312Z</time>
      </trkpt>
      <trkpt lon="-89.623732" lat="44.920737">
        <ele>538.208</ele>
        <time>2025-12-17T17:29:10.908Z</time>
      </trkpt>
      <trkpt lon="-89.626661" lat="44.924024">
        <ele>393.112</ele>
        <time>2025-12-17T17:29:16.264Z</time>
      </trkpt>
      <trkpt lon="-89.629196" lat="44.926296">
        <ele>366.352</ele>
        <time>2025-12-17T17:29:21.532Z</time>
      </trkpt>
      <trkpt lon="-89.630370" lat="44.926906">
        <ele>366.692</ele>
        <time>2025-12-17T17:29:26.908Z</time>
      </trkpt>
      <trkpt lon="-89.630414" lat="44.926920">
        <ele>366.691</ele>
        <time>2025-12-17T17:29:32.268Z</time>
      </trkpt>
      <trkpt lon="-89.630542" lat="44.926959">
        <ele>366.65</ele>
        <time>2025-12-17T17:31:58.580Z</time>
      </trkpt>
      <trkpt lon="-89.631616" lat="44.927289">
        <ele>366.746</ele>
        <time>2025-12-17T17:32:03.804Z</time>
      </trkpt>
      <trkpt lon="-89.633507" lat="44.928280">
        <ele>366.956</ele>
        <time>2025-12-17T17:32:09.100Z</time>
      </trkpt>
      <trkpt lon="-89.636538" lat="44.929419">
        <ele>367.505</ele>
        <time>2025-12-17T17:32:14.372Z</time>
      </trkpt>
      <trkpt lon="-89.640548" lat="44.930667">
        <ele>384.05</ele>
        <time>2025-12-17T17:32:19.684Z</time>
      </trkpt>
      <trkpt lon="-89.644650" lat="44.931958">
        <ele>461.063</ele>
        <time>2025-12-17T17:32:24.908Z</time>
      </trkpt>
      <trkpt lon="-89.648776" lat="44.933200">
        <ele>554.478</ele>
        <time>2025-12-17T17:32:30.236Z</time>
      </trkpt>
      <trkpt lon="-89.653176" lat="44.934340">
        <ele>646.628</ele>
        <time>2025-12-17T17:32:35.876Z</time>
      </trkpt>
      <trkpt lon="-89.657446" lat="44.935052">
        <ele>730.541</ele>
        <time>2025-12-17T17:32:41.148Z</time>
      </trkpt>
      <trkpt lon="-89.662107" lat="44.935189">
        <ele>818.797</ele>
        <time>2025-12-17T17:32:46.744Z</time>
      </trkpt>
      <trkpt lon="-89.666611" lat="44.934574">
        <ele>904.686</ele>
        <time>2025-12-17T17:32:52.224Z</time>
      </trkpt>
      <trkpt lon="-89.674022" lat="44.932179">
        <ele>1059.02</ele>
        <time>2025-12-17T17:33:01.976Z</time>
      </trkpt>
      <trkpt lon="-89.681829" lat="44.928230">
        <ele>1205.04</ele>
        <time>2025-12-17T17:33:12.916Z</time>
      </trkpt>
      <trkpt lon="-89.689823" lat="44.922882">
        <ele>1287.57</ele>
        <time>2025-12-17T17:33:23.812Z</time>
      </trkpt>
      <trkpt lon="-89.697802" lat="44.916390">
        <ele>1292.41</ele>
        <time>2025-12-17T17:33:34.080Z</time>
      </trkpt>
      <trkpt lon="-89.706129" lat="44.908152">
        <ele>1267.01</ele>
        <time>2025-12-17T17:33:44.660Z</time>
      </trkpt>
      <trkpt lon="-89.713600" lat="44.899041">
        <ele>1238.54</ele>
        <time>2025-12-17T17:33:54.916Z</time>
      </trkpt>
      <trkpt lon="-89.725916" lat="44.878327">
        <ele>1185.07</ele>
        <time>2025-12-17T17:34:15.708Z</time>
      </trkpt>
      <trkpt lon="-89.734975" lat="44.856478">
        <ele>1134.6</ele>
        <time>2025-12-17T17:34:36.244Z</time>
      </trkpt>
      <trkpt lon="-89.742940" lat="44.832961">
        <ele>1084.96</ele>
        <time>2025-12-17T17:34:57.908Z</time>
      </trkpt>
      <trkpt lon="-89.630438" lat="44.926923">
        <ele>1068.11</ele>
        <time>2025-12-17T17:35:19.808Z</time>
      </trkpt>
      <trkpt lon="-89.632724" lat="44.919660">
        <ele>1053.05</ele>
        <time>2025-12-17T17:36:45.104Z</time>
      </trkpt>
      <trkpt lon="-89.643761" lat="44.883678">
        <ele>1066.3</ele>
        <time>2025-12-17T17:37:19.088Z</time>
      </trkpt>
      <trkpt lon="-89.653388" lat="44.849417">
        <ele>1064.94</ele>
        <time>2025-12-17T17:37:51.304Z</time>
      </trkpt>
      <trkpt lon="-89.630441" lat="44.926924">
        <ele>1077.42</ele>
        <time>2025-12-17T17:38:23.448Z</time>
      </trkpt>
      <trkpt lon="-89.631593" lat="44.922836">
        <ele>1066.94</ele>
        <time>2025-12-17T17:43:12.560Z</time>
      </trkpt>
      <trkpt lon="-89.642231" lat="44.884878">
        <ele>1066.23</ele>
        <time>2025-12-17T17:43:48.120Z</time>
      </trkpt>
      <trkpt lon="-89.651374" lat="44.851694">
        <ele>1064.54</ele>
        <time>2025-12-17T17:44:19.172Z</time>
      </trkpt>
      <trkpt lon="-89.660341" lat="44.819002">
        <ele>1066.32</ele>
        <time>2025-12-17T17:44:49.764Z</time>
      </trkpt>
      <trkpt lon="-89.664558" lat="44.802694">
        <ele>1084.24</ele>
        <time>2025-12-17T17:45:05.708Z</time>
      </trkpt>
      <trkpt lon="-89.665320" lat="44.798927">
        <ele>1038.02</ele>
        <time>2025-12-17T17:45:10.912Z</time>
      </trkpt>
      <trkpt lon="-89.665770" lat="44.795949">
        <ele>946.313</ele>
        <time>2025-12-17T17:45:16.204Z</time>
      </trkpt>
      <trkpt lon="-89.666084" lat="44.793357">
        <ele>822.073</ele>
        <time>2025-12-17T17:45:21.604Z</time>
      </trkpt>
      <trkpt lon="-89.666482" lat="44.790996">
        <ele>702.55</ele>
        <time>2025-12-17T17:45:26.712Z</time>
      </trkpt>
      <trkpt lon="-89.667113" lat="44.788598">
        <ele>600.495</ele>
        <time>2025-12-17T17:45:31.980Z</time>
      </trkpt>
      <trkpt lon="-89.667826" lat="44.786451">
        <ele>514.867</ele>
        <time>2025-12-17T17:45:37.068Z</time>
      </trkpt>
      <trkpt lon="-89.668716" lat="44.784262">
        <ele>418.588</ele>
        <time>2025-12-17T17:45:42.544Z</time>
      </trkpt>
      <trkpt lon="-89.669111" lat="44.783157">
        <ele>386.1</ele>
        <time>2025-12-17T17:45:47.728Z</time>
      </trkpt>
      <trkpt lon="-89.668778" lat="44.783073">
        <ele>385.838</ele>
        <time>2025-12-17T17:45:58.480Z</time>
      </trkpt>
      <trkpt lon="-89.668464" lat="44.782995">
        <ele>385.772</ele>
        <time>2025-12-17T17:46:08.796Z</time>
      </trkpt>
      <trkpt lon="-89.668304" lat="44.782954">
        <ele>385.841</ele>
        <time>2025-12-17T17:46:19.368Z</time>
      </trkpt>
      <trkpt lon="-89.668012" lat="44.782880">
        <ele>385.611</ele>
        <time>2025-12-17T17:46:30.284Z</time>
      </trkpt>
      <trkpt lon="-89.667759" lat="44.782815">
        <ele>385.455</ele>
        <time>2025-12-17T17:46:41.356Z</time>
      </trkpt>
      <trkpt lon="-89.667563" lat="44.782638">
        <ele>385.269</ele>
        <time>2025-12-17T17:46:51.628Z</time>
      </trkpt>
      <trkpt lon="-89.667269" lat="44.782442">
        <ele>384.942</ele>
        <time>2025-12-17T17:47:02.412Z</time>
      </trkpt>
      <trkpt lon="-89.667031" lat="44.782288">
        <ele>384.899</ele>
        <time>2025-12-17T17:47:12.836Z</time>
      </trkpt>
      <trkpt lon="-89.666851" lat="44.782172">
        <ele>385.018</ele>
        <time>2025-12-17T17:47:23.200Z</time>
      </trkpt>
      <trkpt lon="-89.666750" lat="44.782106">
        <ele>384.913</ele>
        <time>2025-12-17T17:47:33.924Z</time>
      </trkpt>
      <trkpt lon="-89.666588" lat="44.782001">
        <ele>384.875</ele>
        <time>2025-12-17T17:47:44.280Z</time>
      </trkpt>
      <trkpt lon="-89.666498" lat="44.781943">
        <ele>384.908</ele>
        <time>2025-12-17T17:47:54.744Z</time>
      </trkpt>
      <trkpt lon="-89.666603" lat="44.782010">
        <ele>384.897</ele>
        <time>2025-12-17T17:48:05.340Z</time>
      </trkpt>
      <trkpt lon="-89.666536" lat="44.781967">
        <ele>384.768</ele>
        <time>2025-12-17T17:48:15.704Z</time>
      </trkpt>
      <trkpt lon="-89.666569" lat="44.781988">
        <ele>384.824</ele>
        <time>2025-12-17T17:48:26.076Z</time>
      </trkpt>
      <trkpt lon="-89.666527" lat="44.781961">
        <ele>384.798</ele>
        <time>2025-12-17T17:48:36.608Z</time>
      </trkpt>
      <trkpt lon="-89.666568" lat="44.781987">
        <ele>384.811</ele>
        <time>2025-12-17T17:48:46.824Z</time>
      </trkpt>
      <trkpt lon="-89.666554" lat="44.781978">
        <ele>384.734</ele>
        <time>2025-12-17T17:48:57.632Z</time>
      </trkpt>
      <trkpt lon="-89.666621" lat="44.781919">
        <ele>385.944</ele>
        <time>2025-12-17T17:51:28.180Z</time>
      </trkpt>
      <trkpt lon="-89.667435" lat="44.781329">
        <ele>387.503</ele>
        <time>2025-12-17T17:51:33.132Z</time>
      </trkpt>
      <trkpt lon="-89.669515" lat="44.780205">
        <ele>387.712</ele>
        <time>2025-12-17T17:51:38.340Z</time>
      </trkpt>
      <trkpt lon="-89.672573" lat="44.778495">
        <ele>408.737</ele>
        <time>2025-12-17T17:51:43.660Z</time>
      </trkpt>
      <trkpt lon="-89.675699" lat="44.776567">
        <ele>491.181</ele>
        <time>2025-12-17T17:51:48.800Z</time>
      </trkpt>
      <trkpt lon="-89.678407" lat="44.774640">
        <ele>612.534</ele>
        <time>2025-12-17T17:51:53.912Z</time>
      </trkpt>
      <trkpt lon="-89.681273" lat="44.772468">
        <ele>707.244</ele>
        <time>2025-12-17T17:51:59.292Z</time>
      </trkpt>
      <trkpt lon="-89.684333" lat="44.769934">
        <ele>758.023</ele>
        <time>2025-12-17T17:52:04.664Z</time>
      </trkpt>
      <trkpt lon="-89.687551" lat="44.766789">
        <ele>769.357</ele>
        <time>2025-12-17T17:52:10.032Z</time>
      </trkpt>
      <trkpt lon="-89.690509" lat="44.762947">
        <ele>784.073</ele>
        <time>2025-12-17T17:52:15.392Z</time>
      </trkpt>
      <trkpt lon="-89.692915" lat="44.758637">
        <ele>795.596</ele>
        <time>2025-12-17T17:52:20.640Z</time>
      </trkpt>
      <trkpt lon="-89.694662" lat="44.753948">
        <ele>807.76</ele>
        <time>2025-12-17T17:52:25.832Z</time>
      </trkpt>
      <trkpt lon="-89.695731" lat="44.748700">
        <ele>818.929</ele>
        <time>2025-12-17T17:52:31.300Z</time>
      </trkpt>
      <trkpt lon="-89.695968" lat="44.743471">
        <ele>829.918</ele>
        <time>2025-12-17T17:52:36.564Z</time>
      </trkpt>
      <trkpt lon="-89.695432" lat="44.738222">
        <ele>841.874</ele>
        <time>2025-12-17T17:52:41.756Z</time>
      </trkpt>
      <trkpt lon="-89.694086" lat="44.732759">
        <ele>853.114</ele>
        <time>2025-12-17T17:52:47.200Z</time>
      </trkpt>
      <trkpt lon="-89.691882" lat="44.727257">
        <ele>864.405</ele>
        <time>2025-12-17T17:52:52.696Z</time>
      </trkpt>
      <trkpt lon="-89.689154" lat="44.722337">
        <ele>876.576</ele>
        <time>2025-12-17T17:52:57.772Z</time>
      </trkpt>
      <trkpt lon="-89.685557" lat="44.717308">
        <ele>888.581</ele>
        <time>2025-12-17T17:53:03.144Z</time>
      </trkpt>
      <trkpt lon="-89.681643" lat="44.712906">
        <ele>896.959</ele>
        <time>2025-12-17T17:53:08.084Z</time>
      </trkpt>
      <trkpt lon="-89.676701" lat="44.708373">
        <ele>908.575</ele>
        <time>2025-12-17T17:53:13.512Z</time>
      </trkpt>
      <trkpt lon="-89.671296" lat="44.704281">
        <ele>920.074</ele>
        <time>2025-12-17T17:53:18.812Z</time>
      </trkpt>
      <trkpt lon="-89.659320" lat="44.697053">
        <ele>943.704</ele>
        <time>2025-12-17T17:53:29.368Z</time>
      </trkpt>
      <trkpt lon="-89.633380" lat="44.684322">
        <ele>995.62</ele>
        <time>2025-12-17T17:53:50.480Z</time>
      </trkpt>
      <trkpt lon="-89.607239" lat="44.672124">
        <ele>1048.32</ele>
        <time>2025-12-17T17:54:11.404Z</time>
      </trkpt>
      <trkpt lon="-89.666561" lat="44.781959">
        <ele>1105.07</ele>
        <time>2025-12-17T17:54:26.816Z</time>
      </trkpt>
      <trkpt lon="-89.662759" lat="44.780185">
        <ele>1099.06</ele>
        <time>2025-12-17T17:54:48.456Z</time>
      </trkpt>
      <trkpt lon="-89.612924" lat="44.757503">
        <ele>1068.31</ele>
        <time>2025-12-17T17:55:26.712Z</time>
      </trkpt>
      <trkpt lon="-89.572359" lat="44.739505">
        <ele>1064.45</ele>
        <time>2025-12-17T17:55:57.852Z</time>
      </trkpt>
      <trkpt lon="-89.530856" lat="44.721049">
        <ele>1063.02</ele>
        <time>2025-12-17T17:56:29.700Z</time>
      </trkpt>
      <trkpt lon="-89.490965" lat="44.703286">
        <ele>1064.71</ele>
        <time>2025-12-17T17:57:00.304Z</time>
      </trkpt>
      <trkpt lon="-89.450399" lat="44.685263">
        <ele>1064.49</ele>
        <time>2025-12-17T17:57:31.448Z</time>
      </trkpt>
      <trkpt lon="-89.409974" lat="44.667332">
        <ele>1070.87</ele>
        <time>2025-12-17T17:58:02.488Z</time>
      </trkpt>
      <trkpt lon="-89.369385" lat="44.649342">
        <ele>1063.6</ele>
        <time>2025-12-17T17:58:33.644Z</time>
      </trkpt>
      <trkpt lon="-89.328162" lat="44.631046">
        <ele>1068.24</ele>
        <time>2025-12-17T17:59:05.288Z</time>
      </trkpt>
      <trkpt lon="-89.287194" lat="44.612878">
        <ele>1066.96</ele>
        <time>2025-12-17T17:59:36.732Z</time>
      </trkpt>
      <trkpt lon="-89.247009" lat="44.595105">
        <ele>1064.85</ele>
        <time>2025-12-17T18:00:07.524Z</time>
      </trkpt>
      <trkpt lon="-89.205975" lat="44.576973">
        <ele>1062</ele>
        <time>2025-12-17T18:00:39.024Z</time>
      </trkpt>
      <trkpt lon="-89.165750" lat="44.559211">
        <ele>1074.98</ele>
        <time>2025-12-17T18:01:09.932Z</time>
      </trkpt>
      <trkpt lon="-89.124158" lat="44.540854">
        <ele>1062.85</ele>
        <time>2025-12-17T18:01:41.904Z</time>
      </trkpt>
      <trkpt lon="-89.082663" lat="44.522547">
        <ele>1064.25</ele>
        <time>2025-12-17T18:02:13.804Z</time>
      </trkpt>
      <trkpt lon="-89.042444" lat="44.504813">
        <ele>1065.76</ele>
        <time>2025-12-17T18:02:44.736Z</time>
      </trkpt>
      <trkpt lon="-89.000914" lat="44.486522">
        <ele>1066.39</ele>
        <time>2025-12-17T18:03:16.684Z</time>
      </trkpt>
      <trkpt lon="-88.959885" lat="44.468468">
        <ele>1068.41</ele>
        <time>2025-12-17T18:03:48.256Z</time>
      </trkpt>
      <trkpt lon="-88.918701" lat="44.450369">
        <ele>1067.61</ele>
        <time>2025-12-17T18:04:19.932Z</time>
      </trkpt>
      <trkpt lon="-88.877726" lat="44.432363">
        <ele>1065.55</ele>
        <time>2025-12-17T18:04:51.420Z</time>
      </trkpt>
      <trkpt lon="-88.836193" lat="44.414137">
        <ele>1064.86</ele>
        <time>2025-12-17T18:05:23.308Z</time>
      </trkpt>
      <trkpt lon="-88.795738" lat="44.396398">
        <ele>1069.1</ele>
        <time>2025-12-17T18:05:54.428Z</time>
      </trkpt>
      <trkpt lon="-88.754091" lat="44.378172">
        <ele>1066.09</ele>
        <time>2025-12-17T18:06:26.420Z</time>
      </trkpt>
      <trkpt lon="-88.711774" lat="44.359657">
        <ele>1065.79</ele>
        <time>2025-12-17T18:06:58.896Z</time>
      </trkpt>
      <trkpt lon="-88.669882" lat="44.341328">
        <ele>1068.18</ele>
        <time>2025-12-17T18:07:31.108Z</time>
      </trkpt>
      <trkpt lon="-88.627183" lat="44.322682">
        <ele>1061.38</ele>
        <time>2025-12-17T18:08:03.816Z</time>
      </trkpt>
      <trkpt lon="-88.598443" lat="44.310646">
        <ele>1012.33</ele>
        <time>2025-12-17T18:08:25.508Z</time>
      </trkpt>
      <trkpt lon="-88.576841" lat="44.301453">
        <ele>958.044</ele>
        <time>2025-12-17T18:08:41.972Z</time>
      </trkpt>
      <trkpt lon="-88.571612" lat="44.298752">
        <ele>930.521</ele>
        <time>2025-12-17T18:08:47.092Z</time>
      </trkpt>
      <trkpt lon="-88.566927" lat="44.296122">
        <ele>871.056</ele>
        <time>2025-12-17T18:08:52.336Z</time>
      </trkpt>
      <trkpt lon="-88.562723" lat="44.293465">
        <ele>813.289</ele>
        <time>2025-12-17T18:08:57.584Z</time>
      </trkpt>
      <trkpt lon="-88.558852" lat="44.290742">
        <ele>762.471</ele>
        <time>2025-12-17T18:09:02.944Z</time>
      </trkpt>
      <trkpt lon="-88.555340" lat="44.288084">
        <ele>703.464</ele>
        <time>2025-12-17T18:09:08.196Z</time>
      </trkpt>
      <trkpt lon="-88.552117" lat="44.285546">
        <ele>635.802</ele>
        <time>2025-12-17T18:09:13.180Z</time>
      </trkpt>
      <trkpt lon="-88.548828" lat="44.282893">
        <ele>570.077</ele>
        <time>2025-12-17T18:09:18.316Z</time>
      </trkpt>
      <trkpt lon="-88.545410" lat="44.280076">
        <ele>517.908</ele>
        <time>2025-12-17T18:09:23.820Z</time>
      </trkpt>
      <trkpt lon="-88.542124" lat="44.277332">
        <ele>478.843</ele>
        <time>2025-12-17T18:09:29.300Z</time>
      </trkpt>
      <trkpt lon="-88.539061" lat="44.274729">
        <ele>445.836</ele>
        <time>2025-12-17T18:09:34.648Z</time>
      </trkpt>
      <trkpt lon="-88.536155" lat="44.272228">
        <ele>414.187</ele>
        <time>2025-12-17T18:09:39.884Z</time>
      </trkpt>
      <trkpt lon="-88.533253" lat="44.269777">
        <ele>380.233</ele>
        <time>2025-12-17T18:09:45.276Z</time>
      </trkpt>
      <trkpt lon="-88.530384" lat="44.267473">
        <ele>330.774</ele>
        <time>2025-12-17T18:09:50.776Z</time>
      </trkpt>
      <trkpt lon="-88.528881" lat="44.265876">
        <ele>302.6</ele>
        <time>2025-12-17T18:09:55.928Z</time>
      </trkpt>
      <trkpt lon="-88.528606" lat="44.265330">
        <ele>280.906</ele>
        <time>2025-12-17T18:10:01.364Z</time>
      </trkpt>
      <trkpt lon="-88.527720" lat="44.265196">
        <ele>279.845</ele>
        <time>2025-12-17T18:10:12.148Z</time>
      </trkpt>
      <trkpt lon="-88.526970" lat="44.265153">
        <ele>279.055</ele>
        <time>2025-12-17T18:10:22.768Z</time>
      </trkpt>
      <trkpt lon="-88.526361" lat="44.265179">
        <ele>279.435</ele>
        <time>2025-12-17T18:10:33.008Z</time>
      </trkpt>
      <trkpt lon="-88.526161" lat="44.265190">
        <ele>279.665</ele>
        <time>2025-12-17T18:10:43.440Z</time>
      </trkpt>
      <trkpt lon="-88.526705" lat="44.265171">
        <ele>279.21</ele>
        <time>2025-12-17T18:10:59.468Z</time>
      </trkpt>
      <trkpt lon="-88.526836" lat="44.265170">
        <ele>279.462</ele>
        <time>2025-12-17T18:11:09.816Z</time>
      </trkpt>
      <trkpt lon="-88.526823" lat="44.264603">
        <ele>279.742</ele>
        <time>2025-12-17T18:13:06.196Z</time>
      </trkpt>
      <trkpt lon="-88.526378" lat="44.263316">
        <ele>276.703</ele>
        <time>2025-12-17T18:13:11.140Z</time>
      </trkpt>
      <trkpt lon="-88.525097" lat="44.261342">
        <ele>272.806</ele>
        <time>2025-12-17T18:13:16.312Z</time>
      </trkpt>
      <trkpt lon="-88.523518" lat="44.258674">
        <ele>277.775</ele>
        <time>2025-12-17T18:13:21.452Z</time>
      </trkpt>
      <trkpt lon="-88.521463" lat="44.255654">
        <ele>319.344</ele>
        <time>2025-12-17T18:13:26.680Z</time>
      </trkpt>
      <trkpt lon="-88.518760" lat="44.252723">
        <ele>405.727</ele>
        <time>2025-12-17T18:13:32.080Z</time>
      </trkpt>
      <trkpt lon="-88.515688" lat="44.250275">
        <ele>488.971</ele>
        <time>2025-12-17T18:13:37.156Z</time>
      </trkpt>
      <trkpt lon="-88.511986" lat="44.248095">
        <ele>572.639</ele>
        <time>2025-12-17T18:13:42.416Z</time>
      </trkpt>
      <trkpt lon="-88.507603" lat="44.246381">
        <ele>658.695</ele>
        <time>2025-12-17T18:13:47.852Z</time>
      </trkpt>
      <trkpt lon="-88.502738" lat="44.245417">
        <ele>744.863</ele>
        <time>2025-12-17T18:13:53.304Z</time>
      </trkpt>
      <trkpt lon="-88.498049" lat="44.245399">
        <ele>823.511</ele>
        <time>2025-12-17T18:13:58.336Z</time>
      </trkpt>
      <trkpt lon="-88.493279" lat="44.246537">
        <ele>904.755</ele>
        <time>2025-12-17T18:14:03.712Z</time>
      </trkpt>
      <trkpt lon="-88.489739" lat="44.248994">
        <ele>975.472</ele>
        <time>2025-12-17T18:14:09.072Z</time>
      </trkpt>
      <trkpt lon="-88.488930" lat="44.252366">
        <ele>1007.76</ele>
        <time>2025-12-17T18:14:14.336Z</time>
      </trkpt>
      <trkpt lon="-88.491732" lat="44.255532">
        <ele>941.557</ele>
        <time>2025-12-17T18:14:19.764Z</time>
      </trkpt>
      <trkpt lon="-88.497054" lat="44.256187">
        <ele>769.114</ele>
        <time>2025-12-17T18:14:24.788Z</time>
      </trkpt>
      <trkpt lon="-88.502139" lat="44.253136">
        <ele>546.554</ele>
        <time>2025-12-17T18:14:29.960Z</time>
      </trkpt>
      <trkpt lon="-88.504738" lat="44.247962">
        <ele>330.699</ele>
        <time>2025-12-17T18:14:35.064Z</time>
      </trkpt>
      <trkpt lon="-88.504885" lat="44.245145">
        <ele>259.133</ele>
        <time>2025-12-17T18:14:40.072Z</time>
      </trkpt>
      <trkpt lon="-88.504521" lat="44.244805">
        <ele>248.435</ele>
        <time>2025-12-17T18:14:45.452Z</time>
      </trkpt>
      <trkpt lon="-88.504394" lat="44.244424">
        <ele>248.04</ele>
        <time>2025-12-17T18:15:22.664Z</time>
      </trkpt>
      <trkpt lon="-88.504380" lat="44.244379">
        <ele>248.046</ele>
        <time>2025-12-17T18:15:28.084Z</time>
      </trkpt>
      <trkpt lon="-88.504492" lat="44.244730">
        <ele>248.483</ele>
        <time>2025-12-17T18:15:33.048Z</time>
      </trkpt>
      <trkpt lon="-88.505593" lat="44.248173">
        <ele>252.47</ele>
        <time>2025-12-17T18:15:38.148Z</time>
      </trkpt>
      <trkpt lon="-88.506924" lat="44.252347">
        <ele>266.248</ele>
        <time>2025-12-17T18:15:44.024Z</time>
      </trkpt>
      <trkpt lon="-88.507596" lat="44.254456">
        <ele>267.356</ele>
        <time>2025-12-17T18:15:49.296Z</time>
      </trkpt>
      <trkpt lon="-88.507584" lat="44.254460">
        <ele>267.347</ele>
        <time>2025-12-17T18:16:05.304Z</time>
      </trkpt>
      <trkpt lon="-88.507598" lat="44.254462">
        <ele>267.325</ele>
        <time>2025-12-17T18:16:16.116Z</time>
      </trkpt>
      <trkpt lon="-88.508251" lat="44.254553">
        <ele>267.868</ele>
        <time>2025-12-17T18:16:26.320Z</time>
      </trkpt>
      <trkpt lon="-88.508983" lat="44.254670">
        <ele>268.433</ele>
        <time>2025-12-17T18:16:31.460Z</time>
      </trkpt>
      <trkpt lon="-88.510985" lat="44.255014">
        <ele>269.761</ele>
        <time>2025-12-17T18:16:36.608Z</time>
      </trkpt>
      <trkpt lon="-88.514084" lat="44.255711">
        <ele>271.332</ele>
        <time>2025-12-17T18:16:41.844Z</time>
      </trkpt>
      <trkpt lon="-88.518025" lat="44.256682">
        <ele>292.607</ele>
        <time>2025-12-17T18:16:47.132Z</time>
      </trkpt>
      <trkpt lon="-88.522202" lat="44.257707">
        <ele>332.873</ele>
        <time>2025-12-17T18:16:52.140Z</time>
      </trkpt>
      <trkpt lon="-88.526782" lat="44.258824">
        <ele>390.069</ele>
        <time>2025-12-17T18:16:57.304Z</time>
      </trkpt>
      <trkpt lon="-88.531568" lat="44.259986">
        <ele>470.055</ele>
        <time>2025-12-17T18:17:02.632Z</time>
      </trkpt>
      <trkpt lon="-88.536289" lat="44.261130">
        <ele>545.141</ele>
        <time>2025-12-17T18:17:07.820Z</time>
      </trkpt>
      <trkpt lon="-88.541312" lat="44.262373">
        <ele>624.923</ele>
        <time>2025-12-17T18:17:13.296Z</time>
      </trkpt>
      <trkpt lon="-88.546008" lat="44.263557">
        <ele>701.345</ele>
        <time>2025-12-17T18:17:18.408Z</time>
      </trkpt>
      <trkpt lon="-88.551141" lat="44.264808">
        <ele>784.236</ele>
        <time>2025-12-17T18:17:23.936Z</time>
      </trkpt>
      <trkpt lon="-88.556251" lat="44.265960">
        <ele>863.612</ele>
        <time>2025-12-17T18:17:29.360Z</time>
      </trkpt>
      <trkpt lon="-88.561366" lat="44.266971">
        <ele>944.188</ele>
        <time>2025-12-17T18:17:34.736Z</time>
      </trkpt>
      <trkpt lon="-88.566584" lat="44.267812">
        <ele>1025.52</ele>
        <time>2025-12-17T18:17:40.132Z</time>
      </trkpt>
      <trkpt lon="-88.571935" lat="44.268478">
        <ele>1086.04</ele>
        <time>2025-12-17T18:17:45.508Z</time>
      </trkpt>
      <trkpt lon="-88.577485" lat="44.268985">
        <ele>1103.31</ele>
        <time>2025-12-17T18:17:50.696Z</time>
      </trkpt>
      <trkpt lon="-88.583784" lat="44.269331">
        <ele>1085.78</ele>
        <time>2025-12-17T18:17:56.080Z</time>
      </trkpt>
      <trkpt lon="-88.590351" lat="44.269386">
        <ele>1062.2</ele>
        <time>2025-12-17T18:18:01.272Z</time>
      </trkpt>
      <trkpt lon="-88.604695" lat="44.268443">
        <ele>1022.56</ele>
        <time>2025-12-17T18:18:11.920Z</time>
      </trkpt>
      <trkpt lon="-88.618990" lat="44.266016">
        <ele>1035.6</ele>
        <time>2025-12-17T18:18:22.468Z</time>
      </trkpt>
      <trkpt lon="-88.633243" lat="44.262024">
        <ele>1063.54</ele>
        <time>2025-12-17T18:18:33.532Z</time>
      </trkpt>
      <trkpt lon="-88.646068" lat="44.256841">
        <ele>1067.15</ele>
        <time>2025-12-17T18:18:44.124Z</time>
      </trkpt>
      <trkpt lon="-88.657911" lat="44.250316">
        <ele>1066.54</ele>
        <time>2025-12-17T18:18:54.736Z</time>
      </trkpt>
      <trkpt lon="-88.668242" lat="44.242759">
        <ele>1065.81</ele>
        <time>2025-12-17T18:19:05.140Z</time>
      </trkpt>
      <trkpt lon="-88.677068" lat="44.234175">
        <ele>1065.27</ele>
        <time>2025-12-17T18:19:15.608Z</time>
      </trkpt>
      <trkpt lon="-88.684123" lat="44.224707">
        <ele>1065.32</ele>
        <time>2025-12-17T18:19:26.100Z</time>
      </trkpt>
      <trkpt lon="-88.689225" lat="44.214435">
        <ele>1062.73</ele>
        <time>2025-12-17T18:19:36.744Z</time>
      </trkpt>
      <trkpt lon="-88.692014" lat="44.203865">
        <ele>1063.71</ele>
        <time>2025-12-17T18:19:47.236Z</time>
      </trkpt>
      <trkpt lon="-88.692420" lat="44.192985">
        <ele>1063.98</ele>
        <time>2025-12-17T18:19:57.836Z</time>
      </trkpt>
      <trkpt lon="-88.689309" lat="44.178552">
        <ele>1063.08</ele>
        <time>2025-12-17T18:20:12.040Z</time>
      </trkpt>
      <trkpt lon="-88.685268" lat="44.167968">
        <ele>1065.2</ele>
        <time>2025-12-17T18:20:22.648Z</time>
      </trkpt>
      <trkpt lon="-88.674027" lat="44.148486">
        <ele>1062.2</ele>
        <time>2025-12-17T18:20:43.100Z</time>
      </trkpt>
      <trkpt lon="-88.666161" lat="44.138718">
        <ele>1066.75</ele>
        <time>2025-12-17T18:20:53.976Z</time>
      </trkpt>
      <trkpt lon="-88.648338" lat="44.121863">
        <ele>1061.14</ele>
        <time>2025-12-17T18:21:14.436Z</time>
      </trkpt>
      <trkpt lon="-88.637340" lat="44.113917">
        <ele>1069.14</ele>
        <time>2025-12-17T18:21:25.236Z</time>
      </trkpt>
      <trkpt lon="-88.625771" lat="44.106884">
        <ele>1063.16</ele>
        <time>2025-12-17T18:21:35.736Z</time>
      </trkpt>
      <trkpt lon="-88.613046" lat="44.100520">
        <ele>1068.37</ele>
        <time>2025-12-17T18:21:46.500Z</time>
      </trkpt>
      <trkpt lon="-88.599697" lat="44.095007">
        <ele>1059.4</ele>
        <time>2025-12-17T18:21:57.148Z</time>
      </trkpt>
      <trkpt lon="-88.571266" lat="44.086827">
        <ele>1062.78</ele>
        <time>2025-12-17T18:22:18.360Z</time>
      </trkpt>
      <trkpt lon="-88.539799" lat="44.082229">
        <ele>1061.52</ele>
        <time>2025-12-17T18:22:39.960Z</time>
      </trkpt>
      <trkpt lon="-88.507959" lat="44.081695">
        <ele>1063.39</ele>
        <time>2025-12-17T18:23:01.056Z</time>
      </trkpt>
      <trkpt lon="-88.477339" lat="44.084964">
        <ele>1064.13</ele>
        <time>2025-12-17T18:23:21.508Z</time>
      </trkpt>
      <trkpt lon="-88.447498" lat="44.091984">
        <ele>1065.06</ele>
        <time>2025-12-17T18:23:42.280Z</time>
      </trkpt>
      <trkpt lon="-88.419068" lat="44.102826">
        <ele>1066.69</ele>
        <time>2025-12-17T18:24:03.584Z</time>
      </trkpt>
      <trkpt lon="-88.394191" lat="44.116669">
        <ele>1066.89</ele>
        <time>2025-12-17T18:24:24.436Z</time>
      </trkpt>
      <trkpt lon="-88.382662" lat="44.124955">
        <ele>1061.61</ele>
        <time>2025-12-17T18:24:35.248Z</time>
      </trkpt>
      <trkpt lon="-88.363477" lat="44.142903">
        <ele>1062.33</ele>
        <time>2025-12-17T18:24:56.156Z</time>
      </trkpt>
      <trkpt lon="-88.348487" lat="44.163391">
        <ele>1063.3</ele>
        <time>2025-12-17T18:25:17.556Z</time>
      </trkpt>
      <trkpt lon="-88.339039" lat="44.184201">
        <ele>1064.92</ele>
        <time>2025-12-17T18:25:37.836Z</time>
      </trkpt>
      <trkpt lon="-88.334331" lat="44.206833">
        <ele>1066.66</ele>
        <time>2025-12-17T18:25:59.080Z</time>
      </trkpt>
      <trkpt lon="-88.334345" lat="44.217878">
        <ele>1061.97</ele>
        <time>2025-12-17T18:26:09.272Z</time>
      </trkpt>
      <trkpt lon="-88.335928" lat="44.223453">
        <ele>1064.5</ele>
        <time>2025-12-17T18:26:14.556Z</time>
      </trkpt>
      <trkpt lon="-88.338846" lat="44.228865">
        <ele>1062.95</ele>
        <time>2025-12-17T18:26:19.936Z</time>
      </trkpt>
      <trkpt lon="-88.343023" lat="44.233837">
        <ele>1063.93</ele>
        <time>2025-12-17T18:26:25.320Z</time>
      </trkpt>
      <trkpt lon="-88.345500" lat="44.236093">
        <ele>1062.34</ele>
        <time>2025-12-17T18:26:27.992Z</time>
      </trkpt>
      <trkpt lon="-88.351330" lat="44.240169">
        <ele>1063.72</ele>
        <time>2025-12-17T18:26:33.428Z</time>
      </trkpt>
      <trkpt lon="-88.358155" lat="44.243520">
        <ele>1064.02</ele>
        <time>2025-12-17T18:26:38.944Z</time>
      </trkpt>
      <trkpt lon="-88.365278" lat="44.245875">
        <ele>1063.19</ele>
        <time>2025-12-17T18:26:44.196Z</time>
      </trkpt>
      <trkpt lon="-88.372694" lat="44.247336">
        <ele>1063.58</ele>
        <time>2025-12-17T18:26:49.344Z</time>
      </trkpt>
      <trkpt lon="-88.380710" lat="44.247939">
        <ele>1063.22</ele>
        <time>2025-12-17T18:26:54.736Z</time>
      </trkpt>
      <trkpt lon="-88.388612" lat="44.247590">
        <ele>1063.2</ele>
        <time>2025-12-17T18:27:00.040Z</time>
      </trkpt>
      <trkpt lon="-88.396136" lat="44.246372">
        <ele>1060.53</ele>
        <time>2025-12-17T18:27:05.204Z</time>
      </trkpt>
      <trkpt lon="-88.403482" lat="44.244239">
        <ele>1059.24</ele>
        <time>2025-12-17T18:27:10.500Z</time>
      </trkpt>
      <trkpt lon="-88.410235" lat="44.241283">
        <ele>1060.1</ele>
        <time>2025-12-17T18:27:15.764Z</time>
      </trkpt>
      <trkpt lon="-88.416079" lat="44.237702">
        <ele>1061.28</ele>
        <time>2025-12-17T18:27:20.908Z</time>
      </trkpt>
      <trkpt lon="-88.421279" lat="44.233297">
        <ele>1061.13</ele>
        <time>2025-12-17T18:27:26.272Z</time>
      </trkpt>
      <trkpt lon="-88.425259" lat="44.228488">
        <ele>1062.23</ele>
        <time>2025-12-17T18:27:31.460Z</time>
      </trkpt>
      <trkpt lon="-88.428152" lat="44.223159">
        <ele>1062.99</ele>
        <time>2025-12-17T18:27:36.772Z</time>
      </trkpt>
      <trkpt lon="-88.429787" lat="44.217598">
        <ele>1063.64</ele>
        <time>2025-12-17T18:27:42.040Z</time>
      </trkpt>
      <trkpt lon="-88.430145" lat="44.211659">
        <ele>1064.76</ele>
        <time>2025-12-17T18:27:47.540Z</time>
      </trkpt>
      <trkpt lon="-88.429199" lat="44.206007">
        <ele>1066.73</ele>
        <time>2025-12-17T18:27:52.804Z</time>
      </trkpt>
      <trkpt lon="-88.427026" lat="44.200534">
        <ele>1069.19</ele>
        <time>2025-12-17T18:27:58.048Z</time>
      </trkpt>
      <trkpt lon="-88.423586" lat="44.195248">
        <ele>1072.02</ele>
        <time>2025-12-17T18:28:03.436Z</time>
      </trkpt>
      <trkpt lon="-88.419098" lat="44.190508">
        <ele>1075.02</ele>
        <time>2025-12-17T18:28:08.744Z</time>
      </trkpt>
      <trkpt lon="-88.413562" lat="44.186297">
        <ele>1078.11</ele>
        <time>2025-12-17T18:28:14.084Z</time>
      </trkpt>
      <trkpt lon="-88.407387" lat="44.182881">
        <ele>1080.85</ele>
        <time>2025-12-17T18:28:19.256Z</time>
      </trkpt>
      <trkpt lon="-88.400410" lat="44.180146">
        <ele>1082.15</ele>
        <time>2025-12-17T18:28:24.540Z</time>
      </trkpt>
      <trkpt lon="-88.392697" lat="44.178134">
        <ele>1068.62</ele>
        <time>2025-12-17T18:28:29.936Z</time>
      </trkpt>
      <trkpt lon="-88.385018" lat="44.177083">
        <ele>1064.86</ele>
        <time>2025-12-17T18:28:35.064Z</time>
      </trkpt>
      <trkpt lon="-88.376898" lat="44.176879">
        <ele>1062.94</ele>
        <time>2025-12-17T18:28:40.392Z</time>
      </trkpt>
      <trkpt lon="-88.369056" lat="44.177568">
        <ele>1063.96</ele>
        <time>2025-12-17T18:28:45.580Z</time>
      </trkpt>
      <trkpt lon="-88.361142" lat="44.179176">
        <ele>1061.48</ele>
        <time>2025-12-17T18:28:50.992Z</time>
      </trkpt>
      <trkpt lon="-88.353489" lat="44.181699">
        <ele>1049.72</ele>
        <time>2025-12-17T18:28:56.508Z</time>
      </trkpt>
      <trkpt lon="-88.346693" lat="44.184907">
        <ele>1031.75</ele>
        <time>2025-12-17T18:29:01.820Z</time>
      </trkpt>
      <trkpt lon="-88.340669" lat="44.188752">
        <ele>1010.83</ele>
        <time>2025-12-17T18:29:07.032Z</time>
      </trkpt>
      <trkpt lon="-88.335556" lat="44.193070">
        <ele>990.473</ele>
        <time>2025-12-17T18:29:12.124Z</time>
      </trkpt>
      <trkpt lon="-88.331096" lat="44.198115">
        <ele>972.025</ele>
        <time>2025-12-17T18:29:17.460Z</time>
      </trkpt>
      <trkpt lon="-88.327676" lat="44.203541">
        <ele>957.503</ele>
        <time>2025-12-17T18:29:22.780Z</time>
      </trkpt>
      <trkpt lon="-88.325397" lat="44.209102">
        <ele>954.146</ele>
        <time>2025-12-17T18:29:28.000Z</time>
      </trkpt>
      <trkpt lon="-88.324258" lat="44.214708">
        <ele>965.104</ele>
        <time>2025-12-17T18:29:33.156Z</time>
      </trkpt>
      <trkpt lon="-88.324147" lat="44.217616">
        <ele>970.721</ele>
        <time>2025-12-17T18:29:35.820Z</time>
      </trkpt>
      <trkpt lon="-88.324385" lat="44.220455">
        <ele>975.255</ele>
        <time>2025-12-17T18:29:38.468Z</time>
      </trkpt>
      <trkpt lon="-88.324978" lat="44.223279">
        <ele>976.926</ele>
        <time>2025-12-17T18:29:41.100Z</time>
      </trkpt>
      <trkpt lon="-88.327186" lat="44.228793">
        <ele>964.21</ele>
        <time>2025-12-17T18:29:46.428Z</time>
      </trkpt>
      <trkpt lon="-88.328883" lat="44.231556">
        <ele>953.117</ele>
        <time>2025-12-17T18:29:49.204Z</time>
      </trkpt>
      <trkpt lon="-88.332973" lat="44.236422">
        <ele>930.68</ele>
        <time>2025-12-17T18:29:54.408Z</time>
      </trkpt>
      <trkpt lon="-88.338351" lat="44.241032">
        <ele>912.892</ele>
        <time>2025-12-17T18:29:59.876Z</time>
      </trkpt>
      <trkpt lon="-88.344578" lat="44.244961">
        <ele>905.07</ele>
        <time>2025-12-17T18:30:05.304Z</time>
      </trkpt>
      <trkpt lon="-88.351345" lat="44.248099">
        <ele>905.675</ele>
        <time>2025-12-17T18:30:10.608Z</time>
      </trkpt>
    </trkseg>
    <trkseg>
      <trkpt lon="-88.508081" lat="44.252673">
        <ele>266.995</ele>
        <time>2025-12-17T15:09:22.008Z</time>
      </trkpt>
      <trkpt lon="-88.507789" lat="44.253450">
        <ele>267.767</ele>
        <time>2025-12-17T15:09:37.304Z</time>
      </trkpt>
      <trkpt lon="-88.507976" lat="44.253515">
        <ele>267.824</ele>
        <time>2025-12-17T15:10:11.912Z</time>
      </trkpt>
      <trkpt lon="-88.508688" lat="44.253739">
        <ele>268.156</ele>
        <time>2025-12-17T15:10:14.640Z</time>
      </trkpt>
      <trkpt lon="-88.509628" lat="44.254183">
        <ele>269.035</ele>
        <time>2025-12-17T15:10:17.240Z</time>
      </trkpt>
      <trkpt lon="-88.510880" lat="44.254723">
        <ele>269.964</ele>
        <time>2025-12-17T15:10:19.844Z</time>
      </trkpt>
      <trkpt lon="-88.512422" lat="44.255307">
        <ele>270.334</ele>
        <time>2025-12-17T15:10:22.412Z</time>
      </trkpt>
      <trkpt lon="-88.514303" lat="44.255979">
        <ele>280.26</ele>
        <time>2025-12-17T15:10:25.084Z</time>
      </trkpt>
      <trkpt lon="-88.516353" lat="44.256684">
        <ele>313.27</ele>
        <time>2025-12-17T15:10:27.832Z</time>
      </trkpt>
      <trkpt lon="-88.518479" lat="44.257432">
        <ele>353.997</ele>
        <time>2025-12-17T15:10:30.620Z</time>
      </trkpt>
      <trkpt lon="-88.520644" lat="44.258226">
        <ele>396.667</ele>
        <time>2025-12-17T15:10:33.408Z</time>
      </trkpt>
      <trkpt lon="-88.522682" lat="44.259029">
        <ele>437.977</ele>
        <time>2025-12-17T15:10:36.032Z</time>
      </trkpt>
      <trkpt lon="-88.524864" lat="44.259969">
        <ele>483.607</ele>
        <time>2025-12-17T15:10:38.852Z</time>
      </trkpt>
      <trkpt lon="-88.526900" lat="44.260909">
        <ele>527.314</ele>
        <time>2025-12-17T15:10:41.520Z</time>
      </trkpt>
      <trkpt lon="-88.529016" lat="44.261923">
        <ele>573.571</ele>
        <time>2025-12-17T15:10:44.304Z</time>
      </trkpt>
      <trkpt lon="-88.531165" lat="44.262963">
        <ele>620.821</ele>
        <time>2025-12-17T15:10:47.088Z</time>
      </trkpt>
      <trkpt lon="-88.533193" lat="44.263941">
        <ele>665.397</ele>
        <time>2025-12-17T15:10:49.716Z</time>
      </trkpt>
      <trkpt lon="-88.535324" lat="44.264958">
        <ele>712.435</ele>
        <time>2025-12-17T15:10:52.420Z</time>
      </trkpt>
      <trkpt lon="-88.539375" lat="44.266874">
        <ele>801.926</ele>
        <time>2025-12-17T15:10:57.512Z</time>
      </trkpt>
      <trkpt lon="-88.544001" lat="44.269066">
        <ele>903.643</ele>
        <time>2025-12-17T15:11:03.264Z</time>
      </trkpt>
      <trkpt lon="-88.550884" lat="44.272339">
        <ele>1053.26</ele>
        <time>2025-12-17T15:11:11.712Z</time>
      </trkpt>
      <trkpt lon="-88.559949" lat="44.276651">
        <ele>1190.91</ele>
        <time>2025-12-17T15:11:22.252Z</time>
      </trkpt>
      <trkpt lon="-88.569793" lat="44.281317">
        <ele>1242.82</ele>
        <time>2025-12-17T15:11:32.480Z</time>
      </trkpt>
      <trkpt lon="-88.581372" lat="44.286803">
        <ele>1219.39</ele>
        <time>2025-12-17T15:11:43.080Z</time>
      </trkpt>
      <trkpt lon="-88.605791" lat="44.298464">
        <ele>1173.37</ele>
        <time>2025-12-17T15:12:03.608Z</time>
      </trkpt>
      <trkpt lon="-88.644575" lat="44.317142">
        <ele>1101.09</ele>
        <time>2025-12-17T15:12:35.148Z</time>
      </trkpt>
      <trkpt lon="-88.684307" lat="44.336265">
        <ele>1068.21</ele>
        <time>2025-12-17T15:13:07.408Z</time>
      </trkpt>
      <trkpt lon="-88.722084" lat="44.354405">
        <ele>1067.18</ele>
        <time>2025-12-17T15:13:38.528Z</time>
      </trkpt>
      <trkpt lon="-88.760753" lat="44.372982">
        <ele>1067.47</ele>
        <time>2025-12-17T15:14:10.488Z</time>
      </trkpt>
      <trkpt lon="-88.799257" lat="44.391499">
        <ele>1065.73</ele>
        <time>2025-12-17T15:14:42.276Z</time>
      </trkpt>
      <trkpt lon="-88.837785" lat="44.410041">
        <ele>1065.64</ele>
        <time>2025-12-17T15:15:14.092Z</time>
      </trkpt>
      <trkpt lon="-88.874920" lat="44.427934">
        <ele>1064.12</ele>
        <time>2025-12-17T15:15:44.772Z</time>
      </trkpt>
      <trkpt lon="-88.913839" lat="44.446708">
        <ele>1064.61</ele>
        <time>2025-12-17T15:16:16.952Z</time>
      </trkpt>
      <trkpt lon="-88.952743" lat="44.465481">
        <ele>1065.99</ele>
        <time>2025-12-17T15:16:49.152Z</time>
      </trkpt>
      <trkpt lon="-88.519072" lat="44.258094">
        <ele>1077.3</ele>
        <time>2025-12-17T15:17:00.416Z</time>
      </trkpt>
      <trkpt lon="-88.525183" lat="44.261088">
        <ele>1079.23</ele>
        <time>2025-12-17T15:17:33.448Z</time>
      </trkpt>
      <trkpt lon="-88.564635" lat="44.280382">
        <ele>1064.36</ele>
        <time>2025-12-17T15:18:06.152Z</time>
      </trkpt>
      <trkpt lon="-88.603206" lat="44.298938">
        <ele>1066.69</ele>
        <time>2025-12-17T15:18:38.068Z</time>
      </trkpt>
      <trkpt lon="-88.640580" lat="44.316805">
        <ele>1064.86</ele>
        <time>2025-12-17T15:19:08.912Z</time>
      </trkpt>
      <trkpt lon="-88.679195" lat="44.335257">
        <ele>1068.99</ele>
        <time>2025-12-17T15:19:40.756Z</time>
      </trkpt>
      <trkpt lon="-88.717802" lat="44.353714">
        <ele>1065.91</ele>
        <time>2025-12-17T15:20:12.620Z</time>
      </trkpt>
      <trkpt lon="-88.757403" lat="44.372664">
        <ele>1066.09</ele>
        <time>2025-12-17T15:20:45.304Z</time>
      </trkpt>
      <trkpt lon="-88.795832" lat="44.391052">
        <ele>1064.25</ele>
        <time>2025-12-17T15:21:17.008Z</time>
      </trkpt>
      <trkpt lon="-88.835962" lat="44.410270">
        <ele>1064.99</ele>
        <time>2025-12-17T15:21:50.112Z</time>
      </trkpt>
      <trkpt lon="-88.874120" lat="44.428564">
        <ele>1063.54</ele>
        <time>2025-12-17T15:22:21.584Z</time>
      </trkpt>
      <trkpt lon="-88.912047" lat="44.446761">
        <ele>1067.86</ele>
        <time>2025-12-17T15:22:52.916Z</time>
      </trkpt>
      <trkpt lon="-88.951433" lat="44.465672">
        <ele>1064.59</ele>
        <time>2025-12-17T15:23:25.424Z</time>
      </trkpt>
      <trkpt lon="-88.990512" lat="44.484448">
        <ele>1065.33</ele>
        <time>2025-12-17T15:23:57.692Z</time>
      </trkpt>
      <trkpt lon="-89.030732" lat="44.503789">
        <ele>1063.33</ele>
        <time>2025-12-17T15:24:30.868Z</time>
      </trkpt>
      <trkpt lon="-89.070731" lat="44.523034">
        <ele>1066.22</ele>
        <time>2025-12-17T15:25:03.836Z</time>
      </trkpt>
      <trkpt lon="-89.110319" lat="44.542094">
        <ele>1065.79</ele>
        <time>2025-12-17T15:25:36.460Z</time>
      </trkpt>
      <trkpt lon="-89.148315" lat="44.560400">
        <ele>1062.84</ele>
        <time>2025-12-17T15:26:07.804Z</time>
      </trkpt>
      <trkpt lon="-89.188675" lat="44.579869">
        <ele>1063.13</ele>
        <time>2025-12-17T15:26:41.108Z</time>
      </trkpt>
      <trkpt lon="-89.228567" lat="44.599138">
        <ele>1065.51</ele>
        <time>2025-12-17T15:27:13.980Z</time>
      </trkpt>
      <trkpt lon="-89.267562" lat="44.618003">
        <ele>1066.43</ele>
        <time>2025-12-17T15:27:46.136Z</time>
      </trkpt>
      <trkpt lon="-89.305833" lat="44.636521">
        <ele>1064.73</ele>
        <time>2025-12-17T15:28:17.632Z</time>
      </trkpt>
      <trkpt lon="-89.344726" lat="44.655348">
        <ele>1064.45</ele>
        <time>2025-12-17T15:28:49.644Z</time>
      </trkpt>
      <trkpt lon="-89.383425" lat="44.674081">
        <ele>1068.02</ele>
        <time>2025-12-17T15:29:21.584Z</time>
      </trkpt>
      <trkpt lon="-89.422053" lat="44.692787">
        <ele>1064.18</ele>
        <time>2025-12-17T15:29:53.404Z</time>
      </trkpt>
      <trkpt lon="-89.460827" lat="44.711579">
        <ele>1065.13</ele>
        <time>2025-12-17T15:30:25.340Z</time>
      </trkpt>
      <trkpt lon="-89.498337" lat="44.729786">
        <ele>1064.59</ele>
        <time>2025-12-17T15:30:56.248Z</time>
      </trkpt>
      <trkpt lon="-89.536997" lat="44.748597">
        <ele>1066.36</ele>
        <time>2025-12-17T15:31:28.148Z</time>
      </trkpt>
      <trkpt lon="-89.562567" lat="44.759161">
        <ele>1075.5</ele>
        <time>2025-12-17T15:31:48.284Z</time>
      </trkpt>
      <trkpt lon="-89.576355" lat="44.763521">
        <ele>1103.37</ele>
        <time>2025-12-17T15:31:58.752Z</time>
      </trkpt>
      <trkpt lon="-89.591601" lat="44.767022">
        <ele>1091.92</ele>
        <time>2025-12-17T15:32:09.760Z</time>
      </trkpt>
      <trkpt lon="-89.607370" lat="44.769411">
        <ele>1068.7</ele>
        <time>2025-12-17T15:32:20.668Z</time>
      </trkpt>
      <trkpt lon="-89.630889" lat="44.770904">
        <ele>1071.89</ele>
        <time>2025-12-17T15:32:36.552Z</time>
      </trkpt>
      <trkpt lon="-89.638298" lat="44.771105">
        <ele>1081.32</ele>
        <time>2025-12-17T15:32:41.680Z</time>
      </trkpt>
      <trkpt lon="-89.644995" lat="44.771302">
        <ele>1053.96</ele>
        <time>2025-12-17T15:32:47.036Z</time>
      </trkpt>
      <trkpt lon="-89.650385" lat="44.771178">
        <ele>946.114</ele>
        <time>2025-12-17T15:32:52.148Z</time>
      </trkpt>
      <trkpt lon="-89.656419" lat="44.770898">
        <ele>710.387</ele>
        <time>2025-12-17T15:32:58.392Z</time>
      </trkpt>
      <trkpt lon="-89.661457" lat="44.770841">
        <ele>438.124</ele>
        <time>2025-12-17T15:33:03.644Z</time>
      </trkpt>
      <trkpt lon="-89.664187" lat="44.770937">
        <ele>392.14</ele>
        <time>2025-12-17T15:33:08.848Z</time>
      </trkpt>
      <trkpt lon="-89.663847" lat="44.770828">
        <ele>381.764</ele>
        <time>2025-12-17T15:33:14.312Z</time>
      </trkpt>
      <trkpt lon="-89.663856" lat="44.770770">
        <ele>382.27</ele>
        <time>2025-12-17T15:33:19.880Z</time>
      </trkpt>
      <trkpt lon="-89.663586" lat="44.770821">
        <ele>381.874</ele>
        <time>2025-12-17T15:33:30.496Z</time>
      </trkpt>
      <trkpt lon="-89.663407" lat="44.770848">
        <ele>381.924</ele>
        <time>2025-12-17T15:33:41.116Z</time>
      </trkpt>
      <trkpt lon="-89.663281" lat="44.770867">
        <ele>381.918</ele>
        <time>2025-12-17T15:33:51.584Z</time>
      </trkpt>
      <trkpt lon="-89.663207" lat="44.770878">
        <ele>381.907</ele>
        <time>2025-12-17T15:34:02.000Z</time>
      </trkpt>
    </trkseg>
    <trkseg>
      <trkpt lon="-78.331614" lat="34.131302">
        <ele>21.7353</ele>
        <time>2025-12-17T15:18:10.916Z</time>
      </trkpt>
      <trkpt lon="-78.331448" lat="34.131379">
        <ele>21.791</ele>
        <time>2025-12-17T15:18:31.456Z</time>
      </trkpt>
      <trkpt lon="-78.331485" lat="34.131361">
        <ele>21.771</ele>
        <time>2025-12-17T15:20:33.408Z</time>
      </trkpt>
      <trkpt lon="-78.331624" lat="34.131294">
        <ele>21.6909</ele>
        <time>2025-12-17T15:20:34.880Z</time>
      </trkpt>
      <trkpt lon="-78.332206" lat="34.131069">
        <ele>21.1837</ele>
        <time>2025-12-17T15:20:37.516Z</time>
      </trkpt>
      <trkpt lon="-78.333081" lat="34.130788">
        <ele>20.6238</ele>
        <time>2025-12-17T15:20:40.084Z</time>
      </trkpt>
      <trkpt lon="-78.334166" lat="34.130270">
        <ele>20.8963</ele>
        <time>2025-12-17T15:20:42.756Z</time>
      </trkpt>
      <trkpt lon="-78.335497" lat="34.129611">
        <ele>22.2034</ele>
        <time>2025-12-17T15:20:45.440Z</time>
      </trkpt>
      <trkpt lon="-78.337064" lat="34.128803">
        <ele>29.012</ele>
        <time>2025-12-17T15:20:48.188Z</time>
      </trkpt>
      <trkpt lon="-78.338654" lat="34.127957">
        <ele>45.7291</ele>
        <time>2025-12-17T15:20:50.752Z</time>
      </trkpt>
      <trkpt lon="-78.340388" lat="34.127050">
        <ele>77.5422</ele>
        <time>2025-12-17T15:20:53.416Z</time>
      </trkpt>
      <trkpt lon="-78.342163" lat="34.126162">
        <ele>113.762</ele>
        <time>2025-12-17T15:20:56.044Z</time>
      </trkpt>
      <trkpt lon="-78.344014" lat="34.125274">
        <ele>151.261</ele>
        <time>2025-12-17T15:20:58.696Z</time>
      </trkpt>
      <trkpt lon="-78.345917" lat="34.124454">
        <ele>189.614</ele>
        <time>2025-12-17T15:21:01.316Z</time>
      </trkpt>
      <trkpt lon="-78.347870" lat="34.123823">
        <ele>226.767</ele>
        <time>2025-12-17T15:21:03.848Z</time>
      </trkpt>
      <trkpt lon="-78.350035" lat="34.123409">
        <ele>266.063</ele>
        <time>2025-12-17T15:21:06.488Z</time>
      </trkpt>
      <trkpt lon="-78.352378" lat="34.123296">
        <ele>308.099</ele>
        <time>2025-12-17T15:21:09.248Z</time>
      </trkpt>
      <trkpt lon="-78.354730" lat="34.123531">
        <ele>351.924</ele>
        <time>2025-12-17T15:21:11.988Z</time>
      </trkpt>
      <trkpt lon="-78.356993" lat="34.124086">
        <ele>396.273</ele>
        <time>2025-12-17T15:21:14.696Z</time>
      </trkpt>
      <trkpt lon="-78.359095" lat="34.124842">
        <ele>438.996</ele>
        <time>2025-12-17T15:21:17.300Z</time>
      </trkpt>
      <trkpt lon="-78.361210" lat="34.125746">
        <ele>482.634</ele>
        <time>2025-12-17T15:21:19.992Z</time>
      </trkpt>
      <trkpt lon="-78.363287" lat="34.126693">
        <ele>526.005</ele>
        <time>2025-12-17T15:21:22.656Z</time>
      </trkpt>
      <trkpt lon="-78.365319" lat="34.127623">
        <ele>568.323</ele>
        <time>2025-12-17T15:21:25.260Z</time>
      </trkpt>
      <trkpt lon="-78.369415" lat="34.129440">
        <ele>652.983</ele>
        <time>2025-12-17T15:21:30.424Z</time>
      </trkpt>
      <trkpt lon="-78.373523" lat="34.131199">
        <ele>737.668</ele>
        <time>2025-12-17T15:21:35.536Z</time>
      </trkpt>
      <trkpt lon="-78.377682" lat="34.132971">
        <ele>823.236</ele>
        <time>2025-12-17T15:21:40.676Z</time>
      </trkpt>
      <trkpt lon="-78.381704" lat="34.134705">
        <ele>906.236</ele>
        <time>2025-12-17T15:21:45.652Z</time>
      </trkpt>
      <trkpt lon="-78.385851" lat="34.136505">
        <ele>990.914</ele>
        <time>2025-12-17T15:21:50.752Z</time>
      </trkpt>
      <trkpt lon="-78.392403" lat="34.139364">
        <ele>1061.24</ele>
        <time>2025-12-17T15:21:58.528Z</time>
      </trkpt>
      <trkpt lon="-78.396995" lat="34.141380">
        <ele>1066.06</ele>
        <time>2025-12-17T15:22:03.532Z</time>
      </trkpt>
      <trkpt lon="-78.404539" lat="34.144722">
        <ele>1068.12</ele>
        <time>2025-12-17T15:22:11.232Z</time>
      </trkpt>
      <trkpt lon="-78.331463" lat="34.131368">
        <ele>1075.97</ele>
        <time>2025-12-17T15:22:23.864Z</time>
      </trkpt>
      <trkpt lon="-78.333725" lat="34.132407">
        <ele>1074.3</ele>
        <time>2025-12-17T15:22:31.640Z</time>
      </trkpt>
      <trkpt lon="-78.331463" lat="34.131367">
        <ele>1070.68</ele>
        <time>2025-12-17T15:22:49.752Z</time>
      </trkpt>
      <trkpt lon="-78.333700" lat="34.132401">
        <ele>1070.19</ele>
        <time>2025-12-17T15:23:32.956Z</time>
      </trkpt>
      <trkpt lon="-78.368598" lat="34.148013">
        <ele>1069.27</ele>
        <time>2025-12-17T15:24:04.648Z</time>
      </trkpt>
      <trkpt lon="-78.403126" lat="34.163203">
        <ele>1066.8</ele>
        <time>2025-12-17T15:24:35.804Z</time>
      </trkpt>
      <trkpt lon="-78.437491" lat="34.178311">
        <ele>1067.11</ele>
        <time>2025-12-17T15:25:06.848Z</time>
      </trkpt>
      <trkpt lon="-78.473996" lat="34.194343">
        <ele>1060.9</ele>
        <time>2025-12-17T15:25:39.788Z</time>
      </trkpt>
      <trkpt lon="-78.509198" lat="34.209799">
        <ele>1065.32</ele>
        <time>2025-12-17T15:26:11.516Z</time>
      </trkpt>
      <trkpt lon="-78.544312" lat="34.225238">
        <ele>1067.82</ele>
        <time>2025-12-17T15:26:43.196Z</time>
      </trkpt>
      <trkpt lon="-78.578870" lat="34.240435">
        <ele>1066.3</ele>
        <time>2025-12-17T15:27:14.368Z</time>
      </trkpt>
      <trkpt lon="-78.612864" lat="34.255400">
        <ele>1065.51</ele>
        <time>2025-12-17T15:27:45.028Z</time>
      </trkpt>
      <trkpt lon="-78.647984" lat="34.270867">
        <ele>1064.35</ele>
        <time>2025-12-17T15:28:16.692Z</time>
      </trkpt>
      <trkpt lon="-78.683146" lat="34.286357">
        <ele>1066.03</ele>
        <time>2025-12-17T15:28:48.448Z</time>
      </trkpt>
      <trkpt lon="-78.717630" lat="34.301557">
        <ele>1069.17</ele>
        <time>2025-12-17T15:29:19.548Z</time>
      </trkpt>
      <trkpt lon="-78.752674" lat="34.317007">
        <ele>1066.51</ele>
        <time>2025-12-17T15:29:51.084Z</time>
      </trkpt>
      <trkpt lon="-78.788076" lat="34.332636">
        <ele>1063.97</ele>
        <time>2025-12-17T15:30:22.936Z</time>
      </trkpt>
      <trkpt lon="-78.823052" lat="34.348076">
        <ele>1067.69</ele>
        <time>2025-12-17T15:30:54.468Z</time>
      </trkpt>
      <trkpt lon="-78.858734" lat="34.363845">
        <ele>1067</ele>
        <time>2025-12-17T15:31:26.516Z</time>
      </trkpt>
      <trkpt lon="-78.893216" lat="34.379090">
        <ele>1066.53</ele>
        <time>2025-12-17T15:31:57.584Z</time>
      </trkpt>
      <trkpt lon="-78.928359" lat="34.394640">
        <ele>1067.46</ele>
        <time>2025-12-17T15:32:29.204Z</time>
      </trkpt>
      <trkpt lon="-78.962961" lat="34.409955">
        <ele>1065.76</ele>
        <time>2025-12-17T15:33:00.356Z</time>
      </trkpt>
      <trkpt lon="-78.997547" lat="34.425270">
        <ele>1067.54</ele>
        <time>2025-12-17T15:33:31.440Z</time>
      </trkpt>
      <trkpt lon="-79.032290" lat="34.440657">
        <ele>1065.1</ele>
        <time>2025-12-17T15:34:02.732Z</time>
      </trkpt>
      <trkpt lon="-79.067036" lat="34.456083">
        <ele>1063.34</ele>
        <time>2025-12-17T15:34:33.996Z</time>
      </trkpt>
      <trkpt lon="-79.102556" lat="34.471834">
        <ele>1066.96</ele>
        <time>2025-12-17T15:35:05.920Z</time>
      </trkpt>
      <trkpt lon="-79.137251" lat="34.487208">
        <ele>1062.97</ele>
        <time>2025-12-17T15:35:37.084Z</time>
      </trkpt>
      <trkpt lon="-79.172081" lat="34.502665">
        <ele>1067.97</ele>
        <time>2025-12-17T15:36:08.436Z</time>
      </trkpt>
      <trkpt lon="-79.207224" lat="34.518288">
        <ele>1065.34</ele>
        <time>2025-12-17T15:36:40.088Z</time>
      </trkpt>
      <trkpt lon="-79.241147" lat="34.533377">
        <ele>1068.01</ele>
        <time>2025-12-17T15:37:10.612Z</time>
      </trkpt>
      <trkpt lon="-79.275976" lat="34.548866">
        <ele>1066.01</ele>
        <time>2025-12-17T15:37:41.952Z</time>
      </trkpt>
      <trkpt lon="-79.311096" lat="34.564524">
        <ele>1068.12</ele>
        <time>2025-12-17T15:38:13.568Z</time>
      </trkpt>
      <trkpt lon="-79.346169" lat="34.580155">
        <ele>1064.52</ele>
        <time>2025-12-17T15:38:45.024Z</time>
      </trkpt>
      <trkpt lon="-79.381228" lat="34.595781">
        <ele>1068.2</ele>
        <time>2025-12-17T15:39:16.496Z</time>
      </trkpt>
      <trkpt lon="-79.416309" lat="34.611433">
        <ele>1063.81</ele>
        <time>2025-12-17T15:39:47.992Z</time>
      </trkpt>
      <trkpt lon="-79.451086" lat="34.626948">
        <ele>1068.11</ele>
        <time>2025-12-17T15:40:19.324Z</time>
      </trkpt>
      <trkpt lon="-79.485089" lat="34.642133">
        <ele>1066.61</ele>
        <time>2025-12-17T15:40:49.924Z</time>
      </trkpt>
      <trkpt lon="-79.520444" lat="34.657929">
        <ele>1067.76</ele>
        <time>2025-12-17T15:41:21.676Z</time>
      </trkpt>
      <trkpt lon="-79.556781" lat="34.674162">
        <ele>1066.74</ele>
        <time>2025-12-17T15:41:54.260Z</time>
      </trkpt>
      <trkpt lon="-79.591175" lat="34.689542">
        <ele>1067.97</ele>
        <time>2025-12-17T15:42:25.160Z</time>
      </trkpt>
      <trkpt lon="-79.626009" lat="34.705134">
        <ele>1066.63</ele>
        <time>2025-12-17T15:42:56.432Z</time>
      </trkpt>
      <trkpt lon="-79.662157" lat="34.721316">
        <ele>1069.68</ele>
        <time>2025-12-17T15:43:28.896Z</time>
      </trkpt>
      <trkpt lon="-79.697421" lat="34.737104">
        <ele>1067.11</ele>
        <time>2025-12-17T15:44:00.580Z</time>
      </trkpt>
      <trkpt lon="-79.733341" lat="34.753224">
        <ele>1065.75</ele>
        <time>2025-12-17T15:44:32.832Z</time>
      </trkpt>
      <trkpt lon="-79.767129" lat="34.768376">
        <ele>1067.88</ele>
        <time>2025-12-17T15:45:03.220Z</time>
      </trkpt>
      <trkpt lon="-79.801530" lat="34.783824">
        <ele>1065.19</ele>
        <time>2025-12-17T15:45:34.024Z</time>
      </trkpt>
      <trkpt lon="-79.836394" lat="34.799493">
        <ele>1067.82</ele>
        <time>2025-12-17T15:46:05.392Z</time>
      </trkpt>
      <trkpt lon="-79.871362" lat="34.815223">
        <ele>1065.19</ele>
        <time>2025-12-17T15:46:36.840Z</time>
      </trkpt>
      <trkpt lon="-79.906681" lat="34.831106">
        <ele>1066.89</ele>
        <time>2025-12-17T15:47:08.624Z</time>
      </trkpt>
      <trkpt lon="-79.941017" lat="34.846555">
        <ele>1064.34</ele>
        <time>2025-12-17T15:47:39.540Z</time>
      </trkpt>
      <trkpt lon="-79.975940" lat="34.862282">
        <ele>1063.52</ele>
        <time>2025-12-17T15:48:10.952Z</time>
      </trkpt>
      <trkpt lon="-80.011182" lat="34.878165">
        <ele>1060.43</ele>
        <time>2025-12-17T15:48:42.688Z</time>
      </trkpt>
      <trkpt lon="-80.045768" lat="34.893764">
        <ele>1065.36</ele>
        <time>2025-12-17T15:49:13.784Z</time>
      </trkpt>
      <trkpt lon="-80.081098" lat="34.909725">
        <ele>1065.77</ele>
        <time>2025-12-17T15:49:45.584Z</time>
      </trkpt>
      <trkpt lon="-80.115711" lat="34.925359">
        <ele>1066.5</ele>
        <time>2025-12-17T15:50:16.728Z</time>
      </trkpt>
      <trkpt lon="-80.151411" lat="34.941498">
        <ele>1065.73</ele>
        <time>2025-12-17T15:50:48.856Z</time>
      </trkpt>
      <trkpt lon="-80.186218" lat="34.957246">
        <ele>1063.68</ele>
        <time>2025-12-17T15:51:20.196Z</time>
      </trkpt>
      <trkpt lon="-80.221006" lat="34.972974">
        <ele>1065.93</ele>
        <time>2025-12-17T15:51:51.532Z</time>
      </trkpt>
      <trkpt lon="-80.255801" lat="34.988732">
        <ele>1068.14</ele>
        <time>2025-12-17T15:52:22.812Z</time>
      </trkpt>
      <trkpt lon="-80.289668" lat="35.004099">
        <ele>1067.38</ele>
        <time>2025-12-17T15:52:53.256Z</time>
      </trkpt>
      <trkpt lon="-80.324444" lat="35.019860">
        <ele>1067.29</ele>
        <time>2025-12-17T15:53:24.544Z</time>
      </trkpt>
      <trkpt lon="-80.359917" lat="35.035947">
        <ele>1061.67</ele>
        <time>2025-12-17T15:53:56.432Z</time>
      </trkpt>
      <trkpt lon="-80.394797" lat="35.051777">
        <ele>1066.49</ele>
        <time>2025-12-17T15:54:27.780Z</time>
      </trkpt>
      <trkpt lon="-80.429889" lat="35.067701">
        <ele>1062.47</ele>
        <time>2025-12-17T15:54:59.268Z</time>
      </trkpt>
      <trkpt lon="-80.464653" lat="35.083504">
        <ele>1066.35</ele>
        <time>2025-12-17T15:55:30.480Z</time>
      </trkpt>
      <trkpt lon="-80.500447" lat="35.099785">
        <ele>1062.99</ele>
        <time>2025-12-17T15:56:02.696Z</time>
      </trkpt>
      <trkpt lon="-80.536329" lat="35.116134">
        <ele>1069.87</ele>
        <time>2025-12-17T15:56:34.916Z</time>
      </trkpt>
      <trkpt lon="-80.572931" lat="35.132819">
        <ele>1063.71</ele>
        <time>2025-12-17T15:57:07.732Z</time>
      </trkpt>
      <trkpt lon="-80.608938" lat="35.149240">
        <ele>1065.71</ele>
        <time>2025-12-17T15:57:40.144Z</time>
      </trkpt>
      <trkpt lon="-80.644484" lat="35.165458">
        <ele>1068.68</ele>
        <time>2025-12-17T15:58:12.108Z</time>
      </trkpt>
      <trkpt lon="-80.682099" lat="35.182639">
        <ele>1070.73</ele>
        <time>2025-12-17T15:58:45.812Z</time>
      </trkpt>
      <trkpt lon="-80.719209" lat="35.199614">
        <ele>1069.51</ele>
        <time>2025-12-17T15:59:19.204Z</time>
      </trkpt>
      <trkpt lon="-80.758725" lat="35.217689">
        <ele>1069.54</ele>
        <time>2025-12-17T15:59:54.668Z</time>
      </trkpt>
      <trkpt lon="-80.798697" lat="35.236536">
        <ele>1064.08</ele>
        <time>2025-12-17T16:00:30.916Z</time>
      </trkpt>
      <trkpt lon="-80.813567" lat="35.242617">
        <ele>1082.96</ele>
        <time>2025-12-17T16:00:44.000Z</time>
      </trkpt>
      <trkpt lon="-80.826262" lat="35.246211">
        <ele>1088.66</ele>
        <time>2025-12-17T16:00:54.684Z</time>
      </trkpt>
      <trkpt lon="-80.839866" lat="35.248360">
        <ele>1055.49</ele>
        <time>2025-12-17T16:01:05.548Z</time>
      </trkpt>
      <trkpt lon="-80.853498" lat="35.248791">
        <ele>1024.35</ele>
        <time>2025-12-17T16:01:16.060Z</time>
      </trkpt>
      <trkpt lon="-80.867222" lat="35.247401">
        <ele>1005.94</ele>
        <time>2025-12-17T16:01:26.888Z</time>
      </trkpt>
      <trkpt lon="-80.880124" lat="35.244752">
        <ele>966.412</ele>
        <time>2025-12-17T16:01:37.552Z</time>
      </trkpt>
      <trkpt lon="-80.892129" lat="35.241154">
        <ele>883.891</ele>
        <time>2025-12-17T16:01:48.020Z</time>
      </trkpt>
      <trkpt lon="-80.897579" lat="35.239212">
        <ele>808.736</ele>
        <time>2025-12-17T16:01:53.212Z</time>
      </trkpt>
      <trkpt lon="-80.902581" lat="35.237319">
        <ele>699.597</ele>
        <time>2025-12-17T16:01:58.504Z</time>
      </trkpt>
      <trkpt lon="-80.906913" lat="35.235392">
        <ele>626.924</ele>
        <time>2025-12-17T16:02:03.668Z</time>
      </trkpt>
      <trkpt lon="-80.910967" lat="35.233402">
        <ele>549.168</ele>
        <time>2025-12-17T16:02:09.120Z</time>
      </trkpt>
      <trkpt lon="-80.914768" lat="35.231504">
        <ele>460.993</ele>
        <time>2025-12-17T16:02:14.608Z</time>
      </trkpt>
      <trkpt lon="-80.918402" lat="35.229645">
        <ele>397.779</ele>
        <time>2025-12-17T16:02:20.084Z</time>
      </trkpt>
      <trkpt lon="-80.921784" lat="35.227835">
        <ele>357.056</ele>
        <time>2025-12-17T16:02:25.648Z</time>
      </trkpt>
      <trkpt lon="-80.924709" lat="35.226194">
        <ele>305.763</ele>
        <time>2025-12-17T16:02:30.820Z</time>
      </trkpt>
      <trkpt lon="-80.927575" lat="35.224510">
        <ele>260.437</ele>
        <time>2025-12-17T16:02:36.100Z</time>
      </trkpt>
      <trkpt lon="-80.930382" lat="35.222769">
        <ele>241.739</ele>
        <time>2025-12-17T16:02:41.772Z</time>
      </trkpt>
      <trkpt lon="-80.932573" lat="35.221324">
        <ele>221.897</ele>
        <time>2025-12-17T16:02:47.276Z</time>
      </trkpt>
      <trkpt lon="-80.933552" lat="35.220729">
        <ele>221.334</ele>
        <time>2025-12-17T16:02:52.408Z</time>
      </trkpt>
      <trkpt lon="-80.933613" lat="35.220690">
        <ele>221.307</ele>
        <time>2025-12-17T16:02:57.988Z</time>
      </trkpt>
      <trkpt lon="-80.933651" lat="35.220666">
        <ele>221.306</ele>
        <time>2025-12-17T16:04:15.796Z</time>
      </trkpt>
      <trkpt lon="-80.934376" lat="35.220165">
        <ele>221.166</ele>
        <time>2025-12-17T16:04:21.060Z</time>
      </trkpt>
      <trkpt lon="-80.935943" lat="35.219231">
        <ele>220.215</ele>
        <time>2025-12-17T16:04:26.296Z</time>
      </trkpt>
      <trkpt lon="-80.937867" lat="35.217592">
        <ele>219.509</ele>
        <time>2025-12-17T16:04:31.456Z</time>
      </trkpt>
      <trkpt lon="-80.940628" lat="35.215693">
        <ele>218.972</ele>
        <time>2025-12-17T16:04:36.704Z</time>
      </trkpt>
      <trkpt lon="-80.944160" lat="35.213684">
        <ele>226.417</ele>
        <time>2025-12-17T16:04:41.988Z</time>
      </trkpt>
      <trkpt lon="-80.947833" lat="35.211596">
        <ele>274.084</ele>
        <time>2025-12-17T16:04:47.120Z</time>
      </trkpt>
      <trkpt lon="-80.951468" lat="35.209512">
        <ele>347.756</ele>
        <time>2025-12-17T16:04:52.244Z</time>
      </trkpt>
      <trkpt lon="-80.955401" lat="35.207214">
        <ele>382.65</ele>
        <time>2025-12-17T16:04:57.632Z</time>
      </trkpt>
      <trkpt lon="-80.959350" lat="35.204630">
        <ele>391.243</ele>
        <time>2025-12-17T16:05:02.904Z</time>
      </trkpt>
      <trkpt lon="-80.962984" lat="35.201719">
        <ele>400.501</ele>
        <time>2025-12-17T16:05:07.932Z</time>
      </trkpt>
      <trkpt lon="-80.966539" lat="35.198116">
        <ele>411.182</ele>
        <time>2025-12-17T16:05:13.260Z</time>
      </trkpt>
      <trkpt lon="-80.969639" lat="35.194079">
        <ele>420.505</ele>
        <time>2025-12-17T16:05:18.552Z</time>
      </trkpt>
      <trkpt lon="-80.972158" lat="35.189775">
        <ele>429.35</ele>
        <time>2025-12-17T16:05:23.684Z</time>
      </trkpt>
      <trkpt lon="-80.974132" lat="35.185228">
        <ele>438.144</ele>
        <time>2025-12-17T16:05:28.776Z</time>
      </trkpt>
      <trkpt lon="-80.977720" lat="35.172057">
        <ele>469.55</ele>
        <time>2025-12-17T16:05:42.772Z</time>
      </trkpt>
      <trkpt lon="-80.981953" lat="35.149637">
        <ele>525.113</ele>
        <time>2025-12-17T16:06:05.760Z</time>
      </trkpt>
      <trkpt lon="-80.985700" lat="35.125951">
        <ele>584.675</ele>
        <time>2025-12-17T16:06:29.860Z</time>
      </trkpt>
      <trkpt lon="-80.989266" lat="35.102098">
        <ele>646.455</ele>
        <time>2025-12-17T16:06:53.912Z</time>
      </trkpt>
      <trkpt lon="-80.992394" lat="35.080465">
        <ele>699.265</ele>
        <time>2025-12-17T16:07:15.744Z</time>
      </trkpt>
      <trkpt lon="-80.995581" lat="35.058081">
        <ele>758.376</ele>
        <time>2025-12-17T16:07:38.220Z</time>
      </trkpt>
      <trkpt lon="-80.998605" lat="35.036680">
        <ele>813.285</ele>
        <time>2025-12-17T16:07:59.652Z</time>
      </trkpt>
      <trkpt lon="-81.001787" lat="35.014147">
        <ele>864.982</ele>
        <time>2025-12-17T16:08:22.112Z</time>
      </trkpt>
      <trkpt lon="-81.004927" lat="34.991734">
        <ele>925.715</ele>
        <time>2025-12-17T16:08:44.520Z</time>
      </trkpt>
      <trkpt lon="-81.008073" lat="34.969285">
        <ele>979.929</ele>
        <time>2025-12-17T16:09:06.868Z</time>
      </trkpt>
      <trkpt lon="-80.933626" lat="35.220677">
        <ele>1035.39</ele>
        <time>2025-12-17T16:09:30.816Z</time>
      </trkpt>
      <trkpt lon="-80.934925" lat="35.212007">
        <ele>1051.62</ele>
        <time>2025-12-17T16:09:52.292Z</time>
      </trkpt>
      <trkpt lon="-80.939894" lat="35.178870">
        <ele>1066.27</ele>
        <time>2025-12-17T16:10:24.672Z</time>
      </trkpt>
      <trkpt lon="-80.944848" lat="35.144451">
        <ele>1058.87</ele>
        <time>2025-12-17T16:10:57.820Z</time>
      </trkpt>
      <trkpt lon="-80.949586" lat="35.110908">
        <ele>1064.49</ele>
        <time>2025-12-17T16:11:29.948Z</time>
      </trkpt>
      <trkpt lon="-80.954261" lat="35.078076">
        <ele>1064.88</ele>
        <time>2025-12-17T16:12:01.376Z</time>
      </trkpt>
      <trkpt lon="-80.958868" lat="35.045536">
        <ele>1067.27</ele>
        <time>2025-12-17T16:12:32.568Z</time>
      </trkpt>
      <trkpt lon="-80.963523" lat="35.012844">
        <ele>1060.27</ele>
        <time>2025-12-17T16:13:03.912Z</time>
      </trkpt>
      <trkpt lon="-80.968338" lat="34.978953">
        <ele>1063.42</ele>
        <time>2025-12-17T16:13:36.400Z</time>
      </trkpt>
      <trkpt lon="-80.972901" lat="34.946926">
        <ele>1062.4</ele>
        <time>2025-12-17T16:14:07.076Z</time>
      </trkpt>
      <trkpt lon="-80.977377" lat="34.915395">
        <ele>1066.32</ele>
        <time>2025-12-17T16:14:37.316Z</time>
      </trkpt>
      <trkpt lon="-80.981903" lat="34.883384">
        <ele>1064.84</ele>
        <time>2025-12-17T16:15:07.900Z</time>
      </trkpt>
      <trkpt lon="-80.986506" lat="34.850842">
        <ele>1066.06</ele>
        <time>2025-12-17T16:15:39.060Z</time>
      </trkpt>
      <trkpt lon="-80.991425" lat="34.816324">
        <ele>1067</ele>
        <time>2025-12-17T16:16:12.120Z</time>
      </trkpt>
      <trkpt lon="-80.995955" lat="34.784538">
        <ele>1065.34</ele>
        <time>2025-12-17T16:16:42.624Z</time>
      </trkpt>
      <trkpt lon="-81.000616" lat="34.751979">
        <ele>1065.3</ele>
        <time>2025-12-17T16:17:13.840Z</time>
      </trkpt>
      <trkpt lon="-81.005167" lat="34.720383">
        <ele>1065.4</ele>
        <time>2025-12-17T16:17:44.184Z</time>
      </trkpt>
      <trkpt lon="-81.009803" lat="34.687501">
        <ele>1063.92</ele>
        <time>2025-12-17T16:18:15.696Z</time>
      </trkpt>
      <trkpt lon="-81.014518" lat="34.654207">
        <ele>1062.88</ele>
        <time>2025-12-17T16:18:47.588Z</time>
      </trkpt>
      <trkpt lon="-81.019211" lat="34.621431">
        <ele>1065.98</ele>
        <time>2025-12-17T16:19:19.080Z</time>
      </trkpt>
      <trkpt lon="-81.023817" lat="34.589132">
        <ele>1069.11</ele>
        <time>2025-12-17T16:19:50.084Z</time>
      </trkpt>
      <trkpt lon="-81.028385" lat="34.557203">
        <ele>1066.81</ele>
        <time>2025-12-17T16:20:20.784Z</time>
      </trkpt>
      <trkpt lon="-81.032999" lat="34.525006">
        <ele>1065.18</ele>
        <time>2025-12-17T16:20:51.708Z</time>
      </trkpt>
      <trkpt lon="-81.037809" lat="34.491431">
        <ele>1067.19</ele>
        <time>2025-12-17T16:21:23.920Z</time>
      </trkpt>
      <trkpt lon="-81.042553" lat="34.458400">
        <ele>1065.24</ele>
        <time>2025-12-17T16:21:55.664Z</time>
      </trkpt>
      <trkpt lon="-81.047370" lat="34.424827">
        <ele>1064.32</ele>
        <time>2025-12-17T16:22:27.904Z</time>
      </trkpt>
      <trkpt lon="-81.052060" lat="34.392236">
        <ele>1063.76</ele>
        <time>2025-12-17T16:22:59.164Z</time>
      </trkpt>
      <trkpt lon="-81.056763" lat="34.359548">
        <ele>1066.35</ele>
        <time>2025-12-17T16:23:30.552Z</time>
      </trkpt>
      <trkpt lon="-81.061408" lat="34.327172">
        <ele>1069.84</ele>
        <time>2025-12-17T16:24:01.648Z</time>
      </trkpt>
      <trkpt lon="-81.066107" lat="34.294430">
        <ele>1066.7</ele>
        <time>2025-12-17T16:24:33.080Z</time>
      </trkpt>
      <trkpt lon="-81.070829" lat="34.261744">
        <ele>1065.52</ele>
        <time>2025-12-17T16:25:04.464Z</time>
      </trkpt>
      <trkpt lon="-81.075387" lat="34.230107">
        <ele>1063.89</ele>
        <time>2025-12-17T16:25:34.860Z</time>
      </trkpt>
      <trkpt lon="-81.080097" lat="34.197450">
        <ele>1066.4</ele>
        <time>2025-12-17T16:26:06.228Z</time>
      </trkpt>
      <trkpt lon="-81.085288" lat="34.160914">
        <ele>1065.19</ele>
        <time>2025-12-17T16:26:41.324Z</time>
      </trkpt>
      <trkpt lon="-81.090293" lat="34.127330">
        <ele>1064.14</ele>
        <time>2025-12-17T16:27:13.584Z</time>
      </trkpt>
      <trkpt lon="-81.095364" lat="34.092830">
        <ele>1064.39</ele>
        <time>2025-12-17T16:27:46.752Z</time>
      </trkpt>
      <trkpt lon="-81.100026" lat="34.060649">
        <ele>1065.69</ele>
        <time>2025-12-17T16:28:17.688Z</time>
      </trkpt>
      <trkpt lon="-81.105068" lat="34.026353">
        <ele>1070.84</ele>
        <time>2025-12-17T16:28:50.592Z</time>
      </trkpt>
      <trkpt lon="-81.110262" lat="33.993726">
        <ele>1056.83</ele>
        <time>2025-12-17T16:29:21.880Z</time>
      </trkpt>
      <trkpt lon="-81.113795" lat="33.974780">
        <ele>1054.6</ele>
        <time>2025-12-17T16:29:40.304Z</time>
      </trkpt>
      <trkpt lon="-81.114803" lat="33.969607">
        <ele>965.5</ele>
        <time>2025-12-17T16:29:45.856Z</time>
      </trkpt>
      <trkpt lon="-81.115320" lat="33.967227">
        <ele>884.07</ele>
        <time>2025-12-17T16:29:48.532Z</time>
      </trkpt>
      <trkpt lon="-81.115900" lat="33.964816">
        <ele>778.422</ele>
        <time>2025-12-17T16:29:51.260Z</time>
      </trkpt>
      <trkpt lon="-81.116627" lat="33.962139">
        <ele>648.315</ele>
        <time>2025-12-17T16:29:54.232Z</time>
      </trkpt>
      <trkpt lon="-81.117249" lat="33.959612">
        <ele>555.095</ele>
        <time>2025-12-17T16:29:56.900Z</time>
      </trkpt>
      <trkpt lon="-81.117670" lat="33.957205">
        <ele>495.894</ele>
        <time>2025-12-17T16:29:59.380Z</time>
      </trkpt>
      <trkpt lon="-81.117978" lat="33.954595">
        <ele>443.78</ele>
        <time>2025-12-17T16:30:02.084Z</time>
      </trkpt>
      <trkpt lon="-81.118144" lat="33.952254">
        <ele>403.364</ele>
        <time>2025-12-17T16:30:04.572Z</time>
      </trkpt>
      <trkpt lon="-81.118193" lat="33.949773">
        <ele>360.608</ele>
        <time>2025-12-17T16:30:07.284Z</time>
      </trkpt>
      <trkpt lon="-81.118120" lat="33.947517">
        <ele>318.172</ele>
        <time>2025-12-17T16:30:09.848Z</time>
      </trkpt>
      <trkpt lon="-81.117994" lat="33.945311">
        <ele>276.605</ele>
        <time>2025-12-17T16:30:12.428Z</time>
      </trkpt>
      <trkpt lon="-81.117874" lat="33.943195">
        <ele>237.063</ele>
        <time>2025-12-17T16:30:15.060Z</time>
      </trkpt>
      <trkpt lon="-81.117788" lat="33.941080">
        <ele>196.998</ele>
        <time>2025-12-17T16:30:17.832Z</time>
      </trkpt>
      <trkpt lon="-81.117901" lat="33.939195">
        <ele>178.977</ele>
        <time>2025-12-17T16:30:20.468Z</time>
      </trkpt>
      <trkpt lon="-81.118274" lat="33.937486">
        <ele>164.719</ele>
        <time>2025-12-17T16:30:23.084Z</time>
      </trkpt>
      <trkpt lon="-81.118841" lat="33.935899">
        <ele>140.592</ele>
        <time>2025-12-17T16:30:25.736Z</time>
      </trkpt>
      <trkpt lon="-81.119578" lat="33.934372">
        <ele>116.17</ele>
        <time>2025-12-17T16:30:28.460Z</time>
      </trkpt>
      <trkpt lon="-81.121181" lat="33.931721">
        <ele>93.1761</ele>
        <time>2025-12-17T16:30:33.900Z</time>
      </trkpt>
      <trkpt lon="-81.121888" lat="33.930713">
        <ele>77.7586</ele>
        <time>2025-12-17T16:30:36.472Z</time>
      </trkpt>
      <trkpt lon="-81.122543" lat="33.929905">
        <ele>72.11</ele>
        <time>2025-12-17T16:30:39.164Z</time>
      </trkpt>
      <trkpt lon="-81.122994" lat="33.929470">
        <ele>72.2111</ele>
        <time>2025-12-17T16:30:41.904Z</time>
      </trkpt>
      <trkpt lon="-81.123182" lat="33.929306">
        <ele>72.2077</ele>
        <time>2025-12-17T16:30:44.716Z</time>
      </trkpt>
      <trkpt lon="-81.123069" lat="33.929414">
        <ele>72.2222</ele>
        <time>2025-12-17T16:31:52.936Z</time>
      </trkpt>
      <trkpt lon="-81.122736" lat="33.929777">
        <ele>72.1586</ele>
        <time>2025-12-17T16:31:55.536Z</time>
      </trkpt>
      <trkpt lon="-81.122167" lat="33.930285">
        <ele>72.0141</ele>
        <time>2025-12-17T16:31:58.204Z</time>
      </trkpt>
      <trkpt lon="-81.121410" lat="33.930906">
        <ele>72.127</ele>
        <time>2025-12-17T16:32:00.788Z</time>
      </trkpt>
      <trkpt lon="-81.120405" lat="33.931752">
        <ele>71.9621</ele>
        <time>2025-12-17T16:32:03.612Z</time>
      </trkpt>
      <trkpt lon="-81.118157" lat="33.933691">
        <ele>71.2146</ele>
        <time>2025-12-17T16:32:08.716Z</time>
      </trkpt>
      <trkpt lon="-81.115031" lat="33.935943">
        <ele>70.9826</ele>
        <time>2025-12-17T16:32:14.028Z</time>
      </trkpt>
      <trkpt lon="-81.111447" lat="33.938477">
        <ele>97.6378</ele>
        <time>2025-12-17T16:32:19.392Z</time>
      </trkpt>
      <trkpt lon="-81.107940" lat="33.941142">
        <ele>198.988</ele>
        <time>2025-12-17T16:32:24.884Z</time>
      </trkpt>
      <trkpt lon="-81.104971" lat="33.943549">
        <ele>333.136</ele>
        <time>2025-12-17T16:32:30.256Z</time>
      </trkpt>
      <trkpt lon="-81.102276" lat="33.945874">
        <ele>446.595</ele>
        <time>2025-12-17T16:32:35.616Z</time>
      </trkpt>
      <trkpt lon="-81.100079" lat="33.948137">
        <ele>541.914</ele>
        <time>2025-12-17T16:32:40.648Z</time>
      </trkpt>
      <trkpt lon="-81.098198" lat="33.950859">
        <ele>642.778</ele>
        <time>2025-12-17T16:32:46.248Z</time>
      </trkpt>
      <trkpt lon="-81.097047" lat="33.953790">
        <ele>741.224</ele>
        <time>2025-12-17T16:32:51.828Z</time>
      </trkpt>
      <trkpt lon="-81.096532" lat="33.956599">
        <ele>832.389</ele>
        <time>2025-12-17T16:32:57.108Z</time>
      </trkpt>
      <trkpt lon="-81.096284" lat="33.959363">
        <ele>920.042</ele>
        <time>2025-12-17T16:33:02.336Z</time>
      </trkpt>
      <trkpt lon="-81.096077" lat="33.962108">
        <ele>1001.58</ele>
        <time>2025-12-17T16:33:07.548Z</time>
      </trkpt>
      <trkpt lon="-81.095787" lat="33.964948">
        <ele>1075.33</ele>
        <time>2025-12-17T16:33:12.828Z</time>
      </trkpt>
      <trkpt lon="-81.095373" lat="33.968205">
        <ele>1117.37</ele>
        <time>2025-12-17T16:33:18.328Z</time>
      </trkpt>
      <trkpt lon="-81.094867" lat="33.971763">
        <ele>1115.97</ele>
        <time>2025-12-17T16:33:23.552Z</time>
      </trkpt>
      <trkpt lon="-81.094267" lat="33.975685">
        <ele>1102.7</ele>
        <time>2025-12-17T16:33:28.612Z</time>
      </trkpt>
      <trkpt lon="-81.093569" lat="33.980079">
        <ele>1091.01</ele>
        <time>2025-12-17T16:33:33.780Z</time>
      </trkpt>
      <trkpt lon="-81.123198" lat="33.929287">
        <ele>1067.59</ele>
        <time>2025-12-17T16:33:38.864Z</time>
      </trkpt>
      <trkpt lon="-81.123152" lat="33.929561">
        <ele>1067.53</ele>
        <time>2025-12-17T16:33:49.340Z</time>
      </trkpt>
      <trkpt lon="-81.121489" lat="33.939728">
        <ele>1069.67</ele>
        <time>2025-12-17T16:34:00.204Z</time>
      </trkpt>
      <trkpt lon="-81.119049" lat="33.955222">
        <ele>1067.99</ele>
        <time>2025-12-17T16:34:15.848Z</time>
      </trkpt>
      <trkpt lon="-81.114054" lat="33.988319">
        <ele>1068.24</ele>
        <time>2025-12-17T16:34:47.932Z</time>
      </trkpt>
      <trkpt lon="-81.109100" lat="34.022071">
        <ele>1068.28</ele>
        <time>2025-12-17T16:35:20.280Z</time>
      </trkpt>
      <trkpt lon="-81.104242" lat="34.055336">
        <ele>1066.64</ele>
        <time>2025-12-17T16:35:52.100Z</time>
      </trkpt>
      <trkpt lon="-81.123198" lat="33.929287">
        <ele>1065.37</ele>
        <time>2025-12-17T16:35:57.448Z</time>
      </trkpt>
      <trkpt lon="-80.949056" lat="35.213750">
        <ele>1212.02</ele>
        <time>2025-12-17T17:15:03.592Z</time>
      </trkpt>
      <trkpt lon="-80.948431" lat="35.217779">
        <ele>1208.17</ele>
        <time>2025-12-17T17:15:19.364Z</time>
      </trkpt>
      <trkpt lon="-80.945748" lat="35.228997">
        <ele>1186.04</ele>
        <time>2025-12-17T17:15:30.156Z</time>
      </trkpt>
      <trkpt lon="-80.943287" lat="35.234819">
        <ele>1175.59</ele>
        <time>2025-12-17T17:15:35.884Z</time>
      </trkpt>
      <trkpt lon="-80.940260" lat="35.240013">
        <ele>1166.21</ele>
        <time>2025-12-17T17:15:41.172Z</time>
      </trkpt>
      <trkpt lon="-80.936474" lat="35.245001">
        <ele>1156.21</ele>
        <time>2025-12-17T17:15:46.584Z</time>
      </trkpt>
      <trkpt lon="-80.932014" lat="35.249639">
        <ele>1144.89</ele>
        <time>2025-12-17T17:15:52.024Z</time>
      </trkpt>
      <trkpt lon="-80.926869" lat="35.253908">
        <ele>1134.95</ele>
        <time>2025-12-17T17:15:57.528Z</time>
      </trkpt>
      <trkpt lon="-80.921553" lat="35.257461">
        <ele>1125.34</ele>
        <time>2025-12-17T17:16:02.696Z</time>
      </trkpt>
      <trkpt lon="-80.915882" lat="35.260516">
        <ele>1117.85</ele>
        <time>2025-12-17T17:16:07.800Z</time>
      </trkpt>
      <trkpt lon="-80.909798" lat="35.263116">
        <ele>1107.17</ele>
        <time>2025-12-17T17:16:12.952Z</time>
      </trkpt>
      <trkpt lon="-80.902952" lat="35.265315">
        <ele>1096.62</ele>
        <time>2025-12-17T17:16:18.484Z</time>
      </trkpt>
      <trkpt lon="-80.896542" lat="35.266761">
        <ele>1089.38</ele>
        <time>2025-12-17T17:16:23.504Z</time>
      </trkpt>
      <trkpt lon="-80.889261" lat="35.267769">
        <ele>1077.18</ele>
        <time>2025-12-17T17:16:29.048Z</time>
      </trkpt>
      <trkpt lon="-80.881863" lat="35.268178">
        <ele>1072.83</ele>
        <time>2025-12-17T17:16:34.644Z</time>
      </trkpt>
      <trkpt lon="-80.867707" lat="35.267872">
        <ele>1070.1</ele>
        <time>2025-12-17T17:16:45.388Z</time>
      </trkpt>
      <trkpt lon="-80.826218" lat="35.264524">
        <ele>1067.96</ele>
        <time>2025-12-17T17:17:17.332Z</time>
      </trkpt>
      <trkpt lon="-80.784812" lat="35.260594">
        <ele>1067.01</ele>
        <time>2025-12-17T17:17:49.460Z</time>
      </trkpt>
      <trkpt lon="-80.742144" lat="35.256334">
        <ele>1066.04</ele>
        <time>2025-12-17T17:18:22.532Z</time>
      </trkpt>
      <trkpt lon="-80.701775" lat="35.252345">
        <ele>1066.17</ele>
        <time>2025-12-17T17:18:53.912Z</time>
      </trkpt>
      <trkpt lon="-80.949056" lat="35.213750">
        <ele>1078.08</ele>
        <time>2025-12-17T17:18:58.980Z</time>
      </trkpt>
      <trkpt lon="-80.948728" lat="35.213713">
        <ele>1078.13</ele>
        <time>2025-12-17T17:19:20.384Z</time>
      </trkpt>
      <trkpt lon="-80.908242" lat="35.209411">
        <ele>1064.03</ele>
        <time>2025-12-17T17:19:51.712Z</time>
      </trkpt>
      <trkpt lon="-80.866687" lat="35.205206">
        <ele>1066.12</ele>
        <time>2025-12-17T17:20:24.044Z</time>
      </trkpt>
      <trkpt lon="-80.823578" lat="35.200863">
        <ele>1058.4</ele>
        <time>2025-12-17T17:20:57.556Z</time>
      </trkpt>
      <trkpt lon="-80.780746" lat="35.196566">
        <ele>1062.29</ele>
        <time>2025-12-17T17:21:30.820Z</time>
      </trkpt>
      <trkpt lon="-80.736555" lat="35.192163">
        <ele>1072.78</ele>
        <time>2025-12-17T17:22:05.212Z</time>
      </trkpt>
      <trkpt lon="-80.694629" lat="35.187992">
        <ele>1065.58</ele>
        <time>2025-12-17T17:22:37.816Z</time>
      </trkpt>
      <trkpt lon="-80.652610" lat="35.183816">
        <ele>1069.22</ele>
        <time>2025-12-17T17:23:10.472Z</time>
      </trkpt>
      <trkpt lon="-80.610920" lat="35.179699">
        <ele>1067.14</ele>
        <time>2025-12-17T17:23:42.836Z</time>
      </trkpt>
      <trkpt lon="-80.571405" lat="35.175812">
        <ele>1069.81</ele>
        <time>2025-12-17T17:24:13.612Z</time>
      </trkpt>
      <trkpt lon="-80.529738" lat="35.171723">
        <ele>1067.85</ele>
        <time>2025-12-17T17:24:45.996Z</time>
      </trkpt>
      <trkpt lon="-80.489203" lat="35.167758">
        <ele>1062.62</ele>
        <time>2025-12-17T17:25:17.516Z</time>
      </trkpt>
      <trkpt lon="-80.449333" lat="35.163844">
        <ele>1068.18</ele>
        <time>2025-12-17T17:25:48.476Z</time>
      </trkpt>
      <trkpt lon="-80.409611" lat="35.159973">
        <ele>1061.03</ele>
        <time>2025-12-17T17:26:19.384Z</time>
      </trkpt>
      <trkpt lon="-80.370317" lat="35.156164">
        <ele>1061.99</ele>
        <time>2025-12-17T17:26:49.964Z</time>
      </trkpt>
      <trkpt lon="-80.330455" lat="35.152319">
        <ele>1066.07</ele>
        <time>2025-12-17T17:27:21.004Z</time>
      </trkpt>
      <trkpt lon="-80.289395" lat="35.148367">
        <ele>1068.73</ele>
        <time>2025-12-17T17:27:52.968Z</time>
      </trkpt>
      <trkpt lon="-80.248831" lat="35.144477">
        <ele>1050.28</ele>
        <time>2025-12-17T17:28:24.464Z</time>
      </trkpt>
      <trkpt lon="-80.206922" lat="35.140425">
        <ele>1072.03</ele>
        <time>2025-12-17T17:28:56.540Z</time>
      </trkpt>
      <trkpt lon="-80.165359" lat="35.136361">
        <ele>1064</ele>
        <time>2025-12-17T17:29:28.064Z</time>
      </trkpt>
      <trkpt lon="-80.124138" lat="35.132321">
        <ele>1061.17</ele>
        <time>2025-12-17T17:29:59.276Z</time>
      </trkpt>
      <trkpt lon="-80.083109" lat="35.128304">
        <ele>1062.83</ele>
        <time>2025-12-17T17:30:30.288Z</time>
      </trkpt>
      <trkpt lon="-80.040609" lat="35.124161">
        <ele>1064.81</ele>
        <time>2025-12-17T17:31:02.332Z</time>
      </trkpt>
      <trkpt lon="-79.999351" lat="35.120110">
        <ele>1072.88</ele>
        <time>2025-12-17T17:31:33.528Z</time>
      </trkpt>
      <trkpt lon="-79.956653" lat="35.115949">
        <ele>1068.2</ele>
        <time>2025-12-17T17:32:05.748Z</time>
      </trkpt>
      <trkpt lon="-79.914072" lat="35.111843">
        <ele>1067.05</ele>
        <time>2025-12-17T17:32:37.896Z</time>
      </trkpt>
      <trkpt lon="-79.871628" lat="35.107775">
        <ele>1064.94</ele>
        <time>2025-12-17T17:33:09.956Z</time>
      </trkpt>
      <trkpt lon="-79.831086" lat="35.103879">
        <ele>1061.29</ele>
        <time>2025-12-17T17:33:40.616Z</time>
      </trkpt>
      <trkpt lon="-79.788766" lat="35.099839">
        <ele>1068.18</ele>
        <time>2025-12-17T17:34:12.624Z</time>
      </trkpt>
      <trkpt lon="-79.747720" lat="35.095933">
        <ele>1058.64</ele>
        <time>2025-12-17T17:34:43.636Z</time>
      </trkpt>
      <trkpt lon="-79.705854" lat="35.091961">
        <ele>1065.98</ele>
        <time>2025-12-17T17:35:15.192Z</time>
      </trkpt>
      <trkpt lon="-79.662402" lat="35.087849">
        <ele>1068.59</ele>
        <time>2025-12-17T17:35:47.948Z</time>
      </trkpt>
      <trkpt lon="-79.620981" lat="35.083933">
        <ele>1064.11</ele>
        <time>2025-12-17T17:36:19.180Z</time>
      </trkpt>
      <trkpt lon="-79.580193" lat="35.080148">
        <ele>1066.2</ele>
        <time>2025-12-17T17:36:49.968Z</time>
      </trkpt>
      <trkpt lon="-79.538449" lat="35.076271">
        <ele>1063.55</ele>
        <time>2025-12-17T17:37:21.512Z</time>
      </trkpt>
      <trkpt lon="-79.496118" lat="35.072346">
        <ele>1065.52</ele>
        <time>2025-12-17T17:37:53.464Z</time>
      </trkpt>
      <trkpt lon="-79.454431" lat="35.068476">
        <ele>1071.72</ele>
        <time>2025-12-17T17:38:24.884Z</time>
      </trkpt>
      <trkpt lon="-79.412619" lat="35.064614">
        <ele>1066.53</ele>
        <time>2025-12-17T17:38:56.392Z</time>
      </trkpt>
      <trkpt lon="-79.370115" lat="35.060696">
        <ele>1066.64</ele>
        <time>2025-12-17T17:39:28.400Z</time>
      </trkpt>
      <trkpt lon="-79.327665" lat="35.056798">
        <ele>1067.89</ele>
        <time>2025-12-17T17:40:00.416Z</time>
      </trkpt>
      <trkpt lon="-79.285972" lat="35.052992">
        <ele>1066.28</ele>
        <time>2025-12-17T17:40:31.948Z</time>
      </trkpt>
      <trkpt lon="-79.242144" lat="35.048997">
        <ele>1063.28</ele>
        <time>2025-12-17T17:41:05.052Z</time>
      </trkpt>
      <trkpt lon="-79.200631" lat="35.045175">
        <ele>1065.38</ele>
        <time>2025-12-17T17:41:36.492Z</time>
      </trkpt>
      <trkpt lon="-79.159376" lat="35.041488">
        <ele>1064.3</ele>
        <time>2025-12-17T17:42:07.732Z</time>
      </trkpt>
      <trkpt lon="-79.116788" lat="35.037684">
        <ele>1072.14</ele>
        <time>2025-12-17T17:42:39.888Z</time>
      </trkpt>
      <trkpt lon="-79.074167" lat="35.033839">
        <ele>1065.02</ele>
        <time>2025-12-17T17:43:12.040Z</time>
      </trkpt>
      <trkpt lon="-79.032366" lat="35.030092">
        <ele>1067.03</ele>
        <time>2025-12-17T17:43:43.584Z</time>
      </trkpt>
      <trkpt lon="-78.987203" lat="35.025367">
        <ele>1074.75</ele>
        <time>2025-12-17T17:44:17.792Z</time>
      </trkpt>
      <trkpt lon="-78.980606" lat="35.023986">
        <ele>1069.31</ele>
        <time>2025-12-17T17:44:23.172Z</time>
      </trkpt>
      <trkpt lon="-78.969385" lat="35.020903">
        <ele>1011.78</ele>
        <time>2025-12-17T17:44:33.300Z</time>
      </trkpt>
      <trkpt lon="-78.963734" lat="35.019031">
        <ele>949.696</ele>
        <time>2025-12-17T17:44:38.664Z</time>
      </trkpt>
      <trkpt lon="-78.958119" lat="35.017091">
        <ele>877.968</ele>
        <time>2025-12-17T17:44:44.036Z</time>
      </trkpt>
      <trkpt lon="-78.952362" lat="35.015082">
        <ele>804.071</ele>
        <time>2025-12-17T17:44:49.512Z</time>
      </trkpt>
      <trkpt lon="-78.946924" lat="35.013188">
        <ele>734.737</ele>
        <time>2025-12-17T17:44:54.692Z</time>
      </trkpt>
      <trkpt lon="-78.941176" lat="35.011192">
        <ele>664.722</ele>
        <time>2025-12-17T17:45:00.168Z</time>
      </trkpt>
      <trkpt lon="-78.935474" lat="35.009208">
        <ele>597.386</ele>
        <time>2025-12-17T17:45:05.644Z</time>
      </trkpt>
      <trkpt lon="-78.928222" lat="35.006722">
        <ele>512.307</ele>
        <time>2025-12-17T17:45:12.652Z</time>
      </trkpt>
      <trkpt lon="-78.922071" lat="35.004633">
        <ele>442.406</ele>
        <time>2025-12-17T17:45:18.536Z</time>
      </trkpt>
      <trkpt lon="-78.916790" lat="35.002801">
        <ele>384.665</ele>
        <time>2025-12-17T17:45:23.676Z</time>
      </trkpt>
      <trkpt lon="-78.911795" lat="35.000996">
        <ele>330.087</ele>
        <time>2025-12-17T17:45:28.600Z</time>
      </trkpt>
      <trkpt lon="-78.906420" lat="34.998935">
        <ele>278.869</ele>
        <time>2025-12-17T17:45:34.004Z</time>
      </trkpt>
      <trkpt lon="-78.900870" lat="34.996671">
        <ele>245.847</ele>
        <time>2025-12-17T17:45:39.728Z</time>
      </trkpt>
      <trkpt lon="-78.895920" lat="34.994566">
        <ele>221.992</ele>
        <time>2025-12-17T17:45:45.180Z</time>
      </trkpt>
      <trkpt lon="-78.891431" lat="34.992709">
        <ele>172.525</ele>
        <time>2025-12-17T17:45:50.796Z</time>
      </trkpt>
      <trkpt lon="-78.887441" lat="34.991247">
        <ele>111.819</ele>
        <time>2025-12-17T17:45:56.248Z</time>
      </trkpt>
      <trkpt lon="-78.883653" lat="34.990020">
        <ele>78.8212</ele>
        <time>2025-12-17T17:46:01.764Z</time>
      </trkpt>
      <trkpt lon="-78.880404" lat="34.989081">
        <ele>59.2188</ele>
        <time>2025-12-17T17:46:07.020Z</time>
      </trkpt>
      <trkpt lon="-78.878299" lat="34.988581">
        <ele>58.4778</ele>
        <time>2025-12-17T17:46:12.400Z</time>
      </trkpt>
      <trkpt lon="-78.877862" lat="34.988502">
        <ele>58.3684</ele>
        <time>2025-12-17T17:46:17.500Z</time>
      </trkpt>
      <trkpt lon="-78.877504" lat="34.988464">
        <ele>58.5659</ele>
        <time>2025-12-17T17:48:02.452Z</time>
      </trkpt>
      <trkpt lon="-78.876192" lat="34.988353">
        <ele>58.5364</ele>
        <time>2025-12-17T17:48:07.648Z</time>
      </trkpt>
      <trkpt lon="-78.873867" lat="34.988095">
        <ele>56.9607</ele>
        <time>2025-12-17T17:48:13.076Z</time>
      </trkpt>
      <trkpt lon="-78.870837" lat="34.987654">
        <ele>62.4533</ele>
        <time>2025-12-17T17:48:18.232Z</time>
      </trkpt>
      <trkpt lon="-78.867185" lat="34.987124">
        <ele>113.539</ele>
        <time>2025-12-17T17:48:23.656Z</time>
      </trkpt>
      <trkpt lon="-78.863204" lat="34.986575">
        <ele>183.522</ele>
        <time>2025-12-17T17:48:29.220Z</time>
      </trkpt>
      <trkpt lon="-78.859352" lat="34.986071">
        <ele>249.59</ele>
        <time>2025-12-17T17:48:34.404Z</time>
      </trkpt>
      <trkpt lon="-78.855134" lat="34.985367">
        <ele>324.673</ele>
        <time>2025-12-17T17:48:39.968Z</time>
      </trkpt>
      <trkpt lon="-78.851256" lat="34.984303">
        <ele>398.937</ele>
        <time>2025-12-17T17:48:45.164Z</time>
      </trkpt>
      <trkpt lon="-78.847510" lat="34.982675">
        <ele>477.307</ele>
        <time>2025-12-17T17:48:50.472Z</time>
      </trkpt>
      <trkpt lon="-78.844164" lat="34.980506">
        <ele>556.7</ele>
        <time>2025-12-17T17:48:55.752Z</time>
      </trkpt>
      <trkpt lon="-78.841416" lat="34.977917">
        <ele>636.853</ele>
        <time>2025-12-17T17:49:00.920Z</time>
      </trkpt>
      <trkpt lon="-78.839172" lat="34.974786">
        <ele>720.458</ele>
        <time>2025-12-17T17:49:06.356Z</time>
      </trkpt>
      <trkpt lon="-78.837649" lat="34.971275">
        <ele>807.785</ele>
        <time>2025-12-17T17:49:11.944Z</time>
      </trkpt>
      <trkpt lon="-78.836774" lat="34.966338">
        <ele>928.048</ele>
        <time>2025-12-17T17:49:19.472Z</time>
      </trkpt>
      <trkpt lon="-78.836935" lat="34.959199">
        <ele>1098.2</ele>
        <time>2025-12-17T17:49:30.224Z</time>
      </trkpt>
      <trkpt lon="-78.838307" lat="34.952300">
        <ele>1220.11</ele>
        <time>2025-12-17T17:49:40.376Z</time>
      </trkpt>
      <trkpt lon="-78.840776" lat="34.944863">
        <ele>1279.61</ele>
        <time>2025-12-17T17:49:50.384Z</time>
      </trkpt>
      <trkpt lon="-78.844823" lat="34.936061">
        <ele>1267.76</ele>
        <time>2025-12-17T17:50:01.016Z</time>
      </trkpt>
      <trkpt lon="-78.850570" lat="34.926830">
        <ele>1260.17</ele>
        <time>2025-12-17T17:50:11.672Z</time>
      </trkpt>
      <trkpt lon="-78.865107" lat="34.908536">
        <ele>1224.29</ele>
        <time>2025-12-17T17:50:32.628Z</time>
      </trkpt>
      <trkpt lon="-78.877834" lat="34.988503">
        <ele>1191.78</ele>
        <time>2025-12-17T17:51:04.216Z</time>
      </trkpt>
      <trkpt lon="-78.886157" lat="34.980049">
        <ele>1167.17</ele>
        <time>2025-12-17T17:51:35.684Z</time>
      </trkpt>
      <trkpt lon="-78.913718" lat="34.952695">
        <ele>1093.1</ele>
        <time>2025-12-17T17:52:07.752Z</time>
      </trkpt>
      <trkpt lon="-78.941127" lat="34.926245">
        <ele>1064.22</ele>
        <time>2025-12-17T17:52:39.284Z</time>
      </trkpt>
      <trkpt lon="-78.967717" lat="34.900792">
        <ele>1066.63</ele>
        <time>2025-12-17T17:53:10.300Z</time>
      </trkpt>
      <trkpt lon="-78.994281" lat="34.875468">
        <ele>1067.13</ele>
        <time>2025-12-17T17:53:41.344Z</time>
      </trkpt>
      <trkpt lon="-79.020806" lat="34.850239">
        <ele>1066.96</ele>
        <time>2025-12-17T17:54:12.320Z</time>
      </trkpt>
      <trkpt lon="-79.048031" lat="34.824385">
        <ele>1069.51</ele>
        <time>2025-12-17T17:54:44.052Z</time>
      </trkpt>
      <trkpt lon="-79.075837" lat="34.797996">
        <ele>1071.74</ele>
        <time>2025-12-17T17:55:16.420Z</time>
      </trkpt>
      <trkpt lon="-79.103145" lat="34.772107">
        <ele>1068.33</ele>
        <time>2025-12-17T17:55:48.112Z</time>
      </trkpt>
      <trkpt lon="-79.129477" lat="34.747157">
        <ele>1063.22</ele>
        <time>2025-12-17T17:56:18.752Z</time>
      </trkpt>
      <trkpt lon="-79.156336" lat="34.721689">
        <ele>1066.67</ele>
        <time>2025-12-17T17:56:50.048Z</time>
      </trkpt>
      <trkpt lon="-79.183096" lat="34.696343">
        <ele>1064.27</ele>
        <time>2025-12-17T17:57:21.152Z</time>
      </trkpt>
      <trkpt lon="-79.209516" lat="34.671351">
        <ele>1065.39</ele>
        <time>2025-12-17T17:57:51.876Z</time>
      </trkpt>
      <trkpt lon="-79.236368" lat="34.645933">
        <ele>1067.05</ele>
        <time>2025-12-17T17:58:23.176Z</time>
      </trkpt>
      <trkpt lon="-79.263011" lat="34.620701">
        <ele>1066.45</ele>
        <time>2025-12-17T17:58:54.148Z</time>
      </trkpt>
      <trkpt lon="-79.290743" lat="34.594487">
        <ele>1063.85</ele>
        <time>2025-12-17T17:59:26.404Z</time>
      </trkpt>
      <trkpt lon="-79.318661" lat="34.568121">
        <ele>1066.21</ele>
        <time>2025-12-17T17:59:58.852Z</time>
      </trkpt>
      <trkpt lon="-79.345941" lat="34.542324">
        <ele>1067.56</ele>
        <time>2025-12-17T18:00:30.592Z</time>
      </trkpt>
      <trkpt lon="-79.373029" lat="34.516733">
        <ele>1065.63</ele>
        <time>2025-12-17T18:01:02.072Z</time>
      </trkpt>
      <trkpt lon="-79.399230" lat="34.491960">
        <ele>1068.71</ele>
        <time>2025-12-17T18:01:32.576Z</time>
      </trkpt>
      <trkpt lon="-79.426926" lat="34.465836">
        <ele>1063.94</ele>
        <time>2025-12-17T18:02:04.788Z</time>
      </trkpt>
      <trkpt lon="-79.454248" lat="34.440068">
        <ele>1064.2</ele>
        <time>2025-12-17T18:02:36.580Z</time>
      </trkpt>
      <trkpt lon="-79.480788" lat="34.415008">
        <ele>1061.47</ele>
        <time>2025-12-17T18:03:07.460Z</time>
      </trkpt>
      <trkpt lon="-79.508147" lat="34.389226">
        <ele>1073.58</ele>
        <time>2025-12-17T18:03:39.316Z</time>
      </trkpt>
      <trkpt lon="-79.535469" lat="34.363475">
        <ele>1067.14</ele>
        <time>2025-12-17T18:04:11.016Z</time>
      </trkpt>
      <trkpt lon="-79.561447" lat="34.339014">
        <ele>1065.47</ele>
        <time>2025-12-17T18:04:41.164Z</time>
      </trkpt>
      <trkpt lon="-79.588641" lat="34.313410">
        <ele>1067.51</ele>
        <time>2025-12-17T18:05:12.788Z</time>
      </trkpt>
      <trkpt lon="-79.616667" lat="34.287033">
        <ele>1063.91</ele>
        <time>2025-12-17T18:05:45.416Z</time>
      </trkpt>
      <trkpt lon="-79.643244" lat="34.262035">
        <ele>1066.37</ele>
        <time>2025-12-17T18:06:16.372Z</time>
      </trkpt>
      <trkpt lon="-79.669137" lat="34.238197">
        <ele>1071.61</ele>
        <time>2025-12-17T18:06:46.520Z</time>
      </trkpt>
      <trkpt lon="-79.672991" lat="34.234758">
        <ele>1043.89</ele>
        <time>2025-12-17T18:06:51.852Z</time>
      </trkpt>
      <trkpt lon="-79.676358" lat="34.231682">
        <ele>976.388</ele>
        <time>2025-12-17T18:06:57.008Z</time>
      </trkpt>
      <trkpt lon="-79.679640" lat="34.228638">
        <ele>879.02</ele>
        <time>2025-12-17T18:07:02.248Z</time>
      </trkpt>
      <trkpt lon="-79.682852" lat="34.225543">
        <ele>804.492</ele>
        <time>2025-12-17T18:07:07.548Z</time>
      </trkpt>
      <trkpt lon="-79.685740" lat="34.222656">
        <ele>754.566</ele>
        <time>2025-12-17T18:07:12.592Z</time>
      </trkpt>
      <trkpt lon="-79.688710" lat="34.219770">
        <ele>702.938</ele>
        <time>2025-12-17T18:07:17.872Z</time>
      </trkpt>
      <trkpt lon="-79.693434" lat="34.215466">
        <ele>603.051</ele>
        <time>2025-12-17T18:07:26.320Z</time>
      </trkpt>
      <trkpt lon="-79.697122" lat="34.212190">
        <ele>517.34</ele>
        <time>2025-12-17T18:07:32.592Z</time>
      </trkpt>
      <trkpt lon="-79.700239" lat="34.209345">
        <ele>455.913</ele>
        <time>2025-12-17T18:07:38.096Z</time>
      </trkpt>
      <trkpt lon="-79.703068" lat="34.206731">
        <ele>403.49</ele>
        <time>2025-12-17T18:07:43.176Z</time>
      </trkpt>
      <trkpt lon="-79.705946" lat="34.204135">
        <ele>338.914</ele>
        <time>2025-12-17T18:07:48.372Z</time>
      </trkpt>
      <trkpt lon="-79.709130" lat="34.201449">
        <ele>264.83</ele>
        <time>2025-12-17T18:07:53.980Z</time>
      </trkpt>
      <trkpt lon="-79.712190" lat="34.198958">
        <ele>195.153</ele>
        <time>2025-12-17T18:07:59.596Z</time>
      </trkpt>
      <trkpt lon="-79.714904" lat="34.196753">
        <ele>128.111</ele>
        <time>2025-12-17T18:08:04.832Z</time>
      </trkpt>
      <trkpt lon="-79.717381" lat="34.194722">
        <ele>77.3929</ele>
        <time>2025-12-17T18:08:09.964Z</time>
      </trkpt>
      <trkpt lon="-79.719446" lat="34.193015">
        <ele>46.0887</ele>
        <time>2025-12-17T18:08:15.196Z</time>
      </trkpt>
      <trkpt lon="-79.720318" lat="34.192336">
        <ele>46.3494</ele>
        <time>2025-12-17T18:08:20.468Z</time>
      </trkpt>
      <trkpt lon="-79.720346" lat="34.192313">
        <ele>46.353</ele>
        <time>2025-12-17T18:08:25.756Z</time>
      </trkpt>
      <trkpt lon="-79.720362" lat="34.192300">
        <ele>46.3386</ele>
        <time>2025-12-17T18:09:49.168Z</time>
      </trkpt>
      <trkpt lon="-79.720864" lat="34.191855">
        <ele>46.3547</ele>
        <time>2025-12-17T18:09:54.576Z</time>
      </trkpt>
      <trkpt lon="-79.722051" lat="34.190846">
        <ele>46.2764</ele>
        <time>2025-12-17T18:09:59.616Z</time>
      </trkpt>
      <trkpt lon="-79.723169" lat="34.189054">
        <ele>45.7061</ele>
        <time>2025-12-17T18:10:04.856Z</time>
      </trkpt>
      <trkpt lon="-79.723473" lat="34.186639">
        <ele>44.2373</ele>
        <time>2025-12-17T18:10:10.184Z</time>
      </trkpt>
      <trkpt lon="-79.722852" lat="34.184092">
        <ele>49.4995</ele>
        <time>2025-12-17T18:10:15.200Z</time>
      </trkpt>
      <trkpt lon="-79.722062" lat="34.181861">
        <ele>74.8811</ele>
        <time>2025-12-17T18:10:20.552Z</time>
      </trkpt>
      <trkpt lon="-79.721433" lat="34.181406">
        <ele>64.1837</ele>
        <time>2025-12-17T18:10:26.180Z</time>
      </trkpt>
      <trkpt lon="-79.721334" lat="34.181444">
        <ele>47.1189</ele>
        <time>2025-12-17T18:10:31.680Z</time>
      </trkpt>
      <trkpt lon="-79.721336" lat="34.181444">
        <ele>50.7624</ele>
        <time>2025-12-17T18:11:12.828Z</time>
      </trkpt>
      <trkpt lon="-79.721882" lat="34.181291">
        <ele>42.8817</ele>
        <time>2025-12-17T18:11:34.120Z</time>
      </trkpt>
      <trkpt lon="-79.724064" lat="34.180620">
        <ele>42.3435</ele>
        <time>2025-12-17T18:11:44.892Z</time>
      </trkpt>
      <trkpt lon="-79.724617" lat="34.180783">
        <ele>42.5118</ele>
        <time>2025-12-17T18:11:50.160Z</time>
      </trkpt>
      <trkpt lon="-79.724699" lat="34.180803">
        <ele>42.4878</ele>
        <time>2025-12-17T18:11:55.276Z</time>
      </trkpt>
      <trkpt lon="-79.724689" lat="34.180856">
        <ele>42.4237</ele>
        <time>2025-12-17T18:12:00.664Z</time>
      </trkpt>
      <trkpt lon="-79.724608" lat="34.181360">
        <ele>42.5585</ele>
        <time>2025-12-17T18:12:11.620Z</time>
      </trkpt>
      <trkpt lon="-79.724588" lat="34.181904">
        <ele>42.819</ele>
        <time>2025-12-17T18:12:17.180Z</time>
      </trkpt>
      <trkpt lon="-79.724681" lat="34.183338">
        <ele>44.0179</ele>
        <time>2025-12-17T18:12:22.376Z</time>
      </trkpt>
      <trkpt lon="-79.724710" lat="34.185652">
        <ele>44.5861</ele>
        <time>2025-12-17T18:12:27.556Z</time>
      </trkpt>
      <trkpt lon="-79.724581" lat="34.188649">
        <ele>45.8478</ele>
        <time>2025-12-17T18:12:32.696Z</time>
      </trkpt>
      <trkpt lon="-79.724619" lat="34.192353">
        <ele>50.7475</ele>
        <time>2025-12-17T18:12:38.048Z</time>
      </trkpt>
      <trkpt lon="-79.724528" lat="34.196183">
        <ele>100.042</ele>
        <time>2025-12-17T18:12:43.228Z</time>
      </trkpt>
      <trkpt lon="-79.723952" lat="34.200087">
        <ele>230.525</ele>
        <time>2025-12-17T18:12:48.820Z</time>
      </trkpt>
      <trkpt lon="-79.722754" lat="34.203138">
        <ele>378.863</ele>
        <time>2025-12-17T18:12:54.116Z</time>
      </trkpt>
      <trkpt lon="-79.720998" lat="34.205882">
        <ele>500.645</ele>
        <time>2025-12-17T18:12:59.572Z</time>
      </trkpt>
      <trkpt lon="-79.718806" lat="34.208398">
        <ele>565.817</ele>
        <time>2025-12-17T18:13:04.780Z</time>
      </trkpt>
      <trkpt lon="-79.715935" lat="34.211025">
        <ele>562.768</ele>
        <time>2025-12-17T18:13:09.984Z</time>
      </trkpt>
      <trkpt lon="-79.711962" lat="34.213935">
        <ele>477.237</ele>
        <time>2025-12-17T18:13:15.444Z</time>
      </trkpt>
      <trkpt lon="-79.706940" lat="34.216684">
        <ele>313.125</ele>
        <time>2025-12-17T18:13:20.820Z</time>
      </trkpt>
      <trkpt lon="-79.700873" lat="34.218866">
        <ele>80.1177</ele>
        <time>2025-12-17T18:13:26.124Z</time>
      </trkpt>
      <trkpt lon="-79.700671" lat="34.218165">
        <ele>226.978</ele>
        <time>2025-12-17T18:13:31.336Z</time>
      </trkpt>
      <trkpt lon="-79.702321" lat="34.215903">
        <ele>288.342</ele>
        <time>2025-12-17T18:13:36.592Z</time>
      </trkpt>
      <trkpt lon="-79.704276" lat="34.213414">
        <ele>279.289</ele>
        <time>2025-12-17T18:13:41.508Z</time>
      </trkpt>
      <trkpt lon="-79.707064" lat="34.210365">
        <ele>200.366</ele>
        <time>2025-12-17T18:13:46.656Z</time>
      </trkpt>
      <trkpt lon="-79.710935" lat="34.206947">
        <ele>54.6732</ele>
        <time>2025-12-17T18:13:52.016Z</time>
      </trkpt>
      <trkpt lon="-79.711040" lat="34.206679">
        <ele>46.7635</ele>
        <time>2025-12-17T18:13:57.280Z</time>
      </trkpt>
      <trkpt lon="-79.711058" lat="34.206636">
        <ele>41.9107</ele>
        <time>2025-12-17T18:14:02.492Z</time>
      </trkpt>
      <trkpt lon="-79.720357" lat="34.192299">
        <ele>46.4274</ele>
        <time>2025-12-17T18:14:13.256Z</time>
      </trkpt>
      <trkpt lon="-79.712779" lat="34.188095">
        <ele>40.3677</ele>
        <time>2025-12-17T15:37:53.412Z</time>
      </trkpt>
      <trkpt lon="-79.712905" lat="34.187341">
        <ele>40.6485</ele>
        <time>2025-12-17T15:38:06.932Z</time>
      </trkpt>
      <trkpt lon="-79.712935" lat="34.187338">
        <ele>40.6705</ele>
        <time>2025-12-17T15:38:30.272Z</time>
      </trkpt>
      <trkpt lon="-79.713016" lat="34.187330">
        <ele>40.7044</ele>
        <time>2025-12-17T15:38:31.188Z</time>
      </trkpt>
      <trkpt lon="-79.713475" lat="34.187287">
        <ele>40.8965</ele>
        <time>2025-12-17T15:38:33.464Z</time>
      </trkpt>
      <trkpt lon="-79.714345" lat="34.187244">
        <ele>41.1251</ele>
        <time>2025-12-17T15:38:36.096Z</time>
      </trkpt>
      <trkpt lon="-79.715498" lat="34.187079">
        <ele>41.2152</ele>
        <time>2025-12-17T15:38:38.732Z</time>
      </trkpt>
      <trkpt lon="-79.717002" lat="34.186874">
        <ele>41.5823</ele>
        <time>2025-12-17T15:38:41.472Z</time>
      </trkpt>
      <trkpt lon="-79.718709" lat="34.186721">
        <ele>42.04</ele>
        <time>2025-12-17T15:38:44.088Z</time>
      </trkpt>
      <trkpt lon="-79.720728" lat="34.186566">
        <ele>42.9634</ele>
        <time>2025-12-17T15:38:46.892Z</time>
      </trkpt>
      <trkpt lon="-79.723142" lat="34.186351">
        <ele>44.2607</ele>
        <time>2025-12-17T15:38:49.760Z</time>
      </trkpt>
      <trkpt lon="-79.727873" lat="34.185930">
        <ele>53.8135</ele>
        <time>2025-12-17T15:38:54.964Z</time>
      </trkpt>
      <trkpt lon="-79.732994" lat="34.185464">
        <ele>127.849</ele>
        <time>2025-12-17T15:39:00.328Z</time>
      </trkpt>
      <trkpt lon="-79.735463" lat="34.185268">
        <ele>208.957</ele>
        <time>2025-12-17T15:39:03.164Z</time>
      </trkpt>
      <trkpt lon="-79.737823" lat="34.185097">
        <ele>259.666</ele>
        <time>2025-12-17T15:39:05.860Z</time>
      </trkpt>
      <trkpt lon="-79.742735" lat="34.184958">
        <ele>283.308</ele>
        <time>2025-12-17T15:39:11.120Z</time>
      </trkpt>
      <trkpt lon="-79.745406" lat="34.185216">
        <ele>278.792</ele>
        <time>2025-12-17T15:39:13.784Z</time>
      </trkpt>
      <trkpt lon="-79.748156" lat="34.185802">
        <ele>275.042</ele>
        <time>2025-12-17T15:39:16.476Z</time>
      </trkpt>
      <trkpt lon="-79.750809" lat="34.186698">
        <ele>271.438</ele>
        <time>2025-12-17T15:39:19.100Z</time>
      </trkpt>
      <trkpt lon="-79.753461" lat="34.187981">
        <ele>267.641</ele>
        <time>2025-12-17T15:39:21.832Z</time>
      </trkpt>
      <trkpt lon="-79.756000" lat="34.189645">
        <ele>263.442</ele>
        <time>2025-12-17T15:39:24.644Z</time>
      </trkpt>
      <trkpt lon="-79.758188" lat="34.191521">
        <ele>259.407</ele>
        <time>2025-12-17T15:39:27.324Z</time>
      </trkpt>
      <trkpt lon="-79.760090" lat="34.193616">
        <ele>255.545</ele>
        <time>2025-12-17T15:39:29.988Z</time>
      </trkpt>
      <trkpt lon="-79.761796" lat="34.196072">
        <ele>250.908</ele>
        <time>2025-12-17T15:39:32.820Z</time>
      </trkpt>
      <trkpt lon="-79.763047" lat="34.198512">
        <ele>246.522</ele>
        <time>2025-12-17T15:39:35.448Z</time>
      </trkpt>
      <trkpt lon="-79.763932" lat="34.200976">
        <ele>242.286</ele>
        <time>2025-12-17T15:39:37.956Z</time>
      </trkpt>
      <trkpt lon="-79.764514" lat="34.203667">
        <ele>237.567</ele>
        <time>2025-12-17T15:39:40.608Z</time>
      </trkpt>
      <trkpt lon="-79.764722" lat="34.206551">
        <ele>232.977</ele>
        <time>2025-12-17T15:39:43.400Z</time>
      </trkpt>
      <trkpt lon="-79.764542" lat="34.209261">
        <ele>228.252</ele>
        <time>2025-12-17T15:39:46.020Z</time>
      </trkpt>
      <trkpt lon="-79.763933" lat="34.212085">
        <ele>228.704</ele>
        <time>2025-12-17T15:39:48.752Z</time>
      </trkpt>
      <trkpt lon="-79.762935" lat="34.214791">
        <ele>231.392</ele>
        <time>2025-12-17T15:39:51.464Z</time>
      </trkpt>
      <trkpt lon="-79.761581" lat="34.217367">
        <ele>233.584</ele>
        <time>2025-12-17T15:39:54.152Z</time>
      </trkpt>
      <trkpt lon="-79.758047" lat="34.222139">
        <ele>233.16</ele>
        <time>2025-12-17T15:39:59.516Z</time>
      </trkpt>
      <trkpt lon="-79.736456" lat="34.243542">
        <ele>230.968</ele>
        <time>2025-12-17T15:40:26.120Z</time>
      </trkpt>
      <trkpt lon="-79.710161" lat="34.268476">
        <ele>232.617</ele>
        <time>2025-12-17T15:40:57.604Z</time>
      </trkpt>
      <trkpt lon="-79.703325" lat="34.274952">
        <ele>271.189</ele>
        <time>2025-12-17T15:41:05.880Z</time>
      </trkpt>
      <trkpt lon="-79.698967" lat="34.279084">
        <ele>306.404</ele>
        <time>2025-12-17T15:41:11.248Z</time>
      </trkpt>
      <trkpt lon="-79.694704" lat="34.283140">
        <ele>341.089</ele>
        <time>2025-12-17T15:41:16.588Z</time>
      </trkpt>
      <trkpt lon="-79.690578" lat="34.287084">
        <ele>381.865</ele>
        <time>2025-12-17T15:41:21.804Z</time>
      </trkpt>
      <trkpt lon="-79.686518" lat="34.290956">
        <ele>442.337</ele>
        <time>2025-12-17T15:41:27.052Z</time>
      </trkpt>
      <trkpt lon="-79.684460" lat="34.292916">
        <ele>479.341</ele>
        <time>2025-12-17T15:41:29.748Z</time>
      </trkpt>
      <trkpt lon="-79.680587" lat="34.296609">
        <ele>549.236</ele>
        <time>2025-12-17T15:41:34.916Z</time>
      </trkpt>
      <trkpt lon="-79.674520" lat="34.302385">
        <ele>548.939</ele>
        <time>2025-12-17T15:41:42.832Z</time>
      </trkpt>
      <trkpt lon="-79.665177" lat="34.311187">
        <ele>522.619</ele>
        <time>2025-12-17T15:41:54.256Z</time>
      </trkpt>
      <trkpt lon="-79.712925" lat="34.187336">
        <ele>547.469</ele>
        <time>2025-12-17T15:42:02.052Z</time>
      </trkpt>
      <trkpt lon="-79.710726" lat="34.189374">
        <ele>541.932</ele>
        <time>2025-12-17T15:42:10.764Z</time>
      </trkpt>
      <trkpt lon="-79.677792" lat="34.220061">
        <ele>515.355</ele>
        <time>2025-12-17T15:42:49.216Z</time>
      </trkpt>
      <trkpt lon="-79.649264" lat="34.246910">
        <ele>516.478</ele>
        <time>2025-12-17T15:43:22.708Z</time>
      </trkpt>
      <trkpt lon="-79.622620" lat="34.272056">
        <ele>515.582</ele>
        <time>2025-12-17T15:43:54.104Z</time>
      </trkpt>
      <trkpt lon="-79.595473" lat="34.297738">
        <ele>517.311</ele>
        <time>2025-12-17T15:44:26.216Z</time>
      </trkpt>
      <trkpt lon="-79.568951" lat="34.322857">
        <ele>515.422</ele>
        <time>2025-12-17T15:44:57.584Z</time>
      </trkpt>
      <trkpt lon="-79.542649" lat="34.347791">
        <ele>516.229</ele>
        <time>2025-12-17T15:45:28.704Z</time>
      </trkpt>
      <trkpt lon="-79.515121" lat="34.373909">
        <ele>519.028</ele>
        <time>2025-12-17T15:46:01.268Z</time>
      </trkpt>
      <trkpt lon="-79.488757" lat="34.398896">
        <ele>518.295</ele>
        <time>2025-12-17T15:46:32.428Z</time>
      </trkpt>
      <trkpt lon="-79.462274" lat="34.423982">
        <ele>514.009</ele>
        <time>2025-12-17T15:47:03.668Z</time>
      </trkpt>
      <trkpt lon="-79.434631" lat="34.450206">
        <ele>520.127</ele>
        <time>2025-12-17T15:47:36.344Z</time>
      </trkpt>
      <trkpt lon="-79.407506" lat="34.475938">
        <ele>516.222</ele>
        <time>2025-12-17T15:48:08.312Z</time>
      </trkpt>
      <trkpt lon="-79.381312" lat="34.500757">
        <ele>520.124</ele>
        <time>2025-12-17T15:48:39.196Z</time>
      </trkpt>
      <trkpt lon="-79.354702" lat="34.526040">
        <ele>516.921</ele>
        <time>2025-12-17T15:49:10.640Z</time>
      </trkpt>
      <trkpt lon="-79.328469" lat="34.550970">
        <ele>518.855</ele>
        <time>2025-12-17T15:49:41.664Z</time>
      </trkpt>
      <trkpt lon="-79.302355" lat="34.575812">
        <ele>515.752</ele>
        <time>2025-12-17T15:50:12.496Z</time>
      </trkpt>
      <trkpt lon="-79.274735" lat="34.602077">
        <ele>516.891</ele>
        <time>2025-12-17T15:50:45.160Z</time>
      </trkpt>
      <trkpt lon="-79.247980" lat="34.627513">
        <ele>517.86</ele>
        <time>2025-12-17T15:51:16.728Z</time>
      </trkpt>
      <trkpt lon="-79.221618" lat="34.652581">
        <ele>517.288</ele>
        <time>2025-12-17T15:51:47.860Z</time>
      </trkpt>
      <trkpt lon="-79.193613" lat="34.679216">
        <ele>519.278</ele>
        <time>2025-12-17T15:52:20.904Z</time>
      </trkpt>
      <trkpt lon="-79.167587" lat="34.703993">
        <ele>517.265</ele>
        <time>2025-12-17T15:52:51.604Z</time>
      </trkpt>
      <trkpt lon="-79.140655" lat="34.729642">
        <ele>518.247</ele>
        <time>2025-12-17T15:53:23.448Z</time>
      </trkpt>
      <trkpt lon="-79.113477" lat="34.755521">
        <ele>519.831</ele>
        <time>2025-12-17T15:53:55.588Z</time>
      </trkpt>
      <trkpt lon="-79.087174" lat="34.780573">
        <ele>516.397</ele>
        <time>2025-12-17T15:54:26.616Z</time>
      </trkpt>
      <trkpt lon="-79.060385" lat="34.806080">
        <ele>516.349</ele>
        <time>2025-12-17T15:54:58.284Z</time>
      </trkpt>
      <trkpt lon="-79.034243" lat="34.831022">
        <ele>518.814</ele>
        <time>2025-12-17T15:55:29.212Z</time>
      </trkpt>
      <trkpt lon="-79.007780" lat="34.856300">
        <ele>518.419</ele>
        <time>2025-12-17T15:56:00.524Z</time>
      </trkpt>
      <trkpt lon="-78.981399" lat="34.881428">
        <ele>517.658</ele>
        <time>2025-12-17T15:56:31.632Z</time>
      </trkpt>
      <trkpt lon="-78.954575" lat="34.907010">
        <ele>517.24</ele>
        <time>2025-12-17T15:57:03.292Z</time>
      </trkpt>
      <trkpt lon="-78.940925" lat="34.919532">
        <ele>468.393</ele>
        <time>2025-12-17T15:57:18.912Z</time>
      </trkpt>
      <trkpt lon="-78.931301" lat="34.927757">
        <ele>424.78</ele>
        <time>2025-12-17T15:57:29.328Z</time>
      </trkpt>
      <trkpt lon="-78.922610" lat="34.936114">
        <ele>412.776</ele>
        <time>2025-12-17T15:57:39.416Z</time>
      </trkpt>
      <trkpt lon="-78.914936" lat="34.945344">
        <ele>403.322</ele>
        <time>2025-12-17T15:57:49.784Z</time>
      </trkpt>
      <trkpt lon="-78.907844" lat="34.955232">
        <ele>370.417</ele>
        <time>2025-12-17T15:58:00.448Z</time>
      </trkpt>
      <trkpt lon="-78.900606" lat="34.965392">
        <ele>329.742</ele>
        <time>2025-12-17T15:58:11.264Z</time>
      </trkpt>
      <trkpt lon="-78.897193" lat="34.970090">
        <ele>302.407</ele>
        <time>2025-12-17T15:58:16.716Z</time>
      </trkpt>
      <trkpt lon="-78.894404" lat="34.973931">
        <ele>246.723</ele>
        <time>2025-12-17T15:58:21.832Z</time>
      </trkpt>
      <trkpt lon="-78.891962" lat="34.977367">
        <ele>188.539</ele>
        <time>2025-12-17T15:58:26.916Z</time>
      </trkpt>
      <trkpt lon="-78.889729" lat="34.980624">
        <ele>150.124</ele>
        <time>2025-12-17T15:58:32.220Z</time>
      </trkpt>
      <trkpt lon="-78.887688" lat="34.983592">
        <ele>93.4868</ele>
        <time>2025-12-17T15:58:37.460Z</time>
      </trkpt>
      <trkpt lon="-78.885762" lat="34.986315">
        <ele>60.2882</ele>
        <time>2025-12-17T15:58:42.704Z</time>
      </trkpt>
      <trkpt lon="-78.884681" lat="34.988147">
        <ele>59.5809</ele>
        <time>2025-12-17T15:58:48.108Z</time>
      </trkpt>
      <trkpt lon="-78.884260" lat="34.988912">
        <ele>59.5395</ele>
        <time>2025-12-17T15:58:53.440Z</time>
      </trkpt>
      <trkpt lon="-78.884251" lat="34.988924">
        <ele>59.5386</ele>
        <time>2025-12-17T15:59:04.028Z</time>
      </trkpt>
    </trkseg>
    <trkseg>
      <trkpt lon="-90.086678" lat="33.493308">
        <ele>45.8624</ele>
        <time>2025-12-17T16:30:23.680Z</time>
      </trkpt>
      <trkpt lon="-90.086387" lat="33.493699">
        <ele>46.128</ele>
        <time>2025-12-17T16:31:23.588Z</time>
      </trkpt>
      <trkpt lon="-90.085519" lat="33.494861">
        <ele>46.1021</ele>
        <time>2025-12-17T16:31:28.640Z</time>
      </trkpt>
      <trkpt lon="-90.084257" lat="33.496841">
        <ele>45.7396</ele>
        <time>2025-12-17T16:31:33.824Z</time>
      </trkpt>
      <trkpt lon="-90.082605" lat="33.499895">
        <ele>60.0256</ele>
        <time>2025-12-17T16:31:39.552Z</time>
      </trkpt>
      <trkpt lon="-90.080936" lat="33.502887">
        <ele>130.91</ele>
        <time>2025-12-17T16:31:44.776Z</time>
      </trkpt>
      <trkpt lon="-90.079213" lat="33.505961">
        <ele>246.027</ele>
        <time>2025-12-17T16:31:50.328Z</time>
      </trkpt>
      <trkpt lon="-90.077399" lat="33.509189">
        <ele>349.763</ele>
        <time>2025-12-17T16:31:56.172Z</time>
      </trkpt>
      <trkpt lon="-90.075511" lat="33.512144">
        <ele>448.504</ele>
        <time>2025-12-17T16:32:01.640Z</time>
      </trkpt>
      <trkpt lon="-90.073410" lat="33.515002">
        <ele>548.44</ele>
        <time>2025-12-17T16:32:07.080Z</time>
      </trkpt>
      <trkpt lon="-90.071353" lat="33.517536">
        <ele>638.54</ele>
        <time>2025-12-17T16:32:12.044Z</time>
      </trkpt>
      <trkpt lon="-90.068910" lat="33.520389">
        <ele>741.819</ele>
        <time>2025-12-17T16:32:17.636Z</time>
      </trkpt>
      <trkpt lon="-90.066633" lat="33.523000">
        <ele>839.087</ele>
        <time>2025-12-17T16:32:22.812Z</time>
      </trkpt>
      <trkpt lon="-90.064286" lat="33.525705">
        <ele>939.304</ele>
        <time>2025-12-17T16:32:28.132Z</time>
      </trkpt>
      <trkpt lon="-90.062069" lat="33.528286">
        <ele>1030.65</ele>
        <time>2025-12-17T16:32:33.184Z</time>
      </trkpt>
      <trkpt lon="-90.059769" lat="33.530982">
        <ele>1118.03</ele>
        <time>2025-12-17T16:32:38.372Z</time>
      </trkpt>
      <trkpt lon="-90.057389" lat="33.533785">
        <ele>1168.31</ele>
        <time>2025-12-17T16:32:43.396Z</time>
      </trkpt>
      <trkpt lon="-90.054537" lat="33.537141">
        <ele>1175.36</ele>
        <time>2025-12-17T16:32:48.796Z</time>
      </trkpt>
      <trkpt lon="-90.051433" lat="33.540777">
        <ele>1160.99</ele>
        <time>2025-12-17T16:32:54.012Z</time>
      </trkpt>
      <trkpt lon="-90.048037" lat="33.544726">
        <ele>1148.86</ele>
        <time>2025-12-17T16:32:59.268Z</time>
      </trkpt>
      <trkpt lon="-90.040419" lat="33.553498">
        <ele>1129.18</ele>
        <time>2025-12-17T16:33:10.128Z</time>
      </trkpt>
      <trkpt lon="-90.021210" lat="33.575411">
        <ele>1128.05</ele>
        <time>2025-12-17T16:33:35.748Z</time>
      </trkpt>
      <trkpt lon="-90.086753" lat="33.493206">
        <ele>1091.82</ele>
        <time>2025-12-17T16:33:41.120Z</time>
      </trkpt>
      <trkpt lon="-90.085236" lat="33.494920">
        <ele>1088.36</ele>
        <time>2025-12-17T16:34:01.792Z</time>
      </trkpt>
      <trkpt lon="-90.058942" lat="33.524706">
        <ele>1130.57</ele>
        <time>2025-12-17T16:34:36.212Z</time>
      </trkpt>
      <trkpt lon="-90.034470" lat="33.552750">
        <ele>1127.58</ele>
        <time>2025-12-17T16:35:08.108Z</time>
      </trkpt>
      <trkpt lon="-90.010987" lat="33.579700">
        <ele>1127.8</ele>
        <time>2025-12-17T16:35:38.684Z</time>
      </trkpt>
      <trkpt lon="-89.986700" lat="33.607613">
        <ele>1127.74</ele>
        <time>2025-12-17T16:36:10.328Z</time>
      </trkpt>
      <trkpt lon="-89.961790" lat="33.636244">
        <ele>1128.36</ele>
        <time>2025-12-17T16:36:42.764Z</time>
      </trkpt>
      <trkpt lon="-89.938023" lat="33.663595">
        <ele>1126.46</ele>
        <time>2025-12-17T16:37:13.724Z</time>
      </trkpt>
      <trkpt lon="-89.914196" lat="33.691016">
        <ele>1126.26</ele>
        <time>2025-12-17T16:37:44.760Z</time>
      </trkpt>
      <trkpt lon="-89.889581" lat="33.719351">
        <ele>1124.79</ele>
        <time>2025-12-17T16:38:16.828Z</time>
      </trkpt>
      <trkpt lon="-89.865204" lat="33.747402">
        <ele>1126.29</ele>
        <time>2025-12-17T16:38:48.592Z</time>
      </trkpt>
      <trkpt lon="-89.841274" lat="33.774100">
        <ele>1136.12</ele>
        <time>2025-12-17T16:39:19.256Z</time>
      </trkpt>
      <trkpt lon="-89.834844" lat="33.780855">
        <ele>1109.78</ele>
        <time>2025-12-17T16:39:29.256Z</time>
      </trkpt>
      <trkpt lon="-89.829718" lat="33.786396">
        <ele>984.174</ele>
        <time>2025-12-17T16:39:39.640Z</time>
      </trkpt>
      <trkpt lon="-89.824941" lat="33.791977">
        <ele>713.671</ele>
        <time>2025-12-17T16:39:50.208Z</time>
      </trkpt>
      <trkpt lon="-89.819728" lat="33.798744">
        <ele>426.67</ele>
        <time>2025-12-17T16:40:01.780Z</time>
      </trkpt>
      <trkpt lon="-89.815257" lat="33.804875">
        <ele>272.702</ele>
        <time>2025-12-17T16:40:12.716Z</time>
      </trkpt>
      <trkpt lon="-89.811210" lat="33.810378">
        <ele>146.197</ele>
        <time>2025-12-17T16:40:23.468Z</time>
      </trkpt>
      <trkpt lon="-89.808103" lat="33.814786">
        <ele>98.6323</ele>
        <time>2025-12-17T16:40:34.628Z</time>
      </trkpt>
      <trkpt lon="-89.808430" lat="33.815521">
        <ele>62.1926</ele>
        <time>2025-12-17T16:40:48.316Z</time>
      </trkpt>
      <trkpt lon="-89.790801" lat="33.829254">
        <ele>61.4142</ele>
        <time>2025-12-17T15:45:55.296Z</time>
      </trkpt>
      <trkpt lon="-89.791587" lat="33.828792">
        <ele>61.3485</ele>
        <time>2025-12-17T15:46:08.920Z</time>
      </trkpt>
      <trkpt lon="-89.791642" lat="33.828833">
        <ele>61.346</ele>
        <time>2025-12-17T15:46:39.584Z</time>
      </trkpt>
      <trkpt lon="-89.791756" lat="33.828915">
        <ele>61.3472</ele>
        <time>2025-12-17T15:46:40.864Z</time>
      </trkpt>
      <trkpt lon="-89.791901" lat="33.829020">
        <ele>61.3563</ele>
        <time>2025-12-17T15:46:41.828Z</time>
      </trkpt>
      <trkpt lon="-89.792324" lat="33.829336">
        <ele>61.5192</ele>
        <time>2025-12-17T15:46:43.808Z</time>
      </trkpt>
      <trkpt lon="-89.793165" lat="33.829955">
        <ele>62.1719</ele>
        <time>2025-12-17T15:46:46.632Z</time>
      </trkpt>
      <trkpt lon="-89.794259" lat="33.830725">
        <ele>62.3104</ele>
        <time>2025-12-17T15:46:49.424Z</time>
      </trkpt>
      <trkpt lon="-89.795375" lat="33.831701">
        <ele>62.7902</ele>
        <time>2025-12-17T15:46:52.044Z</time>
      </trkpt>
      <trkpt lon="-89.797120" lat="33.833290">
        <ele>63.0674</ele>
        <time>2025-12-17T15:46:55.624Z</time>
      </trkpt>
      <trkpt lon="-89.800207" lat="33.836034">
        <ele>74.0082</ele>
        <time>2025-12-17T15:47:00.968Z</time>
      </trkpt>
      <trkpt lon="-89.803686" lat="33.838851">
        <ele>164.262</ele>
        <time>2025-12-17T15:47:06.472Z</time>
      </trkpt>
      <trkpt lon="-89.806826" lat="33.841170">
        <ele>294.228</ele>
        <time>2025-12-17T15:47:11.616Z</time>
      </trkpt>
      <trkpt lon="-89.810112" lat="33.843422">
        <ele>410.732</ele>
        <time>2025-12-17T15:47:16.980Z</time>
      </trkpt>
      <trkpt lon="-89.813334" lat="33.845367">
        <ele>516.518</ele>
        <time>2025-12-17T15:47:22.104Z</time>
      </trkpt>
      <trkpt lon="-89.816646" lat="33.846918">
        <ele>616.528</ele>
        <time>2025-12-17T15:47:27.044Z</time>
      </trkpt>
      <trkpt lon="-89.820406" lat="33.848098">
        <ele>721.549</ele>
        <time>2025-12-17T15:47:32.268Z</time>
      </trkpt>
      <trkpt lon="-89.824526" lat="33.848736">
        <ele>828.9</ele>
        <time>2025-12-17T15:47:37.696Z</time>
      </trkpt>
      <trkpt lon="-89.828516" lat="33.848731">
        <ele>933.819</ele>
        <time>2025-12-17T15:47:42.864Z</time>
      </trkpt>
      <trkpt lon="-89.832420" lat="33.848195">
        <ele>1027.85</ele>
        <time>2025-12-17T15:47:47.916Z</time>
      </trkpt>
      <trkpt lon="-89.836433" lat="33.847215">
        <ele>1093.9</ele>
        <time>2025-12-17T15:47:52.968Z</time>
      </trkpt>
      <trkpt lon="-89.840893" lat="33.845713">
        <ele>1124.39</ele>
        <time>2025-12-17T15:47:58.264Z</time>
      </trkpt>
      <trkpt lon="-89.845343" lat="33.843835">
        <ele>1112.91</ele>
        <time>2025-12-17T15:48:03.212Z</time>
      </trkpt>
      <trkpt lon="-89.850133" lat="33.841238">
        <ele>1099.66</ele>
        <time>2025-12-17T15:48:08.412Z</time>
      </trkpt>
      <trkpt lon="-89.854896" lat="33.838050">
        <ele>1085.09</ele>
        <time>2025-12-17T15:48:13.640Z</time>
      </trkpt>
      <trkpt lon="-89.863692" lat="33.830576">
        <ele>1067.48</ele>
        <time>2025-12-17T15:48:23.840Z</time>
      </trkpt>
      <trkpt lon="-89.888080" lat="33.804325">
        <ele>1068.43</ele>
        <time>2025-12-17T15:48:54.912Z</time>
      </trkpt>
      <trkpt lon="-89.911610" lat="33.777238">
        <ele>1068.66</ele>
        <time>2025-12-17T15:49:25.912Z</time>
      </trkpt>
      <trkpt lon="-89.934839" lat="33.750022">
        <ele>1067.11</ele>
        <time>2025-12-17T15:49:56.812Z</time>
      </trkpt>
      <trkpt lon="-89.798166" lat="33.832444">
        <ele>1047.64</ele>
        <time>2025-12-17T15:50:01.588Z</time>
      </trkpt>
      <trkpt lon="-89.799364" lat="33.831074">
        <ele>1044.66</ele>
        <time>2025-12-17T15:50:12.244Z</time>
      </trkpt>
      <trkpt lon="-89.827663" lat="33.798234">
        <ele>1064.59</ele>
        <time>2025-12-17T15:50:49.920Z</time>
      </trkpt>
      <trkpt lon="-89.850913" lat="33.770749">
        <ele>1067.34</ele>
        <time>2025-12-17T15:51:21.112Z</time>
      </trkpt>
      <trkpt lon="-89.874272" lat="33.743133">
        <ele>1065.58</ele>
        <time>2025-12-17T15:51:52.420Z</time>
      </trkpt>
      <trkpt lon="-89.898113" lat="33.714940">
        <ele>1064.35</ele>
        <time>2025-12-17T15:52:24.376Z</time>
      </trkpt>
      <trkpt lon="-89.921381" lat="33.687419">
        <ele>1066.12</ele>
        <time>2025-12-17T15:52:55.600Z</time>
      </trkpt>
      <trkpt lon="-89.945046" lat="33.659429">
        <ele>1067.07</ele>
        <time>2025-12-17T15:53:27.356Z</time>
      </trkpt>
      <trkpt lon="-89.968848" lat="33.631297">
        <ele>1067.15</ele>
        <time>2025-12-17T15:53:59.248Z</time>
      </trkpt>
      <trkpt lon="-89.992160" lat="33.603753">
        <ele>1064.41</ele>
        <time>2025-12-17T15:54:30.448Z</time>
      </trkpt>
      <trkpt lon="-90.015536" lat="33.576146">
        <ele>1065.34</ele>
        <time>2025-12-17T15:55:01.788Z</time>
      </trkpt>
      <trkpt lon="-90.040280" lat="33.547066">
        <ele>1067.28</ele>
        <time>2025-12-17T15:55:34.820Z</time>
      </trkpt>
      <trkpt lon="-90.048312" lat="33.538318">
        <ele>1074.37</ele>
        <time>2025-12-17T15:55:45.140Z</time>
      </trkpt>
      <trkpt lon="-90.051837" lat="33.534671">
        <ele>1061.89</ele>
        <time>2025-12-17T15:55:50.164Z</time>
      </trkpt>
      <trkpt lon="-90.054921" lat="33.531418">
        <ele>1011.96</ele>
        <time>2025-12-17T15:55:55.304Z</time>
      </trkpt>
      <trkpt lon="-90.057753" lat="33.528322">
        <ele>909.656</ele>
        <time>2025-12-17T15:56:00.560Z</time>
      </trkpt>
      <trkpt lon="-90.060407" lat="33.525245">
        <ele>792.5</ele>
        <time>2025-12-17T15:56:05.780Z</time>
      </trkpt>
      <trkpt lon="-90.063617" lat="33.521323">
        <ele>675.22</ele>
        <time>2025-12-17T15:56:11.448Z</time>
      </trkpt>
      <trkpt lon="-90.067183" lat="33.517036">
        <ele>560.829</ele>
        <time>2025-12-17T15:56:16.932Z</time>
      </trkpt>
      <trkpt lon="-90.071008" lat="33.512579">
        <ele>458.342</ele>
        <time>2025-12-17T15:56:22.356Z</time>
      </trkpt>
      <trkpt lon="-90.075024" lat="33.508035">
        <ele>367.631</ele>
        <time>2025-12-17T15:56:27.832Z</time>
      </trkpt>
      <trkpt lon="-90.078295" lat="33.504345">
        <ele>284.054</ele>
        <time>2025-12-17T15:56:32.748Z</time>
      </trkpt>
      <trkpt lon="-90.081182" lat="33.500757">
        <ele>206.122</ele>
        <time>2025-12-17T15:56:38.036Z</time>
      </trkpt>
      <trkpt lon="-90.083396" lat="33.497618">
        <ele>162.48</ele>
        <time>2025-12-17T15:56:43.112Z</time>
      </trkpt>
      <trkpt lon="-90.085167" lat="33.494532">
        <ele>94.7635</ele>
        <time>2025-12-17T15:56:48.424Z</time>
      </trkpt>
      <trkpt lon="-90.086391" lat="33.491581">
        <ele>51.3688</ele>
        <time>2025-12-17T15:56:53.640Z</time>
      </trkpt>
      <trkpt lon="-90.087279" lat="33.489053">
        <ele>52.9132</ele>
        <time>2025-12-17T15:56:59.048Z</time>
      </trkpt>
      <trkpt lon="-90.087821" lat="33.487439">
        <ele>46.0146</ele>
        <time>2025-12-17T15:57:04.692Z</time>
      </trkpt>
      <trkpt lon="-90.087859" lat="33.487229">
        <ele>46.0253</ele>
        <time>2025-12-17T15:57:09.780Z</time>
      </trkpt>
    </trkseg>
    <trkseg>
      <trkpt lon="-115.777505" lat="60.840621">
        <ele>164.05</ele>
        <time>2025-12-18T17:39:01.508Z</time>
      </trkpt>
    </trkseg>
    <trkseg>
      <trkpt lon="12.231418" lat="46.727009">
        <ele>1206.7</ele>
        <time>2025-12-18T18:27:09.992Z</time>
      </trkpt>
    </trkseg>
    <trkseg>
      <trkpt lon="8.780657" lat="53.050723">
        <ele>5.41325</ele>
        <time>2025-12-19T18:49:11.568Z</time>
      </trkpt>
      <trkpt lon="8.780558" lat="53.050793">
        <ele>5.39216</ele>
        <time>2025-12-19T07:59:19.446Z</time>
      </trkpt>
      <trkpt lon="8.780363" lat="53.050907">
        <ele>5.34896</ele>
        <time>2025-12-19T07:59:20.102Z</time>
      </trkpt>
      <trkpt lon="8.780383" lat="53.050902">
        <ele>5.34896</ele>
        <time>2025-12-19T07:59:23.286Z</time>
      </trkpt>
      <trkpt lon="8.780466" lat="53.050862">
        <ele>5.34896</ele>
        <time>2025-12-19T07:59:25.168Z</time>
      </trkpt>
      <trkpt lon="8.780521" lat="53.050865">
        <ele>5.35331</ele>
        <time>2025-12-19T07:59:35.424Z</time>
      </trkpt>
      <trkpt lon="8.780506" lat="53.050878">
        <ele>5.3612</ele>
        <time>2025-12-19T07:59:48.062Z</time>
      </trkpt>
      <trkpt lon="8.780467" lat="53.050913">
        <ele>5.33695</ele>
        <time>2025-12-19T07:59:49.390Z</time>
      </trkpt>
      <trkpt lon="8.781355" lat="53.050117">
        <ele>5.33705</ele>
        <time>2025-12-19T19:29:54.944Z</time>
      </trkpt>
      <trkpt lon="8.781361" lat="53.050134">
        <ele>5.22608</ele>
        <time>2025-12-19T10:05:53.620Z</time>
      </trkpt>
      <trkpt lon="8.781355" lat="53.050117">
        <ele>5.33705</ele>
        <time>2025-12-19T10:06:42.004Z</time>
      </trkpt>
      <trkpt lon="8.781224" lat="53.050205">
        <ele>5.34314</ele>
        <time>2025-12-19T19:37:40.248Z</time>
      </trkpt>
      <trkpt lon="8.781236" lat="53.050257">
        <ele>5.2268</ele>
        <time>2025-12-19T10:34:59.224Z</time>
      </trkpt>
      <trkpt lon="8.781235" lat="53.050295">
        <ele>5.22936</ele>
        <time>2025-12-19T10:35:03.124Z</time>
      </trkpt>
      <trkpt lon="8.781224" lat="53.050345">
        <ele>5.2262</ele>
        <time>2025-12-19T10:35:06.384Z</time>
      </trkpt>
      <trkpt lon="8.781205" lat="53.050391">
        <ele>5.22465</ele>
        <time>2025-12-19T10:35:09.600Z</time>
      </trkpt>
      <trkpt lon="8.781136" lat="53.050520">
        <ele>5.22834</ele>
        <time>2025-12-19T10:35:12.916Z</time>
      </trkpt>
      <trkpt lon="8.781078" lat="53.050595">
        <ele>5.22615</ele>
        <time>2025-12-19T10:35:14.284Z</time>
      </trkpt>
      <trkpt lon="8.780633" lat="53.051031">
        <ele>5.2345</ele>
        <time>2025-12-19T10:35:20.096Z</time>
      </trkpt>
      <trkpt lon="8.780392" lat="53.051241">
        <ele>5.23209</ele>
        <time>2025-12-19T10:35:22.756Z</time>
      </trkpt>
      <trkpt lon="8.780205" lat="53.051366">
        <ele>5.22774</ele>
        <time>2025-12-19T10:35:24.740Z</time>
      </trkpt>
      <trkpt lon="8.780009" lat="53.051466">
        <ele>5.23277</ele>
        <time>2025-12-19T10:35:26.740Z</time>
      </trkpt>
      <trkpt lon="8.779945" lat="53.051489">
        <ele>5.2318</ele>
        <time>2025-12-19T10:35:27.384Z</time>
      </trkpt>
      <trkpt lon="8.779882" lat="53.051505">
        <ele>5.23346</ele>
        <time>2025-12-19T10:35:28.044Z</time>
      </trkpt>
      <trkpt lon="8.779824" lat="53.051513">
        <ele>5.23229</ele>
        <time>2025-12-19T10:35:28.672Z</time>
      </trkpt>
      <trkpt lon="8.779763" lat="53.051515">
        <ele>5.23022</ele>
        <time>2025-12-19T10:35:29.316Z</time>
      </trkpt>
      <trkpt lon="8.779699" lat="53.051513">
        <ele>5.22824</ele>
        <time>2025-12-19T10:35:29.984Z</time>
      </trkpt>
      <trkpt lon="8.779581" lat="53.051497">
        <ele>5.2328</ele>
        <time>2025-12-19T10:35:31.324Z</time>
      </trkpt>
      <trkpt lon="8.779462" lat="53.051472">
        <ele>5.22864</ele>
        <time>2025-12-19T10:35:33.240Z</time>
      </trkpt>
      <trkpt lon="8.779415" lat="53.051459">
        <ele>5.22963</ele>
        <time>2025-12-19T10:35:35.160Z</time>
      </trkpt>
      <trkpt lon="8.779267" lat="53.051409">
        <ele>5.23174</ele>
        <time>2025-12-19T10:35:38.396Z</time>
      </trkpt>
      <trkpt lon="8.779089" lat="53.051335">
        <ele>5.23251</ele>
        <time>2025-12-19T10:35:39.696Z</time>
      </trkpt>
      <trkpt lon="8.778864" lat="53.051212">
        <ele>5.23347</ele>
        <time>2025-12-19T10:35:41.000Z</time>
      </trkpt>
      <trkpt lon="8.778431" lat="53.050926">
        <ele>5.23017</ele>
        <time>2025-12-19T10:35:42.980Z</time>
      </trkpt>
      <trkpt lon="8.777864" lat="53.050578">
        <ele>5.23906</ele>
        <time>2025-12-19T10:35:44.932Z</time>
      </trkpt>
      <trkpt lon="8.776928" lat="53.050006">
        <ele>5.23474</ele>
        <time>2025-12-19T10:35:47.560Z</time>
      </trkpt>
      <trkpt lon="8.775877" lat="53.049311">
        <ele>5.23869</ele>
        <time>2025-12-19T10:35:50.160Z</time>
      </trkpt>
      <trkpt lon="8.775056" lat="53.048701">
        <ele>5.24629</ele>
        <time>2025-12-19T10:35:52.116Z</time>
      </trkpt>
      <trkpt lon="8.774797" lat="53.048468">
        <ele>5.2469</ele>
        <time>2025-12-19T10:35:52.780Z</time>
      </trkpt>
      <trkpt lon="8.773965" lat="53.047445">
        <ele>6.64767</ele>
        <time>2025-12-19T10:35:55.416Z</time>
      </trkpt>
      <trkpt lon="8.772364" lat="53.044321">
        <ele>23.003</ele>
        <time>2025-12-19T10:36:02.468Z</time>
      </trkpt>
      <trkpt lon="8.771613" lat="53.042085">
        <ele>37.3804</ele>
        <time>2025-12-19T10:36:07.068Z</time>
      </trkpt>
      <trkpt lon="8.771079" lat="53.040305">
        <ele>38.5469</ele>
        <time>2025-12-19T10:36:10.320Z</time>
      </trkpt>
      <trkpt lon="8.770423" lat="53.037986">
        <ele>40.2801</ele>
        <time>2025-12-19T10:36:14.192Z</time>
      </trkpt>
      <trkpt lon="8.769739" lat="53.035339">
        <ele>59.0691</ele>
        <time>2025-12-19T10:36:18.472Z</time>
      </trkpt>
      <trkpt lon="8.769350" lat="53.033792">
        <ele>77.8792</ele>
        <time>2025-12-19T10:36:20.752Z</time>
      </trkpt>
      <trkpt lon="8.769029" lat="53.032517">
        <ele>101.759</ele>
        <time>2025-12-19T10:36:22.684Z</time>
      </trkpt>
      <trkpt lon="8.768715" lat="53.031259">
        <ele>132.587</ele>
        <time>2025-12-19T10:36:24.688Z</time>
      </trkpt>
      <trkpt lon="8.768510" lat="53.030420">
        <ele>156.399</ele>
        <time>2025-12-19T10:36:26.000Z</time>
      </trkpt>
      <trkpt lon="8.768320" lat="53.029597">
        <ele>182.285</ele>
        <time>2025-12-19T10:36:27.340Z</time>
      </trkpt>
      <trkpt lon="8.768155" lat="53.028826">
        <ele>208.553</ele>
        <time>2025-12-19T10:36:28.636Z</time>
      </trkpt>
      <trkpt lon="8.768002" lat="53.028080">
        <ele>235.173</ele>
        <time>2025-12-19T10:36:29.932Z</time>
      </trkpt>
      <trkpt lon="8.767856" lat="53.027318">
        <ele>263.083</ele>
        <time>2025-12-19T10:36:31.308Z</time>
      </trkpt>
      <trkpt lon="8.767673" lat="53.026224">
        <ele>303.499</ele>
        <time>2025-12-19T10:36:33.312Z</time>
      </trkpt>
      <trkpt lon="8.767558" lat="53.025218">
        <ele>339.996</ele>
        <time>2025-12-19T10:36:35.248Z</time>
      </trkpt>
      <trkpt lon="8.767500" lat="53.024264">
        <ele>372.317</ele>
        <time>2025-12-19T10:36:37.144Z</time>
      </trkpt>
      <trkpt lon="8.767487" lat="53.022968">
        <ele>410.149</ele>
        <time>2025-12-19T10:36:39.764Z</time>
      </trkpt>
      <trkpt lon="8.767586" lat="53.021036">
        <ele>450.032</ele>
        <time>2025-12-19T10:36:43.652Z</time>
      </trkpt>
      <trkpt lon="8.767869" lat="53.017906">
        <ele>481.82</ele>
        <time>2025-12-19T10:36:49.564Z</time>
      </trkpt>
      <trkpt lon="8.768192" lat="53.014510">
        <ele>503.673</ele>
        <time>2025-12-19T10:36:55.388Z</time>
      </trkpt>
      <trkpt lon="8.768467" lat="53.010922">
        <ele>545.078</ele>
        <time>2025-12-19T10:37:01.224Z</time>
      </trkpt>
      <trkpt lon="8.768683" lat="53.008575">
        <ele>589.245</ele>
        <time>2025-12-19T10:37:05.068Z</time>
      </trkpt>
      <trkpt lon="8.768890" lat="53.006665">
        <ele>635.25</ele>
        <time>2025-12-19T10:37:08.288Z</time>
      </trkpt>
      <trkpt lon="8.769118" lat="53.004796">
        <ele>685.508</ele>
        <time>2025-12-19T10:37:11.564Z</time>
      </trkpt>
      <trkpt lon="8.769422" lat="53.002672">
        <ele>742.186</ele>
        <time>2025-12-19T10:37:15.388Z</time>
      </trkpt>
      <trkpt lon="8.769848" lat="53.000229">
        <ele>796.393</ele>
        <time>2025-12-19T10:37:19.848Z</time>
      </trkpt>
      <trkpt lon="8.770813" lat="52.996294">
        <ele>850.044</ele>
        <time>2025-12-19T10:37:26.868Z</time>
      </trkpt>
      <trkpt lon="8.772185" lat="52.992480">
        <ele>878.833</ele>
        <time>2025-12-19T10:37:33.252Z</time>
      </trkpt>
      <trkpt lon="8.773224" lat="52.989701">
        <ele>911.231</ele>
        <time>2025-12-19T10:37:37.676Z</time>
      </trkpt>
      <trkpt lon="8.773399" lat="52.988458">
        <ele>928.351</ele>
        <time>2025-12-19T10:37:39.584Z</time>
      </trkpt>
      <trkpt lon="8.773332" lat="52.987209">
        <ele>943.159</ele>
        <time>2025-12-19T10:37:41.480Z</time>
      </trkpt>
      <trkpt lon="8.773019" lat="52.985954">
        <ele>956.836</ele>
        <time>2025-12-19T10:37:43.404Z</time>
      </trkpt>
      <trkpt lon="8.772477" lat="52.984752">
        <ele>970.196</ele>
        <time>2025-12-19T10:37:45.280Z</time>
      </trkpt>
      <trkpt lon="8.771701" lat="52.983585">
        <ele>984.195</ele>
        <time>2025-12-19T10:37:47.180Z</time>
      </trkpt>
      <trkpt lon="8.770707" lat="52.982490">
        <ele>999.19</ele>
        <time>2025-12-19T10:37:49.084Z</time>
      </trkpt>
      <trkpt lon="8.769501" lat="52.981476">
        <ele>1015.58</ele>
        <time>2025-12-19T10:37:50.992Z</time>
      </trkpt>
      <trkpt lon="8.768084" lat="52.980552">
        <ele>1033.61</ele>
        <time>2025-12-19T10:37:52.936Z</time>
      </trkpt>
      <trkpt lon="8.766524" lat="52.979762">
        <ele>1052.85</ele>
        <time>2025-12-19T10:37:54.860Z</time>
      </trkpt>
      <trkpt lon="8.764878" lat="52.979120">
        <ele>1073.15</ele>
        <time>2025-12-19T10:37:56.744Z</time>
      </trkpt>
      <trkpt lon="8.763103" lat="52.978609">
        <ele>1094.64</ele>
        <time>2025-12-19T10:37:58.656Z</time>
      </trkpt>
      <trkpt lon="8.761174" lat="52.978241">
        <ele>1117.37</ele>
        <time>2025-12-19T10:38:00.664Z</time>
      </trkpt>
      <trkpt lon="8.759214" lat="52.978046">
        <ele>1139.62</ele>
        <time>2025-12-19T10:38:02.660Z</time>
      </trkpt>
      <trkpt lon="8.753585" lat="52.977943">
        <ele>1209.09</ele>
        <time>2025-12-19T10:38:08.444Z</time>
      </trkpt>
      <trkpt lon="8.748930" lat="52.977920">
        <ele>1287.05</ele>
        <time>2025-12-19T10:38:13.588Z</time>
      </trkpt>
      <trkpt lon="8.744092" lat="52.977924">
        <ele>1367.49</ele>
        <time>2025-12-19T10:38:19.360Z</time>
      </trkpt>
      <trkpt lon="8.734974" lat="52.977982">
        <ele>1448.33</ele>
        <time>2025-12-19T10:38:30.284Z</time>
      </trkpt>
      <trkpt lon="8.726976" lat="52.978376">
        <ele>1463.52</ele>
        <time>2025-12-19T10:38:39.168Z</time>
      </trkpt>
      <trkpt lon="8.710197" lat="52.979364">
        <ele>1548.61</ele>
        <time>2025-12-19T10:38:57.024Z</time>
      </trkpt>
      <trkpt lon="8.682937" lat="52.980086">
        <ele>1573.31</ele>
        <time>2025-12-19T10:39:26.972Z</time>
      </trkpt>
      <trkpt lon="8.674782" lat="52.980067">
        <ele>1600.17</ele>
        <time>2025-12-19T10:39:35.228Z</time>
      </trkpt>
      <trkpt lon="8.668652" lat="52.979650">
        <ele>1651.94</ele>
        <time>2025-12-19T10:39:41.556Z</time>
      </trkpt>
      <trkpt lon="8.662355" lat="52.978795">
        <ele>1720.47</ele>
        <time>2025-12-19T10:39:48.580Z</time>
      </trkpt>
      <trkpt lon="8.645280" lat="52.976278">
        <ele>1817.93</ele>
        <time>2025-12-19T10:40:08.248Z</time>
      </trkpt>
      <trkpt lon="8.632948" lat="52.974500">
        <ele>1884.92</ele>
        <time>2025-12-19T10:40:21.576Z</time>
      </trkpt>
      <trkpt lon="8.627951" lat="52.973397">
        <ele>1925.43</ele>
        <time>2025-12-19T10:40:27.268Z</time>
      </trkpt>
      <trkpt lon="8.613603" lat="52.970177">
        <ele>2022.85</ele>
        <time>2025-12-19T10:40:43.968Z</time>
      </trkpt>
      <trkpt lon="8.611313" lat="52.969776">
        <ele>2027.3</ele>
        <time>2025-12-19T10:40:46.500Z</time>
      </trkpt>
      <trkpt lon="8.604370" lat="52.969081">
        <ele>2020.63</ele>
        <time>2025-12-19T10:40:53.516Z</time>
      </trkpt>
      <trkpt lon="8.595080" lat="52.967986">
        <ele>2018.48</ele>
        <time>2025-12-19T10:41:02.336Z</time>
      </trkpt>
      <trkpt lon="8.581411" lat="52.966232">
        <ele>2023.38</ele>
        <time>2025-12-19T10:41:14.400Z</time>
      </trkpt>
      <trkpt lon="8.548370" lat="52.961966">
        <ele>2132.82</ele>
        <time>2025-12-19T10:41:42.312Z</time>
      </trkpt>
      <trkpt lon="8.528190" lat="52.959303">
        <ele>2250.72</ele>
        <time>2025-12-19T10:42:00.696Z</time>
      </trkpt>
      <trkpt lon="8.508813" lat="52.954673">
        <ele>2371.9</ele>
        <time>2025-12-19T10:42:20.424Z</time>
      </trkpt>
      <trkpt lon="8.485617" lat="52.948775">
        <ele>2500.25</ele>
        <time>2025-12-19T10:42:45.216Z</time>
      </trkpt>
      <trkpt lon="8.473664" lat="52.945828">
        <ele>2566.22</ele>
        <time>2025-12-19T10:42:57.936Z</time>
      </trkpt>
      <trkpt lon="8.471769" lat="52.945537">
        <ele>2576.13</ele>
        <time>2025-12-19T10:42:59.856Z</time>
      </trkpt>
      <trkpt lon="8.469228" lat="52.945328">
        <ele>2589.62</ele>
        <time>2025-12-19T10:43:02.408Z</time>
      </trkpt>
      <trkpt lon="8.466613" lat="52.945321">
        <ele>2603.11</ele>
        <time>2025-12-19T10:43:04.960Z</time>
      </trkpt>
      <trkpt lon="8.464062" lat="52.945518">
        <ele>2615.82</ele>
        <time>2025-12-19T10:43:07.472Z</time>
      </trkpt>
      <trkpt lon="8.461529" lat="52.945920">
        <ele>2628.05</ele>
        <time>2025-12-19T10:43:10.012Z</time>
      </trkpt>
      <trkpt lon="8.459040" lat="52.946536">
        <ele>2639.34</ele>
        <time>2025-12-19T10:43:12.592Z</time>
      </trkpt>
      <trkpt lon="8.456704" lat="52.947336">
        <ele>2648.47</ele>
        <time>2025-12-19T10:43:15.140Z</time>
      </trkpt>
      <trkpt lon="8.454449" lat="52.948344">
        <ele>2654.41</ele>
        <time>2025-12-19T10:43:17.716Z</time>
      </trkpt>
      <trkpt lon="8.452370" lat="52.949522">
        <ele>2656.37</ele>
        <time>2025-12-19T10:43:20.264Z</time>
      </trkpt>
      <trkpt lon="8.450483" lat="52.950863">
        <ele>2655.54</ele>
        <time>2025-12-19T10:43:22.792Z</time>
      </trkpt>
      <trkpt lon="8.448767" lat="52.952398">
        <ele>2653.06</ele>
        <time>2025-12-19T10:43:25.368Z</time>
      </trkpt>
      <trkpt lon="8.446953" lat="52.954480">
        <ele>2650.66</ele>
        <time>2025-12-19T10:43:28.520Z</time>
      </trkpt>
      <trkpt lon="8.444379" lat="52.958217">
        <ele>2646.1</ele>
        <time>2025-12-19T10:43:33.644Z</time>
      </trkpt>
      <trkpt lon="8.441342" lat="52.963213">
        <ele>2637.26</ele>
        <time>2025-12-19T10:43:40.004Z</time>
      </trkpt>
      <trkpt lon="8.435753" lat="52.972765">
        <ele>2625.22</ele>
        <time>2025-12-19T10:43:51.444Z</time>
      </trkpt>
      <trkpt lon="8.420969" lat="52.998097">
        <ele>2629.16</ele>
        <time>2025-12-19T10:44:20.172Z</time>
      </trkpt>
      <trkpt lon="8.404377" lat="53.026287">
        <ele>2627.58</ele>
        <time>2025-12-19T10:44:50.796Z</time>
      </trkpt>
      <trkpt lon="8.387522" lat="53.054697">
        <ele>2626.31</ele>
        <time>2025-12-19T10:45:20.840Z</time>
      </trkpt>
      <trkpt lon="8.375992" lat="53.074003">
        <ele>2688.53</ele>
        <time>2025-12-19T10:45:41.260Z</time>
      </trkpt>
      <trkpt lon="8.368818" lat="53.086400">
        <ele>2784.02</ele>
        <time>2025-12-19T10:45:55.260Z</time>
      </trkpt>
      <trkpt lon="8.354412" lat="53.112187">
        <ele>2926.15</ele>
        <time>2025-12-19T10:46:25.804Z</time>
      </trkpt>
      <trkpt lon="8.348097" lat="53.123380">
        <ele>2909.13</ele>
        <time>2025-12-19T10:46:38.676Z</time>
      </trkpt>
      <trkpt lon="8.336896" lat="53.142705">
        <ele>2892.55</ele>
        <time>2025-12-19T10:46:59.776Z</time>
      </trkpt>
      <trkpt lon="8.330156" lat="53.154695">
        <ele>2890.46</ele>
        <time>2025-12-19T10:47:12.520Z</time>
      </trkpt>
      <trkpt lon="8.328949" lat="53.158449">
        <ele>2894.26</ele>
        <time>2025-12-19T10:47:16.340Z</time>
      </trkpt>
      <trkpt lon="8.326700" lat="53.173997">
        <ele>2896.84</ele>
        <time>2025-12-19T10:47:31.652Z</time>
      </trkpt>
      <trkpt lon="8.323498" lat="53.205495">
        <ele>2895.77</ele>
        <time>2025-12-19T10:48:01.752Z</time>
      </trkpt>
      <trkpt lon="8.320165" lat="53.238065">
        <ele>2892.96</ele>
        <time>2025-12-19T10:48:32.280Z</time>
      </trkpt>
      <trkpt lon="8.316836" lat="53.270240">
        <ele>2892.99</ele>
        <time>2025-12-19T10:49:02.332Z</time>
      </trkpt>
      <trkpt lon="8.313491" lat="53.302432">
        <ele>2894.52</ele>
        <time>2025-12-19T10:49:32.356Z</time>
      </trkpt>
      <trkpt lon="8.310037" lat="53.334959">
        <ele>2894.73</ele>
        <time>2025-12-19T10:50:02.624Z</time>
      </trkpt>
      <trkpt lon="8.306617" lat="53.367554">
        <ele>2895.26</ele>
        <time>2025-12-19T10:50:32.924Z</time>
      </trkpt>
      <trkpt lon="8.303254" lat="53.399882">
        <ele>2898.65</ele>
        <time>2025-12-19T10:51:02.976Z</time>
      </trkpt>
      <trkpt lon="8.299830" lat="53.432699">
        <ele>2897.51</ele>
        <time>2025-12-19T10:51:33.348Z</time>
      </trkpt>
      <trkpt lon="8.296447" lat="53.464352">
        <ele>2894.15</ele>
        <time>2025-12-19T10:52:04.416Z</time>
      </trkpt>
      <trkpt lon="8.294097" lat="53.482215">
        <ele>2893.47</ele>
        <time>2025-12-19T10:52:21.744Z</time>
      </trkpt>
      <trkpt lon="8.293332" lat="53.484291">
        <ele>2896.64</ele>
        <time>2025-12-19T10:52:23.720Z</time>
      </trkpt>
      <trkpt lon="8.292130" lat="53.486292">
        <ele>2881.09</ele>
        <time>2025-12-19T10:52:25.720Z</time>
      </trkpt>
      <trkpt lon="8.291108" lat="53.487540">
        <ele>2859.01</ele>
        <time>2025-12-19T10:52:27.068Z</time>
      </trkpt>
      <trkpt lon="8.289248" lat="53.489289">
        <ele>2808.62</ele>
        <time>2025-12-19T10:52:29.088Z</time>
      </trkpt>
      <trkpt lon="8.287814" lat="53.490350">
        <ele>2765.11</ele>
        <time>2025-12-19T10:52:30.436Z</time>
      </trkpt>
      <trkpt lon="8.285423" lat="53.491757">
        <ele>2688.38</ele>
        <time>2025-12-19T10:52:32.424Z</time>
      </trkpt>
      <trkpt lon="8.283604" lat="53.492606">
        <ele>2628.31</ele>
        <time>2025-12-19T10:52:33.796Z</time>
      </trkpt>
      <trkpt lon="8.280746" lat="53.493649">
        <ele>2533.32</ele>
        <time>2025-12-19T10:52:35.776Z</time>
      </trkpt>
      <trkpt lon="8.277599" lat="53.494474">
        <ele>2433.71</ele>
        <time>2025-12-19T10:52:37.764Z</time>
      </trkpt>
      <trkpt lon="8.275318" lat="53.494881">
        <ele>2363.81</ele>
        <time>2025-12-19T10:52:39.132Z</time>
      </trkpt>
      <trkpt lon="8.270671" lat="53.495337">
        <ele>2225.91</ele>
        <time>2025-12-19T10:52:41.776Z</time>
      </trkpt>
      <trkpt lon="8.265812" lat="53.495733">
        <ele>2110.89</ele>
        <time>2025-12-19T10:52:44.440Z</time>
      </trkpt>
      <trkpt lon="8.264033" lat="53.495929">
        <ele>2276.65</ele>
        <time>2025-12-19T10:52:45.748Z</time>
      </trkpt>
      <trkpt lon="8.263374" lat="53.496013">
        <ele>2267.54</ele>
        <time>2025-12-19T10:52:46.412Z</time>
      </trkpt>
      <trkpt lon="8.262440" lat="53.496141">
        <ele>2254.7</ele>
        <time>2025-12-19T10:52:47.084Z</time>
      </trkpt>
      <trkpt lon="8.261672" lat="53.496257">
        <ele>2246.87</ele>
        <time>2025-12-19T10:52:47.736Z</time>
      </trkpt>
      <trkpt lon="8.260939" lat="53.496375">
        <ele>2240.67</ele>
        <time>2025-12-19T10:52:48.440Z</time>
      </trkpt>
      <trkpt lon="8.258481" lat="53.496823">
        <ele>2224.15</ele>
        <time>2025-12-19T10:52:51.084Z</time>
      </trkpt>
      <trkpt lon="8.255502" lat="53.497472">
        <ele>2202.3</ele>
        <time>2025-12-19T10:52:54.444Z</time>
      </trkpt>
      <trkpt lon="8.253823" lat="53.497933">
        <ele>2184.78</ele>
        <time>2025-12-19T10:52:56.432Z</time>
      </trkpt>
      <trkpt lon="8.252752" lat="53.498310">
        <ele>2168.45</ele>
        <time>2025-12-19T10:52:57.780Z</time>
      </trkpt>
      <trkpt lon="8.249704" lat="53.499752">
        <ele>2111.53</ele>
        <time>2025-12-19T10:53:01.884Z</time>
      </trkpt>
      <trkpt lon="8.246347" lat="53.501697">
        <ele>2040.38</ele>
        <time>2025-12-19T10:53:06.544Z</time>
      </trkpt>
      <trkpt lon="8.242729" lat="53.504306">
        <ele>1963.73</ele>
        <time>2025-12-19T10:53:11.900Z</time>
      </trkpt>
      <trkpt lon="8.236481" lat="53.510098">
        <ele>1863.81</ele>
        <time>2025-12-19T10:53:22.484Z</time>
      </trkpt>
      <trkpt lon="8.229709" lat="53.516858">
        <ele>1768.14</ele>
        <time>2025-12-19T10:53:35.228Z</time>
      </trkpt>
      <trkpt lon="8.224486" lat="53.521904">
        <ele>1674</ele>
        <time>2025-12-19T10:53:44.584Z</time>
      </trkpt>
      <trkpt lon="8.215578" lat="53.529231">
        <ele>1586.7</ele>
        <time>2025-12-19T10:53:58.724Z</time>
      </trkpt>
      <trkpt lon="8.209591" lat="53.534457">
        <ele>1503.51</ele>
        <time>2025-12-19T10:54:09.416Z</time>
      </trkpt>
      <trkpt lon="8.205563" lat="53.537963">
        <ele>1434.63</ele>
        <time>2025-12-19T10:54:16.248Z</time>
      </trkpt>
      <trkpt lon="8.204589" lat="53.538602">
        <ele>1424.06</ele>
        <time>2025-12-19T10:54:17.584Z</time>
      </trkpt>
      <trkpt lon="8.203461" lat="53.539177">
        <ele>1408.67</ele>
        <time>2025-12-19T10:54:18.948Z</time>
      </trkpt>
      <trkpt lon="8.202242" lat="53.539647">
        <ele>1388.31</ele>
        <time>2025-12-19T10:54:20.280Z</time>
      </trkpt>
      <trkpt lon="8.200883" lat="53.540017">
        <ele>1362.33</ele>
        <time>2025-12-19T10:54:21.636Z</time>
      </trkpt>
      <trkpt lon="8.199486" lat="53.540252">
        <ele>1331.38</ele>
        <time>2025-12-19T10:54:22.936Z</time>
      </trkpt>
      <trkpt lon="8.198000" lat="53.540355">
        <ele>1293.81</ele>
        <time>2025-12-19T10:54:24.256Z</time>
      </trkpt>
      <trkpt lon="8.196493" lat="53.540314">
        <ele>1251.95</ele>
        <time>2025-12-19T10:54:25.572Z</time>
      </trkpt>
      <trkpt lon="8.194939" lat="53.540126">
        <ele>1205.81</ele>
        <time>2025-12-19T10:54:26.908Z</time>
      </trkpt>
      <trkpt lon="8.193329" lat="53.539801">
        <ele>1160.98</ele>
        <time>2025-12-19T10:54:28.296Z</time>
      </trkpt>
      <trkpt lon="8.192497" lat="53.539564">
        <ele>1139.25</ele>
        <time>2025-12-19T10:54:29.004Z</time>
      </trkpt>
      <trkpt lon="8.191040" lat="53.538977">
        <ele>1103.1</ele>
        <time>2025-12-19T10:54:30.344Z</time>
      </trkpt>
      <trkpt lon="8.189744" lat="53.538257">
        <ele>1073.13</ele>
        <time>2025-12-19T10:54:31.664Z</time>
      </trkpt>
      <trkpt lon="8.188064" lat="53.536936">
        <ele>1045.9</ele>
        <time>2025-12-19T10:54:33.680Z</time>
      </trkpt>
      <trkpt lon="8.185741" lat="53.534619">
        <ele>1059.06</ele>
        <time>2025-12-19T10:54:37.056Z</time>
      </trkpt>
      <trkpt lon="8.184628" lat="53.533333">
        <ele>1086.75</ele>
        <time>2025-12-19T10:54:39.032Z</time>
      </trkpt>
      <trkpt lon="8.183825" lat="53.532067">
        <ele>1120.32</ele>
        <time>2025-12-19T10:54:41.048Z</time>
      </trkpt>
      <trkpt lon="8.183493" lat="53.531279">
        <ele>1141.78</ele>
        <time>2025-12-19T10:54:42.348Z</time>
      </trkpt>
      <trkpt lon="8.183246" lat="53.530117">
        <ele>1170.24</ele>
        <time>2025-12-19T10:54:44.348Z</time>
      </trkpt>
      <trkpt lon="8.183242" lat="53.529395">
        <ele>1183.95</ele>
        <time>2025-12-19T10:54:45.656Z</time>
      </trkpt>
      <trkpt lon="8.183438" lat="53.528363">
        <ele>1197.03</ele>
        <time>2025-12-19T10:54:47.628Z</time>
      </trkpt>
      <trkpt lon="8.184093" lat="53.526767">
        <ele>1200.44</ele>
        <time>2025-12-19T10:54:50.880Z</time>
      </trkpt>
      <trkpt lon="8.184672" lat="53.525832">
        <ele>1192</ele>
        <time>2025-12-19T10:54:52.880Z</time>
      </trkpt>
      <trkpt lon="8.187036" lat="53.523180">
        <ele>1159.71</ele>
        <time>2025-12-19T10:54:58.852Z</time>
      </trkpt>
      <trkpt lon="8.188636" lat="53.521749">
        <ele>1132.11</ele>
        <time>2025-12-19T10:55:02.196Z</time>
      </trkpt>
      <trkpt lon="8.189733" lat="53.520926">
        <ele>1110.32</ele>
        <time>2025-12-19T10:55:04.180Z</time>
      </trkpt>
      <trkpt lon="8.190954" lat="53.520166">
        <ele>1082.68</ele>
        <time>2025-12-19T10:55:06.120Z</time>
      </trkpt>
      <trkpt lon="8.191915" lat="53.519683">
        <ele>1057.69</ele>
        <time>2025-12-19T10:55:07.472Z</time>
      </trkpt>
      <trkpt lon="8.192966" lat="53.519260">
        <ele>1026.42</ele>
        <time>2025-12-19T10:55:08.800Z</time>
      </trkpt>
      <trkpt lon="8.194075" lat="53.518919">
        <ele>988.641</ele>
        <time>2025-12-19T10:55:10.088Z</time>
      </trkpt>
      <trkpt lon="8.194719" lat="53.518766">
        <ele>964.055</ele>
        <time>2025-12-19T10:55:10.776Z</time>
      </trkpt>
      <trkpt lon="8.195387" lat="53.518640">
        <ele>936.063</ele>
        <time>2025-12-19T10:55:11.476Z</time>
      </trkpt>
      <trkpt lon="8.196019" lat="53.518552">
        <ele>907.152</ele>
        <time>2025-12-19T10:55:12.120Z</time>
      </trkpt>
      <trkpt lon="8.196658" lat="53.518495">
        <ele>875.217</ele>
        <time>2025-12-19T10:55:12.764Z</time>
      </trkpt>
      <trkpt lon="8.197323" lat="53.518468">
        <ele>838.348</ele>
        <time>2025-12-19T10:55:13.424Z</time>
      </trkpt>
      <trkpt lon="8.198021" lat="53.518475">
        <ele>795.303</ele>
        <time>2025-12-19T10:55:14.140Z</time>
      </trkpt>
      <trkpt lon="8.198686" lat="53.518517">
        <ele>749.36</ele>
        <time>2025-12-19T10:55:14.792Z</time>
      </trkpt>
      <trkpt lon="8.199332" lat="53.518596">
        <ele>698.837</ele>
        <time>2025-12-19T10:55:15.468Z</time>
      </trkpt>
      <trkpt lon="8.199954" lat="53.518717">
        <ele>642.59</ele>
        <time>2025-12-19T10:55:16.160Z</time>
      </trkpt>
      <trkpt lon="8.200513" lat="53.518876">
        <ele>582.981</ele>
        <time>2025-12-19T10:55:16.820Z</time>
      </trkpt>
      <trkpt lon="8.200990" lat="53.519067">
        <ele>521.327</ele>
        <time>2025-12-19T10:55:17.476Z</time>
      </trkpt>
      <trkpt lon="8.201408" lat="53.519305">
        <ele>453.464</ele>
        <time>2025-12-19T10:55:18.136Z</time>
      </trkpt>
      <trkpt lon="8.201701" lat="53.519592">
        <ele>383.991</ele>
        <time>2025-12-19T10:55:18.784Z</time>
      </trkpt>
      <trkpt lon="8.201781" lat="53.519957">
        <ele>314.289</ele>
        <time>2025-12-19T10:55:19.444Z</time>
      </trkpt>
      <trkpt lon="8.201611" lat="53.520396">
        <ele>247.105</ele>
        <time>2025-12-19T10:55:20.112Z</time>
      </trkpt>
      <trkpt lon="8.201155" lat="53.520866">
        <ele>192.897</ele>
        <time>2025-12-19T10:55:20.764Z</time>
      </trkpt>
      <trkpt lon="8.200421" lat="53.521351">
        <ele>155.169</ele>
        <time>2025-12-19T10:55:21.420Z</time>
      </trkpt>
      <trkpt lon="8.198612" lat="53.522200">
        <ele>131.931</ele>
        <time>2025-12-19T10:55:22.744Z</time>
      </trkpt>
      <trkpt lon="8.195855" lat="53.523353">
        <ele>142.305</ele>
        <time>2025-12-19T10:55:24.728Z</time>
      </trkpt>
      <trkpt lon="8.193237" lat="53.524453">
        <ele>166.644</ele>
        <time>2025-12-19T10:55:26.724Z</time>
      </trkpt>
      <trkpt lon="8.191556" lat="53.525164">
        <ele>187.617</ele>
        <time>2025-12-19T10:55:28.076Z</time>
      </trkpt>
      <trkpt lon="8.189968" lat="53.525830">
        <ele>219.792</ele>
        <time>2025-12-19T10:55:29.440Z</time>
      </trkpt>
      <trkpt lon="8.188554" lat="53.526390">
        <ele>257.484</ele>
        <time>2025-12-19T10:55:30.756Z</time>
      </trkpt>
      <trkpt lon="8.187195" lat="53.526876">
        <ele>299.264</ele>
        <time>2025-12-19T10:55:32.108Z</time>
      </trkpt>
      <trkpt lon="8.185956" lat="53.527268">
        <ele>340.532</ele>
        <time>2025-12-19T10:55:33.432Z</time>
      </trkpt>
      <trkpt lon="8.184803" lat="53.527584">
        <ele>379.466</ele>
        <time>2025-12-19T10:55:34.780Z</time>
      </trkpt>
      <trkpt lon="8.183722" lat="53.527835">
        <ele>414.213</ele>
        <time>2025-12-19T10:55:36.136Z</time>
      </trkpt>
      <trkpt lon="8.182294" lat="53.528128">
        <ele>450.968</ele>
        <time>2025-12-19T10:55:38.108Z</time>
      </trkpt>
      <trkpt lon="8.180974" lat="53.528394">
        <ele>474.333</ele>
        <time>2025-12-19T10:55:40.164Z</time>
      </trkpt>
      <trkpt lon="8.176100" lat="53.529504">
        <ele>432.001</ele>
        <time>2025-12-19T10:55:48.704Z</time>
      </trkpt>
      <trkpt lon="8.174380" lat="53.529964">
        <ele>394.229</ele>
        <time>2025-12-19T10:55:51.360Z</time>
      </trkpt>
      <trkpt lon="8.172934" lat="53.530389">
        <ele>369.8</ele>
        <time>2025-12-19T10:55:53.360Z</time>
      </trkpt>
      <trkpt lon="8.171367" lat="53.530869">
        <ele>345.408</ele>
        <time>2025-12-19T10:55:55.304Z</time>
      </trkpt>
      <trkpt lon="8.169002" lat="53.531612">
        <ele>312.807</ele>
        <time>2025-12-19T10:55:57.952Z</time>
      </trkpt>
      <trkpt lon="8.167068" lat="53.532231">
        <ele>292.97</ele>
        <time>2025-12-19T10:55:59.992Z</time>
      </trkpt>
      <trkpt lon="8.163603" lat="53.533316">
        <ele>278.254</ele>
        <time>2025-12-19T10:56:03.344Z</time>
      </trkpt>
      <trkpt lon="8.159222" lat="53.534401">
        <ele>303.318</ele>
        <time>2025-12-19T10:56:07.312Z</time>
      </trkpt>
      <trkpt lon="8.156989" lat="53.534723">
        <ele>327.368</ele>
        <time>2025-12-19T10:56:09.312Z</time>
      </trkpt>
      <trkpt lon="8.155538" lat="53.534834">
        <ele>344.727</ele>
        <time>2025-12-19T10:56:10.644Z</time>
      </trkpt>
      <trkpt lon="8.153432" lat="53.534848">
        <ele>370.864</ele>
        <time>2025-12-19T10:56:12.640Z</time>
      </trkpt>
      <trkpt lon="8.152103" lat="53.534765">
        <ele>386.836</ele>
        <time>2025-12-19T10:56:13.960Z</time>
      </trkpt>
      <trkpt lon="8.150835" lat="53.534611">
        <ele>400.899</ele>
        <time>2025-12-19T10:56:15.288Z</time>
      </trkpt>
      <trkpt lon="8.149684" lat="53.534401">
        <ele>411.814</ele>
        <time>2025-12-19T10:56:16.580Z</time>
      </trkpt>
      <trkpt lon="8.143799" lat="53.532742">
        <ele>436.212</ele>
        <time>2025-12-19T10:56:23.904Z</time>
      </trkpt>
      <trkpt lon="8.132967" lat="53.529486">
        <ele>404.372</ele>
        <time>2025-12-19T10:56:37.916Z</time>
      </trkpt>
      <trkpt lon="8.118916" lat="53.525095">
        <ele>433.879</ele>
        <time>2025-12-19T10:56:55.124Z</time>
      </trkpt>
      <trkpt lon="8.104854" lat="53.520799">
        <ele>398.841</ele>
        <time>2025-12-19T10:57:13.744Z</time>
      </trkpt>
      <trkpt lon="8.099293" lat="53.519271">
        <ele>380.213</ele>
        <time>2025-12-19T10:57:20.332Z</time>
      </trkpt>
      <trkpt lon="8.094835" lat="53.518003">
        <ele>382.388</ele>
        <time>2025-12-19T10:57:25.132Z</time>
      </trkpt>
      <trkpt lon="8.084313" lat="53.515283">
        <ele>391.794</ele>
        <time>2025-12-19T10:57:35.696Z</time>
      </trkpt>
      <trkpt lon="8.079239" lat="53.514209">
        <ele>404.49</ele>
        <time>2025-12-19T10:57:40.992Z</time>
      </trkpt>
      <trkpt lon="8.074551" lat="53.513341">
        <ele>394.447</ele>
        <time>2025-12-19T10:57:46.304Z</time>
      </trkpt>
      <trkpt lon="8.069545" lat="53.512667">
        <ele>374.715</ele>
        <time>2025-12-19T10:57:52.308Z</time>
      </trkpt>
      <trkpt lon="8.069006" lat="53.512603">
        <ele>371.9</ele>
        <time>2025-12-19T10:57:52.996Z</time>
      </trkpt>
      <trkpt lon="8.067472" lat="53.512492">
        <ele>357.863</ele>
        <time>2025-12-19T10:57:54.976Z</time>
      </trkpt>
      <trkpt lon="8.066482" lat="53.512454">
        <ele>344.693</ele>
        <time>2025-12-19T10:57:56.260Z</time>
      </trkpt>
      <trkpt lon="8.064440" lat="53.512523">
        <ele>307.714</ele>
        <time>2025-12-19T10:57:58.924Z</time>
      </trkpt>
      <trkpt lon="8.063941" lat="53.512594">
        <ele>294.876</ele>
        <time>2025-12-19T10:57:59.600Z</time>
      </trkpt>
      <trkpt lon="8.063448" lat="53.512689">
        <ele>279.666</ele>
        <time>2025-12-19T10:58:00.268Z</time>
      </trkpt>
      <trkpt lon="8.062494" lat="53.512934">
        <ele>245.286</ele>
        <time>2025-12-19T10:58:01.576Z</time>
      </trkpt>
      <trkpt lon="8.061440" lat="53.513148">
        <ele>211.945</ele>
        <time>2025-12-19T10:58:02.872Z</time>
      </trkpt>
      <trkpt lon="8.060848" lat="53.513173">
        <ele>194.483</ele>
        <time>2025-12-19T10:58:03.536Z</time>
      </trkpt>
      <trkpt lon="8.060246" lat="53.513094">
        <ele>179.22</ele>
        <time>2025-12-19T10:58:04.228Z</time>
      </trkpt>
      <trkpt lon="8.059733" lat="53.512942">
        <ele>167.591</ele>
        <time>2025-12-19T10:58:04.860Z</time>
      </trkpt>
      <trkpt lon="8.059261" lat="53.512735">
        <ele>156.531</ele>
        <time>2025-12-19T10:58:05.512Z</time>
      </trkpt>
      <trkpt lon="8.058841" lat="53.512468">
        <ele>146.821</ele>
        <time>2025-12-19T10:58:06.180Z</time>
      </trkpt>
      <trkpt lon="8.057898" lat="53.511592">
        <ele>116.059</ele>
        <time>2025-12-19T10:58:08.192Z</time>
      </trkpt>
      <trkpt lon="8.057426" lat="53.510985">
        <ele>90.5736</ele>
        <time>2025-12-19T10:58:09.520Z</time>
      </trkpt>
      <trkpt lon="8.057062" lat="53.510355">
        <ele>65.5443</ele>
        <time>2025-12-19T10:58:10.844Z</time>
      </trkpt>
      <trkpt lon="8.056758" lat="53.509708">
        <ele>47.6751</ele>
        <time>2025-12-19T10:58:12.172Z</time>
      </trkpt>
      <trkpt lon="8.056335" lat="53.508753">
        <ele>30.3809</ele>
        <time>2025-12-19T10:58:14.164Z</time>
      </trkpt>
      <trkpt lon="8.055603" lat="53.507282">
        <ele>15.4973</ele>
        <time>2025-12-19T10:58:17.536Z</time>
      </trkpt>
      <trkpt lon="8.054940" lat="53.506242">
        <ele>10.2623</ele>
        <time>2025-12-19T10:58:20.268Z</time>
      </trkpt>
      <trkpt lon="8.054189" lat="53.505173">
        <ele>8.82552</ele>
        <time>2025-12-19T10:58:23.560Z</time>
      </trkpt>
      <trkpt lon="8.053421" lat="53.504090">
        <ele>7.07352</ele>
        <time>2025-12-19T10:58:27.504Z</time>
      </trkpt>
      <trkpt lon="8.052995" lat="53.503456">
        <ele>7.1168</ele>
        <time>2025-12-19T10:58:30.192Z</time>
      </trkpt>
      <trkpt lon="8.052831" lat="53.503212">
        <ele>7.18802</ele>
        <time>2025-12-19T10:58:31.532Z</time>
      </trkpt>
      <trkpt lon="8.051929" lat="53.501767">
        <ele>6.63058</ele>
        <time>2025-12-19T10:58:42.164Z</time>
      </trkpt>
      <trkpt lon="8.051161" lat="53.500617">
        <ele>6.49231</ele>
        <time>2025-12-19T10:58:52.184Z</time>
      </trkpt>
      <trkpt lon="8.050767" lat="53.500045">
        <ele>6.25181</ele>
        <time>2025-12-19T10:58:57.584Z</time>
      </trkpt>
      <trkpt lon="8.050703" lat="53.499989">
        <ele>6.24918</ele>
        <time>2025-12-19T10:58:58.248Z</time>
      </trkpt>
      <trkpt lon="8.050624" lat="53.499940">
        <ele>6.2624</ele>
        <time>2025-12-19T10:58:58.928Z</time>
      </trkpt>
      <trkpt lon="8.050529" lat="53.499900">
        <ele>6.2827</ele>
        <time>2025-12-19T10:58:59.632Z</time>
      </trkpt>
      <trkpt lon="8.050434" lat="53.499871">
        <ele>6.32039</ele>
        <time>2025-12-19T10:59:00.288Z</time>
      </trkpt>
      <trkpt lon="8.050244" lat="53.499830">
        <ele>6.42238</ele>
        <time>2025-12-19T10:59:01.596Z</time>
      </trkpt>
      <trkpt lon="8.050162" lat="53.499822">
        <ele>6.46824</ele>
        <time>2025-12-19T10:59:02.264Z</time>
      </trkpt>
      <trkpt lon="8.050083" lat="53.499823">
        <ele>6.50593</ele>
        <time>2025-12-19T10:59:02.920Z</time>
      </trkpt>
      <trkpt lon="8.050007" lat="53.499832">
        <ele>6.53491</ele>
        <time>2025-12-19T10:59:03.580Z</time>
      </trkpt>
      <trkpt lon="8.049787" lat="53.499875">
        <ele>6.55808</ele>
        <time>2025-12-19T10:59:05.568Z</time>
      </trkpt>
      <trkpt lon="8.049641" lat="53.499913">
        <ele>6.56965</ele>
        <time>2025-12-19T10:59:06.936Z</time>
      </trkpt>
      <trkpt lon="8.049582" lat="53.499937">
        <ele>6.5865</ele>
        <time>2025-12-19T10:59:07.588Z</time>
      </trkpt>
      <trkpt lon="8.049526" lat="53.499967">
        <ele>6.58556</ele>
        <time>2025-12-19T10:59:08.248Z</time>
      </trkpt>
      <trkpt lon="8.049479" lat="53.500003">
        <ele>6.58383</ele>
        <time>2025-12-19T10:59:08.900Z</time>
      </trkpt>
      <trkpt lon="8.049445" lat="53.500044">
        <ele>6.58307</ele>
        <time>2025-12-19T10:59:09.560Z</time>
      </trkpt>
      <trkpt lon="8.049427" lat="53.500090">
        <ele>6.58443</ele>
        <time>2025-12-19T10:59:10.232Z</time>
      </trkpt>
      <trkpt lon="8.049425" lat="53.500138">
        <ele>6.58117</ele>
        <time>2025-12-19T10:59:10.900Z</time>
      </trkpt>
      <trkpt lon="8.049488" lat="53.500627">
        <ele>6.57179</ele>
        <time>2025-12-19T10:59:16.812Z</time>
      </trkpt>
      <trkpt lon="8.049598" lat="53.501270">
        <ele>6.56928</ele>
        <time>2025-12-19T10:59:21.412Z</time>
      </trkpt>
      <trkpt lon="8.049730" lat="53.502143">
        <ele>6.55362</ele>
        <time>2025-12-19T10:59:26.752Z</time>
      </trkpt>
      <trkpt lon="8.049750" lat="53.502285">
        <ele>6.557</ele>
        <time>2025-12-19T10:59:28.080Z</time>
      </trkpt>
      <trkpt lon="8.049778" lat="53.502401">
        <ele>6.55557</ele>
        <time>2025-12-19T10:59:29.372Z</time>
      </trkpt>
      <trkpt lon="8.049777" lat="53.502451">
        <ele>6.55216</ele>
        <time>2025-12-19T10:59:30.036Z</time>
      </trkpt>
      <trkpt lon="8.049756" lat="53.502533">
        <ele>6.55104</ele>
        <time>2025-12-19T10:59:31.356Z</time>
      </trkpt>
      <trkpt lon="8.049725" lat="53.502592">
        <ele>6.54933</ele>
        <time>2025-12-19T10:59:32.692Z</time>
      </trkpt>
      <trkpt lon="8.049637" lat="53.502750">
        <ele>6.54706</ele>
        <time>2025-12-19T10:59:35.976Z</time>
      </trkpt>
      <trkpt lon="8.049611" lat="53.502807">
        <ele>6.54863</ele>
        <time>2025-12-19T10:59:36.644Z</time>
      </trkpt>
      <trkpt lon="8.049595" lat="53.502870">
        <ele>6.55168</ele>
        <time>2025-12-19T10:59:37.300Z</time>
      </trkpt>
      <trkpt lon="8.049589" lat="53.502944">
        <ele>6.54878</ele>
        <time>2025-12-19T10:59:37.980Z</time>
      </trkpt>
      <trkpt lon="8.049608" lat="53.503106">
        <ele>6.54696</ele>
        <time>2025-12-19T10:59:39.332Z</time>
      </trkpt>
      <trkpt lon="8.049675" lat="53.503417">
        <ele>6.55001</ele>
        <time>2025-12-19T10:59:41.288Z</time>
      </trkpt>
      <trkpt lon="8.049834" lat="53.504025">
        <ele>6.54533</ele>
        <time>2025-12-19T10:59:44.584Z</time>
      </trkpt>
      <trkpt lon="8.050102" lat="53.504624">
        <ele>6.52979</ele>
        <time>2025-12-19T10:59:48.508Z</time>
      </trkpt>
      <trkpt lon="8.050137" lat="53.504795">
        <ele>6.53934</ele>
        <time>2025-12-19T10:59:49.824Z</time>
      </trkpt>
      <trkpt lon="8.050230" lat="53.505107">
        <ele>6.39285</ele>
        <time>2025-12-19T10:59:51.820Z</time>
      </trkpt>
      <trkpt lon="8.050376" lat="53.505650">
        <ele>6.51359</ele>
        <time>2025-12-19T10:59:54.436Z</time>
      </trkpt>
      <trkpt lon="8.050533" lat="53.506053">
        <ele>6.53718</ele>
        <time>2025-12-19T10:59:56.432Z</time>
      </trkpt>
      <trkpt lon="8.050649" lat="53.506320">
        <ele>6.53959</ele>
        <time>2025-12-19T10:59:58.420Z</time>
      </trkpt>
      <trkpt lon="8.050700" lat="53.506390">
        <ele>6.53753</ele>
        <time>2025-12-19T10:59:59.104Z</time>
      </trkpt>
      <trkpt lon="8.050759" lat="53.506447">
        <ele>6.53853</ele>
        <time>2025-12-19T10:59:59.760Z</time>
      </trkpt>
      <trkpt lon="8.050825" lat="53.506496">
        <ele>6.53476</ele>
        <time>2025-12-19T11:00:00.436Z</time>
      </trkpt>
      <trkpt lon="8.050973" lat="53.506576">
        <ele>6.53701</ele>
        <time>2025-12-19T11:00:01.764Z</time>
      </trkpt>
      <trkpt lon="8.051118" lat="53.506641">
        <ele>6.53731</ele>
        <time>2025-12-19T11:00:03.080Z</time>
      </trkpt>
      <trkpt lon="8.051184" lat="53.506663">
        <ele>6.53422</ele>
        <time>2025-12-19T11:00:03.720Z</time>
      </trkpt>
      <trkpt lon="8.051388" lat="53.506716">
        <ele>6.54007</ele>
        <time>2025-12-19T11:00:05.752Z</time>
      </trkpt>
      <trkpt lon="8.051541" lat="53.506741">
        <ele>6.53801</ele>
        <time>2025-12-19T11:00:07.088Z</time>
      </trkpt>
      <trkpt lon="8.051722" lat="53.506754">
        <ele>6.53722</ele>
        <time>2025-12-19T11:00:08.432Z</time>
      </trkpt>
      <trkpt lon="8.052211" lat="53.506759">
        <ele>6.54359</ele>
        <time>2025-12-19T11:00:13.076Z</time>
      </trkpt>
      <trkpt lon="8.052338" lat="53.506756">
        <ele>6.53608</ele>
        <time>2025-12-19T11:00:16.420Z</time>
      </trkpt>
      <trkpt lon="8.052382" lat="53.506752">
        <ele>6.53836</ele>
        <time>2025-12-19T11:00:17.752Z</time>
      </trkpt>
      <trkpt lon="8.052419" lat="53.506744">
        <ele>6.53748</ele>
        <time>2025-12-19T11:00:19.072Z</time>
      </trkpt>
      <trkpt lon="8.052439" lat="53.506739">
        <ele>6.53767</ele>
        <time>2025-12-19T11:00:19.728Z</time>
      </trkpt>
      <trkpt lon="8.052455" lat="53.506733">
        <ele>6.53886</ele>
        <time>2025-12-19T11:00:20.404Z</time>
      </trkpt>
      <trkpt lon="8.052468" lat="53.506726">
        <ele>6.53703</ele>
        <time>2025-12-19T11:00:21.044Z</time>
      </trkpt>
      <trkpt lon="8.052485" lat="53.506714">
        <ele>6.53813</ele>
        <time>2025-12-19T11:00:21.776Z</time>
      </trkpt>
      <trkpt lon="8.052500" lat="53.506701">
        <ele>6.53711</ele>
        <time>2025-12-19T11:00:22.460Z</time>
      </trkpt>
      <trkpt lon="8.052512" lat="53.506683">
        <ele>6.53952</ele>
        <time>2025-12-19T11:00:23.136Z</time>
      </trkpt>
      <trkpt lon="8.052520" lat="53.506663">
        <ele>6.53984</ele>
        <time>2025-12-19T11:00:23.820Z</time>
      </trkpt>
      <trkpt lon="8.052525" lat="53.506637">
        <ele>6.53671</ele>
        <time>2025-12-19T11:00:25.184Z</time>
      </trkpt>
      <trkpt lon="8.052527" lat="53.506599">
        <ele>6.53669</ele>
        <time>2025-12-19T11:00:35.752Z</time>
      </trkpt>
    </trkseg>
    <trkseg>
      <trkpt lon="-115.782362" lat="60.838436">
        <ele>163.419</ele>
        <time>2025-12-20T07:54:08.052Z</time>
      </trkpt>
    </trkseg>
    <trkseg>
      <trkpt lon="-95.024569" lat="33.143673">
        <ele>125.27</ele>
        <time>2025-12-20T13:06:31.100Z</time>
      </trkpt>
      <trkpt lon="-95.024536" lat="33.143662">
        <ele>125.202</ele>
        <time>2025-12-20T13:18:11.276Z</time>
      </trkpt>
      <trkpt lon="-95.024523" lat="33.143658">
        <ele>125.203</ele>
        <time>2025-12-20T13:18:11.968Z</time>
      </trkpt>
      <trkpt lon="-95.024484" lat="33.143655">
        <ele>125.245</ele>
        <time>2025-12-20T13:18:13.248Z</time>
      </trkpt>
      <trkpt lon="-95.024216" lat="33.143643">
        <ele>124.737</ele>
        <time>2025-12-20T13:18:20.560Z</time>
      </trkpt>
      <trkpt lon="-95.024191" lat="33.143639">
        <ele>124.689</ele>
        <time>2025-12-20T13:18:21.248Z</time>
      </trkpt>
      <trkpt lon="-95.024169" lat="33.143634">
        <ele>124.635</ele>
        <time>2025-12-20T13:18:21.884Z</time>
      </trkpt>
      <trkpt lon="-95.024142" lat="33.143624">
        <ele>124.436</ele>
        <time>2025-12-20T13:18:22.596Z</time>
      </trkpt>
      <trkpt lon="-95.024047" lat="33.143570">
        <ele>124.418</ele>
        <time>2025-12-20T13:18:23.932Z</time>
      </trkpt>
      <trkpt lon="-95.023992" lat="33.143515">
        <ele>124.314</ele>
        <time>2025-12-20T13:18:24.596Z</time>
      </trkpt>
      <trkpt lon="-95.023894" lat="33.143348">
        <ele>124.482</ele>
        <time>2025-12-20T13:18:25.904Z</time>
      </trkpt>
      <trkpt lon="-95.023780" lat="33.143121">
        <ele>124.321</ele>
        <time>2025-12-20T13:18:27.176Z</time>
      </trkpt>
      <trkpt lon="-95.023554" lat="33.142663">
        <ele>125.701</ele>
        <time>2025-12-20T13:18:29.164Z</time>
      </trkpt>
      <trkpt lon="-95.023237" lat="33.142117">
        <ele>127.762</ele>
        <time>2025-12-20T13:18:31.156Z</time>
      </trkpt>
      <trkpt lon="-95.022351" lat="33.140608">
        <ele>147.572</ele>
        <time>2025-12-20T13:18:35.900Z</time>
      </trkpt>
      <trkpt lon="-95.021843" lat="33.139712">
        <ele>165.713</ele>
        <time>2025-12-20T13:18:38.632Z</time>
      </trkpt>
      <trkpt lon="-95.021392" lat="33.138836">
        <ele>185.264</ele>
        <time>2025-12-20T13:18:41.344Z</time>
      </trkpt>
      <trkpt lon="-95.021009" lat="33.137974">
        <ele>206.373</ele>
        <time>2025-12-20T13:18:44.048Z</time>
      </trkpt>
      <trkpt lon="-95.020607" lat="33.137160">
        <ele>228.032</ele>
        <time>2025-12-20T13:18:46.712Z</time>
      </trkpt>
      <trkpt lon="-95.020119" lat="33.136401">
        <ele>248.713</ele>
        <time>2025-12-20T13:18:49.368Z</time>
      </trkpt>
      <trkpt lon="-95.019522" lat="33.135692">
        <ele>265.749</ele>
        <time>2025-12-20T13:18:52.024Z</time>
      </trkpt>
      <trkpt lon="-95.018591" lat="33.134848">
        <ele>283.164</ele>
        <time>2025-12-20T13:18:55.356Z</time>
      </trkpt>
      <trkpt lon="-95.017246" lat="33.133888">
        <ele>302.341</ele>
        <time>2025-12-20T13:18:59.404Z</time>
      </trkpt>
      <trkpt lon="-95.016266" lat="33.133330">
        <ele>314.743</ele>
        <time>2025-12-20T13:19:02.016Z</time>
      </trkpt>
      <trkpt lon="-95.014941" lat="33.132734">
        <ele>330.739</ele>
        <time>2025-12-20T13:19:05.224Z</time>
      </trkpt>
      <trkpt lon="-95.012863" lat="33.132092">
        <ele>358.12</ele>
        <time>2025-12-20T13:19:09.784Z</time>
      </trkpt>
      <trkpt lon="-95.011896" lat="33.131902">
        <ele>366.944</ele>
        <time>2025-12-20T13:19:11.760Z</time>
      </trkpt>
      <trkpt lon="-95.010885" lat="33.131785">
        <ele>373.872</ele>
        <time>2025-12-20T13:19:13.980Z</time>
      </trkpt>
      <trkpt lon="-95.009398" lat="33.131763">
        <ele>379.224</ele>
        <time>2025-12-20T13:19:16.652Z</time>
      </trkpt>
      <trkpt lon="-95.008220" lat="33.131853">
        <ele>380.524</ele>
        <time>2025-12-20T13:19:18.656Z</time>
      </trkpt>
      <trkpt lon="-95.006590" lat="33.132103">
        <ele>381.85</ele>
        <time>2025-12-20T13:19:21.304Z</time>
      </trkpt>
      <trkpt lon="-95.003644" lat="33.132654">
        <ele>398.736</ele>
        <time>2025-12-20T13:19:25.912Z</time>
      </trkpt>
      <trkpt lon="-95.001985" lat="33.132898">
        <ele>412.604</ele>
        <time>2025-12-20T13:19:28.528Z</time>
      </trkpt>
      <trkpt lon="-94.998267" lat="33.133384">
        <ele>448.28</ele>
        <time>2025-12-20T13:19:34.436Z</time>
      </trkpt>
      <trkpt lon="-94.995895" lat="33.133754">
        <ele>475.506</ele>
        <time>2025-12-20T13:19:38.340Z</time>
      </trkpt>
      <trkpt lon="-94.994240" lat="33.134178">
        <ele>493.377</ele>
        <time>2025-12-20T13:19:41.024Z</time>
      </trkpt>
      <trkpt lon="-94.988233" lat="33.135894">
        <ele>527.84</ele>
        <time>2025-12-20T13:19:50.312Z</time>
      </trkpt>
      <trkpt lon="-94.981425" lat="33.137444">
        <ele>564.965</ele>
        <time>2025-12-20T13:20:00.144Z</time>
      </trkpt>
      <trkpt lon="-94.978823" lat="33.137950">
        <ele>595.864</ele>
        <time>2025-12-20T13:20:04.044Z</time>
      </trkpt>
      <trkpt lon="-94.974654" lat="33.138569">
        <ele>636.781</ele>
        <time>2025-12-20T13:20:10.584Z</time>
      </trkpt>
      <trkpt lon="-94.968938" lat="33.139289">
        <ele>660.184</ele>
        <time>2025-12-20T13:20:19.168Z</time>
      </trkpt>
      <trkpt lon="-94.962551" lat="33.140333">
        <ele>703.379</ele>
        <time>2025-12-20T13:20:28.360Z</time>
      </trkpt>
      <trkpt lon="-94.957497" lat="33.141267">
        <ele>737.998</ele>
        <time>2025-12-20T13:20:35.668Z</time>
      </trkpt>
      <trkpt lon="-94.945818" lat="33.143632">
        <ele>785.618</ele>
        <time>2025-12-20T13:20:51.544Z</time>
      </trkpt>
      <trkpt lon="-94.942960" lat="33.144212">
        <ele>812.754</ele>
        <time>2025-12-20T13:20:55.512Z</time>
      </trkpt>
      <trkpt lon="-94.938720" lat="33.145298">
        <ele>847.465</ele>
        <time>2025-12-20T13:21:01.496Z</time>
      </trkpt>
      <trkpt lon="-94.930130" lat="33.147643">
        <ele>899.487</ele>
        <time>2025-12-20T13:21:13.408Z</time>
      </trkpt>
      <trkpt lon="-94.921957" lat="33.149788">
        <ele>954.777</ele>
        <time>2025-12-20T13:21:24.564Z</time>
      </trkpt>
      <trkpt lon="-94.911524" lat="33.153047">
        <ele>1006.4</ele>
        <time>2025-12-20T13:21:39.016Z</time>
      </trkpt>
      <trkpt lon="-94.899049" lat="33.157518">
        <ele>1054.96</ele>
        <time>2025-12-20T13:21:56.252Z</time>
      </trkpt>
      <trkpt lon="-94.890614" lat="33.161040">
        <ele>1057.88</ele>
        <time>2025-12-20T13:22:08.108Z</time>
      </trkpt>
      <trkpt lon="-94.879062" lat="33.166596">
        <ele>1052.02</ele>
        <time>2025-12-20T13:22:24.064Z</time>
      </trkpt>
      <trkpt lon="-94.874450" lat="33.169216">
        <ele>1051.36</ele>
        <time>2025-12-20T13:22:30.680Z</time>
      </trkpt>
      <trkpt lon="-94.871835" lat="33.170940">
        <ele>1051.17</ele>
        <time>2025-12-20T13:22:34.608Z</time>
      </trkpt>
      <trkpt lon="-94.869780" lat="33.172490">
        <ele>1051.56</ele>
        <time>2025-12-20T13:22:37.880Z</time>
      </trkpt>
      <trkpt lon="-94.867841" lat="33.174162">
        <ele>1051.8</ele>
        <time>2025-12-20T13:22:41.172Z</time>
      </trkpt>
      <trkpt lon="-94.866414" lat="33.175567">
        <ele>1052.4</ele>
        <time>2025-12-20T13:22:43.776Z</time>
      </trkpt>
      <trkpt lon="-94.865088" lat="33.177058">
        <ele>1053.14</ele>
        <time>2025-12-20T13:22:46.416Z</time>
      </trkpt>
      <trkpt lon="-94.861718" lat="33.181230">
        <ele>1048.21</ele>
        <time>2025-12-20T13:22:53.652Z</time>
      </trkpt>
      <trkpt lon="-94.860604" lat="33.182282">
        <ele>1043.79</ele>
        <time>2025-12-20T13:22:55.624Z</time>
      </trkpt>
      <trkpt lon="-94.858973" lat="33.183601">
        <ele>1042.75</ele>
        <time>2025-12-20T13:22:58.260Z</time>
      </trkpt>
      <trkpt lon="-94.856794" lat="33.185135">
        <ele>1043.85</ele>
        <time>2025-12-20T13:23:01.584Z</time>
      </trkpt>
      <trkpt lon="-94.852769" lat="33.187607">
        <ele>1055.99</ele>
        <time>2025-12-20T13:23:07.500Z</time>
      </trkpt>
      <trkpt lon="-94.839849" lat="33.195375">
        <ele>1052.1</ele>
        <time>2025-12-20T13:23:26.492Z</time>
      </trkpt>
      <trkpt lon="-94.830233" lat="33.201777">
        <ele>1056.62</ele>
        <time>2025-12-20T13:23:40.864Z</time>
      </trkpt>
      <trkpt lon="-94.828849" lat="33.202531">
        <ele>1058.89</ele>
        <time>2025-12-20T13:23:42.840Z</time>
      </trkpt>
      <trkpt lon="-94.826958" lat="33.203415">
        <ele>1059.11</ele>
        <time>2025-12-20T13:23:45.444Z</time>
      </trkpt>
      <trkpt lon="-94.823984" lat="33.204597">
        <ele>1057.83</ele>
        <time>2025-12-20T13:23:49.400Z</time>
      </trkpt>
      <trkpt lon="-94.821432" lat="33.205433">
        <ele>1055.29</ele>
        <time>2025-12-20T13:23:52.688Z</time>
      </trkpt>
      <trkpt lon="-94.816809" lat="33.206622">
        <ele>1048.13</ele>
        <time>2025-12-20T13:23:58.508Z</time>
      </trkpt>
      <trkpt lon="-94.792964" lat="33.212236">
        <ele>1056.52</ele>
        <time>2025-12-20T13:24:28.656Z</time>
      </trkpt>
      <trkpt lon="-94.778862" lat="33.214808">
        <ele>1059.4</ele>
        <time>2025-12-20T13:24:46.348Z</time>
      </trkpt>
      <trkpt lon="-94.754441" lat="33.219044">
        <ele>1042.97</ele>
        <time>2025-12-20T13:25:16.972Z</time>
      </trkpt>
      <trkpt lon="-94.730748" lat="33.223957">
        <ele>1041.68</ele>
        <time>2025-12-20T13:25:47.172Z</time>
      </trkpt>
      <trkpt lon="-94.720969" lat="33.225691">
        <ele>1043.64</ele>
        <time>2025-12-20T13:25:59.596Z</time>
      </trkpt>
      <trkpt lon="-94.717379" lat="33.226094">
        <ele>1040.95</ele>
        <time>2025-12-20T13:26:04.156Z</time>
      </trkpt>
      <trkpt lon="-94.714853" lat="33.226207">
        <ele>1039.34</ele>
        <time>2025-12-20T13:26:07.404Z</time>
      </trkpt>
      <trkpt lon="-94.711827" lat="33.226150">
        <ele>1037.83</ele>
        <time>2025-12-20T13:26:11.360Z</time>
      </trkpt>
      <trkpt lon="-94.688544" lat="33.225086">
        <ele>1006.35</ele>
        <time>2025-12-20T13:26:41.396Z</time>
      </trkpt>
      <trkpt lon="-94.684444" lat="33.225079">
        <ele>1008.35</ele>
        <time>2025-12-20T13:26:46.664Z</time>
      </trkpt>
      <trkpt lon="-94.677649" lat="33.225484">
        <ele>1012.51</ele>
        <time>2025-12-20T13:26:55.308Z</time>
      </trkpt>
      <trkpt lon="-94.668350" lat="33.226514">
        <ele>1015.52</ele>
        <time>2025-12-20T13:27:07.084Z</time>
      </trkpt>
      <trkpt lon="-94.655206" lat="33.228825">
        <ele>1015.77</ele>
        <time>2025-12-20T13:27:23.548Z</time>
      </trkpt>
      <trkpt lon="-94.638005" lat="33.232753">
        <ele>1017.98</ele>
        <time>2025-12-20T13:27:45.084Z</time>
      </trkpt>
      <trkpt lon="-94.622990" lat="33.237045">
        <ele>1026.23</ele>
        <time>2025-12-20T13:28:04.084Z</time>
      </trkpt>
      <trkpt lon="-94.607724" lat="33.242303">
        <ele>1012.23</ele>
        <time>2025-12-20T13:28:23.792Z</time>
      </trkpt>
      <trkpt lon="-94.595109" lat="33.247386">
        <ele>1004.32</ele>
        <time>2025-12-20T13:28:40.920Z</time>
      </trkpt>
      <trkpt lon="-94.582069" lat="33.253452">
        <ele>991.474</ele>
        <time>2025-12-20T13:28:59.392Z</time>
      </trkpt>
      <trkpt lon="-94.580792" lat="33.254100">
        <ele>987.766</ele>
        <time>2025-12-20T13:29:01.332Z</time>
      </trkpt>
      <trkpt lon="-94.579245" lat="33.254907">
        <ele>979.96</ele>
        <time>2025-12-20T13:29:03.880Z</time>
      </trkpt>
      <trkpt lon="-94.574286" lat="33.257622">
        <ele>924.592</ele>
        <time>2025-12-20T13:29:12.784Z</time>
      </trkpt>
      <trkpt lon="-94.569992" lat="33.260134">
        <ele>872.427</ele>
        <time>2025-12-20T13:29:20.468Z</time>
      </trkpt>
      <trkpt lon="-94.567787" lat="33.261470">
        <ele>860.84</ele>
        <time>2025-12-20T13:29:24.288Z</time>
      </trkpt>
      <trkpt lon="-94.564207" lat="33.263667">
        <ele>854.197</ele>
        <time>2025-12-20T13:29:30.020Z</time>
      </trkpt>
      <trkpt lon="-94.554977" lat="33.269637">
        <ele>852.894</ele>
        <time>2025-12-20T13:29:43.984Z</time>
      </trkpt>
      <trkpt lon="-94.534240" lat="33.283475">
        <ele>856.894</ele>
        <time>2025-12-20T13:30:14.460Z</time>
      </trkpt>
      <trkpt lon="-94.513055" lat="33.296904">
        <ele>853.366</ele>
        <time>2025-12-20T13:30:44.908Z</time>
      </trkpt>
      <trkpt lon="-94.491880" lat="33.309505">
        <ele>859.6</ele>
        <time>2025-12-20T13:31:15.012Z</time>
      </trkpt>
      <trkpt lon="-94.469897" lat="33.321809">
        <ele>870.834</ele>
        <time>2025-12-20T13:31:45.584Z</time>
      </trkpt>
      <trkpt lon="-94.447481" lat="33.333613">
        <ele>870.805</ele>
        <time>2025-12-20T13:32:16.084Z</time>
      </trkpt>
      <trkpt lon="-94.424851" lat="33.344729">
        <ele>856.834</ele>
        <time>2025-12-20T13:32:46.544Z</time>
      </trkpt>
      <trkpt lon="-94.402060" lat="33.355159">
        <ele>855.864</ele>
        <time>2025-12-20T13:33:16.980Z</time>
      </trkpt>
      <trkpt lon="-94.379070" lat="33.364910">
        <ele>864.522</ele>
        <time>2025-12-20T13:33:47.400Z</time>
      </trkpt>
      <trkpt lon="-94.355647" lat="33.374046">
        <ele>872.889</ele>
        <time>2025-12-20T13:34:17.780Z</time>
      </trkpt>
      <trkpt lon="-94.331870" lat="33.382597">
        <ele>877.537</ele>
        <time>2025-12-20T13:34:48.272Z</time>
      </trkpt>
      <trkpt lon="-94.313830" lat="33.388487">
        <ele>877.754</ele>
        <time>2025-12-20T13:35:11.100Z</time>
      </trkpt>
      <trkpt lon="-94.303832" lat="33.391089">
        <ele>883.135</ele>
        <time>2025-12-20T13:35:23.724Z</time>
      </trkpt>
      <trkpt lon="-94.294779" lat="33.392942">
        <ele>884.166</ele>
        <time>2025-12-20T13:35:35.192Z</time>
      </trkpt>
      <trkpt lon="-94.283797" lat="33.394473">
        <ele>885.735</ele>
        <time>2025-12-20T13:35:49.112Z</time>
      </trkpt>
      <trkpt lon="-94.264813" lat="33.396048">
        <ele>889.644</ele>
        <time>2025-12-20T13:36:13.256Z</time>
      </trkpt>
      <trkpt lon="-94.241421" lat="33.396546">
        <ele>899.253</ele>
        <time>2025-12-20T13:36:43.680Z</time>
      </trkpt>
      <trkpt lon="-94.218239" lat="33.396303">
        <ele>905.97</ele>
        <time>2025-12-20T13:37:14.172Z</time>
      </trkpt>
      <trkpt lon="-94.196421" lat="33.395417">
        <ele>920.877</ele>
        <time>2025-12-20T13:37:44.352Z</time>
      </trkpt>
      <trkpt lon="-94.174109" lat="33.394041">
        <ele>944.413</ele>
        <time>2025-12-20T13:38:14.720Z</time>
      </trkpt>
      <trkpt lon="-94.153116" lat="33.392173">
        <ele>976.399</ele>
        <time>2025-12-20T13:38:44.768Z</time>
      </trkpt>
      <trkpt lon="-94.131667" lat="33.389474">
        <ele>1007.54</ele>
        <time>2025-12-20T13:39:15.200Z</time>
      </trkpt>
      <trkpt lon="-94.115299" lat="33.387050">
        <ele>1066.54</ele>
        <time>2025-12-20T13:39:39.472Z</time>
      </trkpt>
      <trkpt lon="-94.094922" lat="33.383203">
        <ele>1094.73</ele>
        <time>2025-12-20T13:40:10.072Z</time>
      </trkpt>
      <trkpt lon="-94.074410" lat="33.378455">
        <ele>1102.7</ele>
        <time>2025-12-20T13:40:40.692Z</time>
      </trkpt>
      <trkpt lon="-94.054365" lat="33.373065">
        <ele>1106.18</ele>
        <time>2025-12-20T13:41:11.232Z</time>
      </trkpt>
      <trkpt lon="-94.048048" lat="33.370892">
        <ele>1108.27</ele>
        <time>2025-12-20T13:41:21.428Z</time>
      </trkpt>
      <trkpt lon="-94.042177" lat="33.368395">
        <ele>1111.01</ele>
        <time>2025-12-20T13:41:31.576Z</time>
      </trkpt>
      <trkpt lon="-94.037383" lat="33.365938">
        <ele>1115.24</ele>
        <time>2025-12-20T13:41:40.448Z</time>
      </trkpt>
      <trkpt lon="-94.033293" lat="33.363441">
        <ele>1119.81</ele>
        <time>2025-12-20T13:41:48.740Z</time>
      </trkpt>
      <trkpt lon="-94.029330" lat="33.360571">
        <ele>1122.65</ele>
        <time>2025-12-20T13:41:57.672Z</time>
      </trkpt>
      <trkpt lon="-94.027997" lat="33.359544">
        <ele>1122.68</ele>
        <time>2025-12-20T13:42:00.820Z</time>
      </trkpt>
      <trkpt lon="-94.027365" lat="33.359168">
        <ele>1122.13</ele>
        <time>2025-12-20T13:42:02.108Z</time>
      </trkpt>
      <trkpt lon="-94.026672" lat="33.358841">
        <ele>1121.99</ele>
        <time>2025-12-20T13:42:03.368Z</time>
      </trkpt>
      <trkpt lon="-94.025530" lat="33.358412">
        <ele>1122.38</ele>
        <time>2025-12-20T13:42:05.300Z</time>
      </trkpt>
      <trkpt lon="-94.024288" lat="33.358052">
        <ele>1123.12</ele>
        <time>2025-12-20T13:42:07.240Z</time>
      </trkpt>
      <trkpt lon="-94.022556" lat="33.357685">
        <ele>1124.61</ele>
        <time>2025-12-20T13:42:09.792Z</time>
      </trkpt>
      <trkpt lon="-94.020741" lat="33.357425">
        <ele>1126.03</ele>
        <time>2025-12-20T13:42:12.364Z</time>
      </trkpt>
      <trkpt lon="-94.018894" lat="33.357272">
        <ele>1127.59</ele>
        <time>2025-12-20T13:42:14.912Z</time>
      </trkpt>
      <trkpt lon="-94.017003" lat="33.357247">
        <ele>1129.14</ele>
        <time>2025-12-20T13:42:17.440Z</time>
      </trkpt>
      <trkpt lon="-94.015551" lat="33.357319">
        <ele>1130.02</ele>
        <time>2025-12-20T13:42:19.320Z</time>
      </trkpt>
      <trkpt lon="-94.014094" lat="33.357472">
        <ele>1131</ele>
        <time>2025-12-20T13:42:21.208Z</time>
      </trkpt>
      <trkpt lon="-94.002241" lat="33.359065">
        <ele>1137.01</ele>
        <time>2025-12-20T13:42:36.584Z</time>
      </trkpt>
      <trkpt lon="-93.982513" lat="33.360781">
        <ele>1147.08</ele>
        <time>2025-12-20T13:43:02.100Z</time>
      </trkpt>
      <trkpt lon="-93.972657" lat="33.362459">
        <ele>1148.93</ele>
        <time>2025-12-20T13:43:14.756Z</time>
      </trkpt>
      <trkpt lon="-93.948759" lat="33.367052">
        <ele>1157.15</ele>
        <time>2025-12-20T13:43:45.348Z</time>
      </trkpt>
      <trkpt lon="-93.924970" lat="33.370977">
        <ele>1166.58</ele>
        <time>2025-12-20T13:44:15.804Z</time>
      </trkpt>
      <trkpt lon="-93.901153" lat="33.374154">
        <ele>1173.08</ele>
        <time>2025-12-20T13:44:46.336Z</time>
      </trkpt>
      <trkpt lon="-93.877418" lat="33.376622">
        <ele>1183.96</ele>
        <time>2025-12-20T13:45:16.940Z</time>
      </trkpt>
      <trkpt lon="-93.853935" lat="33.378432">
        <ele>1192.32</ele>
        <time>2025-12-20T13:45:47.416Z</time>
      </trkpt>
      <trkpt lon="-93.830415" lat="33.379673">
        <ele>1202.44</ele>
        <time>2025-12-20T13:46:17.996Z</time>
      </trkpt>
      <trkpt lon="-93.806884" lat="33.381471">
        <ele>1207.17</ele>
        <time>2025-12-20T13:46:48.512Z</time>
      </trkpt>
      <trkpt lon="-93.783277" lat="33.384075">
        <ele>1207.23</ele>
        <time>2025-12-20T13:47:19.048Z</time>
      </trkpt>
      <trkpt lon="-93.759542" lat="33.387459">
        <ele>1208.7</ele>
        <time>2025-12-20T13:47:49.636Z</time>
      </trkpt>
      <trkpt lon="-93.736099" lat="33.391524">
        <ele>1217.8</ele>
        <time>2025-12-20T13:48:20.056Z</time>
      </trkpt>
      <trkpt lon="-93.712547" lat="33.396316">
        <ele>1220.99</ele>
        <time>2025-12-20T13:48:50.540Z</time>
      </trkpt>
      <trkpt lon="-93.688903" lat="33.401872">
        <ele>1221.76</ele>
        <time>2025-12-20T13:49:21.000Z</time>
      </trkpt>
      <trkpt lon="-93.665243" lat="33.408159">
        <ele>1214.98</ele>
        <time>2025-12-20T13:49:51.572Z</time>
      </trkpt>
      <trkpt lon="-93.641737" lat="33.415130">
        <ele>1212.6</ele>
        <time>2025-12-20T13:50:22.140Z</time>
      </trkpt>
      <trkpt lon="-93.618638" lat="33.422845">
        <ele>1214.64</ele>
        <time>2025-12-20T13:50:52.708Z</time>
      </trkpt>
      <trkpt lon="-93.595740" lat="33.431316">
        <ele>1210.32</ele>
        <time>2025-12-20T13:51:23.160Z</time>
      </trkpt>
      <trkpt lon="-93.572864" lat="33.440635">
        <ele>1203.77</ele>
        <time>2025-12-20T13:51:53.692Z</time>
      </trkpt>
      <trkpt lon="-93.550573" lat="33.450586">
        <ele>1201.29</ele>
        <time>2025-12-20T13:52:24.108Z</time>
      </trkpt>
      <trkpt lon="-93.528447" lat="33.460964">
        <ele>1197.73</ele>
        <time>2025-12-20T13:52:54.604Z</time>
      </trkpt>
      <trkpt lon="-93.506008" lat="33.470892">
        <ele>1193.25</ele>
        <time>2025-12-20T13:53:25.092Z</time>
      </trkpt>
      <trkpt lon="-93.483268" lat="33.480257">
        <ele>1191.65</ele>
        <time>2025-12-20T13:53:55.644Z</time>
      </trkpt>
      <trkpt lon="-93.460223" lat="33.489012">
        <ele>1180.24</ele>
        <time>2025-12-20T13:54:26.184Z</time>
      </trkpt>
      <trkpt lon="-93.437024" lat="33.497159">
        <ele>1170.04</ele>
        <time>2025-12-20T13:54:56.636Z</time>
      </trkpt>
      <trkpt lon="-93.413608" lat="33.504721">
        <ele>1171.07</ele>
        <time>2025-12-20T13:55:27.164Z</time>
      </trkpt>
      <trkpt lon="-93.390123" lat="33.511778">
        <ele>1168.96</ele>
        <time>2025-12-20T13:55:57.648Z</time>
      </trkpt>
      <trkpt lon="-93.366304" lat="33.518295">
        <ele>1162.13</ele>
        <time>2025-12-20T13:56:28.136Z</time>
      </trkpt>
      <trkpt lon="-93.342224" lat="33.524239">
        <ele>1151.6</ele>
        <time>2025-12-20T13:56:58.668Z</time>
      </trkpt>
      <trkpt lon="-93.318151" lat="33.529579">
        <ele>1151.25</ele>
        <time>2025-12-20T13:57:29.064Z</time>
      </trkpt>
      <trkpt lon="-93.294049" lat="33.534358">
        <ele>1148.93</ele>
        <time>2025-12-20T13:57:59.600Z</time>
      </trkpt>
      <trkpt lon="-93.269872" lat="33.538555">
        <ele>1135.64</ele>
        <time>2025-12-20T13:58:30.116Z</time>
      </trkpt>
      <trkpt lon="-93.245698" lat="33.542174">
        <ele>1122.39</ele>
        <time>2025-12-20T13:59:00.596Z</time>
      </trkpt>
      <trkpt lon="-93.221344" lat="33.545255">
        <ele>1112.72</ele>
        <time>2025-12-20T13:59:31.236Z</time>
      </trkpt>
      <trkpt lon="-93.197467" lat="33.547787">
        <ele>1112.16</ele>
        <time>2025-12-20T14:00:01.604Z</time>
      </trkpt>
      <trkpt lon="-93.173474" lat="33.549744">
        <ele>1114.48</ele>
        <time>2025-12-20T14:00:32.096Z</time>
      </trkpt>
      <trkpt lon="-93.149940" lat="33.551065">
        <ele>1117.22</ele>
        <time>2025-12-20T14:01:02.188Z</time>
      </trkpt>
      <trkpt lon="-93.126069" lat="33.552612">
        <ele>1110.91</ele>
        <time>2025-12-20T14:01:32.636Z</time>
      </trkpt>
      <trkpt lon="-93.101990" lat="33.554933">
        <ele>1106.42</ele>
        <time>2025-12-20T14:02:03.164Z</time>
      </trkpt>
      <trkpt lon="-93.077805" lat="33.558043">
        <ele>1106.18</ele>
        <time>2025-12-20T14:02:33.744Z</time>
      </trkpt>
      <trkpt lon="-93.053695" lat="33.561950">
        <ele>1105.08</ele>
        <time>2025-12-20T14:03:04.244Z</time>
      </trkpt>
      <trkpt lon="-93.032036" lat="33.566188">
        <ele>1092.3</ele>
        <time>2025-12-20T14:03:34.428Z</time>
      </trkpt>
      <trkpt lon="-93.008320" lat="33.571683">
        <ele>1082.29</ele>
        <time>2025-12-20T14:04:04.876Z</time>
      </trkpt>
      <trkpt lon="-92.984880" lat="33.577942">
        <ele>1075.76</ele>
        <time>2025-12-20T14:04:34.964Z</time>
      </trkpt>
      <trkpt lon="-92.961524" lat="33.584996">
        <ele>1068.96</ele>
        <time>2025-12-20T14:05:05.140Z</time>
      </trkpt>
      <trkpt lon="-92.938382" lat="33.592768">
        <ele>1065.55</ele>
        <time>2025-12-20T14:05:35.240Z</time>
      </trkpt>
      <trkpt lon="-92.915454" lat="33.601394">
        <ele>1071.31</ele>
        <time>2025-12-20T14:06:05.452Z</time>
      </trkpt>
      <trkpt lon="-92.892966" lat="33.610714">
        <ele>1080</ele>
        <time>2025-12-20T14:06:35.576Z</time>
      </trkpt>
      <trkpt lon="-92.870927" lat="33.620624">
        <ele>1079.04</ele>
        <time>2025-12-20T14:07:05.696Z</time>
      </trkpt>
      <trkpt lon="-92.849150" lat="33.630354">
        <ele>1083.13</ele>
        <time>2025-12-20T14:07:35.984Z</time>
      </trkpt>
      <trkpt lon="-92.847701" lat="33.630994">
        <ele>1080.98</ele>
        <time>2025-12-20T14:07:37.972Z</time>
      </trkpt>
      <trkpt lon="-92.846706" lat="33.631329">
        <ele>1077.73</ele>
        <time>2025-12-20T14:07:39.316Z</time>
      </trkpt>
      <trkpt lon="-92.843246" lat="33.632262">
        <ele>1064.79</ele>
        <time>2025-12-20T14:07:43.888Z</time>
      </trkpt>
      <trkpt lon="-92.839417" lat="33.633601">
        <ele>1076.43</ele>
        <time>2025-12-20T14:07:49.212Z</time>
      </trkpt>
      <trkpt lon="-92.827139" lat="33.637635">
        <ele>1015.98</ele>
        <time>2025-12-20T14:08:06.828Z</time>
      </trkpt>
      <trkpt lon="-92.810260" lat="33.643861">
        <ele>966.295</ele>
        <time>2025-12-20T14:08:30.988Z</time>
      </trkpt>
      <trkpt lon="-92.806603" lat="33.645184">
        <ele>962.331</ele>
        <time>2025-12-20T14:08:36.864Z</time>
      </trkpt>
      <trkpt lon="-92.802380" lat="33.646695">
        <ele>962.931</ele>
        <time>2025-12-20T14:08:44.168Z</time>
      </trkpt>
      <trkpt lon="-92.795004" lat="33.649079">
        <ele>954.894</ele>
        <time>2025-12-20T14:08:57.884Z</time>
      </trkpt>
      <trkpt lon="-92.792543" lat="33.649784">
        <ele>959.85</ele>
        <time>2025-12-20T14:09:02.456Z</time>
      </trkpt>
      <trkpt lon="-92.791012" lat="33.650230">
        <ele>976.663</ele>
        <time>2025-12-20T14:09:05.784Z</time>
      </trkpt>
      <trkpt lon="-92.789319" lat="33.650717">
        <ele>978.707</ele>
        <time>2025-12-20T14:09:09.700Z</time>
      </trkpt>
      <trkpt lon="-92.787142" lat="33.651240">
        <ele>965.123</ele>
        <time>2025-12-20T14:09:14.316Z</time>
      </trkpt>
      <trkpt lon="-92.785576" lat="33.651705">
        <ele>959.567</ele>
        <time>2025-12-20T14:09:17.592Z</time>
      </trkpt>
      <trkpt lon="-92.782485" lat="33.652704">
        <ele>909.012</ele>
        <time>2025-12-20T14:09:24.240Z</time>
      </trkpt>
      <trkpt lon="-92.781524" lat="33.652925">
        <ele>891.38</ele>
        <time>2025-12-20T14:09:26.196Z</time>
      </trkpt>
      <trkpt lon="-92.780552" lat="33.653096">
        <ele>875.998</ele>
        <time>2025-12-20T14:09:28.172Z</time>
      </trkpt>
      <trkpt lon="-92.778389" lat="33.653381">
        <ele>846.942</ele>
        <time>2025-12-20T14:09:32.752Z</time>
      </trkpt>
      <trkpt lon="-92.774827" lat="33.653824">
        <ele>792.341</ele>
        <time>2025-12-20T14:09:40.620Z</time>
      </trkpt>
      <trkpt lon="-92.771859" lat="33.654074">
        <ele>745.146</ele>
        <time>2025-12-20T14:09:47.272Z</time>
      </trkpt>
      <trkpt lon="-92.768806" lat="33.654294">
        <ele>697.565</ele>
        <time>2025-12-20T14:09:54.432Z</time>
      </trkpt>
      <trkpt lon="-92.768286" lat="33.654300">
        <ele>687.318</ele>
        <time>2025-12-20T14:09:55.752Z</time>
      </trkpt>
      <trkpt lon="-92.767547" lat="33.654263">
        <ele>671.626</ele>
        <time>2025-12-20T14:09:57.708Z</time>
      </trkpt>
      <trkpt lon="-92.766867" lat="33.654182">
        <ele>657.3</ele>
        <time>2025-12-20T14:09:59.656Z</time>
      </trkpt>
      <trkpt lon="-92.766253" lat="33.654069">
        <ele>643.953</ele>
        <time>2025-12-20T14:10:01.612Z</time>
      </trkpt>
      <trkpt lon="-92.765351" lat="33.653852">
        <ele>622.044</ele>
        <time>2025-12-20T14:10:04.880Z</time>
      </trkpt>
      <trkpt lon="-92.763918" lat="33.653417">
        <ele>584.695</ele>
        <time>2025-12-20T14:10:10.788Z</time>
      </trkpt>
      <trkpt lon="-92.763515" lat="33.653238">
        <ele>576.687</ele>
        <time>2025-12-20T14:10:12.740Z</time>
      </trkpt>
      <trkpt lon="-92.762945" lat="33.652946">
        <ele>571.2</ele>
        <time>2025-12-20T14:10:16.040Z</time>
      </trkpt>
      <trkpt lon="-92.761888" lat="33.652513">
        <ele>527.736</ele>
        <time>2025-12-20T14:10:23.256Z</time>
      </trkpt>
      <trkpt lon="-92.761511" lat="33.652245">
        <ele>491.61</ele>
        <time>2025-12-20T14:10:25.904Z</time>
      </trkpt>
      <trkpt lon="-92.761193" lat="33.651850">
        <ele>450.929</ele>
        <time>2025-12-20T14:10:28.576Z</time>
      </trkpt>
      <trkpt lon="-92.760951" lat="33.651358">
        <ele>415.001</ele>
        <time>2025-12-20T14:10:31.252Z</time>
      </trkpt>
      <trkpt lon="-92.760681" lat="33.650575">
        <ele>380.219</ele>
        <time>2025-12-20T14:10:35.140Z</time>
      </trkpt>
      <trkpt lon="-92.760306" lat="33.649429">
        <ele>349.019</ele>
        <time>2025-12-20T14:10:41.648Z</time>
      </trkpt>
      <trkpt lon="-92.760149" lat="33.648844">
        <ele>319.497</ele>
        <time>2025-12-20T14:10:44.916Z</time>
      </trkpt>
      <trkpt lon="-92.760108" lat="33.648223">
        <ele>290.067</ele>
        <time>2025-12-20T14:10:47.648Z</time>
      </trkpt>
      <trkpt lon="-92.760193" lat="33.647147">
        <ele>262.071</ele>
        <time>2025-12-20T14:10:51.696Z</time>
      </trkpt>
      <trkpt lon="-92.760336" lat="33.643960">
        <ele>236.049</ele>
        <time>2025-12-20T14:11:05.012Z</time>
      </trkpt>
      <trkpt lon="-92.760312" lat="33.642256">
        <ele>211.127</ele>
        <time>2025-12-20T14:11:11.716Z</time>
      </trkpt>
      <trkpt lon="-92.760571" lat="33.639867">
        <ele>188.143</ele>
        <time>2025-12-20T14:11:20.564Z</time>
      </trkpt>
      <trkpt lon="-92.760883" lat="33.637264">
        <ele>165.644</ele>
        <time>2025-12-20T14:11:29.920Z</time>
      </trkpt>
      <trkpt lon="-92.761323" lat="33.634957">
        <ele>145.471</ele>
        <time>2025-12-20T14:11:38.036Z</time>
      </trkpt>
      <trkpt lon="-92.761688" lat="33.632626">
        <ele>124.877</ele>
        <time>2025-12-20T14:11:46.168Z</time>
      </trkpt>
      <trkpt lon="-92.761921" lat="33.631034">
        <ele>105.022</ele>
        <time>2025-12-20T14:11:51.544Z</time>
      </trkpt>
      <trkpt lon="-92.762215" lat="33.629228">
        <ele>87.1054</ele>
        <time>2025-12-20T14:11:57.548Z</time>
      </trkpt>
      <trkpt lon="-92.762598" lat="33.627236">
        <ele>69.9329</ele>
        <time>2025-12-20T14:12:04.288Z</time>
      </trkpt>
      <trkpt lon="-92.763408" lat="33.622707">
        <ele>53.8371</ele>
        <time>2025-12-20T14:12:19.664Z</time>
      </trkpt>
      <trkpt lon="-92.763880" lat="33.620260">
        <ele>51.8075</ele>
        <time>2025-12-20T14:12:28.344Z</time>
      </trkpt>
      <trkpt lon="-92.764206" lat="33.618640">
        <ele>38.7824</ele>
        <time>2025-12-20T14:12:35.820Z</time>
      </trkpt>
      <trkpt lon="-92.764245" lat="33.618428">
        <ele>38.6073</ele>
        <time>2025-12-20T14:12:37.152Z</time>
      </trkpt>
      <trkpt lon="-92.764277" lat="33.618286">
        <ele>38.5005</ele>
        <time>2025-12-20T14:12:38.492Z</time>
      </trkpt>
      <trkpt lon="-92.764300" lat="33.618228">
        <ele>38.4641</ele>
        <time>2025-12-20T14:12:39.144Z</time>
      </trkpt>
      <trkpt lon="-92.764335" lat="33.618173">
        <ele>38.4334</ele>
        <time>2025-12-20T14:12:39.840Z</time>
      </trkpt>
      <trkpt lon="-92.764381" lat="33.618127">
        <ele>38.4075</ele>
        <time>2025-12-20T14:12:40.528Z</time>
      </trkpt>
      <trkpt lon="-92.764430" lat="33.618090">
        <ele>38.3895</ele>
        <time>2025-12-20T14:12:41.180Z</time>
      </trkpt>
      <trkpt lon="-92.764483" lat="33.618059">
        <ele>38.3758</ele>
        <time>2025-12-20T14:12:41.844Z</time>
      </trkpt>
      <trkpt lon="-92.764539" lat="33.618035">
        <ele>38.3766</ele>
        <time>2025-12-20T14:12:42.476Z</time>
      </trkpt>
      <trkpt lon="-92.764599" lat="33.618017">
        <ele>38.3916</ele>
        <time>2025-12-20T14:12:43.148Z</time>
      </trkpt>
      <trkpt lon="-92.764723" lat="33.617998">
        <ele>38.4582</ele>
        <time>2025-12-20T14:12:44.492Z</time>
      </trkpt>
      <trkpt lon="-92.764787" lat="33.617997">
        <ele>38.5083</ele>
        <time>2025-12-20T14:12:45.168Z</time>
      </trkpt>
      <trkpt lon="-92.765159" lat="33.618030">
        <ele>38.7565</ele>
        <time>2025-12-20T14:12:49.184Z</time>
      </trkpt>
      <trkpt lon="-92.765222" lat="33.618029">
        <ele>38.7781</ele>
        <time>2025-12-20T14:12:49.856Z</time>
      </trkpt>
      <trkpt lon="-92.765283" lat="33.618019">
        <ele>38.7988</ele>
        <time>2025-12-20T14:12:50.528Z</time>
      </trkpt>
      <trkpt lon="-92.765338" lat="33.617998">
        <ele>38.8087</ele>
        <time>2025-12-20T14:12:51.200Z</time>
      </trkpt>
      <trkpt lon="-92.765387" lat="33.617969">
        <ele>38.8151</ele>
        <time>2025-12-20T14:12:51.860Z</time>
      </trkpt>
      <trkpt lon="-92.765520" lat="33.617865">
        <ele>38.8073</ele>
        <time>2025-12-20T14:12:53.860Z</time>
      </trkpt>
      <trkpt lon="-92.765558" lat="33.617824">
        <ele>38.8105</ele>
        <time>2025-12-20T14:12:54.500Z</time>
      </trkpt>
      <trkpt lon="-92.765590" lat="33.617780">
        <ele>38.8081</ele>
        <time>2025-12-20T14:12:55.136Z</time>
      </trkpt>
      <trkpt lon="-92.765615" lat="33.617729">
        <ele>38.8008</ele>
        <time>2025-12-20T14:12:55.780Z</time>
      </trkpt>
      <trkpt lon="-92.765689" lat="33.617496">
        <ele>38.7952</ele>
        <time>2025-12-20T14:12:58.440Z</time>
      </trkpt>
      <trkpt lon="-92.765911" lat="33.616353">
        <ele>38.6236</ele>
        <time>2025-12-20T14:13:08.476Z</time>
      </trkpt>
      <trkpt lon="-92.766060" lat="33.615647">
        <ele>38.5322</ele>
        <time>2025-12-20T14:13:14.444Z</time>
      </trkpt>
      <trkpt lon="-92.766088" lat="33.615574">
        <ele>38.5246</ele>
        <time>2025-12-20T14:13:15.132Z</time>
      </trkpt>
      <trkpt lon="-92.766124" lat="33.615508">
        <ele>38.5199</ele>
        <time>2025-12-20T14:13:15.796Z</time>
      </trkpt>
      <trkpt lon="-92.766171" lat="33.615446">
        <ele>38.5202</ele>
        <time>2025-12-20T14:13:16.496Z</time>
      </trkpt>
      <trkpt lon="-92.766223" lat="33.615396">
        <ele>38.5224</ele>
        <time>2025-12-20T14:13:17.132Z</time>
      </trkpt>
      <trkpt lon="-92.766280" lat="33.615353">
        <ele>38.5244</ele>
        <time>2025-12-20T14:13:17.764Z</time>
      </trkpt>
      <trkpt lon="-92.766345" lat="33.615315">
        <ele>38.5301</ele>
        <time>2025-12-20T14:13:18.428Z</time>
      </trkpt>
      <trkpt lon="-92.766412" lat="33.615286">
        <ele>38.5357</ele>
        <time>2025-12-20T14:13:19.084Z</time>
      </trkpt>
      <trkpt lon="-92.766483" lat="33.615265">
        <ele>38.54</ele>
        <time>2025-12-20T14:13:19.760Z</time>
      </trkpt>
      <trkpt lon="-92.766553" lat="33.615260">
        <ele>38.542</ele>
        <time>2025-12-20T14:13:20.444Z</time>
      </trkpt>
      <trkpt lon="-92.766610" lat="33.615269">
        <ele>38.5448</ele>
        <time>2025-12-20T14:13:21.084Z</time>
      </trkpt>
      <trkpt lon="-92.766658" lat="33.615287">
        <ele>38.5514</ele>
        <time>2025-12-20T14:13:21.756Z</time>
      </trkpt>
      <trkpt lon="-92.766693" lat="33.615309">
        <ele>38.5514</ele>
        <time>2025-12-20T14:13:22.424Z</time>
      </trkpt>
      <trkpt lon="-92.766834" lat="33.615454">
        <ele>38.5772</ele>
        <time>2025-12-20T14:13:26.464Z</time>
      </trkpt>
      <trkpt lon="-92.766896" lat="33.615530">
        <ele>38.5872</ele>
        <time>2025-12-20T14:13:29.108Z</time>
      </trkpt>
      <trkpt lon="-92.766905" lat="33.615539">
        <ele>38.5789</ele>
        <time>2025-12-20T14:16:29.092Z</time>
      </trkpt>
      <trkpt lon="-92.766919" lat="33.615548">
        <ele>38.5797</ele>
        <time>2025-12-20T14:16:29.784Z</time>
      </trkpt>
      <trkpt lon="-92.766941" lat="33.615556">
        <ele>38.583</ele>
        <time>2025-12-20T14:16:30.456Z</time>
      </trkpt>
      <trkpt lon="-92.766972" lat="33.615559">
        <ele>38.5847</ele>
        <time>2025-12-20T14:16:31.136Z</time>
      </trkpt>
      <trkpt lon="-92.767007" lat="33.615554">
        <ele>38.5864</ele>
        <time>2025-12-20T14:16:31.792Z</time>
      </trkpt>
      <trkpt lon="-92.767044" lat="33.615536">
        <ele>38.5879</ele>
        <time>2025-12-20T14:16:32.496Z</time>
      </trkpt>
      <trkpt lon="-92.767070" lat="33.615508">
        <ele>38.5883</ele>
        <time>2025-12-20T14:16:33.144Z</time>
      </trkpt>
      <trkpt lon="-92.767087" lat="33.615466">
        <ele>38.5824</ele>
        <time>2025-12-20T14:16:33.844Z</time>
      </trkpt>
      <trkpt lon="-92.767083" lat="33.615419">
        <ele>38.576</ele>
        <time>2025-12-20T14:16:34.496Z</time>
      </trkpt>
      <trkpt lon="-92.767059" lat="33.615374">
        <ele>38.5684</ele>
        <time>2025-12-20T14:16:35.156Z</time>
      </trkpt>
      <trkpt lon="-92.767013" lat="33.615335">
        <ele>38.5653</ele>
        <time>2025-12-20T14:16:35.840Z</time>
      </trkpt>
      <trkpt lon="-92.766955" lat="33.615304">
        <ele>38.5588</ele>
        <time>2025-12-20T14:16:36.512Z</time>
      </trkpt>
      <trkpt lon="-92.766885" lat="33.615279">
        <ele>38.5575</ele>
        <time>2025-12-20T14:16:37.204Z</time>
      </trkpt>
      <trkpt lon="-92.766811" lat="33.615261">
        <ele>38.5499</ele>
        <time>2025-12-20T14:16:37.876Z</time>
      </trkpt>
      <trkpt lon="-92.766487" lat="33.615206">
        <ele>38.5246</ele>
        <time>2025-12-20T14:16:40.508Z</time>
      </trkpt>
      <trkpt lon="-92.766402" lat="33.615205">
        <ele>38.5183</ele>
        <time>2025-12-20T14:16:41.188Z</time>
      </trkpt>
      <trkpt lon="-92.766321" lat="33.615224">
        <ele>38.5065</ele>
        <time>2025-12-20T14:16:41.864Z</time>
      </trkpt>
      <trkpt lon="-92.766251" lat="33.615261">
        <ele>38.4996</ele>
        <time>2025-12-20T14:16:42.568Z</time>
      </trkpt>
      <trkpt lon="-92.766199" lat="33.615314">
        <ele>38.4997</ele>
        <time>2025-12-20T14:16:43.244Z</time>
      </trkpt>
      <trkpt lon="-92.766166" lat="33.615376">
        <ele>38.507</ele>
        <time>2025-12-20T14:16:43.908Z</time>
      </trkpt>
      <trkpt lon="-92.766149" lat="33.615454">
        <ele>38.5126</ele>
        <time>2025-12-20T14:16:44.596Z</time>
      </trkpt>
      <trkpt lon="-92.766088" lat="33.616131">
        <ele>38.5858</ele>
        <time>2025-12-20T14:16:49.852Z</time>
      </trkpt>
      <trkpt lon="-92.765777" lat="33.617635">
        <ele>38.8193</ele>
        <time>2025-12-20T14:17:00.492Z</time>
      </trkpt>
      <trkpt lon="-92.765746" lat="33.617715">
        <ele>38.827</ele>
        <time>2025-12-20T14:17:01.176Z</time>
      </trkpt>
      <trkpt lon="-92.765664" lat="33.617872">
        <ele>38.8348</ele>
        <time>2025-12-20T14:17:03.224Z</time>
      </trkpt>
      <trkpt lon="-92.765639" lat="33.617910">
        <ele>38.8405</ele>
        <time>2025-12-20T14:17:03.876Z</time>
      </trkpt>
      <trkpt lon="-92.765608" lat="33.617945">
        <ele>38.8414</ele>
        <time>2025-12-20T14:17:04.536Z</time>
      </trkpt>
      <trkpt lon="-92.765574" lat="33.617974">
        <ele>38.8395</ele>
        <time>2025-12-20T14:17:05.212Z</time>
      </trkpt>
      <trkpt lon="-92.765537" lat="33.617998">
        <ele>38.8379</ele>
        <time>2025-12-20T14:17:05.880Z</time>
      </trkpt>
      <trkpt lon="-92.765498" lat="33.618016">
        <ele>38.8371</ele>
        <time>2025-12-20T14:17:06.528Z</time>
      </trkpt>
      <trkpt lon="-92.765456" lat="33.618031">
        <ele>38.8276</ele>
        <time>2025-12-20T14:17:07.204Z</time>
      </trkpt>
      <trkpt lon="-92.765412" lat="33.618041">
        <ele>38.8251</ele>
        <time>2025-12-20T14:17:07.884Z</time>
      </trkpt>
      <trkpt lon="-92.765367" lat="33.618047">
        <ele>38.8124</ele>
        <time>2025-12-20T14:17:08.560Z</time>
      </trkpt>
      <trkpt lon="-92.765323" lat="33.618049">
        <ele>38.8047</ele>
        <time>2025-12-20T14:17:09.248Z</time>
      </trkpt>
      <trkpt lon="-92.765270" lat="33.618045">
        <ele>38.7832</ele>
        <time>2025-12-20T14:17:10.592Z</time>
      </trkpt>
      <trkpt lon="-92.765214" lat="33.618039">
        <ele>38.7662</ele>
        <time>2025-12-20T14:17:20.636Z</time>
      </trkpt>
      <trkpt lon="-92.764906" lat="33.618017">
        <ele>38.5966</ele>
        <time>2025-12-20T14:17:24.652Z</time>
      </trkpt>
      <trkpt lon="-92.764847" lat="33.618019">
        <ele>38.5539</ele>
        <time>2025-12-20T14:17:25.316Z</time>
      </trkpt>
      <trkpt lon="-92.764785" lat="33.618026">
        <ele>38.5101</ele>
        <time>2025-12-20T14:17:26.000Z</time>
      </trkpt>
      <trkpt lon="-92.764662" lat="33.618055">
        <ele>38.419</ele>
        <time>2025-12-20T14:17:27.360Z</time>
      </trkpt>
      <trkpt lon="-92.764605" lat="33.618074">
        <ele>38.3957</ele>
        <time>2025-12-20T14:17:28.028Z</time>
      </trkpt>
      <trkpt lon="-92.764550" lat="33.618100">
        <ele>38.3861</ele>
        <time>2025-12-20T14:17:28.704Z</time>
      </trkpt>
      <trkpt lon="-92.764454" lat="33.618150">
        <ele>38.4101</ele>
        <time>2025-12-20T14:17:30.040Z</time>
      </trkpt>
      <trkpt lon="-92.764414" lat="33.618166">
        <ele>38.4114</ele>
        <time>2025-12-20T14:17:30.752Z</time>
      </trkpt>
      <trkpt lon="-92.764383" lat="33.618171">
        <ele>38.4104</ele>
        <time>2025-12-20T14:17:31.416Z</time>
      </trkpt>
      <trkpt lon="-92.764357" lat="33.618171">
        <ele>38.4118</ele>
        <time>2025-12-20T14:17:32.088Z</time>
      </trkpt>
      <trkpt lon="-92.764340" lat="33.618168">
        <ele>38.4118</ele>
        <time>2025-12-20T14:17:32.768Z</time>
      </trkpt>
      <trkpt lon="-92.764330" lat="33.618164">
        <ele>38.4092</ele>
        <time>2025-12-20T14:17:33.460Z</time>
      </trkpt>
      <trkpt lon="-92.764317" lat="33.618154">
        <ele>38.4049</ele>
        <time>2025-12-20T14:17:34.820Z</time>
      </trkpt>
      <trkpt lon="-92.764309" lat="33.618144">
        <ele>38.3999</ele>
        <time>2025-12-20T14:17:35.496Z</time>
      </trkpt>
      <trkpt lon="-92.764301" lat="33.618130">
        <ele>38.3896</ele>
        <time>2025-12-20T14:17:36.172Z</time>
      </trkpt>
      <trkpt lon="-92.764297" lat="33.618119">
        <ele>38.3827</ele>
        <time>2025-12-20T14:17:36.816Z</time>
      </trkpt>
      <trkpt lon="-92.764295" lat="33.618099">
        <ele>38.3758</ele>
        <time>2025-12-20T14:17:39.584Z</time>
      </trkpt>
      <trkpt lon="-92.764303" lat="33.618042">
        <ele>38.3507</ele>
        <time>2025-12-20T14:17:40.892Z</time>
      </trkpt>
      <trkpt lon="-92.764330" lat="33.617910">
        <ele>38.2991</ele>
        <time>2025-12-20T14:17:42.228Z</time>
      </trkpt>
      <trkpt lon="-92.764373" lat="33.617706">
        <ele>38.2475</ele>
        <time>2025-12-20T14:17:43.576Z</time>
      </trkpt>
      <trkpt lon="-92.764426" lat="33.617434">
        <ele>38.2256</ele>
        <time>2025-12-20T14:17:44.932Z</time>
      </trkpt>
      <trkpt lon="-92.764577" lat="33.616756">
        <ele>43.7053</ele>
        <time>2025-12-20T14:17:47.604Z</time>
      </trkpt>
      <trkpt lon="-92.764728" lat="33.615997">
        <ele>62.374</ele>
        <time>2025-12-20T14:17:50.292Z</time>
      </trkpt>
      <trkpt lon="-92.764792" lat="33.615415">
        <ele>81.535</ele>
        <time>2025-12-20T14:17:52.328Z</time>
      </trkpt>
      <trkpt lon="-92.764825" lat="33.614602">
        <ele>103.102</ele>
        <time>2025-12-20T14:17:54.956Z</time>
      </trkpt>
      <trkpt lon="-92.764828" lat="33.613752">
        <ele>124.196</ele>
        <time>2025-12-20T14:17:57.568Z</time>
      </trkpt>
      <trkpt lon="-92.764774" lat="33.612475">
        <ele>147.447</ele>
        <time>2025-12-20T14:18:01.492Z</time>
      </trkpt>
      <trkpt lon="-92.764718" lat="33.611613">
        <ele>156.998</ele>
        <time>2025-12-20T14:18:04.092Z</time>
      </trkpt>
      <trkpt lon="-92.764617" lat="33.611179">
        <ele>161.593</ele>
        <time>2025-12-20T14:18:05.404Z</time>
      </trkpt>
      <trkpt lon="-92.764440" lat="33.610748">
        <ele>165.415</ele>
        <time>2025-12-20T14:18:06.732Z</time>
      </trkpt>
      <trkpt lon="-92.764191" lat="33.610326">
        <ele>167.426</ele>
        <time>2025-12-20T14:18:08.060Z</time>
      </trkpt>
      <trkpt lon="-92.763883" lat="33.609929">
        <ele>167.743</ele>
        <time>2025-12-20T14:18:09.352Z</time>
      </trkpt>
      <trkpt lon="-92.763507" lat="33.609546">
        <ele>167.025</ele>
        <time>2025-12-20T14:18:10.664Z</time>
      </trkpt>
      <trkpt lon="-92.763069" lat="33.609184">
        <ele>166.169</ele>
        <time>2025-12-20T14:18:11.972Z</time>
      </trkpt>
      <trkpt lon="-92.762561" lat="33.608846">
        <ele>166.894</ele>
        <time>2025-12-20T14:18:13.312Z</time>
      </trkpt>
      <trkpt lon="-92.761981" lat="33.608542">
        <ele>169.149</ele>
        <time>2025-12-20T14:18:14.696Z</time>
      </trkpt>
      <trkpt lon="-92.761385" lat="33.608306">
        <ele>172.34</ele>
        <time>2025-12-20T14:18:16.016Z</time>
      </trkpt>
      <trkpt lon="-92.760766" lat="33.608134">
        <ele>175.876</ele>
        <time>2025-12-20T14:18:17.324Z</time>
      </trkpt>
      <trkpt lon="-92.760107" lat="33.608024">
        <ele>179.16</ele>
        <time>2025-12-20T14:18:18.656Z</time>
      </trkpt>
      <trkpt lon="-92.759448" lat="33.607984">
        <ele>181.883</ele>
        <time>2025-12-20T14:18:19.956Z</time>
      </trkpt>
      <trkpt lon="-92.758767" lat="33.608014">
        <ele>184.398</ele>
        <time>2025-12-20T14:18:21.280Z</time>
      </trkpt>
      <trkpt lon="-92.758082" lat="33.608118">
        <ele>186.792</ele>
        <time>2025-12-20T14:18:22.616Z</time>
      </trkpt>
      <trkpt lon="-92.757431" lat="33.608291">
        <ele>188.459</ele>
        <time>2025-12-20T14:18:23.916Z</time>
      </trkpt>
      <trkpt lon="-92.756789" lat="33.608541">
        <ele>189.787</ele>
        <time>2025-12-20T14:18:25.244Z</time>
      </trkpt>
      <trkpt lon="-92.756198" lat="33.608851">
        <ele>191.386</ele>
        <time>2025-12-20T14:18:26.532Z</time>
      </trkpt>
      <trkpt lon="-92.755647" lat="33.609222">
        <ele>193.459</ele>
        <time>2025-12-20T14:18:27.828Z</time>
      </trkpt>
      <trkpt lon="-92.755136" lat="33.609656">
        <ele>196.336</ele>
        <time>2025-12-20T14:18:29.156Z</time>
      </trkpt>
      <trkpt lon="-92.754688" lat="33.610131">
        <ele>200.092</ele>
        <time>2025-12-20T14:18:30.480Z</time>
      </trkpt>
      <trkpt lon="-92.754292" lat="33.610644">
        <ele>204.361</ele>
        <time>2025-12-20T14:18:31.824Z</time>
      </trkpt>
      <trkpt lon="-92.753482" lat="33.611956">
        <ele>217.402</ele>
        <time>2025-12-20T14:18:35.112Z</time>
      </trkpt>
      <trkpt lon="-92.752935" lat="33.613034">
        <ele>229.99</ele>
        <time>2025-12-20T14:18:37.752Z</time>
      </trkpt>
      <trkpt lon="-92.752310" lat="33.614687">
        <ele>249.567</ele>
        <time>2025-12-20T14:18:41.740Z</time>
      </trkpt>
      <trkpt lon="-92.751077" lat="33.618704">
        <ele>277.526</ele>
        <time>2025-12-20T14:18:50.960Z</time>
      </trkpt>
      <trkpt lon="-92.749235" lat="33.624295">
        <ele>290.36</ele>
        <time>2025-12-20T14:19:02.784Z</time>
      </trkpt>
      <trkpt lon="-92.747578" lat="33.629194">
        <ele>320.656</ele>
        <time>2025-12-20T14:19:12.712Z</time>
      </trkpt>
      <trkpt lon="-92.747057" lat="33.631137">
        <ele>339.476</ele>
        <time>2025-12-20T14:19:16.692Z</time>
      </trkpt>
      <trkpt lon="-92.745937" lat="33.636129">
        <ele>360.579</ele>
        <time>2025-12-20T14:19:26.476Z</time>
      </trkpt>
      <trkpt lon="-92.745404" lat="33.637911">
        <ele>364.605</ele>
        <time>2025-12-20T14:19:29.772Z</time>
      </trkpt>
      <trkpt lon="-92.742298" lat="33.646302">
        <ele>378.537</ele>
        <time>2025-12-20T14:19:44.816Z</time>
      </trkpt>
      <trkpt lon="-92.740653" lat="33.652062">
        <ele>405.837</ele>
        <time>2025-12-20T14:19:54.632Z</time>
      </trkpt>
      <trkpt lon="-92.739918" lat="33.655467">
        <ele>431.586</ele>
        <time>2025-12-20T14:20:00.540Z</time>
      </trkpt>
      <trkpt lon="-92.739150" lat="33.659531">
        <ele>468.863</ele>
        <time>2025-12-20T14:20:07.832Z</time>
      </trkpt>
      <trkpt lon="-92.738316" lat="33.663933">
        <ele>504.486</ele>
        <time>2025-12-20T14:20:15.820Z</time>
      </trkpt>
      <trkpt lon="-92.737325" lat="33.669416">
        <ele>542.883</ele>
        <time>2025-12-20T14:20:25.616Z</time>
      </trkpt>
      <trkpt lon="-92.736292" lat="33.675407">
        <ele>584.818</ele>
        <time>2025-12-20T14:20:36.128Z</time>
      </trkpt>
      <trkpt lon="-92.735335" lat="33.681059">
        <ele>628.882</ele>
        <time>2025-12-20T14:20:46.028Z</time>
      </trkpt>
      <trkpt lon="-92.734390" lat="33.686651">
        <ele>675.094</ele>
        <time>2025-12-20T14:20:55.812Z</time>
      </trkpt>
      <trkpt lon="-92.733211" lat="33.692568">
        <ele>721.264</ele>
        <time>2025-12-20T14:21:06.196Z</time>
      </trkpt>
      <trkpt lon="-92.732035" lat="33.696668">
        <ele>753.691</ele>
        <time>2025-12-20T14:21:13.400Z</time>
      </trkpt>
      <trkpt lon="-92.730663" lat="33.700340">
        <ele>783.335</ele>
        <time>2025-12-20T14:21:19.908Z</time>
      </trkpt>
      <trkpt lon="-92.727855" lat="33.706617">
        <ele>835.931</ele>
        <time>2025-12-20T14:21:31.096Z</time>
      </trkpt>
      <trkpt lon="-92.724764" lat="33.713159">
        <ele>892.027</ele>
        <time>2025-12-20T14:21:42.804Z</time>
      </trkpt>
      <trkpt lon="-92.721223" lat="33.719667">
        <ele>949.515</ele>
        <time>2025-12-20T14:21:54.700Z</time>
      </trkpt>
      <trkpt lon="-92.716825" lat="33.726607">
        <ele>1009.11</ele>
        <time>2025-12-20T14:22:07.704Z</time>
      </trkpt>
      <trkpt lon="-92.711853" lat="33.733387">
        <ele>1066.04</ele>
        <time>2025-12-20T14:22:20.844Z</time>
      </trkpt>
      <trkpt lon="-92.706834" lat="33.739261">
        <ele>1103.35</ele>
        <time>2025-12-20T14:22:33.296Z</time>
      </trkpt>
      <trkpt lon="-92.698733" lat="33.747929">
        <ele>1111.64</ele>
        <time>2025-12-20T14:22:51.728Z</time>
      </trkpt>
      <trkpt lon="-92.689735" lat="33.758727">
        <ele>1125.52</ele>
        <time>2025-12-20T14:23:12.672Z</time>
      </trkpt>
      <trkpt lon="-92.683003" lat="33.767843">
        <ele>1127.78</ele>
        <time>2025-12-20T14:23:29.648Z</time>
      </trkpt>
      <trkpt lon="-92.678850" lat="33.774377">
        <ele>1135.02</ele>
        <time>2025-12-20T14:23:41.480Z</time>
      </trkpt>
      <trkpt lon="-92.675053" lat="33.781420">
        <ele>1139.87</ele>
        <time>2025-12-20T14:23:53.936Z</time>
      </trkpt>
      <trkpt lon="-92.671281" lat="33.790145">
        <ele>1143.39</ele>
        <time>2025-12-20T14:24:09.012Z</time>
      </trkpt>
      <trkpt lon="-92.668298" lat="33.799295">
        <ele>1143.53</ele>
        <time>2025-12-20T14:24:24.588Z</time>
      </trkpt>
      <trkpt lon="-92.665282" lat="33.811661">
        <ele>1142.23</ele>
        <time>2025-12-20T14:24:45.460Z</time>
      </trkpt>
      <trkpt lon="-92.663391" lat="33.822842">
        <ele>1140.98</ele>
        <time>2025-12-20T14:25:04.528Z</time>
      </trkpt>
      <trkpt lon="-92.661720" lat="33.840394">
        <ele>1137.96</ele>
        <time>2025-12-20T14:25:35.072Z</time>
      </trkpt>
      <trkpt lon="-92.659621" lat="33.858117">
        <ele>1127.53</ele>
        <time>2025-12-20T14:26:05.416Z</time>
      </trkpt>
      <trkpt lon="-92.656469" lat="33.876123">
        <ele>1118.77</ele>
        <time>2025-12-20T14:26:35.932Z</time>
      </trkpt>
      <trkpt lon="-92.652242" lat="33.894140">
        <ele>1116.33</ele>
        <time>2025-12-20T14:27:06.408Z</time>
      </trkpt>
      <trkpt lon="-92.646853" lat="33.911985">
        <ele>1106.99</ele>
        <time>2025-12-20T14:27:36.808Z</time>
      </trkpt>
      <trkpt lon="-92.640339" lat="33.929578">
        <ele>1097.73</ele>
        <time>2025-12-20T14:28:06.992Z</time>
      </trkpt>
      <trkpt lon="-92.632531" lat="33.947062">
        <ele>1095.95</ele>
        <time>2025-12-20T14:28:37.044Z</time>
      </trkpt>
      <trkpt lon="-92.623394" lat="33.964763">
        <ele>1085.25</ele>
        <time>2025-12-20T14:29:07.620Z</time>
      </trkpt>
      <trkpt lon="-92.613066" lat="33.982342">
        <ele>1080.35</ele>
        <time>2025-12-20T14:29:38.208Z</time>
      </trkpt>
      <trkpt lon="-92.602714" lat="33.999589">
        <ele>1082.5</ele>
        <time>2025-12-20T14:30:08.376Z</time>
      </trkpt>
      <trkpt lon="-92.592844" lat="34.016913">
        <ele>1072.56</ele>
        <time>2025-12-20T14:30:38.456Z</time>
      </trkpt>
      <trkpt lon="-92.583317" lat="34.034698">
        <ele>1062.63</ele>
        <time>2025-12-20T14:31:09.080Z</time>
      </trkpt>
      <trkpt lon="-92.574344" lat="34.052508">
        <ele>1051.92</ele>
        <time>2025-12-20T14:31:39.552Z</time>
      </trkpt>
      <trkpt lon="-92.565831" lat="34.070413">
        <ele>1044.08</ele>
        <time>2025-12-20T14:32:09.980Z</time>
      </trkpt>
      <trkpt lon="-92.557812" lat="34.088259">
        <ele>1041.64</ele>
        <time>2025-12-20T14:32:40.412Z</time>
      </trkpt>
      <trkpt lon="-92.550222" lat="34.106265">
        <ele>1030.79</ele>
        <time>2025-12-20T14:33:11.032Z</time>
      </trkpt>
      <trkpt lon="-92.543086" lat="34.124523">
        <ele>1021</ele>
        <time>2025-12-20T14:33:41.600Z</time>
      </trkpt>
      <trkpt lon="-92.536533" lat="34.142534">
        <ele>1015.1</ele>
        <time>2025-12-20T14:34:11.612Z</time>
      </trkpt>
      <trkpt lon="-92.530468" lat="34.160378">
        <ele>1011.34</ele>
        <time>2025-12-20T14:34:41.620Z</time>
      </trkpt>
      <trkpt lon="-92.523528" lat="34.178495">
        <ele>1010.75</ele>
        <time>2025-12-20T14:35:12.192Z</time>
      </trkpt>
      <trkpt lon="-92.515330" lat="34.196550">
        <ele>1006.36</ele>
        <time>2025-12-20T14:35:42.724Z</time>
      </trkpt>
      <trkpt lon="-92.505925" lat="34.214543">
        <ele>1006.08</ele>
        <time>2025-12-20T14:36:13.160Z</time>
      </trkpt>
      <trkpt lon="-92.496107" lat="34.230815">
        <ele>1008.63</ele>
        <time>2025-12-20T14:36:41.052Z</time>
      </trkpt>
      <trkpt lon="-92.484342" lat="34.248164">
        <ele>1006.5</ele>
        <time>2025-12-20T14:37:11.156Z</time>
      </trkpt>
      <trkpt lon="-92.471734" lat="34.265242">
        <ele>1008.31</ele>
        <time>2025-12-20T14:37:41.204Z</time>
      </trkpt>
      <trkpt lon="-92.458328" lat="34.282155">
        <ele>1014.06</ele>
        <time>2025-12-20T14:38:11.524Z</time>
      </trkpt>
      <trkpt lon="-92.443906" lat="34.298774">
        <ele>1021.04</ele>
        <time>2025-12-20T14:38:42.104Z</time>
      </trkpt>
      <trkpt lon="-92.428563" lat="34.314912">
        <ele>1022.84</ele>
        <time>2025-12-20T14:39:12.660Z</time>
      </trkpt>
      <trkpt lon="-92.412191" lat="34.330574">
        <ele>1029.35</ele>
        <time>2025-12-20T14:39:43.176Z</time>
      </trkpt>
      <trkpt lon="-92.395948" lat="34.346293">
        <ele>1032.43</ele>
        <time>2025-12-20T14:40:13.604Z</time>
      </trkpt>
      <trkpt lon="-92.380466" lat="34.361993">
        <ele>1034.1</ele>
        <time>2025-12-20T14:40:43.612Z</time>
      </trkpt>
      <trkpt lon="-92.365582" lat="34.378076">
        <ele>1027.97</ele>
        <time>2025-12-20T14:41:13.844Z</time>
      </trkpt>
      <trkpt lon="-92.350885" lat="34.394636">
        <ele>1019.26</ele>
        <time>2025-12-20T14:41:44.436Z</time>
      </trkpt>
      <trkpt lon="-92.337583" lat="34.410359">
        <ele>1017.21</ele>
        <time>2025-12-20T14:42:14.812Z</time>
      </trkpt>
      <trkpt lon="-92.323900" lat="34.427083">
        <ele>1016.39</ele>
        <time>2025-12-20T14:42:45.172Z</time>
      </trkpt>
      <trkpt lon="-92.310636" lat="34.443747">
        <ele>1012.76</ele>
        <time>2025-12-20T14:43:15.236Z</time>
      </trkpt>
      <trkpt lon="-92.297432" lat="34.460777">
        <ele>1011.23</ele>
        <time>2025-12-20T14:43:45.496Z</time>
      </trkpt>
      <trkpt lon="-92.284684" lat="34.478054">
        <ele>1004.76</ele>
        <time>2025-12-20T14:44:15.732Z</time>
      </trkpt>
      <trkpt lon="-92.279085" lat="34.485964">
        <ele>1005.06</ele>
        <time>2025-12-20T14:44:29.452Z</time>
      </trkpt>
      <trkpt lon="-92.278387" lat="34.487137">
        <ele>1001.28</ele>
        <time>2025-12-20T14:44:31.448Z</time>
      </trkpt>
      <trkpt lon="-92.277397" lat="34.489079">
        <ele>990.318</ele>
        <time>2025-12-20T14:44:34.704Z</time>
      </trkpt>
      <trkpt lon="-92.276900" lat="34.490283">
        <ele>980.607</ele>
        <time>2025-12-20T14:44:36.688Z</time>
      </trkpt>
      <trkpt lon="-92.276356" lat="34.491924">
        <ele>964.092</ele>
        <time>2025-12-20T14:44:39.332Z</time>
      </trkpt>
      <trkpt lon="-92.273467" lat="34.503457">
        <ele>942.453</ele>
        <time>2025-12-20T14:44:57.700Z</time>
      </trkpt>
      <trkpt lon="-92.272319" lat="34.506623">
        <ele>933.997</ele>
        <time>2025-12-20T14:45:02.948Z</time>
      </trkpt>
      <trkpt lon="-92.271060" lat="34.509477">
        <ele>922.456</ele>
        <time>2025-12-20T14:45:07.612Z</time>
      </trkpt>
      <trkpt lon="-92.269373" lat="34.512695">
        <ele>913.758</ele>
        <time>2025-12-20T14:45:12.900Z</time>
      </trkpt>
      <trkpt lon="-92.267442" lat="34.515811">
        <ele>905.742</ele>
        <time>2025-12-20T14:45:18.124Z</time>
      </trkpt>
      <trkpt lon="-92.265226" lat="34.518888">
        <ele>898.741</ele>
        <time>2025-12-20T14:45:23.420Z</time>
      </trkpt>
      <trkpt lon="-92.262938" lat="34.521861">
        <ele>893.823</ele>
        <time>2025-12-20T14:45:28.680Z</time>
      </trkpt>
      <trkpt lon="-92.262166" lat="34.523022">
        <ele>891.333</ele>
        <time>2025-12-20T14:45:30.688Z</time>
      </trkpt>
      <trkpt lon="-92.261509" lat="34.524182">
        <ele>887.056</ele>
        <time>2025-12-20T14:45:32.624Z</time>
      </trkpt>
      <trkpt lon="-92.260944" lat="34.525390">
        <ele>881.081</ele>
        <time>2025-12-20T14:45:34.600Z</time>
      </trkpt>
      <trkpt lon="-92.260320" lat="34.527070">
        <ele>872.437</ele>
        <time>2025-12-20T14:45:37.276Z</time>
      </trkpt>
      <trkpt lon="-92.259878" lat="34.528727">
        <ele>867.598</ele>
        <time>2025-12-20T14:45:39.896Z</time>
      </trkpt>
      <trkpt lon="-92.259506" lat="34.530799">
        <ele>866.859</ele>
        <time>2025-12-20T14:45:43.204Z</time>
      </trkpt>
      <trkpt lon="-92.259073" lat="34.534673">
        <ele>865.773</ele>
        <time>2025-12-20T14:45:49.704Z</time>
      </trkpt>
      <trkpt lon="-92.258738" lat="34.541735">
        <ele>817.675</ele>
        <time>2025-12-20T14:46:01.664Z</time>
      </trkpt>
      <trkpt lon="-92.258753" lat="34.545713">
        <ele>801.257</ele>
        <time>2025-12-20T14:46:08.248Z</time>
      </trkpt>
      <trkpt lon="-92.258358" lat="34.551573">
        <ele>789.775</ele>
        <time>2025-12-20T14:46:18.064Z</time>
      </trkpt>
      <trkpt lon="-92.258485" lat="34.554197">
        <ele>773.131</ele>
        <time>2025-12-20T14:46:22.692Z</time>
      </trkpt>
      <trkpt lon="-92.258804" lat="34.556399">
        <ele>756.599</ele>
        <time>2025-12-20T14:46:26.644Z</time>
      </trkpt>
      <trkpt lon="-92.259560" lat="34.559178">
        <ele>739.141</ele>
        <time>2025-12-20T14:46:31.908Z</time>
      </trkpt>
      <trkpt lon="-92.262276" lat="34.566714">
        <ele>728.169</ele>
        <time>2025-12-20T14:46:53.448Z</time>
      </trkpt>
      <trkpt lon="-92.263412" lat="34.569414">
        <ele>723.926</ele>
        <time>2025-12-20T14:46:59.372Z</time>
      </trkpt>
      <trkpt lon="-92.263714" lat="34.569940">
        <ele>721.885</ele>
        <time>2025-12-20T14:47:00.692Z</time>
      </trkpt>
      <trkpt lon="-92.264046" lat="34.570418">
        <ele>717.599</ele>
        <time>2025-12-20T14:47:01.976Z</time>
      </trkpt>
      <trkpt lon="-92.264418" lat="34.570855">
        <ele>711.24</ele>
        <time>2025-12-20T14:47:03.284Z</time>
      </trkpt>
      <trkpt lon="-92.264825" lat="34.571245">
        <ele>703.169</ele>
        <time>2025-12-20T14:47:04.596Z</time>
      </trkpt>
      <trkpt lon="-92.265489" lat="34.571738">
        <ele>688.895</ele>
        <time>2025-12-20T14:47:06.552Z</time>
      </trkpt>
      <trkpt lon="-92.267506" lat="34.572772">
        <ele>651.161</ele>
        <time>2025-12-20T14:47:11.776Z</time>
      </trkpt>
      <trkpt lon="-92.271383" lat="34.574701">
        <ele>661.57</ele>
        <time>2025-12-20T14:47:21.672Z</time>
      </trkpt>
      <trkpt lon="-92.272143" lat="34.575172">
        <ele>665.454</ele>
        <time>2025-12-20T14:47:24.256Z</time>
      </trkpt>
      <trkpt lon="-92.273469" lat="34.576046">
        <ele>615.566</ele>
        <time>2025-12-20T14:47:29.508Z</time>
      </trkpt>
      <trkpt lon="-92.274040" lat="34.576289">
        <ele>579.43</ele>
        <time>2025-12-20T14:47:31.484Z</time>
      </trkpt>
      <trkpt lon="-92.274694" lat="34.576458">
        <ele>534.712</ele>
        <time>2025-12-20T14:47:33.508Z</time>
      </trkpt>
      <trkpt lon="-92.275442" lat="34.576544">
        <ele>488.194</ele>
        <time>2025-12-20T14:47:35.528Z</time>
      </trkpt>
      <trkpt lon="-92.276327" lat="34.576542">
        <ele>448.795</ele>
        <time>2025-12-20T14:47:37.520Z</time>
      </trkpt>
      <trkpt lon="-92.277634" lat="34.576460">
        <ele>413.158</ele>
        <time>2025-12-20T14:47:40.240Z</time>
      </trkpt>
      <trkpt lon="-92.279626" lat="34.576312">
        <ele>382.215</ele>
        <time>2025-12-20T14:47:44.312Z</time>
      </trkpt>
      <trkpt lon="-92.281782" lat="34.576258">
        <ele>364.472</ele>
        <time>2025-12-20T14:47:48.984Z</time>
      </trkpt>
      <trkpt lon="-92.282677" lat="34.576358">
        <ele>357.37</ele>
        <time>2025-12-20T14:47:51.016Z</time>
      </trkpt>
      <trkpt lon="-92.284148" lat="34.576670">
        <ele>339.791</ele>
        <time>2025-12-20T14:47:54.384Z</time>
      </trkpt>
      <trkpt lon="-92.285666" lat="34.577047">
        <ele>313.995</ele>
        <time>2025-12-20T14:47:57.756Z</time>
      </trkpt>
      <trkpt lon="-92.287370" lat="34.577437">
        <ele>288.432</ele>
        <time>2025-12-20T14:48:01.200Z</time>
      </trkpt>
      <trkpt lon="-92.291778" lat="34.578157">
        <ele>286.073</ele>
        <time>2025-12-20T14:48:10.016Z</time>
      </trkpt>
      <trkpt lon="-92.295200" lat="34.578696">
        <ele>260.872</ele>
        <time>2025-12-20T14:48:17.368Z</time>
      </trkpt>
      <trkpt lon="-92.296144" lat="34.578975">
        <ele>249.375</ele>
        <time>2025-12-20T14:48:19.416Z</time>
      </trkpt>
      <trkpt lon="-92.297728" lat="34.579514">
        <ele>225.045</ele>
        <time>2025-12-20T14:48:22.768Z</time>
      </trkpt>
      <trkpt lon="-92.299364" lat="34.579976">
        <ele>211.333</ele>
        <time>2025-12-20T14:48:26.072Z</time>
      </trkpt>
      <trkpt lon="-92.301924" lat="34.580488">
        <ele>213.662</ele>
        <time>2025-12-20T14:48:31.524Z</time>
      </trkpt>
      <trkpt lon="-92.302871" lat="34.580690">
        <ele>208.762</ele>
        <time>2025-12-20T14:48:33.604Z</time>
      </trkpt>
      <trkpt lon="-92.303514" lat="34.580874">
        <ele>203.743</ele>
        <time>2025-12-20T14:48:34.976Z</time>
      </trkpt>
      <trkpt lon="-92.304133" lat="34.581105">
        <ele>199.15</ele>
        <time>2025-12-20T14:48:36.288Z</time>
      </trkpt>
      <trkpt lon="-92.304748" lat="34.581403">
        <ele>196.337</ele>
        <time>2025-12-20T14:48:37.612Z</time>
      </trkpt>
      <trkpt lon="-92.305332" lat="34.581784">
        <ele>196.048</ele>
        <time>2025-12-20T14:48:38.960Z</time>
      </trkpt>
      <trkpt lon="-92.305578" lat="34.582010">
        <ele>198.254</ele>
        <time>2025-12-20T14:48:39.636Z</time>
      </trkpt>
      <trkpt lon="-92.305781" lat="34.582252">
        <ele>201.108</ele>
        <time>2025-12-20T14:48:40.308Z</time>
      </trkpt>
      <trkpt lon="-92.305938" lat="34.582503">
        <ele>204.205</ele>
        <time>2025-12-20T14:48:40.948Z</time>
      </trkpt>
      <trkpt lon="-92.306053" lat="34.582774">
        <ele>207.695</ele>
        <time>2025-12-20T14:48:41.612Z</time>
      </trkpt>
      <trkpt lon="-92.306114" lat="34.583055">
        <ele>211.594</ele>
        <time>2025-12-20T14:48:42.284Z</time>
      </trkpt>
      <trkpt lon="-92.306118" lat="34.583339">
        <ele>215.942</ele>
        <time>2025-12-20T14:48:42.976Z</time>
      </trkpt>
      <trkpt lon="-92.306067" lat="34.583621">
        <ele>220.161</ele>
        <time>2025-12-20T14:48:43.676Z</time>
      </trkpt>
      <trkpt lon="-92.305976" lat="34.583868">
        <ele>223.968</ele>
        <time>2025-12-20T14:48:44.332Z</time>
      </trkpt>
      <trkpt lon="-92.305839" lat="34.584103">
        <ele>227.731</ele>
        <time>2025-12-20T14:48:45.012Z</time>
      </trkpt>
      <trkpt lon="-92.305658" lat="34.584316">
        <ele>231.07</ele>
        <time>2025-12-20T14:48:45.720Z</time>
      </trkpt>
      <trkpt lon="-92.305451" lat="34.584484">
        <ele>233.799</ele>
        <time>2025-12-20T14:48:46.384Z</time>
      </trkpt>
      <trkpt lon="-92.305219" lat="34.584612">
        <ele>235.725</ele>
        <time>2025-12-20T14:48:47.056Z</time>
      </trkpt>
      <trkpt lon="-92.304968" lat="34.584703">
        <ele>236.464</ele>
        <time>2025-12-20T14:48:47.732Z</time>
      </trkpt>
      <trkpt lon="-92.304705" lat="34.584758">
        <ele>235.85</ele>
        <time>2025-12-20T14:48:48.416Z</time>
      </trkpt>
      <trkpt lon="-92.304447" lat="34.584775">
        <ele>234.373</ele>
        <time>2025-12-20T14:48:49.080Z</time>
      </trkpt>
      <trkpt lon="-92.302947" lat="34.584407">
        <ele>221.709</ele>
        <time>2025-12-20T14:48:53.188Z</time>
      </trkpt>
      <trkpt lon="-92.302342" lat="34.584078">
        <ele>214.654</ele>
        <time>2025-12-20T14:48:55.236Z</time>
      </trkpt>
      <trkpt lon="-92.301847" lat="34.583700">
        <ele>204.585</ele>
        <time>2025-12-20T14:48:57.268Z</time>
      </trkpt>
      <trkpt lon="-92.301137" lat="34.582965">
        <ele>189.438</ele>
        <time>2025-12-20T14:49:00.652Z</time>
      </trkpt>
      <trkpt lon="-92.300945" lat="34.582666">
        <ele>181.837</ele>
        <time>2025-12-20T14:49:01.968Z</time>
      </trkpt>
      <trkpt lon="-92.300801" lat="34.582346">
        <ele>171.342</ele>
        <time>2025-12-20T14:49:03.360Z</time>
      </trkpt>
      <trkpt lon="-92.300619" lat="34.581687">
        <ele>151.372</ele>
        <time>2025-12-20T14:49:05.984Z</time>
      </trkpt>
      <trkpt lon="-92.300475" lat="34.580988">
        <ele>134.295</ele>
        <time>2025-12-20T14:49:08.608Z</time>
      </trkpt>
      <trkpt lon="-92.300422" lat="34.580330">
        <ele>128.01</ele>
        <time>2025-12-20T14:49:11.236Z</time>
      </trkpt>
      <trkpt lon="-92.300420" lat="34.579682">
        <ele>123.783</ele>
        <time>2025-12-20T14:49:14.516Z</time>
      </trkpt>
      <trkpt lon="-92.300442" lat="34.578892">
        <ele>107.083</ele>
        <time>2025-12-20T14:49:18.460Z</time>
      </trkpt>
      <trkpt lon="-92.300487" lat="34.576804">
        <ele>91.4498</ele>
        <time>2025-12-20T14:49:28.980Z</time>
      </trkpt>
      <trkpt lon="-92.300515" lat="34.576307">
        <ele>90.9702</ele>
        <time>2025-12-20T14:49:32.288Z</time>
      </trkpt>
      <trkpt lon="-92.300507" lat="34.576233">
        <ele>91.1158</ele>
        <time>2025-12-20T14:49:32.964Z</time>
      </trkpt>
      <trkpt lon="-92.300485" lat="34.576175">
        <ele>91.2276</ele>
        <time>2025-12-20T14:49:33.608Z</time>
      </trkpt>
      <trkpt lon="-92.300448" lat="34.576133">
        <ele>91.3076</ele>
        <time>2025-12-20T14:49:34.260Z</time>
      </trkpt>
      <trkpt lon="-92.300405" lat="34.576109">
        <ele>91.3497</ele>
        <time>2025-12-20T14:49:34.920Z</time>
      </trkpt>
      <trkpt lon="-92.300355" lat="34.576098">
        <ele>91.3426</ele>
        <time>2025-12-20T14:49:35.580Z</time>
      </trkpt>
      <trkpt lon="-92.300291" lat="34.576099">
        <ele>91.3162</ele>
        <time>2025-12-20T14:49:36.236Z</time>
      </trkpt>
      <trkpt lon="-92.300145" lat="34.576132">
        <ele>91.3514</ele>
        <time>2025-12-20T14:49:37.544Z</time>
      </trkpt>
      <trkpt lon="-92.300087" lat="34.576162">
        <ele>91.4023</ele>
        <time>2025-12-20T14:49:38.200Z</time>
      </trkpt>
      <trkpt lon="-92.300049" lat="34.576201">
        <ele>91.4213</ele>
        <time>2025-12-20T14:49:38.852Z</time>
      </trkpt>
      <trkpt lon="-92.300033" lat="34.576244">
        <ele>91.3612</ele>
        <time>2025-12-20T14:49:39.496Z</time>
      </trkpt>
      <trkpt lon="-92.300038" lat="34.576285">
        <ele>91.231</ele>
        <time>2025-12-20T14:49:40.160Z</time>
      </trkpt>
      <trkpt lon="-92.300059" lat="34.576319">
        <ele>91.0946</ele>
        <time>2025-12-20T14:49:40.816Z</time>
      </trkpt>
      <trkpt lon="-92.300089" lat="34.576341">
        <ele>91.0216</ele>
        <time>2025-12-20T14:49:41.472Z</time>
      </trkpt>
      <trkpt lon="-92.300107" lat="34.576350">
        <ele>91.0011</ele>
        <time>2025-12-20T14:49:42.160Z</time>
      </trkpt>
      <trkpt lon="-92.300886" lat="34.576354">
        <ele>90.8914</ele>
        <time>2025-12-21T11:36:17.292Z</time>
      </trkpt>
      <trkpt lon="-92.300866" lat="34.576346">
        <ele>90.8466</ele>
        <time>2025-12-21T11:47:20.000Z</time>
      </trkpt>
      <trkpt lon="-92.300838" lat="34.576337">
        <ele>90.9736</ele>
        <time>2025-12-21T11:47:24.668Z</time>
      </trkpt>
      <trkpt lon="-92.300759" lat="34.576314">
        <ele>91.0693</ele>
        <time>2025-12-21T11:47:26.608Z</time>
      </trkpt>
      <trkpt lon="-92.300685" lat="34.576279">
        <ele>91.053</ele>
        <time>2025-12-21T11:47:27.892Z</time>
      </trkpt>
      <trkpt lon="-92.300650" lat="34.576254">
        <ele>91.0901</ele>
        <time>2025-12-21T11:47:28.536Z</time>
      </trkpt>
      <trkpt lon="-92.300620" lat="34.576223">
        <ele>91.1512</ele>
        <time>2025-12-21T11:47:29.188Z</time>
      </trkpt>
      <trkpt lon="-92.300595" lat="34.576187">
        <ele>91.2202</ele>
        <time>2025-12-21T11:47:29.836Z</time>
      </trkpt>
      <trkpt lon="-92.300577" lat="34.576145">
        <ele>91.3035</ele>
        <time>2025-12-21T11:47:30.480Z</time>
      </trkpt>
      <trkpt lon="-92.300565" lat="34.576096">
        <ele>91.4168</ele>
        <time>2025-12-21T11:47:31.164Z</time>
      </trkpt>
      <trkpt lon="-92.300538" lat="34.575767">
        <ele>92.1975</ele>
        <time>2025-12-21T11:47:34.452Z</time>
      </trkpt>
      <trkpt lon="-92.300496" lat="34.575550">
        <ele>92.6858</ele>
        <time>2025-12-21T11:47:35.768Z</time>
      </trkpt>
      <trkpt lon="-92.300466" lat="34.575414">
        <ele>92.9712</ele>
        <time>2025-12-21T11:47:36.440Z</time>
      </trkpt>
      <trkpt lon="-92.300455" lat="34.575086">
        <ele>93.5751</ele>
        <time>2025-12-21T11:47:37.784Z</time>
      </trkpt>
      <trkpt lon="-92.300477" lat="34.574695">
        <ele>94.1159</ele>
        <time>2025-12-21T11:47:39.096Z</time>
      </trkpt>
      <trkpt lon="-92.300521" lat="34.573768">
        <ele>103.61</ele>
        <time>2025-12-21T11:47:41.696Z</time>
      </trkpt>
      <trkpt lon="-92.300590" lat="34.572706">
        <ele>123.014</ele>
        <time>2025-12-21T11:47:44.380Z</time>
      </trkpt>
      <trkpt lon="-92.300741" lat="34.571569">
        <ele>146.439</ele>
        <time>2025-12-21T11:47:47.064Z</time>
      </trkpt>
      <trkpt lon="-92.300951" lat="34.570355">
        <ele>170.617</ele>
        <time>2025-12-21T11:47:49.784Z</time>
      </trkpt>
      <trkpt lon="-92.301088" lat="34.569514">
        <ele>199.869</ele>
        <time>2025-12-21T11:47:51.712Z</time>
      </trkpt>
      <trkpt lon="-92.301184" lat="34.568982">
        <ele>223.113</ele>
        <time>2025-12-21T11:47:52.992Z</time>
      </trkpt>
      <trkpt lon="-92.301301" lat="34.568467">
        <ele>248.497</ele>
        <time>2025-12-21T11:47:54.300Z</time>
      </trkpt>
      <trkpt lon="-92.301445" lat="34.568000">
        <ele>274.066</ele>
        <time>2025-12-21T11:47:55.584Z</time>
      </trkpt>
      <trkpt lon="-92.301705" lat="34.567348">
        <ele>307.343</ele>
        <time>2025-12-21T11:47:57.544Z</time>
      </trkpt>
      <trkpt lon="-92.302128" lat="34.566540">
        <ele>335.219</ele>
        <time>2025-12-21T11:48:00.140Z</time>
      </trkpt>
      <trkpt lon="-92.302892" lat="34.565265">
        <ele>347.16</ele>
        <time>2025-12-21T11:48:04.056Z</time>
      </trkpt>
      <trkpt lon="-92.303104" lat="34.564774">
        <ele>343.766</ele>
        <time>2025-12-21T11:48:05.376Z</time>
      </trkpt>
      <trkpt lon="-92.303255" lat="34.564242">
        <ele>338.316</ele>
        <time>2025-12-21T11:48:06.676Z</time>
      </trkpt>
      <trkpt lon="-92.303342" lat="34.563666">
        <ele>332.444</ele>
        <time>2025-12-21T11:48:07.984Z</time>
      </trkpt>
      <trkpt lon="-92.303362" lat="34.562742">
        <ele>326.04</ele>
        <time>2025-12-21T11:48:09.952Z</time>
      </trkpt>
      <trkpt lon="-92.303269" lat="34.561760">
        <ele>316.996</ele>
        <time>2025-12-21T11:48:11.972Z</time>
      </trkpt>
      <trkpt lon="-92.303042" lat="34.560786">
        <ele>312.617</ele>
        <time>2025-12-21T11:48:13.948Z</time>
      </trkpt>
      <trkpt lon="-92.302690" lat="34.559863">
        <ele>314.967</ele>
        <time>2025-12-21T11:48:15.884Z</time>
      </trkpt>
      <trkpt lon="-92.302217" lat="34.559005">
        <ele>327.021</ele>
        <time>2025-12-21T11:48:17.840Z</time>
      </trkpt>
      <trkpt lon="-92.301502" lat="34.557987">
        <ele>353.052</ele>
        <time>2025-12-21T11:48:20.460Z</time>
      </trkpt>
      <trkpt lon="-92.300774" lat="34.557117">
        <ele>384.953</ele>
        <time>2025-12-21T11:48:23.088Z</time>
      </trkpt>
      <trkpt lon="-92.300404" lat="34.556739">
        <ele>400.937</ele>
        <time>2025-12-21T11:48:24.416Z</time>
      </trkpt>
      <trkpt lon="-92.300033" lat="34.556412">
        <ele>416.538</ele>
        <time>2025-12-21T11:48:25.728Z</time>
      </trkpt>
      <trkpt lon="-92.299462" lat="34.556016">
        <ele>439.547</ele>
        <time>2025-12-21T11:48:27.704Z</time>
      </trkpt>
      <trkpt lon="-92.298366" lat="34.555347">
        <ele>475.838</ele>
        <time>2025-12-21T11:48:31.636Z</time>
      </trkpt>
      <trkpt lon="-92.295907" lat="34.553759">
        <ele>510.717</ele>
        <time>2025-12-21T11:48:40.192Z</time>
      </trkpt>
      <trkpt lon="-92.292279" lat="34.551758">
        <ele>538.438</ele>
        <time>2025-12-21T11:48:50.784Z</time>
      </trkpt>
      <trkpt lon="-92.290639" lat="34.551085">
        <ele>560.341</ele>
        <time>2025-12-21T11:48:55.300Z</time>
      </trkpt>
      <trkpt lon="-92.288835" lat="34.550527">
        <ele>601.838</ele>
        <time>2025-12-21T11:49:00.536Z</time>
      </trkpt>
      <trkpt lon="-92.286954" lat="34.549918">
        <ele>641.637</ele>
        <time>2025-12-21T11:49:06.492Z</time>
      </trkpt>
      <trkpt lon="-92.283164" lat="34.548635">
        <ele>666.144</ele>
        <time>2025-12-21T11:49:17.584Z</time>
      </trkpt>
      <trkpt lon="-92.282412" lat="34.548510">
        <ele>671.353</ele>
        <time>2025-12-21T11:49:19.584Z</time>
      </trkpt>
      <trkpt lon="-92.281686" lat="34.548489">
        <ele>676.342</ele>
        <time>2025-12-21T11:49:21.520Z</time>
      </trkpt>
      <trkpt lon="-92.281199" lat="34.548548">
        <ele>679.241</ele>
        <time>2025-12-21T11:49:22.852Z</time>
      </trkpt>
      <trkpt lon="-92.280732" lat="34.548676">
        <ele>680.968</ele>
        <time>2025-12-21T11:49:24.184Z</time>
      </trkpt>
      <trkpt lon="-92.280286" lat="34.548881">
        <ele>681.382</ele>
        <time>2025-12-21T11:49:25.540Z</time>
      </trkpt>
      <trkpt lon="-92.279874" lat="34.549153">
        <ele>681.115</ele>
        <time>2025-12-21T11:49:26.896Z</time>
      </trkpt>
      <trkpt lon="-92.279507" lat="34.549474">
        <ele>680.984</ele>
        <time>2025-12-21T11:49:28.216Z</time>
      </trkpt>
      <trkpt lon="-92.279035" lat="34.550033">
        <ele>682.256</ele>
        <time>2025-12-21T11:49:30.164Z</time>
      </trkpt>
      <trkpt lon="-92.278778" lat="34.550458">
        <ele>684.29</ele>
        <time>2025-12-21T11:49:31.476Z</time>
      </trkpt>
      <trkpt lon="-92.278581" lat="34.550905">
        <ele>687.385</ele>
        <time>2025-12-21T11:49:32.760Z</time>
      </trkpt>
      <trkpt lon="-92.278437" lat="34.551403">
        <ele>691.505</ele>
        <time>2025-12-21T11:49:34.088Z</time>
      </trkpt>
      <trkpt lon="-92.278096" lat="34.554075">
        <ele>740.33</ele>
        <time>2025-12-21T11:49:41.280Z</time>
      </trkpt>
      <trkpt lon="-92.277881" lat="34.554934">
        <ele>760.211</ele>
        <time>2025-12-21T11:49:43.904Z</time>
      </trkpt>
      <trkpt lon="-92.277619" lat="34.555530">
        <ele>771.229</ele>
        <time>2025-12-21T11:49:45.884Z</time>
      </trkpt>
      <trkpt lon="-92.277382" lat="34.555893">
        <ele>776.032</ele>
        <time>2025-12-21T11:49:47.192Z</time>
      </trkpt>
      <trkpt lon="-92.277087" lat="34.556225">
        <ele>778.307</ele>
        <time>2025-12-21T11:49:48.504Z</time>
      </trkpt>
      <trkpt lon="-92.276723" lat="34.556520">
        <ele>778.12</ele>
        <time>2025-12-21T11:49:49.836Z</time>
      </trkpt>
      <trkpt lon="-92.276292" lat="34.556767">
        <ele>774.691</ele>
        <time>2025-12-21T11:49:51.172Z</time>
      </trkpt>
      <trkpt lon="-92.275799" lat="34.556951">
        <ele>768.348</ele>
        <time>2025-12-21T11:49:52.500Z</time>
      </trkpt>
      <trkpt lon="-92.274770" lat="34.557269">
        <ele>757.068</ele>
        <time>2025-12-21T11:49:55.100Z</time>
      </trkpt>
      <trkpt lon="-92.274303" lat="34.557532">
        <ele>751.326</ele>
        <time>2025-12-21T11:49:56.380Z</time>
      </trkpt>
      <trkpt lon="-92.273865" lat="34.557886">
        <ele>745.103</ele>
        <time>2025-12-21T11:49:57.716Z</time>
      </trkpt>
      <trkpt lon="-92.273487" lat="34.558327">
        <ele>739.242</ele>
        <time>2025-12-21T11:49:59.048Z</time>
      </trkpt>
      <trkpt lon="-92.273198" lat="34.558844">
        <ele>733.893</ele>
        <time>2025-12-21T11:50:00.412Z</time>
      </trkpt>
      <trkpt lon="-92.273029" lat="34.559399">
        <ele>729.047</ele>
        <time>2025-12-21T11:50:01.700Z</time>
      </trkpt>
      <trkpt lon="-92.272980" lat="34.560016">
        <ele>725.676</ele>
        <time>2025-12-21T11:50:03.032Z</time>
      </trkpt>
      <trkpt lon="-92.273053" lat="34.560622">
        <ele>724.81</ele>
        <time>2025-12-21T11:50:04.304Z</time>
      </trkpt>
      <trkpt lon="-92.273246" lat="34.561248">
        <ele>726.598</ele>
        <time>2025-12-21T11:50:05.616Z</time>
      </trkpt>
      <trkpt lon="-92.273563" lat="34.561865">
        <ele>730.623</ele>
        <time>2025-12-21T11:50:06.932Z</time>
      </trkpt>
      <trkpt lon="-92.273990" lat="34.562439">
        <ele>735.667</ele>
        <time>2025-12-21T11:50:08.244Z</time>
      </trkpt>
      <trkpt lon="-92.274548" lat="34.562992">
        <ele>741.482</ele>
        <time>2025-12-21T11:50:09.596Z</time>
      </trkpt>
      <trkpt lon="-92.275193" lat="34.563483">
        <ele>747.336</ele>
        <time>2025-12-21T11:50:10.928Z</time>
      </trkpt>
      <trkpt lon="-92.275920" lat="34.563922">
        <ele>753.523</ele>
        <time>2025-12-21T11:50:12.280Z</time>
      </trkpt>
      <trkpt lon="-92.276679" lat="34.564289">
        <ele>760.041</ele>
        <time>2025-12-21T11:50:13.576Z</time>
      </trkpt>
      <trkpt lon="-92.277880" lat="34.564745">
        <ele>771.785</ele>
        <time>2025-12-21T11:50:15.528Z</time>
      </trkpt>
      <trkpt lon="-92.279133" lat="34.565121">
        <ele>786.468</ele>
        <time>2025-12-21T11:50:17.512Z</time>
      </trkpt>
      <trkpt lon="-92.280805" lat="34.565489">
        <ele>807.738</ele>
        <time>2025-12-21T11:50:20.132Z</time>
      </trkpt>
      <trkpt lon="-92.282891" lat="34.565796">
        <ele>832.662</ele>
        <time>2025-12-21T11:50:23.420Z</time>
      </trkpt>
      <trkpt lon="-92.288188" lat="34.566395">
        <ele>876.699</ele>
        <time>2025-12-21T11:50:31.972Z</time>
      </trkpt>
      <trkpt lon="-92.289019" lat="34.566507">
        <ele>879.237</ele>
        <time>2025-12-21T11:50:33.308Z</time>
      </trkpt>
      <trkpt lon="-92.295406" lat="34.567502">
        <ele>890.681</ele>
        <time>2025-12-21T11:50:43.156Z</time>
      </trkpt>
      <trkpt lon="-92.296235" lat="34.567693">
        <ele>894.355</ele>
        <time>2025-12-21T11:50:44.464Z</time>
      </trkpt>
      <trkpt lon="-92.297042" lat="34.567954">
        <ele>895.057</ele>
        <time>2025-12-21T11:50:45.800Z</time>
      </trkpt>
      <trkpt lon="-92.297789" lat="34.568288">
        <ele>891.997</ele>
        <time>2025-12-21T11:50:47.112Z</time>
      </trkpt>
      <trkpt lon="-92.298484" lat="34.568700">
        <ele>885.813</ele>
        <time>2025-12-21T11:50:48.444Z</time>
      </trkpt>
      <trkpt lon="-92.299113" lat="34.569180">
        <ele>877.468</ele>
        <time>2025-12-21T11:50:49.776Z</time>
      </trkpt>
      <trkpt lon="-92.299668" lat="34.569710">
        <ele>868.826</ele>
        <time>2025-12-21T11:50:51.088Z</time>
      </trkpt>
      <trkpt lon="-92.300156" lat="34.570277">
        <ele>861.801</ele>
        <time>2025-12-21T11:50:52.388Z</time>
      </trkpt>
      <trkpt lon="-92.300575" lat="34.570884">
        <ele>856.817</ele>
        <time>2025-12-21T11:50:53.700Z</time>
      </trkpt>
      <trkpt lon="-92.301066" lat="34.571830">
        <ele>854.151</ele>
        <time>2025-12-21T11:50:55.656Z</time>
      </trkpt>
      <trkpt lon="-92.301929" lat="34.574015">
        <ele>881.095</ele>
        <time>2025-12-21T11:51:00.256Z</time>
      </trkpt>
      <trkpt lon="-92.302365" lat="34.575126">
        <ele>910.591</ele>
        <time>2025-12-21T11:51:02.900Z</time>
      </trkpt>
      <trkpt lon="-92.302683" lat="34.576132">
        <ele>939.3</ele>
        <time>2025-12-21T11:51:05.524Z</time>
      </trkpt>
      <trkpt lon="-92.303296" lat="34.579844">
        <ele>977.139</ele>
        <time>2025-12-21T11:51:15.988Z</time>
      </trkpt>
      <trkpt lon="-92.303303" lat="34.580348">
        <ele>973.841</ele>
        <time>2025-12-21T11:51:17.300Z</time>
      </trkpt>
      <trkpt lon="-92.303247" lat="34.580857">
        <ele>968.368</ele>
        <time>2025-12-21T11:51:18.608Z</time>
      </trkpt>
      <trkpt lon="-92.303119" lat="34.581372">
        <ele>961.686</ele>
        <time>2025-12-21T11:51:19.920Z</time>
      </trkpt>
      <trkpt lon="-92.302795" lat="34.582128">
        <ele>951.551</ele>
        <time>2025-12-21T11:51:21.876Z</time>
      </trkpt>
      <trkpt lon="-92.302486" lat="34.582613">
        <ele>946.196</ele>
        <time>2025-12-21T11:51:23.188Z</time>
      </trkpt>
      <trkpt lon="-92.302094" lat="34.583069">
        <ele>942.473</ele>
        <time>2025-12-21T11:51:24.524Z</time>
      </trkpt>
      <trkpt lon="-92.301620" lat="34.583467">
        <ele>940.065</ele>
        <time>2025-12-21T11:51:25.860Z</time>
      </trkpt>
      <trkpt lon="-92.301050" lat="34.583791">
        <ele>937.955</ele>
        <time>2025-12-21T11:51:27.236Z</time>
      </trkpt>
      <trkpt lon="-92.300739" lat="34.583912">
        <ele>936.784</ele>
        <time>2025-12-21T11:51:27.920Z</time>
      </trkpt>
      <trkpt lon="-92.300423" lat="34.584003">
        <ele>935.304</ele>
        <time>2025-12-21T11:51:28.588Z</time>
      </trkpt>
      <trkpt lon="-92.299784" lat="34.584106">
        <ele>932.843</ele>
        <time>2025-12-21T11:51:29.904Z</time>
      </trkpt>
      <trkpt lon="-92.297326" lat="34.584169">
        <ele>958.833</ele>
        <time>2025-12-21T11:51:35.084Z</time>
      </trkpt>
      <trkpt lon="-92.295754" lat="34.584142">
        <ele>997.994</ele>
        <time>2025-12-21T11:51:39.000Z</time>
      </trkpt>
      <trkpt lon="-92.290235" lat="34.584139">
        <ele>1036.59</ele>
        <time>2025-12-21T11:51:54.060Z</time>
      </trkpt>
      <trkpt lon="-92.285245" lat="34.584513">
        <ele>1031.15</ele>
        <time>2025-12-21T11:52:05.084Z</time>
      </trkpt>
      <trkpt lon="-92.269554" lat="34.584992">
        <ele>984.218</ele>
        <time>2025-12-21T11:52:35.356Z</time>
      </trkpt>
      <trkpt lon="-92.253374" lat="34.584334">
        <ele>952.105</ele>
        <time>2025-12-21T11:53:05.600Z</time>
      </trkpt>
      <trkpt lon="-92.243893" lat="34.584351">
        <ele>952.862</ele>
        <time>2025-12-21T11:53:23.804Z</time>
      </trkpt>
      <trkpt lon="-92.239392" lat="34.584809">
        <ele>954.215</ele>
        <time>2025-12-21T11:53:32.872Z</time>
      </trkpt>
      <trkpt lon="-92.224512" lat="34.587100">
        <ele>961.172</ele>
        <time>2025-12-21T11:54:03.268Z</time>
      </trkpt>
      <trkpt lon="-92.209967" lat="34.589599">
        <ele>967.411</ele>
        <time>2025-12-21T11:54:33.340Z</time>
      </trkpt>
      <trkpt lon="-92.194961" lat="34.592589">
        <ele>962.685</ele>
        <time>2025-12-21T11:55:03.648Z</time>
      </trkpt>
      <trkpt lon="-92.180901" lat="34.595767">
        <ele>955.482</ele>
        <time>2025-12-21T11:55:33.800Z</time>
      </trkpt>
      <trkpt lon="-92.166960" lat="34.598984">
        <ele>945.614</ele>
        <time>2025-12-21T11:56:03.832Z</time>
      </trkpt>
      <trkpt lon="-92.153482" lat="34.602557">
        <ele>934.04</ele>
        <time>2025-12-21T11:56:33.240Z</time>
      </trkpt>
      <trkpt lon="-92.142525" lat="34.606683">
        <ele>922.605</ele>
        <time>2025-12-21T11:56:58.636Z</time>
      </trkpt>
      <trkpt lon="-92.131498" lat="34.612176">
        <ele>919.054</ele>
        <time>2025-12-21T11:57:25.380Z</time>
      </trkpt>
      <trkpt lon="-92.119658" lat="34.619358">
        <ele>914.4</ele>
        <time>2025-12-21T11:57:55.944Z</time>
      </trkpt>
      <trkpt lon="-92.107586" lat="34.625948">
        <ele>911.903</ele>
        <time>2025-12-21T11:58:26.472Z</time>
      </trkpt>
      <trkpt lon="-92.094914" lat="34.631404">
        <ele>921.971</ele>
        <time>2025-12-21T11:58:56.704Z</time>
      </trkpt>
      <trkpt lon="-92.081607" lat="34.635866">
        <ele>929.127</ele>
        <time>2025-12-21T11:59:26.900Z</time>
      </trkpt>
      <trkpt lon="-92.068691" lat="34.639126">
        <ele>924.008</ele>
        <time>2025-12-21T11:59:55.748Z</time>
      </trkpt>
      <trkpt lon="-92.054868" lat="34.641408">
        <ele>920.297</ele>
        <time>2025-12-21T12:00:26.016Z</time>
      </trkpt>
      <trkpt lon="-92.040828" lat="34.642479">
        <ele>921.06</ele>
        <time>2025-12-21T12:00:56.368Z</time>
      </trkpt>
      <trkpt lon="-92.026516" lat="34.642366">
        <ele>924.868</ele>
        <time>2025-12-21T12:01:26.836Z</time>
      </trkpt>
      <trkpt lon="-92.012206" lat="34.642071">
        <ele>933.282</ele>
        <time>2025-12-21T12:01:57.324Z</time>
      </trkpt>
      <trkpt lon="-91.999917" lat="34.643038">
        <ele>935.121</ele>
        <time>2025-12-21T12:02:23.988Z</time>
      </trkpt>
      <trkpt lon="-91.988016" lat="34.645112">
        <ele>933.789</ele>
        <time>2025-12-21T12:02:50.232Z</time>
      </trkpt>
      <trkpt lon="-91.974530" lat="34.648608">
        <ele>932.934</ele>
        <time>2025-12-21T12:03:20.720Z</time>
      </trkpt>
      <trkpt lon="-91.961172" lat="34.652379">
        <ele>932.372</ele>
        <time>2025-12-21T12:03:51.252Z</time>
      </trkpt>
      <trkpt lon="-91.947811" lat="34.656381">
        <ele>929.27</ele>
        <time>2025-12-21T12:04:21.728Z</time>
      </trkpt>
      <trkpt lon="-91.934479" lat="34.660526">
        <ele>930.498</ele>
        <time>2025-12-21T12:04:52.156Z</time>
      </trkpt>
      <trkpt lon="-91.921251" lat="34.664795">
        <ele>941.595</ele>
        <time>2025-12-21T12:05:22.676Z</time>
      </trkpt>
      <trkpt lon="-91.908225" lat="34.669279">
        <ele>943.836</ele>
        <time>2025-12-21T12:05:53.100Z</time>
      </trkpt>
      <trkpt lon="-91.894942" lat="34.674112">
        <ele>933.108</ele>
        <time>2025-12-21T12:06:23.540Z</time>
      </trkpt>
      <trkpt lon="-91.881835" lat="34.679173">
        <ele>925.578</ele>
        <time>2025-12-21T12:06:53.988Z</time>
      </trkpt>
      <trkpt lon="-91.868920" lat="34.684253">
        <ele>913.769</ele>
        <time>2025-12-21T12:07:24.520Z</time>
      </trkpt>
      <trkpt lon="-91.855230" lat="34.688480">
        <ele>914.7</ele>
        <time>2025-12-21T12:07:55.004Z</time>
      </trkpt>
      <trkpt lon="-91.841483" lat="34.691402">
        <ele>909.63</ele>
        <time>2025-12-21T12:08:24.832Z</time>
      </trkpt>
      <trkpt lon="-91.827295" lat="34.693177">
        <ele>896.523</ele>
        <time>2025-12-21T12:08:55.344Z</time>
      </trkpt>
      <trkpt lon="-91.812786" lat="34.693704">
        <ele>895.207</ele>
        <time>2025-12-21T12:09:25.752Z</time>
      </trkpt>
      <trkpt lon="-91.798277" lat="34.692978">
        <ele>891.744</ele>
        <time>2025-12-21T12:09:56.212Z</time>
      </trkpt>
      <trkpt lon="-91.783794" lat="34.691701">
        <ele>885.536</ele>
        <time>2025-12-21T12:10:26.680Z</time>
      </trkpt>
      <trkpt lon="-91.769241" lat="34.690552">
        <ele>877.649</ele>
        <time>2025-12-21T12:10:57.216Z</time>
      </trkpt>
      <trkpt lon="-91.754718" lat="34.689653">
        <ele>873.714</ele>
        <time>2025-12-21T12:11:27.732Z</time>
      </trkpt>
      <trkpt lon="-91.740264" lat="34.688897">
        <ele>875.677</ele>
        <time>2025-12-21T12:11:58.316Z</time>
      </trkpt>
      <trkpt lon="-91.725773" lat="34.688295">
        <ele>878.211</ele>
        <time>2025-12-21T12:12:28.792Z</time>
      </trkpt>
      <trkpt lon="-91.711193" lat="34.687813">
        <ele>880.384</ele>
        <time>2025-12-21T12:12:59.236Z</time>
      </trkpt>
      <trkpt lon="-91.696619" lat="34.687502">
        <ele>889.805</ele>
        <time>2025-12-21T12:13:29.668Z</time>
      </trkpt>
      <trkpt lon="-91.682248" lat="34.687325">
        <ele>899.408</ele>
        <time>2025-12-21T12:14:00.108Z</time>
      </trkpt>
      <trkpt lon="-91.667783" lat="34.687237">
        <ele>908.265</ele>
        <time>2025-12-21T12:14:30.528Z</time>
      </trkpt>
      <trkpt lon="-91.653189" lat="34.687260">
        <ele>909.194</ele>
        <time>2025-12-21T12:15:01.156Z</time>
      </trkpt>
      <trkpt lon="-91.638603" lat="34.687451">
        <ele>908.283</ele>
        <time>2025-12-21T12:15:31.620Z</time>
      </trkpt>
      <trkpt lon="-91.623901" lat="34.687724">
        <ele>909.905</ele>
        <time>2025-12-21T12:16:02.204Z</time>
      </trkpt>
      <trkpt lon="-91.609282" lat="34.688102">
        <ele>914.8</ele>
        <time>2025-12-21T12:16:32.672Z</time>
      </trkpt>
      <trkpt lon="-91.594917" lat="34.688575">
        <ele>917.052</ele>
        <time>2025-12-21T12:17:03.148Z</time>
      </trkpt>
      <trkpt lon="-91.580523" lat="34.689321">
        <ele>915.116</ele>
        <time>2025-12-21T12:17:33.620Z</time>
      </trkpt>
      <trkpt lon="-91.565827" lat="34.689584">
        <ele>913.924</ele>
        <time>2025-12-21T12:18:04.072Z</time>
      </trkpt>
      <trkpt lon="-91.551235" lat="34.689752">
        <ele>922.499</ele>
        <time>2025-12-21T12:18:34.544Z</time>
      </trkpt>
      <trkpt lon="-91.537889" lat="34.690874">
        <ele>925.106</ele>
        <time>2025-12-21T12:19:03.100Z</time>
      </trkpt>
      <trkpt lon="-91.527315" lat="34.692732">
        <ele>922.701</ele>
        <time>2025-12-21T12:19:26.048Z</time>
      </trkpt>
      <trkpt lon="-91.517156" lat="34.695369">
        <ele>920.82</ele>
        <time>2025-12-21T12:19:48.272Z</time>
      </trkpt>
      <trkpt lon="-91.504005" lat="34.700129">
        <ele>920.572</ele>
        <time>2025-12-21T12:20:18.716Z</time>
      </trkpt>
      <trkpt lon="-91.490973" lat="34.705131">
        <ele>916.643</ele>
        <time>2025-12-21T12:20:49.152Z</time>
      </trkpt>
      <trkpt lon="-91.477764" lat="34.710179">
        <ele>915.585</ele>
        <time>2025-12-21T12:21:19.636Z</time>
      </trkpt>
      <trkpt lon="-91.464757" lat="34.715354">
        <ele>920.865</ele>
        <time>2025-12-21T12:21:50.144Z</time>
      </trkpt>
      <trkpt lon="-91.451807" lat="34.720681">
        <ele>925.256</ele>
        <time>2025-12-21T12:22:20.584Z</time>
      </trkpt>
      <trkpt lon="-91.438854" lat="34.726190">
        <ele>930.654</ele>
        <time>2025-12-21T12:22:51.048Z</time>
      </trkpt>
      <trkpt lon="-91.426177" lat="34.731871">
        <ele>932.413</ele>
        <time>2025-12-21T12:23:21.504Z</time>
      </trkpt>
      <trkpt lon="-91.413399" lat="34.737758">
        <ele>935.039</ele>
        <time>2025-12-21T12:23:51.892Z</time>
      </trkpt>
      <trkpt lon="-91.400917" lat="34.743766">
        <ele>938.937</ele>
        <time>2025-12-21T12:24:22.348Z</time>
      </trkpt>
      <trkpt lon="-91.388400" lat="34.750029">
        <ele>939.563</ele>
        <time>2025-12-21T12:24:52.868Z</time>
      </trkpt>
      <trkpt lon="-91.375933" lat="34.756423">
        <ele>944.13</ele>
        <time>2025-12-21T12:25:23.288Z</time>
      </trkpt>
      <trkpt lon="-91.363896" lat="34.762792">
        <ele>946.049</ele>
        <time>2025-12-21T12:25:53.740Z</time>
      </trkpt>
      <trkpt lon="-91.351715" lat="34.769433">
        <ele>952.108</ele>
        <time>2025-12-21T12:26:24.276Z</time>
      </trkpt>
      <trkpt lon="-91.339988" lat="34.776058">
        <ele>964.449</ele>
        <time>2025-12-21T12:26:54.656Z</time>
      </trkpt>
      <trkpt lon="-91.328388" lat="34.782798">
        <ele>973.578</ele>
        <time>2025-12-21T12:27:25.108Z</time>
      </trkpt>
      <trkpt lon="-91.316744" lat="34.789814">
        <ele>984.341</ele>
        <time>2025-12-21T12:27:55.592Z</time>
      </trkpt>
      <trkpt lon="-91.305369" lat="34.796839">
        <ele>992.512</ele>
        <time>2025-12-21T12:28:26.100Z</time>
      </trkpt>
      <trkpt lon="-91.293842" lat="34.804202">
        <ele>996.175</ele>
        <time>2025-12-21T12:28:56.568Z</time>
      </trkpt>
      <trkpt lon="-91.282635" lat="34.811561">
        <ele>995.157</ele>
        <time>2025-12-21T12:29:26.924Z</time>
      </trkpt>
      <trkpt lon="-91.271295" lat="34.819175">
        <ele>989.013</ele>
        <time>2025-12-21T12:29:57.388Z</time>
      </trkpt>
      <trkpt lon="-91.260076" lat="34.827027">
        <ele>990.212</ele>
        <time>2025-12-21T12:30:27.900Z</time>
      </trkpt>
      <trkpt lon="-91.249154" lat="34.834980">
        <ele>989.709</ele>
        <time>2025-12-21T12:30:58.404Z</time>
      </trkpt>
      <trkpt lon="-91.238351" lat="34.843176">
        <ele>988.854</ele>
        <time>2025-12-21T12:31:28.816Z</time>
      </trkpt>
      <trkpt lon="-91.227328" lat="34.850739">
        <ele>988.395</ele>
        <time>2025-12-21T12:31:58.700Z</time>
      </trkpt>
      <trkpt lon="-91.214983" lat="34.857563">
        <ele>983.766</ele>
        <time>2025-12-21T12:32:29.248Z</time>
      </trkpt>
      <trkpt lon="-91.201918" lat="34.863374">
        <ele>983.57</ele>
        <time>2025-12-21T12:32:59.756Z</time>
      </trkpt>
      <trkpt lon="-91.188397" lat="34.867991">
        <ele>981.812</ele>
        <time>2025-12-21T12:33:30.192Z</time>
      </trkpt>
      <trkpt lon="-91.174161" lat="34.871552">
        <ele>981.819</ele>
        <time>2025-12-21T12:34:00.516Z</time>
      </trkpt>
      <trkpt lon="-91.159722" lat="34.873925">
        <ele>984.65</ele>
        <time>2025-12-21T12:34:30.972Z</time>
      </trkpt>
      <trkpt lon="-91.146910" lat="34.875029">
        <ele>980.728</ele>
        <time>2025-12-21T12:34:57.656Z</time>
      </trkpt>
      <trkpt lon="-91.131647" lat="34.875217">
        <ele>971.321</ele>
        <time>2025-12-21T12:35:28.208Z</time>
      </trkpt>
      <trkpt lon="-91.116438" lat="34.875272">
        <ele>968.824</ele>
        <time>2025-12-21T12:35:58.736Z</time>
      </trkpt>
      <trkpt lon="-91.101412" lat="34.875535">
        <ele>968.351</ele>
        <time>2025-12-21T12:36:29.248Z</time>
      </trkpt>
      <trkpt lon="-91.086250" lat="34.876087">
        <ele>967.237</ele>
        <time>2025-12-21T12:36:59.760Z</time>
      </trkpt>
      <trkpt lon="-91.071076" lat="34.876782">
        <ele>969.653</ele>
        <time>2025-12-21T12:37:30.236Z</time>
      </trkpt>
      <trkpt lon="-91.060917" lat="34.877651">
        <ele>973.024</ele>
        <time>2025-12-21T12:37:51.160Z</time>
      </trkpt>
      <trkpt lon="-91.046629" lat="34.880156">
        <ele>976.501</ele>
        <time>2025-12-21T12:38:21.052Z</time>
      </trkpt>
      <trkpt lon="-91.034118" lat="34.883609">
        <ele>980.379</ele>
        <time>2025-12-21T12:38:47.688Z</time>
      </trkpt>
      <trkpt lon="-91.023159" lat="34.887711">
        <ele>984.4</ele>
        <time>2025-12-21T12:39:12.472Z</time>
      </trkpt>
      <trkpt lon="-91.010388" lat="34.893518">
        <ele>988.985</ele>
        <time>2025-12-21T12:39:42.700Z</time>
      </trkpt>
      <trkpt lon="-90.997366" lat="34.899692">
        <ele>990.818</ele>
        <time>2025-12-21T12:40:12.944Z</time>
      </trkpt>
      <trkpt lon="-90.984800" lat="34.905841">
        <ele>991.832</ele>
        <time>2025-12-21T12:40:43.040Z</time>
      </trkpt>
      <trkpt lon="-90.972152" lat="34.912180">
        <ele>990.671</ele>
        <time>2025-12-21T12:41:13.076Z</time>
      </trkpt>
      <trkpt lon="-90.959569" lat="34.918689">
        <ele>994.496</ele>
        <time>2025-12-21T12:41:43.180Z</time>
      </trkpt>
      <trkpt lon="-90.947215" lat="34.925246">
        <ele>1000.33</ele>
        <time>2025-12-21T12:42:13.460Z</time>
      </trkpt>
      <trkpt lon="-90.934175" lat="34.931405">
        <ele>1002.53</ele>
        <time>2025-12-21T12:42:43.736Z</time>
      </trkpt>
      <trkpt lon="-90.920963" lat="34.936378">
        <ele>1005.13</ele>
        <time>2025-12-21T12:43:13.804Z</time>
      </trkpt>
      <trkpt lon="-90.906719" lat="34.940452">
        <ele>998.675</ele>
        <time>2025-12-21T12:43:44.416Z</time>
      </trkpt>
      <trkpt lon="-90.892047" lat="34.943351">
        <ele>991.567</ele>
        <time>2025-12-21T12:44:15.008Z</time>
      </trkpt>
      <trkpt lon="-90.879113" lat="34.944883">
        <ele>993.526</ele>
        <time>2025-12-21T12:44:41.864Z</time>
      </trkpt>
      <trkpt lon="-90.864795" lat="34.945460">
        <ele>993.373</ele>
        <time>2025-12-21T12:45:10.592Z</time>
      </trkpt>
      <trkpt lon="-90.849610" lat="34.944921">
        <ele>986.425</ele>
        <time>2025-12-21T12:45:40.644Z</time>
      </trkpt>
      <trkpt lon="-90.834666" lat="34.943182">
        <ele>987.647</ele>
        <time>2025-12-21T12:46:10.732Z</time>
      </trkpt>
      <trkpt lon="-90.828166" lat="34.941905">
        <ele>1003.23</ele>
        <time>2025-12-21T12:46:24.772Z</time>
      </trkpt>
      <trkpt lon="-90.823034" lat="34.940595">
        <ele>993.758</ele>
        <time>2025-12-21T12:46:38.180Z</time>
      </trkpt>
      <trkpt lon="-90.817493" lat="34.938867">
        <ele>937.716</ele>
        <time>2025-12-21T12:46:54.144Z</time>
      </trkpt>
      <trkpt lon="-90.814178" lat="34.937881">
        <ele>884.28</ele>
        <time>2025-12-21T12:47:01.792Z</time>
      </trkpt>
      <trkpt lon="-90.809893" lat="34.936588">
        <ele>832.816</ele>
        <time>2025-12-21T12:47:12.608Z</time>
      </trkpt>
      <trkpt lon="-90.806468" lat="34.935492">
        <ele>784.28</ele>
        <time>2025-12-21T12:47:20.992Z</time>
      </trkpt>
      <trkpt lon="-90.802122" lat="34.933487">
        <ele>737.675</ele>
        <time>2025-12-21T12:47:32.512Z</time>
      </trkpt>
      <trkpt lon="-90.798393" lat="34.931757">
        <ele>693.812</ele>
        <time>2025-12-21T12:47:42.808Z</time>
      </trkpt>
      <trkpt lon="-90.794630" lat="34.930012">
        <ele>651.859</ele>
        <time>2025-12-21T12:47:53.628Z</time>
      </trkpt>
      <trkpt lon="-90.791863" lat="34.928764">
        <ele>620.116</ele>
        <time>2025-12-21T12:48:01.976Z</time>
      </trkpt>
      <trkpt lon="-90.789585" lat="34.927958">
        <ele>587.51</ele>
        <time>2025-12-21T12:48:08.996Z</time>
      </trkpt>
      <trkpt lon="-90.788739" lat="34.927800">
        <ele>572.05</ele>
        <time>2025-12-21T12:48:11.548Z</time>
      </trkpt>
      <trkpt lon="-90.787865" lat="34.927751">
        <ele>554.937</ele>
        <time>2025-12-21T12:48:14.104Z</time>
      </trkpt>
      <trkpt lon="-90.785660" lat="34.927880">
        <ele>528.864</ele>
        <time>2025-12-21T12:48:20.488Z</time>
      </trkpt>
      <trkpt lon="-90.785172" lat="34.927918">
        <ele>542.846</ele>
        <time>2025-12-21T12:48:22.380Z</time>
      </trkpt>
      <trkpt lon="-90.784806" lat="34.927921">
        <ele>557.863</ele>
        <time>2025-12-21T12:48:24.300Z</time>
      </trkpt>
      <trkpt lon="-90.784040" lat="34.927891">
        <ele>558.237</ele>
        <time>2025-12-21T12:48:30.048Z</time>
      </trkpt>
      <trkpt lon="-90.783498" lat="34.927950">
        <ele>530.744</ele>
        <time>2025-12-21T12:48:33.232Z</time>
      </trkpt>
      <trkpt lon="-90.782327" lat="34.928125">
        <ele>493.23</ele>
        <time>2025-12-21T12:48:38.340Z</time>
      </trkpt>
      <trkpt lon="-90.780791" lat="34.928429">
        <ele>459.445</ele>
        <time>2025-12-21T12:48:44.720Z</time>
      </trkpt>
      <trkpt lon="-90.779326" lat="34.928826">
        <ele>435.744</ele>
        <time>2025-12-21T12:48:51.112Z</time>
      </trkpt>
      <trkpt lon="-90.778529" lat="34.929213">
        <ele>421.443</ele>
        <time>2025-12-21T12:48:55.572Z</time>
      </trkpt>
      <trkpt lon="-90.777679" lat="34.929779">
        <ele>394.024</ele>
        <time>2025-12-21T12:49:00.696Z</time>
      </trkpt>
      <trkpt lon="-90.777065" lat="34.930310">
        <ele>375.366</ele>
        <time>2025-12-21T12:49:04.536Z</time>
      </trkpt>
      <trkpt lon="-90.776372" lat="34.931109">
        <ele>358.329</ele>
        <time>2025-12-21T12:49:09.636Z</time>
      </trkpt>
      <trkpt lon="-90.775798" lat="34.931978">
        <ele>339.745</ele>
        <time>2025-12-21T12:49:14.768Z</time>
      </trkpt>
      <trkpt lon="-90.775419" lat="34.932846">
        <ele>336.71</ele>
        <time>2025-12-21T12:49:19.944Z</time>
      </trkpt>
      <trkpt lon="-90.775384" lat="34.932941">
        <ele>336.813</ele>
        <time>2025-12-21T12:49:20.592Z</time>
      </trkpt>
      <trkpt lon="-90.775351" lat="34.933037">
        <ele>336.525</ele>
        <time>2025-12-21T12:49:21.252Z</time>
      </trkpt>
      <trkpt lon="-90.775138" lat="34.933730">
        <ele>308.567</ele>
        <time>2025-12-21T12:49:25.768Z</time>
      </trkpt>
      <trkpt lon="-90.774946" lat="34.934358">
        <ele>280.939</ele>
        <time>2025-12-21T12:49:28.976Z</time>
      </trkpt>
      <trkpt lon="-90.774841" lat="34.934788">
        <ele>267.947</ele>
        <time>2025-12-21T12:49:30.964Z</time>
      </trkpt>
      <trkpt lon="-90.774771" lat="34.935583">
        <ele>241.508</ele>
        <time>2025-12-21T12:49:34.808Z</time>
      </trkpt>
      <trkpt lon="-90.774757" lat="34.936085">
        <ele>217.785</ele>
        <time>2025-12-21T12:49:37.384Z</time>
      </trkpt>
      <trkpt lon="-90.774760" lat="34.936608">
        <ele>190.789</ele>
        <time>2025-12-21T12:49:39.984Z</time>
      </trkpt>
      <trkpt lon="-90.774774" lat="34.937002">
        <ele>169.458</ele>
        <time>2025-12-21T12:49:41.916Z</time>
      </trkpt>
      <trkpt lon="-90.774793" lat="34.937403">
        <ele>148.444</ele>
        <time>2025-12-21T12:49:43.824Z</time>
      </trkpt>
      <trkpt lon="-90.774815" lat="34.937824">
        <ele>127.615</ele>
        <time>2025-12-21T12:49:45.784Z</time>
      </trkpt>
      <trkpt lon="-90.774845" lat="34.938231">
        <ele>109.77</ele>
        <time>2025-12-21T12:49:47.664Z</time>
      </trkpt>
      <trkpt lon="-90.774879" lat="34.938509">
        <ele>99.4216</ele>
        <time>2025-12-21T12:49:48.972Z</time>
      </trkpt>
      <trkpt lon="-90.774902" lat="34.938646">
        <ele>94.657</ele>
        <time>2025-12-21T12:49:49.620Z</time>
      </trkpt>
      <trkpt lon="-90.775075" lat="34.939942">
        <ele>81.618</ele>
        <time>2025-12-21T12:49:56.112Z</time>
      </trkpt>
      <trkpt lon="-90.775083" lat="34.940239">
        <ele>79.2919</ele>
        <time>2025-12-21T12:49:58.132Z</time>
      </trkpt>
      <trkpt lon="-90.775032" lat="34.940648">
        <ele>77.6446</ele>
        <time>2025-12-21T12:50:01.360Z</time>
      </trkpt>
      <trkpt lon="-90.775007" lat="34.940990">
        <ele>77.2973</ele>
        <time>2025-12-21T12:50:05.244Z</time>
      </trkpt>
      <trkpt lon="-90.775014" lat="34.941216">
        <ele>77.1103</ele>
        <time>2025-12-21T12:50:09.104Z</time>
      </trkpt>
      <trkpt lon="-90.775009" lat="34.941247">
        <ele>77.0921</ele>
        <time>2025-12-21T12:50:09.776Z</time>
      </trkpt>
      <trkpt lon="-90.774999" lat="34.941274">
        <ele>77.0766</ele>
        <time>2025-12-21T12:50:10.420Z</time>
      </trkpt>
      <trkpt lon="-90.774985" lat="34.941297">
        <ele>77.0687</ele>
        <time>2025-12-21T12:50:11.056Z</time>
      </trkpt>
      <trkpt lon="-90.774967" lat="34.941316">
        <ele>77.0557</ele>
        <time>2025-12-21T12:50:11.692Z</time>
      </trkpt>
      <trkpt lon="-90.774949" lat="34.941331">
        <ele>77.052</ele>
        <time>2025-12-21T12:50:12.316Z</time>
      </trkpt>
      <trkpt lon="-90.774925" lat="34.941345">
        <ele>77.0559</ele>
        <time>2025-12-21T12:50:12.976Z</time>
      </trkpt>
      <trkpt lon="-90.774892" lat="34.941357">
        <ele>77.057</ele>
        <time>2025-12-21T12:50:13.640Z</time>
      </trkpt>
      <trkpt lon="-90.774846" lat="34.941366">
        <ele>77.069</ele>
        <time>2025-12-21T12:50:14.304Z</time>
      </trkpt>
      <trkpt lon="-90.774544" lat="34.941387">
        <ele>77.1905</ele>
        <time>2025-12-21T12:50:17.516Z</time>
      </trkpt>
      <trkpt lon="-90.774482" lat="34.941406">
        <ele>77.2113</ele>
        <time>2025-12-21T12:50:18.152Z</time>
      </trkpt>
      <trkpt lon="-90.774425" lat="34.941434">
        <ele>77.2388</ele>
        <time>2025-12-21T12:50:18.784Z</time>
      </trkpt>
      <trkpt lon="-90.774269" lat="34.941536">
        <ele>77.2917</ele>
        <time>2025-12-21T12:50:20.720Z</time>
      </trkpt>
      <trkpt lon="-90.774219" lat="34.941559">
        <ele>77.3182</ele>
        <time>2025-12-21T12:50:21.348Z</time>
      </trkpt>
      <trkpt lon="-90.774167" lat="34.941573">
        <ele>77.3478</ele>
        <time>2025-12-21T12:50:22.000Z</time>
      </trkpt>
      <trkpt lon="-90.774090" lat="34.941586">
        <ele>77.3883</ele>
        <time>2025-12-21T12:50:23.300Z</time>
      </trkpt>
      <trkpt lon="-90.774066" lat="34.941593">
        <ele>77.4064</ele>
        <time>2025-12-21T12:50:23.944Z</time>
      </trkpt>
      <trkpt lon="-90.774047" lat="34.941603">
        <ele>77.4172</ele>
        <time>2025-12-21T12:50:24.600Z</time>
      </trkpt>
      <trkpt lon="-90.774031" lat="34.941616">
        <ele>77.4305</ele>
        <time>2025-12-21T12:50:25.260Z</time>
      </trkpt>
      <trkpt lon="-90.774018" lat="34.941632">
        <ele>77.4369</ele>
        <time>2025-12-21T12:50:25.936Z</time>
      </trkpt>
      <trkpt lon="-90.774007" lat="34.941648">
        <ele>77.4337</ele>
        <time>2025-12-21T12:50:26.600Z</time>
      </trkpt>
      <trkpt lon="-90.773999" lat="34.941665">
        <ele>77.4316</ele>
        <time>2025-12-21T12:50:27.228Z</time>
      </trkpt>
      <trkpt lon="-90.773995" lat="34.941682">
        <ele>77.4239</ele>
        <time>2025-12-21T12:50:27.876Z</time>
      </trkpt>
      <trkpt lon="-90.773994" lat="34.941694">
        <ele>77.4164</ele>
        <time>2025-12-21T12:50:28.516Z</time>
      </trkpt>
      <trkpt lon="-90.773997" lat="34.941709">
        <ele>77.4112</ele>
        <time>2025-12-21T12:50:29.776Z</time>
      </trkpt>
      <trkpt lon="-90.774002" lat="34.941719">
        <ele>77.4035</ele>
        <time>2025-12-21T12:50:30.444Z</time>
      </trkpt>
      <trkpt lon="-90.774015" lat="34.941734">
        <ele>77.3851</ele>
        <time>2025-12-21T12:50:31.128Z</time>
      </trkpt>
      <trkpt lon="-90.774034" lat="34.941747">
        <ele>77.3565</ele>
        <time>2025-12-21T12:50:31.788Z</time>
      </trkpt>
      <trkpt lon="-90.774055" lat="34.941755">
        <ele>77.3349</ele>
        <time>2025-12-21T12:50:32.436Z</time>
      </trkpt>
      <trkpt lon="-90.774070" lat="34.941758">
        <ele>77.318</ele>
        <time>2025-12-21T12:50:33.100Z</time>
      </trkpt>
    </trkseg>
    <trkseg>
      <trkpt lon="-95.020929" lat="33.136485">
        <ele>116.65</ele>
        <time>2025-12-21T12:54:18.436Z</time>
      </trkpt>
      <trkpt lon="-95.020894" lat="33.136387">
        <ele>116.604</ele>
        <time>2025-12-21T12:54:38.880Z</time>
      </trkpt>
    </trkseg>
    <trkseg>
      <trkpt lon="-115.782163" lat="60.838223">
        <ele>163.443</ele>
        <time>2025-12-21T13:03:05.536Z</time>
      </trkpt>
      <trkpt lon="-115.782153" lat="60.838223">
        <ele>163.347</ele>
        <time>2025-12-21T16:59:08.084Z</time>
      </trkpt>
      <trkpt lon="-115.782144" lat="60.838223">
        <ele>163.352</ele>
        <time>2025-12-21T17:05:11.484Z</time>
      </trkpt>
      <trkpt lon="-115.782107" lat="60.838224">
        <ele>163.357</ele>
        <time>2025-12-21T17:07:41.512Z</time>
      </trkpt>
      <trkpt lon="-115.781956" lat="60.838230">
        <ele>163.367</ele>
        <time>2025-12-21T17:08:49.644Z</time>
      </trkpt>
      <trkpt lon="-115.781902" lat="60.838236">
        <ele>163.37</ele>
        <time>2025-12-21T17:08:51.660Z</time>
      </trkpt>
      <trkpt lon="-115.781850" lat="60.838245">
        <ele>163.374</ele>
        <time>2025-12-21T17:08:52.924Z</time>
      </trkpt>
      <trkpt lon="-115.781817" lat="60.838253">
        <ele>163.375</ele>
        <time>2025-12-21T17:08:53.592Z</time>
      </trkpt>
      <trkpt lon="-115.781782" lat="60.838264">
        <ele>163.378</ele>
        <time>2025-12-21T17:08:54.284Z</time>
      </trkpt>
      <trkpt lon="-115.781750" lat="60.838279">
        <ele>163.38</ele>
        <time>2025-12-21T17:08:54.936Z</time>
      </trkpt>
      <trkpt lon="-115.781723" lat="60.838297">
        <ele>163.381</ele>
        <time>2025-12-21T17:08:55.608Z</time>
      </trkpt>
      <trkpt lon="-115.781704" lat="60.838317">
        <ele>163.38</ele>
        <time>2025-12-21T17:08:56.260Z</time>
      </trkpt>
      <trkpt lon="-115.781694" lat="60.838340">
        <ele>163.376</ele>
        <time>2025-12-21T17:08:56.904Z</time>
      </trkpt>
      <trkpt lon="-115.781697" lat="60.838366">
        <ele>163.375</ele>
        <time>2025-12-21T17:08:57.556Z</time>
      </trkpt>
      <trkpt lon="-115.781715" lat="60.838391">
        <ele>163.37</ele>
        <time>2025-12-21T17:08:58.200Z</time>
      </trkpt>
      <trkpt lon="-115.781748" lat="60.838415">
        <ele>163.368</ele>
        <time>2025-12-21T17:08:58.856Z</time>
      </trkpt>
      <trkpt lon="-115.781783" lat="60.838431">
        <ele>163.365</ele>
        <time>2025-12-21T17:08:59.512Z</time>
      </trkpt>
      <trkpt lon="-115.781842" lat="60.838452">
        <ele>163.354</ele>
        <time>2025-12-21T17:09:01.488Z</time>
      </trkpt>
      <trkpt lon="-115.781919" lat="60.838474">
        <ele>163.347</ele>
        <time>2025-12-21T17:09:03.540Z</time>
      </trkpt>
      <trkpt lon="-115.782748" lat="60.838681">
        <ele>163.25</ele>
        <time>2025-12-21T17:09:13.580Z</time>
      </trkpt>
      <trkpt lon="-115.782833" lat="60.838694">
        <ele>163.242</ele>
        <time>2025-12-21T17:09:14.268Z</time>
      </trkpt>
      <trkpt lon="-115.782923" lat="60.838704">
        <ele>163.234</ele>
        <time>2025-12-21T17:09:14.956Z</time>
      </trkpt>
      <trkpt lon="-115.783013" lat="60.838708">
        <ele>163.224</ele>
        <time>2025-12-21T17:09:15.616Z</time>
      </trkpt>
      <trkpt lon="-115.783607" lat="60.838700">
        <ele>163.168</ele>
        <time>2025-12-21T17:09:19.584Z</time>
      </trkpt>
      <trkpt lon="-115.783826" lat="60.838690">
        <ele>163.146</ele>
        <time>2025-12-21T17:09:20.920Z</time>
      </trkpt>
      <trkpt lon="-115.783937" lat="60.838679">
        <ele>163.129</ele>
        <time>2025-12-21T17:09:21.592Z</time>
      </trkpt>
      <trkpt lon="-115.784042" lat="60.838664">
        <ele>163.122</ele>
        <time>2025-12-21T17:09:22.244Z</time>
      </trkpt>
      <trkpt lon="-115.784638" lat="60.838531">
        <ele>163.089</ele>
        <time>2025-12-21T17:09:26.232Z</time>
      </trkpt>
      <trkpt lon="-115.784813" lat="60.838490">
        <ele>163.077</ele>
        <time>2025-12-21T17:09:27.572Z</time>
      </trkpt>
      <trkpt lon="-115.785122" lat="60.838426">
        <ele>163.066</ele>
        <time>2025-12-21T17:09:31.584Z</time>
      </trkpt>
      <trkpt lon="-115.785502" lat="60.838345">
        <ele>163.04</ele>
        <time>2025-12-21T17:09:41.760Z</time>
      </trkpt>
      <trkpt lon="-115.785966" lat="60.838235">
        <ele>163.019</ele>
        <time>2025-12-21T17:09:45.840Z</time>
      </trkpt>
      <trkpt lon="-115.786114" lat="60.838189">
        <ele>163.009</ele>
        <time>2025-12-21T17:09:47.180Z</time>
      </trkpt>
      <trkpt lon="-115.786234" lat="60.838138">
        <ele>162.994</ele>
        <time>2025-12-21T17:09:48.528Z</time>
      </trkpt>
      <trkpt lon="-115.786395" lat="60.838054">
        <ele>162.975</ele>
        <time>2025-12-21T17:09:50.524Z</time>
      </trkpt>
      <trkpt lon="-115.786479" lat="60.837998">
        <ele>162.95</ele>
        <time>2025-12-21T17:09:51.872Z</time>
      </trkpt>
      <trkpt lon="-115.786580" lat="60.837908">
        <ele>162.901</ele>
        <time>2025-12-21T17:09:53.964Z</time>
      </trkpt>
      <trkpt lon="-115.786631" lat="60.837850">
        <ele>162.862</ele>
        <time>2025-12-21T17:09:55.288Z</time>
      </trkpt>
      <trkpt lon="-115.786724" lat="60.837705">
        <ele>162.802</ele>
        <time>2025-12-21T17:09:57.980Z</time>
      </trkpt>
      <trkpt lon="-115.786736" lat="60.837660">
        <ele>162.804</ele>
        <time>2025-12-21T17:09:58.680Z</time>
      </trkpt>
      <trkpt lon="-115.786736" lat="60.837614">
        <ele>162.808</ele>
        <time>2025-12-21T17:09:59.332Z</time>
      </trkpt>
      <trkpt lon="-115.786720" lat="60.837567">
        <ele>162.816</ele>
        <time>2025-12-21T17:09:59.988Z</time>
      </trkpt>
      <trkpt lon="-115.786691" lat="60.837517">
        <ele>162.828</ele>
        <time>2025-12-21T17:10:00.656Z</time>
      </trkpt>
      <trkpt lon="-115.785994" lat="60.836752">
        <ele>162.673</ele>
        <time>2025-12-21T17:10:08.692Z</time>
      </trkpt>
      <trkpt lon="-115.784859" lat="60.835535">
        <ele>163.362</ele>
        <time>2025-12-21T17:10:18.800Z</time>
      </trkpt>
      <trkpt lon="-115.783856" lat="60.834537">
        <ele>164.137</ele>
        <time>2025-12-21T17:10:28.820Z</time>
      </trkpt>
      <trkpt lon="-115.783461" lat="60.834144">
        <ele>164.755</ele>
        <time>2025-12-21T17:10:32.836Z</time>
      </trkpt>
      <trkpt lon="-115.783218" lat="60.833709">
        <ele>165.126</ele>
        <time>2025-12-21T17:10:37.488Z</time>
      </trkpt>
      <trkpt lon="-115.782952" lat="60.833143">
        <ele>165.249</ele>
        <time>2025-12-21T17:10:43.480Z</time>
      </trkpt>
      <trkpt lon="-115.782906" lat="60.833089">
        <ele>165.256</ele>
        <time>2025-12-21T17:10:44.160Z</time>
      </trkpt>
      <trkpt lon="-115.782843" lat="60.833042">
        <ele>165.261</ele>
        <time>2025-12-21T17:10:44.828Z</time>
      </trkpt>
      <trkpt lon="-115.782764" lat="60.833001">
        <ele>165.274</ele>
        <time>2025-12-21T17:10:45.516Z</time>
      </trkpt>
      <trkpt lon="-115.782671" lat="60.832967">
        <ele>165.291</ele>
        <time>2025-12-21T17:10:46.204Z</time>
      </trkpt>
      <trkpt lon="-115.782573" lat="60.832945">
        <ele>165.31</ele>
        <time>2025-12-21T17:10:46.856Z</time>
      </trkpt>
      <trkpt lon="-115.782464" lat="60.832935">
        <ele>165.329</ele>
        <time>2025-12-21T17:10:47.528Z</time>
      </trkpt>
      <trkpt lon="-115.782358" lat="60.832940">
        <ele>165.336</ele>
        <time>2025-12-21T17:10:48.180Z</time>
      </trkpt>
      <trkpt lon="-115.782262" lat="60.832961">
        <ele>165.324</ele>
        <time>2025-12-21T17:10:48.840Z</time>
      </trkpt>
      <trkpt lon="-115.782187" lat="60.832996">
        <ele>165.296</ele>
        <time>2025-12-21T17:10:49.516Z</time>
      </trkpt>
      <trkpt lon="-115.782148" lat="60.833041">
        <ele>165.254</ele>
        <time>2025-12-21T17:10:50.180Z</time>
      </trkpt>
      <trkpt lon="-115.782153" lat="60.833088">
        <ele>165.211</ele>
        <time>2025-12-21T17:10:50.868Z</time>
      </trkpt>
      <trkpt lon="-115.782200" lat="60.833127">
        <ele>165.19</ele>
        <time>2025-12-21T17:10:51.544Z</time>
      </trkpt>
      <trkpt lon="-115.782268" lat="60.833152">
        <ele>165.185</ele>
        <time>2025-12-21T17:10:52.196Z</time>
      </trkpt>
      <trkpt lon="-115.782332" lat="60.833164">
        <ele>165.185</ele>
        <time>2025-12-21T17:10:52.872Z</time>
      </trkpt>
      <trkpt lon="-115.782390" lat="60.833173">
        <ele>165.187</ele>
        <time>2025-12-21T17:10:53.552Z</time>
      </trkpt>
      <trkpt lon="-115.782696" lat="60.833208">
        <ele>165.21</ele>
        <time>2025-12-21T17:10:58.248Z</time>
      </trkpt>
      <trkpt lon="-115.782741" lat="60.833219">
        <ele>165.212</ele>
        <time>2025-12-21T17:11:02.840Z</time>
      </trkpt>
      <trkpt lon="-115.782797" lat="60.833235">
        <ele>165.214</ele>
        <time>2025-12-21T17:11:06.132Z</time>
      </trkpt>
      <trkpt lon="-115.782878" lat="60.833265">
        <ele>165.219</ele>
        <time>2025-12-21T17:11:08.132Z</time>
      </trkpt>
      <trkpt lon="-115.782932" lat="60.833288">
        <ele>165.224</ele>
        <time>2025-12-21T17:11:09.444Z</time>
      </trkpt>
      <trkpt lon="-115.783000" lat="60.833325">
        <ele>165.228</ele>
        <time>2025-12-21T17:11:11.472Z</time>
      </trkpt>
      <trkpt lon="-115.783028" lat="60.833343">
        <ele>165.23</ele>
        <time>2025-12-21T17:11:12.824Z</time>
      </trkpt>
      <trkpt lon="-115.783096" lat="60.833405">
        <ele>165.229</ele>
        <time>2025-12-21T17:12:10.756Z</time>
      </trkpt>
      <trkpt lon="-115.783282" lat="60.833585">
        <ele>165.206</ele>
        <time>2025-12-21T17:12:12.748Z</time>
      </trkpt>
      <trkpt lon="-115.783557" lat="60.833866">
        <ele>165.062</ele>
        <time>2025-12-21T17:12:14.664Z</time>
      </trkpt>
      <trkpt lon="-115.783926" lat="60.834251">
        <ele>164.586</ele>
        <time>2025-12-21T17:12:16.636Z</time>
      </trkpt>
      <trkpt lon="-115.784574" lat="60.834914">
        <ele>163.722</ele>
        <time>2025-12-21T17:12:19.372Z</time>
      </trkpt>
      <trkpt lon="-115.785542" lat="60.835909">
        <ele>162.967</ele>
        <time>2025-12-21T17:12:22.768Z</time>
      </trkpt>
      <trkpt lon="-115.787110" lat="60.837543">
        <ele>162.764</ele>
        <time>2025-12-21T17:12:27.584Z</time>
      </trkpt>
      <trkpt lon="-115.792192" lat="60.842963">
        <ele>179.055</ele>
        <time>2025-12-21T17:12:41.644Z</time>
      </trkpt>
      <trkpt lon="-115.793463" lat="60.844484">
        <ele>196.406</ele>
        <time>2025-12-21T17:12:45.596Z</time>
      </trkpt>
      <trkpt lon="-115.795367" lat="60.846868">
        <ele>204.972</ele>
        <time>2025-12-21T17:12:51.488Z</time>
      </trkpt>
      <trkpt lon="-115.798432" lat="60.850856">
        <ele>223.414</ele>
        <time>2025-12-21T17:13:00.316Z</time>
      </trkpt>
      <trkpt lon="-115.800639" lat="60.854056">
        <ele>242.502</ele>
        <time>2025-12-21T17:13:07.084Z</time>
      </trkpt>
      <trkpt lon="-115.801452" lat="60.855638">
        <ele>251.72</ele>
        <time>2025-12-21T17:13:10.324Z</time>
      </trkpt>
      <trkpt lon="-115.801839" lat="60.856937">
        <ele>258.939</ele>
        <time>2025-12-21T17:13:12.920Z</time>
      </trkpt>
      <trkpt lon="-115.801956" lat="60.858261">
        <ele>266.936</ele>
        <time>2025-12-21T17:13:15.528Z</time>
      </trkpt>
      <trkpt lon="-115.801783" lat="60.859582">
        <ele>275.065</ele>
        <time>2025-12-21T17:13:18.120Z</time>
      </trkpt>
      <trkpt lon="-115.801442" lat="60.860575">
        <ele>281.232</ele>
        <time>2025-12-21T17:13:20.088Z</time>
      </trkpt>
      <trkpt lon="-115.800904" lat="60.861556">
        <ele>286.912</ele>
        <time>2025-12-21T17:13:22.088Z</time>
      </trkpt>
      <trkpt lon="-115.800169" lat="60.862502">
        <ele>291.615</ele>
        <time>2025-12-21T17:13:24.068Z</time>
      </trkpt>
      <trkpt lon="-115.799221" lat="60.863415">
        <ele>295.363</ele>
        <time>2025-12-21T17:13:26.044Z</time>
      </trkpt>
      <trkpt lon="-115.798073" lat="60.864274">
        <ele>298.045</ele>
        <time>2025-12-21T17:13:28.008Z</time>
      </trkpt>
      <trkpt lon="-115.796718" lat="60.865073">
        <ele>299.556</ele>
        <time>2025-12-21T17:13:29.964Z</time>
      </trkpt>
      <trkpt lon="-115.795167" lat="60.865801">
        <ele>300.101</ele>
        <time>2025-12-21T17:13:31.920Z</time>
      </trkpt>
      <trkpt lon="-115.793448" lat="60.866436">
        <ele>300.271</ele>
        <time>2025-12-21T17:13:33.852Z</time>
      </trkpt>
      <trkpt lon="-115.791527" lat="60.866977">
        <ele>301.875</ele>
        <time>2025-12-21T17:13:35.792Z</time>
      </trkpt>
      <trkpt lon="-115.790150" lat="60.867272">
        <ele>304.983</ele>
        <time>2025-12-21T17:13:37.080Z</time>
      </trkpt>
      <trkpt lon="-115.788651" lat="60.867513">
        <ele>310.899</ele>
        <time>2025-12-21T17:13:38.408Z</time>
      </trkpt>
      <trkpt lon="-115.786345" lat="60.867763">
        <ele>324.392</ele>
        <time>2025-12-21T17:13:40.376Z</time>
      </trkpt>
      <trkpt lon="-115.782487" lat="60.868021">
        <ele>353.947</ele>
        <time>2025-12-21T17:13:43.592Z</time>
      </trkpt>
      <trkpt lon="-115.778499" lat="60.868264">
        <ele>385.382</ele>
        <time>2025-12-21T17:13:46.888Z</time>
      </trkpt>
      <trkpt lon="-115.774480" lat="60.868469">
        <ele>415.843</ele>
        <time>2025-12-21T17:13:50.172Z</time>
      </trkpt>
      <trkpt lon="-115.769685" lat="60.868628">
        <ele>449.032</ele>
        <time>2025-12-21T17:13:54.120Z</time>
      </trkpt>
      <trkpt lon="-115.763993" lat="60.868677">
        <ele>481.526</ele>
        <time>2025-12-21T17:13:58.756Z</time>
      </trkpt>
      <trkpt lon="-115.754890" lat="60.868512">
        <ele>514.345</ele>
        <time>2025-12-21T17:14:06.064Z</time>
      </trkpt>
      <trkpt lon="-115.742064" lat="60.868041">
        <ele>549.351</ele>
        <time>2025-12-21T17:14:15.936Z</time>
      </trkpt>
      <trkpt lon="-115.733316" lat="60.867798">
        <ele>587.304</ele>
        <time>2025-12-21T17:14:22.560Z</time>
      </trkpt>
      <trkpt lon="-115.726466" lat="60.867696">
        <ele>623.791</ele>
        <time>2025-12-21T17:14:27.808Z</time>
      </trkpt>
      <trkpt lon="-115.718783" lat="60.867743">
        <ele>663.607</ele>
        <time>2025-12-21T17:14:33.760Z</time>
      </trkpt>
      <trkpt lon="-115.708664" lat="60.868146">
        <ele>704.451</ele>
        <time>2025-12-21T17:14:41.652Z</time>
      </trkpt>
      <trkpt lon="-115.695050" lat="60.869209">
        <ele>749.303</ele>
        <time>2025-12-21T17:14:52.184Z</time>
      </trkpt>
      <trkpt lon="-115.684045" lat="60.870327">
        <ele>793.845</ele>
        <time>2025-12-21T17:15:00.712Z</time>
      </trkpt>
      <trkpt lon="-115.677516" lat="60.871329">
        <ele>826.579</ele>
        <time>2025-12-21T17:15:05.916Z</time>
      </trkpt>
      <trkpt lon="-115.669582" lat="60.872831">
        <ele>876.278</ele>
        <time>2025-12-21T17:15:12.464Z</time>
      </trkpt>
      <trkpt lon="-115.661972" lat="60.874436">
        <ele>927.053</ele>
        <time>2025-12-21T17:15:19.004Z</time>
      </trkpt>
      <trkpt lon="-115.650752" lat="60.877169">
        <ele>980.451</ele>
        <time>2025-12-21T17:15:28.904Z</time>
      </trkpt>
      <trkpt lon="-115.645379" lat="60.878629">
        <ele>973.332</ele>
        <time>2025-12-21T17:15:33.500Z</time>
      </trkpt>
      <trkpt lon="-115.643183" lat="60.879422">
        <ele>973.013</ele>
        <time>2025-12-21T17:15:35.452Z</time>
      </trkpt>
      <trkpt lon="-115.641125" lat="60.880351">
        <ele>973.938</ele>
        <time>2025-12-21T17:15:37.432Z</time>
      </trkpt>
      <trkpt lon="-115.639284" lat="60.881376">
        <ele>975.122</ele>
        <time>2025-12-21T17:15:39.392Z</time>
      </trkpt>
      <trkpt lon="-115.637641" lat="60.882499">
        <ele>975.764</ele>
        <time>2025-12-21T17:15:41.352Z</time>
      </trkpt>
      <trkpt lon="-115.636224" lat="60.883693">
        <ele>975.608</ele>
        <time>2025-12-21T17:15:43.408Z</time>
      </trkpt>
      <trkpt lon="-115.634904" lat="60.885109">
        <ele>974.21</ele>
        <time>2025-12-21T17:15:45.468Z</time>
      </trkpt>
      <trkpt lon="-115.632778" lat="60.888291">
        <ele>970.035</ele>
        <time>2025-12-21T17:15:50.088Z</time>
      </trkpt>
      <trkpt lon="-115.628606" lat="60.894746">
        <ele>961.779</ele>
        <time>2025-12-21T17:15:59.208Z</time>
      </trkpt>
      <trkpt lon="-115.624915" lat="60.898964">
        <ele>961.286</ele>
        <time>2025-12-21T17:16:05.204Z</time>
      </trkpt>
      <trkpt lon="-115.620337" lat="60.903057">
        <ele>965.683</ele>
        <time>2025-12-21T17:16:11.188Z</time>
      </trkpt>
      <trkpt lon="-115.615466" lat="60.906585">
        <ele>966.423</ele>
        <time>2025-12-21T17:16:16.544Z</time>
      </trkpt>
      <trkpt lon="-115.609995" lat="60.909875">
        <ele>966.82</ele>
        <time>2025-12-21T17:16:21.776Z</time>
      </trkpt>
      <trkpt lon="-115.602993" lat="60.913377">
        <ele>969.608</ele>
        <time>2025-12-21T17:16:27.688Z</time>
      </trkpt>
      <trkpt lon="-115.579468" lat="60.922698">
        <ele>970.227</ele>
        <time>2025-12-21T17:16:44.844Z</time>
      </trkpt>
      <trkpt lon="-115.536002" lat="60.939932">
        <ele>963.768</ele>
        <time>2025-12-21T17:17:15.148Z</time>
      </trkpt>
      <trkpt lon="-115.491370" lat="60.957135">
        <ele>961.6</ele>
        <time>2025-12-21T17:17:45.176Z</time>
      </trkpt>
      <trkpt lon="-115.445954" lat="60.974057">
        <ele>964.059</ele>
        <time>2025-12-21T17:18:15.200Z</time>
      </trkpt>
      <trkpt lon="-115.399292" lat="60.990849">
        <ele>962.042</ele>
        <time>2025-12-21T17:18:45.544Z</time>
      </trkpt>
      <trkpt lon="-115.373220" lat="60.999324">
        <ele>966.75</ele>
        <time>2025-12-21T17:19:01.904Z</time>
      </trkpt>
      <trkpt lon="-115.337624" lat="61.012060">
        <ele>959.248</ele>
        <time>2025-12-21T17:19:24.836Z</time>
      </trkpt>
      <trkpt lon="-115.333195" lat="61.013237">
        <ele>957.583</ele>
        <time>2025-12-21T17:19:27.460Z</time>
      </trkpt>
      <trkpt lon="-115.328540" lat="61.014196">
        <ele>958.787</ele>
        <time>2025-12-21T17:19:30.084Z</time>
      </trkpt>
      <trkpt lon="-115.322482" lat="61.015093">
        <ele>961.874</ele>
        <time>2025-12-21T17:19:33.372Z</time>
      </trkpt>
      <trkpt lon="-115.312234" lat="61.016091">
        <ele>964.379</ele>
        <time>2025-12-21T17:19:38.768Z</time>
      </trkpt>
      <trkpt lon="-115.262417" lat="61.019129">
        <ele>960.701</ele>
        <time>2025-12-21T17:20:04.312Z</time>
      </trkpt>
      <trkpt lon="-115.244154" lat="61.019391">
        <ele>959.927</ele>
        <time>2025-12-21T17:20:13.496Z</time>
      </trkpt>
      <trkpt lon="-115.183856" lat="61.018974">
        <ele>961.163</ele>
        <time>2025-12-21T17:20:43.668Z</time>
      </trkpt>
      <trkpt lon="-115.122699" lat="61.018560">
        <ele>957.279</ele>
        <time>2025-12-21T17:21:14.064Z</time>
      </trkpt>
      <trkpt lon="-115.061582" lat="61.018113">
        <ele>962.318</ele>
        <time>2025-12-21T17:21:44.436Z</time>
      </trkpt>
      <trkpt lon="-115.001296" lat="61.017652">
        <ele>960.52</ele>
        <time>2025-12-21T17:22:14.844Z</time>
      </trkpt>
      <trkpt lon="-114.941950" lat="61.017198">
        <ele>958.167</ele>
        <time>2025-12-21T17:22:44.848Z</time>
      </trkpt>
      <trkpt lon="-114.881431" lat="61.016745">
        <ele>957.734</ele>
        <time>2025-12-21T17:23:14.928Z</time>
      </trkpt>
      <trkpt lon="-114.820194" lat="61.016247">
        <ele>959.874</ele>
        <time>2025-12-21T17:23:45.268Z</time>
      </trkpt>
      <trkpt lon="-114.759123" lat="61.015816">
        <ele>956.067</ele>
        <time>2025-12-21T17:24:15.492Z</time>
      </trkpt>
      <trkpt lon="-114.698000" lat="61.015370">
        <ele>956.212</ele>
        <time>2025-12-21T17:24:45.728Z</time>
      </trkpt>
      <trkpt lon="-114.636702" lat="61.014922">
        <ele>957.073</ele>
        <time>2025-12-21T17:25:16.056Z</time>
      </trkpt>
      <trkpt lon="-114.575297" lat="61.014521">
        <ele>959.64</ele>
        <time>2025-12-21T17:25:46.504Z</time>
      </trkpt>
      <trkpt lon="-114.514255" lat="61.014097">
        <ele>956.068</ele>
        <time>2025-12-21T17:26:16.836Z</time>
      </trkpt>
      <trkpt lon="-114.453581" lat="61.013727">
        <ele>957.237</ele>
        <time>2025-12-21T17:26:47.164Z</time>
      </trkpt>
      <trkpt lon="-114.393259" lat="61.013359">
        <ele>956.294</ele>
        <time>2025-12-21T17:27:17.440Z</time>
      </trkpt>
      <trkpt lon="-114.332813" lat="61.013039">
        <ele>957.081</ele>
        <time>2025-12-21T17:27:47.716Z</time>
      </trkpt>
      <trkpt lon="-114.272058" lat="61.012690">
        <ele>957.719</ele>
        <time>2025-12-21T17:28:18.236Z</time>
      </trkpt>
      <trkpt lon="-114.211559" lat="61.012435">
        <ele>958.6</ele>
        <time>2025-12-21T17:28:48.540Z</time>
      </trkpt>
      <trkpt lon="-114.193161" lat="61.011996">
        <ele>955.667</ele>
        <time>2025-12-21T17:28:57.764Z</time>
      </trkpt>
      <trkpt lon="-114.132424" lat="61.008831">
        <ele>953.285</ele>
        <time>2025-12-21T17:29:28.216Z</time>
      </trkpt>
      <trkpt lon="-114.071123" lat="61.005355">
        <ele>947.471</ele>
        <time>2025-12-21T17:29:58.576Z</time>
      </trkpt>
      <trkpt lon="-114.010142" lat="61.001983">
        <ele>950.178</ele>
        <time>2025-12-21T17:30:28.820Z</time>
      </trkpt>
      <trkpt lon="-113.949029" lat="60.998608">
        <ele>952.06</ele>
        <time>2025-12-21T17:30:59.212Z</time>
      </trkpt>
      <trkpt lon="-113.887894" lat="60.995154">
        <ele>953.733</ele>
        <time>2025-12-21T17:31:29.676Z</time>
      </trkpt>
      <trkpt lon="-113.873433" lat="60.994496">
        <ele>955.396</ele>
        <time>2025-12-21T17:31:36.860Z</time>
      </trkpt>
      <trkpt lon="-113.868138" lat="60.994561">
        <ele>956.21</ele>
        <time>2025-12-21T17:31:39.480Z</time>
      </trkpt>
      <trkpt lon="-113.862893" lat="60.994871">
        <ele>958.655</ele>
        <time>2025-12-21T17:31:42.108Z</time>
      </trkpt>
      <trkpt lon="-113.855151" lat="60.995692">
        <ele>959.312</ele>
        <time>2025-12-21T17:31:46.052Z</time>
      </trkpt>
      <trkpt lon="-113.833858" lat="60.998834">
        <ele>953.407</ele>
        <time>2025-12-21T17:31:57.236Z</time>
      </trkpt>
      <trkpt lon="-113.827323" lat="61.000102">
        <ele>953.271</ele>
        <time>2025-12-21T17:32:00.780Z</time>
      </trkpt>
      <trkpt lon="-113.822757" lat="61.001254">
        <ele>951.276</ele>
        <time>2025-12-21T17:32:03.380Z</time>
      </trkpt>
      <trkpt lon="-113.817259" lat="61.002965">
        <ele>950.651</ele>
        <time>2025-12-21T17:32:06.688Z</time>
      </trkpt>
      <trkpt lon="-113.771373" lat="61.020664">
        <ele>952.02</ele>
        <time>2025-12-21T17:32:37.100Z</time>
      </trkpt>
      <trkpt lon="-113.726563" lat="61.038302">
        <ele>952.6</ele>
        <time>2025-12-21T17:33:07.396Z</time>
      </trkpt>
      <trkpt lon="-113.681855" lat="61.055879">
        <ele>953.549</ele>
        <time>2025-12-21T17:33:37.704Z</time>
      </trkpt>
      <trkpt lon="-113.636943" lat="61.073559">
        <ele>951.704</ele>
        <time>2025-12-21T17:34:08.144Z</time>
      </trkpt>
      <trkpt lon="-113.592383" lat="61.091110">
        <ele>952.036</ele>
        <time>2025-12-21T17:34:38.320Z</time>
      </trkpt>
      <trkpt lon="-113.547596" lat="61.108758">
        <ele>952.751</ele>
        <time>2025-12-21T17:35:08.708Z</time>
      </trkpt>
      <trkpt lon="-113.503578" lat="61.126313">
        <ele>937.489</ele>
        <time>2025-12-21T17:35:38.736Z</time>
      </trkpt>
      <trkpt lon="-113.459034" lat="61.143668">
        <ele>945.784</ele>
        <time>2025-12-21T17:36:08.844Z</time>
      </trkpt>
      <trkpt lon="-113.414625" lat="61.160875">
        <ele>945.139</ele>
        <time>2025-12-21T17:36:38.856Z</time>
      </trkpt>
      <trkpt lon="-113.370077" lat="61.178154">
        <ele>947.4</ele>
        <time>2025-12-21T17:37:09.004Z</time>
      </trkpt>
      <trkpt lon="-113.325216" lat="61.195620">
        <ele>944.621</ele>
        <time>2025-12-21T17:37:39.252Z</time>
      </trkpt>
      <trkpt lon="-113.280645" lat="61.212928">
        <ele>946.088</ele>
        <time>2025-12-21T17:38:09.332Z</time>
      </trkpt>
      <trkpt lon="-113.235771" lat="61.230393">
        <ele>946.744</ele>
        <time>2025-12-21T17:38:39.624Z</time>
      </trkpt>
      <trkpt lon="-113.191168" lat="61.247748">
        <ele>946.74</ele>
        <time>2025-12-21T17:39:09.692Z</time>
      </trkpt>
      <trkpt lon="-113.146517" lat="61.265059">
        <ele>947.048</ele>
        <time>2025-12-21T17:39:39.704Z</time>
      </trkpt>
      <trkpt lon="-113.101855" lat="61.282401">
        <ele>946.093</ele>
        <time>2025-12-21T17:40:09.728Z</time>
      </trkpt>
      <trkpt lon="-113.057145" lat="61.299783">
        <ele>945.746</ele>
        <time>2025-12-21T17:40:39.784Z</time>
      </trkpt>
      <trkpt lon="-113.012518" lat="61.317105">
        <ele>946.244</ele>
        <time>2025-12-21T17:41:09.796Z</time>
      </trkpt>
      <trkpt lon="-112.967865" lat="61.334460">
        <ele>946.877</ele>
        <time>2025-12-21T17:41:39.852Z</time>
      </trkpt>
      <trkpt lon="-112.923113" lat="61.351887">
        <ele>940.204</ele>
        <time>2025-12-21T17:42:09.928Z</time>
      </trkpt>
      <trkpt lon="-112.878495" lat="61.369271">
        <ele>939.439</ele>
        <time>2025-12-21T17:42:39.956Z</time>
      </trkpt>
      <trkpt lon="-112.833976" lat="61.386612">
        <ele>942.014</ele>
        <time>2025-12-21T17:43:09.960Z</time>
      </trkpt>
      <trkpt lon="-112.789451" lat="61.403944">
        <ele>940.819</ele>
        <time>2025-12-21T17:43:39.968Z</time>
      </trkpt>
      <trkpt lon="-112.744872" lat="61.421294">
        <ele>940.596</ele>
        <time>2025-12-21T17:44:10.004Z</time>
      </trkpt>
      <trkpt lon="-112.699538" lat="61.438918">
        <ele>940.698</ele>
        <time>2025-12-21T17:44:40.532Z</time>
      </trkpt>
      <trkpt lon="-112.654896" lat="61.456294">
        <ele>941.67</ele>
        <time>2025-12-21T17:45:10.564Z</time>
      </trkpt>
      <trkpt lon="-112.609349" lat="61.474076">
        <ele>941.377</ele>
        <time>2025-12-21T17:45:41.176Z</time>
      </trkpt>
      <trkpt lon="-112.564533" lat="61.491568">
        <ele>940.196</ele>
        <time>2025-12-21T17:46:11.256Z</time>
      </trkpt>
      <trkpt lon="-112.519763" lat="61.509027">
        <ele>941.854</ele>
        <time>2025-12-21T17:46:41.312Z</time>
      </trkpt>
      <trkpt lon="-112.474139" lat="61.526781">
        <ele>941.674</ele>
        <time>2025-12-21T17:47:11.900Z</time>
      </trkpt>
      <trkpt lon="-112.428385" lat="61.544623">
        <ele>942.222</ele>
        <time>2025-12-21T17:47:42.504Z</time>
      </trkpt>
      <trkpt lon="-112.382367" lat="61.562616">
        <ele>935.11</ele>
        <time>2025-12-21T17:48:13.104Z</time>
      </trkpt>
      <trkpt lon="-112.336948" lat="61.580455">
        <ele>934.17</ele>
        <time>2025-12-21T17:48:43.284Z</time>
      </trkpt>
      <trkpt lon="-112.291669" lat="61.598258">
        <ele>935.153</ele>
        <time>2025-12-21T17:49:13.352Z</time>
      </trkpt>
      <trkpt lon="-112.245722" lat="61.616305">
        <ele>935.654</ele>
        <time>2025-12-21T17:49:43.932Z</time>
      </trkpt>
      <trkpt lon="-112.200008" lat="61.634350">
        <ele>933.901</ele>
        <time>2025-12-21T17:50:14.520Z</time>
      </trkpt>
      <trkpt lon="-112.155324" lat="61.652199">
        <ele>934.165</ele>
        <time>2025-12-21T17:50:44.564Z</time>
      </trkpt>
      <trkpt lon="-112.110670" lat="61.670004">
        <ele>934.68</ele>
        <time>2025-12-21T17:51:14.592Z</time>
      </trkpt>
      <trkpt lon="-112.065088" lat="61.688195">
        <ele>933.408</ele>
        <time>2025-12-21T17:51:45.232Z</time>
      </trkpt>
      <trkpt lon="-112.019665" lat="61.706402">
        <ele>933.991</ele>
        <time>2025-12-21T17:52:15.836Z</time>
      </trkpt>
      <trkpt lon="-111.974384" lat="61.724518">
        <ele>933.94</ele>
        <time>2025-12-21T17:52:46.388Z</time>
      </trkpt>
      <trkpt lon="-111.929737" lat="61.742405">
        <ele>932.38</ele>
        <time>2025-12-21T17:53:16.508Z</time>
      </trkpt>
      <trkpt lon="-111.884337" lat="61.760612">
        <ele>933.635</ele>
        <time>2025-12-21T17:53:47.084Z</time>
      </trkpt>
      <trkpt lon="-111.838877" lat="61.778889">
        <ele>928.655</ele>
        <time>2025-12-21T17:54:17.676Z</time>
      </trkpt>
      <trkpt lon="-111.794255" lat="61.796955">
        <ele>926.415</ele>
        <time>2025-12-21T17:54:47.724Z</time>
      </trkpt>
      <trkpt lon="-111.748972" lat="61.815295">
        <ele>927.472</ele>
        <time>2025-12-21T17:55:18.248Z</time>
      </trkpt>
      <trkpt lon="-111.703718" lat="61.833621">
        <ele>927.609</ele>
        <time>2025-12-21T17:55:48.760Z</time>
      </trkpt>
      <trkpt lon="-111.658344" lat="61.851979">
        <ele>926.112</ele>
        <time>2025-12-21T17:56:19.340Z</time>
      </trkpt>
      <trkpt lon="-111.612986" lat="61.870346">
        <ele>926.997</ele>
        <time>2025-12-21T17:56:49.948Z</time>
      </trkpt>
      <trkpt lon="-111.568046" lat="61.888554">
        <ele>926.145</ele>
        <time>2025-12-21T17:57:20.216Z</time>
      </trkpt>
      <trkpt lon="-111.523508" lat="61.906651">
        <ele>926.149</ele>
        <time>2025-12-21T17:57:50.220Z</time>
      </trkpt>
      <trkpt lon="-111.478903" lat="61.924782">
        <ele>927.779</ele>
        <time>2025-12-21T17:58:20.276Z</time>
      </trkpt>
      <trkpt lon="-111.434344" lat="61.942878">
        <ele>927.368</ele>
        <time>2025-12-21T17:58:50.296Z</time>
      </trkpt>
      <trkpt lon="-111.389812" lat="61.960971">
        <ele>927.269</ele>
        <time>2025-12-21T17:59:20.312Z</time>
      </trkpt>
      <trkpt lon="-111.344370" lat="61.979401">
        <ele>927.938</ele>
        <time>2025-12-21T17:59:50.900Z</time>
      </trkpt>
      <trkpt lon="-111.299667" lat="61.997530">
        <ele>926.995</ele>
        <time>2025-12-21T18:00:20.996Z</time>
      </trkpt>
      <trkpt lon="-111.267209" lat="62.010459">
        <ele>924.811</ele>
        <time>2025-12-21T18:00:51.480Z</time>
      </trkpt>
      <trkpt lon="-111.221946" lat="62.028838">
        <ele>927.761</ele>
        <time>2025-12-21T18:01:21.848Z</time>
      </trkpt>
      <trkpt lon="-111.176857" lat="62.047186">
        <ele>926.745</ele>
        <time>2025-12-21T18:01:52.172Z</time>
      </trkpt>
      <trkpt lon="-111.131828" lat="62.065536">
        <ele>928.071</ele>
        <time>2025-12-21T18:02:22.500Z</time>
      </trkpt>
      <trkpt lon="-111.087015" lat="62.083803">
        <ele>927.593</ele>
        <time>2025-12-21T18:02:52.756Z</time>
      </trkpt>
      <trkpt lon="-111.050079" lat="62.098897">
        <ele>924.563</ele>
        <time>2025-12-21T18:03:22.952Z</time>
      </trkpt>
      <trkpt lon="-111.007346" lat="62.116500">
        <ele>925.695</ele>
        <time>2025-12-21T18:03:53.472Z</time>
      </trkpt>
      <trkpt lon="-110.962432" lat="62.134730">
        <ele>927.557</ele>
        <time>2025-12-21T18:04:23.720Z</time>
      </trkpt>
      <trkpt lon="-110.917464" lat="62.152989">
        <ele>930.384</ele>
        <time>2025-12-21T18:04:53.940Z</time>
      </trkpt>
      <trkpt lon="-110.893721" lat="62.163181">
        <ele>942.327</ele>
        <time>2025-12-21T18:05:10.372Z</time>
      </trkpt>
      <trkpt lon="-110.877009" lat="62.172126">
        <ele>942.601</ele>
        <time>2025-12-21T18:05:23.512Z</time>
      </trkpt>
      <trkpt lon="-110.863165" lat="62.181399">
        <ele>941.797</ele>
        <time>2025-12-21T18:05:36.100Z</time>
      </trkpt>
      <trkpt lon="-110.832728" lat="62.204039">
        <ele>954.154</ele>
        <time>2025-12-21T18:06:06.280Z</time>
      </trkpt>
      <trkpt lon="-110.800637" lat="62.226072">
        <ele>956.215</ele>
        <time>2025-12-21T18:06:36.372Z</time>
      </trkpt>
      <trkpt lon="-110.779077" lat="62.238935">
        <ele>910.048</ele>
        <time>2025-12-21T18:06:55.028Z</time>
      </trkpt>
      <trkpt lon="-110.764113" lat="62.247672">
        <ele>867.426</ele>
        <time>2025-12-21T18:07:07.544Z</time>
      </trkpt>
      <trkpt lon="-110.728867" lat="62.268949">
        <ele>836.65</ele>
        <time>2025-12-21T18:07:37.848Z</time>
      </trkpt>
      <trkpt lon="-110.710842" lat="62.279952">
        <ele>795.587</ele>
        <time>2025-12-21T18:07:53.556Z</time>
      </trkpt>
      <trkpt lon="-110.679180" lat="62.300698">
        <ele>753.825</ele>
        <time>2025-12-21T18:08:22.476Z</time>
      </trkpt>
      <trkpt lon="-110.656815" lat="62.318579">
        <ele>712.992</ele>
        <time>2025-12-21T18:08:46.188Z</time>
      </trkpt>
      <trkpt lon="-110.638053" lat="62.337169">
        <ele>682.83</ele>
        <time>2025-12-21T18:09:09.960Z</time>
      </trkpt>
      <trkpt lon="-110.623508" lat="62.355665">
        <ele>647.882</ele>
        <time>2025-12-21T18:09:32.904Z</time>
      </trkpt>
      <trkpt lon="-110.612871" lat="62.374657">
        <ele>613.217</ele>
        <time>2025-12-21T18:09:55.772Z</time>
      </trkpt>
      <trkpt lon="-110.601110" lat="62.399390">
        <ele>578.759</ele>
        <time>2025-12-21T18:10:25.412Z</time>
      </trkpt>
      <trkpt lon="-110.596607" lat="62.413324">
        <ele>557.35</ele>
        <time>2025-12-21T18:10:41.896Z</time>
      </trkpt>
      <trkpt lon="-110.595834" lat="62.419550">
        <ele>549.094</ele>
        <time>2025-12-21T18:10:49.200Z</time>
      </trkpt>
      <trkpt lon="-110.596004" lat="62.421257">
        <ele>544.758</ele>
        <time>2025-12-21T18:10:51.200Z</time>
      </trkpt>
      <trkpt lon="-110.596311" lat="62.422354">
        <ele>539.737</ele>
        <time>2025-12-21T18:10:52.496Z</time>
      </trkpt>
      <trkpt lon="-110.596862" lat="62.423399">
        <ele>539.248</ele>
        <time>2025-12-21T18:10:53.776Z</time>
      </trkpt>
      <trkpt lon="-110.597680" lat="62.424404">
        <ele>542.981</ele>
        <time>2025-12-21T18:10:55.084Z</time>
      </trkpt>
      <trkpt lon="-110.598810" lat="62.425369">
        <ele>548.871</ele>
        <time>2025-12-21T18:10:56.464Z</time>
      </trkpt>
      <trkpt lon="-110.600154" lat="62.426200">
        <ele>554.875</ele>
        <time>2025-12-21T18:10:57.800Z</time>
      </trkpt>
      <trkpt lon="-110.601680" lat="62.426901">
        <ele>559.528</ele>
        <time>2025-12-21T18:10:59.132Z</time>
      </trkpt>
      <trkpt lon="-110.603282" lat="62.427473">
        <ele>559.298</ele>
        <time>2025-12-21T18:11:00.440Z</time>
      </trkpt>
      <trkpt lon="-110.604960" lat="62.427941">
        <ele>553.243</ele>
        <time>2025-12-21T18:11:01.752Z</time>
      </trkpt>
      <trkpt lon="-110.606652" lat="62.428303">
        <ele>542.009</ele>
        <time>2025-12-21T18:11:03.044Z</time>
      </trkpt>
      <trkpt lon="-110.608403" lat="62.428577">
        <ele>526.147</ele>
        <time>2025-12-21T18:11:04.356Z</time>
      </trkpt>
      <trkpt lon="-110.610213" lat="62.428763">
        <ele>507.222</ele>
        <time>2025-12-21T18:11:05.688Z</time>
      </trkpt>
      <trkpt lon="-110.612049" lat="62.428852">
        <ele>488.773</ele>
        <time>2025-12-21T18:11:07.024Z</time>
      </trkpt>
      <trkpt lon="-110.614769" lat="62.428840">
        <ele>462.833</ele>
        <time>2025-12-21T18:11:09.008Z</time>
      </trkpt>
      <trkpt lon="-110.617509" lat="62.428711">
        <ele>433.006</ele>
        <time>2025-12-21T18:11:11.036Z</time>
      </trkpt>
      <trkpt lon="-110.620125" lat="62.428487">
        <ele>402.368</ele>
        <time>2025-12-21T18:11:12.980Z</time>
      </trkpt>
      <trkpt lon="-110.622735" lat="62.428177">
        <ele>373.794</ele>
        <time>2025-12-21T18:11:14.928Z</time>
      </trkpt>
      <trkpt lon="-110.625397" lat="62.427786">
        <ele>348.23</ele>
        <time>2025-12-21T18:11:16.904Z</time>
      </trkpt>
      <trkpt lon="-110.628949" lat="62.427146">
        <ele>323.397</ele>
        <time>2025-12-21T18:11:19.532Z</time>
      </trkpt>
      <trkpt lon="-110.633218" lat="62.426273">
        <ele>297.586</ele>
        <time>2025-12-21T18:11:22.756Z</time>
      </trkpt>
      <trkpt lon="-110.638299" lat="62.425208">
        <ele>274.804</ele>
        <time>2025-12-21T18:11:26.656Z</time>
      </trkpt>
      <trkpt lon="-110.642566" lat="62.424375">
        <ele>251.699</ele>
        <time>2025-12-21T18:11:29.940Z</time>
      </trkpt>
      <trkpt lon="-110.646806" lat="62.423578">
        <ele>232.134</ele>
        <time>2025-12-21T18:11:33.224Z</time>
      </trkpt>
      <trkpt lon="-110.648475" lat="62.423273">
        <ele>226.612</ele>
        <time>2025-12-21T18:11:34.536Z</time>
      </trkpt>
      <trkpt lon="-110.652748" lat="62.422698">
        <ele>220.557</ele>
        <time>2025-12-21T18:11:37.900Z</time>
      </trkpt>
      <trkpt lon="-110.655967" lat="62.422409">
        <ele>215.866</ele>
        <time>2025-12-21T18:11:40.536Z</time>
      </trkpt>
      <trkpt lon="-110.656692" lat="62.422354">
        <ele>223.986</ele>
        <time>2025-12-21T18:11:41.204Z</time>
      </trkpt>
      <trkpt lon="-110.657365" lat="62.422308">
        <ele>235.739</ele>
        <time>2025-12-21T18:11:41.896Z</time>
      </trkpt>
      <trkpt lon="-110.658498" lat="62.422228">
        <ele>258.253</ele>
        <time>2025-12-21T18:11:43.204Z</time>
      </trkpt>
      <trkpt lon="-110.662731" lat="62.421907">
        <ele>232.827</ele>
        <time>2025-12-21T18:11:48.516Z</time>
      </trkpt>
      <trkpt lon="-110.664329" lat="62.421756">
        <ele>212.968</ele>
        <time>2025-12-21T18:11:50.520Z</time>
      </trkpt>
      <trkpt lon="-110.666895" lat="62.421491">
        <ele>193.188</ele>
        <time>2025-12-21T18:11:53.820Z</time>
      </trkpt>
      <trkpt lon="-110.669808" lat="62.421177">
        <ele>177.038</ele>
        <time>2025-12-21T18:11:57.888Z</time>
      </trkpt>
      <trkpt lon="-110.672029" lat="62.420972">
        <ele>171.594</ele>
        <time>2025-12-21T18:12:01.192Z</time>
      </trkpt>
      <trkpt lon="-110.673162" lat="62.420818">
        <ele>173.245</ele>
        <time>2025-12-21T18:12:03.168Z</time>
      </trkpt>
      <trkpt lon="-110.678060" lat="62.420313">
        <ele>175.278</ele>
        <time>2025-12-21T18:12:13.404Z</time>
      </trkpt>
      <trkpt lon="-110.679981" lat="62.420121">
        <ele>175.228</ele>
        <time>2025-12-21T18:12:18.084Z</time>
      </trkpt>
      <trkpt lon="-110.680793" lat="62.420040">
        <ele>174.748</ele>
        <time>2025-12-21T18:12:20.780Z</time>
      </trkpt>
      <trkpt lon="-110.681412" lat="62.419958">
        <ele>174.279</ele>
        <time>2025-12-21T18:12:23.400Z</time>
      </trkpt>
      <trkpt lon="-110.681704" lat="62.419923">
        <ele>173.676</ele>
        <time>2025-12-21T18:12:24.756Z</time>
      </trkpt>
      <trkpt lon="-110.681997" lat="62.419877">
        <ele>173.536</ele>
        <time>2025-12-21T18:12:26.828Z</time>
      </trkpt>
      <trkpt lon="-110.682069" lat="62.419860">
        <ele>173.676</ele>
        <time>2025-12-21T18:12:27.484Z</time>
      </trkpt>
      <trkpt lon="-110.682186" lat="62.419823">
        <ele>173.948</ele>
        <time>2025-12-21T18:12:28.860Z</time>
      </trkpt>
      <trkpt lon="-110.682260" lat="62.419792">
        <ele>174.41</ele>
        <time>2025-12-21T18:12:30.188Z</time>
      </trkpt>
      <trkpt lon="-110.682298" lat="62.419771">
        <ele>174.728</ele>
        <time>2025-12-21T18:12:31.532Z</time>
      </trkpt>
      <trkpt lon="-110.682315" lat="62.419759">
        <ele>174.928</ele>
        <time>2025-12-21T18:12:45.672Z</time>
      </trkpt>
      <trkpt lon="-110.682333" lat="62.419750">
        <ele>175.057</ele>
        <time>2025-12-21T18:12:47.056Z</time>
      </trkpt>
      <trkpt lon="-110.682344" lat="62.419745">
        <ele>175.142</ele>
        <time>2025-12-21T18:12:48.376Z</time>
      </trkpt>
      <trkpt lon="-110.682358" lat="62.419740">
        <ele>175.234</ele>
        <time>2025-12-21T18:12:49.688Z</time>
      </trkpt>
      <trkpt lon="-110.682378" lat="62.419734">
        <ele>175.319</ele>
        <time>2025-12-21T18:12:51.056Z</time>
      </trkpt>
      <trkpt lon="-110.682392" lat="62.419731">
        <ele>175.334</ele>
        <time>2025-12-21T18:12:52.416Z</time>
      </trkpt>
      <trkpt lon="-110.682408" lat="62.419728">
        <ele>175.345</ele>
        <time>2025-12-21T18:12:53.804Z</time>
      </trkpt>
      <trkpt lon="-110.682452" lat="62.419727">
        <ele>175.251</ele>
        <time>2025-12-21T18:12:55.108Z</time>
      </trkpt>
      <trkpt lon="-110.682491" lat="62.419727">
        <ele>175.166</ele>
        <time>2025-12-21T18:12:55.764Z</time>
      </trkpt>
      <trkpt lon="-110.682601" lat="62.419736">
        <ele>174.643</ele>
        <time>2025-12-21T18:12:57.728Z</time>
      </trkpt>
      <trkpt lon="-110.682867" lat="62.419767">
        <ele>173.754</ele>
        <time>2025-12-21T18:12:59.756Z</time>
      </trkpt>
      <trkpt lon="-110.683205" lat="62.419787">
        <ele>172.935</ele>
        <time>2025-12-21T18:13:01.116Z</time>
      </trkpt>
      <trkpt lon="-110.683400" lat="62.419784">
        <ele>172.712</ele>
        <time>2025-12-21T18:13:01.804Z</time>
      </trkpt>
      <trkpt lon="-110.684714" lat="62.419674">
        <ele>171.587</ele>
        <time>2025-12-21T18:13:05.852Z</time>
      </trkpt>
      <trkpt lon="-110.687938" lat="62.419354">
        <ele>169.403</ele>
        <time>2025-12-21T18:13:13.944Z</time>
      </trkpt>
      <trkpt lon="-110.692831" lat="62.418926">
        <ele>168.52</ele>
        <time>2025-12-21T18:13:24.092Z</time>
      </trkpt>
      <trkpt lon="-110.694487" lat="62.418746">
        <ele>167.436</ele>
        <time>2025-12-21T18:13:28.084Z</time>
      </trkpt>
      <trkpt lon="-110.696884" lat="62.418532">
        <ele>164.373</ele>
        <time>2025-12-21T18:13:34.820Z</time>
      </trkpt>
      <trkpt lon="-110.697219" lat="62.418457">
        <ele>163.955</ele>
        <time>2025-12-21T18:13:36.140Z</time>
      </trkpt>
      <trkpt lon="-110.697350" lat="62.418410">
        <ele>163.759</ele>
        <time>2025-12-21T18:13:36.788Z</time>
      </trkpt>
      <trkpt lon="-110.697460" lat="62.418352">
        <ele>163.45</ele>
        <time>2025-12-21T18:13:37.452Z</time>
      </trkpt>
      <trkpt lon="-110.697542" lat="62.418291">
        <ele>163.432</ele>
        <time>2025-12-21T18:13:38.100Z</time>
      </trkpt>
      <trkpt lon="-110.697594" lat="62.418231">
        <ele>163.666</ele>
        <time>2025-12-21T18:13:38.744Z</time>
      </trkpt>
      <trkpt lon="-110.697619" lat="62.418168">
        <ele>163.925</ele>
        <time>2025-12-21T18:13:39.428Z</time>
      </trkpt>
      <trkpt lon="-110.697623" lat="62.418110">
        <ele>164.176</ele>
        <time>2025-12-21T18:13:40.100Z</time>
      </trkpt>
      <trkpt lon="-110.697611" lat="62.418049">
        <ele>164.518</ele>
        <time>2025-12-21T18:13:40.788Z</time>
      </trkpt>
      <trkpt lon="-110.697512" lat="62.417804">
        <ele>165.801</ele>
        <time>2025-12-21T18:13:42.804Z</time>
      </trkpt>
      <trkpt lon="-110.697344" lat="62.417481">
        <ele>167.137</ele>
        <time>2025-12-21T18:13:44.820Z</time>
      </trkpt>
      <trkpt lon="-110.696075" lat="62.415824">
        <ele>174.415</ele>
        <time>2025-12-21T18:13:54.328Z</time>
      </trkpt>
      <trkpt lon="-110.695858" lat="62.415523">
        <ele>175.547</ele>
        <time>2025-12-21T18:13:57.680Z</time>
      </trkpt>
      <trkpt lon="-110.695817" lat="62.415485">
        <ele>175.775</ele>
        <time>2025-12-21T18:13:58.328Z</time>
      </trkpt>
      <trkpt lon="-110.695662" lat="62.415379">
        <ele>176.841</ele>
        <time>2025-12-21T18:14:01.024Z</time>
      </trkpt>
      <trkpt lon="-110.695628" lat="62.415359">
        <ele>177.047</ele>
        <time>2025-12-21T18:14:02.352Z</time>
      </trkpt>
      <trkpt lon="-110.695557" lat="62.415329">
        <ele>177.294</ele>
        <time>2025-12-21T18:14:04.352Z</time>
      </trkpt>
      <trkpt lon="-110.695507" lat="62.415309">
        <ele>177.251</ele>
        <time>2025-12-21T18:14:05.040Z</time>
      </trkpt>
      <trkpt lon="-110.695439" lat="62.415288">
        <ele>177.06</ele>
        <time>2025-12-21T18:14:05.704Z</time>
      </trkpt>
      <trkpt lon="-110.695349" lat="62.415270">
        <ele>177.087</ele>
        <time>2025-12-21T18:14:06.376Z</time>
      </trkpt>
      <trkpt lon="-110.695254" lat="62.415258">
        <ele>177.096</ele>
        <time>2025-12-21T18:14:07.032Z</time>
      </trkpt>
      <trkpt lon="-110.695144" lat="62.415257">
        <ele>177.005</ele>
        <time>2025-12-21T18:14:07.696Z</time>
      </trkpt>
      <trkpt lon="-110.695012" lat="62.415271">
        <ele>177.002</ele>
        <time>2025-12-21T18:14:08.384Z</time>
      </trkpt>
      <trkpt lon="-110.694731" lat="62.415309">
        <ele>177.324</ele>
        <time>2025-12-21T18:14:09.756Z</time>
      </trkpt>
      <trkpt lon="-110.694013" lat="62.415352">
        <ele>177.476</ele>
        <time>2025-12-21T18:14:12.460Z</time>
      </trkpt>
      <trkpt lon="-110.693822" lat="62.415352">
        <ele>177.554</ele>
        <time>2025-12-21T18:14:13.124Z</time>
      </trkpt>
      <trkpt lon="-110.692957" lat="62.415304">
        <ele>177.532</ele>
        <time>2025-12-21T18:14:15.820Z</time>
      </trkpt>
      <trkpt lon="-110.691864" lat="62.415196">
        <ele>176.921</ele>
        <time>2025-12-21T18:14:19.164Z</time>
      </trkpt>
      <trkpt lon="-110.691175" lat="62.415185">
        <ele>176.615</ele>
        <time>2025-12-21T18:14:21.188Z</time>
      </trkpt>
      <trkpt lon="-110.690951" lat="62.415195">
        <ele>176.518</ele>
        <time>2025-12-21T18:14:21.884Z</time>
      </trkpt>
      <trkpt lon="-110.690541" lat="62.415235">
        <ele>176.507</ele>
        <time>2025-12-21T18:14:23.236Z</time>
      </trkpt>
      <trkpt lon="-110.689858" lat="62.415331">
        <ele>176.776</ele>
        <time>2025-12-21T18:14:25.984Z</time>
      </trkpt>
      <trkpt lon="-110.689736" lat="62.415356">
        <ele>176.877</ele>
        <time>2025-12-21T18:14:26.640Z</time>
      </trkpt>
      <trkpt lon="-110.689524" lat="62.415413">
        <ele>177.156</ele>
        <time>2025-12-21T18:14:27.968Z</time>
      </trkpt>
      <trkpt lon="-110.689188" lat="62.415547">
        <ele>177.762</ele>
        <time>2025-12-21T18:14:30.696Z</time>
      </trkpt>
      <trkpt lon="-110.689001" lat="62.415632">
        <ele>178.203</ele>
        <time>2025-12-21T18:14:32.704Z</time>
      </trkpt>
      <trkpt lon="-110.688933" lat="62.415672">
        <ele>178.378</ele>
        <time>2025-12-21T18:14:34.048Z</time>
      </trkpt>
      <trkpt lon="-110.688796" lat="62.415769">
        <ele>178.88</ele>
        <time>2025-12-21T18:14:36.720Z</time>
      </trkpt>
      <trkpt lon="-110.688767" lat="62.415798">
        <ele>179.049</ele>
        <time>2025-12-21T18:14:37.384Z</time>
      </trkpt>
      <trkpt lon="-110.688750" lat="62.415822">
        <ele>179.158</ele>
        <time>2025-12-21T18:14:38.048Z</time>
      </trkpt>
      <trkpt lon="-110.688741" lat="62.415838">
        <ele>179.326</ele>
        <time>2025-12-21T18:14:39.420Z</time>
      </trkpt>
      <trkpt lon="-110.688738" lat="62.415850">
        <ele>179.433</ele>
        <time>2025-12-21T18:14:42.196Z</time>
      </trkpt>
      <trkpt lon="-110.688737" lat="62.415886">
        <ele>179.668</ele>
        <time>2025-12-21T18:14:44.236Z</time>
      </trkpt>
      <trkpt lon="-110.688745" lat="62.415914">
        <ele>179.737</ele>
        <time>2025-12-21T18:14:45.564Z</time>
      </trkpt>
      <trkpt lon="-110.688759" lat="62.415938">
        <ele>179.729</ele>
        <time>2025-12-21T18:14:55.648Z</time>
      </trkpt>
      <trkpt lon="-110.688781" lat="62.415982">
        <ele>179.675</ele>
        <time>2025-12-21T18:28:48.140Z</time>
      </trkpt>
      <trkpt lon="-110.688876" lat="62.416092">
        <ele>179.584</ele>
        <time>2025-12-21T18:28:57.756Z</time>
      </trkpt>
      <trkpt lon="-110.688895" lat="62.416139">
        <ele>179.581</ele>
        <time>2025-12-21T18:29:00.344Z</time>
      </trkpt>
      <trkpt lon="-110.688898" lat="62.416153">
        <ele>179.579</ele>
        <time>2025-12-21T18:29:01.608Z</time>
      </trkpt>
      <trkpt lon="-110.688866" lat="62.416389">
        <ele>179.967</ele>
        <time>2025-12-21T18:29:08.640Z</time>
      </trkpt>
      <trkpt lon="-110.688843" lat="62.416449">
        <ele>180</ele>
        <time>2025-12-21T18:29:10.564Z</time>
      </trkpt>
      <trkpt lon="-110.688733" lat="62.416664">
        <ele>179.778</ele>
        <time>2025-12-21T18:29:15.672Z</time>
      </trkpt>
      <trkpt lon="-110.688615" lat="62.416798">
        <ele>179.851</ele>
        <time>2025-12-21T18:29:20.860Z</time>
      </trkpt>
      <trkpt lon="-110.688497" lat="62.416897">
        <ele>179.941</ele>
        <time>2025-12-21T18:29:27.296Z</time>
      </trkpt>
      <trkpt lon="-110.688423" lat="62.416945">
        <ele>179.686</ele>
        <time>2025-12-21T18:29:31.804Z</time>
      </trkpt>
      <trkpt lon="-110.688314" lat="62.417004">
        <ele>179.742</ele>
        <time>2025-12-21T18:29:34.320Z</time>
      </trkpt>
      <trkpt lon="-110.688175" lat="62.417063">
        <ele>179.417</ele>
        <time>2025-12-21T18:29:36.868Z</time>
      </trkpt>
      <trkpt lon="-110.688056" lat="62.417102">
        <ele>179.48</ele>
        <time>2025-12-21T18:29:38.780Z</time>
      </trkpt>
      <trkpt lon="-110.687765" lat="62.417191">
        <ele>179.358</ele>
        <time>2025-12-21T18:29:42.008Z</time>
      </trkpt>
      <trkpt lon="-110.686917" lat="62.417409">
        <ele>178.848</ele>
        <time>2025-12-21T18:29:47.828Z</time>
      </trkpt>
      <trkpt lon="-110.685625" lat="62.417678">
        <ele>179.132</ele>
        <time>2025-12-21T18:29:53.600Z</time>
      </trkpt>
      <trkpt lon="-110.682897" lat="62.418115">
        <ele>178.824</ele>
        <time>2025-12-21T18:30:03.900Z</time>
      </trkpt>
      <trkpt lon="-110.679647" lat="62.418469">
        <ele>179.366</ele>
        <time>2025-12-21T18:30:14.244Z</time>
      </trkpt>
      <trkpt lon="-110.676427" lat="62.418765">
        <ele>180.894</ele>
        <time>2025-12-21T18:30:23.248Z</time>
      </trkpt>
      <trkpt lon="-110.673843" lat="62.418980">
        <ele>180.361</ele>
        <time>2025-12-21T18:30:30.328Z</time>
      </trkpt>
      <trkpt lon="-110.673482" lat="62.419017">
        <ele>180.358</ele>
        <time>2025-12-21T18:30:32.228Z</time>
      </trkpt>
      <trkpt lon="-110.673321" lat="62.419024">
        <ele>180.353</ele>
        <time>2025-12-21T18:30:33.508Z</time>
      </trkpt>
      <trkpt lon="-110.673173" lat="62.419029">
        <ele>180.322</ele>
        <time>2025-12-21T18:30:34.820Z</time>
      </trkpt>
      <trkpt lon="-110.673098" lat="62.419035">
        <ele>180.327</ele>
        <time>2025-12-21T18:30:35.460Z</time>
      </trkpt>
      <trkpt lon="-110.673024" lat="62.419046">
        <ele>180.297</ele>
        <time>2025-12-21T18:30:36.084Z</time>
      </trkpt>
      <trkpt lon="-110.672953" lat="62.419063">
        <ele>180.269</ele>
        <time>2025-12-21T18:30:36.720Z</time>
      </trkpt>
      <trkpt lon="-110.672886" lat="62.419085">
        <ele>180.221</ele>
        <time>2025-12-21T18:30:37.360Z</time>
      </trkpt>
      <trkpt lon="-110.672829" lat="62.419114">
        <ele>180.139</ele>
        <time>2025-12-21T18:30:37.992Z</time>
      </trkpt>
      <trkpt lon="-110.672785" lat="62.419151">
        <ele>180.039</ele>
        <time>2025-12-21T18:30:38.656Z</time>
      </trkpt>
      <trkpt lon="-110.672764" lat="62.419191">
        <ele>179.929</ele>
        <time>2025-12-21T18:30:39.288Z</time>
      </trkpt>
      <trkpt lon="-110.672771" lat="62.419237">
        <ele>179.847</ele>
        <time>2025-12-21T18:30:39.968Z</time>
      </trkpt>
      <trkpt lon="-110.672808" lat="62.419276">
        <ele>179.793</ele>
        <time>2025-12-21T18:30:40.608Z</time>
      </trkpt>
      <trkpt lon="-110.672874" lat="62.419312">
        <ele>179.719</ele>
        <time>2025-12-21T18:30:41.272Z</time>
      </trkpt>
      <trkpt lon="-110.672955" lat="62.419337">
        <ele>179.633</ele>
        <time>2025-12-21T18:30:41.916Z</time>
      </trkpt>
      <trkpt lon="-110.673047" lat="62.419354">
        <ele>179.615</ele>
        <time>2025-12-21T18:30:42.556Z</time>
      </trkpt>
      <trkpt lon="-110.673141" lat="62.419363">
        <ele>179.631</ele>
        <time>2025-12-21T18:30:43.204Z</time>
      </trkpt>
      <trkpt lon="-110.673220" lat="62.419365">
        <ele>179.645</ele>
        <time>2025-12-21T18:30:43.828Z</time>
      </trkpt>
      <trkpt lon="-110.673291" lat="62.419363">
        <ele>179.682</ele>
        <time>2025-12-21T18:30:44.492Z</time>
      </trkpt>
      <trkpt lon="-110.673377" lat="62.419355">
        <ele>179.742</ele>
        <time>2025-12-21T18:30:45.772Z</time>
      </trkpt>
      <trkpt lon="-110.673403" lat="62.419352">
        <ele>179.759</ele>
        <time>2025-12-21T18:30:47.048Z</time>
      </trkpt>
      <trkpt lon="-110.673456" lat="62.419340">
        <ele>179.81</ele>
        <time>2025-12-21T18:30:48.352Z</time>
      </trkpt>
      <trkpt lon="-110.673497" lat="62.419327">
        <ele>179.858</ele>
        <time>2025-12-21T18:30:48.984Z</time>
      </trkpt>
      <trkpt lon="-110.673540" lat="62.419308">
        <ele>179.921</ele>
        <time>2025-12-21T18:30:49.632Z</time>
      </trkpt>
      <trkpt lon="-110.673645" lat="62.419254">
        <ele>180.117</ele>
        <time>2025-12-21T18:30:52.860Z</time>
      </trkpt>
      <trkpt lon="-110.673656" lat="62.419249">
        <ele>180.125</ele>
        <time>2025-12-21T18:30:54.164Z</time>
      </trkpt>
      <trkpt lon="-110.673696" lat="62.419236">
        <ele>180.194</ele>
        <time>2025-12-21T18:30:55.436Z</time>
      </trkpt>
      <trkpt lon="-110.673717" lat="62.419232">
        <ele>180.215</ele>
        <time>2025-12-21T18:30:56.080Z</time>
      </trkpt>
      <trkpt lon="-110.673726" lat="62.419230">
        <ele>180.213</ele>
        <time>2025-12-21T18:31:37.524Z</time>
      </trkpt>
      <trkpt lon="-110.673834" lat="62.419213">
        <ele>180.269</ele>
        <time>2025-12-21T18:32:31.476Z</time>
      </trkpt>
      <trkpt lon="-110.674191" lat="62.419158">
        <ele>180.404</ele>
        <time>2025-12-21T18:32:33.376Z</time>
      </trkpt>
      <trkpt lon="-110.674807" lat="62.419071">
        <ele>180.438</ele>
        <time>2025-12-21T18:32:35.336Z</time>
      </trkpt>
      <trkpt lon="-110.675644" lat="62.418966">
        <ele>180.471</ele>
        <time>2025-12-21T18:32:37.244Z</time>
      </trkpt>
      <trkpt lon="-110.677061" lat="62.418806">
        <ele>181.045</ele>
        <time>2025-12-21T18:32:39.780Z</time>
      </trkpt>
      <trkpt lon="-110.678835" lat="62.418616">
        <ele>180.109</ele>
        <time>2025-12-21T18:32:42.384Z</time>
      </trkpt>
      <trkpt lon="-110.681392" lat="62.418325">
        <ele>179.25</ele>
        <time>2025-12-21T18:32:45.592Z</time>
      </trkpt>
      <trkpt lon="-110.686632" lat="62.417765">
        <ele>197.053</ele>
        <time>2025-12-21T18:32:51.376Z</time>
      </trkpt>
      <trkpt lon="-110.688201" lat="62.417564">
        <ele>220.516</ele>
        <time>2025-12-21T18:32:53.272Z</time>
      </trkpt>
      <trkpt lon="-110.689242" lat="62.417422">
        <ele>229.981</ele>
        <time>2025-12-21T18:32:54.548Z</time>
      </trkpt>
      <trkpt lon="-110.692634" lat="62.416955">
        <ele>239.465</ele>
        <time>2025-12-21T18:32:58.368Z</time>
      </trkpt>
      <trkpt lon="-110.694982" lat="62.416627">
        <ele>262.049</ele>
        <time>2025-12-21T18:33:00.916Z</time>
      </trkpt>
      <trkpt lon="-110.696020" lat="62.416480">
        <ele>285.316</ele>
        <time>2025-12-21T18:33:02.188Z</time>
      </trkpt>
      <trkpt lon="-110.696955" lat="62.416335">
        <ele>310.373</ele>
        <time>2025-12-21T18:33:03.444Z</time>
      </trkpt>
      <trkpt lon="-110.698369" lat="62.416114">
        <ele>340.341</ele>
        <time>2025-12-21T18:33:05.360Z</time>
      </trkpt>
      <trkpt lon="-110.700355" lat="62.415850">
        <ele>365.831</ele>
        <time>2025-12-21T18:33:07.892Z</time>
      </trkpt>
      <trkpt lon="-110.702632" lat="62.415656">
        <ele>373.902</ele>
        <time>2025-12-21T18:33:10.468Z</time>
      </trkpt>
      <trkpt lon="-110.704512" lat="62.415529">
        <ele>370.35</ele>
        <time>2025-12-21T18:33:12.400Z</time>
      </trkpt>
      <trkpt lon="-110.705875" lat="62.415445">
        <ele>365.061</ele>
        <time>2025-12-21T18:33:13.680Z</time>
      </trkpt>
      <trkpt lon="-110.708777" lat="62.415271">
        <ele>351.433</ele>
        <time>2025-12-21T18:33:16.228Z</time>
      </trkpt>
      <trkpt lon="-110.712790" lat="62.414956">
        <ele>338.379</ele>
        <time>2025-12-21T18:33:19.420Z</time>
      </trkpt>
      <trkpt lon="-110.721268" lat="62.413830">
        <ele>370.524</ele>
        <time>2025-12-21T18:33:25.836Z</time>
      </trkpt>
      <trkpt lon="-110.723761" lat="62.413464">
        <ele>400.67</ele>
        <time>2025-12-21T18:33:27.796Z</time>
      </trkpt>
      <trkpt lon="-110.726136" lat="62.413101">
        <ele>438.128</ele>
        <time>2025-12-21T18:33:29.712Z</time>
      </trkpt>
      <trkpt lon="-110.727616" lat="62.412875">
        <ele>465.524</ele>
        <time>2025-12-21T18:33:30.992Z</time>
      </trkpt>
      <trkpt lon="-110.729732" lat="62.412539">
        <ele>508.974</ele>
        <time>2025-12-21T18:33:32.908Z</time>
      </trkpt>
      <trkpt lon="-110.731714" lat="62.412225">
        <ele>552.227</ele>
        <time>2025-12-21T18:33:34.820Z</time>
      </trkpt>
      <trkpt lon="-110.733588" lat="62.411923">
        <ele>592.966</ele>
        <time>2025-12-21T18:33:36.744Z</time>
      </trkpt>
      <trkpt lon="-110.735425" lat="62.411639">
        <ele>629.929</ele>
        <time>2025-12-21T18:33:38.688Z</time>
      </trkpt>
      <trkpt lon="-110.737811" lat="62.411301">
        <ele>669.481</ele>
        <time>2025-12-21T18:33:41.264Z</time>
      </trkpt>
      <trkpt lon="-110.741415" lat="62.410827">
        <ele>706.897</ele>
        <time>2025-12-21T18:33:45.084Z</time>
      </trkpt>
      <trkpt lon="-110.743214" lat="62.410575">
        <ele>718.532</ele>
        <time>2025-12-21T18:33:47.000Z</time>
      </trkpt>
      <trkpt lon="-110.749758" lat="62.409325">
        <ele>756.219</ele>
        <time>2025-12-21T18:33:54.100Z</time>
      </trkpt>
      <trkpt lon="-110.750921" lat="62.409006">
        <ele>761.566</ele>
        <time>2025-12-21T18:33:55.384Z</time>
      </trkpt>
      <trkpt lon="-110.751981" lat="62.408619">
        <ele>769.028</ele>
        <time>2025-12-21T18:33:56.672Z</time>
      </trkpt>
      <trkpt lon="-110.753402" lat="62.407929">
        <ele>779.582</ele>
        <time>2025-12-21T18:33:58.580Z</time>
      </trkpt>
      <trkpt lon="-110.755332" lat="62.406567">
        <ele>797.208</ele>
        <time>2025-12-21T18:34:01.756Z</time>
      </trkpt>
      <trkpt lon="-110.757239" lat="62.404650">
        <ele>804.874</ele>
        <time>2025-12-21T18:34:05.580Z</time>
      </trkpt>
      <trkpt lon="-110.759229" lat="62.402517">
        <ele>808.013</ele>
        <time>2025-12-21T18:34:09.452Z</time>
      </trkpt>
      <trkpt lon="-110.759988" lat="62.401373">
        <ele>809.898</ele>
        <time>2025-12-21T18:34:11.344Z</time>
      </trkpt>
      <trkpt lon="-110.760505" lat="62.400145">
        <ele>812.913</ele>
        <time>2025-12-21T18:34:13.272Z</time>
      </trkpt>
      <trkpt lon="-110.760742" lat="62.398874">
        <ele>817.204</ele>
        <time>2025-12-21T18:34:15.188Z</time>
      </trkpt>
      <trkpt lon="-110.760703" lat="62.397574">
        <ele>821.905</ele>
        <time>2025-12-21T18:34:17.100Z</time>
      </trkpt>
      <trkpt lon="-110.760389" lat="62.396229">
        <ele>825.854</ele>
        <time>2025-12-21T18:34:19.024Z</time>
      </trkpt>
      <trkpt lon="-110.759806" lat="62.394890">
        <ele>829.078</ele>
        <time>2025-12-21T18:34:20.936Z</time>
      </trkpt>
      <trkpt lon="-110.758956" lat="62.393562">
        <ele>832.16</ele>
        <time>2025-12-21T18:34:22.860Z</time>
      </trkpt>
      <trkpt lon="-110.757788" lat="62.392195">
        <ele>835.25</ele>
        <time>2025-12-21T18:34:24.820Z</time>
      </trkpt>
      <trkpt lon="-110.756380" lat="62.390901">
        <ele>837.832</ele>
        <time>2025-12-21T18:34:26.736Z</time>
      </trkpt>
      <trkpt lon="-110.754101" lat="62.389250">
        <ele>841.647</ele>
        <time>2025-12-21T18:34:29.296Z</time>
      </trkpt>
      <trkpt lon="-110.752132" lat="62.388080">
        <ele>844.562</ele>
        <time>2025-12-21T18:34:31.204Z</time>
      </trkpt>
      <trkpt lon="-110.749179" lat="62.386621">
        <ele>848.365</ele>
        <time>2025-12-21T18:34:33.752Z</time>
      </trkpt>
      <trkpt lon="-110.745833" lat="62.385280">
        <ele>852.11</ele>
        <time>2025-12-21T18:34:36.320Z</time>
      </trkpt>
      <trkpt lon="-110.742211" lat="62.384110">
        <ele>855.954</ele>
        <time>2025-12-21T18:34:38.868Z</time>
      </trkpt>
      <trkpt lon="-110.738304" lat="62.383096">
        <ele>858.82</ele>
        <time>2025-12-21T18:34:41.408Z</time>
      </trkpt>
      <trkpt lon="-110.734191" lat="62.382264">
        <ele>861.797</ele>
        <time>2025-12-21T18:34:43.944Z</time>
      </trkpt>
      <trkpt lon="-110.729808" lat="62.381608">
        <ele>865.319</ele>
        <time>2025-12-21T18:34:46.508Z</time>
      </trkpt>
      <trkpt lon="-110.725289" lat="62.381154">
        <ele>869.473</ele>
        <time>2025-12-21T18:34:49.080Z</time>
      </trkpt>
      <trkpt lon="-110.720708" lat="62.380904">
        <ele>873.504</ele>
        <time>2025-12-21T18:34:51.608Z</time>
      </trkpt>
      <trkpt lon="-110.716036" lat="62.380856">
        <ele>877.002</ele>
        <time>2025-12-21T18:34:54.180Z</time>
      </trkpt>
      <trkpt lon="-110.711395" lat="62.381013">
        <ele>880.548</ele>
        <time>2025-12-21T18:34:56.712Z</time>
      </trkpt>
      <trkpt lon="-110.705628" lat="62.381485">
        <ele>884.893</ele>
        <time>2025-12-21T18:34:59.916Z</time>
      </trkpt>
      <trkpt lon="-110.694369" lat="62.382951">
        <ele>889.538</ele>
        <time>2025-12-21T18:35:06.320Z</time>
      </trkpt>
      <trkpt lon="-110.642252" lat="62.390922">
        <ele>923.77</ele>
        <time>2025-12-21T18:35:36.360Z</time>
      </trkpt>
      <trkpt lon="-110.612227" lat="62.395458">
        <ele>922.294</ele>
        <time>2025-12-21T18:35:52.984Z</time>
      </trkpt>
      <trkpt lon="-110.607394" lat="62.395860">
        <ele>922.023</ele>
        <time>2025-12-21T18:35:55.540Z</time>
      </trkpt>
      <trkpt lon="-110.602412" lat="62.396040">
        <ele>922.027</ele>
        <time>2025-12-21T18:35:58.108Z</time>
      </trkpt>
      <trkpt lon="-110.597482" lat="62.395990">
        <ele>922.284</ele>
        <time>2025-12-21T18:36:00.656Z</time>
      </trkpt>
      <trkpt lon="-110.592537" lat="62.395713">
        <ele>923.021</ele>
        <time>2025-12-21T18:36:03.204Z</time>
      </trkpt>
      <trkpt lon="-110.587698" lat="62.395218">
        <ele>923.846</ele>
        <time>2025-12-21T18:36:05.736Z</time>
      </trkpt>
      <trkpt lon="-110.581755" lat="62.394307">
        <ele>925.507</ele>
        <time>2025-12-21T18:36:08.916Z</time>
      </trkpt>
      <trkpt lon="-110.573436" lat="62.392987">
        <ele>931.004</ele>
        <time>2025-12-21T18:36:13.344Z</time>
      </trkpt>
      <trkpt lon="-110.568411" lat="62.392482">
        <ele>927.08</ele>
        <time>2025-12-21T18:36:15.928Z</time>
      </trkpt>
      <trkpt lon="-110.564606" lat="62.392276">
        <ele>925.301</ele>
        <time>2025-12-21T18:36:17.844Z</time>
      </trkpt>
      <trkpt lon="-110.559516" lat="62.392238">
        <ele>927.465</ele>
        <time>2025-12-21T18:36:20.384Z</time>
      </trkpt>
      <trkpt lon="-110.554376" lat="62.392447">
        <ele>928.854</ele>
        <time>2025-12-21T18:36:22.960Z</time>
      </trkpt>
      <trkpt lon="-110.549355" lat="62.392885">
        <ele>927.953</ele>
        <time>2025-12-21T18:36:25.500Z</time>
      </trkpt>
      <trkpt lon="-110.544388" lat="62.393553">
        <ele>926.525</ele>
        <time>2025-12-21T18:36:28.092Z</time>
      </trkpt>
      <trkpt lon="-110.536046" lat="62.395086">
        <ele>925.382</ele>
        <time>2025-12-21T18:36:32.580Z</time>
      </trkpt>
      <trkpt lon="-110.506313" lat="62.401934">
        <ele>923.268</ele>
        <time>2025-12-21T18:36:49.196Z</time>
      </trkpt>
      <trkpt lon="-110.469954" lat="62.411816">
        <ele>923.988</ele>
        <time>2025-12-21T18:37:10.264Z</time>
      </trkpt>
      <trkpt lon="-110.455440" lat="62.416758">
        <ele>924.002</ele>
        <time>2025-12-21T18:37:19.304Z</time>
      </trkpt>
      <trkpt lon="-110.409099" lat="62.434379">
        <ele>924.258</ele>
        <time>2025-12-21T18:37:49.444Z</time>
      </trkpt>
      <trkpt lon="-110.400468" lat="62.437885">
        <ele>925.773</ele>
        <time>2025-12-21T18:37:55.220Z</time>
      </trkpt>
      <trkpt lon="-110.397062" lat="62.439626">
        <ele>926.845</ele>
        <time>2025-12-21T18:37:57.772Z</time>
      </trkpt>
      <trkpt lon="-110.394042" lat="62.441509">
        <ele>929.271</ele>
        <time>2025-12-21T18:38:00.336Z</time>
      </trkpt>
      <trkpt lon="-110.391452" lat="62.443491">
        <ele>930.487</ele>
        <time>2025-12-21T18:38:02.884Z</time>
      </trkpt>
      <trkpt lon="-110.389293" lat="62.445558">
        <ele>930.703</ele>
        <time>2025-12-21T18:38:05.436Z</time>
      </trkpt>
      <trkpt lon="-110.387531" lat="62.447744">
        <ele>930.337</ele>
        <time>2025-12-21T18:38:08.000Z</time>
      </trkpt>
      <trkpt lon="-110.386219" lat="62.449997">
        <ele>929.403</ele>
        <time>2025-12-21T18:38:10.592Z</time>
      </trkpt>
      <trkpt lon="-110.385386" lat="62.452245">
        <ele>927.211</ele>
        <time>2025-12-21T18:38:13.132Z</time>
      </trkpt>
      <trkpt lon="-110.385009" lat="62.454527">
        <ele>924.612</ele>
        <time>2025-12-21T18:38:15.680Z</time>
      </trkpt>
      <trkpt lon="-110.385099" lat="62.456799">
        <ele>922.699</ele>
        <time>2025-12-21T18:38:18.236Z</time>
      </trkpt>
      <trkpt lon="-110.385645" lat="62.459040">
        <ele>921.954</ele>
        <time>2025-12-21T18:38:20.772Z</time>
      </trkpt>
      <trkpt lon="-110.386656" lat="62.461276">
        <ele>921.946</ele>
        <time>2025-12-21T18:38:23.352Z</time>
      </trkpt>
      <trkpt lon="-110.391044" lat="62.468240">
        <ele>921.734</ele>
        <time>2025-12-21T18:38:31.648Z</time>
      </trkpt>
      <trkpt lon="-110.391644" lat="62.470456">
        <ele>919.915</ele>
        <time>2025-12-21T18:38:34.208Z</time>
      </trkpt>
      <trkpt lon="-110.391691" lat="62.472679">
        <ele>920.049</ele>
        <time>2025-12-21T18:38:36.768Z</time>
      </trkpt>
      <trkpt lon="-110.391180" lat="62.474895">
        <ele>922.269</ele>
        <time>2025-12-21T18:38:39.336Z</time>
      </trkpt>
      <trkpt lon="-110.390144" lat="62.477061">
        <ele>924.998</ele>
        <time>2025-12-21T18:38:41.888Z</time>
      </trkpt>
      <trkpt lon="-110.388610" lat="62.479168">
        <ele>926.734</ele>
        <time>2025-12-21T18:38:44.464Z</time>
      </trkpt>
      <trkpt lon="-110.386623" lat="62.481177">
        <ele>927.271</ele>
        <time>2025-12-21T18:38:47.000Z</time>
      </trkpt>
      <trkpt lon="-110.384197" lat="62.483085">
        <ele>927.007</ele>
        <time>2025-12-21T18:38:49.536Z</time>
      </trkpt>
      <trkpt lon="-110.381348" lat="62.484880">
        <ele>926.252</ele>
        <time>2025-12-21T18:38:52.088Z</time>
      </trkpt>
      <trkpt lon="-110.378054" lat="62.486568">
        <ele>925.181</ele>
        <time>2025-12-21T18:38:54.648Z</time>
      </trkpt>
      <trkpt lon="-110.374416" lat="62.488091">
        <ele>924.467</ele>
        <time>2025-12-21T18:38:57.216Z</time>
      </trkpt>
      <trkpt lon="-110.370491" lat="62.489436">
        <ele>923.907</ele>
        <time>2025-12-21T18:38:59.744Z</time>
      </trkpt>
      <trkpt lon="-110.366225" lat="62.490618">
        <ele>923.899</ele>
        <time>2025-12-21T18:39:02.304Z</time>
      </trkpt>
      <trkpt lon="-110.361782" lat="62.491596">
        <ele>923.932</ele>
        <time>2025-12-21T18:39:04.832Z</time>
      </trkpt>
      <trkpt lon="-110.357070" lat="62.492390">
        <ele>924.015</ele>
        <time>2025-12-21T18:39:07.408Z</time>
      </trkpt>
      <trkpt lon="-110.352250" lat="62.492972">
        <ele>924.085</ele>
        <time>2025-12-21T18:39:09.928Z</time>
      </trkpt>
      <trkpt lon="-110.347276" lat="62.493350">
        <ele>924.337</ele>
        <time>2025-12-21T18:39:12.496Z</time>
      </trkpt>
      <trkpt lon="-110.340834" lat="62.493538">
        <ele>925.358</ele>
        <time>2025-12-21T18:39:15.760Z</time>
      </trkpt>
      <trkpt lon="-110.285135" lat="62.493754">
        <ele>925.375</ele>
        <time>2025-12-21T18:39:43.264Z</time>
      </trkpt>
      <trkpt lon="-110.277407" lat="62.494319">
        <ele>925.181</ele>
        <time>2025-12-21T18:39:47.104Z</time>
      </trkpt>
      <trkpt lon="-110.268516" lat="62.495369">
        <ele>924.694</ele>
        <time>2025-12-21T18:39:51.584Z</time>
      </trkpt>
      <trkpt lon="-110.259912" lat="62.496805">
        <ele>924.84</ele>
        <time>2025-12-21T18:39:56.080Z</time>
      </trkpt>
      <trkpt lon="-110.251706" lat="62.498593">
        <ele>925.553</ele>
        <time>2025-12-21T18:40:00.536Z</time>
      </trkpt>
      <trkpt lon="-110.243946" lat="62.500713">
        <ele>927.097</ele>
        <time>2025-12-21T18:40:04.992Z</time>
      </trkpt>
      <trkpt lon="-110.236613" lat="62.503155">
        <ele>927.959</ele>
        <time>2025-12-21T18:40:09.472Z</time>
      </trkpt>
      <trkpt lon="-110.229779" lat="62.505884">
        <ele>926.586</ele>
        <time>2025-12-21T18:40:13.928Z</time>
      </trkpt>
      <trkpt lon="-110.223512" lat="62.508884">
        <ele>923.848</ele>
        <time>2025-12-21T18:40:18.400Z</time>
      </trkpt>
      <trkpt lon="-110.217866" lat="62.512119">
        <ele>920.901</ele>
        <time>2025-12-21T18:40:22.864Z</time>
      </trkpt>
      <trkpt lon="-110.212850" lat="62.515597">
        <ele>919.156</ele>
        <time>2025-12-21T18:40:27.368Z</time>
      </trkpt>
      <trkpt lon="-110.203702" lat="62.522766">
        <ele>911.214</ele>
        <time>2025-12-21T18:40:36.408Z</time>
      </trkpt>
      <trkpt lon="-110.200454" lat="62.524565">
        <ele>911.096</ele>
        <time>2025-12-21T18:40:38.960Z</time>
      </trkpt>
      <trkpt lon="-110.196858" lat="62.526173">
        <ele>914.41</ele>
        <time>2025-12-21T18:40:41.504Z</time>
      </trkpt>
      <trkpt lon="-110.192888" lat="62.527621">
        <ele>917.362</ele>
        <time>2025-12-21T18:40:44.056Z</time>
      </trkpt>
      <trkpt lon="-110.188680" lat="62.528865">
        <ele>919.172</ele>
        <time>2025-12-21T18:40:46.584Z</time>
      </trkpt>
      <trkpt lon="-110.184176" lat="62.529926">
        <ele>919.837</ele>
        <time>2025-12-21T18:40:49.152Z</time>
      </trkpt>
      <trkpt lon="-110.179349" lat="62.530799">
        <ele>920.149</ele>
        <time>2025-12-21T18:40:51.776Z</time>
      </trkpt>
      <trkpt lon="-110.174449" lat="62.531441">
        <ele>920.32</ele>
        <time>2025-12-21T18:40:54.336Z</time>
      </trkpt>
      <trkpt lon="-110.169459" lat="62.531868">
        <ele>920.429</ele>
        <time>2025-12-21T18:40:56.880Z</time>
      </trkpt>
      <trkpt lon="-110.161857" lat="62.532188">
        <ele>922.792</ele>
        <time>2025-12-21T18:41:00.712Z</time>
      </trkpt>
      <trkpt lon="-110.100324" lat="62.532186">
        <ele>922.592</ele>
        <time>2025-12-21T18:41:30.808Z</time>
      </trkpt>
      <trkpt lon="-110.039583" lat="62.532102">
        <ele>920.912</ele>
        <time>2025-12-21T18:42:00.192Z</time>
      </trkpt>
      <trkpt lon="-110.034364" lat="62.532420">
        <ele>919.09</ele>
        <time>2025-12-21T18:42:02.744Z</time>
      </trkpt>
      <trkpt lon="-110.029197" lat="62.532973">
        <ele>920.458</ele>
        <time>2025-12-21T18:42:05.296Z</time>
      </trkpt>
      <trkpt lon="-110.024181" lat="62.533746">
        <ele>923.433</ele>
        <time>2025-12-21T18:42:07.864Z</time>
      </trkpt>
      <trkpt lon="-110.019338" lat="62.534720">
        <ele>924.489</ele>
        <time>2025-12-21T18:42:10.440Z</time>
      </trkpt>
      <trkpt lon="-110.014773" lat="62.535859">
        <ele>922.629</ele>
        <time>2025-12-21T18:42:12.968Z</time>
      </trkpt>
      <trkpt lon="-110.009338" lat="62.537535">
        <ele>919.839</ele>
        <time>2025-12-21T18:42:16.168Z</time>
      </trkpt>
      <trkpt lon="-109.971974" lat="62.551154">
        <ele>918.584</ele>
        <time>2025-12-21T18:42:39.816Z</time>
      </trkpt>
      <trkpt lon="-109.960710" lat="62.553962">
        <ele>918.96</ele>
        <time>2025-12-21T18:42:46.176Z</time>
      </trkpt>
      <trkpt lon="-109.932122" lat="62.559492">
        <ele>923.548</ele>
        <time>2025-12-21T18:43:01.576Z</time>
      </trkpt>
      <trkpt lon="-109.875053" lat="62.569685">
        <ele>920.875</ele>
        <time>2025-12-21T18:43:31.672Z</time>
      </trkpt>
      <trkpt lon="-109.817923" lat="62.580164">
        <ele>920.248</ele>
        <time>2025-12-21T18:44:01.880Z</time>
      </trkpt>
      <trkpt lon="-109.760916" lat="62.590617">
        <ele>919.39</ele>
        <time>2025-12-21T18:44:31.984Z</time>
      </trkpt>
      <trkpt lon="-109.703846" lat="62.601031">
        <ele>921.091</ele>
        <time>2025-12-21T18:45:02.096Z</time>
      </trkpt>
      <trkpt lon="-109.646745" lat="62.611412">
        <ele>920.296</ele>
        <time>2025-12-21T18:45:32.128Z</time>
      </trkpt>
      <trkpt lon="-109.589584" lat="62.621787">
        <ele>919.375</ele>
        <time>2025-12-21T18:46:02.168Z</time>
      </trkpt>
      <trkpt lon="-109.532109" lat="62.632177">
        <ele>917.448</ele>
        <time>2025-12-21T18:46:32.296Z</time>
      </trkpt>
      <trkpt lon="-109.474483" lat="62.642590">
        <ele>915.897</ele>
        <time>2025-12-21T18:47:02.344Z</time>
      </trkpt>
      <trkpt lon="-109.415914" lat="62.653123">
        <ele>916.022</ele>
        <time>2025-12-21T18:47:32.944Z</time>
      </trkpt>
      <trkpt lon="-109.358393" lat="62.663431">
        <ele>916.137</ele>
        <time>2025-12-21T18:48:02.968Z</time>
      </trkpt>
      <trkpt lon="-109.300731" lat="62.673722">
        <ele>916.454</ele>
        <time>2025-12-21T18:48:33.072Z</time>
      </trkpt>
      <trkpt lon="-109.243128" lat="62.684059">
        <ele>915.398</ele>
        <time>2025-12-21T18:49:03.168Z</time>
      </trkpt>
      <trkpt lon="-109.184276" lat="62.694456">
        <ele>915.828</ele>
        <time>2025-12-21T18:49:33.816Z</time>
      </trkpt>
      <trkpt lon="-109.126591" lat="62.704681">
        <ele>915.948</ele>
        <time>2025-12-21T18:50:03.920Z</time>
      </trkpt>
      <trkpt lon="-109.068933" lat="62.714878">
        <ele>915.096</ele>
        <time>2025-12-21T18:50:33.992Z</time>
      </trkpt>
      <trkpt lon="-109.011067" lat="62.725061">
        <ele>916.135</ele>
        <time>2025-12-21T18:51:04.136Z</time>
      </trkpt>
      <trkpt lon="-108.953170" lat="62.735224">
        <ele>915.955</ele>
        <time>2025-12-21T18:51:34.248Z</time>
      </trkpt>
      <trkpt lon="-108.895128" lat="62.745370">
        <ele>916.579</ele>
        <time>2025-12-21T18:52:04.336Z</time>
      </trkpt>
      <trkpt lon="-108.836393" lat="62.755593">
        <ele>908.588</ele>
        <time>2025-12-21T18:52:34.520Z</time>
      </trkpt>
      <trkpt lon="-108.777547" lat="62.765851">
        <ele>911.727</ele>
        <time>2025-12-21T18:53:04.608Z</time>
      </trkpt>
      <trkpt lon="-108.718734" lat="62.776031">
        <ele>910.574</ele>
        <time>2025-12-21T18:53:34.768Z</time>
      </trkpt>
      <trkpt lon="-108.660340" lat="62.786112">
        <ele>901.197</ele>
        <time>2025-12-21T18:54:04.960Z</time>
      </trkpt>
      <trkpt lon="-108.601477" lat="62.796315">
        <ele>905.738</ele>
        <time>2025-12-21T18:54:35.256Z</time>
      </trkpt>
      <trkpt lon="-108.542427" lat="62.806452">
        <ele>908.714</ele>
        <time>2025-12-21T18:55:05.544Z</time>
      </trkpt>
      <trkpt lon="-108.483765" lat="62.816494">
        <ele>904.896</ele>
        <time>2025-12-21T18:55:35.584Z</time>
      </trkpt>
      <trkpt lon="-108.423852" lat="62.826716">
        <ele>905.157</ele>
        <time>2025-12-21T18:56:06.208Z</time>
      </trkpt>
      <trkpt lon="-108.364016" lat="62.836902">
        <ele>905.561</ele>
        <time>2025-12-21T18:56:36.680Z</time>
      </trkpt>
      <trkpt lon="-108.304739" lat="62.846969">
        <ele>905.142</ele>
        <time>2025-12-21T18:57:06.944Z</time>
      </trkpt>
      <trkpt lon="-108.244607" lat="62.857145">
        <ele>900.647</ele>
        <time>2025-12-21T18:57:37.616Z</time>
      </trkpt>
      <trkpt lon="-108.185832" lat="62.867038">
        <ele>905.449</ele>
        <time>2025-12-21T18:58:07.640Z</time>
      </trkpt>
      <trkpt lon="-108.126464" lat="62.877007">
        <ele>901</ele>
        <time>2025-12-21T18:58:37.888Z</time>
      </trkpt>
      <trkpt lon="-108.067511" lat="62.886905">
        <ele>897.599</ele>
        <time>2025-12-21T18:59:07.944Z</time>
      </trkpt>
      <trkpt lon="-108.007438" lat="62.896920">
        <ele>903.9</ele>
        <time>2025-12-21T18:59:38.576Z</time>
      </trkpt>
      <trkpt lon="-107.947847" lat="62.906839">
        <ele>904.087</ele>
        <time>2025-12-21T19:00:08.880Z</time>
      </trkpt>
      <trkpt lon="-107.888586" lat="62.916701">
        <ele>896.499</ele>
        <time>2025-12-21T19:00:39.128Z</time>
      </trkpt>
      <trkpt lon="-107.829951" lat="62.926381">
        <ele>862.457</ele>
        <time>2025-12-21T19:01:09.264Z</time>
      </trkpt>
      <trkpt lon="-107.770842" lat="62.936095">
        <ele>892.387</ele>
        <time>2025-12-21T19:01:39.328Z</time>
      </trkpt>
      <trkpt lon="-107.712960" lat="62.945637">
        <ele>903.253</ele>
        <time>2025-12-21T19:02:09.456Z</time>
      </trkpt>
      <trkpt lon="-107.658889" lat="62.954480">
        <ele>900.79</ele>
        <time>2025-12-21T19:02:40.504Z</time>
      </trkpt>
      <trkpt lon="-107.646924" lat="62.956468">
        <ele>925.079</ele>
        <time>2025-12-21T19:02:46.024Z</time>
      </trkpt>
      <trkpt lon="-107.641037" lat="62.957437">
        <ele>966.073</ele>
        <time>2025-12-21T19:02:49.320Z</time>
      </trkpt>
      <trkpt lon="-107.614659" lat="62.961745">
        <ele>942.774</ele>
        <time>2025-12-21T19:03:03.640Z</time>
      </trkpt>
      <trkpt lon="-107.578552" lat="62.967615">
        <ele>905.739</ele>
        <time>2025-12-21T19:03:22.312Z</time>
      </trkpt>
      <trkpt lon="-107.518486" lat="62.977354">
        <ele>903.858</ele>
        <time>2025-12-21T19:03:52.928Z</time>
      </trkpt>
      <trkpt lon="-107.458795" lat="62.987005">
        <ele>895.317</ele>
        <time>2025-12-21T19:04:23.448Z</time>
      </trkpt>
      <trkpt lon="-107.399913" lat="62.996556">
        <ele>896.227</ele>
        <time>2025-12-21T19:04:53.608Z</time>
      </trkpt>
      <trkpt lon="-107.374262" lat="63.000702">
        <ele>896.312</ele>
        <time>2025-12-21T19:05:24.440Z</time>
      </trkpt>
      <trkpt lon="-107.315330" lat="63.010147">
        <ele>900.178</ele>
        <time>2025-12-21T19:05:54.496Z</time>
      </trkpt>
      <trkpt lon="-107.256682" lat="63.019576">
        <ele>899.38</ele>
        <time>2025-12-21T19:06:24.576Z</time>
      </trkpt>
      <trkpt lon="-107.197969" lat="63.028964">
        <ele>899.788</ele>
        <time>2025-12-21T19:06:54.600Z</time>
      </trkpt>
      <trkpt lon="-107.139091" lat="63.038324">
        <ele>901.698</ele>
        <time>2025-12-21T19:07:24.680Z</time>
      </trkpt>
      <trkpt lon="-107.079865" lat="63.047720">
        <ele>900.69</ele>
        <time>2025-12-21T19:07:54.888Z</time>
      </trkpt>
      <trkpt lon="-107.020970" lat="63.057040">
        <ele>901.446</ele>
        <time>2025-12-21T19:08:24.968Z</time>
      </trkpt>
      <trkpt lon="-106.962098" lat="63.066349">
        <ele>901.214</ele>
        <time>2025-12-21T19:08:55.032Z</time>
      </trkpt>
      <trkpt lon="-106.903225" lat="63.075567">
        <ele>902.004</ele>
        <time>2025-12-21T19:09:25.088Z</time>
      </trkpt>
      <trkpt lon="-106.844222" lat="63.084827">
        <ele>901.951</ele>
        <time>2025-12-21T19:09:55.160Z</time>
      </trkpt>
      <trkpt lon="-106.798282" lat="63.092023">
        <ele>895.675</ele>
        <time>2025-12-21T19:10:25.736Z</time>
      </trkpt>
      <trkpt lon="-106.739524" lat="63.101171">
        <ele>894.066</ele>
        <time>2025-12-21T19:10:55.808Z</time>
      </trkpt>
      <trkpt lon="-106.680638" lat="63.110309">
        <ele>895.327</ele>
        <time>2025-12-21T19:11:25.896Z</time>
      </trkpt>
      <trkpt lon="-106.621737" lat="63.119402">
        <ele>895.872</ele>
        <time>2025-12-21T19:11:56.000Z</time>
      </trkpt>
      <trkpt lon="-106.562958" lat="63.128476">
        <ele>896.479</ele>
        <time>2025-12-21T19:12:26.048Z</time>
      </trkpt>
      <trkpt lon="-106.504025" lat="63.137536">
        <ele>896.317</ele>
        <time>2025-12-21T19:12:56.192Z</time>
      </trkpt>
      <trkpt lon="-106.445422" lat="63.146528">
        <ele>895.874</ele>
        <time>2025-12-21T19:13:26.248Z</time>
      </trkpt>
      <trkpt lon="-106.386800" lat="63.155451">
        <ele>897.233</ele>
        <time>2025-12-21T19:13:56.272Z</time>
      </trkpt>
      <trkpt lon="-106.327874" lat="63.164421">
        <ele>896.567</ele>
        <time>2025-12-21T19:14:26.408Z</time>
      </trkpt>
      <trkpt lon="-106.269130" lat="63.173368">
        <ele>897.064</ele>
        <time>2025-12-21T19:14:56.440Z</time>
      </trkpt>
      <trkpt lon="-106.229786" lat="63.179290">
        <ele>896.727</ele>
        <time>2025-12-21T19:15:26.640Z</time>
      </trkpt>
      <trkpt lon="-106.170449" lat="63.188209">
        <ele>896.152</ele>
        <time>2025-12-21T19:15:56.680Z</time>
      </trkpt>
      <trkpt lon="-106.110165" lat="63.197320">
        <ele>895.886</ele>
        <time>2025-12-21T19:16:27.304Z</time>
      </trkpt>
      <trkpt lon="-106.051109" lat="63.206159">
        <ele>891.744</ele>
        <time>2025-12-21T19:16:57.424Z</time>
      </trkpt>
      <trkpt lon="-105.992305" lat="63.214931">
        <ele>892.488</ele>
        <time>2025-12-21T19:17:27.528Z</time>
      </trkpt>
      <trkpt lon="-105.948685" lat="63.221442">
        <ele>891.564</ele>
        <time>2025-12-21T19:17:57.832Z</time>
      </trkpt>
      <trkpt lon="-105.889974" lat="63.230126">
        <ele>892.478</ele>
        <time>2025-12-21T19:18:27.872Z</time>
      </trkpt>
      <trkpt lon="-105.831034" lat="63.238873">
        <ele>892.177</ele>
        <time>2025-12-21T19:18:58.000Z</time>
      </trkpt>
      <trkpt lon="-105.772068" lat="63.247551">
        <ele>892.689</ele>
        <time>2025-12-21T19:19:28.168Z</time>
      </trkpt>
      <trkpt lon="-105.713148" lat="63.256208">
        <ele>891.539</ele>
        <time>2025-12-21T19:19:58.312Z</time>
      </trkpt>
      <trkpt lon="-105.654426" lat="63.264805">
        <ele>891.554</ele>
        <time>2025-12-21T19:20:28.352Z</time>
      </trkpt>
      <trkpt lon="-105.595563" lat="63.273405">
        <ele>892.64</ele>
        <time>2025-12-21T19:20:58.464Z</time>
      </trkpt>
      <trkpt lon="-105.536611" lat="63.281969">
        <ele>891.694</ele>
        <time>2025-12-21T19:21:28.584Z</time>
      </trkpt>
      <trkpt lon="-105.476769" lat="63.290648">
        <ele>895.545</ele>
        <time>2025-12-21T19:21:59.168Z</time>
      </trkpt>
      <trkpt lon="-105.418003" lat="63.299146">
        <ele>894.764</ele>
        <time>2025-12-21T19:22:29.192Z</time>
      </trkpt>
      <trkpt lon="-105.358959" lat="63.307638">
        <ele>894.13</ele>
        <time>2025-12-21T19:22:59.320Z</time>
      </trkpt>
      <trkpt lon="-105.299122" lat="63.316032">
        <ele>891.511</ele>
        <time>2025-12-21T19:23:29.848Z</time>
      </trkpt>
      <trkpt lon="-105.257992" lat="63.321674">
        <ele>896.879</ele>
        <time>2025-12-21T19:23:50.952Z</time>
      </trkpt>
      <trkpt lon="-105.252217" lat="63.322443">
        <ele>887.187</ele>
        <time>2025-12-21T19:23:54.160Z</time>
      </trkpt>
      <trkpt lon="-105.244564" lat="63.323580">
        <ele>892.715</ele>
        <time>2025-12-21T19:23:58.712Z</time>
      </trkpt>
      <trkpt lon="-105.232693" lat="63.325566">
        <ele>886.583</ele>
        <time>2025-12-21T19:24:06.368Z</time>
      </trkpt>
      <trkpt lon="-105.215735" lat="63.328223">
        <ele>889.334</ele>
        <time>2025-12-21T19:24:17.888Z</time>
      </trkpt>
      <trkpt lon="-105.187851" lat="63.332636">
        <ele>892.601</ele>
        <time>2025-12-21T19:24:41.888Z</time>
      </trkpt>
      <trkpt lon="-105.160630" lat="63.336262">
        <ele>889.55</ele>
        <time>2025-12-21T19:24:58.600Z</time>
      </trkpt>
      <trkpt lon="-105.109772" lat="63.342465">
        <ele>891.042</ele>
        <time>2025-12-21T19:25:28.624Z</time>
      </trkpt>
      <trkpt lon="-105.058091" lat="63.349505">
        <ele>886.599</ele>
        <time>2025-12-21T19:25:58.904Z</time>
      </trkpt>
      <trkpt lon="-105.006954" lat="63.356853">
        <ele>892.023</ele>
        <time>2025-12-21T19:26:28.952Z</time>
      </trkpt>
      <trkpt lon="-104.955075" lat="63.364474">
        <ele>890.269</ele>
        <time>2025-12-21T19:26:59.480Z</time>
      </trkpt>
      <trkpt lon="-104.903086" lat="63.371738">
        <ele>887.433</ele>
        <time>2025-12-21T19:27:29.832Z</time>
      </trkpt>
      <trkpt lon="-104.872396" lat="63.375331">
        <ele>890.688</ele>
        <time>2025-12-21T19:27:47.000Z</time>
      </trkpt>
      <trkpt lon="-104.816444" lat="63.383646">
        <ele>885.19</ele>
        <time>2025-12-21T19:28:17.080Z</time>
      </trkpt>
      <trkpt lon="-104.758662" lat="63.392256">
        <ele>883.276</ele>
        <time>2025-12-21T19:28:47.312Z</time>
      </trkpt>
      <trkpt lon="-104.699875" lat="63.400466">
        <ele>886.248</ele>
        <time>2025-12-21T19:29:17.368Z</time>
      </trkpt>
      <trkpt lon="-104.640744" lat="63.408650">
        <ele>883.13</ele>
        <time>2025-12-21T19:29:47.416Z</time>
      </trkpt>
      <trkpt lon="-104.581711" lat="63.416757">
        <ele>891.198</ele>
        <time>2025-12-21T19:30:17.480Z</time>
      </trkpt>
      <trkpt lon="-104.522471" lat="63.424883">
        <ele>891.089</ele>
        <time>2025-12-21T19:30:47.592Z</time>
      </trkpt>
      <trkpt lon="-104.462534" lat="63.433071">
        <ele>886.984</ele>
        <time>2025-12-21T19:31:17.864Z</time>
      </trkpt>
      <trkpt lon="-104.402758" lat="63.441169">
        <ele>891.876</ele>
        <time>2025-12-21T19:31:48.024Z</time>
      </trkpt>
      <trkpt lon="-104.343095" lat="63.449252">
        <ele>891.766</ele>
        <time>2025-12-21T19:32:18.184Z</time>
      </trkpt>
      <trkpt lon="-104.283262" lat="63.457344">
        <ele>891.309</ele>
        <time>2025-12-21T19:32:48.392Z</time>
      </trkpt>
      <trkpt lon="-104.223499" lat="63.465367">
        <ele>891.606</ele>
        <time>2025-12-21T19:33:18.536Z</time>
      </trkpt>
      <trkpt lon="-104.163553" lat="63.473403">
        <ele>891.601</ele>
        <time>2025-12-21T19:33:48.752Z</time>
      </trkpt>
      <trkpt lon="-104.103781" lat="63.481378">
        <ele>890.437</ele>
        <time>2025-12-21T19:34:18.840Z</time>
      </trkpt>
      <trkpt lon="-104.043945" lat="63.489331">
        <ele>891.333</ele>
        <time>2025-12-21T19:34:48.976Z</time>
      </trkpt>
      <trkpt lon="-103.984300" lat="63.497240">
        <ele>891.393</ele>
        <time>2025-12-21T19:35:19.064Z</time>
      </trkpt>
      <trkpt lon="-103.924379" lat="63.505135">
        <ele>890.778</ele>
        <time>2025-12-21T19:35:49.192Z</time>
      </trkpt>
      <trkpt lon="-103.863710" lat="63.513086">
        <ele>884.838</ele>
        <time>2025-12-21T19:36:19.312Z</time>
      </trkpt>
      <trkpt lon="-103.802626" lat="63.521146">
        <ele>884.931</ele>
        <time>2025-12-21T19:36:49.648Z</time>
      </trkpt>
      <trkpt lon="-103.742093" lat="63.529021">
        <ele>884.385</ele>
        <time>2025-12-21T19:37:19.672Z</time>
      </trkpt>
      <trkpt lon="-103.681521" lat="63.536912">
        <ele>884.386</ele>
        <time>2025-12-21T19:37:49.752Z</time>
      </trkpt>
      <trkpt lon="-103.619789" lat="63.544896">
        <ele>885.089</ele>
        <time>2025-12-21T19:38:20.368Z</time>
      </trkpt>
      <trkpt lon="-103.558105" lat="63.552865">
        <ele>885.706</ele>
        <time>2025-12-21T19:38:50.912Z</time>
      </trkpt>
      <trkpt lon="-103.497191" lat="63.560661">
        <ele>886.329</ele>
        <time>2025-12-21T19:39:21.000Z</time>
      </trkpt>
      <trkpt lon="-103.436147" lat="63.568502">
        <ele>886.203</ele>
        <time>2025-12-21T19:39:51.192Z</time>
      </trkpt>
      <trkpt lon="-103.375158" lat="63.576275">
        <ele>885.864</ele>
        <time>2025-12-21T19:40:21.384Z</time>
      </trkpt>
      <trkpt lon="-103.314072" lat="63.584000">
        <ele>885.463</ele>
        <time>2025-12-21T19:40:51.592Z</time>
      </trkpt>
      <trkpt lon="-103.253186" lat="63.591753">
        <ele>885.77</ele>
        <time>2025-12-21T19:41:21.752Z</time>
      </trkpt>
      <trkpt lon="-103.192454" lat="63.599391">
        <ele>885.648</ele>
        <time>2025-12-21T19:41:51.800Z</time>
      </trkpt>
      <trkpt lon="-103.131622" lat="63.607058">
        <ele>879.685</ele>
        <time>2025-12-21T19:42:21.912Z</time>
      </trkpt>
      <trkpt lon="-103.070446" lat="63.614661">
        <ele>880.845</ele>
        <time>2025-12-21T19:42:52.200Z</time>
      </trkpt>
      <trkpt lon="-103.009687" lat="63.622255">
        <ele>881.018</ele>
        <time>2025-12-21T19:43:22.288Z</time>
      </trkpt>
      <trkpt lon="-102.948957" lat="63.629815">
        <ele>880.882</ele>
        <time>2025-12-21T19:43:52.368Z</time>
      </trkpt>
      <trkpt lon="-102.887951" lat="63.637341">
        <ele>881.108</ele>
        <time>2025-12-21T19:44:22.480Z</time>
      </trkpt>
      <trkpt lon="-102.827164" lat="63.644803">
        <ele>881.267</ele>
        <time>2025-12-21T19:44:52.536Z</time>
      </trkpt>
      <trkpt lon="-102.766317" lat="63.652255">
        <ele>880.803</ele>
        <time>2025-12-21T19:45:22.632Z</time>
      </trkpt>
      <trkpt lon="-102.704810" lat="63.659810">
        <ele>881.918</ele>
        <time>2025-12-21T19:45:53.056Z</time>
      </trkpt>
      <trkpt lon="-102.643555" lat="63.667213">
        <ele>880.254</ele>
        <time>2025-12-21T19:46:23.200Z</time>
      </trkpt>
      <trkpt lon="-102.582564" lat="63.674645">
        <ele>880.302</ele>
        <time>2025-12-21T19:46:53.304Z</time>
      </trkpt>
      <trkpt lon="-102.521423" lat="63.682001">
        <ele>879.826</ele>
        <time>2025-12-21T19:47:23.432Z</time>
      </trkpt>
      <trkpt lon="-102.460305" lat="63.689344">
        <ele>880.263</ele>
        <time>2025-12-21T19:47:53.576Z</time>
      </trkpt>
      <trkpt lon="-102.397344" lat="63.696848">
        <ele>872.8</ele>
        <time>2025-12-21T19:48:24.200Z</time>
      </trkpt>
      <trkpt lon="-102.335647" lat="63.704258">
        <ele>874.444</ele>
        <time>2025-12-21T19:48:54.232Z</time>
      </trkpt>
      <trkpt lon="-102.273693" lat="63.711623">
        <ele>875.212</ele>
        <time>2025-12-21T19:49:24.336Z</time>
      </trkpt>
      <trkpt lon="-102.211489" lat="63.718945">
        <ele>875.044</ele>
        <time>2025-12-21T19:49:54.528Z</time>
      </trkpt>
      <trkpt lon="-102.149200" lat="63.726257">
        <ele>875.142</ele>
        <time>2025-12-21T19:50:24.760Z</time>
      </trkpt>
      <trkpt lon="-102.086765" lat="63.733602">
        <ele>875.433</ele>
        <time>2025-12-21T19:50:55.056Z</time>
      </trkpt>
      <trkpt lon="-102.024436" lat="63.740891">
        <ele>874.444</ele>
        <time>2025-12-21T19:51:25.288Z</time>
      </trkpt>
      <trkpt lon="-101.962111" lat="63.748123">
        <ele>875.044</ele>
        <time>2025-12-21T19:51:55.512Z</time>
      </trkpt>
      <trkpt lon="-101.899725" lat="63.755356">
        <ele>875.178</ele>
        <time>2025-12-21T19:52:25.680Z</time>
      </trkpt>
      <trkpt lon="-101.837161" lat="63.762565">
        <ele>874.522</ele>
        <time>2025-12-21T19:52:55.952Z</time>
      </trkpt>
      <trkpt lon="-101.774441" lat="63.769761">
        <ele>876.694</ele>
        <time>2025-12-21T19:53:26.304Z</time>
      </trkpt>
      <trkpt lon="-101.711505" lat="63.776936">
        <ele>875.055</ele>
        <time>2025-12-21T19:53:56.704Z</time>
      </trkpt>
      <trkpt lon="-101.648573" lat="63.784078">
        <ele>866.709</ele>
        <time>2025-12-21T19:54:26.968Z</time>
      </trkpt>
      <trkpt lon="-101.586141" lat="63.791136">
        <ele>867.178</ele>
        <time>2025-12-21T19:54:56.976Z</time>
      </trkpt>
      <trkpt lon="-101.522847" lat="63.798321">
        <ele>866.003</ele>
        <time>2025-12-21T19:55:27.384Z</time>
      </trkpt>
      <trkpt lon="-101.460069" lat="63.805361">
        <ele>865.564</ele>
        <time>2025-12-21T19:55:57.568Z</time>
      </trkpt>
      <trkpt lon="-101.397328" lat="63.812393">
        <ele>866.235</ele>
        <time>2025-12-21T19:56:27.808Z</time>
      </trkpt>
      <trkpt lon="-101.334670" lat="63.819377">
        <ele>866.638</ele>
        <time>2025-12-21T19:56:57.944Z</time>
      </trkpt>
      <trkpt lon="-101.272029" lat="63.826292">
        <ele>866.061</ele>
        <time>2025-12-21T19:57:28.096Z</time>
      </trkpt>
      <trkpt lon="-101.208935" lat="63.833280">
        <ele>865.671</ele>
        <time>2025-12-21T19:57:58.384Z</time>
      </trkpt>
      <trkpt lon="-101.145353" lat="63.840196">
        <ele>866.906</ele>
        <time>2025-12-21T19:58:28.864Z</time>
      </trkpt>
      <trkpt lon="-101.082245" lat="63.847161">
        <ele>866.579</ele>
        <time>2025-12-21T19:58:59.104Z</time>
      </trkpt>
      <trkpt lon="-101.019149" lat="63.854013">
        <ele>865.469</ele>
        <time>2025-12-21T19:59:29.264Z</time>
      </trkpt>
      <trkpt lon="-100.955177" lat="63.860948">
        <ele>866.575</ele>
        <time>2025-12-21T19:59:59.832Z</time>
      </trkpt>
      <trkpt lon="-100.891512" lat="63.867837">
        <ele>862.071</ele>
        <time>2025-12-21T20:00:30.080Z</time>
      </trkpt>
      <trkpt lon="-100.828079" lat="63.874632">
        <ele>862.499</ele>
        <time>2025-12-21T20:01:00.240Z</time>
      </trkpt>
      <trkpt lon="-100.764858" lat="63.881397">
        <ele>861.894</ele>
        <time>2025-12-21T20:01:30.272Z</time>
      </trkpt>
      <trkpt lon="-100.701306" lat="63.888170">
        <ele>862.477</ele>
        <time>2025-12-21T20:02:00.472Z</time>
      </trkpt>
      <trkpt lon="-100.637897" lat="63.894885">
        <ele>860.77</ele>
        <time>2025-12-21T20:02:30.576Z</time>
      </trkpt>
      <trkpt lon="-100.573813" lat="63.901632">
        <ele>861.807</ele>
        <time>2025-12-21T20:03:00.888Z</time>
      </trkpt>
      <trkpt lon="-100.510168" lat="63.908295">
        <ele>861.423</ele>
        <time>2025-12-21T20:03:31.040Z</time>
      </trkpt>
      <trkpt lon="-100.446564" lat="63.914967">
        <ele>863.137</ele>
        <time>2025-12-21T20:04:01.152Z</time>
      </trkpt>
      <trkpt lon="-100.382726" lat="63.921586">
        <ele>863.169</ele>
        <time>2025-12-21T20:04:31.336Z</time>
      </trkpt>
      <trkpt lon="-100.319188" lat="63.928196">
        <ele>862.133</ele>
        <time>2025-12-21T20:05:01.488Z</time>
      </trkpt>
      <trkpt lon="-100.255425" lat="63.934734">
        <ele>862.013</ele>
        <time>2025-12-21T20:05:31.624Z</time>
      </trkpt>
      <trkpt lon="-100.191431" lat="63.941303">
        <ele>861.33</ele>
        <time>2025-12-21T20:06:01.760Z</time>
      </trkpt>
      <trkpt lon="-100.126968" lat="63.947893">
        <ele>857.109</ele>
        <time>2025-12-21T20:06:31.872Z</time>
      </trkpt>
      <trkpt lon="-100.062924" lat="63.954407">
        <ele>857.211</ele>
        <time>2025-12-21T20:07:01.912Z</time>
      </trkpt>
      <trkpt lon="-99.998612" lat="63.960892">
        <ele>857.613</ele>
        <time>2025-12-21T20:07:32.000Z</time>
      </trkpt>
      <trkpt lon="-99.933200" lat="63.967469">
        <ele>856.721</ele>
        <time>2025-12-21T20:08:02.624Z</time>
      </trkpt>
      <trkpt lon="-99.868831" lat="63.973901">
        <ele>856.898</ele>
        <time>2025-12-21T20:08:32.720Z</time>
      </trkpt>
      <trkpt lon="-99.804479" lat="63.980282">
        <ele>857.522</ele>
        <time>2025-12-21T20:09:02.792Z</time>
      </trkpt>
      <trkpt lon="-99.740048" lat="63.986705">
        <ele>858.271</ele>
        <time>2025-12-21T20:09:32.856Z</time>
      </trkpt>
      <trkpt lon="-99.675601" lat="63.993049">
        <ele>858.075</ele>
        <time>2025-12-21T20:10:02.912Z</time>
      </trkpt>
      <trkpt lon="-99.610094" lat="63.999494">
        <ele>856.894</ele>
        <time>2025-12-21T20:10:33.488Z</time>
      </trkpt>
      <trkpt lon="-99.545483" lat="64.005810">
        <ele>857.049</ele>
        <time>2025-12-21T20:11:03.536Z</time>
      </trkpt>
      <trkpt lon="-99.481068" lat="64.012021">
        <ele>857.792</ele>
        <time>2025-12-21T20:11:33.552Z</time>
      </trkpt>
      <trkpt lon="-99.414827" lat="64.018393">
        <ele>850.527</ele>
        <time>2025-12-21T20:12:04.208Z</time>
      </trkpt>
      <trkpt lon="-99.348714" lat="64.024771">
        <ele>846.59</ele>
        <time>2025-12-21T20:12:34.424Z</time>
      </trkpt>
      <trkpt lon="-99.283014" lat="64.031063">
        <ele>846.691</ele>
        <time>2025-12-21T20:13:04.616Z</time>
      </trkpt>
      <trkpt lon="-99.216962" lat="64.037379">
        <ele>847.408</ele>
        <time>2025-12-21T20:13:34.960Z</time>
      </trkpt>
      <trkpt lon="-99.151432" lat="64.043572">
        <ele>847.525</ele>
        <time>2025-12-21T20:14:05.064Z</time>
      </trkpt>
      <trkpt lon="-99.086000" lat="64.049721">
        <ele>847.102</ele>
        <time>2025-12-21T20:14:35.136Z</time>
      </trkpt>
      <trkpt lon="-99.020261" lat="64.055897">
        <ele>846.479</ele>
        <time>2025-12-21T20:15:05.352Z</time>
      </trkpt>
      <trkpt lon="-98.953733" lat="64.062099">
        <ele>847.548</ele>
        <time>2025-12-21T20:15:35.992Z</time>
      </trkpt>
      <trkpt lon="-98.888037" lat="64.067875">
        <ele>848.494</ele>
        <time>2025-12-21T20:16:06.008Z</time>
      </trkpt>
      <trkpt lon="-98.822484" lat="64.074188">
        <ele>847.669</ele>
        <time>2025-12-21T20:16:36.104Z</time>
      </trkpt>
      <trkpt lon="-98.756626" lat="64.080269">
        <ele>847.687</ele>
        <time>2025-12-21T20:17:06.328Z</time>
      </trkpt>
      <trkpt lon="-98.690312" lat="64.086296">
        <ele>847.324</ele>
        <time>2025-12-21T20:17:36.696Z</time>
      </trkpt>
      <trkpt lon="-98.623314" lat="64.092343">
        <ele>835.781</ele>
        <time>2025-12-21T20:18:07.088Z</time>
      </trkpt>
      <trkpt lon="-98.556091" lat="64.098448">
        <ele>837.917</ele>
        <time>2025-12-21T20:18:37.608Z</time>
      </trkpt>
      <trkpt lon="-98.489559" lat="64.104381">
        <ele>837.162</ele>
        <time>2025-12-21T20:19:07.784Z</time>
      </trkpt>
      <trkpt lon="-98.423105" lat="64.110346">
        <ele>839.399</ele>
        <time>2025-12-21T20:19:37.936Z</time>
      </trkpt>
      <trkpt lon="-98.356591" lat="64.116229">
        <ele>838.452</ele>
        <time>2025-12-21T20:20:08.112Z</time>
      </trkpt>
      <trkpt lon="-98.289891" lat="64.122115">
        <ele>838.641</ele>
        <time>2025-12-21T20:20:38.280Z</time>
      </trkpt>
      <trkpt lon="-98.223085" lat="64.127908">
        <ele>836.914</ele>
        <time>2025-12-21T20:21:08.544Z</time>
      </trkpt>
      <trkpt lon="-98.157271" lat="64.133750">
        <ele>832.747</ele>
        <time>2025-12-21T20:21:38.576Z</time>
      </trkpt>
      <trkpt lon="-98.090212" lat="64.139553">
        <ele>835.055</ele>
        <time>2025-12-21T20:22:09.176Z</time>
      </trkpt>
      <trkpt lon="-98.024454" lat="64.145183">
        <ele>832.527</ele>
        <time>2025-12-21T20:22:39.256Z</time>
      </trkpt>
      <trkpt lon="-97.957563" lat="64.150936">
        <ele>834.356</ele>
        <time>2025-12-21T20:23:09.888Z</time>
      </trkpt>
      <trkpt lon="-97.890840" lat="64.156644">
        <ele>831.902</ele>
        <time>2025-12-21T20:23:40.496Z</time>
      </trkpt>
      <trkpt lon="-97.825356" lat="64.162175">
        <ele>820.806</ele>
        <time>2025-12-21T20:24:10.576Z</time>
      </trkpt>
      <trkpt lon="-97.760047" lat="64.167728">
        <ele>822.572</ele>
        <time>2025-12-21T20:24:40.760Z</time>
      </trkpt>
      <trkpt lon="-97.694475" lat="64.173143">
        <ele>821.226</ele>
        <time>2025-12-21T20:25:10.976Z</time>
      </trkpt>
      <trkpt lon="-97.628846" lat="64.178667">
        <ele>822.851</ele>
        <time>2025-12-21T20:25:41.280Z</time>
      </trkpt>
      <trkpt lon="-97.562552" lat="64.184128">
        <ele>822.117</ele>
        <time>2025-12-21T20:26:11.904Z</time>
      </trkpt>
      <trkpt lon="-97.497526" lat="64.189483">
        <ele>821.812</ele>
        <time>2025-12-21T20:26:41.984Z</time>
      </trkpt>
      <trkpt lon="-97.432105" lat="64.194871">
        <ele>821.092</ele>
        <time>2025-12-21T20:27:12.192Z</time>
      </trkpt>
      <trkpt lon="-97.366953" lat="64.200184">
        <ele>821.704</ele>
        <time>2025-12-21T20:27:42.224Z</time>
      </trkpt>
      <trkpt lon="-97.301623" lat="64.205437">
        <ele>821.093</ele>
        <time>2025-12-21T20:28:12.248Z</time>
      </trkpt>
      <trkpt lon="-97.236296" lat="64.210734">
        <ele>821.441</ele>
        <time>2025-12-21T20:28:42.400Z</time>
      </trkpt>
      <trkpt lon="-97.169858" lat="64.215995">
        <ele>822.298</ele>
        <time>2025-12-21T20:29:12.936Z</time>
      </trkpt>
      <trkpt lon="-97.103585" lat="64.221309">
        <ele>821.644</ele>
        <time>2025-12-21T20:29:43.464Z</time>
      </trkpt>
      <trkpt lon="-97.037080" lat="64.226553">
        <ele>822.514</ele>
        <time>2025-12-21T20:30:13.992Z</time>
      </trkpt>
      <trkpt lon="-96.971438" lat="64.231707">
        <ele>821.029</ele>
        <time>2025-12-21T20:30:44.040Z</time>
      </trkpt>
      <trkpt lon="-96.904752" lat="64.236922">
        <ele>821.751</ele>
        <time>2025-12-21T20:31:14.544Z</time>
      </trkpt>
      <trkpt lon="-96.838823" lat="64.242043">
        <ele>817.578</ele>
        <time>2025-12-21T20:31:44.920Z</time>
      </trkpt>
      <trkpt lon="-96.772232" lat="64.247177">
        <ele>819.319</ele>
        <time>2025-12-21T20:32:15.384Z</time>
      </trkpt>
      <trkpt lon="-96.705150" lat="64.252300">
        <ele>813.177</ele>
        <time>2025-12-21T20:32:46.000Z</time>
      </trkpt>
      <trkpt lon="-96.638128" lat="64.257392">
        <ele>811.594</ele>
        <time>2025-12-21T20:33:16.584Z</time>
      </trkpt>
      <trkpt lon="-96.571959" lat="64.262431">
        <ele>812.342</ele>
        <time>2025-12-21T20:33:46.824Z</time>
      </trkpt>
      <trkpt lon="-96.505391" lat="64.267425">
        <ele>808.725</ele>
        <time>2025-12-21T20:34:17.320Z</time>
      </trkpt>
      <trkpt lon="-96.449959" lat="64.271570">
        <ele>813.991</ele>
        <time>2025-12-21T20:34:47.384Z</time>
      </trkpt>
      <trkpt lon="-96.384387" lat="64.276754">
        <ele>824.462</ele>
        <time>2025-12-21T20:35:17.752Z</time>
      </trkpt>
      <trkpt lon="-96.318407" lat="64.281197">
        <ele>812.522</ele>
        <time>2025-12-21T20:35:47.848Z</time>
      </trkpt>
      <trkpt lon="-96.306743" lat="64.281929">
        <ele>802.888</ele>
        <time>2025-12-21T20:35:53.120Z</time>
      </trkpt>
      <trkpt lon="-96.300860" lat="64.282027">
        <ele>799.411</ele>
        <time>2025-12-21T20:35:55.744Z</time>
      </trkpt>
      <trkpt lon="-96.296238" lat="64.281929">
        <ele>799.883</ele>
        <time>2025-12-21T20:35:57.792Z</time>
      </trkpt>
      <trkpt lon="-96.290489" lat="64.281590">
        <ele>801.285</ele>
        <time>2025-12-21T20:36:00.376Z</time>
      </trkpt>
      <trkpt lon="-96.284717" lat="64.281012">
        <ele>802.947</ele>
        <time>2025-12-21T20:36:03.000Z</time>
      </trkpt>
      <trkpt lon="-96.279013" lat="64.280198">
        <ele>803.708</ele>
        <time>2025-12-21T20:36:05.640Z</time>
      </trkpt>
      <trkpt lon="-96.273433" lat="64.279150">
        <ele>804.249</ele>
        <time>2025-12-21T20:36:08.304Z</time>
      </trkpt>
      <trkpt lon="-96.268200" lat="64.277913">
        <ele>805.819</ele>
        <time>2025-12-21T20:36:10.896Z</time>
      </trkpt>
      <trkpt lon="-96.263155" lat="64.276463">
        <ele>807.742</ele>
        <time>2025-12-21T20:36:13.504Z</time>
      </trkpt>
      <trkpt lon="-96.258328" lat="64.274800">
        <ele>809.633</ele>
        <time>2025-12-21T20:36:16.168Z</time>
      </trkpt>
      <trkpt lon="-96.253845" lat="64.272964">
        <ele>811.201</ele>
        <time>2025-12-21T20:36:18.800Z</time>
      </trkpt>
      <trkpt lon="-96.249748" lat="64.270984">
        <ele>812.518</ele>
        <time>2025-12-21T20:36:21.424Z</time>
      </trkpt>
      <trkpt lon="-96.246064" lat="64.268881">
        <ele>813.565</ele>
        <time>2025-12-21T20:36:24.000Z</time>
      </trkpt>
      <trkpt lon="-96.242750" lat="64.266629">
        <ele>814.503</ele>
        <time>2025-12-21T20:36:26.600Z</time>
      </trkpt>
      <trkpt lon="-96.239843" lat="64.264246">
        <ele>815.228</ele>
        <time>2025-12-21T20:36:29.224Z</time>
      </trkpt>
      <trkpt lon="-96.237392" lat="64.261777">
        <ele>815.554</ele>
        <time>2025-12-21T20:36:31.832Z</time>
      </trkpt>
      <trkpt lon="-96.235386" lat="64.259192">
        <ele>815.83</ele>
        <time>2025-12-21T20:36:34.464Z</time>
      </trkpt>
      <trkpt lon="-96.233886" lat="64.256573">
        <ele>815.663</ele>
        <time>2025-12-21T20:36:37.072Z</time>
      </trkpt>
      <trkpt lon="-96.232629" lat="64.253208">
        <ele>815.885</ele>
        <time>2025-12-21T20:36:40.352Z</time>
      </trkpt>
      <trkpt lon="-96.226133" lat="64.230790">
        <ele>812.093</ele>
        <time>2025-12-21T20:37:01.968Z</time>
      </trkpt>
      <trkpt lon="-96.220457" lat="64.221999">
        <ele>810.112</ele>
        <time>2025-12-21T20:37:10.632Z</time>
      </trkpt>
      <trkpt lon="-96.196600" lat="64.192433">
        <ele>813.453</ele>
        <time>2025-12-21T20:37:40.712Z</time>
      </trkpt>
      <trkpt lon="-96.174020" lat="64.163215">
        <ele>763.58</ele>
        <time>2025-12-21T20:38:09.704Z</time>
      </trkpt>
      <trkpt lon="-96.170751" lat="64.159945">
        <ele>751.24</ele>
        <time>2025-12-21T20:38:13.000Z</time>
      </trkpt>
      <trkpt lon="-96.167627" lat="64.157490">
        <ele>744.028</ele>
        <time>2025-12-21T20:38:15.584Z</time>
      </trkpt>
      <trkpt lon="-96.164073" lat="64.155171">
        <ele>738.18</ele>
        <time>2025-12-21T20:38:18.152Z</time>
      </trkpt>
      <trkpt lon="-96.160014" lat="64.152940">
        <ele>732.986</ele>
        <time>2025-12-21T20:38:20.768Z</time>
      </trkpt>
      <trkpt lon="-96.155467" lat="64.150822">
        <ele>728.585</ele>
        <time>2025-12-21T20:38:23.432Z</time>
      </trkpt>
      <trkpt lon="-96.150663" lat="64.148920">
        <ele>724.826</ele>
        <time>2025-12-21T20:38:26.024Z</time>
      </trkpt>
      <trkpt lon="-96.144157" lat="64.146780">
        <ele>721.098</ele>
        <time>2025-12-21T20:38:29.304Z</time>
      </trkpt>
      <trkpt lon="-96.138656" lat="64.145284">
        <ele>718.839</ele>
        <time>2025-12-21T20:38:31.920Z</time>
      </trkpt>
      <trkpt lon="-96.133037" lat="64.144008">
        <ele>716.509</ele>
        <time>2025-12-21T20:38:34.520Z</time>
      </trkpt>
      <trkpt lon="-96.125878" lat="64.142718">
        <ele>713.308</ele>
        <time>2025-12-21T20:38:37.760Z</time>
      </trkpt>
      <trkpt lon="-96.120008" lat="64.141913">
        <ele>710.292</ele>
        <time>2025-12-21T20:38:40.368Z</time>
      </trkpt>
      <trkpt lon="-96.114006" lat="64.141313">
        <ele>706.574</ele>
        <time>2025-12-21T20:38:43.016Z</time>
      </trkpt>
      <trkpt lon="-96.108110" lat="64.140933">
        <ele>702.206</ele>
        <time>2025-12-21T20:38:45.608Z</time>
      </trkpt>
      <trkpt lon="-96.100786" lat="64.140743">
        <ele>696.182</ele>
        <time>2025-12-21T20:38:48.840Z</time>
      </trkpt>
      <trkpt lon="-96.094941" lat="64.140819">
        <ele>692.047</ele>
        <time>2025-12-21T20:38:51.456Z</time>
      </trkpt>
      <trkpt lon="-96.089064" lat="64.141112">
        <ele>688.024</ele>
        <time>2025-12-21T20:38:54.128Z</time>
      </trkpt>
      <trkpt lon="-96.083541" lat="64.141596">
        <ele>684.227</ele>
        <time>2025-12-21T20:38:56.712Z</time>
      </trkpt>
      <trkpt lon="-96.078038" lat="64.142307">
        <ele>681.561</ele>
        <time>2025-12-21T20:38:59.352Z</time>
      </trkpt>
      <trkpt lon="-96.072890" lat="64.143198">
        <ele>680.408</ele>
        <time>2025-12-21T20:39:01.968Z</time>
      </trkpt>
      <trkpt lon="-96.068004" lat="64.144276">
        <ele>679.724</ele>
        <time>2025-12-21T20:39:04.592Z</time>
      </trkpt>
      <trkpt lon="-96.063479" lat="64.145507">
        <ele>679.066</ele>
        <time>2025-12-21T20:39:07.184Z</time>
      </trkpt>
      <trkpt lon="-96.059207" lat="64.146920">
        <ele>678.137</ele>
        <time>2025-12-21T20:39:09.872Z</time>
      </trkpt>
      <trkpt lon="-96.055349" lat="64.148464">
        <ele>676.914</ele>
        <time>2025-12-21T20:39:12.488Z</time>
      </trkpt>
      <trkpt lon="-96.051933" lat="64.150106">
        <ele>674.626</ele>
        <time>2025-12-21T20:39:15.096Z</time>
      </trkpt>
      <trkpt lon="-96.048901" lat="64.151874">
        <ele>670.811</ele>
        <time>2025-12-21T20:39:17.728Z</time>
      </trkpt>
      <trkpt lon="-96.046347" lat="64.153704">
        <ele>666.125</ele>
        <time>2025-12-21T20:39:20.328Z</time>
      </trkpt>
      <trkpt lon="-96.044241" lat="64.155602">
        <ele>661.253</ele>
        <time>2025-12-21T20:39:22.920Z</time>
      </trkpt>
      <trkpt lon="-96.042555" lat="64.157610">
        <ele>656.267</ele>
        <time>2025-12-21T20:39:25.584Z</time>
      </trkpt>
      <trkpt lon="-96.041371" lat="64.159638">
        <ele>651.144</ele>
        <time>2025-12-21T20:39:28.232Z</time>
      </trkpt>
      <trkpt lon="-96.040532" lat="64.162155">
        <ele>644.016</ele>
        <time>2025-12-21T20:39:31.520Z</time>
      </trkpt>
      <trkpt lon="-96.040232" lat="64.170130">
        <ele>599.117</ele>
        <time>2025-12-21T20:39:41.944Z</time>
      </trkpt>
      <trkpt lon="-96.039589" lat="64.178479">
        <ele>557.166</ele>
        <time>2025-12-21T20:39:52.984Z</time>
      </trkpt>
      <trkpt lon="-96.038532" lat="64.181921">
        <ele>536.88</ele>
        <time>2025-12-21T20:39:57.568Z</time>
      </trkpt>
      <trkpt lon="-96.034156" lat="64.189177">
        <ele>498.654</ele>
        <time>2025-12-21T20:40:07.384Z</time>
      </trkpt>
      <trkpt lon="-96.028915" lat="64.195917">
        <ele>461.238</ele>
        <time>2025-12-21T20:40:16.560Z</time>
      </trkpt>
      <trkpt lon="-96.024006" lat="64.201644">
        <ele>423.681</ele>
        <time>2025-12-21T20:40:24.496Z</time>
      </trkpt>
      <trkpt lon="-96.019181" lat="64.207270">
        <ele>389.853</ele>
        <time>2025-12-21T20:40:32.264Z</time>
      </trkpt>
      <trkpt lon="-96.017593" lat="64.209718">
        <ele>385.508</ele>
        <time>2025-12-21T20:40:35.576Z</time>
      </trkpt>
      <trkpt lon="-96.016672" lat="64.212115">
        <ele>386.279</ele>
        <time>2025-12-21T20:40:38.816Z</time>
      </trkpt>
      <trkpt lon="-96.016340" lat="64.214513">
        <ele>387.565</ele>
        <time>2025-12-21T20:40:42.088Z</time>
      </trkpt>
      <trkpt lon="-96.016536" lat="64.216869">
        <ele>389.264</ele>
        <time>2025-12-21T20:40:45.400Z</time>
      </trkpt>
      <trkpt lon="-96.017376" lat="64.219560">
        <ele>391.335</ele>
        <time>2025-12-21T20:40:49.328Z</time>
      </trkpt>
      <trkpt lon="-96.019064" lat="64.222508">
        <ele>393.025</ele>
        <time>2025-12-21T20:40:53.896Z</time>
      </trkpt>
      <trkpt lon="-96.024540" lat="64.229499">
        <ele>392.806</ele>
        <time>2025-12-21T20:41:05.648Z</time>
      </trkpt>
      <trkpt lon="-96.034556" lat="64.242763">
        <ele>358.794</ele>
        <time>2025-12-21T20:41:29.568Z</time>
      </trkpt>
      <trkpt lon="-96.037005" lat="64.246083">
        <ele>327.331</ele>
        <time>2025-12-21T20:41:36.040Z</time>
      </trkpt>
      <trkpt lon="-96.039142" lat="64.248950">
        <ele>296.748</ele>
        <time>2025-12-21T20:41:41.952Z</time>
      </trkpt>
      <trkpt lon="-96.041246" lat="64.251750">
        <ele>267.416</ele>
        <time>2025-12-21T20:41:47.880Z</time>
      </trkpt>
      <trkpt lon="-96.043277" lat="64.254428">
        <ele>239.399</ele>
        <time>2025-12-21T20:41:53.696Z</time>
      </trkpt>
      <trkpt lon="-96.045118" lat="64.256792">
        <ele>213.281</ele>
        <time>2025-12-21T20:41:58.904Z</time>
      </trkpt>
      <trkpt lon="-96.046993" lat="64.259194">
        <ele>186.913</ele>
        <time>2025-12-21T20:42:04.168Z</time>
      </trkpt>
      <trkpt lon="-96.048840" lat="64.261556">
        <ele>162.1</ele>
        <time>2025-12-21T20:42:09.312Z</time>
      </trkpt>
      <trkpt lon="-96.050793" lat="64.263984">
        <ele>137.537</ele>
        <time>2025-12-21T20:42:14.528Z</time>
      </trkpt>
      <trkpt lon="-96.052728" lat="64.266479">
        <ele>114.675</ele>
        <time>2025-12-21T20:42:19.840Z</time>
      </trkpt>
      <trkpt lon="-96.054658" lat="64.268937">
        <ele>93.6317</ele>
        <time>2025-12-21T20:42:25.072Z</time>
      </trkpt>
      <trkpt lon="-96.056488" lat="64.271353">
        <ele>72.6021</ele>
        <time>2025-12-21T20:42:30.248Z</time>
      </trkpt>
      <trkpt lon="-96.058115" lat="64.273480">
        <ele>54.1525</ele>
        <time>2025-12-21T20:42:34.880Z</time>
      </trkpt>
      <trkpt lon="-96.059928" lat="64.275840">
        <ele>36.6432</ele>
        <time>2025-12-21T20:42:40.088Z</time>
      </trkpt>
      <trkpt lon="-96.062912" lat="64.279900">
        <ele>42.2868</ele>
        <time>2025-12-21T20:42:49.264Z</time>
      </trkpt>
      <trkpt lon="-96.063116" lat="64.280177">
        <ele>43.477</ele>
        <time>2025-12-21T20:42:49.928Z</time>
      </trkpt>
      <trkpt lon="-96.063923" lat="64.281886">
        <ele>45.0764</ele>
        <time>2025-12-21T20:42:53.808Z</time>
      </trkpt>
      <trkpt lon="-96.065141" lat="64.285100">
        <ele>46.4012</ele>
        <time>2025-12-21T20:43:00.448Z</time>
      </trkpt>
      <trkpt lon="-96.065287" lat="64.285451">
        <ele>46.6079</ele>
        <time>2025-12-21T20:43:01.104Z</time>
      </trkpt>
      <trkpt lon="-96.065668" lat="64.286092">
        <ele>49.5608</ele>
        <time>2025-12-21T20:43:02.392Z</time>
      </trkpt>
      <trkpt lon="-96.065914" lat="64.286377">
        <ele>50.9784</ele>
        <time>2025-12-21T20:43:03.040Z</time>
      </trkpt>
      <trkpt lon="-96.066411" lat="64.286952">
        <ele>53.3167</ele>
        <time>2025-12-21T20:43:04.352Z</time>
      </trkpt>
      <trkpt lon="-96.067188" lat="64.287784">
        <ele>55.3753</ele>
        <time>2025-12-21T20:43:06.272Z</time>
      </trkpt>
      <trkpt lon="-96.069963" lat="64.290722">
        <ele>52.1781</ele>
        <time>2025-12-21T20:43:13.512Z</time>
      </trkpt>
      <trkpt lon="-96.072121" lat="64.292564">
        <ele>42.1756</ele>
        <time>2025-12-21T20:43:18.784Z</time>
      </trkpt>
      <trkpt lon="-96.073600" lat="64.294011">
        <ele>30.8965</ele>
        <time>2025-12-21T20:43:23.424Z</time>
      </trkpt>
      <trkpt lon="-96.075755" lat="64.296766">
        <ele>21.4258</ele>
        <time>2025-12-21T20:43:32.632Z</time>
      </trkpt>
      <trkpt lon="-96.076447" lat="64.297706">
        <ele>21.4401</ele>
        <time>2025-12-21T20:43:35.880Z</time>
      </trkpt>
      <trkpt lon="-96.078293" lat="64.299577">
        <ele>20.209</ele>
        <time>2025-12-21T20:43:43.216Z</time>
      </trkpt>
      <trkpt lon="-96.078484" lat="64.299714">
        <ele>20.2436</ele>
        <time>2025-12-21T20:43:43.896Z</time>
      </trkpt>
      <trkpt lon="-96.079020" lat="64.300025">
        <ele>20.4054</ele>
        <time>2025-12-21T20:43:45.896Z</time>
      </trkpt>
      <trkpt lon="-96.079151" lat="64.300110">
        <ele>20.0498</ele>
        <time>2025-12-21T20:43:46.528Z</time>
      </trkpt>
      <trkpt lon="-96.079246" lat="64.300203">
        <ele>19.9096</ele>
        <time>2025-12-21T20:43:47.200Z</time>
      </trkpt>
      <trkpt lon="-96.079612" lat="64.300817">
        <ele>19.8011</ele>
        <time>2025-12-21T20:43:51.920Z</time>
      </trkpt>
      <trkpt lon="-96.079631" lat="64.300897">
        <ele>19.9074</ele>
        <time>2025-12-21T20:43:52.592Z</time>
      </trkpt>
      <trkpt lon="-96.079630" lat="64.301132">
        <ele>20.0804</ele>
        <time>2025-12-21T20:43:54.608Z</time>
      </trkpt>
      <trkpt lon="-96.079737" lat="64.301358">
        <ele>20.3474</ele>
        <time>2025-12-21T20:43:56.640Z</time>
      </trkpt>
      <trkpt lon="-96.079933" lat="64.301619">
        <ele>20.5036</ele>
        <time>2025-12-21T20:43:58.680Z</time>
      </trkpt>
      <trkpt lon="-96.080065" lat="64.301785">
        <ele>20.4758</ele>
        <time>2025-12-21T20:44:00.008Z</time>
      </trkpt>
      <trkpt lon="-96.080490" lat="64.302389">
        <ele>20.0578</ele>
        <time>2025-12-21T20:44:04.784Z</time>
      </trkpt>
      <trkpt lon="-96.080901" lat="64.302829">
        <ele>20.4932</ele>
        <time>2025-12-21T20:44:08.936Z</time>
      </trkpt>
      <trkpt lon="-96.081457" lat="64.303705">
        <ele>20.7554</ele>
        <time>2025-12-21T20:44:19.056Z</time>
      </trkpt>
      <trkpt lon="-96.081474" lat="64.303753">
        <ele>20.7372</ele>
        <time>2025-12-21T20:44:19.712Z</time>
      </trkpt>
      <trkpt lon="-96.081477" lat="64.303937">
        <ele>20.6931</ele>
        <time>2025-12-21T20:44:22.480Z</time>
      </trkpt>
      <trkpt lon="-96.081435" lat="64.304179">
        <ele>20.8701</ele>
        <time>2025-12-21T20:44:26.496Z</time>
      </trkpt>
      <trkpt lon="-96.081417" lat="64.304211">
        <ele>20.8316</ele>
        <time>2025-12-21T20:44:27.192Z</time>
      </trkpt>
      <trkpt lon="-96.081390" lat="64.304239">
        <ele>20.803</ele>
        <time>2025-12-21T20:44:27.864Z</time>
      </trkpt>
      <trkpt lon="-96.081358" lat="64.304264">
        <ele>20.7393</ele>
        <time>2025-12-21T20:44:28.520Z</time>
      </trkpt>
      <trkpt lon="-96.081323" lat="64.304285">
        <ele>20.6691</ele>
        <time>2025-12-21T20:44:29.176Z</time>
      </trkpt>
      <trkpt lon="-96.081241" lat="64.304323">
        <ele>20.5876</ele>
        <time>2025-12-21T20:44:30.520Z</time>
      </trkpt>
      <trkpt lon="-96.081187" lat="64.304344">
        <ele>20.5045</ele>
        <time>2025-12-21T20:44:31.832Z</time>
      </trkpt>
      <trkpt lon="-96.081146" lat="64.304356">
        <ele>20.4348</ele>
        <time>2025-12-21T20:44:34.608Z</time>
      </trkpt>
      <trkpt lon="-96.081121" lat="64.304360">
        <ele>20.4035</ele>
        <time>2025-12-21T20:44:35.272Z</time>
      </trkpt>
      <trkpt lon="-96.081096" lat="64.304362">
        <ele>20.3767</ele>
        <time>2025-12-21T20:44:35.904Z</time>
      </trkpt>
      <trkpt lon="-96.080783" lat="64.304377">
        <ele>20.0707</ele>
        <time>2025-12-21T20:44:41.296Z</time>
      </trkpt>
      <trkpt lon="-96.080766" lat="64.304380">
        <ele>20.0511</ele>
        <time>2025-12-21T20:44:43.296Z</time>
      </trkpt>
    </trkseg>
    <trkseg>
      <trkpt lon="7.161829" lat="50.767205">
        <ele>62.6544</ele>
        <time>2025-12-21T19:53:15.000Z</time>
      </trkpt>
    </trkseg>
    <trkseg>
      <trkpt lon="-115.779648" lat="60.840516">
        <ele>163.87</ele>
        <time>2025-12-21T20:46:43.328Z</time>
      </trkpt>
    </trkseg>
    <trkseg>
      <trkpt lon="7.161829" lat="50.767205">
        <ele>62.8883</ele>
        <time>2025-12-21T20:47:02.888Z</time>
      </trkpt>
      <trkpt lon="7.161838" lat="50.767199">
        <ele>62.2956</ele>
        <time>2025-12-21T12:10:37.108Z</time>
      </trkpt>
      <trkpt lon="7.161847" lat="50.767192">
        <ele>62.2986</ele>
        <time>2025-12-21T12:32:48.208Z</time>
      </trkpt>
      <trkpt lon="7.161856" lat="50.767185">
        <ele>62.3042</ele>
        <time>2025-12-21T12:54:34.292Z</time>
      </trkpt>
      <trkpt lon="7.161829" lat="50.767205">
        <ele>62.4068</ele>
        <time>2025-12-21T13:13:30.948Z</time>
      </trkpt>
      <trkpt lon="7.161752" lat="50.767261">
        <ele>62.2666</ele>
        <time>2025-12-21T13:29:09.716Z</time>
      </trkpt>
      <trkpt lon="7.161618" lat="50.767359">
        <ele>62.2091</ele>
        <time>2025-12-21T13:29:11.084Z</time>
      </trkpt>
      <trkpt lon="7.161422" lat="50.767507">
        <ele>62.2556</ele>
        <time>2025-12-21T13:29:12.412Z</time>
      </trkpt>
      <trkpt lon="7.161059" lat="50.767832">
        <ele>62.0655</ele>
        <time>2025-12-21T13:29:14.364Z</time>
      </trkpt>
      <trkpt lon="7.160644" lat="50.768286">
        <ele>62.7289</ele>
        <time>2025-12-21T13:29:16.340Z</time>
      </trkpt>
      <trkpt lon="7.160140" lat="50.768881">
        <ele>62.7498</ele>
        <time>2025-12-21T13:29:18.432Z</time>
      </trkpt>
      <trkpt lon="7.159404" lat="50.769756">
        <ele>63.0651</ele>
        <time>2025-12-21T13:29:21.056Z</time>
      </trkpt>
      <trkpt lon="7.158471" lat="50.770789">
        <ele>62.9885</ele>
        <time>2025-12-21T13:29:23.812Z</time>
      </trkpt>
      <trkpt lon="7.156844" lat="50.772364">
        <ele>73.5377</ele>
        <time>2025-12-21T13:29:27.804Z</time>
      </trkpt>
      <trkpt lon="7.155920" lat="50.773115">
        <ele>86.1998</ele>
        <time>2025-12-21T13:29:29.796Z</time>
      </trkpt>
      <trkpt lon="7.155244" lat="50.773567">
        <ele>98.9257</ele>
        <time>2025-12-21T13:29:31.152Z</time>
      </trkpt>
      <trkpt lon="7.154573" lat="50.773938">
        <ele>113.086</ele>
        <time>2025-12-21T13:29:32.436Z</time>
      </trkpt>
      <trkpt lon="7.153884" lat="50.774255">
        <ele>129.706</ele>
        <time>2025-12-21T13:29:33.752Z</time>
      </trkpt>
      <trkpt lon="7.152874" lat="50.774646">
        <ele>156.412</ele>
        <time>2025-12-21T13:29:35.732Z</time>
      </trkpt>
      <trkpt lon="7.152554" lat="50.774769">
        <ele>165.618</ele>
        <time>2025-12-21T13:29:36.392Z</time>
      </trkpt>
      <trkpt lon="7.151993" lat="50.775028">
        <ele>182.65</ele>
        <time>2025-12-21T13:29:37.740Z</time>
      </trkpt>
      <trkpt lon="7.151061" lat="50.775663">
        <ele>202.742</ele>
        <time>2025-12-21T13:29:40.360Z</time>
      </trkpt>
      <trkpt lon="7.150606" lat="50.776046">
        <ele>202.041</ele>
        <time>2025-12-21T13:29:41.696Z</time>
      </trkpt>
      <trkpt lon="7.150123" lat="50.776456">
        <ele>196.175</ele>
        <time>2025-12-21T13:29:43.000Z</time>
      </trkpt>
      <trkpt lon="7.149555" lat="50.776895">
        <ele>183.946</ele>
        <time>2025-12-21T13:29:44.312Z</time>
      </trkpt>
      <trkpt lon="7.148903" lat="50.777361">
        <ele>168.954</ele>
        <time>2025-12-21T13:29:45.624Z</time>
      </trkpt>
      <trkpt lon="7.147364" lat="50.778394">
        <ele>158.68</ele>
        <time>2025-12-21T13:29:48.280Z</time>
      </trkpt>
      <trkpt lon="7.146151" lat="50.779091">
        <ele>179.167</ele>
        <time>2025-12-21T13:29:50.220Z</time>
      </trkpt>
      <trkpt lon="7.145365" lat="50.779531">
        <ele>200.269</ele>
        <time>2025-12-21T13:29:51.520Z</time>
      </trkpt>
      <trkpt lon="7.144958" lat="50.779741">
        <ele>211.405</ele>
        <time>2025-12-21T13:29:52.180Z</time>
      </trkpt>
      <trkpt lon="7.144125" lat="50.780137">
        <ele>237.789</ele>
        <time>2025-12-21T13:29:53.584Z</time>
      </trkpt>
      <trkpt lon="7.143002" lat="50.780691">
        <ele>274.484</ele>
        <time>2025-12-21T13:29:55.580Z</time>
      </trkpt>
      <trkpt lon="7.142680" lat="50.780852">
        <ele>288.874</ele>
        <time>2025-12-21T13:29:56.244Z</time>
      </trkpt>
      <trkpt lon="7.142084" lat="50.781119">
        <ele>316.998</ele>
        <time>2025-12-21T13:29:57.516Z</time>
      </trkpt>
      <trkpt lon="7.141793" lat="50.781223">
        <ele>329.72</ele>
        <time>2025-12-21T13:29:58.148Z</time>
      </trkpt>
      <trkpt lon="7.141499" lat="50.781306">
        <ele>340.53</ele>
        <time>2025-12-21T13:29:58.772Z</time>
      </trkpt>
      <trkpt lon="7.140990" lat="50.781398">
        <ele>352.178</ele>
        <time>2025-12-21T13:30:39.976Z</time>
      </trkpt>
      <trkpt lon="7.140623" lat="50.781442">
        <ele>353.74</ele>
        <time>2025-12-21T13:30:40.636Z</time>
      </trkpt>
      <trkpt lon="7.140237" lat="50.781481">
        <ele>348.514</ele>
        <time>2025-12-21T13:30:41.308Z</time>
      </trkpt>
      <trkpt lon="7.139862" lat="50.781516">
        <ele>335.953</ele>
        <time>2025-12-21T13:30:41.956Z</time>
      </trkpt>
      <trkpt lon="7.139091" lat="50.781602">
        <ele>286.528</ele>
        <time>2025-12-21T13:30:43.328Z</time>
      </trkpt>
      <trkpt lon="7.138812" lat="50.781661">
        <ele>251.943</ele>
        <time>2025-12-21T13:30:43.964Z</time>
      </trkpt>
      <trkpt lon="7.138614" lat="50.781769">
        <ele>212.356</ele>
        <time>2025-12-21T13:30:44.608Z</time>
      </trkpt>
      <trkpt lon="7.138426" lat="50.781951">
        <ele>171.968</ele>
        <time>2025-12-21T13:30:45.260Z</time>
      </trkpt>
      <trkpt lon="7.138152" lat="50.782168">
        <ele>134.468</ele>
        <time>2025-12-21T13:30:45.916Z</time>
      </trkpt>
      <trkpt lon="7.137738" lat="50.782370">
        <ele>97.8607</ele>
        <time>2025-12-21T13:30:46.564Z</time>
      </trkpt>
      <trkpt lon="7.137189" lat="50.782500">
        <ele>61.4669</ele>
        <time>2025-12-21T13:30:47.236Z</time>
      </trkpt>
      <trkpt lon="7.137124" lat="50.782508">
        <ele>257.478</ele>
        <time>2025-12-21T13:30:47.864Z</time>
      </trkpt>
      <trkpt lon="7.137026" lat="50.782505">
        <ele>260.12</ele>
        <time>2025-12-21T13:30:48.516Z</time>
      </trkpt>
      <trkpt lon="7.136642" lat="50.782491">
        <ele>259.322</ele>
        <time>2025-12-21T13:30:49.180Z</time>
      </trkpt>
      <trkpt lon="7.136118" lat="50.782471">
        <ele>260.23</ele>
        <time>2025-12-21T13:30:49.840Z</time>
      </trkpt>
      <trkpt lon="7.134883" lat="50.782427">
        <ele>260.716</ele>
        <time>2025-12-21T13:30:51.176Z</time>
      </trkpt>
      <trkpt lon="7.133623" lat="50.782367">
        <ele>274.067</ele>
        <time>2025-12-21T13:30:52.496Z</time>
      </trkpt>
      <trkpt lon="7.132416" lat="50.782295">
        <ele>297.987</ele>
        <time>2025-12-21T13:30:53.776Z</time>
      </trkpt>
      <trkpt lon="7.131189" lat="50.782228">
        <ele>324.133</ele>
        <time>2025-12-21T13:30:55.076Z</time>
      </trkpt>
      <trkpt lon="7.128396" lat="50.782082">
        <ele>324.611</ele>
        <time>2025-12-21T13:30:57.796Z</time>
      </trkpt>
      <trkpt lon="7.125444" lat="50.781981">
        <ele>314.291</ele>
        <time>2025-12-21T13:31:00.452Z</time>
      </trkpt>
      <trkpt lon="7.122380" lat="50.782004">
        <ele>323.36</ele>
        <time>2025-12-21T13:31:03.084Z</time>
      </trkpt>
      <trkpt lon="7.120063" lat="50.782178">
        <ele>339.701</ele>
        <time>2025-12-21T13:31:05.060Z</time>
      </trkpt>
      <trkpt lon="7.116982" lat="50.782619">
        <ele>362.654</ele>
        <time>2025-12-21T13:31:07.704Z</time>
      </trkpt>
      <trkpt lon="7.114648" lat="50.783111">
        <ele>379.005</ele>
        <time>2025-12-21T13:31:09.740Z</time>
      </trkpt>
      <trkpt lon="7.111712" lat="50.783934">
        <ele>398.519</ele>
        <time>2025-12-21T13:31:12.344Z</time>
      </trkpt>
      <trkpt lon="7.108796" lat="50.785007">
        <ele>418.777</ele>
        <time>2025-12-21T13:31:15.008Z</time>
      </trkpt>
      <trkpt lon="7.106080" lat="50.786275">
        <ele>439.991</ele>
        <time>2025-12-21T13:31:17.628Z</time>
      </trkpt>
      <trkpt lon="7.103547" lat="50.787730">
        <ele>462.106</ele>
        <time>2025-12-21T13:31:20.224Z</time>
      </trkpt>
      <trkpt lon="7.101200" lat="50.789364">
        <ele>485.205</ele>
        <time>2025-12-21T13:31:22.848Z</time>
      </trkpt>
      <trkpt lon="7.099526" lat="50.790744">
        <ele>503.385</ele>
        <time>2025-12-21T13:31:24.840Z</time>
      </trkpt>
      <trkpt lon="7.097547" lat="50.792706">
        <ele>529.2</ele>
        <time>2025-12-21T13:31:27.532Z</time>
      </trkpt>
      <trkpt lon="7.095880" lat="50.794740">
        <ele>554.932</ele>
        <time>2025-12-21T13:31:30.136Z</time>
      </trkpt>
      <trkpt lon="7.094507" lat="50.796877">
        <ele>581.752</ele>
        <time>2025-12-21T13:31:32.780Z</time>
      </trkpt>
      <trkpt lon="7.093441" lat="50.799132">
        <ele>609.722</ele>
        <time>2025-12-21T13:31:35.424Z</time>
      </trkpt>
      <trkpt lon="7.092746" lat="50.801365">
        <ele>636.864</ele>
        <time>2025-12-21T13:31:38.028Z</time>
      </trkpt>
      <trkpt lon="7.092432" lat="50.803115">
        <ele>658.694</ele>
        <time>2025-12-21T13:31:40.004Z</time>
      </trkpt>
      <trkpt lon="7.092329" lat="50.805413">
        <ele>688.381</ele>
        <time>2025-12-21T13:31:42.648Z</time>
      </trkpt>
      <trkpt lon="7.092568" lat="50.807781">
        <ele>719.159</ele>
        <time>2025-12-21T13:31:45.360Z</time>
      </trkpt>
      <trkpt lon="7.092771" lat="50.808757">
        <ele>732.185</ele>
        <time>2025-12-21T13:32:16.948Z</time>
      </trkpt>
      <trkpt lon="7.093569" lat="50.811242">
        <ele>764.182</ele>
        <time>2025-12-21T13:32:19.692Z</time>
      </trkpt>
      <trkpt lon="7.094606" lat="50.813375">
        <ele>795.002</ele>
        <time>2025-12-21T13:32:22.312Z</time>
      </trkpt>
      <trkpt lon="7.097213" lat="50.817464">
        <ele>848.788</ele>
        <time>2025-12-21T13:32:27.600Z</time>
      </trkpt>
      <trkpt lon="7.099643" lat="50.821432">
        <ele>909.162</ele>
        <time>2025-12-21T13:32:32.924Z</time>
      </trkpt>
      <trkpt lon="7.100493" lat="50.822884">
        <ele>930.754</ele>
        <time>2025-12-21T13:35:40.612Z</time>
      </trkpt>
      <trkpt lon="7.103685" lat="50.828649">
        <ele>990.282</ele>
        <time>2025-12-21T13:35:48.612Z</time>
      </trkpt>
      <trkpt lon="7.107242" lat="50.835937">
        <ele>995.652</ele>
        <time>2025-12-21T13:35:58.476Z</time>
      </trkpt>
      <trkpt lon="7.115771" lat="50.853945">
        <ele>1056.05</ele>
        <time>2025-12-21T13:36:22.796Z</time>
      </trkpt>
      <trkpt lon="7.118551" lat="50.861325">
        <ele>1121.31</ele>
        <time>2025-12-21T13:36:32.212Z</time>
      </trkpt>
      <trkpt lon="7.126801" lat="50.881801">
        <ele>1188.76</ele>
        <time>2025-12-21T13:36:58.116Z</time>
      </trkpt>
      <trkpt lon="7.132422" lat="50.893103">
        <ele>1257.52</ele>
        <time>2025-12-21T13:37:12.536Z</time>
      </trkpt>
      <trkpt lon="7.141999" lat="50.909394">
        <ele>1328.93</ele>
        <time>2025-12-21T13:37:34.216Z</time>
      </trkpt>
      <trkpt lon="7.153299" lat="50.928308">
        <ele>1402.75</ele>
        <time>2025-12-21T13:37:59.280Z</time>
      </trkpt>
      <trkpt lon="7.157632" lat="50.937644">
        <ele>1430.85</ele>
        <time>2025-12-21T13:38:11.236Z</time>
      </trkpt>
      <trkpt lon="7.159865" lat="50.944519">
        <ele>1443.53</ele>
        <time>2025-12-21T13:38:19.696Z</time>
      </trkpt>
      <trkpt lon="7.161010" lat="50.950538">
        <ele>1454.56</ele>
        <time>2025-12-21T13:38:26.924Z</time>
      </trkpt>
      <trkpt lon="7.162341" lat="50.971323">
        <ele>1532.7</ele>
        <time>2025-12-21T13:38:51.792Z</time>
      </trkpt>
      <trkpt lon="7.161584" lat="50.991788">
        <ele>1581.89</ele>
        <time>2025-12-21T13:39:15.380Z</time>
      </trkpt>
      <trkpt lon="7.160728" lat="51.001704">
        <ele>1569.32</ele>
        <time>2025-12-21T13:39:26.676Z</time>
      </trkpt>
    </trkseg>
    <trkseg>
      <trkpt lon="7.161829" lat="50.767205">
        <ele>62.7827</ele>
        <time>2025-12-28T11:40:09.252Z</time>
      </trkpt>
    </trkseg>
    <trkseg>
      <trkpt lon="-90.774475" lat="34.945720">
        <ele>76.4286</ele>
        <time>2025-12-28T16:58:11.420Z</time>
      </trkpt>
      <trkpt lon="-90.774882" lat="34.945882">
        <ele>76.3768</ele>
        <time>2025-12-28T16:58:30.068Z</time>
      </trkpt>
      <trkpt lon="-90.774881" lat="34.945891">
        <ele>76.397</ele>
        <time>2025-12-28T16:59:21.484Z</time>
      </trkpt>
      <trkpt lon="-90.774879" lat="34.945938">
        <ele>76.4234</ele>
        <time>2025-12-28T16:59:31.824Z</time>
      </trkpt>
      <trkpt lon="-90.774878" lat="34.945951">
        <ele>76.4273</ele>
        <time>2025-12-28T16:59:42.020Z</time>
      </trkpt>
      <trkpt lon="-90.774880" lat="34.945912">
        <ele>76.4227</ele>
        <time>2025-12-28T17:00:50.948Z</time>
      </trkpt>
      <trkpt lon="-90.774884" lat="34.945861">
        <ele>76.407</ele>
        <time>2025-12-28T17:00:51.608Z</time>
      </trkpt>
      <trkpt lon="-90.774917" lat="34.945708">
        <ele>76.3931</ele>
        <time>2025-12-28T17:00:52.904Z</time>
      </trkpt>
      <trkpt lon="-90.774935" lat="34.945487">
        <ele>76.3832</ele>
        <time>2025-12-28T17:00:54.204Z</time>
      </trkpt>
      <trkpt lon="-90.774943" lat="34.945208">
        <ele>76.4208</ele>
        <time>2025-12-28T17:00:55.492Z</time>
      </trkpt>
      <trkpt lon="-90.774924" lat="34.944695">
        <ele>76.86</ele>
        <time>2025-12-28T17:00:57.412Z</time>
      </trkpt>
      <trkpt lon="-90.774843" lat="34.944107">
        <ele>84.1719</ele>
        <time>2025-12-28T17:00:59.328Z</time>
      </trkpt>
      <trkpt lon="-90.774684" lat="34.943702">
        <ele>96.3804</ele>
        <time>2025-12-28T17:01:00.660Z</time>
      </trkpt>
      <trkpt lon="-90.774563" lat="34.943508">
        <ele>103.464</ele>
        <time>2025-12-28T17:01:01.300Z</time>
      </trkpt>
      <trkpt lon="-90.774418" lat="34.943326">
        <ele>110.445</ele>
        <time>2025-12-28T17:01:01.952Z</time>
      </trkpt>
      <trkpt lon="-90.774251" lat="34.943163">
        <ele>116.799</ele>
        <time>2025-12-28T17:01:02.588Z</time>
      </trkpt>
      <trkpt lon="-90.774047" lat="34.943002">
        <ele>122.883</ele>
        <time>2025-12-28T17:01:03.252Z</time>
      </trkpt>
      <trkpt lon="-90.773827" lat="34.942863">
        <ele>128.146</ele>
        <time>2025-12-28T17:01:03.904Z</time>
      </trkpt>
      <trkpt lon="-90.773344" lat="34.942637">
        <ele>137.647</ele>
        <time>2025-12-28T17:01:05.180Z</time>
      </trkpt>
      <trkpt lon="-90.772816" lat="34.942466">
        <ele>147.699</ele>
        <time>2025-12-28T17:01:06.464Z</time>
      </trkpt>
      <trkpt lon="-90.771727" lat="34.942222">
        <ele>166.09</ele>
        <time>2025-12-28T17:01:09.076Z</time>
      </trkpt>
      <trkpt lon="-90.769867" lat="34.942039">
        <ele>179.174</ele>
        <time>2025-12-28T17:01:13.128Z</time>
      </trkpt>
      <trkpt lon="-90.768866" lat="34.942052">
        <ele>177.395</ele>
        <time>2025-12-28T17:01:15.092Z</time>
      </trkpt>
      <trkpt lon="-90.766318" lat="34.942266">
        <ele>174.256</ele>
        <time>2025-12-28T17:01:19.652Z</time>
      </trkpt>
      <trkpt lon="-90.763641" lat="34.942558">
        <ele>178.743</ele>
        <time>2025-12-28T17:01:24.136Z</time>
      </trkpt>
      <trkpt lon="-90.759646" lat="34.943137">
        <ele>187.351</ele>
        <time>2025-12-28T17:01:30.620Z</time>
      </trkpt>
      <trkpt lon="-90.758830" lat="34.943156">
        <ele>189.883</ele>
        <time>2025-12-28T17:01:31.928Z</time>
      </trkpt>
      <trkpt lon="-90.758050" lat="34.943095">
        <ele>191.751</ele>
        <time>2025-12-28T17:01:33.212Z</time>
      </trkpt>
      <trkpt lon="-90.757283" lat="34.942941">
        <ele>190.808</ele>
        <time>2025-12-28T17:01:34.536Z</time>
      </trkpt>
      <trkpt lon="-90.756938" lat="34.942831">
        <ele>188.037</ele>
        <time>2025-12-28T17:01:35.184Z</time>
      </trkpt>
      <trkpt lon="-90.756601" lat="34.942683">
        <ele>184.166</ele>
        <time>2025-12-28T17:01:35.852Z</time>
      </trkpt>
      <trkpt lon="-90.754248" lat="34.941282">
        <ele>182.143</ele>
        <time>2025-12-28T17:01:41.084Z</time>
      </trkpt>
      <trkpt lon="-90.753600" lat="34.941019">
        <ele>188.88</ele>
        <time>2025-12-28T17:01:42.384Z</time>
      </trkpt>
      <trkpt lon="-90.753250" lat="34.940925">
        <ele>192.277</ele>
        <time>2025-12-28T17:01:43.032Z</time>
      </trkpt>
      <trkpt lon="-90.752888" lat="34.940864">
        <ele>196.415</ele>
        <time>2025-12-28T17:01:43.672Z</time>
      </trkpt>
      <trkpt lon="-90.751727" lat="34.940798">
        <ele>206.894</ele>
        <time>2025-12-28T17:01:45.640Z</time>
      </trkpt>
      <trkpt lon="-90.748459" lat="34.940808">
        <ele>229.609</ele>
        <time>2025-12-28T17:01:50.824Z</time>
      </trkpt>
      <trkpt lon="-90.747250" lat="34.940872">
        <ele>251.993</ele>
        <time>2025-12-28T17:01:52.744Z</time>
      </trkpt>
      <trkpt lon="-90.746031" lat="34.941024">
        <ele>276.706</ele>
        <time>2025-12-28T17:01:54.696Z</time>
      </trkpt>
      <trkpt lon="-90.744010" lat="34.941430">
        <ele>308.52</ele>
        <time>2025-12-28T17:01:57.912Z</time>
      </trkpt>
      <trkpt lon="-90.743232" lat="34.941655">
        <ele>323.91</ele>
        <time>2025-12-28T17:01:59.184Z</time>
      </trkpt>
      <trkpt lon="-90.742119" lat="34.942071">
        <ele>351.944</ele>
        <time>2025-12-28T17:02:01.104Z</time>
      </trkpt>
      <trkpt lon="-90.740703" lat="34.942681">
        <ele>381.286</ele>
        <time>2025-12-28T17:02:03.656Z</time>
      </trkpt>
      <trkpt lon="-90.737650" lat="34.943953">
        <ele>411.159</ele>
        <time>2025-12-28T17:02:08.864Z</time>
      </trkpt>
      <trkpt lon="-90.734531" lat="34.945197">
        <ele>444.494</ele>
        <time>2025-12-28T17:02:13.992Z</time>
      </trkpt>
      <trkpt lon="-90.731879" lat="34.946298">
        <ele>479.528</ele>
        <time>2025-12-28T17:02:18.488Z</time>
      </trkpt>
      <trkpt lon="-90.729857" lat="34.947154">
        <ele>472.535</ele>
        <time>2025-12-28T17:02:21.704Z</time>
      </trkpt>
      <trkpt lon="-90.728120" lat="34.947893">
        <ele>443.296</ele>
        <time>2025-12-28T17:02:24.236Z</time>
      </trkpt>
      <trkpt lon="-90.726183" lat="34.948664">
        <ele>414.972</ele>
        <time>2025-12-28T17:02:26.780Z</time>
      </trkpt>
      <trkpt lon="-90.723052" lat="34.949720">
        <ele>399.562</ele>
        <time>2025-12-28T17:02:30.596Z</time>
      </trkpt>
      <trkpt lon="-90.720310" lat="34.950474">
        <ele>363.258</ele>
        <time>2025-12-28T17:02:33.832Z</time>
      </trkpt>
      <trkpt lon="-90.718589" lat="34.950854">
        <ele>336.475</ele>
        <time>2025-12-28T17:02:35.752Z</time>
      </trkpt>
      <trkpt lon="-90.716296" lat="34.951228">
        <ele>345.395</ele>
        <time>2025-12-28T17:02:38.344Z</time>
      </trkpt>
      <trkpt lon="-90.714746" lat="34.951554">
        <ele>378.446</ele>
        <time>2025-12-28T17:02:40.256Z</time>
      </trkpt>
      <trkpt lon="-90.713301" lat="34.951916">
        <ele>409.23</ele>
        <time>2025-12-28T17:02:42.172Z</time>
      </trkpt>
      <trkpt lon="-90.711455" lat="34.952400">
        <ele>445.42</ele>
        <time>2025-12-28T17:02:44.732Z</time>
      </trkpt>
      <trkpt lon="-90.709291" lat="34.952984">
        <ele>486.818</ele>
        <time>2025-12-28T17:02:47.900Z</time>
      </trkpt>
      <trkpt lon="-90.706730" lat="34.953684">
        <ele>524.812</ele>
        <time>2025-12-28T17:02:51.760Z</time>
      </trkpt>
      <trkpt lon="-90.701844" lat="34.954987">
        <ele>549.167</ele>
        <time>2025-12-28T17:02:58.816Z</time>
      </trkpt>
      <trkpt lon="-90.697001" lat="34.956227">
        <ele>552.355</ele>
        <time>2025-12-28T17:03:05.196Z</time>
      </trkpt>
      <trkpt lon="-90.672077" lat="34.962560">
        <ele>569.265</ele>
        <time>2025-12-28T17:03:35.468Z</time>
      </trkpt>
      <trkpt lon="-90.646846" lat="34.967591">
        <ele>605.036</ele>
        <time>2025-12-28T17:04:05.532Z</time>
      </trkpt>
      <trkpt lon="-90.624890" lat="34.970826">
        <ele>623.028</ele>
        <time>2025-12-28T17:04:31.820Z</time>
      </trkpt>
      <trkpt lon="-90.599129" lat="34.973250">
        <ele>643.786</ele>
        <time>2025-12-28T17:05:02.436Z</time>
      </trkpt>
      <trkpt lon="-90.576632" lat="34.974115">
        <ele>667.49</ele>
        <time>2025-12-28T17:05:29.244Z</time>
      </trkpt>
      <trkpt lon="-90.551544" lat="34.973756">
        <ele>711.788</ele>
        <time>2025-12-28T17:05:59.472Z</time>
      </trkpt>
      <trkpt lon="-90.526260" lat="34.972887">
        <ele>752.867</ele>
        <time>2025-12-28T17:06:29.744Z</time>
      </trkpt>
      <trkpt lon="-90.512628" lat="34.972452">
        <ele>771.513</ele>
        <time>2025-12-28T17:06:46.360Z</time>
      </trkpt>
      <trkpt lon="-90.505283" lat="34.972366">
        <ele>775.07</ele>
        <time>2025-12-28T17:06:55.976Z</time>
      </trkpt>
      <trkpt lon="-90.482753" lat="34.972650">
        <ele>768.12</ele>
        <time>2025-12-28T17:07:26.088Z</time>
      </trkpt>
      <trkpt lon="-90.459447" lat="34.974263">
        <ele>772.304</ele>
        <time>2025-12-28T17:07:56.120Z</time>
      </trkpt>
      <trkpt lon="-90.444165" lat="34.976189">
        <ele>780.578</ele>
        <time>2025-12-28T17:08:15.908Z</time>
      </trkpt>
      <trkpt lon="-90.427474" lat="34.979066">
        <ele>788.626</ele>
        <time>2025-12-28T17:08:37.584Z</time>
      </trkpt>
      <trkpt lon="-90.407243" lat="34.983649">
        <ele>794.224</ele>
        <time>2025-12-28T17:09:03.856Z</time>
      </trkpt>
      <trkpt lon="-90.388396" lat="34.989090">
        <ele>788.222</ele>
        <time>2025-12-28T17:09:28.828Z</time>
      </trkpt>
      <trkpt lon="-90.375238" lat="34.993658">
        <ele>784.548</ele>
        <time>2025-12-28T17:09:46.760Z</time>
      </trkpt>
      <trkpt lon="-90.358721" lat="35.000367">
        <ele>785.789</ele>
        <time>2025-12-28T17:10:09.940Z</time>
      </trkpt>
      <trkpt lon="-90.337589" lat="35.010444">
        <ele>785.791</ele>
        <time>2025-12-28T17:10:40.100Z</time>
      </trkpt>
      <trkpt lon="-90.316629" lat="35.021430">
        <ele>783.006</ele>
        <time>2025-12-28T17:11:10.504Z</time>
      </trkpt>
      <trkpt lon="-90.296118" lat="35.032409">
        <ele>785.436</ele>
        <time>2025-12-28T17:11:40.740Z</time>
      </trkpt>
      <trkpt lon="-90.284957" lat="35.038059">
        <ele>781.085</ele>
        <time>2025-12-28T17:11:56.828Z</time>
      </trkpt>
      <trkpt lon="-90.273783" lat="35.042893">
        <ele>780.963</ele>
        <time>2025-12-28T17:12:12.340Z</time>
      </trkpt>
      <trkpt lon="-90.262879" lat="35.046929">
        <ele>777.873</ele>
        <time>2025-12-28T17:12:27.196Z</time>
      </trkpt>
      <trkpt lon="-90.251851" lat="35.050371">
        <ele>775.945</ele>
        <time>2025-12-28T17:12:42.052Z</time>
      </trkpt>
      <trkpt lon="-90.239323" lat="35.053534">
        <ele>773.352</ele>
        <time>2025-12-28T17:12:58.752Z</time>
      </trkpt>
      <trkpt lon="-90.216530" lat="35.058112">
        <ele>767.078</ele>
        <time>2025-12-28T17:13:28.964Z</time>
      </trkpt>
      <trkpt lon="-90.193073" lat="35.061561">
        <ele>764.923</ele>
        <time>2025-12-28T17:13:59.472Z</time>
      </trkpt>
      <trkpt lon="-90.169721" lat="35.063804">
        <ele>768.847</ele>
        <time>2025-12-28T17:14:29.912Z</time>
      </trkpt>
      <trkpt lon="-90.146625" lat="35.064840">
        <ele>760.573</ele>
        <time>2025-12-28T17:15:00.180Z</time>
      </trkpt>
      <trkpt lon="-90.123694" lat="35.064636">
        <ele>749.142</ele>
        <time>2025-12-28T17:15:30.472Z</time>
      </trkpt>
      <trkpt lon="-90.100787" lat="35.063681">
        <ele>730.837</ele>
        <time>2025-12-28T17:16:00.904Z</time>
      </trkpt>
      <trkpt lon="-90.086676" lat="35.063091">
        <ele>736.372</ele>
        <time>2025-12-28T17:16:19.716Z</time>
      </trkpt>
      <trkpt lon="-90.083731" lat="35.062996">
        <ele>739.827</ele>
        <time>2025-12-28T17:16:23.664Z</time>
      </trkpt>
      <trkpt lon="-90.078170" lat="35.062858">
        <ele>748.872</ele>
        <time>2025-12-28T17:16:31.548Z</time>
      </trkpt>
      <trkpt lon="-90.066304" lat="35.062694">
        <ele>740.99</ele>
        <time>2025-12-28T17:16:49.944Z</time>
      </trkpt>
      <trkpt lon="-90.061238" lat="35.062640">
        <ele>743.255</ele>
        <time>2025-12-28T17:16:57.248Z</time>
      </trkpt>
      <trkpt lon="-90.040342" lat="35.062824">
        <ele>735.573</ele>
        <time>2025-12-28T17:17:27.824Z</time>
      </trkpt>
      <trkpt lon="-90.019740" lat="35.063248">
        <ele>720.967</ele>
        <time>2025-12-28T17:17:58.128Z</time>
      </trkpt>
      <trkpt lon="-89.999271" lat="35.063870">
        <ele>706.012</ele>
        <time>2025-12-28T17:18:28.252Z</time>
      </trkpt>
      <trkpt lon="-89.978798" lat="35.064700">
        <ele>690.922</ele>
        <time>2025-12-28T17:18:58.332Z</time>
      </trkpt>
      <trkpt lon="-89.958431" lat="35.065736">
        <ele>675.062</ele>
        <time>2025-12-28T17:19:28.340Z</time>
      </trkpt>
      <trkpt lon="-89.937661" lat="35.066995">
        <ele>658.306</ele>
        <time>2025-12-28T17:19:58.952Z</time>
      </trkpt>
      <trkpt lon="-89.916945" lat="35.068470">
        <ele>641.263</ele>
        <time>2025-12-28T17:20:29.504Z</time>
      </trkpt>
      <trkpt lon="-89.896612" lat="35.070136">
        <ele>624.831</ele>
        <time>2025-12-28T17:20:59.508Z</time>
      </trkpt>
      <trkpt lon="-89.876242" lat="35.072019">
        <ele>610.306</ele>
        <time>2025-12-28T17:21:29.600Z</time>
      </trkpt>
      <trkpt lon="-89.855611" lat="35.074146">
        <ele>597.493</ele>
        <time>2025-12-28T17:22:00.188Z</time>
      </trkpt>
      <trkpt lon="-89.835096" lat="35.076484">
        <ele>586.241</ele>
        <time>2025-12-28T17:22:30.640Z</time>
      </trkpt>
      <trkpt lon="-89.814541" lat="35.079033">
        <ele>573.803</ele>
        <time>2025-12-28T17:23:01.228Z</time>
      </trkpt>
      <trkpt lon="-89.794396" lat="35.081756">
        <ele>563.676</ele>
        <time>2025-12-28T17:23:31.276Z</time>
      </trkpt>
      <trkpt lon="-89.774289" lat="35.084674">
        <ele>550.442</ele>
        <time>2025-12-28T17:24:01.292Z</time>
      </trkpt>
      <trkpt lon="-89.754244" lat="35.087793">
        <ele>538.839</ele>
        <time>2025-12-28T17:24:31.304Z</time>
      </trkpt>
      <trkpt lon="-89.734213" lat="35.091116">
        <ele>527.417</ele>
        <time>2025-12-28T17:25:01.356Z</time>
      </trkpt>
      <trkpt lon="-89.714230" lat="35.094648">
        <ele>515.621</ele>
        <time>2025-12-28T17:25:31.424Z</time>
      </trkpt>
      <trkpt lon="-89.694311" lat="35.098394">
        <ele>501.482</ele>
        <time>2025-12-28T17:26:01.452Z</time>
      </trkpt>
      <trkpt lon="-89.674026" lat="35.102434">
        <ele>486.652</ele>
        <time>2025-12-28T17:26:32.084Z</time>
      </trkpt>
      <trkpt lon="-89.653809" lat="35.106707">
        <ele>475.343</ele>
        <time>2025-12-28T17:27:02.720Z</time>
      </trkpt>
      <trkpt lon="-89.633737" lat="35.111179">
        <ele>465.561</ele>
        <time>2025-12-28T17:27:33.292Z</time>
      </trkpt>
      <trkpt lon="-89.614087" lat="35.115766">
        <ele>456.258</ele>
        <time>2025-12-28T17:28:03.320Z</time>
      </trkpt>
      <trkpt lon="-89.594468" lat="35.120549">
        <ele>442.621</ele>
        <time>2025-12-28T17:28:33.408Z</time>
      </trkpt>
      <trkpt lon="-89.574890" lat="35.125530">
        <ele>431.864</ele>
        <time>2025-12-28T17:29:03.520Z</time>
      </trkpt>
      <trkpt lon="-89.555388" lat="35.130659">
        <ele>421.818</ele>
        <time>2025-12-28T17:29:33.624Z</time>
      </trkpt>
      <trkpt lon="-89.535352" lat="35.135180">
        <ele>410.921</ele>
        <time>2025-12-28T17:30:04.232Z</time>
      </trkpt>
      <trkpt lon="-89.515293" lat="35.138532">
        <ele>399.872</ele>
        <time>2025-12-28T17:30:34.380Z</time>
      </trkpt>
      <trkpt lon="-89.494684" lat="35.140801">
        <ele>391.904</ele>
        <time>2025-12-28T17:31:04.968Z</time>
      </trkpt>
      <trkpt lon="-89.474044" lat="35.141900">
        <ele>382.945</ele>
        <time>2025-12-28T17:31:35.512Z</time>
      </trkpt>
      <trkpt lon="-89.455019" lat="35.141849">
        <ele>377.062</ele>
        <time>2025-12-28T17:32:03.624Z</time>
      </trkpt>
      <trkpt lon="-89.441615" lat="35.141058">
        <ele>375.06</ele>
        <time>2025-12-28T17:32:23.524Z</time>
      </trkpt>
      <trkpt lon="-89.439571" lat="35.140797">
        <ele>379.592</ele>
        <time>2025-12-28T17:32:26.744Z</time>
      </trkpt>
      <trkpt lon="-89.438389" lat="35.140521">
        <ele>380.124</ele>
        <time>2025-12-28T17:32:28.696Z</time>
      </trkpt>
      <trkpt lon="-89.433898" lat="35.139235">
        <ele>374.711</ele>
        <time>2025-12-28T17:32:36.348Z</time>
      </trkpt>
      <trkpt lon="-89.431602" lat="35.138782">
        <ele>372.654</ele>
        <time>2025-12-28T17:32:40.152Z</time>
      </trkpt>
      <trkpt lon="-89.430077" lat="35.138545">
        <ele>369.387</ele>
        <time>2025-12-28T17:32:42.684Z</time>
      </trkpt>
      <trkpt lon="-89.428531" lat="35.138431">
        <ele>367.641</ele>
        <time>2025-12-28T17:32:45.220Z</time>
      </trkpt>
      <trkpt lon="-89.422685" lat="35.138664">
        <ele>357.181</ele>
        <time>2025-12-28T17:32:54.776Z</time>
      </trkpt>
      <trkpt lon="-89.420795" lat="35.138882">
        <ele>357.856</ele>
        <time>2025-12-28T17:32:57.944Z</time>
      </trkpt>
      <trkpt lon="-89.420033" lat="35.138982">
        <ele>358.16</ele>
        <time>2025-12-28T17:32:59.248Z</time>
      </trkpt>
      <trkpt lon="-89.417782" lat="35.139197">
        <ele>357.455</ele>
        <time>2025-12-28T17:33:03.064Z</time>
      </trkpt>
      <trkpt lon="-89.413773" lat="35.139561">
        <ele>354.104</ele>
        <time>2025-12-28T17:33:10.068Z</time>
      </trkpt>
      <trkpt lon="-89.408496" lat="35.140393">
        <ele>337.767</ele>
        <time>2025-12-28T17:33:19.636Z</time>
      </trkpt>
      <trkpt lon="-89.406152" lat="35.140414">
        <ele>333.535</ele>
        <time>2025-12-28T17:33:24.072Z</time>
      </trkpt>
      <trkpt lon="-89.404814" lat="35.140521">
        <ele>307.176</ele>
        <time>2025-12-28T17:33:26.604Z</time>
      </trkpt>
      <trkpt lon="-89.401707" lat="35.140760">
        <ele>318.295</ele>
        <time>2025-12-28T17:33:32.452Z</time>
      </trkpt>
      <trkpt lon="-89.400518" lat="35.140770">
        <ele>340.376</ele>
        <time>2025-12-28T17:33:34.988Z</time>
      </trkpt>
      <trkpt lon="-89.398614" lat="35.140768">
        <ele>360.234</ele>
        <time>2025-12-28T17:33:39.436Z</time>
      </trkpt>
      <trkpt lon="-89.398038" lat="35.140764">
        <ele>358.97</ele>
        <time>2025-12-28T17:33:40.712Z</time>
      </trkpt>
      <trkpt lon="-89.395233" lat="35.140960">
        <ele>360.17</ele>
        <time>2025-12-28T17:33:46.384Z</time>
      </trkpt>
      <trkpt lon="-89.392645" lat="35.141173">
        <ele>367.176</ele>
        <time>2025-12-28T17:33:51.524Z</time>
      </trkpt>
      <trkpt lon="-89.391683" lat="35.141190">
        <ele>366.514</ele>
        <time>2025-12-28T17:33:53.420Z</time>
      </trkpt>
      <trkpt lon="-89.386779" lat="35.141080">
        <ele>372.47</ele>
        <time>2025-12-28T17:34:03.004Z</time>
      </trkpt>
      <trkpt lon="-89.386442" lat="35.141080">
        <ele>372.288</ele>
        <time>2025-12-28T17:34:03.644Z</time>
      </trkpt>
      <trkpt lon="-89.383159" lat="35.141433">
        <ele>384.395</ele>
        <time>2025-12-28T17:34:10.020Z</time>
      </trkpt>
      <trkpt lon="-89.378395" lat="35.142254">
        <ele>391.572</ele>
        <time>2025-12-28T17:34:18.884Z</time>
      </trkpt>
      <trkpt lon="-89.371646" lat="35.143896">
        <ele>405.788</ele>
        <time>2025-12-28T17:34:30.960Z</time>
      </trkpt>
      <trkpt lon="-89.364544" lat="35.146168">
        <ele>424.759</ele>
        <time>2025-12-28T17:34:43.752Z</time>
      </trkpt>
      <trkpt lon="-89.355374" lat="35.149932">
        <ele>447.797</ele>
        <time>2025-12-28T17:35:00.860Z</time>
      </trkpt>
      <trkpt lon="-89.342210" lat="35.155778">
        <ele>477.431</ele>
        <time>2025-12-28T17:35:25.684Z</time>
      </trkpt>
      <trkpt lon="-89.329765" lat="35.161516">
        <ele>508.45</ele>
        <time>2025-12-28T17:35:49.296Z</time>
      </trkpt>
      <trkpt lon="-89.314453" lat="35.168816">
        <ele>542.31</ele>
        <time>2025-12-28T17:36:18.588Z</time>
      </trkpt>
      <trkpt lon="-89.301569" lat="35.175193">
        <ele>577.443</ele>
        <time>2025-12-28T17:36:43.428Z</time>
      </trkpt>
      <trkpt lon="-89.290550" lat="35.180388">
        <ele>606.478</ele>
        <time>2025-12-28T17:37:04.376Z</time>
      </trkpt>
      <trkpt lon="-89.281723" lat="35.183682">
        <ele>627.232</ele>
        <time>2025-12-28T17:37:20.288Z</time>
      </trkpt>
      <trkpt lon="-89.273296" lat="35.186168">
        <ele>646.438</ele>
        <time>2025-12-28T17:37:34.968Z</time>
      </trkpt>
      <trkpt lon="-89.264392" lat="35.188154">
        <ele>667.22</ele>
        <time>2025-12-28T17:37:50.096Z</time>
      </trkpt>
      <trkpt lon="-89.255156" lat="35.189561">
        <ele>687.381</ele>
        <time>2025-12-28T17:38:05.464Z</time>
      </trkpt>
      <trkpt lon="-89.245894" lat="35.190329">
        <ele>706.926</ele>
        <time>2025-12-28T17:38:20.732Z</time>
      </trkpt>
      <trkpt lon="-89.236563" lat="35.190480">
        <ele>726.35</ele>
        <time>2025-12-28T17:38:36.036Z</time>
      </trkpt>
      <trkpt lon="-89.218365" lat="35.189522">
        <ele>763.579</ele>
        <time>2025-12-28T17:39:05.932Z</time>
      </trkpt>
      <trkpt lon="-89.199885" lat="35.187452">
        <ele>800.555</ele>
        <time>2025-12-28T17:39:36.576Z</time>
      </trkpt>
      <trkpt lon="-89.181660" lat="35.184285">
        <ele>839.158</ele>
        <time>2025-12-28T17:40:07.224Z</time>
      </trkpt>
      <trkpt lon="-89.164177" lat="35.180156">
        <ele>875.006</ele>
        <time>2025-12-28T17:40:37.268Z</time>
      </trkpt>
      <trkpt lon="-89.146876" lat="35.174955">
        <ele>913.154</ele>
        <time>2025-12-28T17:41:07.808Z</time>
      </trkpt>
      <trkpt lon="-89.130102" lat="35.168759">
        <ele>950.61</ele>
        <time>2025-12-28T17:41:38.404Z</time>
      </trkpt>
      <trkpt lon="-89.114080" lat="35.161663">
        <ele>987.474</ele>
        <time>2025-12-28T17:42:08.868Z</time>
      </trkpt>
      <trkpt lon="-89.098595" lat="35.153919">
        <ele>1023.61</ele>
        <time>2025-12-28T17:42:39.432Z</time>
      </trkpt>
      <trkpt lon="-89.087180" lat="35.149077">
        <ele>1049.45</ele>
        <time>2025-12-28T17:43:00.996Z</time>
      </trkpt>
      <trkpt lon="-89.074961" lat="35.144881">
        <ele>1076.5</ele>
        <time>2025-12-28T17:43:23.088Z</time>
      </trkpt>
      <trkpt lon="-89.062603" lat="35.141573">
        <ele>1102.9</ele>
        <time>2025-12-28T17:43:44.616Z</time>
      </trkpt>
      <trkpt lon="-89.050167" lat="35.139121">
        <ele>1129.01</ele>
        <time>2025-12-28T17:44:05.684Z</time>
      </trkpt>
      <trkpt lon="-89.037134" lat="35.137433">
        <ele>1153</ele>
        <time>2025-12-28T17:44:27.272Z</time>
      </trkpt>
      <trkpt lon="-89.027420" lat="35.136777">
        <ele>1172.68</ele>
        <time>2025-12-28T17:44:43.172Z</time>
      </trkpt>
      <trkpt lon="-89.019907" lat="35.136801">
        <ele>1181.11</ele>
        <time>2025-12-28T17:44:55.300Z</time>
      </trkpt>
      <trkpt lon="-89.011891" lat="35.137349">
        <ele>1183.51</ele>
        <time>2025-12-28T17:45:07.988Z</time>
      </trkpt>
      <trkpt lon="-89.003858" lat="35.138436">
        <ele>1187.74</ele>
        <time>2025-12-28T17:45:20.704Z</time>
      </trkpt>
      <trkpt lon="-88.995933" lat="35.140050">
        <ele>1191.76</ele>
        <time>2025-12-28T17:45:33.420Z</time>
      </trkpt>
      <trkpt lon="-88.988172" lat="35.142184">
        <ele>1195.06</ele>
        <time>2025-12-28T17:45:46.148Z</time>
      </trkpt>
      <trkpt lon="-88.970163" lat="35.148649">
        <ele>1199.68</ele>
        <time>2025-12-28T17:46:16.700Z</time>
      </trkpt>
      <trkpt lon="-88.952427" lat="35.155459">
        <ele>1204.31</ele>
        <time>2025-12-28T17:46:47.140Z</time>
      </trkpt>
      <trkpt lon="-88.934888" lat="35.162539">
        <ele>1206.74</ele>
        <time>2025-12-28T17:47:17.536Z</time>
      </trkpt>
      <trkpt lon="-88.917424" lat="35.169935">
        <ele>1213.33</ele>
        <time>2025-12-28T17:47:48.120Z</time>
      </trkpt>
      <trkpt lon="-88.900139" lat="35.177603">
        <ele>1220.33</ele>
        <time>2025-12-28T17:48:18.692Z</time>
      </trkpt>
      <trkpt lon="-88.883040" lat="35.185532">
        <ele>1225.56</ele>
        <time>2025-12-28T17:48:49.288Z</time>
      </trkpt>
      <trkpt lon="-88.866216" lat="35.193064">
        <ele>1226.74</ele>
        <time>2025-12-28T17:49:19.300Z</time>
      </trkpt>
      <trkpt lon="-88.848370" lat="35.199822">
        <ele>1230.84</ele>
        <time>2025-12-28T17:49:49.828Z</time>
      </trkpt>
      <trkpt lon="-88.829926" lat="35.205583">
        <ele>1235.43</ele>
        <time>2025-12-28T17:50:20.456Z</time>
      </trkpt>
      <trkpt lon="-88.811112" lat="35.210277">
        <ele>1242.61</ele>
        <time>2025-12-28T17:50:50.924Z</time>
      </trkpt>
      <trkpt lon="-88.792206" lat="35.213865">
        <ele>1248.84</ele>
        <time>2025-12-28T17:51:20.976Z</time>
      </trkpt>
      <trkpt lon="-88.772740" lat="35.216436">
        <ele>1257.5</ele>
        <time>2025-12-28T17:51:51.512Z</time>
      </trkpt>
      <trkpt lon="-88.753102" lat="35.218257">
        <ele>1262.53</ele>
        <time>2025-12-28T17:52:22.124Z</time>
      </trkpt>
      <trkpt lon="-88.733543" lat="35.220309">
        <ele>1271.87</ele>
        <time>2025-12-28T17:52:52.712Z</time>
      </trkpt>
      <trkpt lon="-88.714364" lat="35.222604">
        <ele>1277.93</ele>
        <time>2025-12-28T17:53:22.732Z</time>
      </trkpt>
      <trkpt lon="-88.694965" lat="35.225210">
        <ele>1285.78</ele>
        <time>2025-12-28T17:53:53.208Z</time>
      </trkpt>
      <trkpt lon="-88.675705" lat="35.228429">
        <ele>1292.84</ele>
        <time>2025-12-28T17:54:23.704Z</time>
      </trkpt>
      <trkpt lon="-88.661570" lat="35.231867">
        <ele>1300.67</ele>
        <time>2025-12-28T17:54:46.584Z</time>
      </trkpt>
      <trkpt lon="-88.647426" lat="35.236337">
        <ele>1305.98</ele>
        <time>2025-12-28T17:55:10.104Z</time>
      </trkpt>
      <trkpt lon="-88.634132" lat="35.241568">
        <ele>1310.3</ele>
        <time>2025-12-28T17:55:33.032Z</time>
      </trkpt>
      <trkpt lon="-88.617263" lat="35.249770">
        <ele>1313.31</ele>
        <time>2025-12-28T17:56:03.564Z</time>
      </trkpt>
      <trkpt lon="-88.600872" lat="35.258499">
        <ele>1320.62</ele>
        <time>2025-12-28T17:56:34.020Z</time>
      </trkpt>
      <trkpt lon="-88.584669" lat="35.267479">
        <ele>1325.84</ele>
        <time>2025-12-28T17:57:04.544Z</time>
      </trkpt>
      <trkpt lon="-88.568083" lat="35.275975">
        <ele>1331.51</ele>
        <time>2025-12-28T17:57:34.988Z</time>
      </trkpt>
      <trkpt lon="-88.550782" lat="35.283566">
        <ele>1336.87</ele>
        <time>2025-12-28T17:58:05.472Z</time>
      </trkpt>
      <trkpt lon="-88.532849" lat="35.290212">
        <ele>1341.1</ele>
        <time>2025-12-28T17:58:35.984Z</time>
      </trkpt>
      <trkpt lon="-88.514388" lat="35.295863">
        <ele>1343.67</ele>
        <time>2025-12-28T17:59:06.568Z</time>
      </trkpt>
      <trkpt lon="-88.495588" lat="35.300459">
        <ele>1348.92</ele>
        <time>2025-12-28T17:59:36.988Z</time>
      </trkpt>
      <trkpt lon="-88.476351" lat="35.304046">
        <ele>1352.8</ele>
        <time>2025-12-28T18:00:07.504Z</time>
      </trkpt>
      <trkpt lon="-88.456846" lat="35.306585">
        <ele>1359.12</ele>
        <time>2025-12-28T18:00:38.060Z</time>
      </trkpt>
      <trkpt lon="-88.437219" lat="35.308060">
        <ele>1364.02</ele>
        <time>2025-12-28T18:01:08.588Z</time>
      </trkpt>
      <trkpt lon="-88.417588" lat="35.308485">
        <ele>1369.66</ele>
        <time>2025-12-28T18:01:39.048Z</time>
      </trkpt>
      <trkpt lon="-88.397915" lat="35.308787">
        <ele>1371.46</ele>
        <time>2025-12-28T18:02:09.608Z</time>
      </trkpt>
      <trkpt lon="-88.378208" lat="35.309403">
        <ele>1375.02</ele>
        <time>2025-12-28T18:02:40.180Z</time>
      </trkpt>
      <trkpt lon="-88.358552" lat="35.310334">
        <ele>1380.97</ele>
        <time>2025-12-28T18:03:10.696Z</time>
      </trkpt>
      <trkpt lon="-88.338931" lat="35.311577">
        <ele>1386.44</ele>
        <time>2025-12-28T18:03:41.224Z</time>
      </trkpt>
      <trkpt lon="-88.319389" lat="35.313128">
        <ele>1391.1</ele>
        <time>2025-12-28T18:04:11.644Z</time>
      </trkpt>
      <trkpt lon="-88.299883" lat="35.314992">
        <ele>1398.38</ele>
        <time>2025-12-28T18:04:42.084Z</time>
      </trkpt>
      <trkpt lon="-88.280295" lat="35.317182">
        <ele>1402.62</ele>
        <time>2025-12-28T18:05:12.676Z</time>
      </trkpt>
      <trkpt lon="-88.260793" lat="35.319689">
        <ele>1408.13</ele>
        <time>2025-12-28T18:05:43.232Z</time>
      </trkpt>
      <trkpt lon="-88.241353" lat="35.322502">
        <ele>1412.88</ele>
        <time>2025-12-28T18:06:13.752Z</time>
      </trkpt>
      <trkpt lon="-88.222345" lat="35.325565">
        <ele>1417.73</ele>
        <time>2025-12-28T18:06:43.756Z</time>
      </trkpt>
      <trkpt lon="-88.203084" lat="35.328985">
        <ele>1422.53</ele>
        <time>2025-12-28T18:07:14.312Z</time>
      </trkpt>
      <trkpt lon="-88.183940" lat="35.332708">
        <ele>1429.22</ele>
        <time>2025-12-28T18:07:44.772Z</time>
      </trkpt>
      <trkpt lon="-88.164847" lat="35.336411">
        <ele>1433.71</ele>
        <time>2025-12-28T18:08:15.164Z</time>
      </trkpt>
      <trkpt lon="-88.145339" lat="35.339157">
        <ele>1438.71</ele>
        <time>2025-12-28T18:08:45.768Z</time>
      </trkpt>
      <trkpt lon="-88.125751" lat="35.340836">
        <ele>1445.62</ele>
        <time>2025-12-28T18:09:16.264Z</time>
      </trkpt>
      <trkpt lon="-88.106088" lat="35.341477">
        <ele>1448.71</ele>
        <time>2025-12-28T18:09:46.728Z</time>
      </trkpt>
      <trkpt lon="-88.086445" lat="35.341989">
        <ele>1454.56</ele>
        <time>2025-12-28T18:10:17.220Z</time>
      </trkpt>
      <trkpt lon="-88.066772" lat="35.342822">
        <ele>1457.07</ele>
        <time>2025-12-28T18:10:47.756Z</time>
      </trkpt>
      <trkpt lon="-88.047168" lat="35.343968">
        <ele>1466.7</ele>
        <time>2025-12-28T18:11:18.232Z</time>
      </trkpt>
      <trkpt lon="-88.027622" lat="35.345428">
        <ele>1474.68</ele>
        <time>2025-12-28T18:11:48.652Z</time>
      </trkpt>
      <trkpt lon="-88.008029" lat="35.347209">
        <ele>1483.25</ele>
        <time>2025-12-28T18:12:19.180Z</time>
      </trkpt>
      <trkpt lon="-87.988428" lat="35.349306">
        <ele>1489.51</ele>
        <time>2025-12-28T18:12:49.796Z</time>
      </trkpt>
      <trkpt lon="-87.968909" lat="35.351731">
        <ele>1492.65</ele>
        <time>2025-12-28T18:13:20.288Z</time>
      </trkpt>
      <trkpt lon="-87.949403" lat="35.354501">
        <ele>1498.6</ele>
        <time>2025-12-28T18:13:50.876Z</time>
      </trkpt>
      <trkpt lon="-87.930028" lat="35.357596">
        <ele>1506.77</ele>
        <time>2025-12-28T18:14:21.392Z</time>
      </trkpt>
      <trkpt lon="-87.910749" lat="35.361019">
        <ele>1508.77</ele>
        <time>2025-12-28T18:14:51.916Z</time>
      </trkpt>
      <trkpt lon="-87.891563" lat="35.364759">
        <ele>1516.5</ele>
        <time>2025-12-28T18:15:22.436Z</time>
      </trkpt>
      <trkpt lon="-87.872732" lat="35.368735">
        <ele>1520.51</ele>
        <time>2025-12-28T18:15:52.516Z</time>
      </trkpt>
      <trkpt lon="-87.853731" lat="35.373074">
        <ele>1521.46</ele>
        <time>2025-12-28T18:16:23.040Z</time>
      </trkpt>
      <trkpt lon="-87.834833" lat="35.377738">
        <ele>1521.79</ele>
        <time>2025-12-28T18:16:53.548Z</time>
      </trkpt>
      <trkpt lon="-87.816065" lat="35.382692">
        <ele>1526.88</ele>
        <time>2025-12-28T18:17:24.056Z</time>
      </trkpt>
      <trkpt lon="-87.797360" lat="35.387965">
        <ele>1534.35</ele>
        <time>2025-12-28T18:17:54.600Z</time>
      </trkpt>
      <trkpt lon="-87.778902" lat="35.393495">
        <ele>1536.83</ele>
        <time>2025-12-28T18:18:25.000Z</time>
      </trkpt>
      <trkpt lon="-87.760554" lat="35.399328">
        <ele>1542.58</ele>
        <time>2025-12-28T18:18:55.460Z</time>
      </trkpt>
      <trkpt lon="-87.742115" lat="35.405088">
        <ele>1548.04</ele>
        <time>2025-12-28T18:19:25.992Z</time>
      </trkpt>
      <trkpt lon="-87.723285" lat="35.409866">
        <ele>1554.47</ele>
        <time>2025-12-28T18:19:56.436Z</time>
      </trkpt>
      <trkpt lon="-87.704014" lat="35.413635">
        <ele>1559.83</ele>
        <time>2025-12-28T18:20:26.944Z</time>
      </trkpt>
      <trkpt lon="-87.684447" lat="35.416348">
        <ele>1562.96</ele>
        <time>2025-12-28T18:20:57.584Z</time>
      </trkpt>
      <trkpt lon="-87.664883" lat="35.417974">
        <ele>1564.71</ele>
        <time>2025-12-28T18:21:27.936Z</time>
      </trkpt>
      <trkpt lon="-87.645187" lat="35.418540">
        <ele>1571.57</ele>
        <time>2025-12-28T18:21:58.408Z</time>
      </trkpt>
      <trkpt lon="-87.625501" lat="35.418029">
        <ele>1577.73</ele>
        <time>2025-12-28T18:22:28.920Z</time>
      </trkpt>
      <trkpt lon="-87.606068" lat="35.416466">
        <ele>1586.83</ele>
        <time>2025-12-28T18:22:59.328Z</time>
      </trkpt>
      <trkpt lon="-87.586747" lat="35.413839">
        <ele>1590.65</ele>
        <time>2025-12-28T18:23:29.860Z</time>
      </trkpt>
      <trkpt lon="-87.567691" lat="35.410175">
        <ele>1593.59</ele>
        <time>2025-12-28T18:24:00.400Z</time>
      </trkpt>
      <trkpt lon="-87.548888" lat="35.405986">
        <ele>1596.05</ele>
        <time>2025-12-28T18:24:30.900Z</time>
      </trkpt>
      <trkpt lon="-87.529951" lat="35.402099">
        <ele>1599.35</ele>
        <time>2025-12-28T18:25:01.508Z</time>
      </trkpt>
      <trkpt lon="-87.510972" lat="35.398559">
        <ele>1596.15</ele>
        <time>2025-12-28T18:25:32.064Z</time>
      </trkpt>
      <trkpt lon="-87.491826" lat="35.395336">
        <ele>1604.93</ele>
        <time>2025-12-28T18:26:02.640Z</time>
      </trkpt>
      <trkpt lon="-87.472626" lat="35.392438">
        <ele>1610.59</ele>
        <time>2025-12-28T18:26:33.164Z</time>
      </trkpt>
      <trkpt lon="-87.453350" lat="35.389857">
        <ele>1609.78</ele>
        <time>2025-12-28T18:27:03.680Z</time>
      </trkpt>
      <trkpt lon="-87.433988" lat="35.387595">
        <ele>1613.02</ele>
        <time>2025-12-28T18:27:34.180Z</time>
      </trkpt>
      <trkpt lon="-87.414490" lat="35.385664">
        <ele>1617.58</ele>
        <time>2025-12-28T18:28:04.736Z</time>
      </trkpt>
      <trkpt lon="-87.399806" lat="35.384993">
        <ele>1618.9</ele>
        <time>2025-12-28T18:28:27.616Z</time>
      </trkpt>
      <trkpt lon="-87.385081" lat="35.385291">
        <ele>1622</ele>
        <time>2025-12-28T18:28:50.508Z</time>
      </trkpt>
      <trkpt lon="-87.370420" lat="35.386552">
        <ele>1628.12</ele>
        <time>2025-12-28T18:29:13.368Z</time>
      </trkpt>
      <trkpt lon="-87.356289" lat="35.388698">
        <ele>1629.17</ele>
        <time>2025-12-28T18:29:35.648Z</time>
      </trkpt>
      <trkpt lon="-87.342012" lat="35.391842">
        <ele>1632.7</ele>
        <time>2025-12-28T18:29:58.572Z</time>
      </trkpt>
      <trkpt lon="-87.328486" lat="35.395777">
        <ele>1636.41</ele>
        <time>2025-12-28T18:30:20.812Z</time>
      </trkpt>
      <trkpt lon="-87.314642" lat="35.400856">
        <ele>1641.47</ele>
        <time>2025-12-28T18:30:44.336Z</time>
      </trkpt>
      <trkpt lon="-87.302457" lat="35.406310">
        <ele>1646.13</ele>
        <time>2025-12-28T18:31:05.916Z</time>
      </trkpt>
      <trkpt lon="-87.285737" lat="35.414764">
        <ele>1649.87</ele>
        <time>2025-12-28T18:31:36.436Z</time>
      </trkpt>
      <trkpt lon="-87.269268" lat="35.423482">
        <ele>1655.28</ele>
        <time>2025-12-28T18:32:06.928Z</time>
      </trkpt>
      <trkpt lon="-87.252993" lat="35.432478">
        <ele>1659.89</ele>
        <time>2025-12-28T18:32:37.420Z</time>
      </trkpt>
      <trkpt lon="-87.236874" lat="35.441768">
        <ele>1664.66</ele>
        <time>2025-12-28T18:33:08.048Z</time>
      </trkpt>
      <trkpt lon="-87.221034" lat="35.451251">
        <ele>1666.81</ele>
        <time>2025-12-28T18:33:38.540Z</time>
      </trkpt>
      <trkpt lon="-87.205377" lat="35.461046">
        <ele>1670.73</ele>
        <time>2025-12-28T18:34:09.080Z</time>
      </trkpt>
      <trkpt lon="-87.190216" lat="35.470819">
        <ele>1674.7</ele>
        <time>2025-12-28T18:34:39.100Z</time>
      </trkpt>
      <trkpt lon="-87.174282" lat="35.480272">
        <ele>1678.3</ele>
        <time>2025-12-28T18:35:09.624Z</time>
      </trkpt>
      <trkpt lon="-87.157604" lat="35.488852">
        <ele>1681.9</ele>
        <time>2025-12-28T18:35:40.048Z</time>
      </trkpt>
      <trkpt lon="-87.140139" lat="35.496576">
        <ele>1684.15</ele>
        <time>2025-12-28T18:36:10.592Z</time>
      </trkpt>
      <trkpt lon="-87.122107" lat="35.503336">
        <ele>1688.44</ele>
        <time>2025-12-28T18:36:41.124Z</time>
      </trkpt>
      <trkpt lon="-87.103583" lat="35.509096">
        <ele>1691.01</ele>
        <time>2025-12-28T18:37:11.656Z</time>
      </trkpt>
      <trkpt lon="-87.084660" lat="35.513839">
        <ele>1696.09</ele>
        <time>2025-12-28T18:37:42.212Z</time>
      </trkpt>
      <trkpt lon="-87.072642" lat="35.516142">
        <ele>1699.14</ele>
        <time>2025-12-28T18:38:01.264Z</time>
      </trkpt>
      <trkpt lon="-87.062109" lat="35.517387">
        <ele>1703.4</ele>
        <time>2025-12-28T18:38:17.744Z</time>
      </trkpt>
      <trkpt lon="-87.051867" lat="35.517910">
        <ele>1706.96</ele>
        <time>2025-12-28T18:38:33.648Z</time>
      </trkpt>
      <trkpt lon="-87.042035" lat="35.517781">
        <ele>1711.32</ele>
        <time>2025-12-28T18:38:48.920Z</time>
      </trkpt>
      <trkpt lon="-87.031901" lat="35.516996">
        <ele>1715.34</ele>
        <time>2025-12-28T18:39:04.808Z</time>
      </trkpt>
      <trkpt lon="-87.021914" lat="35.515557">
        <ele>1718.3</ele>
        <time>2025-12-28T18:39:20.664Z</time>
      </trkpt>
      <trkpt lon="-87.012050" lat="35.513457">
        <ele>1721.41</ele>
        <time>2025-12-28T18:39:36.624Z</time>
      </trkpt>
      <trkpt lon="-87.002175" lat="35.510643">
        <ele>1723.99</ele>
        <time>2025-12-28T18:39:53.128Z</time>
      </trkpt>
      <trkpt lon="-86.993373" lat="35.507470">
        <ele>1722.43</ele>
        <time>2025-12-28T18:40:08.408Z</time>
      </trkpt>
      <trkpt lon="-86.983988" lat="35.503298">
        <ele>1723.71</ele>
        <time>2025-12-28T18:40:25.496Z</time>
      </trkpt>
      <trkpt lon="-86.975425" lat="35.498668">
        <ele>1723.8</ele>
        <time>2025-12-28T18:40:42.056Z</time>
      </trkpt>
      <trkpt lon="-86.967730" lat="35.493695">
        <ele>1725.29</ele>
        <time>2025-12-28T18:40:57.976Z</time>
      </trkpt>
      <trkpt lon="-86.960605" lat="35.488241">
        <ele>1729.66</ele>
        <time>2025-12-28T18:41:13.936Z</time>
      </trkpt>
      <trkpt lon="-86.954149" lat="35.482387">
        <ele>1732.12</ele>
        <time>2025-12-28T18:41:29.848Z</time>
      </trkpt>
      <trkpt lon="-86.948608" lat="35.476429">
        <ele>1734</ele>
        <time>2025-12-28T18:41:45.104Z</time>
      </trkpt>
      <trkpt lon="-86.943357" lat="35.469632">
        <ele>1735.9</ele>
        <time>2025-12-28T18:42:01.616Z</time>
      </trkpt>
      <trkpt lon="-86.939102" lat="35.462866">
        <ele>1738.17</ele>
        <time>2025-12-28T18:42:17.416Z</time>
      </trkpt>
      <trkpt lon="-86.938074" lat="35.460948">
        <ele>1740.44</ele>
        <time>2025-12-28T18:42:21.888Z</time>
      </trkpt>
      <trkpt lon="-86.937875" lat="35.460425">
        <ele>1738.1</ele>
        <time>2025-12-28T18:42:23.168Z</time>
      </trkpt>
      <trkpt lon="-86.937739" lat="35.459912">
        <ele>1734.95</ele>
        <time>2025-12-28T18:42:24.440Z</time>
      </trkpt>
      <trkpt lon="-86.937604" lat="35.458905">
        <ele>1729.91</ele>
        <time>2025-12-28T18:42:27.000Z</time>
      </trkpt>
      <trkpt lon="-86.937597" lat="35.458434">
        <ele>1727.98</ele>
        <time>2025-12-28T18:42:28.264Z</time>
      </trkpt>
      <trkpt lon="-86.937644" lat="35.457977">
        <ele>1725.55</ele>
        <time>2025-12-28T18:42:29.544Z</time>
      </trkpt>
      <trkpt lon="-86.937755" lat="35.457541">
        <ele>1722.55</ele>
        <time>2025-12-28T18:42:30.832Z</time>
      </trkpt>
      <trkpt lon="-86.937921" lat="35.457136">
        <ele>1719.26</ele>
        <time>2025-12-28T18:42:32.096Z</time>
      </trkpt>
      <trkpt lon="-86.938133" lat="35.456755">
        <ele>1715.86</ele>
        <time>2025-12-28T18:42:33.368Z</time>
      </trkpt>
      <trkpt lon="-86.938388" lat="35.456402">
        <ele>1712.05</ele>
        <time>2025-12-28T18:42:34.656Z</time>
      </trkpt>
      <trkpt lon="-86.938685" lat="35.456086">
        <ele>1707.73</ele>
        <time>2025-12-28T18:42:35.928Z</time>
      </trkpt>
      <trkpt lon="-86.939185" lat="35.455668">
        <ele>1701.21</ele>
        <time>2025-12-28T18:42:37.840Z</time>
      </trkpt>
      <trkpt lon="-86.940268" lat="35.454936">
        <ele>1689.17</ele>
        <time>2025-12-28T18:42:41.680Z</time>
      </trkpt>
      <trkpt lon="-86.940447" lat="35.454815">
        <ele>1686.92</ele>
        <time>2025-12-28T18:42:42.320Z</time>
      </trkpt>
      <trkpt lon="-86.941729" lat="35.454079">
        <ele>1660.45</ele>
        <time>2025-12-28T18:42:46.776Z</time>
      </trkpt>
      <trkpt lon="-86.942519" lat="35.453786">
        <ele>1640.21</ele>
        <time>2025-12-28T18:42:49.288Z</time>
      </trkpt>
      <trkpt lon="-86.943136" lat="35.453631">
        <ele>1620.96</ele>
        <time>2025-12-28T18:42:51.192Z</time>
      </trkpt>
      <trkpt lon="-86.943991" lat="35.453501">
        <ele>1590.73</ele>
        <time>2025-12-28T18:42:53.744Z</time>
      </trkpt>
      <trkpt lon="-86.945119" lat="35.453437">
        <ele>1550.63</ele>
        <time>2025-12-28T18:42:56.912Z</time>
      </trkpt>
      <trkpt lon="-86.946052" lat="35.453477">
        <ele>1521.1</ele>
        <time>2025-12-28T18:42:59.456Z</time>
      </trkpt>
      <trkpt lon="-86.946973" lat="35.453613">
        <ele>1495.12</ele>
        <time>2025-12-28T18:43:01.984Z</time>
      </trkpt>
      <trkpt lon="-86.947869" lat="35.453833">
        <ele>1471.08</ele>
        <time>2025-12-28T18:43:04.520Z</time>
      </trkpt>
      <trkpt lon="-86.948719" lat="35.454128">
        <ele>1448.9</ele>
        <time>2025-12-28T18:43:07.072Z</time>
      </trkpt>
      <trkpt lon="-86.949513" lat="35.454493">
        <ele>1427.37</ele>
        <time>2025-12-28T18:43:09.608Z</time>
      </trkpt>
      <trkpt lon="-86.951708" lat="35.455729">
        <ele>1354.62</ele>
        <time>2025-12-28T18:43:17.216Z</time>
      </trkpt>
      <trkpt lon="-86.952304" lat="35.455957">
        <ele>1335.48</ele>
        <time>2025-12-28T18:43:19.120Z</time>
      </trkpt>
      <trkpt lon="-86.952711" lat="35.456071">
        <ele>1323.08</ele>
        <time>2025-12-28T18:43:20.368Z</time>
      </trkpt>
      <trkpt lon="-86.953133" lat="35.456151">
        <ele>1310.79</ele>
        <time>2025-12-28T18:43:21.640Z</time>
      </trkpt>
      <trkpt lon="-86.953558" lat="35.456191">
        <ele>1298.94</ele>
        <time>2025-12-28T18:43:22.912Z</time>
      </trkpt>
      <trkpt lon="-86.953989" lat="35.456187">
        <ele>1287.21</ele>
        <time>2025-12-28T18:43:24.200Z</time>
      </trkpt>
      <trkpt lon="-86.954402" lat="35.456138">
        <ele>1275.9</ele>
        <time>2025-12-28T18:43:25.464Z</time>
      </trkpt>
      <trkpt lon="-86.954796" lat="35.456040">
        <ele>1264.71</ele>
        <time>2025-12-28T18:43:26.728Z</time>
      </trkpt>
      <trkpt lon="-86.955168" lat="35.455895">
        <ele>1253.7</ele>
        <time>2025-12-28T18:43:27.984Z</time>
      </trkpt>
      <trkpt lon="-86.955688" lat="35.455601">
        <ele>1238.67</ele>
        <time>2025-12-28T18:43:29.904Z</time>
      </trkpt>
      <trkpt lon="-86.956753" lat="35.454854">
        <ele>1212.37</ele>
        <time>2025-12-28T18:43:34.336Z</time>
      </trkpt>
      <trkpt lon="-86.957080" lat="35.454694">
        <ele>1204.76</ele>
        <time>2025-12-28T18:43:35.616Z</time>
      </trkpt>
      <trkpt lon="-86.957417" lat="35.454581">
        <ele>1195.9</ele>
        <time>2025-12-28T18:43:36.880Z</time>
      </trkpt>
      <trkpt lon="-86.957769" lat="35.454511">
        <ele>1185.43</ele>
        <time>2025-12-28T18:43:38.144Z</time>
      </trkpt>
      <trkpt lon="-86.958143" lat="35.454486">
        <ele>1173.55</ele>
        <time>2025-12-28T18:43:39.432Z</time>
      </trkpt>
      <trkpt lon="-86.958701" lat="35.454570">
        <ele>1149.79</ele>
        <time>2025-12-28T18:43:41.352Z</time>
      </trkpt>
      <trkpt lon="-86.958872" lat="35.454630">
        <ele>1137.03</ele>
        <time>2025-12-28T18:43:41.984Z</time>
      </trkpt>
      <trkpt lon="-86.959034" lat="35.454708">
        <ele>1121.85</ele>
        <time>2025-12-28T18:43:42.632Z</time>
      </trkpt>
      <trkpt lon="-86.959185" lat="35.454805">
        <ele>1104.9</ele>
        <time>2025-12-28T18:43:43.272Z</time>
      </trkpt>
      <trkpt lon="-86.959471" lat="35.455065">
        <ele>1065.47</ele>
        <time>2025-12-28T18:43:44.544Z</time>
      </trkpt>
      <trkpt lon="-86.959595" lat="35.455221">
        <ele>1043.89</ele>
        <time>2025-12-28T18:43:45.184Z</time>
      </trkpt>
      <trkpt lon="-86.959699" lat="35.455397">
        <ele>1021.11</ele>
        <time>2025-12-28T18:43:45.832Z</time>
      </trkpt>
      <trkpt lon="-86.959776" lat="35.455599">
        <ele>997.185</ele>
        <time>2025-12-28T18:43:46.472Z</time>
      </trkpt>
      <trkpt lon="-86.959815" lat="35.455829">
        <ele>972.133</ele>
        <time>2025-12-28T18:43:47.128Z</time>
      </trkpt>
      <trkpt lon="-86.959808" lat="35.456073">
        <ele>947.24</ele>
        <time>2025-12-28T18:43:47.768Z</time>
      </trkpt>
      <trkpt lon="-86.959752" lat="35.456326">
        <ele>922.454</ele>
        <time>2025-12-28T18:43:48.400Z</time>
      </trkpt>
      <trkpt lon="-86.959648" lat="35.456582">
        <ele>897.876</ele>
        <time>2025-12-28T18:43:49.032Z</time>
      </trkpt>
      <trkpt lon="-86.959491" lat="35.456838">
        <ele>873.268</ele>
        <time>2025-12-28T18:43:49.656Z</time>
      </trkpt>
      <trkpt lon="-86.959271" lat="35.457096">
        <ele>848.104</ele>
        <time>2025-12-28T18:43:50.296Z</time>
      </trkpt>
      <trkpt lon="-86.958985" lat="35.457350">
        <ele>822.901</ele>
        <time>2025-12-28T18:43:50.936Z</time>
      </trkpt>
      <trkpt lon="-86.958652" lat="35.457577">
        <ele>799.797</ele>
        <time>2025-12-28T18:43:51.560Z</time>
      </trkpt>
      <trkpt lon="-86.958252" lat="35.457785">
        <ele>777.556</ele>
        <time>2025-12-28T18:43:52.192Z</time>
      </trkpt>
      <trkpt lon="-86.957793" lat="35.457959">
        <ele>757.216</ele>
        <time>2025-12-28T18:43:52.832Z</time>
      </trkpt>
      <trkpt lon="-86.957290" lat="35.458088">
        <ele>739.541</ele>
        <time>2025-12-28T18:43:53.480Z</time>
      </trkpt>
      <trkpt lon="-86.956769" lat="35.458159">
        <ele>725.026</ele>
        <time>2025-12-28T18:43:54.120Z</time>
      </trkpt>
      <trkpt lon="-86.956212" lat="35.458170">
        <ele>712.993</ele>
        <time>2025-12-28T18:43:54.752Z</time>
      </trkpt>
      <trkpt lon="-86.955671" lat="35.458112">
        <ele>704.195</ele>
        <time>2025-12-28T18:43:55.392Z</time>
      </trkpt>
      <trkpt lon="-86.955155" lat="35.457989">
        <ele>698.165</ele>
        <time>2025-12-28T18:43:56.024Z</time>
      </trkpt>
      <trkpt lon="-86.954663" lat="35.457804">
        <ele>694.297</ele>
        <time>2025-12-28T18:43:56.664Z</time>
      </trkpt>
      <trkpt lon="-86.954223" lat="35.457571">
        <ele>692.439</ele>
        <time>2025-12-28T18:43:57.296Z</time>
      </trkpt>
      <trkpt lon="-86.953838" lat="35.457304">
        <ele>691.814</ele>
        <time>2025-12-28T18:43:57.928Z</time>
      </trkpt>
      <trkpt lon="-86.953502" lat="35.457014">
        <ele>691.551</ele>
        <time>2025-12-28T18:43:58.576Z</time>
      </trkpt>
      <trkpt lon="-86.953221" lat="35.456713">
        <ele>690.952</ele>
        <time>2025-12-28T18:43:59.208Z</time>
      </trkpt>
      <trkpt lon="-86.952991" lat="35.456406">
        <ele>689.661</ele>
        <time>2025-12-28T18:43:59.832Z</time>
      </trkpt>
      <trkpt lon="-86.952805" lat="35.456088">
        <ele>687.298</ele>
        <time>2025-12-28T18:44:00.480Z</time>
      </trkpt>
      <trkpt lon="-86.952664" lat="35.455777">
        <ele>683.752</ele>
        <time>2025-12-28T18:44:01.104Z</time>
      </trkpt>
      <trkpt lon="-86.952559" lat="35.455463">
        <ele>679.759</ele>
        <time>2025-12-28T18:44:01.752Z</time>
      </trkpt>
      <trkpt lon="-86.952435" lat="35.454850">
        <ele>672.891</ele>
        <time>2025-12-28T18:44:03.032Z</time>
      </trkpt>
      <trkpt lon="-86.952386" lat="35.454272">
        <ele>666.133</ele>
        <time>2025-12-28T18:44:04.312Z</time>
      </trkpt>
      <trkpt lon="-86.952382" lat="35.454000">
        <ele>662.414</ele>
        <time>2025-12-28T18:44:04.936Z</time>
      </trkpt>
      <trkpt lon="-86.952408" lat="35.452917">
        <ele>649.576</ele>
        <time>2025-12-28T18:44:07.504Z</time>
      </trkpt>
      <trkpt lon="-86.952457" lat="35.452652">
        <ele>645.425</ele>
        <time>2025-12-28T18:44:08.168Z</time>
      </trkpt>
      <trkpt lon="-86.952540" lat="35.452411">
        <ele>640.819</ele>
        <time>2025-12-28T18:44:08.800Z</time>
      </trkpt>
      <trkpt lon="-86.952654" lat="35.452181">
        <ele>635.419</ele>
        <time>2025-12-28T18:44:09.448Z</time>
      </trkpt>
      <trkpt lon="-86.952797" lat="35.451964">
        <ele>629.105</ele>
        <time>2025-12-28T18:44:10.080Z</time>
      </trkpt>
      <trkpt lon="-86.952965" lat="35.451765">
        <ele>622.076</ele>
        <time>2025-12-28T18:44:10.704Z</time>
      </trkpt>
      <trkpt lon="-86.953164" lat="35.451581">
        <ele>614.292</ele>
        <time>2025-12-28T18:44:11.352Z</time>
      </trkpt>
      <trkpt lon="-86.953391" lat="35.451423">
        <ele>606.097</ele>
        <time>2025-12-28T18:44:11.992Z</time>
      </trkpt>
      <trkpt lon="-86.953650" lat="35.451290">
        <ele>597.14</ele>
        <time>2025-12-28T18:44:12.632Z</time>
      </trkpt>
      <trkpt lon="-86.953921" lat="35.451192">
        <ele>587.97</ele>
        <time>2025-12-28T18:44:13.256Z</time>
      </trkpt>
      <trkpt lon="-86.954222" lat="35.451125">
        <ele>578.005</ele>
        <time>2025-12-28T18:44:13.912Z</time>
      </trkpt>
      <trkpt lon="-86.954538" lat="35.451096">
        <ele>567.678</ele>
        <time>2025-12-28T18:44:14.552Z</time>
      </trkpt>
      <trkpt lon="-86.954855" lat="35.451104">
        <ele>557.353</ele>
        <time>2025-12-28T18:44:15.184Z</time>
      </trkpt>
      <trkpt lon="-86.955171" lat="35.451150">
        <ele>547.193</ele>
        <time>2025-12-28T18:44:15.824Z</time>
      </trkpt>
      <trkpt lon="-86.955482" lat="35.451233">
        <ele>537.312</ele>
        <time>2025-12-28T18:44:16.456Z</time>
      </trkpt>
      <trkpt lon="-86.955795" lat="35.451358">
        <ele>527.461</ele>
        <time>2025-12-28T18:44:17.088Z</time>
      </trkpt>
      <trkpt lon="-86.956085" lat="35.451519">
        <ele>518.3</ele>
        <time>2025-12-28T18:44:17.736Z</time>
      </trkpt>
      <trkpt lon="-86.956352" lat="35.451716">
        <ele>509.637</ele>
        <time>2025-12-28T18:44:18.392Z</time>
      </trkpt>
      <trkpt lon="-86.956592" lat="35.451949">
        <ele>501.328</ele>
        <time>2025-12-28T18:44:19.024Z</time>
      </trkpt>
      <trkpt lon="-86.956789" lat="35.452204">
        <ele>493.579</ele>
        <time>2025-12-28T18:44:19.672Z</time>
      </trkpt>
      <trkpt lon="-86.956934" lat="35.452460">
        <ele>486.624</ele>
        <time>2025-12-28T18:44:20.296Z</time>
      </trkpt>
      <trkpt lon="-86.957045" lat="35.452742">
        <ele>479.516</ele>
        <time>2025-12-28T18:44:20.928Z</time>
      </trkpt>
      <trkpt lon="-86.957112" lat="35.453033">
        <ele>471.569</ele>
        <time>2025-12-28T18:44:21.576Z</time>
      </trkpt>
      <trkpt lon="-86.957143" lat="35.453310">
        <ele>463.847</ele>
        <time>2025-12-28T18:44:22.200Z</time>
      </trkpt>
      <trkpt lon="-86.957141" lat="35.453861">
        <ele>449.264</ele>
        <time>2025-12-28T18:44:23.464Z</time>
      </trkpt>
      <trkpt lon="-86.957119" lat="35.454654">
        <ele>431.99</ele>
        <time>2025-12-28T18:44:25.360Z</time>
      </trkpt>
      <trkpt lon="-86.957251" lat="35.455620">
        <ele>402.023</ele>
        <time>2025-12-28T18:44:27.928Z</time>
      </trkpt>
      <trkpt lon="-86.957370" lat="35.456346">
        <ele>371.579</ele>
        <time>2025-12-28T18:44:29.872Z</time>
      </trkpt>
      <trkpt lon="-86.957391" lat="35.457072">
        <ele>347.778</ele>
        <time>2025-12-28T18:44:31.760Z</time>
      </trkpt>
      <trkpt lon="-86.957311" lat="35.458489">
        <ele>329.304</ele>
        <time>2025-12-28T18:44:35.600Z</time>
      </trkpt>
      <trkpt lon="-86.957276" lat="35.458709">
        <ele>325.586</ele>
        <time>2025-12-28T18:44:36.232Z</time>
      </trkpt>
      <trkpt lon="-86.957221" lat="35.458938">
        <ele>321.804</ele>
        <time>2025-12-28T18:44:36.896Z</time>
      </trkpt>
      <trkpt lon="-86.957144" lat="35.459156">
        <ele>318.375</ele>
        <time>2025-12-28T18:44:37.528Z</time>
      </trkpt>
      <trkpt lon="-86.956914" lat="35.459569">
        <ele>312.999</ele>
        <time>2025-12-28T18:44:38.784Z</time>
      </trkpt>
      <trkpt lon="-86.956767" lat="35.459772">
        <ele>313.336</ele>
        <time>2025-12-28T18:44:39.448Z</time>
      </trkpt>
      <trkpt lon="-86.956632" lat="35.459975">
        <ele>316.612</ele>
        <time>2025-12-28T18:44:40.088Z</time>
      </trkpt>
      <trkpt lon="-86.956543" lat="35.460173">
        <ele>320.591</ele>
        <time>2025-12-28T18:44:40.712Z</time>
      </trkpt>
      <trkpt lon="-86.956504" lat="35.460380">
        <ele>324.392</ele>
        <time>2025-12-28T18:44:41.360Z</time>
      </trkpt>
      <trkpt lon="-86.956519" lat="35.460578">
        <ele>326.846</ele>
        <time>2025-12-28T18:44:42.000Z</time>
      </trkpt>
      <trkpt lon="-86.956581" lat="35.460770">
        <ele>328.083</ele>
        <time>2025-12-28T18:44:42.664Z</time>
      </trkpt>
      <trkpt lon="-86.956673" lat="35.460950">
        <ele>328.961</ele>
        <time>2025-12-28T18:44:43.304Z</time>
      </trkpt>
      <trkpt lon="-86.957208" lat="35.461632">
        <ele>340.643</ele>
        <time>2025-12-28T18:44:45.864Z</time>
      </trkpt>
      <trkpt lon="-86.957410" lat="35.461766">
        <ele>346.189</ele>
        <time>2025-12-28T18:44:46.520Z</time>
      </trkpt>
      <trkpt lon="-86.957633" lat="35.461868">
        <ele>352.122</ele>
        <time>2025-12-28T18:44:47.160Z</time>
      </trkpt>
      <trkpt lon="-86.957865" lat="35.461938">
        <ele>358.595</ele>
        <time>2025-12-28T18:44:47.792Z</time>
      </trkpt>
      <trkpt lon="-86.958361" lat="35.461969">
        <ele>371.444</ele>
        <time>2025-12-28T18:44:49.064Z</time>
      </trkpt>
      <trkpt lon="-86.958618" lat="35.461929">
        <ele>376.373</ele>
        <time>2025-12-28T18:44:49.696Z</time>
      </trkpt>
      <trkpt lon="-86.958874" lat="35.461851">
        <ele>379.043</ele>
        <time>2025-12-28T18:44:50.336Z</time>
      </trkpt>
      <trkpt lon="-86.959127" lat="35.461725">
        <ele>380.087</ele>
        <time>2025-12-28T18:44:51.000Z</time>
      </trkpt>
      <trkpt lon="-86.959344" lat="35.461561">
        <ele>380.069</ele>
        <time>2025-12-28T18:44:51.632Z</time>
      </trkpt>
      <trkpt lon="-86.959523" lat="35.461362">
        <ele>379.709</ele>
        <time>2025-12-28T18:44:52.256Z</time>
      </trkpt>
      <trkpt lon="-86.959658" lat="35.461134">
        <ele>379.207</ele>
        <time>2025-12-28T18:44:52.904Z</time>
      </trkpt>
      <trkpt lon="-86.959744" lat="35.460883">
        <ele>378.668</ele>
        <time>2025-12-28T18:44:53.552Z</time>
      </trkpt>
      <trkpt lon="-86.959771" lat="35.460628">
        <ele>378.293</ele>
        <time>2025-12-28T18:44:54.168Z</time>
      </trkpt>
      <trkpt lon="-86.959741" lat="35.460365">
        <ele>378.09</ele>
        <time>2025-12-28T18:44:54.824Z</time>
      </trkpt>
      <trkpt lon="-86.959661" lat="35.460116">
        <ele>377.897</ele>
        <time>2025-12-28T18:44:55.456Z</time>
      </trkpt>
      <trkpt lon="-86.959228" lat="35.459479">
        <ele>370.982</ele>
        <time>2025-12-28T18:44:57.360Z</time>
      </trkpt>
      <trkpt lon="-86.958544" lat="35.458784">
        <ele>342.596</ele>
        <time>2025-12-28T18:44:59.880Z</time>
      </trkpt>
      <trkpt lon="-86.957964" lat="35.458324">
        <ele>318.578</ele>
        <time>2025-12-28T18:45:01.792Z</time>
      </trkpt>
      <trkpt lon="-86.957595" lat="35.457992">
        <ele>307.838</ele>
        <time>2025-12-28T18:45:03.064Z</time>
      </trkpt>
      <trkpt lon="-86.957296" lat="35.457622">
        <ele>299.701</ele>
        <time>2025-12-28T18:45:04.352Z</time>
      </trkpt>
      <trkpt lon="-86.957082" lat="35.457249">
        <ele>293.397</ele>
        <time>2025-12-28T18:45:05.600Z</time>
      </trkpt>
      <trkpt lon="-86.957005" lat="35.457056">
        <ele>291.063</ele>
        <time>2025-12-28T18:45:06.224Z</time>
      </trkpt>
      <trkpt lon="-86.956950" lat="35.456862">
        <ele>289.176</ele>
        <time>2025-12-28T18:45:06.856Z</time>
      </trkpt>
      <trkpt lon="-86.956915" lat="35.456665">
        <ele>287.486</ele>
        <time>2025-12-28T18:45:07.504Z</time>
      </trkpt>
      <trkpt lon="-86.956889" lat="35.456286">
        <ele>282.87</ele>
        <time>2025-12-28T18:45:08.800Z</time>
      </trkpt>
      <trkpt lon="-86.956885" lat="35.456111">
        <ele>279.955</ele>
        <time>2025-12-28T18:45:09.416Z</time>
      </trkpt>
      <trkpt lon="-86.956903" lat="35.455766">
        <ele>272.775</ele>
        <time>2025-12-28T18:45:10.696Z</time>
      </trkpt>
      <trkpt lon="-86.956992" lat="35.454957">
        <ele>270.896</ele>
        <time>2025-12-28T18:45:13.896Z</time>
      </trkpt>
      <trkpt lon="-86.957012" lat="35.454817">
        <ele>267.568</ele>
        <time>2025-12-28T18:45:14.520Z</time>
      </trkpt>
      <trkpt lon="-86.957067" lat="35.454537">
        <ele>260.855</ele>
        <time>2025-12-28T18:45:15.808Z</time>
      </trkpt>
      <trkpt lon="-86.957126" lat="35.454255">
        <ele>255.526</ele>
        <time>2025-12-28T18:45:17.096Z</time>
      </trkpt>
      <trkpt lon="-86.957222" lat="35.453866">
        <ele>254.141</ele>
        <time>2025-12-28T18:45:19.008Z</time>
      </trkpt>
      <trkpt lon="-86.957245" lat="35.453740">
        <ele>253.31</ele>
        <time>2025-12-28T18:45:19.656Z</time>
      </trkpt>
      <trkpt lon="-86.957259" lat="35.453614">
        <ele>251.61</ele>
        <time>2025-12-28T18:45:20.288Z</time>
      </trkpt>
      <trkpt lon="-86.957264" lat="35.453482">
        <ele>248.879</ele>
        <time>2025-12-28T18:45:20.944Z</time>
      </trkpt>
      <trkpt lon="-86.957264" lat="35.453341">
        <ele>245.265</ele>
        <time>2025-12-28T18:45:21.608Z</time>
      </trkpt>
      <trkpt lon="-86.957254" lat="35.453058">
        <ele>238.393</ele>
        <time>2025-12-28T18:45:22.896Z</time>
      </trkpt>
      <trkpt lon="-86.957242" lat="35.452913">
        <ele>236.206</ele>
        <time>2025-12-28T18:45:23.536Z</time>
      </trkpt>
      <trkpt lon="-86.957233" lat="35.452891">
        <ele>236.568</ele>
        <time>2025-12-28T20:21:47.328Z</time>
      </trkpt>
      <trkpt lon="-86.957214" lat="35.452868">
        <ele>236.615</ele>
        <time>2025-12-28T20:21:47.976Z</time>
      </trkpt>
      <trkpt lon="-86.957187" lat="35.452848">
        <ele>236.514</ele>
        <time>2025-12-28T20:21:48.640Z</time>
      </trkpt>
      <trkpt lon="-86.957160" lat="35.452833">
        <ele>236.547</ele>
        <time>2025-12-28T20:21:49.280Z</time>
      </trkpt>
      <trkpt lon="-86.957132" lat="35.452822">
        <ele>236.48</ele>
        <time>2025-12-28T20:21:49.920Z</time>
      </trkpt>
      <trkpt lon="-86.957109" lat="35.452819">
        <ele>236.431</ele>
        <time>2025-12-28T20:21:50.560Z</time>
      </trkpt>
      <trkpt lon="-86.956998" lat="35.452816">
        <ele>235.913</ele>
        <time>2025-12-28T20:21:53.712Z</time>
      </trkpt>
      <trkpt lon="-86.956954" lat="35.452819">
        <ele>235.64</ele>
        <time>2025-12-28T20:22:04.008Z</time>
      </trkpt>
    </trkseg>
    <trkseg>
      <trkpt lon="-90.774475" lat="34.945720">
        <ele>76.4177</ele>
        <time>2025-12-29T14:09:29.596Z</time>
      </trkpt>
      <trkpt lon="-90.774882" lat="34.945882">
        <ele>76.37</ele>
        <time>2025-12-29T14:09:47.188Z</time>
      </trkpt>
      <trkpt lon="-90.774884" lat="34.945813">
        <ele>76.3508</ele>
        <time>2025-12-29T14:10:17.916Z</time>
      </trkpt>
      <trkpt lon="-90.774892" lat="34.945653">
        <ele>76.2926</ele>
        <time>2025-12-29T14:10:28.044Z</time>
      </trkpt>
      <trkpt lon="-90.774892" lat="34.945630">
        <ele>76.3014</ele>
        <time>2025-12-29T14:11:06.356Z</time>
      </trkpt>
      <trkpt lon="-90.774895" lat="34.945529">
        <ele>76.2993</ele>
        <time>2025-12-29T14:11:07.656Z</time>
      </trkpt>
      <trkpt lon="-90.774901" lat="34.945355">
        <ele>76.3088</ele>
        <time>2025-12-29T14:11:08.936Z</time>
      </trkpt>
      <trkpt lon="-90.774888" lat="34.945121">
        <ele>76.4459</ele>
        <time>2025-12-29T14:11:10.212Z</time>
      </trkpt>
      <trkpt lon="-90.774875" lat="34.944982">
        <ele>76.5187</ele>
        <time>2025-12-29T14:11:10.848Z</time>
      </trkpt>
      <trkpt lon="-90.774824" lat="34.944650">
        <ele>76.8876</ele>
        <time>2025-12-29T14:11:12.164Z</time>
      </trkpt>
      <trkpt lon="-90.774803" lat="34.944465">
        <ele>76.9662</ele>
        <time>2025-12-29T14:11:12.808Z</time>
      </trkpt>
      <trkpt lon="-90.774817" lat="34.943848">
        <ele>77.4943</ele>
        <time>2025-12-29T14:11:14.712Z</time>
      </trkpt>
      <trkpt lon="-90.774857" lat="34.943374">
        <ele>78.035</ele>
        <time>2025-12-29T14:11:16.000Z</time>
      </trkpt>
      <trkpt lon="-90.774880" lat="34.943122">
        <ele>78.3034</ele>
        <time>2025-12-29T14:11:16.640Z</time>
      </trkpt>
      <trkpt lon="-90.775002" lat="34.941783">
        <ele>95.4557</ele>
        <time>2025-12-29T14:11:19.856Z</time>
      </trkpt>
      <trkpt lon="-90.775007" lat="34.941513">
        <ele>102.002</ele>
        <time>2025-12-29T14:11:20.500Z</time>
      </trkpt>
      <trkpt lon="-90.774968" lat="34.941258">
        <ele>109.206</ele>
        <time>2025-12-29T14:11:21.124Z</time>
      </trkpt>
      <trkpt lon="-90.774870" lat="34.941006">
        <ele>116.808</ele>
        <time>2025-12-29T14:11:21.772Z</time>
      </trkpt>
      <trkpt lon="-90.774723" lat="34.940770">
        <ele>124.248</ele>
        <time>2025-12-29T14:11:22.408Z</time>
      </trkpt>
      <trkpt lon="-90.774157" lat="34.940144">
        <ele>146.184</ele>
        <time>2025-12-29T14:11:24.336Z</time>
      </trkpt>
      <trkpt lon="-90.773586" lat="34.939557">
        <ele>172.317</ele>
        <time>2025-12-29T14:11:26.260Z</time>
      </trkpt>
      <trkpt lon="-90.773004" lat="34.939020">
        <ele>199.057</ele>
        <time>2025-12-29T14:11:28.180Z</time>
      </trkpt>
      <trkpt lon="-90.772148" lat="34.938323">
        <ele>211.908</ele>
        <time>2025-12-29T14:11:30.724Z</time>
      </trkpt>
      <trkpt lon="-90.770923" lat="34.937372">
        <ele>206.185</ele>
        <time>2025-12-29T14:11:33.880Z</time>
      </trkpt>
      <trkpt lon="-90.768270" lat="34.935342">
        <ele>214.708</ele>
        <time>2025-12-29T14:11:40.244Z</time>
      </trkpt>
      <trkpt lon="-90.767336" lat="34.934587">
        <ele>220.149</ele>
        <time>2025-12-29T14:11:42.356Z</time>
      </trkpt>
      <trkpt lon="-90.766786" lat="34.934068">
        <ele>226.903</ele>
        <time>2025-12-29T14:11:43.656Z</time>
      </trkpt>
      <trkpt lon="-90.766142" lat="34.933244">
        <ele>238.746</ele>
        <time>2025-12-29T14:11:45.556Z</time>
      </trkpt>
      <trkpt lon="-90.765786" lat="34.932599">
        <ele>243.801</ele>
        <time>2025-12-29T14:11:46.916Z</time>
      </trkpt>
      <trkpt lon="-90.765540" lat="34.931954">
        <ele>247.44</ele>
        <time>2025-12-29T14:11:48.192Z</time>
      </trkpt>
      <trkpt lon="-90.764942" lat="34.929599">
        <ele>254.813</ele>
        <time>2025-12-29T14:11:52.648Z</time>
      </trkpt>
      <trkpt lon="-90.764250" lat="34.926771">
        <ele>250.383</ele>
        <time>2025-12-29T14:11:57.752Z</time>
      </trkpt>
      <trkpt lon="-90.764025" lat="34.926044">
        <ele>248.794</ele>
        <time>2025-12-29T14:11:59.020Z</time>
      </trkpt>
      <trkpt lon="-90.763343" lat="34.924295">
        <ele>276.12</ele>
        <time>2025-12-29T14:12:02.224Z</time>
      </trkpt>
      <trkpt lon="-90.763093" lat="34.923660">
        <ele>297.458</ele>
        <time>2025-12-29T14:12:03.484Z</time>
      </trkpt>
      <trkpt lon="-90.762848" lat="34.923073">
        <ele>324.077</ele>
        <time>2025-12-29T14:12:04.752Z</time>
      </trkpt>
      <trkpt lon="-90.762614" lat="34.922549">
        <ele>352.812</ele>
        <time>2025-12-29T14:12:06.008Z</time>
      </trkpt>
      <trkpt lon="-90.762311" lat="34.921898">
        <ele>388.811</ele>
        <time>2025-12-29T14:12:08.084Z</time>
      </trkpt>
      <trkpt lon="-90.762074" lat="34.921421">
        <ele>410.932</ele>
        <time>2025-12-29T14:12:09.352Z</time>
      </trkpt>
      <trkpt lon="-90.761567" lat="34.920487">
        <ele>448.129</ele>
        <time>2025-12-29T14:12:11.944Z</time>
      </trkpt>
      <trkpt lon="-90.760760" lat="34.919047">
        <ele>476.843</ele>
        <time>2025-12-29T14:12:15.804Z</time>
      </trkpt>
      <trkpt lon="-90.760201" lat="34.917934">
        <ele>477.675</ele>
        <time>2025-12-29T14:12:18.348Z</time>
      </trkpt>
      <trkpt lon="-90.758315" lat="34.913884">
        <ele>518.629</ele>
        <time>2025-12-29T14:12:26.624Z</time>
      </trkpt>
      <trkpt lon="-90.757534" lat="34.912433">
        <ele>560.619</ele>
        <time>2025-12-29T14:12:29.808Z</time>
      </trkpt>
      <trkpt lon="-90.756721" lat="34.911127">
        <ele>606.259</ele>
        <time>2025-12-29T14:12:32.964Z</time>
      </trkpt>
      <trkpt lon="-90.755861" lat="34.909906">
        <ele>650.995</ele>
        <time>2025-12-29T14:12:36.164Z</time>
      </trkpt>
      <trkpt lon="-90.754853" lat="34.908506">
        <ele>697.949</ele>
        <time>2025-12-29T14:12:39.984Z</time>
      </trkpt>
      <trkpt lon="-90.753527" lat="34.906590">
        <ele>743.666</ele>
        <time>2025-12-29T14:12:45.080Z</time>
      </trkpt>
      <trkpt lon="-90.751419" lat="34.903446">
        <ele>785.848</ele>
        <time>2025-12-29T14:12:52.748Z</time>
      </trkpt>
      <trkpt lon="-90.750622" lat="34.902303">
        <ele>787.999</ele>
        <time>2025-12-29T14:12:55.296Z</time>
      </trkpt>
      <trkpt lon="-90.749961" lat="34.901387">
        <ele>785.724</ele>
        <time>2025-12-29T14:12:57.216Z</time>
      </trkpt>
      <trkpt lon="-90.749427" lat="34.900775">
        <ele>781.762</ele>
        <time>2025-12-29T14:12:58.492Z</time>
      </trkpt>
      <trkpt lon="-90.748491" lat="34.899873">
        <ele>774.801</ele>
        <time>2025-12-29T14:13:00.396Z</time>
      </trkpt>
      <trkpt lon="-90.747410" lat="34.898999">
        <ele>771.588</ele>
        <time>2025-12-29T14:13:02.300Z</time>
      </trkpt>
      <trkpt lon="-90.745825" lat="34.897917">
        <ele>779.748</ele>
        <time>2025-12-29T14:13:04.836Z</time>
      </trkpt>
      <trkpt lon="-90.744584" lat="34.897195">
        <ele>796.953</ele>
        <time>2025-12-29T14:13:06.728Z</time>
      </trkpt>
      <trkpt lon="-90.743725" lat="34.896800">
        <ele>813.785</ele>
        <time>2025-12-29T14:13:08.004Z</time>
      </trkpt>
      <trkpt lon="-90.742851" lat="34.896524">
        <ele>833.402</ele>
        <time>2025-12-29T14:13:09.280Z</time>
      </trkpt>
      <trkpt lon="-90.741566" lat="34.896281">
        <ele>865.256</ele>
        <time>2025-12-29T14:13:11.208Z</time>
      </trkpt>
      <trkpt lon="-90.739956" lat="34.896148">
        <ele>907.54</ele>
        <time>2025-12-29T14:13:13.756Z</time>
      </trkpt>
      <trkpt lon="-90.737294" lat="34.896135">
        <ele>969.538</ele>
        <time>2025-12-29T14:13:18.200Z</time>
      </trkpt>
      <trkpt lon="-90.734995" lat="34.896085">
        <ele>998.933</ele>
        <time>2025-12-29T14:13:22.088Z</time>
      </trkpt>
      <trkpt lon="-90.733006" lat="34.895882">
        <ele>1004.05</ele>
        <time>2025-12-29T14:13:25.272Z</time>
      </trkpt>
      <trkpt lon="-90.730050" lat="34.895353">
        <ele>1005.65</ele>
        <time>2025-12-29T14:13:29.764Z</time>
      </trkpt>
      <trkpt lon="-90.727483" lat="34.894688">
        <ele>1011.77</ele>
        <time>2025-12-29T14:13:33.568Z</time>
      </trkpt>
      <trkpt lon="-90.725000" lat="34.893821">
        <ele>1032.23</ele>
        <time>2025-12-29T14:13:37.380Z</time>
      </trkpt>
      <trkpt lon="-90.720632" lat="34.892101">
        <ele>1099.41</ele>
        <time>2025-12-29T14:13:44.360Z</time>
      </trkpt>
      <trkpt lon="-90.716310" lat="34.890251">
        <ele>1167.76</ele>
        <time>2025-12-29T14:13:51.388Z</time>
      </trkpt>
      <trkpt lon="-90.710691" lat="34.887727">
        <ele>1237.47</ele>
        <time>2025-12-29T14:14:00.296Z</time>
      </trkpt>
      <trkpt lon="-90.707483" lat="34.886411">
        <ele>1292.79</ele>
        <time>2025-12-29T14:14:05.372Z</time>
      </trkpt>
      <trkpt lon="-90.705232" lat="34.885609">
        <ele>1346.29</ele>
        <time>2025-12-29T14:14:09.248Z</time>
      </trkpt>
      <trkpt lon="-90.700533" lat="34.884363">
        <ele>1420.63</ele>
        <time>2025-12-29T14:14:17.636Z</time>
      </trkpt>
      <trkpt lon="-90.698101" lat="34.883945">
        <ele>1426.86</ele>
        <time>2025-12-29T14:14:21.552Z</time>
      </trkpt>
      <trkpt lon="-90.695865" lat="34.883541">
        <ele>1416.06</ele>
        <time>2025-12-29T14:14:24.804Z</time>
      </trkpt>
      <trkpt lon="-90.693905" lat="34.883155">
        <ele>1398.04</ele>
        <time>2025-12-29T14:14:27.408Z</time>
      </trkpt>
      <trkpt lon="-90.691090" lat="34.882541">
        <ele>1371.9</ele>
        <time>2025-12-29T14:14:30.848Z</time>
      </trkpt>
      <trkpt lon="-90.686402" lat="34.881355">
        <ele>1400.42</ele>
        <time>2025-12-29T14:14:36.608Z</time>
      </trkpt>
      <trkpt lon="-90.685051" lat="34.880942">
        <ele>1438.12</ele>
        <time>2025-12-29T14:14:38.532Z</time>
      </trkpt>
      <trkpt lon="-90.683863" lat="34.880540">
        <ele>1480.63</ele>
        <time>2025-12-29T14:14:40.424Z</time>
      </trkpt>
      <trkpt lon="-90.682459" lat="34.880024">
        <ele>1535.58</ele>
        <time>2025-12-29T14:14:42.980Z</time>
      </trkpt>
      <trkpt lon="-90.679916" lat="34.878960">
        <ele>1620.27</ele>
        <time>2025-12-29T14:14:48.268Z</time>
      </trkpt>
      <trkpt lon="-90.674819" lat="34.876836">
        <ele>1677.64</ele>
        <time>2025-12-29T14:14:59.112Z</time>
      </trkpt>
      <trkpt lon="-90.673404" lat="34.876497">
        <ele>1673.64</ele>
        <time>2025-12-29T14:15:01.648Z</time>
      </trkpt>
      <trkpt lon="-90.671387" lat="34.876237">
        <ele>1665.98</ele>
        <time>2025-12-29T14:15:04.884Z</time>
      </trkpt>
      <trkpt lon="-90.668713" lat="34.876040">
        <ele>1644.51</ele>
        <time>2025-12-29T14:15:08.704Z</time>
      </trkpt>
      <trkpt lon="-90.654215" lat="34.875462">
        <ele>1672.94</ele>
        <time>2025-12-29T14:15:28.112Z</time>
      </trkpt>
      <trkpt lon="-90.650142" lat="34.875527">
        <ele>1707.85</ele>
        <time>2025-12-29T14:15:33.956Z</time>
      </trkpt>
      <trkpt lon="-90.630146" lat="34.876870">
        <ele>1747.96</ele>
        <time>2025-12-29T14:16:04.484Z</time>
      </trkpt>
      <trkpt lon="-90.613217" lat="34.879159">
        <ele>1753.24</ele>
        <time>2025-12-29T14:16:29.948Z</time>
      </trkpt>
      <trkpt lon="-90.593138" lat="34.883434">
        <ele>1756.57</ele>
        <time>2025-12-29T14:17:00.464Z</time>
      </trkpt>
      <trkpt lon="-90.573604" lat="34.889120">
        <ele>1760.26</ele>
        <time>2025-12-29T14:17:30.916Z</time>
      </trkpt>
      <trkpt lon="-90.554667" lat="34.896204">
        <ele>1763.26</ele>
        <time>2025-12-29T14:18:01.460Z</time>
      </trkpt>
      <trkpt lon="-90.536518" lat="34.904632">
        <ele>1766.45</ele>
        <time>2025-12-29T14:18:32.040Z</time>
      </trkpt>
      <trkpt lon="-90.519368" lat="34.914305">
        <ele>1769.82</ele>
        <time>2025-12-29T14:19:02.552Z</time>
      </trkpt>
      <trkpt lon="-90.503302" lat="34.925165">
        <ele>1773.15</ele>
        <time>2025-12-29T14:19:33.032Z</time>
      </trkpt>
      <trkpt lon="-90.488385" lat="34.937182">
        <ele>1775.99</ele>
        <time>2025-12-29T14:20:03.620Z</time>
      </trkpt>
      <trkpt lon="-90.474797" lat="34.950220">
        <ele>1778.96</ele>
        <time>2025-12-29T14:20:34.212Z</time>
      </trkpt>
      <trkpt lon="-90.462671" lat="34.964142">
        <ele>1782.09</ele>
        <time>2025-12-29T14:21:04.700Z</time>
      </trkpt>
      <trkpt lon="-90.452038" lat="34.978916">
        <ele>1785.22</ele>
        <time>2025-12-29T14:21:35.260Z</time>
      </trkpt>
      <trkpt lon="-90.443212" lat="34.994015">
        <ele>1787.54</ele>
        <time>2025-12-29T14:22:05.156Z</time>
      </trkpt>
      <trkpt lon="-90.437166" lat="35.007218">
        <ele>1776.1</ele>
        <time>2025-12-29T14:22:31.780Z</time>
      </trkpt>
      <trkpt lon="-90.432702" lat="35.020325">
        <ele>1761.92</ele>
        <time>2025-12-29T14:22:57.824Z</time>
      </trkpt>
      <trkpt lon="-90.429561" lat="35.034040">
        <ele>1747.65</ele>
        <time>2025-12-29T14:23:24.580Z</time>
      </trkpt>
      <trkpt lon="-90.427929" lat="35.047540">
        <ele>1733.86</ele>
        <time>2025-12-29T14:23:50.580Z</time>
      </trkpt>
      <trkpt lon="-90.427724" lat="35.061438">
        <ele>1719.15</ele>
        <time>2025-12-29T14:24:17.224Z</time>
      </trkpt>
      <trkpt lon="-90.429007" lat="35.075296">
        <ele>1704.71</ele>
        <time>2025-12-29T14:24:43.884Z</time>
      </trkpt>
      <trkpt lon="-90.431684" lat="35.088670">
        <ele>1691.33</ele>
        <time>2025-12-29T14:25:09.860Z</time>
      </trkpt>
      <trkpt lon="-90.435647" lat="35.101835">
        <ele>1675.35</ele>
        <time>2025-12-29T14:25:35.916Z</time>
      </trkpt>
      <trkpt lon="-90.435649" lat="35.102163">
        <ele>1671.94</ele>
        <time>2025-12-29T14:25:36.556Z</time>
      </trkpt>
      <trkpt lon="-90.435602" lat="35.102486">
        <ele>1667.34</ele>
        <time>2025-12-29T14:25:37.184Z</time>
      </trkpt>
      <trkpt lon="-90.435497" lat="35.102812">
        <ele>1662.06</ele>
        <time>2025-12-29T14:25:37.832Z</time>
      </trkpt>
      <trkpt lon="-90.435338" lat="35.103117">
        <ele>1657.14</ele>
        <time>2025-12-29T14:25:38.456Z</time>
      </trkpt>
      <trkpt lon="-90.435129" lat="35.103406">
        <ele>1652.9</ele>
        <time>2025-12-29T14:25:39.092Z</time>
      </trkpt>
      <trkpt lon="-90.434877" lat="35.103677">
        <ele>1649.37</ele>
        <time>2025-12-29T14:25:39.740Z</time>
      </trkpt>
      <trkpt lon="-90.434596" lat="35.103921">
        <ele>1646.72</ele>
        <time>2025-12-29T14:25:40.376Z</time>
      </trkpt>
      <trkpt lon="-90.434272" lat="35.104150">
        <ele>1644.93</ele>
        <time>2025-12-29T14:25:41.012Z</time>
      </trkpt>
      <trkpt lon="-90.433592" lat="35.104520">
        <ele>1643.53</ele>
        <time>2025-12-29T14:25:42.268Z</time>
      </trkpt>
      <trkpt lon="-90.432497" lat="35.104951">
        <ele>1642.91</ele>
        <time>2025-12-29T14:25:44.152Z</time>
      </trkpt>
      <trkpt lon="-90.430953" lat="35.105391">
        <ele>1643.49</ele>
        <time>2025-12-29T14:25:46.724Z</time>
      </trkpt>
      <trkpt lon="-90.412427" lat="35.109524">
        <ele>1626.71</ele>
        <time>2025-12-29T14:26:17.248Z</time>
      </trkpt>
      <trkpt lon="-90.393712" lat="35.112917">
        <ele>1610.32</ele>
        <time>2025-12-29T14:26:47.692Z</time>
      </trkpt>
      <trkpt lon="-90.374935" lat="35.116476">
        <ele>1594.74</ele>
        <time>2025-12-29T14:27:18.312Z</time>
      </trkpt>
      <trkpt lon="-90.356298" lat="35.120266">
        <ele>1579.41</ele>
        <time>2025-12-29T14:27:48.840Z</time>
      </trkpt>
      <trkpt lon="-90.337733" lat="35.124299">
        <ele>1563.4</ele>
        <time>2025-12-29T14:28:19.368Z</time>
      </trkpt>
      <trkpt lon="-90.319306" lat="35.128563">
        <ele>1547.75</ele>
        <time>2025-12-29T14:28:49.820Z</time>
      </trkpt>
      <trkpt lon="-90.300908" lat="35.133079">
        <ele>1532.37</ele>
        <time>2025-12-29T14:29:20.360Z</time>
      </trkpt>
      <trkpt lon="-90.282567" lat="35.137817">
        <ele>1517.79</ele>
        <time>2025-12-29T14:29:50.936Z</time>
      </trkpt>
      <trkpt lon="-90.264351" lat="35.142734">
        <ele>1503.23</ele>
        <time>2025-12-29T14:30:21.448Z</time>
      </trkpt>
      <trkpt lon="-90.246464" lat="35.147757">
        <ele>1488.22</ele>
        <time>2025-12-29T14:30:51.520Z</time>
      </trkpt>
      <trkpt lon="-90.228055" lat="35.152224">
        <ele>1471.87</ele>
        <time>2025-12-29T14:31:22.060Z</time>
      </trkpt>
      <trkpt lon="-90.209283" lat="35.155528">
        <ele>1456.51</ele>
        <time>2025-12-29T14:31:52.656Z</time>
      </trkpt>
      <trkpt lon="-90.190307" lat="35.157638">
        <ele>1440.75</ele>
        <time>2025-12-29T14:32:23.232Z</time>
      </trkpt>
      <trkpt lon="-90.171266" lat="35.158541">
        <ele>1425.4</ele>
        <time>2025-12-29T14:32:53.756Z</time>
      </trkpt>
      <trkpt lon="-90.152544" lat="35.158256">
        <ele>1410.06</ele>
        <time>2025-12-29T14:33:23.788Z</time>
      </trkpt>
      <trkpt lon="-90.133895" lat="35.156803">
        <ele>1395.4</ele>
        <time>2025-12-29T14:33:53.884Z</time>
      </trkpt>
      <trkpt lon="-90.115519" lat="35.154199">
        <ele>1381.37</ele>
        <time>2025-12-29T14:34:23.916Z</time>
      </trkpt>
      <trkpt lon="-90.097147" lat="35.150382">
        <ele>1367.82</ele>
        <time>2025-12-29T14:34:54.500Z</time>
      </trkpt>
      <trkpt lon="-90.079375" lat="35.145954">
        <ele>1355.83</ele>
        <time>2025-12-29T14:35:24.528Z</time>
      </trkpt>
      <trkpt lon="-90.061516" lat="35.141664">
        <ele>1343.9</ele>
        <time>2025-12-29T14:35:54.660Z</time>
      </trkpt>
      <trkpt lon="-90.043382" lat="35.137489">
        <ele>1332.58</ele>
        <time>2025-12-29T14:36:25.136Z</time>
      </trkpt>
      <trkpt lon="-90.025450" lat="35.133538">
        <ele>1322.37</ele>
        <time>2025-12-29T14:36:55.196Z</time>
      </trkpt>
      <trkpt lon="-90.007128" lat="35.129685">
        <ele>1309.52</ele>
        <time>2025-12-29T14:37:25.824Z</time>
      </trkpt>
      <trkpt lon="-89.989112" lat="35.126114">
        <ele>1296.8</ele>
        <time>2025-12-29T14:37:55.852Z</time>
      </trkpt>
      <trkpt lon="-89.970686" lat="35.122698">
        <ele>1283.29</ele>
        <time>2025-12-29T14:38:26.460Z</time>
      </trkpt>
      <trkpt lon="-89.952199" lat="35.119505">
        <ele>1271.26</ele>
        <time>2025-12-29T14:38:57.064Z</time>
      </trkpt>
      <trkpt lon="-89.933658" lat="35.116537">
        <ele>1259.38</ele>
        <time>2025-12-29T14:39:27.672Z</time>
      </trkpt>
      <trkpt lon="-89.915396" lat="35.113842">
        <ele>1247.33</ele>
        <time>2025-12-29T14:39:57.744Z</time>
      </trkpt>
      <trkpt lon="-89.896738" lat="35.111319">
        <ele>1236.07</ele>
        <time>2025-12-29T14:40:28.376Z</time>
      </trkpt>
      <trkpt lon="-89.878389" lat="35.109062">
        <ele>1226.31</ele>
        <time>2025-12-29T14:40:58.416Z</time>
      </trkpt>
      <trkpt lon="-89.859990" lat="35.107021">
        <ele>1216.17</ele>
        <time>2025-12-29T14:41:28.472Z</time>
      </trkpt>
      <trkpt lon="-89.841257" lat="35.105146">
        <ele>1205.54</ele>
        <time>2025-12-29T14:41:59.048Z</time>
      </trkpt>
      <trkpt lon="-89.822515" lat="35.103473">
        <ele>1195.06</ele>
        <time>2025-12-29T14:42:29.584Z</time>
      </trkpt>
      <trkpt lon="-89.803723" lat="35.102000">
        <ele>1184.47</ele>
        <time>2025-12-29T14:43:00.156Z</time>
      </trkpt>
      <trkpt lon="-89.784955" lat="35.100735">
        <ele>1173.58</ele>
        <time>2025-12-29T14:43:30.696Z</time>
      </trkpt>
      <trkpt lon="-89.766155" lat="35.099670">
        <ele>1162.91</ele>
        <time>2025-12-29T14:44:01.236Z</time>
      </trkpt>
      <trkpt lon="-89.747328" lat="35.098843">
        <ele>1151.89</ele>
        <time>2025-12-29T14:44:31.776Z</time>
      </trkpt>
      <trkpt lon="-89.728808" lat="35.098269">
        <ele>1142.01</ele>
        <time>2025-12-29T14:45:01.780Z</time>
      </trkpt>
      <trkpt lon="-89.710254" lat="35.097938">
        <ele>1132.38</ele>
        <time>2025-12-29T14:45:31.816Z</time>
      </trkpt>
      <trkpt lon="-89.691377" lat="35.097849">
        <ele>1122.46</ele>
        <time>2025-12-29T14:46:02.392Z</time>
      </trkpt>
      <trkpt lon="-89.672846" lat="35.098005">
        <ele>1113.61</ele>
        <time>2025-12-29T14:46:32.416Z</time>
      </trkpt>
      <trkpt lon="-89.653943" lat="35.098409">
        <ele>1103.04</ele>
        <time>2025-12-29T14:47:03.044Z</time>
      </trkpt>
      <trkpt lon="-89.635320" lat="35.099044">
        <ele>1093.91</ele>
        <time>2025-12-29T14:47:33.224Z</time>
      </trkpt>
      <trkpt lon="-89.616794" lat="35.099913">
        <ele>1086.2</ele>
        <time>2025-12-29T14:48:03.248Z</time>
      </trkpt>
      <trkpt lon="-89.597959" lat="35.101045">
        <ele>1078.46</ele>
        <time>2025-12-29T14:48:33.812Z</time>
      </trkpt>
      <trkpt lon="-89.579120" lat="35.102435">
        <ele>1070.46</ele>
        <time>2025-12-29T14:49:04.408Z</time>
      </trkpt>
      <trkpt lon="-89.560287" lat="35.104083">
        <ele>1060.63</ele>
        <time>2025-12-29T14:49:35.060Z</time>
      </trkpt>
      <trkpt lon="-89.541545" lat="35.105951">
        <ele>1050.44</ele>
        <time>2025-12-29T14:50:05.612Z</time>
      </trkpt>
      <trkpt lon="-89.523176" lat="35.108001">
        <ele>1041.36</ele>
        <time>2025-12-29T14:50:35.624Z</time>
      </trkpt>
      <trkpt lon="-89.504497" lat="35.110309">
        <ele>1033.59</ele>
        <time>2025-12-29T14:51:06.160Z</time>
      </trkpt>
      <trkpt lon="-89.485885" lat="35.112837">
        <ele>1025.06</ele>
        <time>2025-12-29T14:51:36.688Z</time>
      </trkpt>
      <trkpt lon="-89.467588" lat="35.115546">
        <ele>1016.89</ele>
        <time>2025-12-29T14:52:06.756Z</time>
      </trkpt>
      <trkpt lon="-89.449045" lat="35.118519">
        <ele>1008.71</ele>
        <time>2025-12-29T14:52:37.308Z</time>
      </trkpt>
      <trkpt lon="-89.430525" lat="35.121718">
        <ele>999.485</ele>
        <time>2025-12-29T14:53:07.928Z</time>
      </trkpt>
      <trkpt lon="-89.412089" lat="35.125134">
        <ele>991.379</ele>
        <time>2025-12-29T14:53:38.484Z</time>
      </trkpt>
      <trkpt lon="-89.393715" lat="35.128773">
        <ele>983.068</ele>
        <time>2025-12-29T14:54:09.028Z</time>
      </trkpt>
      <trkpt lon="-89.375420" lat="35.132638">
        <ele>974.713</ele>
        <time>2025-12-29T14:54:39.564Z</time>
      </trkpt>
      <trkpt lon="-89.357501" lat="35.136655">
        <ele>967.145</ele>
        <time>2025-12-29T14:55:09.568Z</time>
      </trkpt>
      <trkpt lon="-89.339290" lat="35.140967">
        <ele>961.264</ele>
        <time>2025-12-29T14:55:40.176Z</time>
      </trkpt>
      <trkpt lon="-89.321197" lat="35.145485">
        <ele>955.262</ele>
        <time>2025-12-29T14:56:10.716Z</time>
      </trkpt>
      <trkpt lon="-89.303234" lat="35.150202">
        <ele>947.821</ele>
        <time>2025-12-29T14:56:41.144Z</time>
      </trkpt>
      <trkpt lon="-89.285306" lat="35.155141">
        <ele>939.113</ele>
        <time>2025-12-29T14:57:11.680Z</time>
      </trkpt>
      <trkpt lon="-89.267455" lat="35.160292">
        <ele>932.457</ele>
        <time>2025-12-29T14:57:42.232Z</time>
      </trkpt>
      <trkpt lon="-89.249701" lat="35.165637">
        <ele>928.812</ele>
        <time>2025-12-29T14:58:12.748Z</time>
      </trkpt>
      <trkpt lon="-89.231691" lat="35.170397">
        <ele>923.673</ele>
        <time>2025-12-29T14:58:43.268Z</time>
      </trkpt>
      <trkpt lon="-89.213294" lat="35.174052">
        <ele>915.725</ele>
        <time>2025-12-29T14:59:13.896Z</time>
      </trkpt>
      <trkpt lon="-89.194975" lat="35.176533">
        <ele>908.793</ele>
        <time>2025-12-29T14:59:43.944Z</time>
      </trkpt>
      <trkpt lon="-89.176209" lat="35.177920">
        <ele>901.076</ele>
        <time>2025-12-29T15:00:14.536Z</time>
      </trkpt>
      <trkpt lon="-89.157453" lat="35.178175">
        <ele>892.695</ele>
        <time>2025-12-29T15:00:45.060Z</time>
      </trkpt>
      <trkpt lon="-89.138657" lat="35.178168">
        <ele>884.914</ele>
        <time>2025-12-29T15:01:15.672Z</time>
      </trkpt>
      <trkpt lon="-89.119959" lat="35.178399">
        <ele>877.244</ele>
        <time>2025-12-29T15:01:46.152Z</time>
      </trkpt>
      <trkpt lon="-89.101199" lat="35.178835">
        <ele>868.759</ele>
        <time>2025-12-29T15:02:16.752Z</time>
      </trkpt>
      <trkpt lon="-89.082461" lat="35.179484">
        <ele>862.267</ele>
        <time>2025-12-29T15:02:47.304Z</time>
      </trkpt>
      <trkpt lon="-89.063770" lat="35.180345">
        <ele>857.411</ele>
        <time>2025-12-29T15:03:17.796Z</time>
      </trkpt>
      <trkpt lon="-89.045242" lat="35.181402">
        <ele>852.776</ele>
        <time>2025-12-29T15:03:48.028Z</time>
      </trkpt>
      <trkpt lon="-89.026513" lat="35.182678">
        <ele>846.735</ele>
        <time>2025-12-29T15:04:18.588Z</time>
      </trkpt>
      <trkpt lon="-89.008140" lat="35.184139">
        <ele>838.562</ele>
        <time>2025-12-29T15:04:48.592Z</time>
      </trkpt>
      <trkpt lon="-88.989431" lat="35.185839">
        <ele>828.725</ele>
        <time>2025-12-29T15:05:19.208Z</time>
      </trkpt>
      <trkpt lon="-88.970766" lat="35.187741">
        <ele>823.376</ele>
        <time>2025-12-29T15:05:49.784Z</time>
      </trkpt>
      <trkpt lon="-88.952437" lat="35.189796">
        <ele>819.015</ele>
        <time>2025-12-29T15:06:19.856Z</time>
      </trkpt>
      <trkpt lon="-88.933820" lat="35.192055">
        <ele>814.176</ele>
        <time>2025-12-29T15:06:50.412Z</time>
      </trkpt>
      <trkpt lon="-88.915494" lat="35.194456">
        <ele>809.579</ele>
        <time>2025-12-29T15:07:20.524Z</time>
      </trkpt>
      <trkpt lon="-88.896979" lat="35.197086">
        <ele>802.888</ele>
        <time>2025-12-29T15:07:51.012Z</time>
      </trkpt>
      <trkpt lon="-88.878482" lat="35.199926">
        <ele>797.76</ele>
        <time>2025-12-29T15:08:21.556Z</time>
      </trkpt>
      <trkpt lon="-88.860016" lat="35.202974">
        <ele>793.21</ele>
        <time>2025-12-29T15:08:52.096Z</time>
      </trkpt>
      <trkpt lon="-88.841907" lat="35.206175">
        <ele>787.017</ele>
        <time>2025-12-29T15:09:22.128Z</time>
      </trkpt>
      <trkpt lon="-88.823539" lat="35.209635">
        <ele>780.23</ele>
        <time>2025-12-29T15:09:52.676Z</time>
      </trkpt>
      <trkpt lon="-88.805215" lat="35.213302">
        <ele>774.352</ele>
        <time>2025-12-29T15:10:23.276Z</time>
      </trkpt>
      <trkpt lon="-88.786915" lat="35.217175">
        <ele>770.547</ele>
        <time>2025-12-29T15:10:53.900Z</time>
      </trkpt>
      <trkpt lon="-88.769044" lat="35.221166">
        <ele>766.46</ele>
        <time>2025-12-29T15:11:23.908Z</time>
      </trkpt>
      <trkpt lon="-88.750877" lat="35.225436">
        <ele>761.493</ele>
        <time>2025-12-29T15:11:54.524Z</time>
      </trkpt>
      <trkpt lon="-88.732792" lat="35.229906">
        <ele>756.077</ele>
        <time>2025-12-29T15:12:25.084Z</time>
      </trkpt>
      <trkpt lon="-88.714800" lat="35.234574">
        <ele>751.167</ele>
        <time>2025-12-29T15:12:55.624Z</time>
      </trkpt>
      <trkpt lon="-88.696894" lat="35.239440">
        <ele>746.056</ele>
        <time>2025-12-29T15:13:26.184Z</time>
      </trkpt>
      <trkpt lon="-88.679027" lat="35.244513">
        <ele>741.32</ele>
        <time>2025-12-29T15:13:56.780Z</time>
      </trkpt>
      <trkpt lon="-88.661570" lat="35.249684">
        <ele>737.448</ele>
        <time>2025-12-29T15:14:26.784Z</time>
      </trkpt>
      <trkpt lon="-88.643844" lat="35.255155">
        <ele>733.939</ele>
        <time>2025-12-29T15:14:57.416Z</time>
      </trkpt>
      <trkpt lon="-88.626575" lat="35.260699">
        <ele>730.341</ele>
        <time>2025-12-29T15:15:27.428Z</time>
      </trkpt>
      <trkpt lon="-88.609369" lat="35.266437">
        <ele>728.174</ele>
        <time>2025-12-29T15:15:57.436Z</time>
      </trkpt>
      <trkpt lon="-88.591965" lat="35.272484">
        <ele>723.411</ele>
        <time>2025-12-29T15:16:27.948Z</time>
      </trkpt>
      <trkpt lon="-88.574520" lat="35.278584">
        <ele>717.909</ele>
        <time>2025-12-29T15:16:58.564Z</time>
      </trkpt>
      <trkpt lon="-88.556713" lat="35.283718">
        <ele>713.286</ele>
        <time>2025-12-29T15:17:29.080Z</time>
      </trkpt>
      <trkpt lon="-88.538481" lat="35.287743">
        <ele>707.969</ele>
        <time>2025-12-29T15:17:59.688Z</time>
      </trkpt>
      <trkpt lon="-88.520028" lat="35.290616">
        <ele>704.946</ele>
        <time>2025-12-29T15:18:30.168Z</time>
      </trkpt>
      <trkpt lon="-88.501380" lat="35.292308">
        <ele>701.345</ele>
        <time>2025-12-29T15:19:00.660Z</time>
      </trkpt>
      <trkpt lon="-88.482654" lat="35.292807">
        <ele>698.32</ele>
        <time>2025-12-29T15:19:31.212Z</time>
      </trkpt>
      <trkpt lon="-88.463989" lat="35.292107">
        <ele>694.591</ele>
        <time>2025-12-29T15:20:01.748Z</time>
      </trkpt>
      <trkpt lon="-88.445453" lat="35.290199">
        <ele>691.061</ele>
        <time>2025-12-29T15:20:32.352Z</time>
      </trkpt>
      <trkpt lon="-88.427275" lat="35.287119">
        <ele>685.787</ele>
        <time>2025-12-29T15:21:02.844Z</time>
      </trkpt>
      <trkpt lon="-88.409384" lat="35.282989">
        <ele>680.252</ele>
        <time>2025-12-29T15:21:33.436Z</time>
      </trkpt>
      <trkpt lon="-88.391579" lat="35.278859">
        <ele>674.59</ele>
        <time>2025-12-29T15:22:03.948Z</time>
      </trkpt>
      <trkpt lon="-88.373677" lat="35.274923">
        <ele>671.521</ele>
        <time>2025-12-29T15:22:34.516Z</time>
      </trkpt>
      <trkpt lon="-88.355677" lat="35.271182">
        <ele>666.817</ele>
        <time>2025-12-29T15:23:05.096Z</time>
      </trkpt>
      <trkpt lon="-88.337596" lat="35.267646">
        <ele>664.063</ele>
        <time>2025-12-29T15:23:35.712Z</time>
      </trkpt>
      <trkpt lon="-88.319649" lat="35.264348">
        <ele>671.644</ele>
        <time>2025-12-29T15:24:06.332Z</time>
      </trkpt>
      <trkpt lon="-88.301690" lat="35.261249">
        <ele>679.654</ele>
        <time>2025-12-29T15:24:36.944Z</time>
      </trkpt>
      <trkpt lon="-88.283694" lat="35.258341">
        <ele>688.314</ele>
        <time>2025-12-29T15:25:07.524Z</time>
      </trkpt>
      <trkpt lon="-88.265640" lat="35.255625">
        <ele>696.726</ele>
        <time>2025-12-29T15:25:38.104Z</time>
      </trkpt>
      <trkpt lon="-88.247599" lat="35.253129">
        <ele>704.564</ele>
        <time>2025-12-29T15:26:08.572Z</time>
      </trkpt>
      <trkpt lon="-88.229491" lat="35.250840">
        <ele>713.143</ele>
        <time>2025-12-29T15:26:39.060Z</time>
      </trkpt>
      <trkpt lon="-88.211332" lat="35.248760">
        <ele>719.753</ele>
        <time>2025-12-29T15:27:09.532Z</time>
      </trkpt>
      <trkpt lon="-88.193092" lat="35.246889">
        <ele>726.405</ele>
        <time>2025-12-29T15:27:40.064Z</time>
      </trkpt>
      <trkpt lon="-88.174828" lat="35.245233">
        <ele>732.933</ele>
        <time>2025-12-29T15:28:10.556Z</time>
      </trkpt>
      <trkpt lon="-88.156444" lat="35.243781">
        <ele>739.247</ele>
        <time>2025-12-29T15:28:41.168Z</time>
      </trkpt>
      <trkpt lon="-88.138101" lat="35.242555">
        <ele>744.32</ele>
        <time>2025-12-29T15:29:11.672Z</time>
      </trkpt>
      <trkpt lon="-88.119705" lat="35.241549">
        <ele>751.674</ele>
        <time>2025-12-29T15:29:42.260Z</time>
      </trkpt>
      <trkpt lon="-88.101614" lat="35.240759">
        <ele>760.147</ele>
        <time>2025-12-29T15:30:12.320Z</time>
      </trkpt>
      <trkpt lon="-88.083498" lat="35.240155">
        <ele>766.796</ele>
        <time>2025-12-29T15:30:42.388Z</time>
      </trkpt>
      <trkpt lon="-88.065097" lat="35.239742">
        <ele>776.103</ele>
        <time>2025-12-29T15:31:12.876Z</time>
      </trkpt>
      <trkpt lon="-88.046948" lat="35.239549">
        <ele>785.45</ele>
        <time>2025-12-29T15:31:42.888Z</time>
      </trkpt>
      <trkpt lon="-88.028769" lat="35.239546">
        <ele>792.564</ele>
        <time>2025-12-29T15:32:12.932Z</time>
      </trkpt>
      <trkpt lon="-88.010255" lat="35.239738">
        <ele>799.702</ele>
        <time>2025-12-29T15:32:43.544Z</time>
      </trkpt>
      <trkpt lon="-87.991734" lat="35.240119">
        <ele>806.334</ele>
        <time>2025-12-29T15:33:14.160Z</time>
      </trkpt>
      <trkpt lon="-87.973260" lat="35.240704">
        <ele>815.251</ele>
        <time>2025-12-29T15:33:44.736Z</time>
      </trkpt>
      <trkpt lon="-87.954777" lat="35.241499">
        <ele>825.792</ele>
        <time>2025-12-29T15:34:15.268Z</time>
      </trkpt>
      <trkpt lon="-87.936279" lat="35.242508">
        <ele>835.962</ele>
        <time>2025-12-29T15:34:45.856Z</time>
      </trkpt>
      <trkpt lon="-87.917820" lat="35.243715">
        <ele>843.818</ele>
        <time>2025-12-29T15:35:16.412Z</time>
      </trkpt>
      <trkpt lon="-87.899327" lat="35.245111">
        <ele>851.792</ele>
        <time>2025-12-29T15:35:47.024Z</time>
      </trkpt>
      <trkpt lon="-87.880903" lat="35.246688">
        <ele>860.195</ele>
        <time>2025-12-29T15:36:17.584Z</time>
      </trkpt>
      <trkpt lon="-87.862469" lat="35.248461">
        <ele>871.227</ele>
        <time>2025-12-29T15:36:48.180Z</time>
      </trkpt>
      <trkpt lon="-87.844083" lat="35.250422">
        <ele>881.129</ele>
        <time>2025-12-29T15:37:18.744Z</time>
      </trkpt>
      <trkpt lon="-87.825728" lat="35.252581">
        <ele>888.152</ele>
        <time>2025-12-29T15:37:49.280Z</time>
      </trkpt>
      <trkpt lon="-87.807384" lat="35.254930">
        <ele>893.223</ele>
        <time>2025-12-29T15:38:19.832Z</time>
      </trkpt>
      <trkpt lon="-87.789043" lat="35.257450">
        <ele>897.586</ele>
        <time>2025-12-29T15:38:50.440Z</time>
      </trkpt>
      <trkpt lon="-87.770763" lat="35.260139">
        <ele>904.867</ele>
        <time>2025-12-29T15:39:21.036Z</time>
      </trkpt>
      <trkpt lon="-87.752588" lat="35.263007">
        <ele>912.525</ele>
        <time>2025-12-29T15:39:51.520Z</time>
      </trkpt>
      <trkpt lon="-87.734716" lat="35.266012">
        <ele>923.379</ele>
        <time>2025-12-29T15:40:21.548Z</time>
      </trkpt>
      <trkpt lon="-87.716484" lat="35.269266">
        <ele>929.386</ele>
        <time>2025-12-29T15:40:52.196Z</time>
      </trkpt>
      <trkpt lon="-87.698668" lat="35.272638">
        <ele>933.713</ele>
        <time>2025-12-29T15:41:22.216Z</time>
      </trkpt>
      <trkpt lon="-87.680593" lat="35.276258">
        <ele>939.061</ele>
        <time>2025-12-29T15:41:52.752Z</time>
      </trkpt>
      <trkpt lon="-87.662845" lat="35.280006">
        <ele>948.957</ele>
        <time>2025-12-29T15:42:22.840Z</time>
      </trkpt>
      <trkpt lon="-87.644863" lat="35.284001">
        <ele>955.255</ele>
        <time>2025-12-29T15:42:53.408Z</time>
      </trkpt>
      <trkpt lon="-87.626959" lat="35.288170">
        <ele>962.27</ele>
        <time>2025-12-29T15:43:23.916Z</time>
      </trkpt>
      <trkpt lon="-87.609118" lat="35.292527">
        <ele>970.762</ele>
        <time>2025-12-29T15:43:54.416Z</time>
      </trkpt>
      <trkpt lon="-87.591310" lat="35.297077">
        <ele>979.301</ele>
        <time>2025-12-29T15:44:24.976Z</time>
      </trkpt>
      <trkpt lon="-87.573872" lat="35.301724">
        <ele>987.478</ele>
        <time>2025-12-29T15:44:55.008Z</time>
      </trkpt>
      <trkpt lon="-87.556139" lat="35.306633">
        <ele>993.71</ele>
        <time>2025-12-29T15:45:25.616Z</time>
      </trkpt>
      <trkpt lon="-87.538469" lat="35.311706">
        <ele>999.472</ele>
        <time>2025-12-29T15:45:56.232Z</time>
      </trkpt>
      <trkpt lon="-87.520892" lat="35.316927">
        <ele>1007.79</ele>
        <time>2025-12-29T15:46:26.784Z</time>
      </trkpt>
      <trkpt lon="-87.503704" lat="35.322221">
        <ele>1015.18</ele>
        <time>2025-12-29T15:46:56.812Z</time>
      </trkpt>
      <trkpt lon="-87.486288" lat="35.327776">
        <ele>1023</ele>
        <time>2025-12-29T15:47:27.360Z</time>
      </trkpt>
      <trkpt lon="-87.468928" lat="35.333489">
        <ele>1030.29</ele>
        <time>2025-12-29T15:47:57.872Z</time>
      </trkpt>
      <trkpt lon="-87.451621" lat="35.339364">
        <ele>1037.73</ele>
        <time>2025-12-29T15:48:28.416Z</time>
      </trkpt>
      <trkpt lon="-87.434367" lat="35.345428">
        <ele>1044.78</ele>
        <time>2025-12-29T15:48:59.028Z</time>
      </trkpt>
      <trkpt lon="-87.417244" lat="35.351665">
        <ele>1050.82</ele>
        <time>2025-12-29T15:49:29.552Z</time>
      </trkpt>
      <trkpt lon="-87.400241" lat="35.358081">
        <ele>1056.88</ele>
        <time>2025-12-29T15:50:00.028Z</time>
      </trkpt>
      <trkpt lon="-87.383283" lat="35.364702">
        <ele>1065.47</ele>
        <time>2025-12-29T15:50:30.604Z</time>
      </trkpt>
      <trkpt lon="-87.366424" lat="35.371504">
        <ele>1073.94</ele>
        <time>2025-12-29T15:51:01.204Z</time>
      </trkpt>
      <trkpt lon="-87.349710" lat="35.378469">
        <ele>1079.28</ele>
        <time>2025-12-29T15:51:31.692Z</time>
      </trkpt>
      <trkpt lon="-87.333107" lat="35.385631">
        <ele>1085.72</ele>
        <time>2025-12-29T15:52:02.176Z</time>
      </trkpt>
      <trkpt lon="-87.316875" lat="35.392874">
        <ele>1092.74</ele>
        <time>2025-12-29T15:52:32.200Z</time>
      </trkpt>
      <trkpt lon="-87.300756" lat="35.400305">
        <ele>1101.43</ele>
        <time>2025-12-29T15:53:02.232Z</time>
      </trkpt>
      <trkpt lon="-87.284442" lat="35.408079">
        <ele>1107.19</ele>
        <time>2025-12-29T15:53:32.880Z</time>
      </trkpt>
      <trkpt lon="-87.268281" lat="35.416035">
        <ele>1114.94</ele>
        <time>2025-12-29T15:54:03.444Z</time>
      </trkpt>
      <trkpt lon="-87.252216" lat="35.424115">
        <ele>1122.62</ele>
        <time>2025-12-29T15:54:33.992Z</time>
      </trkpt>
      <trkpt lon="-87.235683" lat="35.431438">
        <ele>1127.64</ele>
        <time>2025-12-29T15:55:04.456Z</time>
      </trkpt>
      <trkpt lon="-87.218522" lat="35.437717">
        <ele>1132.17</ele>
        <time>2025-12-29T15:55:34.940Z</time>
      </trkpt>
      <trkpt lon="-87.200816" lat="35.442920">
        <ele>1137.77</ele>
        <time>2025-12-29T15:56:05.508Z</time>
      </trkpt>
      <trkpt lon="-87.182725" lat="35.446997">
        <ele>1143.2</ele>
        <time>2025-12-29T15:56:36.056Z</time>
      </trkpt>
      <trkpt lon="-87.164315" lat="35.449933">
        <ele>1148.29</ele>
        <time>2025-12-29T15:57:06.644Z</time>
      </trkpt>
      <trkpt lon="-87.146052" lat="35.451678">
        <ele>1151.14</ele>
        <time>2025-12-29T15:57:36.700Z</time>
      </trkpt>
      <trkpt lon="-87.127366" lat="35.452293">
        <ele>1154.17</ele>
        <time>2025-12-29T15:58:07.280Z</time>
      </trkpt>
      <trkpt lon="-87.108730" lat="35.452050">
        <ele>1157.28</ele>
        <time>2025-12-29T15:58:37.832Z</time>
      </trkpt>
      <trkpt lon="-87.090098" lat="35.451935">
        <ele>1160.43</ele>
        <time>2025-12-29T15:59:08.380Z</time>
      </trkpt>
      <trkpt lon="-87.071475" lat="35.452003">
        <ele>1167.25</ele>
        <time>2025-12-29T15:59:38.924Z</time>
      </trkpt>
      <trkpt lon="-87.052832" lat="35.452227">
        <ele>1173.31</ele>
        <time>2025-12-29T16:00:09.528Z</time>
      </trkpt>
      <trkpt lon="-87.034187" lat="35.452622">
        <ele>1183.64</ele>
        <time>2025-12-29T16:00:40.092Z</time>
      </trkpt>
      <trkpt lon="-87.015547" lat="35.453241">
        <ele>1186.19</ele>
        <time>2025-12-29T16:01:10.668Z</time>
      </trkpt>
      <trkpt lon="-86.997250" lat="35.454062">
        <ele>1190.86</ele>
        <time>2025-12-29T16:01:40.672Z</time>
      </trkpt>
      <trkpt lon="-86.978646" lat="35.455092">
        <ele>1199.2</ele>
        <time>2025-12-29T16:02:11.184Z</time>
      </trkpt>
      <trkpt lon="-86.960023" lat="35.456313">
        <ele>1206.04</ele>
        <time>2025-12-29T16:02:41.768Z</time>
      </trkpt>
      <trkpt lon="-86.941441" lat="35.457731">
        <ele>1213.11</ele>
        <time>2025-12-29T16:03:12.296Z</time>
      </trkpt>
      <trkpt lon="-86.922843" lat="35.459356">
        <ele>1219.09</ele>
        <time>2025-12-29T16:03:42.868Z</time>
      </trkpt>
      <trkpt lon="-86.904309" lat="35.461173">
        <ele>1224.72</ele>
        <time>2025-12-29T16:04:13.364Z</time>
      </trkpt>
      <trkpt lon="-86.895437" lat="35.462072">
        <ele>1227.35</ele>
        <time>2025-12-29T16:04:27.968Z</time>
      </trkpt>
      <trkpt lon="-86.894278" lat="35.462027">
        <ele>1227.59</ele>
        <time>2025-12-29T16:04:29.892Z</time>
      </trkpt>
      <trkpt lon="-86.893530" lat="35.461917">
        <ele>1227.23</ele>
        <time>2025-12-29T16:04:31.160Z</time>
      </trkpt>
      <trkpt lon="-86.892798" lat="35.461716">
        <ele>1225.91</ele>
        <time>2025-12-29T16:04:32.436Z</time>
      </trkpt>
      <trkpt lon="-86.892450" lat="35.461584">
        <ele>1225.12</ele>
        <time>2025-12-29T16:04:33.096Z</time>
      </trkpt>
      <trkpt lon="-86.891793" lat="35.461251">
        <ele>1223.78</ele>
        <time>2025-12-29T16:04:34.360Z</time>
      </trkpt>
      <trkpt lon="-86.891213" lat="35.460835">
        <ele>1223.32</ele>
        <time>2025-12-29T16:04:35.636Z</time>
      </trkpt>
      <trkpt lon="-86.890726" lat="35.460358">
        <ele>1223.13</ele>
        <time>2025-12-29T16:04:36.904Z</time>
      </trkpt>
      <trkpt lon="-86.890334" lat="35.459825">
        <ele>1222.92</ele>
        <time>2025-12-29T16:04:38.176Z</time>
      </trkpt>
      <trkpt lon="-86.890048" lat="35.459251">
        <ele>1222.64</ele>
        <time>2025-12-29T16:04:39.436Z</time>
      </trkpt>
      <trkpt lon="-86.889872" lat="35.458640">
        <ele>1222.29</ele>
        <time>2025-12-29T16:04:40.724Z</time>
      </trkpt>
      <trkpt lon="-86.889817" lat="35.458016">
        <ele>1221.89</ele>
        <time>2025-12-29T16:04:41.996Z</time>
      </trkpt>
      <trkpt lon="-86.889881" lat="35.457405">
        <ele>1221.59</ele>
        <time>2025-12-29T16:04:43.252Z</time>
      </trkpt>
      <trkpt lon="-86.890062" lat="35.456798">
        <ele>1221.34</ele>
        <time>2025-12-29T16:04:44.512Z</time>
      </trkpt>
      <trkpt lon="-86.890353" lat="35.456220">
        <ele>1221.6</ele>
        <time>2025-12-29T16:04:45.788Z</time>
      </trkpt>
      <trkpt lon="-86.890745" lat="35.455682">
        <ele>1222.52</ele>
        <time>2025-12-29T16:04:47.068Z</time>
      </trkpt>
      <trkpt lon="-86.891218" lat="35.455201">
        <ele>1223.9</ele>
        <time>2025-12-29T16:04:48.348Z</time>
      </trkpt>
      <trkpt lon="-86.891733" lat="35.454793">
        <ele>1225.01</ele>
        <time>2025-12-29T16:04:49.612Z</time>
      </trkpt>
      <trkpt lon="-86.892287" lat="35.454438">
        <ele>1225.39</ele>
        <time>2025-12-29T16:04:50.896Z</time>
      </trkpt>
      <trkpt lon="-86.893139" lat="35.454007">
        <ele>1223.49</ele>
        <time>2025-12-29T16:04:52.792Z</time>
      </trkpt>
      <trkpt lon="-86.894027" lat="35.453658">
        <ele>1218.05</ele>
        <time>2025-12-29T16:04:54.712Z</time>
      </trkpt>
      <trkpt lon="-86.895539" lat="35.453207">
        <ele>1201.77</ele>
        <time>2025-12-29T16:04:57.896Z</time>
      </trkpt>
      <trkpt lon="-86.897404" lat="35.452791">
        <ele>1172.89</ele>
        <time>2025-12-29T16:05:01.664Z</time>
      </trkpt>
      <trkpt lon="-86.900470" lat="35.452330">
        <ele>1127.46</ele>
        <time>2025-12-29T16:05:07.408Z</time>
      </trkpt>
      <trkpt lon="-86.906647" lat="35.451764">
        <ele>1072.4</ele>
        <time>2025-12-29T16:05:18.856Z</time>
      </trkpt>
      <trkpt lon="-86.909668" lat="35.451152">
        <ele>1031.6</ele>
        <time>2025-12-29T16:05:24.620Z</time>
      </trkpt>
      <trkpt lon="-86.911327" lat="35.450681">
        <ele>1009.93</ele>
        <time>2025-12-29T16:05:27.824Z</time>
      </trkpt>
      <trkpt lon="-86.912601" lat="35.450205">
        <ele>997.373</ele>
        <time>2025-12-29T16:05:30.372Z</time>
      </trkpt>
      <trkpt lon="-86.916501" lat="35.448548">
        <ele>964.318</ele>
        <time>2025-12-29T16:05:38.660Z</time>
      </trkpt>
      <trkpt lon="-86.919975" lat="35.447551">
        <ele>914.692</ele>
        <time>2025-12-29T16:05:45.624Z</time>
      </trkpt>
      <trkpt lon="-86.922643" lat="35.446727">
        <ele>870.409</ele>
        <time>2025-12-29T16:05:50.704Z</time>
      </trkpt>
      <trkpt lon="-86.927258" lat="35.445384">
        <ele>848.382</ele>
        <time>2025-12-29T16:05:59.656Z</time>
      </trkpt>
      <trkpt lon="-86.930685" lat="35.444679">
        <ele>821.405</ele>
        <time>2025-12-29T16:06:06.664Z</time>
      </trkpt>
      <trkpt lon="-86.933968" lat="35.444224">
        <ele>779.437</ele>
        <time>2025-12-29T16:06:13.044Z</time>
      </trkpt>
      <trkpt lon="-86.938053" lat="35.443743">
        <ele>740.627</ele>
        <time>2025-12-29T16:06:20.700Z</time>
      </trkpt>
      <trkpt lon="-86.941722" lat="35.443463">
        <ele>710.384</ele>
        <time>2025-12-29T16:06:27.676Z</time>
      </trkpt>
      <trkpt lon="-86.942394" lat="35.443476">
        <ele>702.085</ele>
        <time>2025-12-29T16:06:28.960Z</time>
      </trkpt>
      <trkpt lon="-86.943068" lat="35.443567">
        <ele>691.653</ele>
        <time>2025-12-29T16:06:30.256Z</time>
      </trkpt>
      <trkpt lon="-86.943724" lat="35.443734">
        <ele>678.837</ele>
        <time>2025-12-29T16:06:31.540Z</time>
      </trkpt>
      <trkpt lon="-86.944367" lat="35.443978">
        <ele>663.565</ele>
        <time>2025-12-29T16:06:32.820Z</time>
      </trkpt>
      <trkpt lon="-86.944989" lat="35.444297">
        <ele>647.092</ele>
        <time>2025-12-29T16:06:34.100Z</time>
      </trkpt>
      <trkpt lon="-86.945606" lat="35.444704">
        <ele>630.361</ele>
        <time>2025-12-29T16:06:35.416Z</time>
      </trkpt>
      <trkpt lon="-86.946163" lat="35.445157">
        <ele>616.546</ele>
        <time>2025-12-29T16:06:36.700Z</time>
      </trkpt>
      <trkpt lon="-86.946944" lat="35.445943">
        <ele>603.16</ele>
        <time>2025-12-29T16:06:38.636Z</time>
      </trkpt>
      <trkpt lon="-86.947603" lat="35.446786">
        <ele>599.192</ele>
        <time>2025-12-29T16:06:40.556Z</time>
      </trkpt>
      <trkpt lon="-86.948123" lat="35.447653">
        <ele>602.719</ele>
        <time>2025-12-29T16:06:42.456Z</time>
      </trkpt>
      <trkpt lon="-86.948792" lat="35.449051">
        <ele>621.233</ele>
        <time>2025-12-29T16:06:45.652Z</time>
      </trkpt>
      <trkpt lon="-86.949507" lat="35.450524">
        <ele>645.293</ele>
        <time>2025-12-29T16:06:49.448Z</time>
      </trkpt>
      <trkpt lon="-86.951947" lat="35.455631">
        <ele>619.743</ele>
        <time>2025-12-29T16:07:02.860Z</time>
      </trkpt>
      <trkpt lon="-86.954025" lat="35.461884">
        <ele>614.012</ele>
        <time>2025-12-29T16:07:17.616Z</time>
      </trkpt>
      <trkpt lon="-86.954901" lat="35.465902">
        <ele>604.782</ele>
        <time>2025-12-29T16:07:27.132Z</time>
      </trkpt>
      <trkpt lon="-86.955276" lat="35.468954">
        <ele>595.514</ele>
        <time>2025-12-29T16:07:34.156Z</time>
      </trkpt>
      <trkpt lon="-86.955250" lat="35.469506">
        <ele>591.856</ele>
        <time>2025-12-29T16:07:35.436Z</time>
      </trkpt>
      <trkpt lon="-86.955119" lat="35.470049">
        <ele>582.806</ele>
        <time>2025-12-29T16:07:36.708Z</time>
      </trkpt>
      <trkpt lon="-86.955003" lat="35.470315">
        <ele>576.785</ele>
        <time>2025-12-29T16:07:37.344Z</time>
      </trkpt>
      <trkpt lon="-86.954829" lat="35.470565">
        <ele>571.83</ele>
        <time>2025-12-29T16:07:37.980Z</time>
      </trkpt>
      <trkpt lon="-86.954588" lat="35.470784">
        <ele>568.926</ele>
        <time>2025-12-29T16:07:38.636Z</time>
      </trkpt>
      <trkpt lon="-86.954296" lat="35.470944">
        <ele>568.192</ele>
        <time>2025-12-29T16:07:39.276Z</time>
      </trkpt>
      <trkpt lon="-86.953970" lat="35.471037">
        <ele>568.778</ele>
        <time>2025-12-29T16:07:39.924Z</time>
      </trkpt>
      <trkpt lon="-86.953636" lat="35.471063">
        <ele>569.693</ele>
        <time>2025-12-29T16:07:40.572Z</time>
      </trkpt>
      <trkpt lon="-86.953315" lat="35.471028">
        <ele>570.475</ele>
        <time>2025-12-29T16:07:41.212Z</time>
      </trkpt>
      <trkpt lon="-86.953026" lat="35.470946">
        <ele>570.931</ele>
        <time>2025-12-29T16:07:41.828Z</time>
      </trkpt>
      <trkpt lon="-86.952752" lat="35.470823">
        <ele>571.047</ele>
        <time>2025-12-29T16:07:42.472Z</time>
      </trkpt>
      <trkpt lon="-86.952515" lat="35.470668">
        <ele>571.47</ele>
        <time>2025-12-29T16:07:43.108Z</time>
      </trkpt>
      <trkpt lon="-86.952316" lat="35.470490">
        <ele>572.493</ele>
        <time>2025-12-29T16:07:43.748Z</time>
      </trkpt>
      <trkpt lon="-86.952139" lat="35.470284">
        <ele>573.696</ele>
        <time>2025-12-29T16:07:44.408Z</time>
      </trkpt>
      <trkpt lon="-86.951996" lat="35.470077">
        <ele>574.49</ele>
        <time>2025-12-29T16:07:45.044Z</time>
      </trkpt>
      <trkpt lon="-86.951877" lat="35.469859">
        <ele>575.298</ele>
        <time>2025-12-29T16:07:45.680Z</time>
      </trkpt>
      <trkpt lon="-86.951790" lat="35.469644">
        <ele>576.241</ele>
        <time>2025-12-29T16:07:46.296Z</time>
      </trkpt>
      <trkpt lon="-86.951690" lat="35.469184">
        <ele>577.858</ele>
        <time>2025-12-29T16:07:47.584Z</time>
      </trkpt>
      <trkpt lon="-86.951688" lat="35.468961">
        <ele>579.359</ele>
        <time>2025-12-29T16:07:48.216Z</time>
      </trkpt>
      <trkpt lon="-86.951786" lat="35.468554">
        <ele>583.96</ele>
        <time>2025-12-29T16:07:49.492Z</time>
      </trkpt>
      <trkpt lon="-86.951871" lat="35.468377">
        <ele>585.229</ele>
        <time>2025-12-29T16:07:50.136Z</time>
      </trkpt>
      <trkpt lon="-86.951983" lat="35.468216">
        <ele>585.539</ele>
        <time>2025-12-29T16:07:50.784Z</time>
      </trkpt>
      <trkpt lon="-86.952118" lat="35.468081">
        <ele>584.67</ele>
        <time>2025-12-29T16:07:51.416Z</time>
      </trkpt>
      <trkpt lon="-86.952276" lat="35.467967">
        <ele>582.471</ele>
        <time>2025-12-29T16:07:52.056Z</time>
      </trkpt>
      <trkpt lon="-86.952450" lat="35.467878">
        <ele>579.214</ele>
        <time>2025-12-29T16:07:52.688Z</time>
      </trkpt>
      <trkpt lon="-86.952641" lat="35.467805">
        <ele>575.423</ele>
        <time>2025-12-29T16:07:53.328Z</time>
      </trkpt>
      <trkpt lon="-86.953042" lat="35.467702">
        <ele>568.489</ele>
        <time>2025-12-29T16:07:54.596Z</time>
      </trkpt>
      <trkpt lon="-86.954051" lat="35.467522">
        <ele>557.81</ele>
        <time>2025-12-29T16:07:57.780Z</time>
      </trkpt>
      <trkpt lon="-86.954235" lat="35.467460">
        <ele>555.678</ele>
        <time>2025-12-29T16:07:58.424Z</time>
      </trkpt>
      <trkpt lon="-86.954404" lat="35.467382">
        <ele>552.733</ele>
        <time>2025-12-29T16:07:59.068Z</time>
      </trkpt>
      <trkpt lon="-86.954555" lat="35.467283">
        <ele>548.496</ele>
        <time>2025-12-29T16:07:59.704Z</time>
      </trkpt>
      <trkpt lon="-86.954678" lat="35.467167">
        <ele>543.178</ele>
        <time>2025-12-29T16:08:00.324Z</time>
      </trkpt>
      <trkpt lon="-86.954770" lat="35.467032">
        <ele>536.983</ele>
        <time>2025-12-29T16:08:00.960Z</time>
      </trkpt>
      <trkpt lon="-86.954825" lat="35.466875">
        <ele>530.217</ele>
        <time>2025-12-29T16:08:01.608Z</time>
      </trkpt>
      <trkpt lon="-86.954836" lat="35.466710">
        <ele>523.789</ele>
        <time>2025-12-29T16:08:02.252Z</time>
      </trkpt>
      <trkpt lon="-86.954809" lat="35.466547">
        <ele>518.393</ele>
        <time>2025-12-29T16:08:02.888Z</time>
      </trkpt>
      <trkpt lon="-86.954732" lat="35.466219">
        <ele>510.168</ele>
        <time>2025-12-29T16:08:04.144Z</time>
      </trkpt>
      <trkpt lon="-86.954578" lat="35.465426">
        <ele>500.438</ele>
        <time>2025-12-29T16:08:07.288Z</time>
      </trkpt>
      <trkpt lon="-86.954520" lat="35.465136">
        <ele>496.028</ele>
        <time>2025-12-29T16:08:08.576Z</time>
      </trkpt>
      <trkpt lon="-86.954393" lat="35.464465">
        <ele>475.129</ele>
        <time>2025-12-29T16:08:11.744Z</time>
      </trkpt>
      <trkpt lon="-86.954390" lat="35.464329">
        <ele>468.807</ele>
        <time>2025-12-29T16:08:12.364Z</time>
      </trkpt>
      <trkpt lon="-86.954403" lat="35.464183">
        <ele>461.97</ele>
        <time>2025-12-29T16:08:12.996Z</time>
      </trkpt>
      <trkpt lon="-86.954437" lat="35.464026">
        <ele>454.926</ele>
        <time>2025-12-29T16:08:13.640Z</time>
      </trkpt>
      <trkpt lon="-86.954492" lat="35.463865">
        <ele>448.384</ele>
        <time>2025-12-29T16:08:14.268Z</time>
      </trkpt>
      <trkpt lon="-86.954645" lat="35.463547">
        <ele>437.959</ele>
        <time>2025-12-29T16:08:15.528Z</time>
      </trkpt>
      <trkpt lon="-86.955276" lat="35.462502">
        <ele>425.478</ele>
        <time>2025-12-29T16:08:20.016Z</time>
      </trkpt>
      <trkpt lon="-86.956188" lat="35.461248">
        <ele>400.152</ele>
        <time>2025-12-29T16:08:26.424Z</time>
      </trkpt>
      <trkpt lon="-86.957353" lat="35.459777">
        <ele>387.067</ele>
        <time>2025-12-29T16:08:33.496Z</time>
      </trkpt>
      <trkpt lon="-86.958003" lat="35.458756">
        <ele>370.274</ele>
        <time>2025-12-29T16:08:37.968Z</time>
      </trkpt>
      <trkpt lon="-86.958363" lat="35.458007">
        <ele>362.282</ele>
        <time>2025-12-29T16:08:41.180Z</time>
      </trkpt>
      <trkpt lon="-86.958450" lat="35.457705">
        <ele>359.709</ele>
        <time>2025-12-29T16:08:42.452Z</time>
      </trkpt>
      <trkpt lon="-86.958699" lat="35.455934">
        <ele>343.668</ele>
        <time>2025-12-29T16:08:50.100Z</time>
      </trkpt>
      <trkpt lon="-86.958737" lat="35.455129">
        <ele>330.704</ele>
        <time>2025-12-29T16:08:53.280Z</time>
      </trkpt>
      <trkpt lon="-86.958875" lat="35.452025">
        <ele>343.524</ele>
        <time>2025-12-29T16:09:04.156Z</time>
      </trkpt>
      <trkpt lon="-86.958885" lat="35.451863">
        <ele>343.703</ele>
        <time>2025-12-29T16:09:04.780Z</time>
      </trkpt>
      <trkpt lon="-86.958874" lat="35.451701">
        <ele>344.743</ele>
        <time>2025-12-29T16:09:05.416Z</time>
      </trkpt>
      <trkpt lon="-86.958834" lat="35.451544">
        <ele>346.125</ele>
        <time>2025-12-29T16:09:06.056Z</time>
      </trkpt>
      <trkpt lon="-86.958758" lat="35.451391">
        <ele>347.797</ele>
        <time>2025-12-29T16:09:06.708Z</time>
      </trkpt>
      <trkpt lon="-86.958649" lat="35.451253">
        <ele>349.568</ele>
        <time>2025-12-29T16:09:07.348Z</time>
      </trkpt>
      <trkpt lon="-86.958505" lat="35.451130">
        <ele>351.511</ele>
        <time>2025-12-29T16:09:07.996Z</time>
      </trkpt>
      <trkpt lon="-86.958339" lat="35.451035">
        <ele>353.442</ele>
        <time>2025-12-29T16:09:08.628Z</time>
      </trkpt>
      <trkpt lon="-86.958147" lat="35.450966">
        <ele>355.431</ele>
        <time>2025-12-29T16:09:09.268Z</time>
      </trkpt>
      <trkpt lon="-86.957938" lat="35.450930">
        <ele>357.342</ele>
        <time>2025-12-29T16:09:09.916Z</time>
      </trkpt>
      <trkpt lon="-86.957728" lat="35.450929">
        <ele>359.038</ele>
        <time>2025-12-29T16:09:10.548Z</time>
      </trkpt>
      <trkpt lon="-86.957508" lat="35.450966">
        <ele>360.623</ele>
        <time>2025-12-29T16:09:11.212Z</time>
      </trkpt>
      <trkpt lon="-86.957311" lat="35.451034">
        <ele>361.9</ele>
        <time>2025-12-29T16:09:11.828Z</time>
      </trkpt>
      <trkpt lon="-86.957124" lat="35.451134">
        <ele>363.041</ele>
        <time>2025-12-29T16:09:12.468Z</time>
      </trkpt>
      <trkpt lon="-86.956957" lat="35.451258">
        <ele>363.96</ele>
        <time>2025-12-29T16:09:13.100Z</time>
      </trkpt>
      <trkpt lon="-86.956808" lat="35.451403">
        <ele>364.537</ele>
        <time>2025-12-29T16:09:13.748Z</time>
      </trkpt>
      <trkpt lon="-86.956685" lat="35.451561">
        <ele>364.88</ele>
        <time>2025-12-29T16:09:14.380Z</time>
      </trkpt>
      <trkpt lon="-86.956582" lat="35.451732">
        <ele>364.595</ele>
        <time>2025-12-29T16:09:15.020Z</time>
      </trkpt>
      <trkpt lon="-86.956363" lat="35.452271">
        <ele>360.064</ele>
        <time>2025-12-29T16:09:16.952Z</time>
      </trkpt>
      <trkpt lon="-86.956329" lat="35.452458">
        <ele>358.1</ele>
        <time>2025-12-29T16:09:17.608Z</time>
      </trkpt>
      <trkpt lon="-86.956321" lat="35.452642">
        <ele>356.221</ele>
        <time>2025-12-29T16:09:18.248Z</time>
      </trkpt>
      <trkpt lon="-86.956333" lat="35.452814">
        <ele>354.139</ele>
        <time>2025-12-29T16:09:18.876Z</time>
      </trkpt>
      <trkpt lon="-86.956503" lat="35.453796">
        <ele>332.929</ele>
        <time>2025-12-29T16:09:22.760Z</time>
      </trkpt>
      <trkpt lon="-86.956638" lat="35.454424">
        <ele>312.878</ele>
        <time>2025-12-29T16:09:25.320Z</time>
      </trkpt>
      <trkpt lon="-86.956755" lat="35.455068">
        <ele>291.954</ele>
        <time>2025-12-29T16:09:27.880Z</time>
      </trkpt>
      <trkpt lon="-86.956846" lat="35.455730">
        <ele>271.809</ele>
        <time>2025-12-29T16:09:30.468Z</time>
      </trkpt>
      <trkpt lon="-86.956912" lat="35.456057">
        <ele>262.712</ele>
        <time>2025-12-29T16:09:31.752Z</time>
      </trkpt>
      <trkpt lon="-86.957103" lat="35.456860">
        <ele>246.282</ele>
        <time>2025-12-29T16:09:34.988Z</time>
      </trkpt>
      <trkpt lon="-86.957272" lat="35.457536">
        <ele>245.831</ele>
        <time>2025-12-29T16:09:38.228Z</time>
      </trkpt>
      <trkpt lon="-86.957312" lat="35.457729">
        <ele>245.867</ele>
        <time>2025-12-29T16:09:39.524Z</time>
      </trkpt>
      <trkpt lon="-86.957328" lat="35.457838">
        <ele>245.872</ele>
        <time>2025-12-29T16:09:40.816Z</time>
      </trkpt>
      <trkpt lon="-86.957329" lat="35.457859">
        <ele>245.88</ele>
        <time>2025-12-29T16:09:42.088Z</time>
      </trkpt>
      <trkpt lon="-86.957329" lat="35.457893">
        <ele>245.892</ele>
        <time>2025-12-29T16:11:37.560Z</time>
      </trkpt>
      <trkpt lon="-86.957335" lat="35.457933">
        <ele>245.897</ele>
        <time>2025-12-29T16:11:38.192Z</time>
      </trkpt>
      <trkpt lon="-86.957380" lat="35.458069">
        <ele>245.902</ele>
        <time>2025-12-29T16:11:39.500Z</time>
      </trkpt>
      <trkpt lon="-86.957444" lat="35.458271">
        <ele>245.925</ele>
        <time>2025-12-29T16:11:40.780Z</time>
      </trkpt>
      <trkpt lon="-86.957564" lat="35.458682">
        <ele>246.583</ele>
        <time>2025-12-29T16:11:42.728Z</time>
      </trkpt>
      <trkpt lon="-86.957711" lat="35.459346">
        <ele>257.781</ele>
        <time>2025-12-29T16:11:45.340Z</time>
      </trkpt>
      <trkpt lon="-86.957710" lat="35.459512">
        <ele>262.65</ele>
        <time>2025-12-29T16:11:45.976Z</time>
      </trkpt>
      <trkpt lon="-86.957679" lat="35.459680">
        <ele>267.689</ele>
        <time>2025-12-29T16:11:46.628Z</time>
      </trkpt>
      <trkpt lon="-86.957618" lat="35.459834">
        <ele>272.246</ele>
        <time>2025-12-29T16:11:47.260Z</time>
      </trkpt>
      <trkpt lon="-86.957525" lat="35.459984">
        <ele>276.244</ele>
        <time>2025-12-29T16:11:47.904Z</time>
      </trkpt>
      <trkpt lon="-86.957407" lat="35.460127">
        <ele>279.367</ele>
        <time>2025-12-29T16:11:48.552Z</time>
      </trkpt>
      <trkpt lon="-86.957266" lat="35.460263">
        <ele>281.883</ele>
        <time>2025-12-29T16:11:49.176Z</time>
      </trkpt>
      <trkpt lon="-86.956936" lat="35.460519">
        <ele>286.739</ele>
        <time>2025-12-29T16:11:50.456Z</time>
      </trkpt>
      <trkpt lon="-86.955979" lat="35.461106">
        <ele>309.647</ele>
        <time>2025-12-29T16:11:53.708Z</time>
      </trkpt>
      <trkpt lon="-86.955305" lat="35.461516">
        <ele>333.559</ele>
        <time>2025-12-29T16:11:56.224Z</time>
      </trkpt>
      <trkpt lon="-86.954684" lat="35.461883">
        <ele>352.139</ele>
        <time>2025-12-29T16:11:58.792Z</time>
      </trkpt>
      <trkpt lon="-86.953293" lat="35.462568">
        <ele>358.092</ele>
        <time>2025-12-29T16:12:03.916Z</time>
      </trkpt>
      <trkpt lon="-86.951293" lat="35.463470">
        <ele>352.638</ele>
        <time>2025-12-29T16:12:09.648Z</time>
      </trkpt>
      <trkpt lon="-86.944782" lat="35.466466">
        <ele>357.302</ele>
        <time>2025-12-29T16:12:26.932Z</time>
      </trkpt>
      <trkpt lon="-86.934409" lat="35.470648">
        <ele>381.076</ele>
        <time>2025-12-29T16:12:49.276Z</time>
      </trkpt>
      <trkpt lon="-86.926878" lat="35.473262">
        <ele>405.489</ele>
        <time>2025-12-29T16:13:04.560Z</time>
      </trkpt>
      <trkpt lon="-86.918862" lat="35.475699">
        <ele>431.074</ele>
        <time>2025-12-29T16:13:20.484Z</time>
      </trkpt>
      <trkpt lon="-86.910729" lat="35.477819">
        <ele>456.727</ele>
        <time>2025-12-29T16:13:36.396Z</time>
      </trkpt>
      <trkpt lon="-86.902856" lat="35.479755">
        <ele>482.884</ele>
        <time>2025-12-29T16:13:51.752Z</time>
      </trkpt>
      <trkpt lon="-86.893723" lat="35.482066">
        <ele>511.22</ele>
        <time>2025-12-29T16:14:09.624Z</time>
      </trkpt>
      <trkpt lon="-86.884602" lat="35.484439">
        <ele>539.432</ele>
        <time>2025-12-29T16:14:27.492Z</time>
      </trkpt>
      <trkpt lon="-86.873556" lat="35.487404">
        <ele>570.966</ele>
        <time>2025-12-29T16:14:49.204Z</time>
      </trkpt>
      <trkpt lon="-86.863523" lat="35.490201">
        <ele>602.284</ele>
        <time>2025-12-29T16:15:08.960Z</time>
      </trkpt>
      <trkpt lon="-86.852182" lat="35.493470">
        <ele>635.751</ele>
        <time>2025-12-29T16:15:31.344Z</time>
      </trkpt>
      <trkpt lon="-86.840002" lat="35.497106">
        <ele>669.647</ele>
        <time>2025-12-29T16:15:55.468Z</time>
      </trkpt>
      <trkpt lon="-86.828196" lat="35.500755">
        <ele>706.911</ele>
        <time>2025-12-29T16:16:18.952Z</time>
      </trkpt>
      <trkpt lon="-86.816489" lat="35.504499">
        <ele>736.36</ele>
        <time>2025-12-29T16:16:42.532Z</time>
      </trkpt>
      <trkpt lon="-86.815944" lat="35.504644">
        <ele>735.372</ele>
        <time>2025-12-29T16:16:43.820Z</time>
      </trkpt>
      <trkpt lon="-86.815467" lat="35.504727">
        <ele>739.89</ele>
        <time>2025-12-29T16:16:45.096Z</time>
      </trkpt>
      <trkpt lon="-86.814868" lat="35.504794">
        <ele>746.838</ele>
        <time>2025-12-29T16:16:47.024Z</time>
      </trkpt>
      <trkpt lon="-86.813231" lat="35.505041">
        <ele>702.64</ele>
        <time>2025-12-29T16:16:53.400Z</time>
      </trkpt>
      <trkpt lon="-86.813050" lat="35.505048">
        <ele>693.671</ele>
        <time>2025-12-29T16:16:54.028Z</time>
      </trkpt>
      <trkpt lon="-86.812863" lat="35.505037">
        <ele>683.758</ele>
        <time>2025-12-29T16:16:54.668Z</time>
      </trkpt>
      <trkpt lon="-86.812682" lat="35.505002">
        <ele>673.266</ele>
        <time>2025-12-29T16:16:55.300Z</time>
      </trkpt>
      <trkpt lon="-86.812506" lat="35.504939">
        <ele>662.044</ele>
        <time>2025-12-29T16:16:55.940Z</time>
      </trkpt>
      <trkpt lon="-86.812338" lat="35.504849">
        <ele>650.988</ele>
        <time>2025-12-29T16:16:56.584Z</time>
      </trkpt>
      <trkpt lon="-86.812188" lat="35.504735">
        <ele>640.82</ele>
        <time>2025-12-29T16:16:57.216Z</time>
      </trkpt>
      <trkpt lon="-86.812047" lat="35.504595">
        <ele>631.126</ele>
        <time>2025-12-29T16:16:57.876Z</time>
      </trkpt>
      <trkpt lon="-86.811668" lat="35.504170">
        <ele>605.752</ele>
        <time>2025-12-29T16:16:59.780Z</time>
      </trkpt>
      <trkpt lon="-86.811521" lat="35.504044">
        <ele>597.326</ele>
        <time>2025-12-29T16:17:00.408Z</time>
      </trkpt>
      <trkpt lon="-86.811353" lat="35.503930">
        <ele>589.154</ele>
        <time>2025-12-29T16:17:01.048Z</time>
      </trkpt>
      <trkpt lon="-86.810451" lat="35.503419">
        <ele>562.039</ele>
        <time>2025-12-29T16:17:04.236Z</time>
      </trkpt>
      <trkpt lon="-86.810303" lat="35.503299">
        <ele>558.376</ele>
        <time>2025-12-29T16:17:04.872Z</time>
      </trkpt>
      <trkpt lon="-86.810184" lat="35.503168">
        <ele>554.421</ele>
        <time>2025-12-29T16:17:05.508Z</time>
      </trkpt>
      <trkpt lon="-86.810095" lat="35.503028">
        <ele>549.684</ele>
        <time>2025-12-29T16:17:06.144Z</time>
      </trkpt>
      <trkpt lon="-86.810035" lat="35.502875">
        <ele>543.609</ele>
        <time>2025-12-29T16:17:06.808Z</time>
      </trkpt>
      <trkpt lon="-86.810002" lat="35.502726">
        <ele>536.801</ele>
        <time>2025-12-29T16:17:07.436Z</time>
      </trkpt>
      <trkpt lon="-86.809950" lat="35.502265">
        <ele>514.763</ele>
        <time>2025-12-29T16:17:09.348Z</time>
      </trkpt>
      <trkpt lon="-86.809919" lat="35.502106">
        <ele>507.876</ele>
        <time>2025-12-29T16:17:09.996Z</time>
      </trkpt>
      <trkpt lon="-86.809871" lat="35.501956">
        <ele>501.751</ele>
        <time>2025-12-29T16:17:10.616Z</time>
      </trkpt>
      <trkpt lon="-86.809712" lat="35.501668">
        <ele>488.688</ele>
        <time>2025-12-29T16:17:11.880Z</time>
      </trkpt>
      <trkpt lon="-86.809593" lat="35.501540">
        <ele>482.063</ele>
        <time>2025-12-29T16:17:12.520Z</time>
      </trkpt>
      <trkpt lon="-86.809441" lat="35.501431">
        <ele>475.144</ele>
        <time>2025-12-29T16:17:13.164Z</time>
      </trkpt>
      <trkpt lon="-86.809267" lat="35.501347">
        <ele>468.017</ele>
        <time>2025-12-29T16:17:13.812Z</time>
      </trkpt>
      <trkpt lon="-86.809080" lat="35.501287">
        <ele>460.636</ele>
        <time>2025-12-29T16:17:14.452Z</time>
      </trkpt>
      <trkpt lon="-86.808884" lat="35.501245">
        <ele>452.578</ele>
        <time>2025-12-29T16:17:15.092Z</time>
      </trkpt>
      <trkpt lon="-86.808479" lat="35.501200">
        <ele>435.49</ele>
        <time>2025-12-29T16:17:16.368Z</time>
      </trkpt>
      <trkpt lon="-86.808270" lat="35.501195">
        <ele>426.98</ele>
        <time>2025-12-29T16:17:17.008Z</time>
      </trkpt>
      <trkpt lon="-86.807839" lat="35.501218">
        <ele>410.359</ele>
        <time>2025-12-29T16:17:18.276Z</time>
      </trkpt>
      <trkpt lon="-86.807396" lat="35.501304">
        <ele>394.566</ele>
        <time>2025-12-29T16:17:19.592Z</time>
      </trkpt>
      <trkpt lon="-86.807186" lat="35.501376">
        <ele>386.806</ele>
        <time>2025-12-29T16:17:20.248Z</time>
      </trkpt>
      <trkpt lon="-86.806989" lat="35.501464">
        <ele>379.072</ele>
        <time>2025-12-29T16:17:20.876Z</time>
      </trkpt>
      <trkpt lon="-86.806624" lat="35.501677">
        <ele>363.653</ele>
        <time>2025-12-29T16:17:22.144Z</time>
      </trkpt>
      <trkpt lon="-86.806298" lat="35.501929">
        <ele>349.428</ele>
        <time>2025-12-29T16:17:23.404Z</time>
      </trkpt>
      <trkpt lon="-86.806011" lat="35.502213">
        <ele>335.821</ele>
        <time>2025-12-29T16:17:24.676Z</time>
      </trkpt>
      <trkpt lon="-86.805636" lat="35.502677">
        <ele>316.827</ele>
        <time>2025-12-29T16:17:26.596Z</time>
      </trkpt>
      <trkpt lon="-86.805335" lat="35.503162">
        <ele>299.146</ele>
        <time>2025-12-29T16:17:28.496Z</time>
      </trkpt>
      <trkpt lon="-86.805074" lat="35.503659">
        <ele>280.985</ele>
        <time>2025-12-29T16:17:30.428Z</time>
      </trkpt>
      <trkpt lon="-86.804835" lat="35.504158">
        <ele>262.734</ele>
        <time>2025-12-29T16:17:32.376Z</time>
      </trkpt>
      <trkpt lon="-86.804768" lat="35.504325">
        <ele>257.532</ele>
        <time>2025-12-29T16:17:33.008Z</time>
      </trkpt>
      <trkpt lon="-86.804522" lat="35.505170">
        <ele>240.282</ele>
        <time>2025-12-29T16:17:36.216Z</time>
      </trkpt>
      <trkpt lon="-86.804297" lat="35.505946">
        <ele>227.398</ele>
        <time>2025-12-29T16:17:39.448Z</time>
      </trkpt>
      <trkpt lon="-86.803995" lat="35.506746">
        <ele>218.074</ele>
        <time>2025-12-29T16:17:43.316Z</time>
      </trkpt>
      <trkpt lon="-86.803907" lat="35.507077">
        <ele>218.065</ele>
        <time>2025-12-29T16:17:45.256Z</time>
      </trkpt>
      <trkpt lon="-86.803873" lat="35.507208">
        <ele>218.051</ele>
        <time>2025-12-29T16:17:46.516Z</time>
      </trkpt>
      <trkpt lon="-86.803862" lat="35.507254">
        <ele>218.045</ele>
        <time>2025-12-29T16:17:47.792Z</time>
      </trkpt>
    </trkseg>
    <trkseg>
      <trkpt lon="-86.957291" lat="35.457917">
        <ele>245.187</ele>
        <time>2025-12-29T16:18:25.772Z</time>
      </trkpt>
      <trkpt lon="-86.957287" lat="35.457934">
        <ele>245.922</ele>
        <time>2025-12-29T16:19:17.828Z</time>
      </trkpt>
      <trkpt lon="-86.957285" lat="35.457968">
        <ele>245.933</ele>
        <time>2025-12-29T16:19:18.472Z</time>
      </trkpt>
      <trkpt lon="-86.957302" lat="35.458098">
        <ele>245.959</ele>
        <time>2025-12-29T16:19:19.768Z</time>
      </trkpt>
      <trkpt lon="-86.957341" lat="35.458303">
        <ele>245.978</ele>
        <time>2025-12-29T16:19:21.068Z</time>
      </trkpt>
      <trkpt lon="-86.957443" lat="35.458570">
        <ele>245.99</ele>
        <time>2025-12-29T16:19:22.376Z</time>
      </trkpt>
      <trkpt lon="-86.957507" lat="35.458728">
        <ele>245.989</ele>
        <time>2025-12-29T16:19:23.036Z</time>
      </trkpt>
      <trkpt lon="-86.957673" lat="35.459307">
        <ele>246.115</ele>
        <time>2025-12-29T16:19:25.020Z</time>
      </trkpt>
      <trkpt lon="-86.957809" lat="35.459989">
        <ele>246.969</ele>
        <time>2025-12-29T16:19:26.928Z</time>
      </trkpt>
      <trkpt lon="-86.957906" lat="35.460715">
        <ele>264.115</ele>
        <time>2025-12-29T16:19:28.832Z</time>
      </trkpt>
      <trkpt lon="-86.957893" lat="35.461186">
        <ele>283.766</ele>
        <time>2025-12-29T16:19:30.120Z</time>
      </trkpt>
      <trkpt lon="-86.957794" lat="35.461635">
        <ele>302.99</ele>
        <time>2025-12-29T16:19:31.400Z</time>
      </trkpt>
      <trkpt lon="-86.957604" lat="35.462057">
        <ele>319.67</ele>
        <time>2025-12-29T16:19:32.660Z</time>
      </trkpt>
      <trkpt lon="-86.957472" lat="35.462259">
        <ele>326.719</ele>
        <time>2025-12-29T16:19:33.288Z</time>
      </trkpt>
      <trkpt lon="-86.957311" lat="35.462455">
        <ele>332.743</ele>
        <time>2025-12-29T16:19:33.924Z</time>
      </trkpt>
      <trkpt lon="-86.957124" lat="35.462641">
        <ele>337.545</ele>
        <time>2025-12-29T16:19:34.568Z</time>
      </trkpt>
      <trkpt lon="-86.956683" lat="35.462979">
        <ele>344.033</ele>
        <time>2025-12-29T16:19:35.844Z</time>
      </trkpt>
      <trkpt lon="-86.955921" lat="35.463430">
        <ele>349.545</ele>
        <time>2025-12-29T16:19:37.748Z</time>
      </trkpt>
      <trkpt lon="-86.952793" lat="35.465045">
        <ele>372.244</ele>
        <time>2025-12-29T16:19:44.756Z</time>
      </trkpt>
      <trkpt lon="-86.945918" lat="35.468992">
        <ele>362.903</ele>
        <time>2025-12-29T16:20:01.920Z</time>
      </trkpt>
      <trkpt lon="-86.935099" lat="35.475534">
        <ele>342.803</ele>
        <time>2025-12-29T16:20:31.976Z</time>
      </trkpt>
      <trkpt lon="-86.925471" lat="35.480795">
        <ele>324.083</ele>
        <time>2025-12-29T16:20:58.248Z</time>
      </trkpt>
      <trkpt lon="-86.914538" lat="35.486116">
        <ele>324.623</ele>
        <time>2025-12-29T16:21:28.508Z</time>
      </trkpt>
      <trkpt lon="-86.903723" lat="35.490715">
        <ele>321.364</ele>
        <time>2025-12-29T16:21:58.656Z</time>
      </trkpt>
      <trkpt lon="-86.892621" lat="35.494769">
        <ele>314.536</ele>
        <time>2025-12-29T16:22:28.856Z</time>
      </trkpt>
      <trkpt lon="-86.881300" lat="35.498254">
        <ele>308.66</ele>
        <time>2025-12-29T16:22:58.924Z</time>
      </trkpt>
      <trkpt lon="-86.869676" lat="35.501194">
        <ele>302.187</ele>
        <time>2025-12-29T16:23:29.224Z</time>
      </trkpt>
      <trkpt lon="-86.857873" lat="35.503587">
        <ele>298.725</ele>
        <time>2025-12-29T16:23:59.528Z</time>
      </trkpt>
      <trkpt lon="-86.846017" lat="35.505778">
        <ele>298.168</ele>
        <time>2025-12-29T16:24:29.684Z</time>
      </trkpt>
      <trkpt lon="-86.834272" lat="35.508679">
        <ele>299.535</ele>
        <time>2025-12-29T16:24:59.880Z</time>
      </trkpt>
      <trkpt lon="-86.822820" lat="35.512301">
        <ele>302.999</ele>
        <time>2025-12-29T16:25:30.044Z</time>
      </trkpt>
      <trkpt lon="-86.811703" lat="35.516612">
        <ele>304.599</ele>
        <time>2025-12-29T16:26:00.212Z</time>
      </trkpt>
      <trkpt lon="-86.811217" lat="35.516720">
        <ele>306.394</ele>
        <time>2025-12-29T16:26:01.484Z</time>
      </trkpt>
      <trkpt lon="-86.810727" lat="35.516758">
        <ele>307.973</ele>
        <time>2025-12-29T16:26:02.752Z</time>
      </trkpt>
      <trkpt lon="-86.810476" lat="35.516750">
        <ele>308.526</ele>
        <time>2025-12-29T16:26:03.400Z</time>
      </trkpt>
      <trkpt lon="-86.809989" lat="35.516681">
        <ele>308.869</ele>
        <time>2025-12-29T16:26:04.668Z</time>
      </trkpt>
      <trkpt lon="-86.809747" lat="35.516619">
        <ele>308.841</ele>
        <time>2025-12-29T16:26:05.304Z</time>
      </trkpt>
      <trkpt lon="-86.809278" lat="35.516444">
        <ele>308.983</ele>
        <time>2025-12-29T16:26:06.608Z</time>
      </trkpt>
      <trkpt lon="-86.808852" lat="35.516215">
        <ele>309.727</ele>
        <time>2025-12-29T16:26:07.876Z</time>
      </trkpt>
      <trkpt lon="-86.808467" lat="35.515928">
        <ele>310.604</ele>
        <time>2025-12-29T16:26:09.176Z</time>
      </trkpt>
      <trkpt lon="-86.808142" lat="35.515602">
        <ele>311.621</ele>
        <time>2025-12-29T16:26:10.452Z</time>
      </trkpt>
      <trkpt lon="-86.807871" lat="35.515235">
        <ele>312.977</ele>
        <time>2025-12-29T16:26:11.748Z</time>
      </trkpt>
      <trkpt lon="-86.807663" lat="35.514846">
        <ele>315.025</ele>
        <time>2025-12-29T16:26:13.040Z</time>
      </trkpt>
      <trkpt lon="-86.807289" lat="35.513868">
        <ele>323.14</ele>
        <time>2025-12-29T16:26:16.220Z</time>
      </trkpt>
      <trkpt lon="-86.807072" lat="35.513513">
        <ele>325.553</ele>
        <time>2025-12-29T16:26:17.476Z</time>
      </trkpt>
      <trkpt lon="-86.806788" lat="35.513177">
        <ele>326.581</ele>
        <time>2025-12-29T16:26:18.764Z</time>
      </trkpt>
      <trkpt lon="-86.806640" lat="35.513031">
        <ele>327.345</ele>
        <time>2025-12-29T16:26:19.396Z</time>
      </trkpt>
      <trkpt lon="-86.806219" lat="35.512692">
        <ele>332.862</ele>
        <time>2025-12-29T16:26:21.284Z</time>
      </trkpt>
      <trkpt lon="-86.805963" lat="35.512516">
        <ele>330.58</ele>
        <time>2025-12-29T16:26:22.556Z</time>
      </trkpt>
      <trkpt lon="-86.805548" lat="35.512269">
        <ele>317.207</ele>
        <time>2025-12-29T16:26:24.560Z</time>
      </trkpt>
      <trkpt lon="-86.804944" lat="35.511932">
        <ele>297.391</ele>
        <time>2025-12-29T16:26:27.128Z</time>
      </trkpt>
      <trkpt lon="-86.804652" lat="35.511723">
        <ele>289.765</ele>
        <time>2025-12-29T16:26:28.396Z</time>
      </trkpt>
      <trkpt lon="-86.804522" lat="35.511604">
        <ele>286.305</ele>
        <time>2025-12-29T16:26:29.036Z</time>
      </trkpt>
      <trkpt lon="-86.804410" lat="35.511479">
        <ele>283.036</ele>
        <time>2025-12-29T16:26:29.664Z</time>
      </trkpt>
      <trkpt lon="-86.804220" lat="35.511203">
        <ele>277.019</ele>
        <time>2025-12-29T16:26:30.968Z</time>
      </trkpt>
      <trkpt lon="-86.803937" lat="35.510644">
        <ele>268.596</ele>
        <time>2025-12-29T16:26:33.532Z</time>
      </trkpt>
      <trkpt lon="-86.803804" lat="35.510222">
        <ele>262.183</ele>
        <time>2025-12-29T16:26:35.476Z</time>
      </trkpt>
      <trkpt lon="-86.803724" lat="35.509793">
        <ele>255.452</ele>
        <time>2025-12-29T16:26:37.392Z</time>
      </trkpt>
      <trkpt lon="-86.803693" lat="35.509203">
        <ele>250.425</ele>
        <time>2025-12-29T16:26:39.948Z</time>
      </trkpt>
      <trkpt lon="-86.803737" lat="35.508634">
        <ele>246.709</ele>
        <time>2025-12-29T16:26:42.536Z</time>
      </trkpt>
      <trkpt lon="-86.803866" lat="35.507543">
        <ele>230.481</ele>
        <time>2025-12-29T16:26:47.724Z</time>
      </trkpt>
      <trkpt lon="-86.803897" lat="35.507268">
        <ele>226.658</ele>
        <time>2025-12-29T16:26:49.020Z</time>
      </trkpt>
      <trkpt lon="-86.803953" lat="35.506987">
        <ele>224.244</ele>
        <time>2025-12-29T16:26:50.316Z</time>
      </trkpt>
      <trkpt lon="-86.804277" lat="35.505944">
        <ele>220.823</ele>
        <time>2025-12-29T16:26:55.444Z</time>
      </trkpt>
      <trkpt lon="-86.804687" lat="35.504913">
        <ele>218.492</ele>
        <time>2025-12-29T16:27:01.236Z</time>
      </trkpt>
      <trkpt lon="-86.804731" lat="35.504782">
        <ele>218.474</ele>
        <time>2025-12-29T16:27:02.528Z</time>
      </trkpt>
      <trkpt lon="-86.804746" lat="35.504738">
        <ele>218.465</ele>
        <time>2025-12-29T16:27:03.820Z</time>
      </trkpt>
      <trkpt lon="-86.804751" lat="35.504724">
        <ele>218.476</ele>
        <time>2025-12-29T16:38:18.272Z</time>
      </trkpt>
      <trkpt lon="-86.804781" lat="35.504645">
        <ele>218.47</ele>
        <time>2025-12-29T16:38:19.560Z</time>
      </trkpt>
      <trkpt lon="-86.804840" lat="35.504494">
        <ele>218.47</ele>
        <time>2025-12-29T16:38:20.852Z</time>
      </trkpt>
      <trkpt lon="-86.804917" lat="35.504278">
        <ele>218.412</ele>
        <time>2025-12-29T16:38:22.124Z</time>
      </trkpt>
      <trkpt lon="-86.805002" lat="35.503998">
        <ele>218.327</ele>
        <time>2025-12-29T16:38:23.416Z</time>
      </trkpt>
      <trkpt lon="-86.805175" lat="35.503486">
        <ele>218.303</ele>
        <time>2025-12-29T16:38:25.312Z</time>
      </trkpt>
      <trkpt lon="-86.805492" lat="35.502657">
        <ele>225.123</ele>
        <time>2025-12-29T16:38:27.884Z</time>
      </trkpt>
      <trkpt lon="-86.805751" lat="35.502004">
        <ele>242.875</ele>
        <time>2025-12-29T16:38:29.816Z</time>
      </trkpt>
      <trkpt lon="-86.805923" lat="35.501593">
        <ele>260.88</ele>
        <time>2025-12-29T16:38:31.096Z</time>
      </trkpt>
      <trkpt lon="-86.806085" lat="35.501215">
        <ele>282.857</ele>
        <time>2025-12-29T16:38:32.372Z</time>
      </trkpt>
      <trkpt lon="-86.806236" lat="35.500882">
        <ele>307.097</ele>
        <time>2025-12-29T16:38:33.640Z</time>
      </trkpt>
      <trkpt lon="-86.806380" lat="35.500592">
        <ele>332.428</ele>
        <time>2025-12-29T16:38:34.912Z</time>
      </trkpt>
      <trkpt lon="-86.806524" lat="35.500345">
        <ele>357.179</ele>
        <time>2025-12-29T16:38:36.196Z</time>
      </trkpt>
      <trkpt lon="-86.806753" lat="35.500011">
        <ele>385.722</ele>
        <time>2025-12-29T16:38:38.108Z</time>
      </trkpt>
      <trkpt lon="-86.806898" lat="35.499776">
        <ele>399.29</ele>
        <time>2025-12-29T16:38:39.376Z</time>
      </trkpt>
      <trkpt lon="-86.806953" lat="35.499647">
        <ele>404.243</ele>
        <time>2025-12-29T16:38:40.020Z</time>
      </trkpt>
      <trkpt lon="-86.806988" lat="35.499505">
        <ele>407.577</ele>
        <time>2025-12-29T16:38:40.656Z</time>
      </trkpt>
      <trkpt lon="-86.806999" lat="35.499354">
        <ele>409.168</ele>
        <time>2025-12-29T16:38:41.284Z</time>
      </trkpt>
      <trkpt lon="-86.806984" lat="35.499189">
        <ele>409.207</ele>
        <time>2025-12-29T16:38:41.928Z</time>
      </trkpt>
      <trkpt lon="-86.806942" lat="35.499014">
        <ele>408.156</ele>
        <time>2025-12-29T16:38:42.572Z</time>
      </trkpt>
      <trkpt lon="-86.806873" lat="35.498834">
        <ele>406.504</ele>
        <time>2025-12-29T16:38:43.200Z</time>
      </trkpt>
      <trkpt lon="-86.806768" lat="35.498646">
        <ele>405.226</ele>
        <time>2025-12-29T16:38:43.848Z</time>
      </trkpt>
      <trkpt lon="-86.806623" lat="35.498466">
        <ele>405.147</ele>
        <time>2025-12-29T16:38:44.488Z</time>
      </trkpt>
      <trkpt lon="-86.806442" lat="35.498309">
        <ele>406.215</ele>
        <time>2025-12-29T16:38:45.112Z</time>
      </trkpt>
      <trkpt lon="-86.806219" lat="35.498166">
        <ele>407.457</ele>
        <time>2025-12-29T16:38:45.768Z</time>
      </trkpt>
      <trkpt lon="-86.805962" lat="35.498052">
        <ele>409.48</ele>
        <time>2025-12-29T16:38:46.412Z</time>
      </trkpt>
      <trkpt lon="-86.805689" lat="35.497977">
        <ele>412.638</ele>
        <time>2025-12-29T16:38:47.044Z</time>
      </trkpt>
      <trkpt lon="-86.805405" lat="35.497941">
        <ele>416.865</ele>
        <time>2025-12-29T16:38:47.660Z</time>
      </trkpt>
      <trkpt lon="-86.805107" lat="35.497943">
        <ele>422.231</ele>
        <time>2025-12-29T16:38:48.304Z</time>
      </trkpt>
      <trkpt lon="-86.804819" lat="35.497984">
        <ele>428.318</ele>
        <time>2025-12-29T16:38:48.936Z</time>
      </trkpt>
      <trkpt lon="-86.804534" lat="35.498056">
        <ele>434.824</ele>
        <time>2025-12-29T16:38:49.584Z</time>
      </trkpt>
      <trkpt lon="-86.803519" lat="35.498431">
        <ele>468.25</ele>
        <time>2025-12-29T16:38:52.116Z</time>
      </trkpt>
      <trkpt lon="-86.802873" lat="35.498709">
        <ele>502.731</ele>
        <time>2025-12-29T16:38:54.036Z</time>
      </trkpt>
      <trkpt lon="-86.802342" lat="35.498958">
        <ele>539.685</ele>
        <time>2025-12-29T16:38:55.940Z</time>
      </trkpt>
      <trkpt lon="-86.801913" lat="35.499182">
        <ele>573.97</ele>
        <time>2025-12-29T16:38:57.860Z</time>
      </trkpt>
      <trkpt lon="-86.801437" lat="35.499456">
        <ele>610.618</ele>
        <time>2025-12-29T16:39:00.412Z</time>
      </trkpt>
      <trkpt lon="-86.800958" lat="35.499704">
        <ele>633.862</ele>
        <time>2025-12-29T16:39:02.952Z</time>
      </trkpt>
      <trkpt lon="-86.800672" lat="35.499814">
        <ele>639.955</ele>
        <time>2025-12-29T16:39:04.216Z</time>
      </trkpt>
      <trkpt lon="-86.800141" lat="35.499973">
        <ele>643.182</ele>
        <time>2025-12-29T16:39:06.132Z</time>
      </trkpt>
      <trkpt lon="-86.799493" lat="35.500158">
        <ele>643.478</ele>
        <time>2025-12-29T16:39:08.040Z</time>
      </trkpt>
      <trkpt lon="-86.798470" lat="35.500445">
        <ele>648.943</ele>
        <time>2025-12-29T16:39:10.592Z</time>
      </trkpt>
      <trkpt lon="-86.797030" lat="35.500839">
        <ele>658.087</ele>
        <time>2025-12-29T16:39:13.756Z</time>
      </trkpt>
      <trkpt lon="-86.793283" lat="35.501845">
        <ele>696.103</ele>
        <time>2025-12-29T16:39:21.364Z</time>
      </trkpt>
      <trkpt lon="-86.787765" lat="35.503430">
        <ele>730.651</ele>
        <time>2025-12-29T16:39:34.180Z</time>
      </trkpt>
      <trkpt lon="-86.777409" lat="35.506797">
        <ele>771.754</ele>
        <time>2025-12-29T16:40:00.276Z</time>
      </trkpt>
      <trkpt lon="-86.766128" lat="35.511099">
        <ele>814.814</ele>
        <time>2025-12-29T16:40:29.532Z</time>
      </trkpt>
      <trkpt lon="-86.758440" lat="35.514463">
        <ele>845.434</ele>
        <time>2025-12-29T16:40:49.940Z</time>
      </trkpt>
      <trkpt lon="-86.756203" lat="35.515718">
        <ele>855.045</ele>
        <time>2025-12-29T16:40:56.284Z</time>
      </trkpt>
      <trkpt lon="-86.754114" lat="35.517147">
        <ele>864.703</ele>
        <time>2025-12-29T16:41:02.632Z</time>
      </trkpt>
      <trkpt lon="-86.752360" lat="35.518587">
        <ele>873.42</ele>
        <time>2025-12-29T16:41:08.408Z</time>
      </trkpt>
      <trkpt lon="-86.749562" lat="35.521383">
        <ele>888.843</ele>
        <time>2025-12-29T16:41:18.644Z</time>
      </trkpt>
      <trkpt lon="-86.746080" lat="35.525496">
        <ele>910.839</ele>
        <time>2025-12-29T16:41:32.740Z</time>
      </trkpt>
      <trkpt lon="-86.743204" lat="35.529614">
        <ele>930.998</ele>
        <time>2025-12-29T16:41:46.084Z</time>
      </trkpt>
      <trkpt lon="-86.740640" lat="35.534150">
        <ele>951.126</ele>
        <time>2025-12-29T16:42:00.096Z</time>
      </trkpt>
      <trkpt lon="-86.738568" lat="35.538868">
        <ele>971.042</ele>
        <time>2025-12-29T16:42:14.112Z</time>
      </trkpt>
      <trkpt lon="-86.735062" lat="35.549506">
        <ele>1009.31</ele>
        <time>2025-12-29T16:42:44.608Z</time>
      </trkpt>
      <trkpt lon="-86.731161" lat="35.559334">
        <ele>1034.08</ele>
        <time>2025-12-29T16:43:12.012Z</time>
      </trkpt>
      <trkpt lon="-86.727486" lat="35.566069">
        <ele>1050.86</ele>
        <time>2025-12-29T16:43:31.108Z</time>
      </trkpt>
      <trkpt lon="-86.720707" lat="35.576532">
        <ele>1078.49</ele>
        <time>2025-12-29T16:44:01.660Z</time>
      </trkpt>
      <trkpt lon="-86.713074" lat="35.586633">
        <ele>1104.34</ele>
        <time>2025-12-29T16:44:32.280Z</time>
      </trkpt>
      <trkpt lon="-86.704475" lat="35.596481">
        <ele>1118.4</ele>
        <time>2025-12-29T16:45:02.776Z</time>
      </trkpt>
      <trkpt lon="-86.694937" lat="35.606002">
        <ele>1128.9</ele>
        <time>2025-12-29T16:45:33.288Z</time>
      </trkpt>
      <trkpt lon="-86.684422" lat="35.615186">
        <ele>1134.75</ele>
        <time>2025-12-29T16:46:03.800Z</time>
      </trkpt>
      <trkpt lon="-86.673199" lat="35.623774">
        <ele>1142.54</ele>
        <time>2025-12-29T16:46:34.268Z</time>
      </trkpt>
      <trkpt lon="-86.661285" lat="35.631749">
        <ele>1149.09</ele>
        <time>2025-12-29T16:47:04.836Z</time>
      </trkpt>
      <trkpt lon="-86.649075" lat="35.639369">
        <ele>1157.23</ele>
        <time>2025-12-29T16:47:35.356Z</time>
      </trkpt>
      <trkpt lon="-86.637258" lat="35.647413">
        <ele>1164.47</ele>
        <time>2025-12-29T16:48:05.896Z</time>
      </trkpt>
      <trkpt lon="-86.625916" lat="35.655885">
        <ele>1171.6</ele>
        <time>2025-12-29T16:48:36.416Z</time>
      </trkpt>
      <trkpt lon="-86.618766" lat="35.661893">
        <ele>1175.79</ele>
        <time>2025-12-29T16:48:56.768Z</time>
      </trkpt>
      <trkpt lon="-86.613511" lat="35.667221">
        <ele>1179.61</ele>
        <time>2025-12-29T16:49:13.360Z</time>
      </trkpt>
      <trkpt lon="-86.608835" lat="35.672889">
        <ele>1184.41</ele>
        <time>2025-12-29T16:49:29.908Z</time>
      </trkpt>
      <trkpt lon="-86.604621" lat="35.679095">
        <ele>1189.1</ele>
        <time>2025-12-29T16:49:47.068Z</time>
      </trkpt>
      <trkpt lon="-86.598398" lat="35.690737">
        <ele>1196.98</ele>
        <time>2025-12-29T16:50:17.688Z</time>
      </trkpt>
      <trkpt lon="-86.592887" lat="35.702634">
        <ele>1203.54</ele>
        <time>2025-12-29T16:50:48.280Z</time>
      </trkpt>
      <trkpt lon="-86.588061" lat="35.714675">
        <ele>1210.48</ele>
        <time>2025-12-29T16:51:18.736Z</time>
      </trkpt>
      <trkpt lon="-86.583258" lat="35.726789">
        <ele>1218.04</ele>
        <time>2025-12-29T16:51:49.264Z</time>
      </trkpt>
      <trkpt lon="-86.577531" lat="35.738665">
        <ele>1224.11</ele>
        <time>2025-12-29T16:52:19.884Z</time>
      </trkpt>
      <trkpt lon="-86.570896" lat="35.750150">
        <ele>1229.46</ele>
        <time>2025-12-29T16:52:50.400Z</time>
      </trkpt>
      <trkpt lon="-86.563357" lat="35.761248">
        <ele>1236.34</ele>
        <time>2025-12-29T16:53:20.924Z</time>
      </trkpt>
      <trkpt lon="-86.554938" lat="35.771926">
        <ele>1242.55</ele>
        <time>2025-12-29T16:53:51.472Z</time>
      </trkpt>
      <trkpt lon="-86.545846" lat="35.781958">
        <ele>1249.01</ele>
        <time>2025-12-29T16:54:21.532Z</time>
      </trkpt>
      <trkpt lon="-86.535818" lat="35.791631">
        <ele>1254.87</ele>
        <time>2025-12-29T16:54:52.044Z</time>
      </trkpt>
      <trkpt lon="-86.525035" lat="35.800744">
        <ele>1260.82</ele>
        <time>2025-12-29T16:55:22.564Z</time>
      </trkpt>
      <trkpt lon="-86.513742" lat="35.809117">
        <ele>1268.31</ele>
        <time>2025-12-29T16:55:52.636Z</time>
      </trkpt>
      <trkpt lon="-86.501790" lat="35.816896">
        <ele>1276.62</ele>
        <time>2025-12-29T16:56:22.756Z</time>
      </trkpt>
      <trkpt lon="-86.489129" lat="35.824104">
        <ele>1284.05</ele>
        <time>2025-12-29T16:56:53.152Z</time>
      </trkpt>
      <trkpt lon="-86.476621" lat="35.831301">
        <ele>1290.9</ele>
        <time>2025-12-29T16:57:23.364Z</time>
      </trkpt>
      <trkpt lon="-86.464333" lat="35.839070">
        <ele>1298.31</ele>
        <time>2025-12-29T16:57:54.012Z</time>
      </trkpt>
      <trkpt lon="-86.452697" lat="35.847137">
        <ele>1304.83</ele>
        <time>2025-12-29T16:58:24.100Z</time>
      </trkpt>
      <trkpt lon="-86.441510" lat="35.855624">
        <ele>1310.89</ele>
        <time>2025-12-29T16:58:54.168Z</time>
      </trkpt>
      <trkpt lon="-86.430615" lat="35.864669">
        <ele>1317.95</ele>
        <time>2025-12-29T16:59:24.732Z</time>
      </trkpt>
      <trkpt lon="-86.420402" lat="35.873947">
        <ele>1325.16</ele>
        <time>2025-12-29T16:59:54.752Z</time>
      </trkpt>
      <trkpt lon="-86.410525" lat="35.883777">
        <ele>1331.06</ele>
        <time>2025-12-29T17:00:25.344Z</time>
      </trkpt>
      <trkpt lon="-86.401186" lat="35.893985">
        <ele>1336.78</ele>
        <time>2025-12-29T17:00:55.960Z</time>
      </trkpt>
      <trkpt lon="-86.392423" lat="35.904528">
        <ele>1343.34</ele>
        <time>2025-12-29T17:01:26.556Z</time>
      </trkpt>
      <trkpt lon="-86.384248" lat="35.915394">
        <ele>1350</ele>
        <time>2025-12-29T17:01:57.156Z</time>
      </trkpt>
      <trkpt lon="-86.376774" lat="35.926406">
        <ele>1356.23</ele>
        <time>2025-12-29T17:02:27.348Z</time>
      </trkpt>
      <trkpt lon="-86.369896" lat="35.937796">
        <ele>1362.72</ele>
        <time>2025-12-29T17:02:57.800Z</time>
      </trkpt>
      <trkpt lon="-86.363671" lat="35.949488">
        <ele>1368.15</ele>
        <time>2025-12-29T17:03:28.344Z</time>
      </trkpt>
      <trkpt lon="-86.358167" lat="35.961353">
        <ele>1374.86</ele>
        <time>2025-12-29T17:03:58.736Z</time>
      </trkpt>
      <trkpt lon="-86.353382" lat="35.973326">
        <ele>1381.78</ele>
        <time>2025-12-29T17:04:28.896Z</time>
      </trkpt>
      <trkpt lon="-86.349119" lat="35.985502">
        <ele>1388.68</ele>
        <time>2025-12-29T17:04:59.196Z</time>
      </trkpt>
      <trkpt lon="-86.346397" lat="35.991567">
        <ele>1392.32</ele>
        <time>2025-12-29T17:05:14.684Z</time>
      </trkpt>
      <trkpt lon="-86.343025" lat="35.997440">
        <ele>1395.7</ele>
        <time>2025-12-29T17:05:30.252Z</time>
      </trkpt>
      <trkpt lon="-86.337312" lat="36.005287">
        <ele>1399.88</ele>
        <time>2025-12-29T17:05:52.148Z</time>
      </trkpt>
      <trkpt lon="-86.328602" lat="36.015671">
        <ele>1404.63</ele>
        <time>2025-12-29T17:06:22.316Z</time>
      </trkpt>
      <trkpt lon="-86.319101" lat="36.025647">
        <ele>1409.34</ele>
        <time>2025-12-29T17:06:52.612Z</time>
      </trkpt>
      <trkpt lon="-86.308881" lat="36.035135">
        <ele>1415.08</ele>
        <time>2025-12-29T17:07:22.912Z</time>
      </trkpt>
      <trkpt lon="-86.297975" lat="36.044102">
        <ele>1420.69</ele>
        <time>2025-12-29T17:07:53.220Z</time>
      </trkpt>
      <trkpt lon="-86.286412" lat="36.052521">
        <ele>1425.29</ele>
        <time>2025-12-29T17:08:23.608Z</time>
      </trkpt>
      <trkpt lon="-86.274205" lat="36.060447">
        <ele>1430.63</ele>
        <time>2025-12-29T17:08:54.180Z</time>
      </trkpt>
      <trkpt lon="-86.262372" lat="36.068474">
        <ele>1435.68</ele>
        <time>2025-12-29T17:09:24.384Z</time>
      </trkpt>
      <trkpt lon="-86.251003" lat="36.076995">
        <ele>1440.86</ele>
        <time>2025-12-29T17:09:54.664Z</time>
      </trkpt>
      <trkpt lon="-86.240141" lat="36.085981">
        <ele>1446.45</ele>
        <time>2025-12-29T17:10:24.984Z</time>
      </trkpt>
      <trkpt lon="-86.229801" lat="36.095425">
        <ele>1451.65</ele>
        <time>2025-12-29T17:10:55.388Z</time>
      </trkpt>
      <trkpt lon="-86.220031" lat="36.105294">
        <ele>1457.82</ele>
        <time>2025-12-29T17:11:25.816Z</time>
      </trkpt>
      <trkpt lon="-86.210883" lat="36.115536">
        <ele>1464.91</ele>
        <time>2025-12-29T17:11:56.224Z</time>
      </trkpt>
      <trkpt lon="-86.202410" lat="36.126078">
        <ele>1469.37</ele>
        <time>2025-12-29T17:12:26.448Z</time>
      </trkpt>
      <trkpt lon="-86.194539" lat="36.136993">
        <ele>1474.51</ele>
        <time>2025-12-29T17:12:56.812Z</time>
      </trkpt>
      <trkpt lon="-86.187323" lat="36.148179">
        <ele>1480.45</ele>
        <time>2025-12-29T17:13:27.092Z</time>
      </trkpt>
      <trkpt lon="-86.180725" lat="36.159697">
        <ele>1486.47</ele>
        <time>2025-12-29T17:13:57.572Z</time>
      </trkpt>
      <trkpt lon="-86.174616" lat="36.171314">
        <ele>1491.53</ele>
        <time>2025-12-29T17:14:27.832Z</time>
      </trkpt>
      <trkpt lon="-86.167786" lat="36.182688">
        <ele>1495.85</ele>
        <time>2025-12-29T17:14:58.120Z</time>
      </trkpt>
      <trkpt lon="-86.160118" lat="36.193673">
        <ele>1500.75</ele>
        <time>2025-12-29T17:15:28.372Z</time>
      </trkpt>
      <trkpt lon="-86.151583" lat="36.204305">
        <ele>1504.95</ele>
        <time>2025-12-29T17:15:58.792Z</time>
      </trkpt>
      <trkpt lon="-86.142337" lat="36.214407">
        <ele>1511.23</ele>
        <time>2025-12-29T17:16:28.964Z</time>
      </trkpt>
      <trkpt lon="-86.132377" lat="36.224004">
        <ele>1518.94</ele>
        <time>2025-12-29T17:16:59.072Z</time>
      </trkpt>
      <trkpt lon="-86.121683" lat="36.233098">
        <ele>1523.18</ele>
        <time>2025-12-29T17:17:29.252Z</time>
      </trkpt>
      <trkpt lon="-86.110361" lat="36.241597">
        <ele>1527.4</ele>
        <time>2025-12-29T17:17:59.332Z</time>
      </trkpt>
      <trkpt lon="-86.098401" lat="36.249530">
        <ele>1531.01</ele>
        <time>2025-12-29T17:18:29.472Z</time>
      </trkpt>
      <trkpt lon="-86.085902" lat="36.256844">
        <ele>1533.74</ele>
        <time>2025-12-29T17:18:59.576Z</time>
      </trkpt>
      <trkpt lon="-86.073072" lat="36.263809">
        <ele>1538.8</ele>
        <time>2025-12-29T17:19:29.752Z</time>
      </trkpt>
      <trkpt lon="-86.060541" lat="36.271256">
        <ele>1543.66</ele>
        <time>2025-12-29T17:20:00.144Z</time>
      </trkpt>
      <trkpt lon="-86.048524" lat="36.279138">
        <ele>1547.37</ele>
        <time>2025-12-29T17:20:30.348Z</time>
      </trkpt>
      <trkpt lon="-86.036951" lat="36.287489">
        <ele>1552.25</ele>
        <time>2025-12-29T17:21:00.588Z</time>
      </trkpt>
      <trkpt lon="-86.025902" lat="36.296273">
        <ele>1557.63</ele>
        <time>2025-12-29T17:21:30.780Z</time>
      </trkpt>
      <trkpt lon="-86.015385" lat="36.305489">
        <ele>1564.92</ele>
        <time>2025-12-29T17:22:00.960Z</time>
      </trkpt>
      <trkpt lon="-86.005398" lat="36.315148">
        <ele>1569.83</ele>
        <time>2025-12-29T17:22:31.232Z</time>
      </trkpt>
      <trkpt lon="-85.995998" lat="36.325205">
        <ele>1574.25</ele>
        <time>2025-12-29T17:23:01.528Z</time>
      </trkpt>
      <trkpt lon="-85.987211" lat="36.335623">
        <ele>1581.11</ele>
        <time>2025-12-29T17:23:31.808Z</time>
      </trkpt>
      <trkpt lon="-85.979068" lat="36.346369">
        <ele>1587.03</ele>
        <time>2025-12-29T17:24:02.056Z</time>
      </trkpt>
      <trkpt lon="-85.971565" lat="36.357459">
        <ele>1590.59</ele>
        <time>2025-12-29T17:24:32.400Z</time>
      </trkpt>
      <trkpt lon="-85.964714" lat="36.368882">
        <ele>1595.37</ele>
        <time>2025-12-29T17:25:02.852Z</time>
      </trkpt>
      <trkpt lon="-85.958561" lat="36.380582">
        <ele>1599.58</ele>
        <time>2025-12-29T17:25:33.324Z</time>
      </trkpt>
      <trkpt lon="-85.953125" lat="36.392476">
        <ele>1604.2</ele>
        <time>2025-12-29T17:26:03.728Z</time>
      </trkpt>
      <trkpt lon="-85.947674" lat="36.404328">
        <ele>1608.68</ele>
        <time>2025-12-29T17:26:34.020Z</time>
      </trkpt>
      <trkpt lon="-85.941350" lat="36.415850">
        <ele>1613.05</ele>
        <time>2025-12-29T17:27:04.204Z</time>
      </trkpt>
      <trkpt lon="-85.934172" lat="36.427021">
        <ele>1616.11</ele>
        <time>2025-12-29T17:27:34.360Z</time>
      </trkpt>
      <trkpt lon="-85.926135" lat="36.437845">
        <ele>1618.08</ele>
        <time>2025-12-29T17:28:04.608Z</time>
      </trkpt>
      <trkpt lon="-85.917303" lat="36.448287">
        <ele>1622.38</ele>
        <time>2025-12-29T17:28:34.936Z</time>
      </trkpt>
      <trkpt lon="-85.907689" lat="36.458233">
        <ele>1626.94</ele>
        <time>2025-12-29T17:29:05.212Z</time>
      </trkpt>
      <trkpt lon="-85.897394" lat="36.467642">
        <ele>1631.69</ele>
        <time>2025-12-29T17:29:35.340Z</time>
      </trkpt>
      <trkpt lon="-85.886382" lat="36.476590">
        <ele>1634.43</ele>
        <time>2025-12-29T17:30:05.652Z</time>
      </trkpt>
      <trkpt lon="-85.874746" lat="36.485008">
        <ele>1637.23</ele>
        <time>2025-12-29T17:30:35.960Z</time>
      </trkpt>
      <trkpt lon="-85.862525" lat="36.492893">
        <ele>1640.53</ele>
        <time>2025-12-29T17:31:06.320Z</time>
      </trkpt>
      <trkpt lon="-85.849793" lat="36.500200">
        <ele>1644</ele>
        <time>2025-12-29T17:31:36.668Z</time>
      </trkpt>
      <trkpt lon="-85.836607" lat="36.506918">
        <ele>1646.58</ele>
        <time>2025-12-29T17:32:07.004Z</time>
      </trkpt>
      <trkpt lon="-85.822861" lat="36.513104">
        <ele>1650.14</ele>
        <time>2025-12-29T17:32:37.632Z</time>
      </trkpt>
      <trkpt lon="-85.808771" lat="36.518567">
        <ele>1653.67</ele>
        <time>2025-12-29T17:33:08.120Z</time>
      </trkpt>
      <trkpt lon="-85.794366" lat="36.523286">
        <ele>1656.79</ele>
        <time>2025-12-29T17:33:38.464Z</time>
      </trkpt>
      <trkpt lon="-85.779577" lat="36.527279">
        <ele>1660.33</ele>
        <time>2025-12-29T17:34:08.952Z</time>
      </trkpt>
      <trkpt lon="-85.764763" lat="36.530470">
        <ele>1662.97</ele>
        <time>2025-12-29T17:34:38.984Z</time>
      </trkpt>
      <trkpt lon="-85.749502" lat="36.532947">
        <ele>1665.05</ele>
        <time>2025-12-29T17:35:09.512Z</time>
      </trkpt>
      <trkpt lon="-85.734096" lat="36.534746">
        <ele>1668.6</ele>
        <time>2025-12-29T17:35:40.060Z</time>
      </trkpt>
      <trkpt lon="-85.725742" lat="36.536181">
        <ele>1671.12</ele>
        <time>2025-12-29T17:35:56.828Z</time>
      </trkpt>
      <trkpt lon="-85.717875" lat="36.538132">
        <ele>1674.49</ele>
        <time>2025-12-29T17:36:12.976Z</time>
      </trkpt>
      <trkpt lon="-85.710162" lat="36.540655">
        <ele>1676.99</ele>
        <time>2025-12-29T17:36:29.252Z</time>
      </trkpt>
      <trkpt lon="-85.702803" lat="36.543686">
        <ele>1679.6</ele>
        <time>2025-12-29T17:36:45.392Z</time>
      </trkpt>
      <trkpt lon="-85.695786" lat="36.547222">
        <ele>1682.07</ele>
        <time>2025-12-29T17:37:01.540Z</time>
      </trkpt>
      <trkpt lon="-85.689164" lat="36.551238">
        <ele>1684.31</ele>
        <time>2025-12-29T17:37:17.680Z</time>
      </trkpt>
      <trkpt lon="-85.682787" lat="36.555862">
        <ele>1686.8</ele>
        <time>2025-12-29T17:37:34.364Z</time>
      </trkpt>
      <trkpt lon="-85.676920" lat="36.560948">
        <ele>1689.35</ele>
        <time>2025-12-29T17:37:51.104Z</time>
      </trkpt>
      <trkpt lon="-85.671818" lat="36.566230">
        <ele>1691.28</ele>
        <time>2025-12-29T17:38:07.212Z</time>
      </trkpt>
      <trkpt lon="-85.667267" lat="36.571883">
        <ele>1694.39</ele>
        <time>2025-12-29T17:38:23.416Z</time>
      </trkpt>
      <trkpt lon="-85.663362" lat="36.577789">
        <ele>1696.87</ele>
        <time>2025-12-29T17:38:39.508Z</time>
      </trkpt>
      <trkpt lon="-85.660078" lat="36.583985">
        <ele>1698.99</ele>
        <time>2025-12-29T17:38:55.720Z</time>
      </trkpt>
      <trkpt lon="-85.657447" lat="36.590449">
        <ele>1700.99</ele>
        <time>2025-12-29T17:39:12.044Z</time>
      </trkpt>
      <trkpt lon="-85.655542" lat="36.596985">
        <ele>1702.99</ele>
        <time>2025-12-29T17:39:28.172Z</time>
      </trkpt>
      <trkpt lon="-85.654332" lat="36.603685">
        <ele>1705.15</ele>
        <time>2025-12-29T17:39:44.432Z</time>
      </trkpt>
      <trkpt lon="-85.653847" lat="36.610407">
        <ele>1707.48</ele>
        <time>2025-12-29T17:40:00.604Z</time>
      </trkpt>
      <trkpt lon="-85.654082" lat="36.617162">
        <ele>1709.88</ele>
        <time>2025-12-29T17:40:16.836Z</time>
      </trkpt>
      <trkpt lon="-85.655033" lat="36.623836">
        <ele>1712.55</ele>
        <time>2025-12-29T17:40:32.980Z</time>
      </trkpt>
      <trkpt lon="-85.656717" lat="36.630497">
        <ele>1714.96</ele>
        <time>2025-12-29T17:40:49.324Z</time>
      </trkpt>
      <trkpt lon="-85.659113" lat="36.637010">
        <ele>1717.15</ele>
        <time>2025-12-29T17:41:05.684Z</time>
      </trkpt>
      <trkpt lon="-85.662162" lat="36.643251">
        <ele>1718.71</ele>
        <time>2025-12-29T17:41:21.852Z</time>
      </trkpt>
      <trkpt lon="-85.668802" lat="36.654813">
        <ele>1720.59</ele>
        <time>2025-12-29T17:41:52.488Z</time>
      </trkpt>
      <trkpt lon="-85.674602" lat="36.666560">
        <ele>1722.66</ele>
        <time>2025-12-29T17:42:22.860Z</time>
      </trkpt>
      <trkpt lon="-85.679532" lat="36.678594">
        <ele>1725.42</ele>
        <time>2025-12-29T17:42:53.276Z</time>
      </trkpt>
      <trkpt lon="-85.683603" lat="36.690899">
        <ele>1729.06</ele>
        <time>2025-12-29T17:43:23.812Z</time>
      </trkpt>
      <trkpt lon="-85.686760" lat="36.703312">
        <ele>1732.01</ele>
        <time>2025-12-29T17:43:54.180Z</time>
      </trkpt>
      <trkpt lon="-85.688913" lat="36.715347">
        <ele>1735</ele>
        <time>2025-12-29T17:44:23.308Z</time>
      </trkpt>
      <trkpt lon="-85.689125" lat="36.719424">
        <ele>1736.35</ele>
        <time>2025-12-29T17:44:33.124Z</time>
      </trkpt>
      <trkpt lon="-85.688886" lat="36.723447">
        <ele>1737.78</ele>
        <time>2025-12-29T17:44:42.808Z</time>
      </trkpt>
      <trkpt lon="-85.688195" lat="36.727481">
        <ele>1738.91</ele>
        <time>2025-12-29T17:44:52.608Z</time>
      </trkpt>
      <trkpt lon="-85.687068" lat="36.731414">
        <ele>1740.16</ele>
        <time>2025-12-29T17:45:02.324Z</time>
      </trkpt>
      <trkpt lon="-85.685487" lat="36.735303">
        <ele>1741.1</ele>
        <time>2025-12-29T17:45:12.168Z</time>
      </trkpt>
      <trkpt lon="-85.683506" lat="36.739010">
        <ele>1742.27</ele>
        <time>2025-12-29T17:45:21.880Z</time>
      </trkpt>
      <trkpt lon="-85.681120" lat="36.742564">
        <ele>1743.18</ele>
        <time>2025-12-29T17:45:31.612Z</time>
      </trkpt>
      <trkpt lon="-85.678349" lat="36.745933">
        <ele>1745.06</ele>
        <time>2025-12-29T17:45:41.340Z</time>
      </trkpt>
      <trkpt lon="-85.675206" lat="36.749100">
        <ele>1746.12</ele>
        <time>2025-12-29T17:45:51.100Z</time>
      </trkpt>
      <trkpt lon="-85.671776" lat="36.751985">
        <ele>1746.96</ele>
        <time>2025-12-29T17:46:00.740Z</time>
      </trkpt>
      <trkpt lon="-85.668002" lat="36.754641">
        <ele>1748.28</ele>
        <time>2025-12-29T17:46:10.480Z</time>
      </trkpt>
      <trkpt lon="-85.663990" lat="36.756993">
        <ele>1749.51</ele>
        <time>2025-12-29T17:46:20.140Z</time>
      </trkpt>
      <trkpt lon="-85.659665" lat="36.759076">
        <ele>1750.71</ele>
        <time>2025-12-29T17:46:29.964Z</time>
      </trkpt>
      <trkpt lon="-85.655191" lat="36.760810">
        <ele>1751.95</ele>
        <time>2025-12-29T17:46:39.672Z</time>
      </trkpt>
      <trkpt lon="-85.650551" lat="36.762209">
        <ele>1752.97</ele>
        <time>2025-12-29T17:46:49.368Z</time>
      </trkpt>
      <trkpt lon="-85.645711" lat="36.763278">
        <ele>1754.17</ele>
        <time>2025-12-29T17:46:59.196Z</time>
      </trkpt>
      <trkpt lon="-85.640888" lat="36.763973">
        <ele>1755.2</ele>
        <time>2025-12-29T17:47:08.816Z</time>
      </trkpt>
      <trkpt lon="-85.635968" lat="36.764318">
        <ele>1756.55</ele>
        <time>2025-12-29T17:47:18.552Z</time>
      </trkpt>
      <trkpt lon="-85.630989" lat="36.764300">
        <ele>1757.69</ele>
        <time>2025-12-29T17:47:28.344Z</time>
      </trkpt>
      <trkpt lon="-85.626094" lat="36.763922">
        <ele>1758.81</ele>
        <time>2025-12-29T17:47:38.056Z</time>
      </trkpt>
      <trkpt lon="-85.621224" lat="36.763178">
        <ele>1760.07</ele>
        <time>2025-12-29T17:47:47.860Z</time>
      </trkpt>
      <trkpt lon="-85.616523" lat="36.762092">
        <ele>1761.82</ele>
        <time>2025-12-29T17:47:57.568Z</time>
      </trkpt>
      <trkpt lon="-85.611991" lat="36.760673">
        <ele>1763.31</ele>
        <time>2025-12-29T17:48:07.236Z</time>
      </trkpt>
      <trkpt lon="-85.608083" lat="36.759308">
        <ele>1764.08</ele>
        <time>2025-12-29T17:48:15.728Z</time>
      </trkpt>
      <trkpt lon="-85.606227" lat="36.758865">
        <ele>1764.76</ele>
        <time>2025-12-29T17:48:19.584Z</time>
      </trkpt>
      <trkpt lon="-85.604321" lat="36.758562">
        <ele>1765.34</ele>
        <time>2025-12-29T17:48:23.440Z</time>
      </trkpt>
      <trkpt lon="-85.602368" lat="36.758401">
        <ele>1766.05</ele>
        <time>2025-12-29T17:48:27.332Z</time>
      </trkpt>
      <trkpt lon="-85.600394" lat="36.758387">
        <ele>1766.79</ele>
        <time>2025-12-29T17:48:31.232Z</time>
      </trkpt>
      <trkpt lon="-85.598436" lat="36.758520">
        <ele>1767.52</ele>
        <time>2025-12-29T17:48:35.112Z</time>
      </trkpt>
      <trkpt lon="-85.596492" lat="36.758799">
        <ele>1768.31</ele>
        <time>2025-12-29T17:48:39.004Z</time>
      </trkpt>
      <trkpt lon="-85.594570" lat="36.759227">
        <ele>1768.99</ele>
        <time>2025-12-29T17:48:42.916Z</time>
      </trkpt>
      <trkpt lon="-85.592707" lat="36.759796">
        <ele>1769.75</ele>
        <time>2025-12-29T17:48:46.828Z</time>
      </trkpt>
      <trkpt lon="-85.590917" lat="36.760502">
        <ele>1770.57</ele>
        <time>2025-12-29T17:48:50.732Z</time>
      </trkpt>
      <trkpt lon="-85.589218" lat="36.761337">
        <ele>1771.5</ele>
        <time>2025-12-29T17:48:54.620Z</time>
      </trkpt>
      <trkpt lon="-85.587631" lat="36.762288">
        <ele>1772.21</ele>
        <time>2025-12-29T17:48:58.488Z</time>
      </trkpt>
      <trkpt lon="-85.586133" lat="36.763371">
        <ele>1772.86</ele>
        <time>2025-12-29T17:49:02.416Z</time>
      </trkpt>
      <trkpt lon="-85.584785" lat="36.764544">
        <ele>1773.18</ele>
        <time>2025-12-29T17:49:06.308Z</time>
      </trkpt>
      <trkpt lon="-85.583556" lat="36.765834">
        <ele>1773.5</ele>
        <time>2025-12-29T17:49:10.232Z</time>
      </trkpt>
      <trkpt lon="-85.582499" lat="36.767187">
        <ele>1774.63</ele>
        <time>2025-12-29T17:49:14.096Z</time>
      </trkpt>
      <trkpt lon="-85.581598" lat="36.768614">
        <ele>1775.4</ele>
        <time>2025-12-29T17:49:17.976Z</time>
      </trkpt>
      <trkpt lon="-85.580840" lat="36.770157">
        <ele>1776.1</ele>
        <time>2025-12-29T17:49:22.000Z</time>
      </trkpt>
      <trkpt lon="-85.580280" lat="36.771709">
        <ele>1776.82</ele>
        <time>2025-12-29T17:49:25.908Z</time>
      </trkpt>
      <trkpt lon="-85.579899" lat="36.773298">
        <ele>1777.3</ele>
        <time>2025-12-29T17:49:29.812Z</time>
      </trkpt>
      <trkpt lon="-85.579703" lat="36.774904">
        <ele>1777.84</ele>
        <time>2025-12-29T17:49:33.788Z</time>
      </trkpt>
      <trkpt lon="-85.579694" lat="36.776530">
        <ele>1778.62</ele>
        <time>2025-12-29T17:49:37.656Z</time>
      </trkpt>
      <trkpt lon="-85.579811" lat="36.779733">
        <ele>1779.15</ele>
        <time>2025-12-29T17:49:45.420Z</time>
      </trkpt>
      <trkpt lon="-85.579623" lat="36.781330">
        <ele>1779.88</ele>
        <time>2025-12-29T17:49:49.300Z</time>
      </trkpt>
      <trkpt lon="-85.579254" lat="36.782898">
        <ele>1780.41</ele>
        <time>2025-12-29T17:49:53.172Z</time>
      </trkpt>
      <trkpt lon="-85.578709" lat="36.784421">
        <ele>1781.03</ele>
        <time>2025-12-29T17:49:57.012Z</time>
      </trkpt>
      <trkpt lon="-85.577984" lat="36.785913">
        <ele>1781.88</ele>
        <time>2025-12-29T17:50:00.904Z</time>
      </trkpt>
      <trkpt lon="-85.577083" lat="36.787351">
        <ele>1782.79</ele>
        <time>2025-12-29T17:50:04.796Z</time>
      </trkpt>
      <trkpt lon="-85.576028" lat="36.788705">
        <ele>1783.49</ele>
        <time>2025-12-29T17:50:08.680Z</time>
      </trkpt>
      <trkpt lon="-85.574844" lat="36.789952">
        <ele>1784.07</ele>
        <time>2025-12-29T17:50:12.488Z</time>
      </trkpt>
      <trkpt lon="-85.573484" lat="36.791138">
        <ele>1784.54</ele>
        <time>2025-12-29T17:50:16.408Z</time>
      </trkpt>
      <trkpt lon="-85.571996" lat="36.792212">
        <ele>1785.1</ele>
        <time>2025-12-29T17:50:20.316Z</time>
      </trkpt>
      <trkpt lon="-85.570409" lat="36.793158">
        <ele>1785.89</ele>
        <time>2025-12-29T17:50:24.180Z</time>
      </trkpt>
      <trkpt lon="-85.568721" lat="36.793979">
        <ele>1786.46</ele>
        <time>2025-12-29T17:50:28.052Z</time>
      </trkpt>
      <trkpt lon="-85.561714" lat="36.797000">
        <ele>1788.23</ele>
        <time>2025-12-29T17:50:43.644Z</time>
      </trkpt>
      <trkpt lon="-85.558773" lat="36.798696">
        <ele>1789.21</ele>
        <time>2025-12-29T17:50:50.696Z</time>
      </trkpt>
      <trkpt lon="-85.554781" lat="36.801514">
        <ele>1790.4</ele>
        <time>2025-12-29T17:51:01.024Z</time>
      </trkpt>
      <trkpt lon="-85.548956" lat="36.806320">
        <ele>1793.01</ele>
        <time>2025-12-29T17:51:17.196Z</time>
      </trkpt>
      <trkpt lon="-85.543661" lat="36.811511">
        <ele>1794.33</ele>
        <time>2025-12-29T17:51:33.360Z</time>
      </trkpt>
      <trkpt lon="-85.535007" lat="36.821908">
        <ele>1796.3</ele>
        <time>2025-12-29T17:52:03.436Z</time>
      </trkpt>
      <trkpt lon="-85.526921" lat="36.832809">
        <ele>1799.13</ele>
        <time>2025-12-29T17:52:33.916Z</time>
      </trkpt>
      <trkpt lon="-85.519556" lat="36.843994">
        <ele>1802.82</ele>
        <time>2025-12-29T17:53:04.304Z</time>
      </trkpt>
      <trkpt lon="-85.517980" lat="36.846327">
        <ele>1803.33</ele>
        <time>2025-12-29T17:53:10.716Z</time>
      </trkpt>
      <trkpt lon="-85.516185" lat="36.848557">
        <ele>1804.25</ele>
        <time>2025-12-29T17:53:17.120Z</time>
      </trkpt>
      <trkpt lon="-85.513946" lat="36.850870">
        <ele>1805.23</ele>
        <time>2025-12-29T17:53:24.204Z</time>
      </trkpt>
      <trkpt lon="-85.511445" lat="36.853017">
        <ele>1806.13</ele>
        <time>2025-12-29T17:53:31.308Z</time>
      </trkpt>
      <trkpt lon="-85.508724" lat="36.854961">
        <ele>1807.56</ele>
        <time>2025-12-29T17:53:38.384Z</time>
      </trkpt>
      <trkpt lon="-85.504704" lat="36.857300">
        <ele>1808.26</ele>
        <time>2025-12-29T17:53:48.056Z</time>
      </trkpt>
      <trkpt lon="-85.497971" lat="36.860602">
        <ele>1809.36</ele>
        <time>2025-12-29T17:54:03.380Z</time>
      </trkpt>
      <trkpt lon="-85.483965" lat="36.866161">
        <ele>1811.14</ele>
        <time>2025-12-29T17:54:33.696Z</time>
      </trkpt>
      <trkpt lon="-85.469521" lat="36.871166">
        <ele>1814</ele>
        <time>2025-12-29T17:55:04.212Z</time>
      </trkpt>
      <trkpt lon="-85.455392" lat="36.876501">
        <ele>1817.66</ele>
        <time>2025-12-29T17:55:34.508Z</time>
      </trkpt>
      <trkpt lon="-85.441827" lat="36.882404">
        <ele>1819.95</ele>
        <time>2025-12-29T17:56:04.440Z</time>
      </trkpt>
      <trkpt lon="-85.434888" lat="36.886178">
        <ele>1821.81</ele>
        <time>2025-12-29T17:56:20.712Z</time>
      </trkpt>
      <trkpt lon="-85.428370" lat="36.890427">
        <ele>1823.67</ele>
        <time>2025-12-29T17:56:36.984Z</time>
      </trkpt>
      <trkpt lon="-85.422159" lat="36.895263">
        <ele>1826.08</ele>
        <time>2025-12-29T17:56:53.732Z</time>
      </trkpt>
      <trkpt lon="-85.416677" lat="36.900350">
        <ele>1828.41</ele>
        <time>2025-12-29T17:57:09.924Z</time>
      </trkpt>
      <trkpt lon="-85.411788" lat="36.905760">
        <ele>1830.56</ele>
        <time>2025-12-29T17:57:26.004Z</time>
      </trkpt>
      <trkpt lon="-85.407431" lat="36.911575">
        <ele>1831.91</ele>
        <time>2025-12-29T17:57:42.332Z</time>
      </trkpt>
      <trkpt lon="-85.403634" lat="36.917824">
        <ele>1833.15</ele>
        <time>2025-12-29T17:57:59.072Z</time>
      </trkpt>
      <trkpt lon="-85.400628" lat="36.924115">
        <ele>1834.29</ele>
        <time>2025-12-29T17:58:15.276Z</time>
      </trkpt>
      <trkpt lon="-85.398309" lat="36.930588">
        <ele>1836.55</ele>
        <time>2025-12-29T17:58:31.472Z</time>
      </trkpt>
      <trkpt lon="-85.396688" lat="36.937214">
        <ele>1838.34</ele>
        <time>2025-12-29T17:58:47.720Z</time>
      </trkpt>
      <trkpt lon="-85.395767" lat="36.944132">
        <ele>1840.21</ele>
        <time>2025-12-29T17:59:04.448Z</time>
      </trkpt>
      <trkpt lon="-85.395609" lat="36.950868">
        <ele>1842.29</ele>
        <time>2025-12-29T17:59:20.676Z</time>
      </trkpt>
      <trkpt lon="-85.396167" lat="36.957536">
        <ele>1843.87</ele>
        <time>2025-12-29T17:59:36.748Z</time>
      </trkpt>
      <trkpt lon="-85.396806" lat="36.964554">
        <ele>1844.63</ele>
        <time>2025-12-29T17:59:53.672Z</time>
      </trkpt>
      <trkpt lon="-85.396656" lat="36.971008">
        <ele>1845.82</ele>
        <time>2025-12-29T18:00:09.188Z</time>
      </trkpt>
      <trkpt lon="-85.395802" lat="36.977435">
        <ele>1846.82</ele>
        <time>2025-12-29T18:00:24.728Z</time>
      </trkpt>
      <trkpt lon="-85.394260" lat="36.983723">
        <ele>1847.61</ele>
        <time>2025-12-29T18:00:40.132Z</time>
      </trkpt>
      <trkpt lon="-85.392018" lat="36.989962">
        <ele>1849.54</ele>
        <time>2025-12-29T18:00:55.724Z</time>
      </trkpt>
      <trkpt lon="-85.389089" lat="36.996054">
        <ele>1851.11</ele>
        <time>2025-12-29T18:01:12.576Z</time>
      </trkpt>
      <trkpt lon="-85.385528" lat="37.001882">
        <ele>1852.5</ele>
        <time>2025-12-29T18:01:28.164Z</time>
      </trkpt>
      <trkpt lon="-85.381277" lat="37.007528">
        <ele>1853.91</ele>
        <time>2025-12-29T18:01:45.200Z</time>
      </trkpt>
      <trkpt lon="-85.376518" lat="37.012744">
        <ele>1855.3</ele>
        <time>2025-12-29T18:02:00.752Z</time>
      </trkpt>
      <trkpt lon="-85.366196" lat="37.022257">
        <ele>1855.57</ele>
        <time>2025-12-29T18:02:31.076Z</time>
      </trkpt>
      <trkpt lon="-85.355233" lat="37.031318">
        <ele>1856.3</ele>
        <time>2025-12-29T18:03:01.404Z</time>
      </trkpt>
      <trkpt lon="-85.344500" lat="37.040668">
        <ele>1861.09</ele>
        <time>2025-12-29T18:03:31.784Z</time>
      </trkpt>
      <trkpt lon="-85.333903" lat="37.050686">
        <ele>1878.96</ele>
        <time>2025-12-29T18:04:02.192Z</time>
      </trkpt>
      <trkpt lon="-85.323770" lat="37.061032">
        <ele>1897.47</ele>
        <time>2025-12-29T18:04:32.528Z</time>
      </trkpt>
      <trkpt lon="-85.314062" lat="37.071760">
        <ele>1916.43</ele>
        <time>2025-12-29T18:05:03.084Z</time>
      </trkpt>
      <trkpt lon="-85.304909" lat="37.082726">
        <ele>1934.3</ele>
        <time>2025-12-29T18:05:33.476Z</time>
      </trkpt>
      <trkpt lon="-85.296253" lat="37.093968">
        <ele>1951.67</ele>
        <time>2025-12-29T18:06:03.892Z</time>
      </trkpt>
      <trkpt lon="-85.288108" lat="37.105471">
        <ele>1969.48</ele>
        <time>2025-12-29T18:06:34.336Z</time>
      </trkpt>
      <trkpt lon="-85.279868" lat="37.116914">
        <ele>1987.27</ele>
        <time>2025-12-29T18:07:04.712Z</time>
      </trkpt>
      <trkpt lon="-85.270700" lat="37.127881">
        <ele>2003.92</ele>
        <time>2025-12-29T18:07:35.040Z</time>
      </trkpt>
      <trkpt lon="-85.260625" lat="37.138347">
        <ele>2020.49</ele>
        <time>2025-12-29T18:08:05.420Z</time>
      </trkpt>
      <trkpt lon="-85.249705" lat="37.148229">
        <ele>2036.78</ele>
        <time>2025-12-29T18:08:35.780Z</time>
      </trkpt>
      <trkpt lon="-85.237960" lat="37.157527">
        <ele>2053.13</ele>
        <time>2025-12-29T18:09:06.188Z</time>
      </trkpt>
      <trkpt lon="-85.225502" lat="37.166171">
        <ele>2069.06</ele>
        <time>2025-12-29T18:09:36.552Z</time>
      </trkpt>
      <trkpt lon="-85.212347" lat="37.174152">
        <ele>2085.08</ele>
        <time>2025-12-29T18:10:06.980Z</time>
      </trkpt>
      <trkpt lon="-85.198615" lat="37.181400">
        <ele>2100.81</ele>
        <time>2025-12-29T18:10:37.316Z</time>
      </trkpt>
      <trkpt lon="-85.184746" lat="37.188511">
        <ele>2117.5</ele>
        <time>2025-12-29T18:11:07.732Z</time>
      </trkpt>
      <trkpt lon="-85.171332" lat="37.196012">
        <ele>2133.08</ele>
        <time>2025-12-29T18:11:37.924Z</time>
      </trkpt>
      <trkpt lon="-85.158315" lat="37.203929">
        <ele>2149</ele>
        <time>2025-12-29T18:12:08.076Z</time>
      </trkpt>
      <trkpt lon="-85.145672" lat="37.212269">
        <ele>2164.77</ele>
        <time>2025-12-29T18:12:38.280Z</time>
      </trkpt>
      <trkpt lon="-85.133345" lat="37.221047">
        <ele>2181.01</ele>
        <time>2025-12-29T18:13:08.680Z</time>
      </trkpt>
      <trkpt lon="-85.121433" lat="37.230223">
        <ele>2196.56</ele>
        <time>2025-12-29T18:13:39.116Z</time>
      </trkpt>
      <trkpt lon="-85.110017" lat="37.239723">
        <ele>2211.21</ele>
        <time>2025-12-29T18:14:09.444Z</time>
      </trkpt>
      <trkpt lon="-85.098850" lat="37.249506">
        <ele>2226.13</ele>
        <time>2025-12-29T18:14:39.884Z</time>
      </trkpt>
      <trkpt lon="-85.088207" lat="37.259561">
        <ele>2240.91</ele>
        <time>2025-12-29T18:15:10.156Z</time>
      </trkpt>
      <trkpt lon="-85.078009" lat="37.269992">
        <ele>2255.61</ele>
        <time>2025-12-29T18:15:40.572Z</time>
      </trkpt>
      <trkpt lon="-85.068391" lat="37.280650">
        <ele>2269.93</ele>
        <time>2025-12-29T18:16:10.764Z</time>
      </trkpt>
      <trkpt lon="-85.059213" lat="37.291693">
        <ele>2283.72</ele>
        <time>2025-12-29T18:16:41.212Z</time>
      </trkpt>
      <trkpt lon="-85.050578" lat="37.303002">
        <ele>2297.9</ele>
        <time>2025-12-29T18:17:11.616Z</time>
      </trkpt>
      <trkpt lon="-85.042534" lat="37.314509">
        <ele>2311.66</ele>
        <time>2025-12-29T18:17:41.860Z</time>
      </trkpt>
      <trkpt lon="-85.034838" lat="37.326253">
        <ele>2324.97</ele>
        <time>2025-12-29T18:18:12.244Z</time>
      </trkpt>
      <trkpt lon="-85.026371" lat="37.337689">
        <ele>2338.29</ele>
        <time>2025-12-29T18:18:42.664Z</time>
      </trkpt>
      <trkpt lon="-85.016996" lat="37.348640">
        <ele>2350.8</ele>
        <time>2025-12-29T18:19:13.040Z</time>
      </trkpt>
      <trkpt lon="-85.006714" lat="37.359098">
        <ele>2363.08</ele>
        <time>2025-12-29T18:19:43.516Z</time>
      </trkpt>
      <trkpt lon="-84.995651" lat="37.368932">
        <ele>2375.68</ele>
        <time>2025-12-29T18:20:13.804Z</time>
      </trkpt>
      <trkpt lon="-84.983789" lat="37.378171">
        <ele>2388.27</ele>
        <time>2025-12-29T18:20:44.148Z</time>
      </trkpt>
      <trkpt lon="-84.971172" lat="37.386713">
        <ele>2400.28</ele>
        <time>2025-12-29T18:21:14.452Z</time>
      </trkpt>
      <trkpt lon="-84.957913" lat="37.394525">
        <ele>2412.56</ele>
        <time>2025-12-29T18:21:44.648Z</time>
      </trkpt>
      <trkpt lon="-84.944056" lat="37.401673">
        <ele>2424.8</ele>
        <time>2025-12-29T18:22:14.908Z</time>
      </trkpt>
      <trkpt lon="-84.929696" lat="37.408107">
        <ele>2436.92</ele>
        <time>2025-12-29T18:22:45.124Z</time>
      </trkpt>
      <trkpt lon="-84.914858" lat="37.413814">
        <ele>2447.62</ele>
        <time>2025-12-29T18:23:15.392Z</time>
      </trkpt>
      <trkpt lon="-84.899930" lat="37.419483">
        <ele>2459.9</ele>
        <time>2025-12-29T18:23:45.796Z</time>
      </trkpt>
      <trkpt lon="-84.885353" lat="37.425595">
        <ele>2470.99</ele>
        <time>2025-12-29T18:24:16.084Z</time>
      </trkpt>
      <trkpt lon="-84.871052" lat="37.432182">
        <ele>2482.2</ele>
        <time>2025-12-29T18:24:46.444Z</time>
      </trkpt>
      <trkpt lon="-84.859526" lat="37.438162">
        <ele>2492.13</ele>
        <time>2025-12-29T18:25:11.720Z</time>
      </trkpt>
      <trkpt lon="-84.851827" lat="37.443070">
        <ele>2499.24</ele>
        <time>2025-12-29T18:25:29.828Z</time>
      </trkpt>
      <trkpt lon="-84.844702" lat="37.448482">
        <ele>2506.47</ele>
        <time>2025-12-29T18:25:47.900Z</time>
      </trkpt>
      <trkpt lon="-84.838212" lat="37.454342">
        <ele>2513.55</ele>
        <time>2025-12-29T18:26:05.884Z</time>
      </trkpt>
      <trkpt lon="-84.832304" lat="37.460715">
        <ele>2520.62</ele>
        <time>2025-12-29T18:26:24.100Z</time>
      </trkpt>
      <trkpt lon="-84.827138" lat="37.467441">
        <ele>2527.87</ele>
        <time>2025-12-29T18:26:42.236Z</time>
      </trkpt>
      <trkpt lon="-84.822715" lat="37.474512">
        <ele>2534.31</ele>
        <time>2025-12-29T18:27:00.360Z</time>
      </trkpt>
      <trkpt lon="-84.819079" lat="37.481862">
        <ele>2541.3</ele>
        <time>2025-12-29T18:27:18.492Z</time>
      </trkpt>
      <trkpt lon="-84.816256" lat="37.489436">
        <ele>2547.98</ele>
        <time>2025-12-29T18:27:36.624Z</time>
      </trkpt>
      <trkpt lon="-84.814265" lat="37.497191">
        <ele>2554.61</ele>
        <time>2025-12-29T18:27:54.796Z</time>
      </trkpt>
      <trkpt lon="-84.813133" lat="37.505018">
        <ele>2561.36</ele>
        <time>2025-12-29T18:28:12.876Z</time>
      </trkpt>
      <trkpt lon="-84.812857" lat="37.512908">
        <ele>2567.77</ele>
        <time>2025-12-29T18:28:30.984Z</time>
      </trkpt>
      <trkpt lon="-84.813441" lat="37.520772">
        <ele>2574.33</ele>
        <time>2025-12-29T18:28:49.072Z</time>
      </trkpt>
      <trkpt lon="-84.814883" lat="37.528581">
        <ele>2580.53</ele>
        <time>2025-12-29T18:29:07.196Z</time>
      </trkpt>
      <trkpt lon="-84.817187" lat="37.536293">
        <ele>2586.24</ele>
        <time>2025-12-29T18:29:25.420Z</time>
      </trkpt>
      <trkpt lon="-84.820315" lat="37.543779">
        <ele>2592.22</ele>
        <time>2025-12-29T18:29:43.564Z</time>
      </trkpt>
      <trkpt lon="-84.824217" lat="37.550961">
        <ele>2598.27</ele>
        <time>2025-12-29T18:30:01.592Z</time>
      </trkpt>
      <trkpt lon="-84.828160" lat="37.556867">
        <ele>2603.22</ele>
        <time>2025-12-29T18:30:17.000Z</time>
      </trkpt>
      <trkpt lon="-84.829579" lat="37.558846">
        <ele>2560.16</ele>
        <time>2025-12-29T18:30:22.876Z</time>
      </trkpt>
      <trkpt lon="-84.830534" lat="37.560770">
        <ele>2469.93</ele>
        <time>2025-12-29T18:30:28.000Z</time>
      </trkpt>
      <trkpt lon="-84.831192" lat="37.561807">
        <ele>2421.39</ele>
        <time>2025-12-29T18:30:30.632Z</time>
      </trkpt>
      <trkpt lon="-84.831973" lat="37.562804">
        <ele>2379.09</ele>
        <time>2025-12-29T18:30:33.180Z</time>
      </trkpt>
      <trkpt lon="-84.832665" lat="37.563524">
        <ele>2351.69</ele>
        <time>2025-12-29T18:30:35.100Z</time>
      </trkpt>
      <trkpt lon="-84.833456" lat="37.564196">
        <ele>2327.79</ele>
        <time>2025-12-29T18:30:37.056Z</time>
      </trkpt>
      <trkpt lon="-84.834316" lat="37.564778">
        <ele>2306.6</ele>
        <time>2025-12-29T18:30:38.984Z</time>
      </trkpt>
      <trkpt lon="-84.834928" lat="37.565109">
        <ele>2292.85</ele>
        <time>2025-12-29T18:30:40.280Z</time>
      </trkpt>
      <trkpt lon="-84.835886" lat="37.565513">
        <ele>2271.72</ele>
        <time>2025-12-29T18:30:42.212Z</time>
      </trkpt>
      <trkpt lon="-84.837545" lat="37.566020">
        <ele>2235.16</ele>
        <time>2025-12-29T18:30:45.452Z</time>
      </trkpt>
      <trkpt lon="-84.839244" lat="37.566387">
        <ele>2197.18</ele>
        <time>2025-12-29T18:30:48.712Z</time>
      </trkpt>
      <trkpt lon="-84.843329" lat="37.567039">
        <ele>2102.21</ele>
        <time>2025-12-29T18:30:56.484Z</time>
      </trkpt>
      <trkpt lon="-84.847391" lat="37.567820">
        <ele>2007.43</ele>
        <time>2025-12-29T18:31:04.248Z</time>
      </trkpt>
      <trkpt lon="-84.850760" lat="37.568325">
        <ele>1931.98</ele>
        <time>2025-12-29T18:31:10.688Z</time>
      </trkpt>
      <trkpt lon="-84.852450" lat="37.568431">
        <ele>1894.18</ele>
        <time>2025-12-29T18:31:13.916Z</time>
      </trkpt>
      <trkpt lon="-84.852813" lat="37.568438">
        <ele>1885.94</ele>
        <time>2025-12-29T18:39:19.352Z</time>
      </trkpt>
      <trkpt lon="-84.853864" lat="37.568424">
        <ele>1861.33</ele>
        <time>2025-12-29T18:39:20.640Z</time>
      </trkpt>
      <trkpt lon="-84.857513" lat="37.568320">
        <ele>1779.09</ele>
        <time>2025-12-29T18:39:27.640Z</time>
      </trkpt>
      <trkpt lon="-84.857838" lat="37.568344">
        <ele>1770.68</ele>
        <time>2025-12-29T18:39:28.280Z</time>
      </trkpt>
      <trkpt lon="-84.859620" lat="37.568898">
        <ele>1698.85</ele>
        <time>2025-12-29T18:39:32.112Z</time>
      </trkpt>
      <trkpt lon="-84.860429" lat="37.569332">
        <ele>1654.84</ele>
        <time>2025-12-29T18:39:34.016Z</time>
      </trkpt>
      <trkpt lon="-84.861188" lat="37.569856">
        <ele>1607.87</ele>
        <time>2025-12-29T18:39:35.968Z</time>
      </trkpt>
      <trkpt lon="-84.861914" lat="37.570483">
        <ele>1558.6</ele>
        <time>2025-12-29T18:39:37.920Z</time>
      </trkpt>
      <trkpt lon="-84.862545" lat="37.571168">
        <ele>1511.91</ele>
        <time>2025-12-29T18:39:39.840Z</time>
      </trkpt>
      <trkpt lon="-84.862914" lat="37.571664">
        <ele>1481.93</ele>
        <time>2025-12-29T18:39:41.128Z</time>
      </trkpt>
      <trkpt lon="-84.863223" lat="37.572181">
        <ele>1452.26</ele>
        <time>2025-12-29T18:39:42.400Z</time>
      </trkpt>
      <trkpt lon="-84.863444" lat="37.572717">
        <ele>1421.91</ele>
        <time>2025-12-29T18:39:43.664Z</time>
      </trkpt>
      <trkpt lon="-84.863573" lat="37.573280">
        <ele>1390.29</ele>
        <time>2025-12-29T18:39:44.936Z</time>
      </trkpt>
      <trkpt lon="-84.863600" lat="37.573846">
        <ele>1358.19</ele>
        <time>2025-12-29T18:39:46.200Z</time>
      </trkpt>
      <trkpt lon="-84.863524" lat="37.574414">
        <ele>1325.12</ele>
        <time>2025-12-29T18:39:47.480Z</time>
      </trkpt>
      <trkpt lon="-84.863341" lat="37.574970">
        <ele>1291.53</ele>
        <time>2025-12-29T18:39:48.760Z</time>
      </trkpt>
      <trkpt lon="-84.863049" lat="37.575504">
        <ele>1257.35</ele>
        <time>2025-12-29T18:39:50.032Z</time>
      </trkpt>
      <trkpt lon="-84.862660" lat="37.575990">
        <ele>1223.43</ele>
        <time>2025-12-29T18:39:51.312Z</time>
      </trkpt>
      <trkpt lon="-84.862172" lat="37.576426">
        <ele>1189.05</ele>
        <time>2025-12-29T18:39:52.592Z</time>
      </trkpt>
      <trkpt lon="-84.861594" lat="37.576799">
        <ele>1154.18</ele>
        <time>2025-12-29T18:39:53.896Z</time>
      </trkpt>
      <trkpt lon="-84.860956" lat="37.577089">
        <ele>1119.72</ele>
        <time>2025-12-29T18:39:55.168Z</time>
      </trkpt>
      <trkpt lon="-84.859879" lat="37.577381">
        <ele>1071.77</ele>
        <time>2025-12-29T18:39:57.120Z</time>
      </trkpt>
      <trkpt lon="-84.858321" lat="37.577636">
        <ele>1021.57</ele>
        <time>2025-12-29T18:39:59.760Z</time>
      </trkpt>
      <trkpt lon="-84.856460" lat="37.577763">
        <ele>976.226</ele>
        <time>2025-12-29T18:40:03.024Z</time>
      </trkpt>
      <trkpt lon="-84.854405" lat="37.577870">
        <ele>928.583</ele>
        <time>2025-12-29T18:40:06.920Z</time>
      </trkpt>
      <trkpt lon="-84.853403" lat="37.577946">
        <ele>900.581</ele>
        <time>2025-12-29T18:40:08.904Z</time>
      </trkpt>
      <trkpt lon="-84.853072" lat="37.577972">
        <ele>891.226</ele>
        <time>2025-12-29T18:40:09.528Z</time>
      </trkpt>
      <trkpt lon="-84.851926" lat="37.577997">
        <ele>868.062</ele>
        <time>2025-12-29T18:40:11.496Z</time>
      </trkpt>
      <trkpt lon="-84.845314" lat="37.578053">
        <ele>829.725</ele>
        <time>2025-12-29T18:40:22.000Z</time>
      </trkpt>
      <trkpt lon="-84.843330" lat="37.578121">
        <ele>824.04</ele>
        <time>2025-12-29T18:40:25.272Z</time>
      </trkpt>
      <trkpt lon="-84.842640" lat="37.578159">
        <ele>819.457</ele>
        <time>2025-12-29T18:40:26.624Z</time>
      </trkpt>
      <trkpt lon="-84.841747" lat="37.578224">
        <ele>806.888</ele>
        <time>2025-12-29T18:40:28.624Z</time>
      </trkpt>
      <trkpt lon="-84.840399" lat="37.578362">
        <ele>768.542</ele>
        <time>2025-12-29T18:40:31.976Z</time>
      </trkpt>
      <trkpt lon="-84.839399" lat="37.578538">
        <ele>741.416</ele>
        <time>2025-12-29T18:40:34.544Z</time>
      </trkpt>
      <trkpt lon="-84.838669" lat="37.578732">
        <ele>717.955</ele>
        <time>2025-12-29T18:40:36.488Z</time>
      </trkpt>
      <trkpt lon="-84.837638" lat="37.579063">
        <ele>684.342</ele>
        <time>2025-12-29T18:40:39.144Z</time>
      </trkpt>
      <trkpt lon="-84.836587" lat="37.579436">
        <ele>656.718</ele>
        <time>2025-12-29T18:40:41.904Z</time>
      </trkpt>
      <trkpt lon="-84.836106" lat="37.579622">
        <ele>651.775</ele>
        <time>2025-12-29T18:43:35.416Z</time>
      </trkpt>
      <trkpt lon="-84.835423" lat="37.579904">
        <ele>656.208</ele>
        <time>2025-12-29T18:43:37.336Z</time>
      </trkpt>
      <trkpt lon="-84.834883" lat="37.580098">
        <ele>662.792</ele>
        <time>2025-12-29T18:43:39.264Z</time>
      </trkpt>
      <trkpt lon="-84.834227" lat="37.580272">
        <ele>658.232</ele>
        <time>2025-12-29T18:43:41.856Z</time>
      </trkpt>
      <trkpt lon="-84.833674" lat="37.580371">
        <ele>648.094</ele>
        <time>2025-12-29T18:43:43.784Z</time>
      </trkpt>
      <trkpt lon="-84.830807" lat="37.580704">
        <ele>615.723</ele>
        <time>2025-12-29T18:43:52.736Z</time>
      </trkpt>
      <trkpt lon="-84.828380" lat="37.581059">
        <ele>588.66</ele>
        <time>2025-12-29T18:43:59.728Z</time>
      </trkpt>
      <trkpt lon="-84.827021" lat="37.581243">
        <ele>573.564</ele>
        <time>2025-12-29T18:44:03.560Z</time>
      </trkpt>
      <trkpt lon="-84.826543" lat="37.581253">
        <ele>567.687</ele>
        <time>2025-12-29T18:44:04.832Z</time>
      </trkpt>
      <trkpt lon="-84.826058" lat="37.581228">
        <ele>561.982</ele>
        <time>2025-12-29T18:44:06.112Z</time>
      </trkpt>
      <trkpt lon="-84.821618" lat="37.580748">
        <ele>536.722</ele>
        <time>2025-12-29T18:44:18.232Z</time>
      </trkpt>
      <trkpt lon="-84.818841" lat="37.580560">
        <ele>509.769</ele>
        <time>2025-12-29T18:44:25.936Z</time>
      </trkpt>
      <trkpt lon="-84.817586" lat="37.580522">
        <ele>486.812</ele>
        <time>2025-12-29T18:44:29.136Z</time>
      </trkpt>
      <trkpt lon="-84.816038" lat="37.580478">
        <ele>466.497</ele>
        <time>2025-12-29T18:44:33.008Z</time>
      </trkpt>
      <trkpt lon="-84.814520" lat="37.580374">
        <ele>446.302</ele>
        <time>2025-12-29T18:44:36.824Z</time>
      </trkpt>
      <trkpt lon="-84.812576" lat="37.580117">
        <ele>426.505</ele>
        <time>2025-12-29T18:44:41.912Z</time>
      </trkpt>
      <trkpt lon="-84.811347" lat="37.579933">
        <ele>414.369</ele>
        <time>2025-12-29T18:44:45.128Z</time>
      </trkpt>
      <trkpt lon="-84.808153" lat="37.579400">
        <ele>405.412</ele>
        <time>2025-12-29T18:44:53.408Z</time>
      </trkpt>
      <trkpt lon="-84.805996" lat="37.579307">
        <ele>387.661</ele>
        <time>2025-12-29T18:44:59.128Z</time>
      </trkpt>
      <trkpt lon="-84.802789" lat="37.579268">
        <ele>368.079</ele>
        <time>2025-12-29T18:45:08.080Z</time>
      </trkpt>
      <trkpt lon="-84.799329" lat="37.579189">
        <ele>349.658</ele>
        <time>2025-12-29T18:45:17.648Z</time>
      </trkpt>
      <trkpt lon="-84.795183" lat="37.579101">
        <ele>350.614</ele>
        <time>2025-12-29T18:45:29.104Z</time>
      </trkpt>
      <trkpt lon="-84.793396" lat="37.578873">
        <ele>369.872</ele>
        <time>2025-12-29T18:45:34.192Z</time>
      </trkpt>
      <trkpt lon="-84.791624" lat="37.578764">
        <ele>381.053</ele>
        <time>2025-12-29T18:45:38.696Z</time>
      </trkpt>
      <trkpt lon="-84.790442" lat="37.578714">
        <ele>380.79</ele>
        <time>2025-12-29T18:45:41.248Z</time>
      </trkpt>
      <trkpt lon="-84.788081" lat="37.578604">
        <ele>387.642</ele>
        <time>2025-12-29T18:45:45.720Z</time>
      </trkpt>
      <trkpt lon="-84.784719" lat="37.578562">
        <ele>395.998</ele>
        <time>2025-12-29T18:45:51.480Z</time>
      </trkpt>
      <trkpt lon="-84.781519" lat="37.578782">
        <ele>403.258</ele>
        <time>2025-12-29T18:45:56.584Z</time>
      </trkpt>
      <trkpt lon="-84.780817" lat="37.578865">
        <ele>405.536</ele>
        <time>2025-12-29T18:45:57.864Z</time>
      </trkpt>
      <trkpt lon="-84.780210" lat="37.578945">
        <ele>401.48</ele>
        <time>2025-12-29T18:45:59.144Z</time>
      </trkpt>
      <trkpt lon="-84.779154" lat="37.579106">
        <ele>388.326</ele>
        <time>2025-12-29T18:46:01.680Z</time>
      </trkpt>
      <trkpt lon="-84.777511" lat="37.579393">
        <ele>369.439</ele>
        <time>2025-12-29T18:46:06.160Z</time>
      </trkpt>
      <trkpt lon="-84.776653" lat="37.579482">
        <ele>360.17</ele>
        <time>2025-12-29T18:46:08.720Z</time>
      </trkpt>
      <trkpt lon="-84.775663" lat="37.579505">
        <ele>347.116</ele>
        <time>2025-12-29T18:46:11.928Z</time>
      </trkpt>
      <trkpt lon="-84.774892" lat="37.579459">
        <ele>332.476</ele>
        <time>2025-12-29T18:46:14.496Z</time>
      </trkpt>
      <trkpt lon="-84.774507" lat="37.579405">
        <ele>325.608</ele>
        <time>2025-12-29T18:46:15.808Z</time>
      </trkpt>
      <trkpt lon="-84.774137" lat="37.579312">
        <ele>320.235</ele>
        <time>2025-12-29T18:46:17.072Z</time>
      </trkpt>
      <trkpt lon="-84.773786" lat="37.579180">
        <ele>316.106</ele>
        <time>2025-12-29T18:46:18.360Z</time>
      </trkpt>
      <trkpt lon="-84.772281" lat="37.578498">
        <ele>308.625</ele>
        <time>2025-12-29T18:46:24.816Z</time>
      </trkpt>
      <trkpt lon="-84.771942" lat="37.578344">
        <ele>308.623</ele>
        <time>2025-12-29T18:46:26.752Z</time>
      </trkpt>
      <trkpt lon="-84.771809" lat="37.578280">
        <ele>308.635</ele>
        <time>2025-12-29T18:46:28.008Z</time>
      </trkpt>
      <trkpt lon="-84.771756" lat="37.578254">
        <ele>308.643</ele>
        <time>2025-12-29T18:46:29.264Z</time>
      </trkpt>
      <trkpt lon="-84.771928" lat="37.580370">
        <ele>308.756</ele>
        <time>2025-12-29T22:36:55.368Z</time>
      </trkpt>
      <trkpt lon="-84.771938" lat="37.580367">
        <ele>308.805</ele>
        <time>2025-12-29T22:39:49.264Z</time>
      </trkpt>
      <trkpt lon="-84.771947" lat="37.580363">
        <ele>308.804</ele>
        <time>2025-12-29T22:42:11.208Z</time>
      </trkpt>
      <trkpt lon="-84.771957" lat="37.580360">
        <ele>308.804</ele>
        <time>2025-12-29T22:44:32.960Z</time>
      </trkpt>
      <trkpt lon="-84.771966" lat="37.580356">
        <ele>308.805</ele>
        <time>2025-12-29T22:46:45.280Z</time>
      </trkpt>
      <trkpt lon="-84.771976" lat="37.580353">
        <ele>308.803</ele>
        <time>2025-12-29T22:48:47.328Z</time>
      </trkpt>
      <trkpt lon="-84.771985" lat="37.580349">
        <ele>308.804</ele>
        <time>2025-12-29T22:50:38.696Z</time>
      </trkpt>
      <trkpt lon="-84.771994" lat="37.580346">
        <ele>308.804</ele>
        <time>2025-12-29T22:53:01.496Z</time>
      </trkpt>
      <trkpt lon="-84.772003" lat="37.580343">
        <ele>308.806</ele>
        <time>2025-12-29T22:54:53.072Z</time>
      </trkpt>
      <trkpt lon="-84.772013" lat="37.580339">
        <ele>308.802</ele>
        <time>2025-12-29T22:57:05.176Z</time>
      </trkpt>
      <trkpt lon="-84.772022" lat="37.580336">
        <ele>308.804</ele>
        <time>2025-12-29T22:59:17.616Z</time>
      </trkpt>
      <trkpt lon="-84.772032" lat="37.580332">
        <ele>308.804</ele>
        <time>2025-12-29T23:01:19.600Z</time>
      </trkpt>
      <trkpt lon="-84.772041" lat="37.580329">
        <ele>308.805</ele>
        <time>2025-12-29T23:03:21.384Z</time>
      </trkpt>
    </trkseg>
    <trkseg>
      <trkpt lon="7.157277" lat="50.769575">
        <ele>61.9417</ele>
        <time>2025-12-30T22:10:50.088Z</time>
      </trkpt>
      <trkpt lon="7.157842" lat="50.770073">
        <ele>62.3931</ele>
        <time>2025-12-30T22:12:47.928Z</time>
      </trkpt>
      <trkpt lon="7.157851" lat="50.770071">
        <ele>62.3952</ele>
        <time>2025-12-30T09:07:35.586Z</time>
      </trkpt>
    </trkseg>
    <trkseg>
      <trkpt lon="13.520858" lat="52.371930">
        <ele>46.6696</ele>
        <time>2026-01-01T15:21:43.804Z</time>
      </trkpt>
    </trkseg>
    <trkseg>
      <trkpt lon="7.161815" lat="50.767215">
        <ele>62.4807</ele>
        <time>2026-01-06T17:01:07.644Z</time>
      </trkpt>
      <trkpt lon="7.161753" lat="50.767257">
        <ele>62.0824</ele>
        <time>2026-01-06T17:03:59.864Z</time>
      </trkpt>
      <trkpt lon="7.161627" lat="50.767340">
        <ele>62.0374</ele>
        <time>2026-01-06T17:04:01.156Z</time>
      </trkpt>
      <trkpt lon="7.161298" lat="50.767537">
        <ele>62.0545</ele>
        <time>2026-01-06T17:04:03.112Z</time>
      </trkpt>
      <trkpt lon="7.160793" lat="50.767788">
        <ele>62.0913</ele>
        <time>2026-01-06T17:04:05.068Z</time>
      </trkpt>
      <trkpt lon="7.160348" lat="50.767968">
        <ele>62.2035</ele>
        <time>2026-01-06T17:04:06.380Z</time>
      </trkpt>
      <trkpt lon="7.159812" lat="50.768143">
        <ele>63.2887</ele>
        <time>2026-01-06T17:04:07.720Z</time>
      </trkpt>
      <trkpt lon="7.159304" lat="50.768293">
        <ele>64.3053</ele>
        <time>2026-01-06T17:04:09.016Z</time>
      </trkpt>
      <trkpt lon="7.161813" lat="50.767216">
        <ele>62.119</ele>
        <time>2026-01-06T17:04:09.700Z</time>
      </trkpt>
      <trkpt lon="7.161727" lat="50.767278">
        <ele>62.0747</ele>
        <time>2026-01-06T17:04:13.532Z</time>
      </trkpt>
      <trkpt lon="7.161610" lat="50.767358">
        <ele>62.0285</ele>
        <time>2026-01-06T17:04:14.848Z</time>
      </trkpt>
      <trkpt lon="7.161304" lat="50.767549">
        <ele>62.055</ele>
        <time>2026-01-06T17:04:16.796Z</time>
      </trkpt>
      <trkpt lon="7.160808" lat="50.767800">
        <ele>62.0865</ele>
        <time>2026-01-06T17:04:18.784Z</time>
      </trkpt>
      <trkpt lon="7.160366" lat="50.767976">
        <ele>62.2189</ele>
        <time>2026-01-06T17:04:20.104Z</time>
      </trkpt>
      <trkpt lon="7.159864" lat="50.768141">
        <ele>63.1455</ele>
        <time>2026-01-06T17:04:21.384Z</time>
      </trkpt>
      <trkpt lon="7.159293" lat="50.768299">
        <ele>66.8795</ele>
        <time>2026-01-06T17:04:22.732Z</time>
      </trkpt>
      <trkpt lon="7.159199" lat="50.768337">
        <ele>71.0344</ele>
        <time>2026-01-06T17:04:23.440Z</time>
      </trkpt>
      <trkpt lon="7.159121" lat="50.768373">
        <ele>72.2258</ele>
        <time>2026-01-06T17:04:24.100Z</time>
      </trkpt>
      <trkpt lon="7.159033" lat="50.768412">
        <ele>68.6885</ele>
        <time>2026-01-06T17:04:24.732Z</time>
      </trkpt>
      <trkpt lon="7.158965" lat="50.768439">
        <ele>64.0207</ele>
        <time>2026-01-06T17:04:25.384Z</time>
      </trkpt>
      <trkpt lon="7.158941" lat="50.768463">
        <ele>63.2717</ele>
        <time>2026-01-06T17:04:26.064Z</time>
      </trkpt>
      <trkpt lon="7.158938" lat="50.768482">
        <ele>62.8881</ele>
        <time>2026-01-06T17:04:26.732Z</time>
      </trkpt>
      <trkpt lon="7.158975" lat="50.768758">
        <ele>62.3991</ele>
        <time>2026-01-06T17:04:37.892Z</time>
      </trkpt>
      <trkpt lon="7.159028" lat="50.769055">
        <ele>62.305</ele>
        <time>2026-01-06T17:04:48.936Z</time>
      </trkpt>
      <trkpt lon="7.159056" lat="50.769180">
        <ele>62.5595</ele>
        <time>2026-01-06T17:04:59.388Z</time>
      </trkpt>
    </trkseg>
    <trkseg>
      <trkpt lon="8.781489" lat="53.050057">
        <ele>5.59918</ele>
        <time>2026-01-12T18:49:05.240Z</time>
      </trkpt>
      <trkpt lon="8.781503" lat="53.050095">
        <ele>5.65552</ele>
        <time>2026-01-12T09:36:44.092Z</time>
      </trkpt>
      <trkpt lon="8.781531" lat="53.050178">
        <ele>5.65789</ele>
        <time>2026-01-12T09:49:22.296Z</time>
      </trkpt>
      <trkpt lon="8.781548" lat="53.050249">
        <ele>5.65908</ele>
        <time>2026-01-12T09:49:24.996Z</time>
      </trkpt>
      <trkpt lon="8.781555" lat="53.050394">
        <ele>5.66057</ele>
        <time>2026-01-12T09:49:28.236Z</time>
      </trkpt>
      <trkpt lon="8.781547" lat="53.050432">
        <ele>5.66165</ele>
        <time>2026-01-12T09:49:28.904Z</time>
      </trkpt>
      <trkpt lon="8.781532" lat="53.050471">
        <ele>5.66149</ele>
        <time>2026-01-12T09:49:29.552Z</time>
      </trkpt>
      <trkpt lon="8.781505" lat="53.050512">
        <ele>5.66303</ele>
        <time>2026-01-12T09:49:30.208Z</time>
      </trkpt>
      <trkpt lon="8.781422" lat="53.050598">
        <ele>5.66251</ele>
        <time>2026-01-12T09:49:31.548Z</time>
      </trkpt>
      <trkpt lon="8.781249" lat="53.050727">
        <ele>5.66394</ele>
        <time>2026-01-12T09:49:33.560Z</time>
      </trkpt>
      <trkpt lon="8.780694" lat="53.051084">
        <ele>5.66325</ele>
        <time>2026-01-12T09:49:38.812Z</time>
      </trkpt>
      <trkpt lon="8.780140" lat="53.051494">
        <ele>5.6623</ele>
        <time>2026-01-12T09:49:45.380Z</time>
      </trkpt>
      <trkpt lon="8.780086" lat="53.051522">
        <ele>5.6596</ele>
        <time>2026-01-12T09:49:46.024Z</time>
      </trkpt>
      <trkpt lon="8.780028" lat="53.051543">
        <ele>5.66204</ele>
        <time>2026-01-12T09:49:46.660Z</time>
      </trkpt>
      <trkpt lon="8.779965" lat="53.051556">
        <ele>5.65983</ele>
        <time>2026-01-12T09:49:47.320Z</time>
      </trkpt>
      <trkpt lon="8.779902" lat="53.051562">
        <ele>5.66215</ele>
        <time>2026-01-12T09:49:47.984Z</time>
      </trkpt>
      <trkpt lon="8.779838" lat="53.051560">
        <ele>5.66078</ele>
        <time>2026-01-12T09:49:48.656Z</time>
      </trkpt>
      <trkpt lon="8.779775" lat="53.051552">
        <ele>5.65871</ele>
        <time>2026-01-12T09:49:49.340Z</time>
      </trkpt>
      <trkpt lon="8.779719" lat="53.051538">
        <ele>5.66035</ele>
        <time>2026-01-12T09:49:50.008Z</time>
      </trkpt>
      <trkpt lon="8.779615" lat="53.051503">
        <ele>5.65989</ele>
        <time>2026-01-12T09:49:51.312Z</time>
      </trkpt>
      <trkpt lon="8.779407" lat="53.051412">
        <ele>5.66122</ele>
        <time>2026-01-12T09:49:53.988Z</time>
      </trkpt>
      <trkpt lon="8.778413" lat="53.050885">
        <ele>5.66293</ele>
        <time>2026-01-12T09:50:04.624Z</time>
      </trkpt>
      <trkpt lon="8.777394" lat="53.050334">
        <ele>5.65628</ele>
        <time>2026-01-12T09:50:15.268Z</time>
      </trkpt>
      <trkpt lon="8.776586" lat="53.049887">
        <ele>5.65656</ele>
        <time>2026-01-12T09:50:25.288Z</time>
      </trkpt>
      <trkpt lon="8.775583" lat="53.049280">
        <ele>5.65508</ele>
        <time>2026-01-12T09:50:35.980Z</time>
      </trkpt>
      <trkpt lon="8.775345" lat="53.049102">
        <ele>5.65623</ele>
        <time>2026-01-12T09:50:38.596Z</time>
      </trkpt>
      <trkpt lon="8.775138" lat="53.048908">
        <ele>5.65499</ele>
        <time>2026-01-12T09:50:41.244Z</time>
      </trkpt>
      <trkpt lon="8.774918" lat="53.048651">
        <ele>5.65398</ele>
        <time>2026-01-12T09:50:44.628Z</time>
      </trkpt>
      <trkpt lon="8.774821" lat="53.048517">
        <ele>5.64588</ele>
        <time>2026-01-12T09:50:46.624Z</time>
      </trkpt>
      <trkpt lon="8.774771" lat="53.048422">
        <ele>5.64702</ele>
        <time>2026-01-12T09:50:57.228Z</time>
      </trkpt>
      <trkpt lon="8.774742" lat="53.048356">
        <ele>5.64955</ele>
        <time>2026-01-12T09:51:07.284Z</time>
      </trkpt>
      <trkpt lon="8.774729" lat="53.048326">
        <ele>5.64768</ele>
        <time>2026-01-12T09:51:17.304Z</time>
      </trkpt>
      <trkpt lon="8.774703" lat="53.048269">
        <ele>5.65192</ele>
        <time>2026-01-12T09:52:07.828Z</time>
      </trkpt>
      <trkpt lon="8.774582" lat="53.047959">
        <ele>5.64926</ele>
        <time>2026-01-12T09:52:14.368Z</time>
      </trkpt>
      <trkpt lon="8.774536" lat="53.047733">
        <ele>5.64827</ele>
        <time>2026-01-12T09:52:19.568Z</time>
      </trkpt>
      <trkpt lon="8.774537" lat="53.047534">
        <ele>5.64494</ele>
        <time>2026-01-12T09:52:30.164Z</time>
      </trkpt>
      <trkpt lon="8.774543" lat="53.047445">
        <ele>5.65117</ele>
        <time>2026-01-12T09:52:50.756Z</time>
      </trkpt>
      <trkpt lon="8.774582" lat="53.047159">
        <ele>5.65447</ele>
        <time>2026-01-12T09:52:54.704Z</time>
      </trkpt>
      <trkpt lon="8.774607" lat="53.047096">
        <ele>5.65413</ele>
        <time>2026-01-12T09:52:55.400Z</time>
      </trkpt>
      <trkpt lon="8.774643" lat="53.047039">
        <ele>5.65445</ele>
        <time>2026-01-12T09:52:56.040Z</time>
      </trkpt>
      <trkpt lon="8.774695" lat="53.046981">
        <ele>5.65451</ele>
        <time>2026-01-12T09:52:56.708Z</time>
      </trkpt>
      <trkpt lon="8.774830" lat="53.046869">
        <ele>5.65395</ele>
        <time>2026-01-12T09:52:58.032Z</time>
      </trkpt>
      <trkpt lon="8.774910" lat="53.046819">
        <ele>5.6568</ele>
        <time>2026-01-12T09:52:58.672Z</time>
      </trkpt>
      <trkpt lon="8.775004" lat="53.046771">
        <ele>5.65711</ele>
        <time>2026-01-12T09:52:59.340Z</time>
      </trkpt>
      <trkpt lon="8.775112" lat="53.046727">
        <ele>5.65633</ele>
        <time>2026-01-12T09:53:00.012Z</time>
      </trkpt>
      <trkpt lon="8.775232" lat="53.046689">
        <ele>5.6558</ele>
        <time>2026-01-12T09:53:00.700Z</time>
      </trkpt>
      <trkpt lon="8.775348" lat="53.046661">
        <ele>5.65665</ele>
        <time>2026-01-12T09:53:01.332Z</time>
      </trkpt>
      <trkpt lon="8.775475" lat="53.046640">
        <ele>5.65731</ele>
        <time>2026-01-12T09:53:01.976Z</time>
      </trkpt>
      <trkpt lon="8.775730" lat="53.046620">
        <ele>5.65372</ele>
        <time>2026-01-12T09:53:03.284Z</time>
      </trkpt>
      <trkpt lon="8.775972" lat="53.046617">
        <ele>5.6497</ele>
        <time>2026-01-12T09:53:04.600Z</time>
      </trkpt>
      <trkpt lon="8.776132" lat="53.046632">
        <ele>5.64185</ele>
        <time>2026-01-12T09:53:05.936Z</time>
      </trkpt>
      <trkpt lon="8.776164" lat="53.046635">
        <ele>5.64288</ele>
        <time>2026-01-12T09:53:16.008Z</time>
      </trkpt>
      <trkpt lon="8.776177" lat="53.046636">
        <ele>5.64605</ele>
        <time>2026-01-12T09:54:06.660Z</time>
      </trkpt>
      <trkpt lon="8.776253" lat="53.046633">
        <ele>5.64653</ele>
        <time>2026-01-12T09:55:15.484Z</time>
      </trkpt>
      <trkpt lon="8.776324" lat="53.046626">
        <ele>5.6439</ele>
        <time>2026-01-12T09:55:17.408Z</time>
      </trkpt>
      <trkpt lon="8.776339" lat="53.046623">
        <ele>5.64269</ele>
        <time>2026-01-12T09:55:37.536Z</time>
      </trkpt>
      <trkpt lon="8.776354" lat="53.046621">
        <ele>5.64377</ele>
        <time>2026-01-12T09:56:57.056Z</time>
      </trkpt>
      <trkpt lon="8.776760" lat="53.046559">
        <ele>5.64764</ele>
        <time>2026-01-12T09:57:03.984Z</time>
      </trkpt>
      <trkpt lon="8.777734" lat="53.046390">
        <ele>5.6412</ele>
        <time>2026-01-12T09:57:11.932Z</time>
      </trkpt>
      <trkpt lon="8.777848" lat="53.046360">
        <ele>5.62711</ele>
        <time>2026-01-12T09:57:12.840Z</time>
      </trkpt>
      <trkpt lon="8.777929" lat="53.046329">
        <ele>5.42659</ele>
        <time>2026-01-12T09:57:14.648Z</time>
      </trkpt>
      <trkpt lon="8.781489" lat="53.050057">
        <ele>5.66122</ele>
        <time>2026-01-12T09:57:15.516Z</time>
      </trkpt>
      <trkpt lon="8.781494" lat="53.050068">
        <ele>5.65611</ele>
        <time>2026-01-12T09:58:16.692Z</time>
      </trkpt>
    </trkseg>
    <trkseg>
      <trkpt lon="8.950985" lat="53.286245">
        <ele>4.45561</ele>
        <time>2026-01-12T09:59:27.504Z</time>
      </trkpt>
      <trkpt lon="8.950991" lat="53.286258">
        <ele>4.44307</ele>
        <time>2026-01-12T10:04:21.856Z</time>
      </trkpt>
      <trkpt lon="8.950994" lat="53.286274">
        <ele>4.43776</ele>
        <time>2026-01-12T10:04:22.512Z</time>
      </trkpt>
      <trkpt lon="8.950988" lat="53.286298">
        <ele>4.43746</ele>
        <time>2026-01-12T10:04:23.164Z</time>
      </trkpt>
      <trkpt lon="8.950966" lat="53.286326">
        <ele>4.44202</ele>
        <time>2026-01-12T10:04:23.792Z</time>
      </trkpt>
      <trkpt lon="8.950919" lat="53.286354">
        <ele>4.43555</ele>
        <time>2026-01-12T10:04:24.460Z</time>
      </trkpt>
      <trkpt lon="8.950854" lat="53.286372">
        <ele>4.42574</ele>
        <time>2026-01-12T10:04:25.128Z</time>
      </trkpt>
      <trkpt lon="8.950776" lat="53.286377">
        <ele>4.39743</ele>
        <time>2026-01-12T10:04:25.816Z</time>
      </trkpt>
      <trkpt lon="8.950698" lat="53.286371">
        <ele>4.36649</ele>
        <time>2026-01-12T10:04:26.468Z</time>
      </trkpt>
      <trkpt lon="8.950581" lat="53.286351">
        <ele>4.34387</ele>
        <time>2026-01-12T10:04:27.768Z</time>
      </trkpt>
      <trkpt lon="8.950497" lat="53.286348">
        <ele>4.35784</ele>
        <time>2026-01-12T10:04:28.400Z</time>
      </trkpt>
      <trkpt lon="8.950249" lat="53.286374">
        <ele>4.32126</ele>
        <time>2026-01-12T10:04:29.708Z</time>
      </trkpt>
      <trkpt lon="8.949879" lat="53.286402">
        <ele>4.18712</ele>
        <time>2026-01-12T10:04:31.036Z</time>
      </trkpt>
      <trkpt lon="8.949398" lat="53.286420">
        <ele>3.99112</ele>
        <time>2026-01-12T10:04:32.352Z</time>
      </trkpt>
      <trkpt lon="8.948483" lat="53.286437">
        <ele>3.89888</ele>
        <time>2026-01-12T10:04:34.340Z</time>
      </trkpt>
      <trkpt lon="8.947382" lat="53.286477">
        <ele>4.39091</ele>
        <time>2026-01-12T10:04:36.320Z</time>
      </trkpt>
      <trkpt lon="8.945272" lat="53.286573">
        <ele>23.6008</ele>
        <time>2026-01-12T10:04:39.644Z</time>
      </trkpt>
      <trkpt lon="8.943992" lat="53.286701">
        <ele>41.9927</ele>
        <time>2026-01-12T10:04:41.632Z</time>
      </trkpt>
      <trkpt lon="8.942302" lat="53.286966">
        <ele>63.0556</ele>
        <time>2026-01-12T10:04:44.236Z</time>
      </trkpt>
      <trkpt lon="8.940503" lat="53.287286">
        <ele>84.4484</ele>
        <time>2026-01-12T10:04:46.936Z</time>
      </trkpt>
      <trkpt lon="8.938701" lat="53.287617">
        <ele>106.523</ele>
        <time>2026-01-12T10:04:49.592Z</time>
      </trkpt>
      <trkpt lon="8.936526" lat="53.288030">
        <ele>129.578</ele>
        <time>2026-01-12T10:04:52.912Z</time>
      </trkpt>
      <trkpt lon="8.932609" lat="53.288846">
        <ele>152.404</ele>
        <time>2026-01-12T10:04:58.928Z</time>
      </trkpt>
      <trkpt lon="8.922522" lat="53.291107">
        <ele>153.117</ele>
        <time>2026-01-12T10:05:14.980Z</time>
      </trkpt>
      <trkpt lon="8.920085" lat="53.291912">
        <ele>148.74</ele>
        <time>2026-01-12T10:05:18.920Z</time>
      </trkpt>
      <trkpt lon="8.914461" lat="53.294159">
        <ele>174.006</ele>
        <time>2026-01-12T10:05:28.264Z</time>
      </trkpt>
      <trkpt lon="8.911915" lat="53.295219">
        <ele>198.21</ele>
        <time>2026-01-12T10:05:32.892Z</time>
      </trkpt>
      <trkpt lon="8.902539" lat="53.299058">
        <ele>224.613</ele>
        <time>2026-01-12T10:05:49.456Z</time>
      </trkpt>
      <trkpt lon="8.897892" lat="53.300966">
        <ele>252.22</ele>
        <time>2026-01-12T10:05:57.472Z</time>
      </trkpt>
      <trkpt lon="8.895797" lat="53.302005">
        <ele>262.589</ele>
        <time>2026-01-12T10:06:01.424Z</time>
      </trkpt>
      <trkpt lon="8.894487" lat="53.302796">
        <ele>266.556</ele>
        <time>2026-01-12T10:06:04.108Z</time>
      </trkpt>
      <trkpt lon="8.893584" lat="53.303458">
        <ele>267.997</ele>
        <time>2026-01-12T10:06:06.116Z</time>
      </trkpt>
      <trkpt lon="8.892806" lat="53.304156">
        <ele>268.507</ele>
        <time>2026-01-12T10:06:08.080Z</time>
      </trkpt>
      <trkpt lon="8.892133" lat="53.304921">
        <ele>268.58</ele>
        <time>2026-01-12T10:06:10.044Z</time>
      </trkpt>
      <trkpt lon="8.891576" lat="53.305712">
        <ele>269.69</ele>
        <time>2026-01-12T10:06:11.980Z</time>
      </trkpt>
      <trkpt lon="8.890494" lat="53.307320">
        <ele>278.696</ele>
        <time>2026-01-12T10:06:15.944Z</time>
      </trkpt>
      <trkpt lon="8.889348" lat="53.308570">
        <ele>290.896</ele>
        <time>2026-01-12T10:06:19.292Z</time>
      </trkpt>
      <trkpt lon="8.885844" lat="53.311776">
        <ele>321.233</ele>
        <time>2026-01-12T10:06:28.564Z</time>
      </trkpt>
      <trkpt lon="8.879977" lat="53.316829">
        <ele>350.51</ele>
        <time>2026-01-12T10:06:43.212Z</time>
      </trkpt>
      <trkpt lon="8.875178" lat="53.321291">
        <ele>382.69</ele>
        <time>2026-01-12T10:06:55.836Z</time>
      </trkpt>
      <trkpt lon="8.868550" lat="53.325715">
        <ele>416.329</ele>
        <time>2026-01-12T10:07:10.020Z</time>
      </trkpt>
      <trkpt lon="8.863536" lat="53.328657">
        <ele>440.684</ele>
        <time>2026-01-12T10:07:19.980Z</time>
      </trkpt>
      <trkpt lon="8.855276" lat="53.332881">
        <ele>476.442</ele>
        <time>2026-01-12T10:07:35.360Z</time>
      </trkpt>
      <trkpt lon="8.838876" lat="53.341123">
        <ele>483.628</ele>
        <time>2026-01-12T10:08:05.688Z</time>
      </trkpt>
      <trkpt lon="8.836283" lat="53.342599">
        <ele>485.797</ele>
        <time>2026-01-12T10:08:10.584Z</time>
      </trkpt>
      <trkpt lon="8.834722" lat="53.343576">
        <ele>508.383</ele>
        <time>2026-01-12T10:08:13.960Z</time>
      </trkpt>
      <trkpt lon="8.833431" lat="53.344431">
        <ele>530.61</ele>
        <time>2026-01-12T10:08:17.280Z</time>
      </trkpt>
      <trkpt lon="8.830433" lat="53.346338">
        <ele>514.427</ele>
        <time>2026-01-12T10:08:25.192Z</time>
      </trkpt>
      <trkpt lon="8.821544" lat="53.352468">
        <ele>499.28</ele>
        <time>2026-01-12T10:08:46.396Z</time>
      </trkpt>
      <trkpt lon="8.819116" lat="53.353849">
        <ele>480.894</ele>
        <time>2026-01-12T10:08:51.740Z</time>
      </trkpt>
      <trkpt lon="8.813407" lat="53.356732">
        <ele>451.779</ele>
        <time>2026-01-12T10:09:02.468Z</time>
      </trkpt>
      <trkpt lon="8.803858" lat="53.362040">
        <ele>490.817</ele>
        <time>2026-01-12T10:09:21.864Z</time>
      </trkpt>
      <trkpt lon="8.800850" lat="53.363764">
        <ele>529.298</ele>
        <time>2026-01-12T10:09:28.492Z</time>
      </trkpt>
      <trkpt lon="8.795300" lat="53.366767">
        <ele>570</ele>
        <time>2026-01-12T10:09:40.432Z</time>
      </trkpt>
      <trkpt lon="8.792060" lat="53.368678">
        <ele>613.001</ele>
        <time>2026-01-12T10:09:47.800Z</time>
      </trkpt>
      <trkpt lon="8.790578" lat="53.369825">
        <ele>655.822</ele>
        <time>2026-01-12T10:09:52.448Z</time>
      </trkpt>
      <trkpt lon="8.790250" lat="53.370129">
        <ele>665.917</ele>
        <time>2026-01-12T10:09:53.732Z</time>
      </trkpt>
      <trkpt lon="8.789813" lat="53.370624">
        <ele>681.614</ele>
        <time>2026-01-12T10:09:55.744Z</time>
      </trkpt>
      <trkpt lon="8.789475" lat="53.371141">
        <ele>692.605</ele>
        <time>2026-01-12T10:09:57.688Z</time>
      </trkpt>
      <trkpt lon="8.788971" lat="53.372618">
        <ele>694.233</ele>
        <time>2026-01-12T10:10:02.452Z</time>
      </trkpt>
      <trkpt lon="8.788137" lat="53.373966">
        <ele>675.66</ele>
        <time>2026-01-12T10:10:06.456Z</time>
      </trkpt>
      <trkpt lon="8.786315" lat="53.376114">
        <ele>682.391</ele>
        <time>2026-01-12T10:10:12.496Z</time>
      </trkpt>
      <trkpt lon="8.784819" lat="53.377546">
        <ele>717.06</ele>
        <time>2026-01-12T10:10:17.144Z</time>
      </trkpt>
      <trkpt lon="8.782222" lat="53.379826">
        <ele>768.391</ele>
        <time>2026-01-12T10:10:25.916Z</time>
      </trkpt>
      <trkpt lon="8.776480" lat="53.384033">
        <ele>821.849</ele>
        <time>2026-01-12T10:10:42.316Z</time>
      </trkpt>
      <trkpt lon="8.773420" lat="53.386424">
        <ele>876.602</ele>
        <time>2026-01-12T10:10:51.096Z</time>
      </trkpt>
      <trkpt lon="8.769670" lat="53.389029">
        <ele>935.065</ele>
        <time>2026-01-12T10:11:01.852Z</time>
      </trkpt>
      <trkpt lon="8.764614" lat="53.392860">
        <ele>995.611</ele>
        <time>2026-01-12T10:11:18.528Z</time>
      </trkpt>
      <trkpt lon="8.760802" lat="53.395322">
        <ele>1055.45</ele>
        <time>2026-01-12T10:11:28.712Z</time>
      </trkpt>
      <trkpt lon="8.755054" lat="53.398319">
        <ele>1121.21</ele>
        <time>2026-01-12T10:11:42.720Z</time>
      </trkpt>
      <trkpt lon="8.754278" lat="53.398810">
        <ele>1128.65</ele>
        <time>2026-01-12T10:11:44.704Z</time>
      </trkpt>
      <trkpt lon="8.753573" lat="53.399404">
        <ele>1134.59</ele>
        <time>2026-01-12T10:11:46.772Z</time>
      </trkpt>
      <trkpt lon="8.753174" lat="53.399854">
        <ele>1137.36</ele>
        <time>2026-01-12T10:11:48.132Z</time>
      </trkpt>
      <trkpt lon="8.752698" lat="53.400577">
        <ele>1141.47</ele>
        <time>2026-01-12T10:11:50.152Z</time>
      </trkpt>
      <trkpt lon="8.752092" lat="53.401886">
        <ele>1153.66</ele>
        <time>2026-01-12T10:11:53.580Z</time>
      </trkpt>
      <trkpt lon="8.751642" lat="53.403448">
        <ele>1176.54</ele>
        <time>2026-01-12T10:11:57.552Z</time>
      </trkpt>
      <trkpt lon="8.751155" lat="53.407806">
        <ele>1250.74</ele>
        <time>2026-01-12T10:12:09.108Z</time>
      </trkpt>
      <trkpt lon="8.750814" lat="53.409328">
        <ele>1268.4</ele>
        <time>2026-01-12T10:12:13.260Z</time>
      </trkpt>
      <trkpt lon="8.750125" lat="53.410776">
        <ele>1273.98</ele>
        <time>2026-01-12T10:12:17.272Z</time>
      </trkpt>
      <trkpt lon="8.748271" lat="53.413913">
        <ele>1273.35</ele>
        <time>2026-01-12T10:12:25.296Z</time>
      </trkpt>
      <trkpt lon="8.745344" lat="53.418134">
        <ele>1265.13</ele>
        <time>2026-01-12T10:12:35.244Z</time>
      </trkpt>
      <trkpt lon="8.736544" lat="53.428227">
        <ele>1259.73</ele>
        <time>2026-01-12T10:12:59.204Z</time>
      </trkpt>
      <trkpt lon="8.729175" lat="53.434963">
        <ele>1261.16</ele>
        <time>2026-01-12T10:13:15.936Z</time>
      </trkpt>
      <trkpt lon="8.724587" lat="53.438315">
        <ele>1276.58</ele>
        <time>2026-01-12T10:13:25.180Z</time>
      </trkpt>
      <trkpt lon="8.718984" lat="53.441653">
        <ele>1304.36</ele>
        <time>2026-01-12T10:13:35.828Z</time>
      </trkpt>
      <trkpt lon="8.705125" lat="53.448414">
        <ele>1357.17</ele>
        <time>2026-01-12T10:14:00.524Z</time>
      </trkpt>
      <trkpt lon="8.698092" lat="53.451475">
        <ele>1360.43</ele>
        <time>2026-01-12T10:14:12.576Z</time>
      </trkpt>
      <trkpt lon="8.695827" lat="53.452053">
        <ele>1353.97</ele>
        <time>2026-01-12T10:14:15.912Z</time>
      </trkpt>
      <trkpt lon="8.693394" lat="53.452458">
        <ele>1349.34</ele>
        <time>2026-01-12T10:14:19.260Z</time>
      </trkpt>
      <trkpt lon="8.685045" lat="53.453247">
        <ele>1358.04</ele>
        <time>2026-01-12T10:14:30.624Z</time>
      </trkpt>
      <trkpt lon="8.662863" lat="53.454434">
        <ele>1363.81</ele>
        <time>2026-01-12T10:15:00.808Z</time>
      </trkpt>
      <trkpt lon="8.656956" lat="53.454893">
        <ele>1365.38</ele>
        <time>2026-01-12T10:15:08.808Z</time>
      </trkpt>
      <trkpt lon="8.653544" lat="53.455404">
        <ele>1364.62</ele>
        <time>2026-01-12T10:15:13.496Z</time>
      </trkpt>
      <trkpt lon="8.632053" lat="53.459349">
        <ele>1374.23</ele>
        <time>2026-01-12T10:15:43.564Z</time>
      </trkpt>
      <trkpt lon="8.611337" lat="53.462715">
        <ele>1343.85</ele>
        <time>2026-01-12T10:16:11.684Z</time>
      </trkpt>
      <trkpt lon="8.596492" lat="53.466078">
        <ele>1335.16</ele>
        <time>2026-01-12T10:16:31.676Z</time>
      </trkpt>
      <trkpt lon="8.595142" lat="53.466574">
        <ele>1329.43</ele>
        <time>2026-01-12T10:16:33.676Z</time>
      </trkpt>
      <trkpt lon="8.593433" lat="53.467406">
        <ele>1318.11</ele>
        <time>2026-01-12T10:16:36.372Z</time>
      </trkpt>
      <trkpt lon="8.591906" lat="53.468365">
        <ele>1305.95</ele>
        <time>2026-01-12T10:16:38.988Z</time>
      </trkpt>
      <trkpt lon="8.590461" lat="53.469482">
        <ele>1294.71</ele>
        <time>2026-01-12T10:16:41.704Z</time>
      </trkpt>
      <trkpt lon="8.588313" lat="53.471555">
        <ele>1283.43</ele>
        <time>2026-01-12T10:16:46.320Z</time>
      </trkpt>
      <trkpt lon="8.584955" lat="53.475527">
        <ele>1287.73</ele>
        <time>2026-01-12T10:16:54.864Z</time>
      </trkpt>
      <trkpt lon="8.582785" lat="53.478661">
        <ele>1287.92</ele>
        <time>2026-01-12T10:17:01.564Z</time>
      </trkpt>
      <trkpt lon="8.581571" lat="53.481366">
        <ele>1276.94</ele>
        <time>2026-01-12T10:17:06.936Z</time>
      </trkpt>
      <trkpt lon="8.580132" lat="53.486640">
        <ele>1258.98</ele>
        <time>2026-01-12T10:17:16.836Z</time>
      </trkpt>
      <trkpt lon="8.577327" lat="53.502983">
        <ele>1229.15</ele>
        <time>2026-01-12T10:17:47.460Z</time>
      </trkpt>
      <trkpt lon="8.575056" lat="53.515666">
        <ele>1219.14</ele>
        <time>2026-01-12T10:18:11.916Z</time>
      </trkpt>
      <trkpt lon="8.574461" lat="53.517337">
        <ele>1215.6</ele>
        <time>2026-01-12T10:18:15.220Z</time>
      </trkpt>
      <trkpt lon="8.573717" lat="53.518563">
        <ele>1211.61</ele>
        <time>2026-01-12T10:18:17.792Z</time>
      </trkpt>
      <trkpt lon="8.571871" lat="53.520587">
        <ele>1202.13</ele>
        <time>2026-01-12T10:18:22.392Z</time>
      </trkpt>
      <trkpt lon="8.566484" lat="53.525416">
        <ele>1200.56</ele>
        <time>2026-01-12T10:18:34.180Z</time>
      </trkpt>
      <trkpt lon="8.561724" lat="53.529660">
        <ele>1193.64</ele>
        <time>2026-01-12T10:18:44.752Z</time>
      </trkpt>
      <trkpt lon="8.559384" lat="53.532608">
        <ele>1182.91</ele>
        <time>2026-01-12T10:18:51.288Z</time>
      </trkpt>
      <trkpt lon="8.550411" lat="53.546854">
        <ele>1168.84</ele>
        <time>2026-01-12T10:19:21.624Z</time>
      </trkpt>
      <trkpt lon="8.548414" lat="53.551002">
        <ele>1165.77</ele>
        <time>2026-01-12T10:19:30.168Z</time>
      </trkpt>
      <trkpt lon="8.545759" lat="53.559288">
        <ele>1142.76</ele>
        <time>2026-01-12T10:19:49.216Z</time>
      </trkpt>
      <trkpt lon="8.545391" lat="53.562147">
        <ele>1136.64</ele>
        <time>2026-01-12T10:19:54.600Z</time>
      </trkpt>
      <trkpt lon="8.545513" lat="53.564302">
        <ele>1133.54</ele>
        <time>2026-01-12T10:19:58.532Z</time>
      </trkpt>
      <trkpt lon="8.546049" lat="53.566834">
        <ele>1131.7</ele>
        <time>2026-01-12T10:20:03.164Z</time>
      </trkpt>
      <trkpt lon="8.551888" lat="53.583220">
        <ele>1131.04</ele>
        <time>2026-01-12T10:20:33.692Z</time>
      </trkpt>
      <trkpt lon="8.556902" lat="53.597143">
        <ele>1131.77</ele>
        <time>2026-01-12T10:20:59.716Z</time>
      </trkpt>
      <trkpt lon="8.557662" lat="53.601873">
        <ele>1122.67</ele>
        <time>2026-01-12T10:21:08.564Z</time>
      </trkpt>
      <trkpt lon="8.557685" lat="53.605360">
        <ele>1118.54</ele>
        <time>2026-01-12T10:21:15.096Z</time>
      </trkpt>
      <trkpt lon="8.557236" lat="53.608427">
        <ele>1119.33</ele>
        <time>2026-01-12T10:21:20.988Z</time>
      </trkpt>
      <trkpt lon="8.555645" lat="53.614972">
        <ele>1116.21</ele>
        <time>2026-01-12T10:21:33.864Z</time>
      </trkpt>
      <trkpt lon="8.555635" lat="53.617056">
        <ele>1111.13</ele>
        <time>2026-01-12T10:21:37.788Z</time>
      </trkpt>
      <trkpt lon="8.556909" lat="53.627928">
        <ele>1110.69</ele>
        <time>2026-01-12T10:21:58.252Z</time>
      </trkpt>
      <trkpt lon="8.556020" lat="53.643655">
        <ele>1101.94</ele>
        <time>2026-01-12T10:22:28.428Z</time>
      </trkpt>
      <trkpt lon="8.555956" lat="53.644732">
        <ele>1101.11</ele>
        <time>2026-01-12T10:22:30.452Z</time>
      </trkpt>
      <trkpt lon="8.556254" lat="53.647250">
        <ele>1098.35</ele>
        <time>2026-01-12T10:22:35.172Z</time>
      </trkpt>
      <trkpt lon="8.556627" lat="53.648324">
        <ele>1095.86</ele>
        <time>2026-01-12T10:22:37.172Z</time>
      </trkpt>
      <trkpt lon="8.557829" lat="53.650431">
        <ele>1089.06</ele>
        <time>2026-01-12T10:22:41.104Z</time>
      </trkpt>
      <trkpt lon="8.568707" lat="53.666201">
        <ele>1089.71</ele>
        <time>2026-01-12T10:23:11.748Z</time>
      </trkpt>
      <trkpt lon="8.581613" lat="53.681509">
        <ele>1092.78</ele>
        <time>2026-01-12T10:23:42.108Z</time>
      </trkpt>
      <trkpt lon="8.593423" lat="53.696745">
        <ele>1093.02</ele>
        <time>2026-01-12T10:24:12.128Z</time>
      </trkpt>
      <trkpt lon="8.605490" lat="53.710633">
        <ele>1074.32</ele>
        <time>2026-01-12T10:24:42.184Z</time>
      </trkpt>
      <trkpt lon="8.616820" lat="53.725446">
        <ele>1063.54</ele>
        <time>2026-01-12T10:25:12.412Z</time>
      </trkpt>
      <trkpt lon="8.627798" lat="53.741355">
        <ele>1034.84</ele>
        <time>2026-01-12T10:25:42.940Z</time>
      </trkpt>
      <trkpt lon="8.638545" lat="53.757369">
        <ele>1022.99</ele>
        <time>2026-01-12T10:26:13.584Z</time>
      </trkpt>
      <trkpt lon="8.642686" lat="53.763710">
        <ele>1005.86</ele>
        <time>2026-01-12T10:26:29.348Z</time>
      </trkpt>
      <trkpt lon="8.646651" lat="53.768333">
        <ele>997.206</ele>
        <time>2026-01-12T10:26:38.112Z</time>
      </trkpt>
      <trkpt lon="8.662511" lat="53.782926">
        <ele>988.475</ele>
        <time>2026-01-12T10:27:08.176Z</time>
      </trkpt>
      <trkpt lon="8.669995" lat="53.790895">
        <ele>975.499</ele>
        <time>2026-01-12T10:27:24.212Z</time>
      </trkpt>
      <trkpt lon="8.678266" lat="53.800251">
        <ele>974.588</ele>
        <time>2026-01-12T10:27:50.156Z</time>
      </trkpt>
      <trkpt lon="8.683968" lat="53.805236">
        <ele>969.03</ele>
        <time>2026-01-12T10:28:00.672Z</time>
      </trkpt>
      <trkpt lon="8.693985" lat="53.813656">
        <ele>968.868</ele>
        <time>2026-01-12T10:28:18.604Z</time>
      </trkpt>
      <trkpt lon="8.699684" lat="53.819262">
        <ele>961.308</ele>
        <time>2026-01-12T10:28:30.028Z</time>
      </trkpt>
      <trkpt lon="8.702116" lat="53.821132">
        <ele>957.594</ele>
        <time>2026-01-12T10:28:34.064Z</time>
      </trkpt>
      <trkpt lon="8.704402" lat="53.822598">
        <ele>953.807</ele>
        <time>2026-01-12T10:28:37.416Z</time>
      </trkpt>
      <trkpt lon="8.707925" lat="53.824462">
        <ele>950.359</ele>
        <time>2026-01-12T10:28:42.076Z</time>
      </trkpt>
      <trkpt lon="8.728325" lat="53.833131">
        <ele>973.972</ele>
        <time>2026-01-12T10:29:07.232Z</time>
      </trkpt>
      <trkpt lon="8.732794" lat="53.834789">
        <ele>974.594</ele>
        <time>2026-01-12T10:29:12.560Z</time>
      </trkpt>
      <trkpt lon="8.735827" lat="53.835719">
        <ele>973.481</ele>
        <time>2026-01-12T10:29:15.928Z</time>
      </trkpt>
      <trkpt lon="8.738999" lat="53.836479">
        <ele>971.478</ele>
        <time>2026-01-12T10:29:19.252Z</time>
      </trkpt>
      <trkpt lon="8.741612" lat="53.836942">
        <ele>969.307</ele>
        <time>2026-01-12T10:29:21.892Z</time>
      </trkpt>
      <trkpt lon="8.750506" lat="53.837962">
        <ele>969.851</ele>
        <time>2026-01-12T10:29:30.540Z</time>
      </trkpt>
      <trkpt lon="8.752410" lat="53.838411">
        <ele>970.243</ele>
        <time>2026-01-12T10:29:32.544Z</time>
      </trkpt>
      <trkpt lon="8.754185" lat="53.838988">
        <ele>969.085</ele>
        <time>2026-01-12T10:29:34.520Z</time>
      </trkpt>
      <trkpt lon="8.755834" lat="53.839672">
        <ele>967.551</ele>
        <time>2026-01-12T10:29:36.496Z</time>
      </trkpt>
      <trkpt lon="8.757855" lat="53.840694">
        <ele>967.602</ele>
        <time>2026-01-12T10:29:39.204Z</time>
      </trkpt>
      <trkpt lon="8.768073" lat="53.846081">
        <ele>996.814</ele>
        <time>2026-01-12T10:29:53.264Z</time>
      </trkpt>
      <trkpt lon="8.772499" lat="53.847743">
        <ele>997.704</ele>
        <time>2026-01-12T10:29:58.676Z</time>
      </trkpt>
      <trkpt lon="8.796646" lat="53.855643">
        <ele>1000.85</ele>
        <time>2026-01-12T10:30:26.748Z</time>
      </trkpt>
      <trkpt lon="8.811355" lat="53.860098">
        <ele>995.242</ele>
        <time>2026-01-12T10:30:42.876Z</time>
      </trkpt>
      <trkpt lon="8.822160" lat="53.864019">
        <ele>995.26</ele>
        <time>2026-01-12T10:30:55.548Z</time>
      </trkpt>
      <trkpt lon="8.823686" lat="53.864728">
        <ele>994.166</ele>
        <time>2026-01-12T10:30:57.516Z</time>
      </trkpt>
      <trkpt lon="8.825098" lat="53.865530">
        <ele>991.129</ele>
        <time>2026-01-12T10:30:59.532Z</time>
      </trkpt>
      <trkpt lon="8.826333" lat="53.866396">
        <ele>986.456</ele>
        <time>2026-01-12T10:31:01.508Z</time>
      </trkpt>
      <trkpt lon="8.827414" lat="53.867339">
        <ele>980.763</ele>
        <time>2026-01-12T10:31:03.504Z</time>
      </trkpt>
      <trkpt lon="8.828335" lat="53.868346">
        <ele>974.861</ele>
        <time>2026-01-12T10:31:05.516Z</time>
      </trkpt>
      <trkpt lon="8.829084" lat="53.869392">
        <ele>969.575</ele>
        <time>2026-01-12T10:31:07.528Z</time>
      </trkpt>
      <trkpt lon="8.829652" lat="53.870441">
        <ele>965.906</ele>
        <time>2026-01-12T10:31:09.492Z</time>
      </trkpt>
      <trkpt lon="8.830182" lat="53.871885">
        <ele>963.491</ele>
        <time>2026-01-12T10:31:12.172Z</time>
      </trkpt>
      <trkpt lon="8.830538" lat="53.873657">
        <ele>965.265</ele>
        <time>2026-01-12T10:31:15.488Z</time>
      </trkpt>
      <trkpt lon="8.831759" lat="53.889233">
        <ele>980.941</ele>
        <time>2026-01-12T10:31:45.936Z</time>
      </trkpt>
      <trkpt lon="8.833172" lat="53.905339">
        <ele>951.543</ele>
        <time>2026-01-12T10:32:16.532Z</time>
      </trkpt>
      <trkpt lon="8.833686" lat="53.907843">
        <ele>946.872</ele>
        <time>2026-01-12T10:32:21.240Z</time>
      </trkpt>
      <trkpt lon="8.837928" lat="53.924115">
        <ele>926.669</ele>
        <time>2026-01-12T10:32:51.772Z</time>
      </trkpt>
      <trkpt lon="8.839328" lat="53.932234">
        <ele>918.23</ele>
        <time>2026-01-12T10:33:07.172Z</time>
      </trkpt>
      <trkpt lon="8.839057" lat="53.945029">
        <ele>913.295</ele>
        <time>2026-01-12T10:33:31.896Z</time>
      </trkpt>
      <trkpt lon="8.837277" lat="53.960026">
        <ele>909.663</ele>
        <time>2026-01-12T10:34:02.012Z</time>
      </trkpt>
      <trkpt lon="8.835852" lat="53.975346">
        <ele>919.215</ele>
        <time>2026-01-12T10:34:32.276Z</time>
      </trkpt>
      <trkpt lon="8.835881" lat="53.977043">
        <ele>918.661</ele>
        <time>2026-01-12T10:34:35.584Z</time>
      </trkpt>
      <trkpt lon="8.836212" lat="53.978772">
        <ele>916.709</ele>
        <time>2026-01-12T10:34:38.896Z</time>
      </trkpt>
      <trkpt lon="8.836819" lat="53.980483">
        <ele>913.324</ele>
        <time>2026-01-12T10:34:42.116Z</time>
      </trkpt>
      <trkpt lon="8.838942" lat="53.985415">
        <ele>918.257</ele>
        <time>2026-01-12T10:34:51.496Z</time>
      </trkpt>
      <trkpt lon="8.839101" lat="53.986445">
        <ele>920.943</ele>
        <time>2026-01-12T10:34:53.496Z</time>
      </trkpt>
      <trkpt lon="8.839038" lat="53.987463">
        <ele>920.117</ele>
        <time>2026-01-12T10:34:55.516Z</time>
      </trkpt>
      <trkpt lon="8.838703" lat="53.988824">
        <ele>916.338</ele>
        <time>2026-01-12T10:34:58.216Z</time>
      </trkpt>
      <trkpt lon="8.838176" lat="53.990107">
        <ele>913.805</ele>
        <time>2026-01-12T10:35:00.836Z</time>
      </trkpt>
      <trkpt lon="8.837221" lat="53.991719">
        <ele>912.293</ele>
        <time>2026-01-12T10:35:04.240Z</time>
      </trkpt>
      <trkpt lon="8.836015" lat="53.993202">
        <ele>914.081</ele>
        <time>2026-01-12T10:35:07.572Z</time>
      </trkpt>
      <trkpt lon="8.830608" lat="53.998279">
        <ele>934.198</ele>
        <time>2026-01-12T10:35:20.212Z</time>
      </trkpt>
      <trkpt lon="8.816617" lat="54.010453">
        <ele>955.058</ele>
        <time>2026-01-12T10:35:50.864Z</time>
      </trkpt>
      <trkpt lon="8.802407" lat="54.022005">
        <ele>975.286</ele>
        <time>2026-01-12T10:36:21.044Z</time>
      </trkpt>
      <trkpt lon="8.799142" lat="54.024926">
        <ele>979.033</ele>
        <time>2026-01-12T10:36:28.372Z</time>
      </trkpt>
      <trkpt lon="8.795205" lat="54.029659">
        <ele>983.856</ele>
        <time>2026-01-12T10:36:39.128Z</time>
      </trkpt>
      <trkpt lon="8.784015" lat="54.042294">
        <ele>1006.96</ele>
        <time>2026-01-12T10:37:08.592Z</time>
      </trkpt>
      <trkpt lon="8.779297" lat="54.047279">
        <ele>1014.97</ele>
        <time>2026-01-12T10:37:20.468Z</time>
      </trkpt>
      <trkpt lon="8.776839" lat="54.050935">
        <ele>1014.68</ele>
        <time>2026-01-12T10:37:28.448Z</time>
      </trkpt>
      <trkpt lon="8.769415" lat="54.064972">
        <ele>1029.79</ele>
        <time>2026-01-12T10:37:58.460Z</time>
      </trkpt>
      <trkpt lon="8.768950" lat="54.065911">
        <ele>1029.42</ele>
        <time>2026-01-12T10:38:00.472Z</time>
      </trkpt>
      <trkpt lon="8.768477" lat="54.067789">
        <ele>1017.78</ele>
        <time>2026-01-12T10:38:04.432Z</time>
      </trkpt>
      <trkpt lon="8.768702" lat="54.069758">
        <ele>978.833</ele>
        <time>2026-01-12T10:38:08.492Z</time>
      </trkpt>
      <trkpt lon="8.769181" lat="54.071422">
        <ele>936.078</ele>
        <time>2026-01-12T10:38:11.780Z</time>
      </trkpt>
      <trkpt lon="8.769697" lat="54.072808">
        <ele>900.608</ele>
        <time>2026-01-12T10:38:14.448Z</time>
      </trkpt>
      <trkpt lon="8.769970" lat="54.074601">
        <ele>870.817</ele>
        <time>2026-01-12T10:38:17.704Z</time>
      </trkpt>
      <trkpt lon="8.769820" lat="54.075344">
        <ele>865.472</ele>
        <time>2026-01-12T10:38:19.052Z</time>
      </trkpt>
      <trkpt lon="8.769538" lat="54.076047">
        <ele>861.227</ele>
        <time>2026-01-12T10:38:20.392Z</time>
      </trkpt>
      <trkpt lon="8.769119" lat="54.076713">
        <ele>857.409</ele>
        <time>2026-01-12T10:38:21.720Z</time>
      </trkpt>
      <trkpt lon="8.768577" lat="54.077330">
        <ele>853.667</ele>
        <time>2026-01-12T10:38:23.064Z</time>
      </trkpt>
      <trkpt lon="8.767940" lat="54.077882">
        <ele>850.112</ele>
        <time>2026-01-12T10:38:24.368Z</time>
      </trkpt>
      <trkpt lon="8.767182" lat="54.078395">
        <ele>846.629</ele>
        <time>2026-01-12T10:38:25.712Z</time>
      </trkpt>
      <trkpt lon="8.766361" lat="54.078833">
        <ele>843.522</ele>
        <time>2026-01-12T10:38:27.016Z</time>
      </trkpt>
      <trkpt lon="8.765045" lat="54.079384">
        <ele>840.306</ele>
        <time>2026-01-12T10:38:28.984Z</time>
      </trkpt>
      <trkpt lon="8.762801" lat="54.080126">
        <ele>838.492</ele>
        <time>2026-01-12T10:38:32.300Z</time>
      </trkpt>
      <trkpt lon="8.756312" lat="54.082142">
        <ele>786.014</ele>
        <time>2026-01-12T10:38:42.624Z</time>
      </trkpt>
      <trkpt lon="8.752365" lat="54.083635">
        <ele>737.495</ele>
        <time>2026-01-12T10:38:48.704Z</time>
      </trkpt>
      <trkpt lon="8.748851" lat="54.085205">
        <ele>719.934</ele>
        <time>2026-01-12T10:38:54.060Z</time>
      </trkpt>
      <trkpt lon="8.745729" lat="54.086972">
        <ele>727.31</ele>
        <time>2026-01-12T10:38:59.496Z</time>
      </trkpt>
      <trkpt lon="8.743113" lat="54.088845">
        <ele>736.958</ele>
        <time>2026-01-12T10:39:04.872Z</time>
      </trkpt>
      <trkpt lon="8.740888" lat="54.090795">
        <ele>734.536</ele>
        <time>2026-01-12T10:39:10.160Z</time>
      </trkpt>
      <trkpt lon="8.738573" lat="54.093255">
        <ele>713.845</ele>
        <time>2026-01-12T10:39:16.260Z</time>
      </trkpt>
      <trkpt lon="8.736312" lat="54.096766">
        <ele>682.866</ele>
        <time>2026-01-12T10:39:24.152Z</time>
      </trkpt>
      <trkpt lon="8.733648" lat="54.102006">
        <ele>638.217</ele>
        <time>2026-01-12T10:39:35.456Z</time>
      </trkpt>
      <trkpt lon="8.730784" lat="54.106911">
        <ele>595.075</ele>
        <time>2026-01-12T10:39:46.768Z</time>
      </trkpt>
      <trkpt lon="8.729146" lat="54.109465">
        <ele>549.782</ele>
        <time>2026-01-12T10:39:52.744Z</time>
      </trkpt>
      <trkpt lon="8.727655" lat="54.111865">
        <ele>508.341</ele>
        <time>2026-01-12T10:39:58.020Z</time>
      </trkpt>
      <trkpt lon="8.725852" lat="54.115478">
        <ele>491.754</ele>
        <time>2026-01-12T10:40:05.352Z</time>
      </trkpt>
      <trkpt lon="8.721336" lat="54.128162">
        <ele>501.706</ele>
        <time>2026-01-12T10:40:32.032Z</time>
      </trkpt>
      <trkpt lon="8.715874" lat="54.142191">
        <ele>507.981</ele>
        <time>2026-01-12T10:41:02.680Z</time>
      </trkpt>
      <trkpt lon="8.711230" lat="54.149124">
        <ele>497.579</ele>
        <time>2026-01-12T10:41:18.868Z</time>
      </trkpt>
      <trkpt lon="8.708352" lat="54.152646">
        <ele>500.538</ele>
        <time>2026-01-12T10:41:27.508Z</time>
      </trkpt>
      <trkpt lon="8.696997" lat="54.164277">
        <ele>495.947</ele>
        <time>2026-01-12T10:41:57.604Z</time>
      </trkpt>
      <trkpt lon="8.688123" lat="54.172132">
        <ele>490.049</ele>
        <time>2026-01-12T10:42:19.144Z</time>
      </trkpt>
      <trkpt lon="8.686686" lat="54.174084">
        <ele>485.004</ele>
        <time>2026-01-12T10:42:23.784Z</time>
      </trkpt>
      <trkpt lon="8.684953" lat="54.177361">
        <ele>484.187</ele>
        <time>2026-01-12T10:42:31.156Z</time>
      </trkpt>
      <trkpt lon="8.678772" lat="54.188793">
        <ele>480.573</ele>
        <time>2026-01-12T10:42:57.268Z</time>
      </trkpt>
      <trkpt lon="8.669563" lat="54.201661">
        <ele>458.451</ele>
        <time>2026-01-12T10:43:27.744Z</time>
      </trkpt>
      <trkpt lon="8.663921" lat="54.209060">
        <ele>443.471</ele>
        <time>2026-01-12T10:43:45.240Z</time>
      </trkpt>
      <trkpt lon="8.651523" lat="54.220367">
        <ele>415.56</ele>
        <time>2026-01-12T10:44:15.292Z</time>
      </trkpt>
      <trkpt lon="8.648613" lat="54.223225">
        <ele>408.812</ele>
        <time>2026-01-12T10:44:22.688Z</time>
      </trkpt>
      <trkpt lon="8.647513" lat="54.224660">
        <ele>407.441</ele>
        <time>2026-01-12T10:44:26.028Z</time>
      </trkpt>
      <trkpt lon="8.646660" lat="54.226201">
        <ele>410.177</ele>
        <time>2026-01-12T10:44:29.356Z</time>
      </trkpt>
      <trkpt lon="8.645872" lat="54.228449">
        <ele>422.512</ele>
        <time>2026-01-12T10:44:34.032Z</time>
      </trkpt>
      <trkpt lon="8.644981" lat="54.233202">
        <ele>459.617</ele>
        <time>2026-01-12T10:44:44.024Z</time>
      </trkpt>
      <trkpt lon="8.642694" lat="54.242422">
        <ele>498.014</ele>
        <time>2026-01-12T10:45:03.504Z</time>
      </trkpt>
      <trkpt lon="8.639627" lat="54.249462">
        <ele>537.322</ele>
        <time>2026-01-12T10:45:18.940Z</time>
      </trkpt>
      <trkpt lon="8.634993" lat="54.257528">
        <ele>579.886</ele>
        <time>2026-01-12T10:45:37.052Z</time>
      </trkpt>
      <trkpt lon="8.632437" lat="54.260880">
        <ele>603.271</ele>
        <time>2026-01-12T10:45:45.052Z</time>
      </trkpt>
      <trkpt lon="8.624635" lat="54.268722">
        <ele>648.896</ele>
        <time>2026-01-12T10:46:05.148Z</time>
      </trkpt>
      <trkpt lon="8.619012" lat="54.274584">
        <ele>670.461</ele>
        <time>2026-01-12T10:46:19.852Z</time>
      </trkpt>
      <trkpt lon="8.611606" lat="54.281222">
        <ele>718.123</ele>
        <time>2026-01-12T10:46:37.056Z</time>
      </trkpt>
      <trkpt lon="8.602015" lat="54.289154">
        <ele>767.932</ele>
        <time>2026-01-12T10:46:58.272Z</time>
      </trkpt>
      <trkpt lon="8.587778" lat="54.300154">
        <ele>727.169</ele>
        <time>2026-01-12T10:47:28.332Z</time>
      </trkpt>
      <trkpt lon="8.579682" lat="54.305901">
        <ele>679.601</ele>
        <time>2026-01-12T10:47:44.508Z</time>
      </trkpt>
      <trkpt lon="8.573357" lat="54.310558">
        <ele>636.836</ele>
        <time>2026-01-12T10:47:57.236Z</time>
      </trkpt>
      <trkpt lon="8.571166" lat="54.312690">
        <ele>619.579</ele>
        <time>2026-01-12T10:48:02.468Z</time>
      </trkpt>
      <trkpt lon="8.569298" lat="54.315022">
        <ele>601.725</ele>
        <time>2026-01-12T10:48:07.784Z</time>
      </trkpt>
      <trkpt lon="8.567359" lat="54.318052">
        <ele>574.797</ele>
        <time>2026-01-12T10:48:14.432Z</time>
      </trkpt>
      <trkpt lon="8.566238" lat="54.320631">
        <ele>551.957</ele>
        <time>2026-01-12T10:48:19.692Z</time>
      </trkpt>
      <trkpt lon="8.565356" lat="54.324105">
        <ele>531.993</ele>
        <time>2026-01-12T10:48:26.408Z</time>
      </trkpt>
      <trkpt lon="8.564674" lat="54.328250">
        <ele>559.907</ele>
        <time>2026-01-12T10:48:34.360Z</time>
      </trkpt>
      <trkpt lon="8.563007" lat="54.332861">
        <ele>581.006</ele>
        <time>2026-01-12T10:48:44.436Z</time>
      </trkpt>
      <trkpt lon="8.560340" lat="54.338219">
        <ele>551.493</ele>
        <time>2026-01-12T10:48:55.908Z</time>
      </trkpt>
      <trkpt lon="8.556971" lat="54.342479">
        <ele>510.701</ele>
        <time>2026-01-12T10:49:05.804Z</time>
      </trkpt>
      <trkpt lon="8.553800" lat="54.347177">
        <ele>494.732</ele>
        <time>2026-01-12T10:49:15.804Z</time>
      </trkpt>
      <trkpt lon="8.550688" lat="54.352578">
        <ele>532.597</ele>
        <time>2026-01-12T10:49:27.652Z</time>
      </trkpt>
      <trkpt lon="8.549645" lat="54.355419">
        <ele>532.787</ele>
        <time>2026-01-12T10:49:33.636Z</time>
      </trkpt>
      <trkpt lon="8.549294" lat="54.359169">
        <ele>526.764</ele>
        <time>2026-01-12T10:49:40.904Z</time>
      </trkpt>
      <trkpt lon="8.548466" lat="54.364468">
        <ele>549.1</ele>
        <time>2026-01-12T10:49:51.556Z</time>
      </trkpt>
      <trkpt lon="8.546333" lat="54.372647">
        <ele>530.14</ele>
        <time>2026-01-12T10:50:09.012Z</time>
      </trkpt>
      <trkpt lon="8.540975" lat="54.387239">
        <ele>512.319</ele>
        <time>2026-01-12T10:50:39.644Z</time>
      </trkpt>
      <trkpt lon="8.539805" lat="54.391950">
        <ele>509.694</ele>
        <time>2026-01-12T10:50:48.916Z</time>
      </trkpt>
      <trkpt lon="8.539537" lat="54.394346">
        <ele>522.035</ele>
        <time>2026-01-12T10:50:53.568Z</time>
      </trkpt>
      <trkpt lon="8.539400" lat="54.398764">
        <ele>553.852</ele>
        <time>2026-01-12T10:51:02.304Z</time>
      </trkpt>
      <trkpt lon="8.538666" lat="54.401942">
        <ele>576.602</ele>
        <time>2026-01-12T10:51:09.020Z</time>
      </trkpt>
      <trkpt lon="8.537088" lat="54.405634">
        <ele>594.174</ele>
        <time>2026-01-12T10:51:17.080Z</time>
      </trkpt>
      <trkpt lon="8.535061" lat="54.408914">
        <ele>609.212</ele>
        <time>2026-01-12T10:51:24.508Z</time>
      </trkpt>
      <trkpt lon="8.532484" lat="54.411945">
        <ele>625.813</ele>
        <time>2026-01-12T10:51:31.756Z</time>
      </trkpt>
      <trkpt lon="8.529707" lat="54.414539">
        <ele>643.88</ele>
        <time>2026-01-12T10:51:38.424Z</time>
      </trkpt>
      <trkpt lon="8.518914" lat="54.423217">
        <ele>690.438</ele>
        <time>2026-01-12T10:52:02.804Z</time>
      </trkpt>
      <trkpt lon="8.513337" lat="54.427677">
        <ele>724.123</ele>
        <time>2026-01-12T10:52:14.804Z</time>
      </trkpt>
      <trkpt lon="8.512306" lat="54.428803">
        <ele>727.418</ele>
        <time>2026-01-12T10:52:17.532Z</time>
      </trkpt>
      <trkpt lon="8.511472" lat="54.429986">
        <ele>728.619</ele>
        <time>2026-01-12T10:52:20.176Z</time>
      </trkpt>
      <trkpt lon="8.510301" lat="54.432583">
        <ele>731.797</ele>
        <time>2026-01-12T10:52:25.560Z</time>
      </trkpt>
      <trkpt lon="8.507978" lat="54.440054">
        <ele>781.284</ele>
        <time>2026-01-12T10:52:40.920Z</time>
      </trkpt>
      <trkpt lon="8.507800" lat="54.441689">
        <ele>784.514</ele>
        <time>2026-01-12T10:52:44.212Z</time>
      </trkpt>
      <trkpt lon="8.507952" lat="54.442724">
        <ele>781.842</ele>
        <time>2026-01-12T10:52:46.200Z</time>
      </trkpt>
      <trkpt lon="8.508317" lat="54.443786">
        <ele>776.386</ele>
        <time>2026-01-12T10:52:48.196Z</time>
      </trkpt>
      <trkpt lon="8.508883" lat="54.444887">
        <ele>770.563</ele>
        <time>2026-01-12T10:52:50.208Z</time>
      </trkpt>
      <trkpt lon="8.509902" lat="54.446350">
        <ele>765.601</ele>
        <time>2026-01-12T10:52:52.904Z</time>
      </trkpt>
      <trkpt lon="8.511154" lat="54.447751">
        <ele>766.668</ele>
        <time>2026-01-12T10:52:55.544Z</time>
      </trkpt>
      <trkpt lon="8.512287" lat="54.448787">
        <ele>771.018</ele>
        <time>2026-01-12T10:52:57.584Z</time>
      </trkpt>
      <trkpt lon="8.513538" lat="54.449736">
        <ele>776.879</ele>
        <time>2026-01-12T10:52:59.572Z</time>
      </trkpt>
      <trkpt lon="8.520151" lat="54.454038">
        <ele>825.508</ele>
        <time>2026-01-12T10:53:09.564Z</time>
      </trkpt>
      <trkpt lon="8.532180" lat="54.463098">
        <ele>863.272</ele>
        <time>2026-01-12T10:53:29.600Z</time>
      </trkpt>
      <trkpt lon="8.552931" lat="54.475568">
        <ele>906.142</ele>
        <time>2026-01-12T10:53:59.712Z</time>
      </trkpt>
      <trkpt lon="8.568222" lat="54.485348">
        <ele>879.251</ele>
        <time>2026-01-12T10:54:22.436Z</time>
      </trkpt>
      <trkpt lon="8.570285" lat="54.486980">
        <ele>876.67</ele>
        <time>2026-01-12T10:54:25.884Z</time>
      </trkpt>
      <trkpt lon="8.572535" lat="54.489272">
        <ele>877.184</ele>
        <time>2026-01-12T10:54:30.528Z</time>
      </trkpt>
      <trkpt lon="8.575455" lat="54.492883">
        <ele>879.955</ele>
        <time>2026-01-12T10:54:37.816Z</time>
      </trkpt>
      <trkpt lon="8.577486" lat="54.495923">
        <ele>877.95</ele>
        <time>2026-01-12T10:54:43.824Z</time>
      </trkpt>
      <trkpt lon="8.578464" lat="54.498007">
        <ele>872.806</ele>
        <time>2026-01-12T10:54:47.880Z</time>
      </trkpt>
      <trkpt lon="8.578960" lat="54.499744">
        <ele>867.245</ele>
        <time>2026-01-12T10:54:51.224Z</time>
      </trkpt>
      <trkpt lon="8.579226" lat="54.502510">
        <ele>856.838</ele>
        <time>2026-01-12T10:54:56.600Z</time>
      </trkpt>
      <trkpt lon="8.579625" lat="54.509974">
        <ele>803.933</ele>
        <time>2026-01-12T10:55:11.224Z</time>
      </trkpt>
      <trkpt lon="8.579232" lat="54.513818">
        <ele>763.939</ele>
        <time>2026-01-12T10:55:18.688Z</time>
      </trkpt>
      <trkpt lon="8.578115" lat="54.518852">
        <ele>713.653</ele>
        <time>2026-01-12T10:55:28.304Z</time>
      </trkpt>
      <trkpt lon="8.576507" lat="54.525028">
        <ele>666.342</ele>
        <time>2026-01-12T10:55:40.648Z</time>
      </trkpt>
      <trkpt lon="8.574925" lat="54.529822">
        <ele>621.42</ele>
        <time>2026-01-12T10:55:50.056Z</time>
      </trkpt>
      <trkpt lon="8.573299" lat="54.534551">
        <ele>575.143</ele>
        <time>2026-01-12T10:55:59.300Z</time>
      </trkpt>
      <trkpt lon="8.571845" lat="54.539128">
        <ele>535.083</ele>
        <time>2026-01-12T10:56:08.148Z</time>
      </trkpt>
      <trkpt lon="8.570033" lat="54.544513">
        <ele>497.178</ele>
        <time>2026-01-12T10:56:18.832Z</time>
      </trkpt>
      <trkpt lon="8.568703" lat="54.548540">
        <ele>460.781</ele>
        <time>2026-01-12T10:56:26.840Z</time>
      </trkpt>
      <trkpt lon="8.568150" lat="54.552228">
        <ele>443.207</ele>
        <time>2026-01-12T10:56:33.568Z</time>
      </trkpt>
      <trkpt lon="8.568024" lat="54.556861">
        <ele>475.754</ele>
        <time>2026-01-12T10:56:42.152Z</time>
      </trkpt>
      <trkpt lon="8.567520" lat="54.562060">
        <ele>515.137</ele>
        <time>2026-01-12T10:56:52.700Z</time>
      </trkpt>
      <trkpt lon="8.566253" lat="54.571332">
        <ele>546.97</ele>
        <time>2026-01-12T10:57:11.360Z</time>
      </trkpt>
      <trkpt lon="8.564417" lat="54.576775">
        <ele>576.408</ele>
        <time>2026-01-12T10:57:22.760Z</time>
      </trkpt>
      <trkpt lon="8.559580" lat="54.587163">
        <ele>605.301</ele>
        <time>2026-01-12T10:57:44.384Z</time>
      </trkpt>
      <trkpt lon="8.556110" lat="54.599562">
        <ele>651.151</ele>
        <time>2026-01-12T10:58:08.936Z</time>
      </trkpt>
      <trkpt lon="8.551874" lat="54.614352">
        <ele>655.714</ele>
        <time>2026-01-12T10:58:39.052Z</time>
      </trkpt>
      <trkpt lon="8.549412" lat="54.622781">
        <ele>664.372</ele>
        <time>2026-01-12T10:58:55.448Z</time>
      </trkpt>
      <trkpt lon="8.547468" lat="54.627394">
        <ele>671.436</ele>
        <time>2026-01-12T10:59:04.764Z</time>
      </trkpt>
      <trkpt lon="8.545490" lat="54.630540">
        <ele>679.187</ele>
        <time>2026-01-12T10:59:11.552Z</time>
      </trkpt>
      <trkpt lon="8.542307" lat="54.634320">
        <ele>687.752</ele>
        <time>2026-01-12T10:59:20.288Z</time>
      </trkpt>
      <trkpt lon="8.534595" lat="54.642099">
        <ele>696.215</ele>
        <time>2026-01-12T10:59:39.104Z</time>
      </trkpt>
      <trkpt lon="8.532920" lat="54.644758">
        <ele>701.665</ele>
        <time>2026-01-12T10:59:44.752Z</time>
      </trkpt>
      <trkpt lon="8.529500" lat="54.650962">
        <ele>741.319</ele>
        <time>2026-01-12T10:59:58.016Z</time>
      </trkpt>
      <trkpt lon="8.527442" lat="54.653480">
        <ele>748.31</ele>
        <time>2026-01-12T11:00:04.040Z</time>
      </trkpt>
      <trkpt lon="8.515660" lat="54.664480">
        <ele>723.622</ele>
        <time>2026-01-12T11:00:31.024Z</time>
      </trkpt>
      <trkpt lon="8.511068" lat="54.668059">
        <ele>723.66</ele>
        <time>2026-01-12T11:00:40.492Z</time>
      </trkpt>
      <trkpt lon="8.508104" lat="54.669913">
        <ele>721.344</ele>
        <time>2026-01-12T11:00:45.900Z</time>
      </trkpt>
      <trkpt lon="8.490829" lat="54.679441">
        <ele>707.524</ele>
        <time>2026-01-12T11:01:16.048Z</time>
      </trkpt>
      <trkpt lon="8.486721" lat="54.681747">
        <ele>692.876</ele>
        <time>2026-01-12T11:01:22.808Z</time>
      </trkpt>
      <trkpt lon="8.481081" lat="54.684907">
        <ele>681.105</ele>
        <time>2026-01-12T11:01:31.060Z</time>
      </trkpt>
      <trkpt lon="8.472088" lat="54.691384">
        <ele>679.079</ele>
        <time>2026-01-12T11:01:45.228Z</time>
      </trkpt>
      <trkpt lon="8.467771" lat="54.694772">
        <ele>669.634</ele>
        <time>2026-01-12T11:01:51.852Z</time>
      </trkpt>
      <trkpt lon="8.466119" lat="54.696302">
        <ele>664.266</ele>
        <time>2026-01-12T11:01:54.492Z</time>
      </trkpt>
      <trkpt lon="8.464453" lat="54.697964">
        <ele>661.723</ele>
        <time>2026-01-12T11:01:57.132Z</time>
      </trkpt>
      <trkpt lon="8.461736" lat="54.700530">
        <ele>656.369</ele>
        <time>2026-01-12T11:02:01.112Z</time>
      </trkpt>
      <trkpt lon="8.457570" lat="54.703958">
        <ele>646.802</ele>
        <time>2026-01-12T11:02:06.456Z</time>
      </trkpt>
      <trkpt lon="8.454486" lat="54.706153">
        <ele>636.233</ele>
        <time>2026-01-12T11:02:09.900Z</time>
      </trkpt>
      <trkpt lon="8.447345" lat="54.710511">
        <ele>628.184</ele>
        <time>2026-01-12T11:02:16.704Z</time>
      </trkpt>
      <trkpt lon="8.433716" lat="54.718145">
        <ele>654.755</ele>
        <time>2026-01-12T11:02:28.788Z</time>
      </trkpt>
      <trkpt lon="8.424610" lat="54.723136">
        <ele>673.722</ele>
        <time>2026-01-12T11:02:36.720Z</time>
      </trkpt>
      <trkpt lon="8.392301" lat="54.742873">
        <ele>724.514</ele>
        <time>2026-01-12T11:03:05.496Z</time>
      </trkpt>
      <trkpt lon="8.385893" lat="54.748444">
        <ele>741.646</ele>
        <time>2026-01-12T11:03:12.884Z</time>
      </trkpt>
      <trkpt lon="8.377933" lat="54.756294">
        <ele>737.882</ele>
        <time>2026-01-12T11:03:22.872Z</time>
      </trkpt>
      <trkpt lon="8.371577" lat="54.763558">
        <ele>731.616</ele>
        <time>2026-01-12T11:03:31.612Z</time>
      </trkpt>
      <trkpt lon="8.362769" lat="54.773556">
        <ele>734.959</ele>
        <time>2026-01-12T11:03:43.676Z</time>
      </trkpt>
      <trkpt lon="8.357407" lat="54.778876">
        <ele>737.899</ele>
        <time>2026-01-12T11:03:50.440Z</time>
      </trkpt>
      <trkpt lon="8.350774" lat="54.784900">
        <ele>740.135</ele>
        <time>2026-01-12T11:03:58.468Z</time>
      </trkpt>
      <trkpt lon="8.346227" lat="54.788867">
        <ele>734.816</ele>
        <time>2026-01-12T11:04:03.868Z</time>
      </trkpt>
      <trkpt lon="8.341414" lat="54.793598">
        <ele>730.865</ele>
        <time>2026-01-12T11:04:09.872Z</time>
      </trkpt>
      <trkpt lon="8.335989" lat="54.799631">
        <ele>733.938</ele>
        <time>2026-01-12T11:04:17.188Z</time>
      </trkpt>
      <trkpt lon="8.331452" lat="54.805350">
        <ele>736.897</ele>
        <time>2026-01-12T11:04:23.828Z</time>
      </trkpt>
      <trkpt lon="8.326555" lat="54.812419">
        <ele>734.846</ele>
        <time>2026-01-12T11:04:31.752Z</time>
      </trkpt>
      <trkpt lon="8.322867" lat="54.818628">
        <ele>730.974</ele>
        <time>2026-01-12T11:04:38.460Z</time>
      </trkpt>
      <trkpt lon="8.310722" lat="54.840384">
        <ele>721.822</ele>
        <time>2026-01-12T11:05:01.784Z</time>
      </trkpt>
      <trkpt lon="8.300734" lat="54.862870">
        <ele>716.37</ele>
        <time>2026-01-12T11:05:25.152Z</time>
      </trkpt>
      <trkpt lon="8.298910" lat="54.865963">
        <ele>713.061</ele>
        <time>2026-01-12T11:05:28.492Z</time>
      </trkpt>
      <trkpt lon="8.296441" lat="54.869624">
        <ele>707.052</ele>
        <time>2026-01-12T11:05:32.540Z</time>
      </trkpt>
      <trkpt lon="8.295007" lat="54.871444">
        <ele>706.267</ele>
        <time>2026-01-12T11:05:34.592Z</time>
      </trkpt>
      <trkpt lon="8.292467" lat="54.874226">
        <ele>696.153</ele>
        <time>2026-01-12T11:05:37.968Z</time>
      </trkpt>
      <trkpt lon="8.280328" lat="54.886394">
        <ele>710.536</ele>
        <time>2026-01-12T11:05:53.196Z</time>
      </trkpt>
      <trkpt lon="8.277585" lat="54.888900">
        <ele>715.633</ele>
        <time>2026-01-12T11:05:56.532Z</time>
      </trkpt>
      <trkpt lon="8.274087" lat="54.891734">
        <ele>711.529</ele>
        <time>2026-01-12T11:06:00.568Z</time>
      </trkpt>
      <trkpt lon="8.270937" lat="54.893974">
        <ele>704.098</ele>
        <time>2026-01-12T11:06:03.984Z</time>
      </trkpt>
      <trkpt lon="8.267657" lat="54.896031">
        <ele>695.406</ele>
        <time>2026-01-12T11:06:07.448Z</time>
      </trkpt>
      <trkpt lon="8.264239" lat="54.897923">
        <ele>689.725</ele>
        <time>2026-01-12T11:06:10.844Z</time>
      </trkpt>
      <trkpt lon="8.261533" lat="54.899270">
        <ele>688.219</ele>
        <time>2026-01-12T11:06:13.556Z</time>
      </trkpt>
      <trkpt lon="8.258838" lat="54.900489">
        <ele>689.404</ele>
        <time>2026-01-12T11:06:16.312Z</time>
      </trkpt>
      <trkpt lon="8.256830" lat="54.901313">
        <ele>691.397</ele>
        <time>2026-01-12T11:06:18.376Z</time>
      </trkpt>
      <trkpt lon="8.254312" lat="54.902235">
        <ele>691.698</ele>
        <time>2026-01-12T11:06:21.076Z</time>
      </trkpt>
      <trkpt lon="8.251901" lat="54.902989">
        <ele>689.122</ele>
        <time>2026-01-12T11:06:23.712Z</time>
      </trkpt>
      <trkpt lon="8.249020" lat="54.903696">
        <ele>681.803</ele>
        <time>2026-01-12T11:06:27.060Z</time>
      </trkpt>
      <trkpt lon="8.241590" lat="54.905069">
        <ele>671.381</ele>
        <time>2026-01-12T11:06:35.932Z</time>
      </trkpt>
      <trkpt lon="8.232367" lat="54.906155">
        <ele>647.013</ele>
        <time>2026-01-12T11:06:47.416Z</time>
      </trkpt>
      <trkpt lon="8.230514" lat="54.906500">
        <ele>632.523</ele>
        <time>2026-01-12T11:06:49.460Z</time>
      </trkpt>
      <trkpt lon="8.229871" lat="54.906647">
        <ele>627.571</ele>
        <time>2026-01-12T11:06:50.156Z</time>
      </trkpt>
      <trkpt lon="8.229230" lat="54.906814">
        <ele>623.161</ele>
        <time>2026-01-12T11:06:50.848Z</time>
      </trkpt>
      <trkpt lon="8.228544" lat="54.907026">
        <ele>619.107</ele>
        <time>2026-01-12T11:06:51.536Z</time>
      </trkpt>
      <trkpt lon="8.227916" lat="54.907255">
        <ele>615.752</ele>
        <time>2026-01-12T11:06:52.228Z</time>
      </trkpt>
      <trkpt lon="8.226678" lat="54.907814">
        <ele>608.23</ele>
        <time>2026-01-12T11:06:53.564Z</time>
      </trkpt>
      <trkpt lon="8.225496" lat="54.908487">
        <ele>600.859</ele>
        <time>2026-01-12T11:06:54.936Z</time>
      </trkpt>
      <trkpt lon="8.223442" lat="54.909942">
        <ele>599.102</ele>
        <time>2026-01-12T11:06:57.612Z</time>
      </trkpt>
      <trkpt lon="8.222035" lat="54.910978">
        <ele>616.158</ele>
        <time>2026-01-12T11:06:59.596Z</time>
      </trkpt>
      <trkpt lon="8.220780" lat="54.911951">
        <ele>646.064</ele>
        <time>2026-01-12T11:07:01.684Z</time>
      </trkpt>
      <trkpt lon="8.220053" lat="54.912532">
        <ele>671.076</ele>
        <time>2026-01-12T11:07:02.988Z</time>
      </trkpt>
      <trkpt lon="8.211762" lat="54.919518">
        <ele>690.283</ele>
        <time>2026-01-12T11:07:19.664Z</time>
      </trkpt>
      <trkpt lon="8.210500" lat="54.920810">
        <ele>683.205</ele>
        <time>2026-01-12T11:07:22.392Z</time>
      </trkpt>
      <trkpt lon="8.208634" lat="54.922823">
        <ele>658.54</ele>
        <time>2026-01-12T11:07:26.380Z</time>
      </trkpt>
      <trkpt lon="8.207468" lat="54.924320">
        <ele>636.131</ele>
        <time>2026-01-12T11:07:29.064Z</time>
      </trkpt>
      <trkpt lon="8.206767" lat="54.925525">
        <ele>619.204</ele>
        <time>2026-01-12T11:07:31.064Z</time>
      </trkpt>
      <trkpt lon="8.206404" lat="54.926413">
        <ele>607.661</ele>
        <time>2026-01-12T11:07:32.440Z</time>
      </trkpt>
      <trkpt lon="8.206180" lat="54.927277">
        <ele>596.94</ele>
        <time>2026-01-12T11:07:33.752Z</time>
      </trkpt>
      <trkpt lon="8.206087" lat="54.928184">
        <ele>586.178</ele>
        <time>2026-01-12T11:07:35.116Z</time>
      </trkpt>
      <trkpt lon="8.206143" lat="54.929111">
        <ele>575.802</ele>
        <time>2026-01-12T11:07:36.460Z</time>
      </trkpt>
      <trkpt lon="8.206345" lat="54.930010">
        <ele>566.482</ele>
        <time>2026-01-12T11:07:37.780Z</time>
      </trkpt>
      <trkpt lon="8.206685" lat="54.930858">
        <ele>559.524</ele>
        <time>2026-01-12T11:07:39.048Z</time>
      </trkpt>
      <trkpt lon="8.207192" lat="54.931728">
        <ele>556.875</ele>
        <time>2026-01-12T11:07:40.392Z</time>
      </trkpt>
      <trkpt lon="8.208153" lat="54.932948">
        <ele>558.88</ele>
        <time>2026-01-12T11:07:42.376Z</time>
      </trkpt>
      <trkpt lon="8.209322" lat="54.934069">
        <ele>563.463</ele>
        <time>2026-01-12T11:07:44.400Z</time>
      </trkpt>
      <trkpt lon="8.210163" lat="54.934725">
        <ele>566.598</ele>
        <time>2026-01-12T11:07:45.688Z</time>
      </trkpt>
      <trkpt lon="8.211116" lat="54.935361">
        <ele>569.695</ele>
        <time>2026-01-12T11:07:47.032Z</time>
      </trkpt>
      <trkpt lon="8.212607" lat="54.936194">
        <ele>573.777</ele>
        <time>2026-01-12T11:07:49.028Z</time>
      </trkpt>
      <trkpt lon="8.214187" lat="54.936919">
        <ele>577.257</ele>
        <time>2026-01-12T11:07:51.008Z</time>
      </trkpt>
      <trkpt lon="8.232032" lat="54.943431">
        <ele>583.077</ele>
        <time>2026-01-12T11:08:12.724Z</time>
      </trkpt>
      <trkpt lon="8.242816" lat="54.945719">
        <ele>583.342</ele>
        <time>2026-01-12T11:08:25.432Z</time>
      </trkpt>
      <trkpt lon="8.249524" lat="54.946721">
        <ele>563.329</ele>
        <time>2026-01-12T11:08:32.768Z</time>
      </trkpt>
      <trkpt lon="8.254423" lat="54.947238">
        <ele>552.387</ele>
        <time>2026-01-12T11:08:38.060Z</time>
      </trkpt>
      <trkpt lon="8.258629" lat="54.947421">
        <ele>535.112</ele>
        <time>2026-01-12T11:08:42.612Z</time>
      </trkpt>
      <trkpt lon="8.262968" lat="54.947414">
        <ele>517.206</ele>
        <time>2026-01-12T11:08:47.236Z</time>
      </trkpt>
      <trkpt lon="8.275736" lat="54.947008">
        <ele>479.354</ele>
        <time>2026-01-12T11:09:01.164Z</time>
      </trkpt>
      <trkpt lon="8.281711" lat="54.946627">
        <ele>456.955</ele>
        <time>2026-01-12T11:09:07.764Z</time>
      </trkpt>
      <trkpt lon="8.287271" lat="54.946011">
        <ele>420.771</ele>
        <time>2026-01-12T11:09:13.860Z</time>
      </trkpt>
      <trkpt lon="8.290874" lat="54.945482">
        <ele>401.173</ele>
        <time>2026-01-12T11:09:17.788Z</time>
      </trkpt>
      <trkpt lon="8.293243" lat="54.944972">
        <ele>391.38</ele>
        <time>2026-01-12T11:09:20.476Z</time>
      </trkpt>
      <trkpt lon="8.295437" lat="54.944343">
        <ele>379.288</ele>
        <time>2026-01-12T11:09:23.088Z</time>
      </trkpt>
      <trkpt lon="8.298131" lat="54.943373">
        <ele>362.374</ele>
        <time>2026-01-12T11:09:26.444Z</time>
      </trkpt>
      <trkpt lon="8.301151" lat="54.942062">
        <ele>344.627</ele>
        <time>2026-01-12T11:09:30.456Z</time>
      </trkpt>
      <trkpt lon="8.303835" lat="54.940697">
        <ele>334.225</ele>
        <time>2026-01-12T11:09:34.436Z</time>
      </trkpt>
      <trkpt lon="8.305359" lat="54.939832">
        <ele>331.926</ele>
        <time>2026-01-12T11:09:37.164Z</time>
      </trkpt>
      <trkpt lon="8.308147" lat="54.938117">
        <ele>315.21</ele>
        <time>2026-01-12T11:09:43.088Z</time>
      </trkpt>
      <trkpt lon="8.311201" lat="54.936182">
        <ele>286.447</ele>
        <time>2026-01-12T11:09:50.396Z</time>
      </trkpt>
      <trkpt lon="8.313571" lat="54.934640">
        <ele>259.602</ele>
        <time>2026-01-12T11:09:56.372Z</time>
      </trkpt>
      <trkpt lon="8.315862" lat="54.933016">
        <ele>234.35</ele>
        <time>2026-01-12T11:10:02.328Z</time>
      </trkpt>
      <trkpt lon="8.318329" lat="54.931184">
        <ele>208.84</ele>
        <time>2026-01-12T11:10:08.976Z</time>
      </trkpt>
      <trkpt lon="8.320379" lat="54.929768">
        <ele>184.739</ele>
        <time>2026-01-12T11:10:14.412Z</time>
      </trkpt>
      <trkpt lon="8.322111" lat="54.928532">
        <ele>161.512</ele>
        <time>2026-01-12T11:10:19.104Z</time>
      </trkpt>
      <trkpt lon="8.323515" lat="54.927453">
        <ele>137.327</ele>
        <time>2026-01-12T11:10:23.176Z</time>
      </trkpt>
      <trkpt lon="8.324900" lat="54.926404">
        <ele>117.092</ele>
        <time>2026-01-12T11:10:27.160Z</time>
      </trkpt>
      <trkpt lon="8.326320" lat="54.925274">
        <ele>97.8982</ele>
        <time>2026-01-12T11:10:31.860Z</time>
      </trkpt>
      <trkpt lon="8.327358" lat="54.924345">
        <ele>79.7762</ele>
        <time>2026-01-12T11:10:35.908Z</time>
      </trkpt>
      <trkpt lon="8.328503" lat="54.923270">
        <ele>61.1938</ele>
        <time>2026-01-12T11:10:40.616Z</time>
      </trkpt>
      <trkpt lon="8.329618" lat="54.922256">
        <ele>42.5644</ele>
        <time>2026-01-12T11:10:45.212Z</time>
      </trkpt>
      <trkpt lon="8.330540" lat="54.921428">
        <ele>25.9874</ele>
        <time>2026-01-12T11:10:49.168Z</time>
      </trkpt>
      <trkpt lon="8.333080" lat="54.919251">
        <ele>11.8221</ele>
        <time>2026-01-12T11:11:00.588Z</time>
      </trkpt>
      <trkpt lon="8.333417" lat="54.918986">
        <ele>11.8496</ele>
        <time>2026-01-12T11:11:02.604Z</time>
      </trkpt>
      <trkpt lon="8.333538" lat="54.918882">
        <ele>11.8245</ele>
        <time>2026-01-12T11:11:03.940Z</time>
      </trkpt>
      <trkpt lon="8.333566" lat="54.918826">
        <ele>11.8073</ele>
        <time>2026-01-12T11:11:04.632Z</time>
      </trkpt>
      <trkpt lon="8.333570" lat="54.918779">
        <ele>11.7835</ele>
        <time>2026-01-12T11:11:05.288Z</time>
      </trkpt>
      <trkpt lon="8.333551" lat="54.918736">
        <ele>11.7613</ele>
        <time>2026-01-12T11:11:05.984Z</time>
      </trkpt>
      <trkpt lon="8.333519" lat="54.918706">
        <ele>11.743</ele>
        <time>2026-01-12T11:11:06.620Z</time>
      </trkpt>
      <trkpt lon="8.333473" lat="54.918685">
        <ele>11.7292</ele>
        <time>2026-01-12T11:11:07.292Z</time>
      </trkpt>
      <trkpt lon="8.333416" lat="54.918672">
        <ele>11.7215</ele>
        <time>2026-01-12T11:11:07.960Z</time>
      </trkpt>
      <trkpt lon="8.333352" lat="54.918670">
        <ele>11.7197</ele>
        <time>2026-01-12T11:11:08.608Z</time>
      </trkpt>
      <trkpt lon="8.332991" lat="54.918702">
        <ele>11.7119</ele>
        <time>2026-01-12T11:11:11.272Z</time>
      </trkpt>
      <trkpt lon="8.332640" lat="54.918697">
        <ele>11.6867</ele>
        <time>2026-01-12T11:11:13.252Z</time>
      </trkpt>
      <trkpt lon="8.332521" lat="54.918678">
        <ele>11.6782</ele>
        <time>2026-01-12T11:11:13.912Z</time>
      </trkpt>
      <trkpt lon="8.332409" lat="54.918642">
        <ele>11.679</ele>
        <time>2026-01-12T11:11:14.592Z</time>
      </trkpt>
      <trkpt lon="8.332319" lat="54.918597">
        <ele>11.6887</ele>
        <time>2026-01-12T11:11:15.248Z</time>
      </trkpt>
      <trkpt lon="8.332246" lat="54.918545">
        <ele>11.7012</ele>
        <time>2026-01-12T11:11:15.896Z</time>
      </trkpt>
      <trkpt lon="8.332193" lat="54.918489">
        <ele>11.7238</ele>
        <time>2026-01-12T11:11:16.544Z</time>
      </trkpt>
      <trkpt lon="8.332148" lat="54.918427">
        <ele>11.7526</ele>
        <time>2026-01-12T11:11:17.244Z</time>
      </trkpt>
      <trkpt lon="8.332083" lat="54.918305">
        <ele>11.7894</ele>
        <time>2026-01-12T11:11:19.256Z</time>
      </trkpt>
      <trkpt lon="8.332058" lat="54.918250">
        <ele>11.8011</ele>
        <time>2026-01-12T11:11:29.352Z</time>
      </trkpt>
      <trkpt lon="8.332045" lat="54.918224">
        <ele>11.8131</ele>
        <time>2026-01-12T11:11:38.952Z</time>
      </trkpt>
      <trkpt lon="8.331869" lat="54.917956">
        <ele>11.8199</ele>
        <time>2026-01-12T11:11:44.316Z</time>
      </trkpt>
      <trkpt lon="8.331830" lat="54.917867">
        <ele>11.7844</ele>
        <time>2026-01-12T11:11:45.668Z</time>
      </trkpt>
      <trkpt lon="8.331805" lat="54.917766">
        <ele>11.7252</ele>
        <time>2026-01-12T11:11:46.972Z</time>
      </trkpt>
      <trkpt lon="8.331781" lat="54.916663">
        <ele>10.8356</ele>
        <time>2026-01-12T11:11:57.056Z</time>
      </trkpt>
      <trkpt lon="8.331786" lat="54.915460">
        <ele>9.78773</ele>
        <time>2026-01-12T11:12:07.060Z</time>
      </trkpt>
      <trkpt lon="8.331807" lat="54.914938">
        <ele>9.18166</ele>
        <time>2026-01-12T11:12:11.756Z</time>
      </trkpt>
      <trkpt lon="8.331822" lat="54.914867">
        <ele>9.10659</ele>
        <time>2026-01-12T11:12:12.412Z</time>
      </trkpt>
      <trkpt lon="8.331853" lat="54.914801">
        <ele>9.04573</ele>
        <time>2026-01-12T11:12:13.076Z</time>
      </trkpt>
      <trkpt lon="8.331952" lat="54.914670">
        <ele>8.94669</ele>
        <time>2026-01-12T11:12:14.472Z</time>
      </trkpt>
      <trkpt lon="8.332414" lat="54.914204">
        <ele>8.76809</ele>
        <time>2026-01-12T11:12:19.852Z</time>
      </trkpt>
      <trkpt lon="8.332461" lat="54.914139">
        <ele>8.74163</ele>
        <time>2026-01-12T11:12:20.544Z</time>
      </trkpt>
      <trkpt lon="8.332492" lat="54.914080">
        <ele>8.68597</ele>
        <time>2026-01-12T11:12:21.232Z</time>
      </trkpt>
      <trkpt lon="8.332517" lat="54.914012">
        <ele>8.6924</ele>
        <time>2026-01-12T11:12:21.880Z</time>
      </trkpt>
      <trkpt lon="8.332538" lat="54.913881">
        <ele>8.62085</ele>
        <time>2026-01-12T11:12:23.236Z</time>
      </trkpt>
      <trkpt lon="8.332521" lat="54.913619">
        <ele>8.63934</ele>
        <time>2026-01-12T11:12:25.896Z</time>
      </trkpt>
      <trkpt lon="8.332491" lat="54.913492">
        <ele>8.67548</ele>
        <time>2026-01-12T11:12:27.220Z</time>
      </trkpt>
      <trkpt lon="8.332437" lat="54.913370">
        <ele>8.74698</ele>
        <time>2026-01-12T11:12:28.552Z</time>
      </trkpt>
      <trkpt lon="8.332169" lat="54.913024">
        <ele>9.07237</ele>
        <time>2026-01-12T11:12:33.160Z</time>
      </trkpt>
      <trkpt lon="8.332090" lat="54.912945">
        <ele>9.13158</ele>
        <time>2026-01-12T11:12:34.484Z</time>
      </trkpt>
      <trkpt lon="8.332022" lat="54.912894">
        <ele>9.18776</ele>
        <time>2026-01-12T11:12:35.796Z</time>
      </trkpt>
      <trkpt lon="8.331996" lat="54.912878">
        <ele>9.24813</ele>
        <time>2026-01-12T11:12:36.492Z</time>
      </trkpt>
      <trkpt lon="8.331941" lat="54.912851">
        <ele>9.32383</ele>
        <time>2026-01-12T11:12:37.772Z</time>
      </trkpt>
      <trkpt lon="8.331875" lat="54.912825">
        <ele>9.37079</ele>
        <time>2026-01-12T11:12:39.140Z</time>
      </trkpt>
      <trkpt lon="8.331818" lat="54.912809">
        <ele>9.39582</ele>
        <time>2026-01-12T11:12:43.156Z</time>
      </trkpt>
      <trkpt lon="8.331771" lat="54.912802">
        <ele>9.33459</ele>
        <time>2026-01-12T11:12:43.788Z</time>
      </trkpt>
      <trkpt lon="8.331701" lat="54.912801">
        <ele>9.32637</ele>
        <time>2026-01-12T11:12:44.472Z</time>
      </trkpt>
      <trkpt lon="8.331509" lat="54.912810">
        <ele>9.35176</ele>
        <time>2026-01-12T11:12:45.832Z</time>
      </trkpt>
      <trkpt lon="8.330954" lat="54.912787">
        <ele>9.3989</ele>
        <time>2026-01-12T11:12:49.164Z</time>
      </trkpt>
      <trkpt lon="8.330286" lat="54.912738">
        <ele>9.41858</ele>
        <time>2026-01-12T11:12:53.224Z</time>
      </trkpt>
      <trkpt lon="8.330087" lat="54.912701">
        <ele>9.51427</ele>
        <time>2026-01-12T11:12:54.540Z</time>
      </trkpt>
      <trkpt lon="8.329913" lat="54.912649">
        <ele>9.58329</ele>
        <time>2026-01-12T11:12:55.860Z</time>
      </trkpt>
      <trkpt lon="8.328934" lat="54.912309">
        <ele>9.57366</ele>
        <time>2026-01-12T11:13:03.868Z</time>
      </trkpt>
      <trkpt lon="8.328737" lat="54.912262">
        <ele>9.6595</ele>
        <time>2026-01-12T11:13:05.232Z</time>
      </trkpt>
      <trkpt lon="8.328041" lat="54.912158">
        <ele>9.6503</ele>
        <time>2026-01-12T11:13:09.268Z</time>
      </trkpt>
      <trkpt lon="8.327428" lat="54.912061">
        <ele>9.82519</ele>
        <time>2026-01-12T11:13:12.596Z</time>
      </trkpt>
      <trkpt lon="8.326962" lat="54.911958">
        <ele>10.2913</ele>
        <time>2026-01-12T11:13:15.556Z</time>
      </trkpt>
      <trkpt lon="8.326747" lat="54.911922">
        <ele>10.0492</ele>
        <time>2026-01-12T11:13:17.540Z</time>
      </trkpt>
      <trkpt lon="8.326663" lat="54.911913">
        <ele>9.9816</ele>
        <time>2026-01-12T11:13:18.212Z</time>
      </trkpt>
      <trkpt lon="8.326580" lat="54.911911">
        <ele>9.94756</ele>
        <time>2026-01-12T11:13:18.892Z</time>
      </trkpt>
      <trkpt lon="8.326500" lat="54.911916">
        <ele>9.94315</ele>
        <time>2026-01-12T11:13:19.576Z</time>
      </trkpt>
      <trkpt lon="8.326430" lat="54.911927">
        <ele>9.90122</ele>
        <time>2026-01-12T11:13:20.240Z</time>
      </trkpt>
      <trkpt lon="8.326366" lat="54.911945">
        <ele>9.88436</ele>
        <time>2026-01-12T11:13:20.900Z</time>
      </trkpt>
      <trkpt lon="8.326302" lat="54.911970">
        <ele>9.80853</ele>
        <time>2026-01-12T11:13:21.552Z</time>
      </trkpt>
      <trkpt lon="8.326237" lat="54.912002">
        <ele>9.7239</ele>
        <time>2026-01-12T11:13:22.220Z</time>
      </trkpt>
      <trkpt lon="8.326178" lat="54.912043">
        <ele>9.65267</ele>
        <time>2026-01-12T11:13:22.888Z</time>
      </trkpt>
      <trkpt lon="8.326129" lat="54.912091">
        <ele>9.55392</ele>
        <time>2026-01-12T11:13:23.548Z</time>
      </trkpt>
      <trkpt lon="8.326005" lat="54.912261">
        <ele>9.3055</ele>
        <time>2026-01-12T11:13:25.492Z</time>
      </trkpt>
      <trkpt lon="8.325884" lat="54.912370">
        <ele>9.09016</ele>
        <time>2026-01-12T11:13:26.820Z</time>
      </trkpt>
      <trkpt lon="8.325817" lat="54.912414">
        <ele>9.0604</ele>
        <time>2026-01-12T11:13:27.456Z</time>
      </trkpt>
      <trkpt lon="8.325734" lat="54.912451">
        <ele>9.00304</ele>
        <time>2026-01-12T11:13:28.116Z</time>
      </trkpt>
      <trkpt lon="8.325648" lat="54.912475">
        <ele>8.97871</ele>
        <time>2026-01-12T11:13:28.760Z</time>
      </trkpt>
      <trkpt lon="8.325554" lat="54.912489">
        <ele>9.01354</ele>
        <time>2026-01-12T11:13:29.392Z</time>
      </trkpt>
      <trkpt lon="8.325456" lat="54.912491">
        <ele>8.92503</ele>
        <time>2026-01-12T11:13:30.072Z</time>
      </trkpt>
      <trkpt lon="8.325355" lat="54.912476">
        <ele>8.88515</ele>
        <time>2026-01-12T11:13:30.764Z</time>
      </trkpt>
      <trkpt lon="8.325082" lat="54.912400">
        <ele>8.78973</ele>
        <time>2026-01-12T11:13:32.716Z</time>
      </trkpt>
      <trkpt lon="8.324994" lat="54.912385">
        <ele>8.77271</ele>
        <time>2026-01-12T11:13:33.372Z</time>
      </trkpt>
      <trkpt lon="8.324908" lat="54.912376">
        <ele>8.67585</ele>
        <time>2026-01-12T11:13:34.028Z</time>
      </trkpt>
      <trkpt lon="8.324828" lat="54.912375">
        <ele>8.59684</ele>
        <time>2026-01-12T11:13:34.668Z</time>
      </trkpt>
      <trkpt lon="8.324748" lat="54.912386">
        <ele>8.55398</ele>
        <time>2026-01-12T11:13:35.344Z</time>
      </trkpt>
      <trkpt lon="8.324683" lat="54.912409">
        <ele>8.48391</ele>
        <time>2026-01-12T11:13:36.008Z</time>
      </trkpt>
      <trkpt lon="8.324636" lat="54.912443">
        <ele>8.41604</ele>
        <time>2026-01-12T11:13:36.684Z</time>
      </trkpt>
      <trkpt lon="8.324612" lat="54.912485">
        <ele>8.37844</ele>
        <time>2026-01-12T11:13:37.372Z</time>
      </trkpt>
      <trkpt lon="8.324613" lat="54.912527">
        <ele>8.33853</ele>
        <time>2026-01-12T11:13:38.028Z</time>
      </trkpt>
      <trkpt lon="8.324633" lat="54.912564">
        <ele>8.34039</ele>
        <time>2026-01-12T11:13:38.684Z</time>
      </trkpt>
      <trkpt lon="8.324669" lat="54.912597">
        <ele>8.35128</ele>
        <time>2026-01-12T11:13:39.356Z</time>
      </trkpt>
      <trkpt lon="8.324713" lat="54.912617">
        <ele>8.36033</ele>
        <time>2026-01-12T11:13:40.004Z</time>
      </trkpt>
      <trkpt lon="8.324735" lat="54.912623">
        <ele>8.38945</ele>
        <time>2026-01-12T11:13:40.648Z</time>
      </trkpt>
    </trkseg>
    <trkseg>
      <trkpt lon="18.597801" lat="-33.975989">
        <ele>48.96</ele>
        <time>2026-01-14T18:36:40.016Z</time>
      </trkpt>
      <trkpt lon="18.597788" lat="-33.975999">
        <ele>49.0237</ele>
        <time>2026-01-14T09:22:36.132Z</time>
      </trkpt>
      <trkpt lon="18.597669" lat="-33.976047">
        <ele>49.0165</ele>
        <time>2026-01-14T09:22:46.616Z</time>
      </trkpt>
      <trkpt lon="18.597662" lat="-33.976035">
        <ele>49.0168</ele>
        <time>2026-01-14T09:54:31.888Z</time>
      </trkpt>
      <trkpt lon="18.597651" lat="-33.976025">
        <ele>49.0167</ele>
        <time>2026-01-14T09:54:33.184Z</time>
      </trkpt>
      <trkpt lon="18.597637" lat="-33.976019">
        <ele>49.0167</ele>
        <time>2026-01-14T09:54:34.468Z</time>
      </trkpt>
      <trkpt lon="18.597627" lat="-33.976016">
        <ele>49.0185</ele>
        <time>2026-01-14T09:54:35.764Z</time>
      </trkpt>
      <trkpt lon="18.597615" lat="-33.976017">
        <ele>49.0178</ele>
        <time>2026-01-14T09:54:37.712Z</time>
      </trkpt>
      <trkpt lon="18.597605" lat="-33.976021">
        <ele>49.0181</ele>
        <time>2026-01-14T09:54:40.360Z</time>
      </trkpt>
      <trkpt lon="18.597539" lat="-33.976107">
        <ele>49.0173</ele>
        <time>2026-01-14T09:54:59.184Z</time>
      </trkpt>
      <trkpt lon="18.597510" lat="-33.976148">
        <ele>49.0166</ele>
        <time>2026-01-14T09:55:00.508Z</time>
      </trkpt>
      <trkpt lon="18.597474" lat="-33.976189">
        <ele>49.0125</ele>
        <time>2026-01-14T09:55:01.788Z</time>
      </trkpt>
      <trkpt lon="18.597432" lat="-33.976233">
        <ele>49.0163</ele>
        <time>2026-01-14T09:55:03.104Z</time>
      </trkpt>
      <trkpt lon="18.597417" lat="-33.976258">
        <ele>49.0183</ele>
        <time>2026-01-14T09:55:03.760Z</time>
      </trkpt>
      <trkpt lon="18.597407" lat="-33.976284">
        <ele>49.0218</ele>
        <time>2026-01-14T09:55:04.432Z</time>
      </trkpt>
      <trkpt lon="18.597404" lat="-33.976313">
        <ele>49.0172</ele>
        <time>2026-01-14T09:55:05.132Z</time>
      </trkpt>
      <trkpt lon="18.597408" lat="-33.976340">
        <ele>49.0172</ele>
        <time>2026-01-14T09:55:05.792Z</time>
      </trkpt>
      <trkpt lon="18.597519" lat="-33.976620">
        <ele>49.0196</ele>
        <time>2026-01-14T09:55:12.424Z</time>
      </trkpt>
      <trkpt lon="18.597716" lat="-33.977047">
        <ele>49.0126</ele>
        <time>2026-01-14T09:55:22.432Z</time>
      </trkpt>
      <trkpt lon="18.597892" lat="-33.977460">
        <ele>49.0137</ele>
        <time>2026-01-14T09:55:33.084Z</time>
      </trkpt>
      <trkpt lon="18.598036" lat="-33.977832">
        <ele>49.0127</ele>
        <time>2026-01-14T09:55:43.648Z</time>
      </trkpt>
      <trkpt lon="18.598179" lat="-33.978168">
        <ele>49.0136</ele>
        <time>2026-01-14T09:55:54.124Z</time>
      </trkpt>
      <trkpt lon="18.598203" lat="-33.978207">
        <ele>49.0148</ele>
        <time>2026-01-14T09:55:55.480Z</time>
      </trkpt>
      <trkpt lon="18.598232" lat="-33.978242">
        <ele>49.014</ele>
        <time>2026-01-14T09:55:56.788Z</time>
      </trkpt>
      <trkpt lon="18.598249" lat="-33.978257">
        <ele>49.0107</ele>
        <time>2026-01-14T09:55:57.428Z</time>
      </trkpt>
      <trkpt lon="18.598286" lat="-33.978284">
        <ele>49.014</ele>
        <time>2026-01-14T09:55:58.748Z</time>
      </trkpt>
      <trkpt lon="18.598307" lat="-33.978295">
        <ele>49.0134</ele>
        <time>2026-01-14T09:55:59.404Z</time>
      </trkpt>
      <trkpt lon="18.598329" lat="-33.978305">
        <ele>49.0108</ele>
        <time>2026-01-14T09:56:00.080Z</time>
      </trkpt>
      <trkpt lon="18.598351" lat="-33.978313">
        <ele>49.0109</ele>
        <time>2026-01-14T09:56:00.708Z</time>
      </trkpt>
      <trkpt lon="18.598375" lat="-33.978319">
        <ele>49.0151</ele>
        <time>2026-01-14T09:56:01.372Z</time>
      </trkpt>
      <trkpt lon="18.598398" lat="-33.978323">
        <ele>49.0157</ele>
        <time>2026-01-14T09:56:02.016Z</time>
      </trkpt>
      <trkpt lon="18.598448" lat="-33.978325">
        <ele>49.0131</ele>
        <time>2026-01-14T09:56:03.364Z</time>
      </trkpt>
      <trkpt lon="18.598495" lat="-33.978321">
        <ele>49.0128</ele>
        <time>2026-01-14T09:56:04.680Z</time>
      </trkpt>
      <trkpt lon="18.598631" lat="-33.978291">
        <ele>49.0093</ele>
        <time>2026-01-14T09:56:08.548Z</time>
      </trkpt>
      <trkpt lon="18.598983" lat="-33.978193">
        <ele>49.0054</ele>
        <time>2026-01-14T09:56:19.108Z</time>
      </trkpt>
      <trkpt lon="18.599322" lat="-33.978100">
        <ele>49.0056</ele>
        <time>2026-01-14T09:56:29.648Z</time>
      </trkpt>
      <trkpt lon="18.599647" lat="-33.978006">
        <ele>49.0021</ele>
        <time>2026-01-14T09:56:40.000Z</time>
      </trkpt>
      <trkpt lon="18.599970" lat="-33.977909">
        <ele>48.9994</ele>
        <time>2026-01-14T09:56:50.504Z</time>
      </trkpt>
      <trkpt lon="18.600283" lat="-33.977809">
        <ele>48.9935</ele>
        <time>2026-01-14T09:57:00.876Z</time>
      </trkpt>
      <trkpt lon="18.600654" lat="-33.977701">
        <ele>48.9855</ele>
        <time>2026-01-14T09:57:11.312Z</time>
      </trkpt>
      <trkpt lon="18.600693" lat="-33.977689">
        <ele>48.9866</ele>
        <time>2026-01-14T09:59:47.384Z</time>
      </trkpt>
      <trkpt lon="18.601057" lat="-33.977581">
        <ele>48.9743</ele>
        <time>2026-01-14T09:59:57.780Z</time>
      </trkpt>
      <trkpt lon="18.601489" lat="-33.977452">
        <ele>48.9578</ele>
        <time>2026-01-14T10:00:08.196Z</time>
      </trkpt>
      <trkpt lon="18.601942" lat="-33.977317">
        <ele>48.9165</ele>
        <time>2026-01-14T10:00:16.656Z</time>
      </trkpt>
      <trkpt lon="18.602004" lat="-33.977306">
        <ele>48.9104</ele>
        <time>2026-01-14T10:00:17.972Z</time>
      </trkpt>
      <trkpt lon="18.602326" lat="-33.977273">
        <ele>48.8758</ele>
        <time>2026-01-14T10:00:23.876Z</time>
      </trkpt>
      <trkpt lon="18.602446" lat="-33.977271">
        <ele>48.8496</ele>
        <time>2026-01-14T10:00:25.788Z</time>
      </trkpt>
      <trkpt lon="18.602621" lat="-33.977282">
        <ele>48.8248</ele>
        <time>2026-01-14T10:00:28.416Z</time>
      </trkpt>
      <trkpt lon="18.602667" lat="-33.977289">
        <ele>48.8141</ele>
        <time>2026-01-14T10:00:29.092Z</time>
      </trkpt>
      <trkpt lon="18.602711" lat="-33.977299">
        <ele>48.808</ele>
        <time>2026-01-14T10:00:29.744Z</time>
      </trkpt>
      <trkpt lon="18.602978" lat="-33.977377">
        <ele>48.7586</ele>
        <time>2026-01-14T10:00:33.668Z</time>
      </trkpt>
      <trkpt lon="18.603655" lat="-33.977531">
        <ele>48.1959</ele>
        <time>2026-01-14T10:00:44.276Z</time>
      </trkpt>
      <trkpt lon="18.603782" lat="-33.977559">
        <ele>47.8467</ele>
        <time>2026-01-14T10:00:46.876Z</time>
      </trkpt>
      <trkpt lon="18.603874" lat="-33.977577">
        <ele>47.5553</ele>
        <time>2026-01-14T10:05:47.316Z</time>
      </trkpt>
      <trkpt lon="18.604523" lat="-33.977701">
        <ele>46.0362</ele>
        <time>2026-01-14T10:05:57.320Z</time>
      </trkpt>
      <trkpt lon="18.605019" lat="-33.977796">
        <ele>45.9343</ele>
        <time>2026-01-14T10:06:07.764Z</time>
      </trkpt>
      <trkpt lon="18.605082" lat="-33.977810">
        <ele>45.9455</ele>
        <time>2026-01-14T10:06:09.056Z</time>
      </trkpt>
      <trkpt lon="18.605117" lat="-33.977815">
        <ele>45.956</ele>
        <time>2026-01-14T10:06:09.700Z</time>
      </trkpt>
      <trkpt lon="18.605159" lat="-33.977816">
        <ele>45.9643</ele>
        <time>2026-01-14T10:06:10.372Z</time>
      </trkpt>
      <trkpt lon="18.605202" lat="-33.977813">
        <ele>45.9748</ele>
        <time>2026-01-14T10:06:11.028Z</time>
      </trkpt>
      <trkpt lon="18.605250" lat="-33.977805">
        <ele>45.9785</ele>
        <time>2026-01-14T10:06:11.688Z</time>
      </trkpt>
      <trkpt lon="18.605303" lat="-33.977790">
        <ele>46.0024</ele>
        <time>2026-01-14T10:06:12.376Z</time>
      </trkpt>
      <trkpt lon="18.605357" lat="-33.977763">
        <ele>46.009</ele>
        <time>2026-01-14T10:06:13.024Z</time>
      </trkpt>
      <trkpt lon="18.605408" lat="-33.977723">
        <ele>46.0239</ele>
        <time>2026-01-14T10:06:13.668Z</time>
      </trkpt>
      <trkpt lon="18.605453" lat="-33.977667">
        <ele>46.029</ele>
        <time>2026-01-14T10:06:14.324Z</time>
      </trkpt>
      <trkpt lon="18.605486" lat="-33.977594">
        <ele>46.0333</ele>
        <time>2026-01-14T10:06:14.980Z</time>
      </trkpt>
      <trkpt lon="18.605503" lat="-33.977509">
        <ele>46.0257</ele>
        <time>2026-01-14T10:06:15.616Z</time>
      </trkpt>
      <trkpt lon="18.605503" lat="-33.977392">
        <ele>45.991</ele>
        <time>2026-01-14T10:06:16.304Z</time>
      </trkpt>
      <trkpt lon="18.605452" lat="-33.977126">
        <ele>45.8881</ele>
        <time>2026-01-14T10:06:17.612Z</time>
      </trkpt>
      <trkpt lon="18.605357" lat="-33.976808">
        <ele>45.73</ele>
        <time>2026-01-14T10:06:18.900Z</time>
      </trkpt>
      <trkpt lon="18.605229" lat="-33.976400">
        <ele>45.2733</ele>
        <time>2026-01-14T10:06:20.284Z</time>
      </trkpt>
      <trkpt lon="18.605030" lat="-33.975711">
        <ele>46.1293</ele>
        <time>2026-01-14T10:06:22.288Z</time>
      </trkpt>
      <trkpt lon="18.604643" lat="-33.974432">
        <ele>65.1806</ele>
        <time>2026-01-14T10:06:25.584Z</time>
      </trkpt>
      <trkpt lon="18.604412" lat="-33.973612">
        <ele>83.3247</ele>
        <time>2026-01-14T10:06:27.584Z</time>
      </trkpt>
      <trkpt lon="18.604184" lat="-33.972797">
        <ele>105.156</ele>
        <time>2026-01-14T10:06:29.584Z</time>
      </trkpt>
      <trkpt lon="18.603975" lat="-33.972024">
        <ele>127.443</ele>
        <time>2026-01-14T10:06:31.504Z</time>
      </trkpt>
      <trkpt lon="18.603778" lat="-33.971279">
        <ele>148.066</ele>
        <time>2026-01-14T10:06:33.412Z</time>
      </trkpt>
      <trkpt lon="18.603530" lat="-33.970301">
        <ele>174.255</ele>
        <time>2026-01-14T10:06:35.980Z</time>
      </trkpt>
      <trkpt lon="18.603312" lat="-33.969339">
        <ele>201.092</ele>
        <time>2026-01-14T10:06:38.596Z</time>
      </trkpt>
      <trkpt lon="18.603119" lat="-33.968386">
        <ele>227.373</ele>
        <time>2026-01-14T10:06:41.188Z</time>
      </trkpt>
      <trkpt lon="18.602956" lat="-33.967452">
        <ele>251.914</ele>
        <time>2026-01-14T10:06:43.752Z</time>
      </trkpt>
      <trkpt lon="18.602777" lat="-33.966293">
        <ele>278.944</ele>
        <time>2026-01-14T10:06:46.956Z</time>
      </trkpt>
      <trkpt lon="18.602547" lat="-33.964840">
        <ele>306.547</ele>
        <time>2026-01-14T10:06:50.920Z</time>
      </trkpt>
      <trkpt lon="18.602197" lat="-33.963129">
        <ele>333.521</ele>
        <time>2026-01-14T10:06:55.452Z</time>
      </trkpt>
      <trkpt lon="18.601302" lat="-33.960261">
        <ele>350.292</ele>
        <time>2026-01-14T10:07:02.668Z</time>
      </trkpt>
      <trkpt lon="18.600295" lat="-33.957067">
        <ele>351.485</ele>
        <time>2026-01-14T10:07:09.796Z</time>
      </trkpt>
      <trkpt lon="18.600198" lat="-33.956428">
        <ele>353.936</ele>
        <time>2026-01-14T10:07:11.136Z</time>
      </trkpt>
      <trkpt lon="18.600188" lat="-33.955492">
        <ele>357.621</ele>
        <time>2026-01-14T10:07:13.060Z</time>
      </trkpt>
      <trkpt lon="18.600299" lat="-33.954532">
        <ele>354.625</ele>
        <time>2026-01-14T10:07:14.992Z</time>
      </trkpt>
      <trkpt lon="18.600461" lat="-33.953879">
        <ele>352.869</ele>
        <time>2026-01-14T10:07:16.300Z</time>
      </trkpt>
      <trkpt lon="18.600702" lat="-33.953233">
        <ele>352.378</ele>
        <time>2026-01-14T10:07:17.620Z</time>
      </trkpt>
      <trkpt lon="18.601028" lat="-33.952609">
        <ele>353.08</ele>
        <time>2026-01-14T10:07:18.916Z</time>
      </trkpt>
      <trkpt lon="18.601436" lat="-33.952009">
        <ele>353.962</ele>
        <time>2026-01-14T10:07:20.240Z</time>
      </trkpt>
      <trkpt lon="18.601912" lat="-33.951436">
        <ele>352.41</ele>
        <time>2026-01-14T10:07:21.556Z</time>
      </trkpt>
      <trkpt lon="18.602449" lat="-33.950897">
        <ele>349.178</ele>
        <time>2026-01-14T10:07:22.868Z</time>
      </trkpt>
      <trkpt lon="18.603065" lat="-33.950398">
        <ele>347.255</ele>
        <time>2026-01-14T10:07:24.196Z</time>
      </trkpt>
      <trkpt lon="18.603760" lat="-33.949956">
        <ele>347.836</ele>
        <time>2026-01-14T10:07:25.520Z</time>
      </trkpt>
      <trkpt lon="18.604492" lat="-33.949590">
        <ele>348.734</ele>
        <time>2026-01-14T10:07:26.816Z</time>
      </trkpt>
      <trkpt lon="18.605284" lat="-33.949294">
        <ele>349.413</ele>
        <time>2026-01-14T10:07:28.140Z</time>
      </trkpt>
      <trkpt lon="18.606094" lat="-33.949081">
        <ele>349.368</ele>
        <time>2026-01-14T10:07:29.424Z</time>
      </trkpt>
      <trkpt lon="18.606934" lat="-33.948953">
        <ele>348.996</ele>
        <time>2026-01-14T10:07:30.712Z</time>
      </trkpt>
      <trkpt lon="18.607801" lat="-33.948910">
        <ele>347.53</ele>
        <time>2026-01-14T10:07:32.024Z</time>
      </trkpt>
      <trkpt lon="18.608684" lat="-33.948956">
        <ele>345.282</ele>
        <time>2026-01-14T10:07:33.356Z</time>
      </trkpt>
      <trkpt lon="18.609581" lat="-33.949097">
        <ele>341.654</ele>
        <time>2026-01-14T10:07:34.712Z</time>
      </trkpt>
      <trkpt lon="18.610425" lat="-33.949323">
        <ele>336.326</ele>
        <time>2026-01-14T10:07:36.024Z</time>
      </trkpt>
      <trkpt lon="18.611220" lat="-33.949646">
        <ele>331.393</ele>
        <time>2026-01-14T10:07:37.320Z</time>
      </trkpt>
      <trkpt lon="18.611953" lat="-33.950078">
        <ele>329.399</ele>
        <time>2026-01-14T10:07:38.636Z</time>
      </trkpt>
      <trkpt lon="18.612581" lat="-33.950598">
        <ele>331.633</ele>
        <time>2026-01-14T10:07:39.940Z</time>
      </trkpt>
      <trkpt lon="18.613115" lat="-33.951190">
        <ele>335.548</ele>
        <time>2026-01-14T10:07:41.276Z</time>
      </trkpt>
      <trkpt lon="18.613745" lat="-33.952105">
        <ele>339.584</ele>
        <time>2026-01-14T10:07:43.236Z</time>
      </trkpt>
      <trkpt lon="18.617156" lat="-33.958254">
        <ele>357.344</ele>
        <time>2026-01-14T10:07:56.392Z</time>
      </trkpt>
      <trkpt lon="18.621071" lat="-33.966843">
        <ele>360.56</ele>
        <time>2026-01-14T10:08:14.708Z</time>
      </trkpt>
      <trkpt lon="18.621623" lat="-33.968192">
        <ele>365.081</ele>
        <time>2026-01-14T10:08:18.044Z</time>
      </trkpt>
      <trkpt lon="18.622373" lat="-33.970072">
        <ele>364.438</ele>
        <time>2026-01-14T10:08:23.348Z</time>
      </trkpt>
      <trkpt lon="18.624385" lat="-33.975963">
        <ele>347.065</ele>
        <time>2026-01-14T10:08:42.360Z</time>
      </trkpt>
      <trkpt lon="18.625117" lat="-33.978912">
        <ele>334.524</ele>
        <time>2026-01-14T10:08:52.236Z</time>
      </trkpt>
      <trkpt lon="18.626143" lat="-33.984140">
        <ele>327.556</ele>
        <time>2026-01-14T10:09:09.772Z</time>
      </trkpt>
      <trkpt lon="18.628606" lat="-33.991979">
        <ele>318.115</ele>
        <time>2026-01-14T10:09:37.056Z</time>
      </trkpt>
      <trkpt lon="18.628664" lat="-33.992565">
        <ele>310.508</ele>
        <time>2026-01-14T10:09:39.024Z</time>
      </trkpt>
      <trkpt lon="18.628639" lat="-33.993166">
        <ele>302.283</ele>
        <time>2026-01-14T10:09:40.992Z</time>
      </trkpt>
      <trkpt lon="18.628567" lat="-33.993565">
        <ele>296.861</ele>
        <time>2026-01-14T10:09:42.296Z</time>
      </trkpt>
      <trkpt lon="18.628443" lat="-33.993949">
        <ele>291.848</ele>
        <time>2026-01-14T10:09:43.580Z</time>
      </trkpt>
      <trkpt lon="18.628253" lat="-33.994338">
        <ele>286.821</ele>
        <time>2026-01-14T10:09:44.932Z</time>
      </trkpt>
      <trkpt lon="18.628020" lat="-33.994686">
        <ele>282.053</ele>
        <time>2026-01-14T10:09:46.232Z</time>
      </trkpt>
      <trkpt lon="18.627740" lat="-33.995011">
        <ele>277.174</ele>
        <time>2026-01-14T10:09:47.516Z</time>
      </trkpt>
      <trkpt lon="18.627092" lat="-33.995600">
        <ele>268.715</ele>
        <time>2026-01-14T10:09:50.120Z</time>
      </trkpt>
      <trkpt lon="18.626567" lat="-33.995993">
        <ele>263.627</ele>
        <time>2026-01-14T10:09:52.052Z</time>
      </trkpt>
      <trkpt lon="18.625626" lat="-33.996572">
        <ele>256.444</ele>
        <time>2026-01-14T10:09:55.312Z</time>
      </trkpt>
      <trkpt lon="18.625023" lat="-33.996864">
        <ele>251.95</ele>
        <time>2026-01-14T10:09:57.280Z</time>
      </trkpt>
      <trkpt lon="18.624396" lat="-33.997100">
        <ele>247.317</ele>
        <time>2026-01-14T10:09:59.224Z</time>
      </trkpt>
      <trkpt lon="18.623733" lat="-33.997281">
        <ele>242.815</ele>
        <time>2026-01-14T10:10:01.200Z</time>
      </trkpt>
      <trkpt lon="18.622660" lat="-33.997567">
        <ele>235.515</ele>
        <time>2026-01-14T10:10:04.420Z</time>
      </trkpt>
      <trkpt lon="18.621388" lat="-33.997925">
        <ele>228.126</ele>
        <time>2026-01-14T10:10:08.268Z</time>
      </trkpt>
      <trkpt lon="18.620958" lat="-33.997991">
        <ele>226.127</ele>
        <time>2026-01-14T10:10:09.536Z</time>
      </trkpt>
      <trkpt lon="18.620297" lat="-33.998023">
        <ele>222.553</ele>
        <time>2026-01-14T10:10:11.476Z</time>
      </trkpt>
      <trkpt lon="18.617653" lat="-33.997947">
        <ele>205.907</ele>
        <time>2026-01-14T10:10:19.280Z</time>
      </trkpt>
      <trkpt lon="18.616774" lat="-33.997819">
        <ele>198.303</ele>
        <time>2026-01-14T10:10:21.864Z</time>
      </trkpt>
      <trkpt lon="18.616124" lat="-33.997668">
        <ele>193.086</ele>
        <time>2026-01-14T10:10:23.780Z</time>
      </trkpt>
      <trkpt lon="18.615274" lat="-33.997396">
        <ele>186.637</ele>
        <time>2026-01-14T10:10:26.368Z</time>
      </trkpt>
      <trkpt lon="18.614410" lat="-33.997039">
        <ele>179.303</ele>
        <time>2026-01-14T10:10:29.092Z</time>
      </trkpt>
      <trkpt lon="18.613240" lat="-33.996427">
        <ele>169.281</ele>
        <time>2026-01-14T10:10:33.012Z</time>
      </trkpt>
      <trkpt lon="18.612508" lat="-33.995956">
        <ele>162.161</ele>
        <time>2026-01-14T10:10:35.652Z</time>
      </trkpt>
      <trkpt lon="18.612009" lat="-33.995561">
        <ele>157.271</ele>
        <time>2026-01-14T10:10:37.616Z</time>
      </trkpt>
      <trkpt lon="18.611592" lat="-33.995126">
        <ele>156.853</ele>
        <time>2026-01-14T10:10:39.628Z</time>
      </trkpt>
      <trkpt lon="18.611371" lat="-33.994834">
        <ele>155.244</ele>
        <time>2026-01-14T10:10:40.956Z</time>
      </trkpt>
      <trkpt lon="18.611105" lat="-33.994387">
        <ele>150.983</ele>
        <time>2026-01-14T10:10:42.932Z</time>
      </trkpt>
      <trkpt lon="18.610732" lat="-33.993602">
        <ele>142.926</ele>
        <time>2026-01-14T10:10:46.264Z</time>
      </trkpt>
      <trkpt lon="18.610038" lat="-33.991512">
        <ele>122.814</ele>
        <time>2026-01-14T10:10:54.736Z</time>
      </trkpt>
      <trkpt lon="18.609582" lat="-33.990039">
        <ele>104.488</ele>
        <time>2026-01-14T10:11:00.588Z</time>
      </trkpt>
      <trkpt lon="18.609475" lat="-33.989526">
        <ele>100.735</ele>
        <time>2026-01-14T10:11:02.608Z</time>
      </trkpt>
      <trkpt lon="18.609020" lat="-33.986316">
        <ele>94.2773</ele>
        <time>2026-01-14T10:11:15.316Z</time>
      </trkpt>
      <trkpt lon="18.608912" lat="-33.985669">
        <ele>91.0184</ele>
        <time>2026-01-14T10:11:17.268Z</time>
      </trkpt>
      <trkpt lon="18.608537" lat="-33.983967">
        <ele>106.719</ele>
        <time>2026-01-14T10:11:21.808Z</time>
      </trkpt>
      <trkpt lon="18.608004" lat="-33.981834">
        <ele>128.554</ele>
        <time>2026-01-14T10:11:27.040Z</time>
      </trkpt>
      <trkpt lon="18.607614" lat="-33.980200">
        <ele>150.052</ele>
        <time>2026-01-14T10:11:30.944Z</time>
      </trkpt>
      <trkpt lon="18.607147" lat="-33.978260">
        <ele>172.596</ele>
        <time>2026-01-14T10:11:35.520Z</time>
      </trkpt>
      <trkpt lon="18.606652" lat="-33.976305">
        <ele>197.516</ele>
        <time>2026-01-14T10:11:40.120Z</time>
      </trkpt>
      <trkpt lon="18.606063" lat="-33.974056">
        <ele>221.005</ele>
        <time>2026-01-14T10:11:45.396Z</time>
      </trkpt>
      <trkpt lon="18.605010" lat="-33.970018">
        <ele>247.52</ele>
        <time>2026-01-14T10:11:54.512Z</time>
      </trkpt>
      <trkpt lon="18.604351" lat="-33.967748">
        <ele>274.53</ele>
        <time>2026-01-14T10:11:59.680Z</time>
      </trkpt>
      <trkpt lon="18.603454" lat="-33.964567">
        <ele>301.752</ele>
        <time>2026-01-14T10:12:06.936Z</time>
      </trkpt>
      <trkpt lon="18.601927" lat="-33.958009">
        <ele>324.47</ele>
        <time>2026-01-14T10:12:21.996Z</time>
      </trkpt>
      <trkpt lon="18.601880" lat="-33.957436">
        <ele>325.715</ele>
        <time>2026-01-14T10:12:23.296Z</time>
      </trkpt>
      <trkpt lon="18.601910" lat="-33.956845">
        <ele>327.254</ele>
        <time>2026-01-14T10:12:24.624Z</time>
      </trkpt>
      <trkpt lon="18.602015" lat="-33.956274">
        <ele>329.072</ele>
        <time>2026-01-14T10:12:25.932Z</time>
      </trkpt>
      <trkpt lon="18.602194" lat="-33.955712">
        <ele>330.806</ele>
        <time>2026-01-14T10:12:27.236Z</time>
      </trkpt>
      <trkpt lon="18.602448" lat="-33.955148">
        <ele>331.703</ele>
        <time>2026-01-14T10:12:28.576Z</time>
      </trkpt>
      <trkpt lon="18.602765" lat="-33.954617">
        <ele>331.887</ele>
        <time>2026-01-14T10:12:29.884Z</time>
      </trkpt>
      <trkpt lon="18.603156" lat="-33.954109">
        <ele>332.413</ele>
        <time>2026-01-14T10:12:31.208Z</time>
      </trkpt>
      <trkpt lon="18.603605" lat="-33.953639">
        <ele>332.894</ele>
        <time>2026-01-14T10:12:32.516Z</time>
      </trkpt>
      <trkpt lon="18.604107" lat="-33.953210">
        <ele>333.367</ele>
        <time>2026-01-14T10:12:33.816Z</time>
      </trkpt>
      <trkpt lon="18.604687" lat="-33.952804">
        <ele>333.737</ele>
        <time>2026-01-14T10:12:35.184Z</time>
      </trkpt>
      <trkpt lon="18.605284" lat="-33.952463">
        <ele>334.236</ele>
        <time>2026-01-14T10:12:36.460Z</time>
      </trkpt>
      <trkpt lon="18.605940" lat="-33.952160">
        <ele>334.954</ele>
        <time>2026-01-14T10:12:37.796Z</time>
      </trkpt>
      <trkpt lon="18.606607" lat="-33.951916">
        <ele>335.467</ele>
        <time>2026-01-14T10:12:39.088Z</time>
      </trkpt>
      <trkpt lon="18.607309" lat="-33.951721">
        <ele>334.756</ele>
        <time>2026-01-14T10:12:40.392Z</time>
      </trkpt>
      <trkpt lon="18.608005" lat="-33.951583">
        <ele>333.444</ele>
        <time>2026-01-14T10:12:41.632Z</time>
      </trkpt>
      <trkpt lon="18.609114" lat="-33.951449">
        <ele>332.499</ele>
        <time>2026-01-14T10:12:43.580Z</time>
      </trkpt>
      <trkpt lon="18.610642" lat="-33.951381">
        <ele>332.592</ele>
        <time>2026-01-14T10:12:46.224Z</time>
      </trkpt>
      <trkpt lon="18.622442" lat="-33.951582">
        <ele>342.876</ele>
        <time>2026-01-14T10:13:07.180Z</time>
      </trkpt>
      <trkpt lon="18.622816" lat="-33.951617">
        <ele>343.159</ele>
        <time>2026-01-14T10:13:07.832Z</time>
      </trkpt>
      <trkpt lon="18.623557" lat="-33.951745">
        <ele>344.71</ele>
        <time>2026-01-14T10:13:09.156Z</time>
      </trkpt>
      <trkpt lon="18.624247" lat="-33.951944">
        <ele>347.48</ele>
        <time>2026-01-14T10:13:10.440Z</time>
      </trkpt>
      <trkpt lon="18.624894" lat="-33.952215">
        <ele>351.046</ele>
        <time>2026-01-14T10:13:11.740Z</time>
      </trkpt>
      <trkpt lon="18.625488" lat="-33.952553">
        <ele>354.655</ele>
        <time>2026-01-14T10:13:13.048Z</time>
      </trkpt>
      <trkpt lon="18.626020" lat="-33.952939">
        <ele>355.88</ele>
        <time>2026-01-14T10:13:14.340Z</time>
      </trkpt>
      <trkpt lon="18.626502" lat="-33.953374">
        <ele>354.164</ele>
        <time>2026-01-14T10:13:15.632Z</time>
      </trkpt>
      <trkpt lon="18.626918" lat="-33.953863">
        <ele>353.624</ele>
        <time>2026-01-14T10:13:16.932Z</time>
      </trkpt>
      <trkpt lon="18.627263" lat="-33.954387">
        <ele>353.111</ele>
        <time>2026-01-14T10:13:18.240Z</time>
      </trkpt>
      <trkpt lon="18.630245" lat="-33.961529">
        <ele>351.933</ele>
        <time>2026-01-14T10:13:34.604Z</time>
      </trkpt>
      <trkpt lon="18.634488" lat="-33.975172">
        <ele>369.71</ele>
        <time>2026-01-14T10:14:04.756Z</time>
      </trkpt>
      <trkpt lon="18.637895" lat="-33.988894">
        <ele>384.898</ele>
        <time>2026-01-14T10:14:34.864Z</time>
      </trkpt>
      <trkpt lon="18.639444" lat="-33.994312">
        <ele>380.75</ele>
        <time>2026-01-14T10:14:46.736Z</time>
      </trkpt>
      <trkpt lon="18.645180" lat="-34.008115">
        <ele>379</ele>
        <time>2026-01-14T10:15:17.276Z</time>
      </trkpt>
      <trkpt lon="18.646731" lat="-34.012368">
        <ele>388.307</ele>
        <time>2026-01-14T10:15:26.648Z</time>
      </trkpt>
      <trkpt lon="18.647294" lat="-34.013935">
        <ele>392.099</ele>
        <time>2026-01-14T10:15:30.644Z</time>
      </trkpt>
      <trkpt lon="18.649124" lat="-34.018634">
        <ele>386.991</ele>
        <time>2026-01-14T10:15:44.252Z</time>
      </trkpt>
      <trkpt lon="18.650287" lat="-34.021481">
        <ele>375.453</ele>
        <time>2026-01-14T10:15:53.356Z</time>
      </trkpt>
      <trkpt lon="18.650393" lat="-34.021890">
        <ele>373.719</ele>
        <time>2026-01-14T10:15:54.676Z</time>
      </trkpt>
      <trkpt lon="18.650435" lat="-34.022291">
        <ele>372.161</ele>
        <time>2026-01-14T10:15:55.952Z</time>
      </trkpt>
      <trkpt lon="18.650410" lat="-34.022689">
        <ele>370.155</ele>
        <time>2026-01-14T10:15:57.232Z</time>
      </trkpt>
      <trkpt lon="18.650313" lat="-34.023087">
        <ele>367.615</ele>
        <time>2026-01-14T10:15:58.540Z</time>
      </trkpt>
      <trkpt lon="18.650147" lat="-34.023467">
        <ele>364.437</ele>
        <time>2026-01-14T10:15:59.852Z</time>
      </trkpt>
      <trkpt lon="18.649913" lat="-34.023818">
        <ele>360.889</ele>
        <time>2026-01-14T10:16:01.152Z</time>
      </trkpt>
      <trkpt lon="18.649626" lat="-34.024129">
        <ele>357.627</ele>
        <time>2026-01-14T10:16:02.424Z</time>
      </trkpt>
      <trkpt lon="18.649277" lat="-34.024421">
        <ele>354.189</ele>
        <time>2026-01-14T10:16:03.768Z</time>
      </trkpt>
      <trkpt lon="18.648897" lat="-34.024673">
        <ele>350.586</ele>
        <time>2026-01-14T10:16:05.084Z</time>
      </trkpt>
      <trkpt lon="18.648480" lat="-34.024897">
        <ele>346.985</ele>
        <time>2026-01-14T10:16:06.432Z</time>
      </trkpt>
      <trkpt lon="18.644464" lat="-34.026597">
        <ele>316.274</ele>
        <time>2026-01-14T10:16:18.736Z</time>
      </trkpt>
      <trkpt lon="18.643167" lat="-34.027126">
        <ele>303.417</ele>
        <time>2026-01-14T10:16:21.984Z</time>
      </trkpt>
      <trkpt lon="18.640209" lat="-34.028320">
        <ele>289.657</ele>
        <time>2026-01-14T10:16:28.504Z</time>
      </trkpt>
      <trkpt lon="18.634422" lat="-34.030558">
        <ele>287.598</ele>
        <time>2026-01-14T10:16:40.224Z</time>
      </trkpt>
      <trkpt lon="18.628837" lat="-34.032021">
        <ele>310.407</ele>
        <time>2026-01-14T10:16:51.348Z</time>
      </trkpt>
      <trkpt lon="18.628170" lat="-34.032144">
        <ele>311.751</ele>
        <time>2026-01-14T10:16:52.640Z</time>
      </trkpt>
      <trkpt lon="18.627503" lat="-34.032213">
        <ele>315.122</ele>
        <time>2026-01-14T10:16:53.916Z</time>
      </trkpt>
      <trkpt lon="18.626829" lat="-34.032211">
        <ele>320.646</ele>
        <time>2026-01-14T10:16:55.228Z</time>
      </trkpt>
      <trkpt lon="18.626165" lat="-34.032148">
        <ele>324.284</ele>
        <time>2026-01-14T10:16:56.528Z</time>
      </trkpt>
      <trkpt lon="18.625521" lat="-34.032025">
        <ele>325.007</ele>
        <time>2026-01-14T10:16:57.820Z</time>
      </trkpt>
      <trkpt lon="18.624907" lat="-34.031840">
        <ele>324.731</ele>
        <time>2026-01-14T10:16:59.080Z</time>
      </trkpt>
      <trkpt lon="18.623992" lat="-34.031449">
        <ele>324.21</ele>
        <time>2026-01-14T10:17:01.044Z</time>
      </trkpt>
      <trkpt lon="18.623125" lat="-34.030968">
        <ele>322.242</ele>
        <time>2026-01-14T10:17:02.992Z</time>
      </trkpt>
      <trkpt lon="18.622305" lat="-34.030421">
        <ele>319.032</ele>
        <time>2026-01-14T10:17:04.932Z</time>
      </trkpt>
      <trkpt lon="18.621548" lat="-34.029794">
        <ele>314.789</ele>
        <time>2026-01-14T10:17:06.856Z</time>
      </trkpt>
      <trkpt lon="18.620866" lat="-34.029073">
        <ele>310.114</ele>
        <time>2026-01-14T10:17:08.792Z</time>
      </trkpt>
      <trkpt lon="18.620283" lat="-34.028275">
        <ele>306.054</ele>
        <time>2026-01-14T10:17:10.744Z</time>
      </trkpt>
      <trkpt lon="18.619805" lat="-34.027428">
        <ele>301.145</ele>
        <time>2026-01-14T10:17:12.664Z</time>
      </trkpt>
      <trkpt lon="18.619288" lat="-34.026184">
        <ele>295.038</ele>
        <time>2026-01-14T10:17:15.340Z</time>
      </trkpt>
      <trkpt lon="18.616127" lat="-34.015553">
        <ele>268.331</ele>
        <time>2026-01-14T10:17:37.652Z</time>
      </trkpt>
      <trkpt lon="18.614681" lat="-34.009664">
        <ele>242.864</ele>
        <time>2026-01-14T10:17:49.388Z</time>
      </trkpt>
      <trkpt lon="18.613370" lat="-34.004033">
        <ele>219.824</ele>
        <time>2026-01-14T10:18:01.088Z</time>
      </trkpt>
      <trkpt lon="18.612609" lat="-34.000729">
        <ele>195.511</ele>
        <time>2026-01-14T10:18:08.356Z</time>
      </trkpt>
      <trkpt lon="18.612060" lat="-33.998620">
        <ele>172.658</ele>
        <time>2026-01-14T10:18:12.924Z</time>
      </trkpt>
      <trkpt lon="18.611447" lat="-33.996442">
        <ele>151.12</ele>
        <time>2026-01-14T10:18:17.548Z</time>
      </trkpt>
      <trkpt lon="18.610707" lat="-33.993923">
        <ele>129.018</ele>
        <time>2026-01-14T10:18:22.828Z</time>
      </trkpt>
      <trkpt lon="18.610158" lat="-33.992038">
        <ele>109.454</ele>
        <time>2026-01-14T10:18:26.772Z</time>
      </trkpt>
      <trkpt lon="18.609690" lat="-33.990541">
        <ele>91.1339</ele>
        <time>2026-01-14T10:18:30.056Z</time>
      </trkpt>
      <trkpt lon="18.609253" lat="-33.989191">
        <ele>78.3427</ele>
        <time>2026-01-14T10:18:33.352Z</time>
      </trkpt>
      <trkpt lon="18.609039" lat="-33.988500">
        <ele>76.5205</ele>
        <time>2026-01-14T10:18:35.288Z</time>
      </trkpt>
      <trkpt lon="18.608860" lat="-33.987883">
        <ele>73.5878</ele>
        <time>2026-01-14T10:18:37.276Z</time>
      </trkpt>
      <trkpt lon="18.608512" lat="-33.986697">
        <ele>58.4866</ele>
        <time>2026-01-14T10:18:41.888Z</time>
      </trkpt>
      <trkpt lon="18.607808" lat="-33.984525">
        <ele>45.6409</ele>
        <time>2026-01-14T10:18:51.892Z</time>
      </trkpt>
      <trkpt lon="18.607640" lat="-33.983944">
        <ele>45.969</ele>
        <time>2026-01-14T10:18:54.588Z</time>
      </trkpt>
      <trkpt lon="18.607482" lat="-33.983361">
        <ele>46.182</ele>
        <time>2026-01-14T10:18:56.612Z</time>
      </trkpt>
      <trkpt lon="18.607291" lat="-33.982687">
        <ele>47.0755</ele>
        <time>2026-01-14T10:18:58.584Z</time>
      </trkpt>
      <trkpt lon="18.606957" lat="-33.981665">
        <ele>50.7881</ele>
        <time>2026-01-14T10:19:01.196Z</time>
      </trkpt>
      <trkpt lon="18.606222" lat="-33.979317">
        <ele>70.0877</ele>
        <time>2026-01-14T10:19:06.424Z</time>
      </trkpt>
      <trkpt lon="18.605864" lat="-33.978106">
        <ele>87.2997</ele>
        <time>2026-01-14T10:19:09.084Z</time>
      </trkpt>
      <trkpt lon="18.605470" lat="-33.976665">
        <ele>109.44</ele>
        <time>2026-01-14T10:19:12.352Z</time>
      </trkpt>
      <trkpt lon="18.605057" lat="-33.974964">
        <ele>130.196</ele>
        <time>2026-01-14T10:19:16.324Z</time>
      </trkpt>
      <trkpt lon="18.603353" lat="-33.969288">
        <ele>149.836</ele>
        <time>2026-01-14T10:19:29.276Z</time>
      </trkpt>
      <trkpt lon="18.602578" lat="-33.966876">
        <ele>174.829</ele>
        <time>2026-01-14T10:19:34.484Z</time>
      </trkpt>
      <trkpt lon="18.602150" lat="-33.965423">
        <ele>198.962</ele>
        <time>2026-01-14T10:19:37.712Z</time>
      </trkpt>
      <trkpt lon="18.601761" lat="-33.964044">
        <ele>224.435</ele>
        <time>2026-01-14T10:19:40.904Z</time>
      </trkpt>
      <trkpt lon="18.601369" lat="-33.962687">
        <ele>249.481</ele>
        <time>2026-01-14T10:19:44.136Z</time>
      </trkpt>
      <trkpt lon="18.600812" lat="-33.960830">
        <ele>278.114</ele>
        <time>2026-01-14T10:19:48.636Z</time>
      </trkpt>
      <trkpt lon="18.600185" lat="-33.958630">
        <ele>305.458</ele>
        <time>2026-01-14T10:19:53.728Z</time>
      </trkpt>
      <trkpt lon="18.599645" lat="-33.956724">
        <ele>314.104</ele>
        <time>2026-01-14T10:19:58.252Z</time>
      </trkpt>
      <trkpt lon="18.599575" lat="-33.956161">
        <ele>313.83</ele>
        <time>2026-01-14T10:19:59.576Z</time>
      </trkpt>
      <trkpt lon="18.599598" lat="-33.955614">
        <ele>314.745</ele>
        <time>2026-01-14T10:20:00.864Z</time>
      </trkpt>
      <trkpt lon="18.599707" lat="-33.955075">
        <ele>315.257</ele>
        <time>2026-01-14T10:20:02.160Z</time>
      </trkpt>
      <trkpt lon="18.599896" lat="-33.954556">
        <ele>315.244</ele>
        <time>2026-01-14T10:20:03.448Z</time>
      </trkpt>
      <trkpt lon="18.600160" lat="-33.954063">
        <ele>314.746</ele>
        <time>2026-01-14T10:20:04.720Z</time>
      </trkpt>
      <trkpt lon="18.600504" lat="-33.953589">
        <ele>314.739</ele>
        <time>2026-01-14T10:20:05.996Z</time>
      </trkpt>
      <trkpt lon="18.600918" lat="-33.953144">
        <ele>314.804</ele>
        <time>2026-01-14T10:20:07.280Z</time>
      </trkpt>
      <trkpt lon="18.601394" lat="-33.952729">
        <ele>314.671</ele>
        <time>2026-01-14T10:20:08.560Z</time>
      </trkpt>
      <trkpt lon="18.601931" lat="-33.952350">
        <ele>315.549</ele>
        <time>2026-01-14T10:20:09.844Z</time>
      </trkpt>
      <trkpt lon="18.602502" lat="-33.952022">
        <ele>317.269</ele>
        <time>2026-01-14T10:20:11.112Z</time>
      </trkpt>
      <trkpt lon="18.603112" lat="-33.951740">
        <ele>319.884</ele>
        <time>2026-01-14T10:20:12.388Z</time>
      </trkpt>
      <trkpt lon="18.603760" lat="-33.951507">
        <ele>323.323</ele>
        <time>2026-01-14T10:20:13.668Z</time>
      </trkpt>
      <trkpt lon="18.604432" lat="-33.951326">
        <ele>327.309</ele>
        <time>2026-01-14T10:20:14.960Z</time>
      </trkpt>
      <trkpt lon="18.611003" lat="-33.950114">
        <ele>357.049</ele>
        <time>2026-01-14T10:20:27.200Z</time>
      </trkpt>
      <trkpt lon="18.620799" lat="-33.948557">
        <ele>369.998</ele>
        <time>2026-01-14T10:20:44.580Z</time>
      </trkpt>
      <trkpt lon="18.621535" lat="-33.948498">
        <ele>373.738</ele>
        <time>2026-01-14T10:20:45.860Z</time>
      </trkpt>
      <trkpt lon="18.622275" lat="-33.948482">
        <ele>377.021</ele>
        <time>2026-01-14T10:20:47.136Z</time>
      </trkpt>
      <trkpt lon="18.623385" lat="-33.948544">
        <ele>380.473</ele>
        <time>2026-01-14T10:20:49.064Z</time>
      </trkpt>
      <trkpt lon="18.624117" lat="-33.948649">
        <ele>382.504</ele>
        <time>2026-01-14T10:20:50.352Z</time>
      </trkpt>
      <trkpt lon="18.624824" lat="-33.948812">
        <ele>385.448</ele>
        <time>2026-01-14T10:20:51.632Z</time>
      </trkpt>
      <trkpt lon="18.625502" lat="-33.949033">
        <ele>389.013</ele>
        <time>2026-01-14T10:20:52.920Z</time>
      </trkpt>
      <trkpt lon="18.626144" lat="-33.949303">
        <ele>391.245</ele>
        <time>2026-01-14T10:20:54.188Z</time>
      </trkpt>
      <trkpt lon="18.626757" lat="-33.949629">
        <ele>391.671</ele>
        <time>2026-01-14T10:20:55.476Z</time>
      </trkpt>
      <trkpt lon="18.627324" lat="-33.950015">
        <ele>392.329</ele>
        <time>2026-01-14T10:20:56.768Z</time>
      </trkpt>
      <trkpt lon="18.627823" lat="-33.950442">
        <ele>393.123</ele>
        <time>2026-01-14T10:20:58.048Z</time>
      </trkpt>
      <trkpt lon="18.628272" lat="-33.950926">
        <ele>393.846</ele>
        <time>2026-01-14T10:20:59.340Z</time>
      </trkpt>
      <trkpt lon="18.628831" lat="-33.951689">
        <ele>393.484</ele>
        <time>2026-01-14T10:21:01.264Z</time>
      </trkpt>
      <trkpt lon="18.629321" lat="-33.952522">
        <ele>392.173</ele>
        <time>2026-01-14T10:21:03.204Z</time>
      </trkpt>
      <trkpt lon="18.634311" lat="-33.966108">
        <ele>378.37</ele>
        <time>2026-01-14T10:21:32.852Z</time>
      </trkpt>
      <trkpt lon="18.637524" lat="-33.976543">
        <ele>366.332</ele>
        <time>2026-01-14T10:21:55.424Z</time>
      </trkpt>
      <trkpt lon="18.640721" lat="-33.990774">
        <ele>342.301</ele>
        <time>2026-01-14T10:22:25.620Z</time>
      </trkpt>
      <trkpt lon="18.641139" lat="-33.992973">
        <ele>336.23</ele>
        <time>2026-01-14T10:22:30.144Z</time>
      </trkpt>
      <trkpt lon="18.641170" lat="-33.994248">
        <ele>335.945</ele>
        <time>2026-01-14T10:22:32.768Z</time>
      </trkpt>
      <trkpt lon="18.641042" lat="-33.995490">
        <ele>336.046</ele>
        <time>2026-01-14T10:22:35.372Z</time>
      </trkpt>
      <trkpt lon="18.640712" lat="-33.996993">
        <ele>333.297</ele>
        <time>2026-01-14T10:22:38.576Z</time>
      </trkpt>
      <trkpt lon="18.640292" lat="-33.998178">
        <ele>334.677</ele>
        <time>2026-01-14T10:22:41.180Z</time>
      </trkpt>
      <trkpt lon="18.639871" lat="-33.999011">
        <ele>338.183</ele>
        <time>2026-01-14T10:22:43.104Z</time>
      </trkpt>
      <trkpt lon="18.639173" lat="-34.000047">
        <ele>342.03</ele>
        <time>2026-01-14T10:22:45.696Z</time>
      </trkpt>
      <trkpt lon="18.638565" lat="-34.000756">
        <ele>341.03</ele>
        <time>2026-01-14T10:22:47.604Z</time>
      </trkpt>
      <trkpt lon="18.637874" lat="-34.001415">
        <ele>336.516</ele>
        <time>2026-01-14T10:22:49.512Z</time>
      </trkpt>
      <trkpt lon="18.637088" lat="-34.002026">
        <ele>331.917</ele>
        <time>2026-01-14T10:22:51.448Z</time>
      </trkpt>
      <trkpt lon="18.636193" lat="-34.002577">
        <ele>328.832</ele>
        <time>2026-01-14T10:22:53.416Z</time>
      </trkpt>
      <trkpt lon="18.635257" lat="-34.003025">
        <ele>328.013</ele>
        <time>2026-01-14T10:22:55.340Z</time>
      </trkpt>
      <trkpt lon="18.633943" lat="-34.003506">
        <ele>325.058</ele>
        <time>2026-01-14T10:22:57.904Z</time>
      </trkpt>
      <trkpt lon="18.625298" lat="-34.005702">
        <ele>297.186</ele>
        <time>2026-01-14T10:23:13.984Z</time>
      </trkpt>
      <trkpt lon="18.621838" lat="-34.006463">
        <ele>289.742</ele>
        <time>2026-01-14T10:23:20.376Z</time>
      </trkpt>
      <trkpt lon="18.620789" lat="-34.006579">
        <ele>291.724</ele>
        <time>2026-01-14T10:23:22.300Z</time>
      </trkpt>
      <trkpt lon="18.619749" lat="-34.006599">
        <ele>293.695</ele>
        <time>2026-01-14T10:23:24.228Z</time>
      </trkpt>
      <trkpt lon="18.619056" lat="-34.006548">
        <ele>293.862</ele>
        <time>2026-01-14T10:23:25.528Z</time>
      </trkpt>
      <trkpt lon="18.618381" lat="-34.006443">
        <ele>293.219</ele>
        <time>2026-01-14T10:23:26.816Z</time>
      </trkpt>
      <trkpt lon="18.617726" lat="-34.006282">
        <ele>292.059</ele>
        <time>2026-01-14T10:23:28.104Z</time>
      </trkpt>
      <trkpt lon="18.617095" lat="-34.006068">
        <ele>290.255</ele>
        <time>2026-01-14T10:23:29.388Z</time>
      </trkpt>
      <trkpt lon="18.616484" lat="-34.005798">
        <ele>287.575</ele>
        <time>2026-01-14T10:23:30.684Z</time>
      </trkpt>
      <trkpt lon="18.615911" lat="-34.005473">
        <ele>284.398</ele>
        <time>2026-01-14T10:23:31.980Z</time>
      </trkpt>
      <trkpt lon="18.615384" lat="-34.005097">
        <ele>281.259</ele>
        <time>2026-01-14T10:23:33.260Z</time>
      </trkpt>
      <trkpt lon="18.614896" lat="-34.004670">
        <ele>277.113</ele>
        <time>2026-01-14T10:23:34.564Z</time>
      </trkpt>
      <trkpt lon="18.614250" lat="-34.003965">
        <ele>267.784</ele>
        <time>2026-01-14T10:23:36.492Z</time>
      </trkpt>
      <trkpt lon="18.613692" lat="-34.003197">
        <ele>256.564</ele>
        <time>2026-01-14T10:23:38.408Z</time>
      </trkpt>
      <trkpt lon="18.613047" lat="-34.002075">
        <ele>239.62</ele>
        <time>2026-01-14T10:23:40.980Z</time>
      </trkpt>
      <trkpt lon="18.612536" lat="-34.000868">
        <ele>223.29</ele>
        <time>2026-01-14T10:23:43.544Z</time>
      </trkpt>
      <trkpt lon="18.612067" lat="-33.999230">
        <ele>204.932</ele>
        <time>2026-01-14T10:23:46.840Z</time>
      </trkpt>
      <trkpt lon="18.611377" lat="-33.996284">
        <ele>181.662</ele>
        <time>2026-01-14T10:23:52.684Z</time>
      </trkpt>
      <trkpt lon="18.610497" lat="-33.992910">
        <ele>158.262</ele>
        <time>2026-01-14T10:23:59.812Z</time>
      </trkpt>
      <trkpt lon="18.610003" lat="-33.991133">
        <ele>136.04</ele>
        <time>2026-01-14T10:24:03.708Z</time>
      </trkpt>
      <trkpt lon="18.609711" lat="-33.990176">
        <ele>122.87</ele>
        <time>2026-01-14T10:24:05.672Z</time>
      </trkpt>
      <trkpt lon="18.609611" lat="-33.989851">
        <ele>118.9</ele>
        <time>2026-01-14T10:24:06.328Z</time>
      </trkpt>
      <trkpt lon="18.608936" lat="-33.987651">
        <ele>98.4685</ele>
        <time>2026-01-14T10:24:10.856Z</time>
      </trkpt>
      <trkpt lon="18.607799" lat="-33.984192">
        <ele>80.7826</ele>
        <time>2026-01-14T10:24:18.048Z</time>
      </trkpt>
      <trkpt lon="18.607119" lat="-33.982110">
        <ele>70.4774</ele>
        <time>2026-01-14T10:24:22.604Z</time>
      </trkpt>
      <trkpt lon="18.607028" lat="-33.981829">
        <ele>69.676</ele>
        <time>2026-01-14T10:24:23.228Z</time>
      </trkpt>
      <trkpt lon="18.606631" lat="-33.980714">
        <ele>64.3552</ele>
        <time>2026-01-14T10:24:25.888Z</time>
      </trkpt>
      <trkpt lon="18.606449" lat="-33.980222">
        <ele>66.4062</ele>
        <time>2026-01-14T10:24:27.252Z</time>
      </trkpt>
      <trkpt lon="18.606239" lat="-33.979614">
        <ele>65.7842</ele>
        <time>2026-01-14T10:24:29.244Z</time>
      </trkpt>
      <trkpt lon="18.605928" lat="-33.978600">
        <ele>53.2849</ele>
        <time>2026-01-14T10:24:33.204Z</time>
      </trkpt>
      <trkpt lon="18.605604" lat="-33.977644">
        <ele>46.0863</ele>
        <time>2026-01-14T10:24:37.824Z</time>
      </trkpt>
      <trkpt lon="18.605454" lat="-33.977074">
        <ele>48.3846</ele>
        <time>2026-01-14T10:24:40.556Z</time>
      </trkpt>
      <trkpt lon="18.605300" lat="-33.976527">
        <ele>48.0701</ele>
        <time>2026-01-14T10:24:42.584Z</time>
      </trkpt>
      <trkpt lon="18.604968" lat="-33.975507">
        <ele>67.665</ele>
        <time>2026-01-14T10:24:45.888Z</time>
      </trkpt>
      <trkpt lon="18.604756" lat="-33.974906">
        <ele>91.9502</ele>
        <time>2026-01-14T10:24:47.892Z</time>
      </trkpt>
      <trkpt lon="18.604560" lat="-33.974352">
        <ele>120.233</ele>
        <time>2026-01-14T10:24:49.884Z</time>
      </trkpt>
      <trkpt lon="18.604376" lat="-33.973855">
        <ele>148.506</ele>
        <time>2026-01-14T10:24:51.796Z</time>
      </trkpt>
      <trkpt lon="18.604192" lat="-33.973386">
        <ele>176.071</ele>
        <time>2026-01-14T10:24:53.724Z</time>
      </trkpt>
      <trkpt lon="18.604011" lat="-33.972919">
        <ele>200.998</ele>
        <time>2026-01-14T10:24:55.668Z</time>
      </trkpt>
      <trkpt lon="18.603836" lat="-33.972457">
        <ele>224.815</ele>
        <time>2026-01-14T10:24:57.612Z</time>
      </trkpt>
      <trkpt lon="18.603618" lat="-33.971851">
        <ele>255.865</ele>
        <time>2026-01-14T10:25:00.212Z</time>
      </trkpt>
      <trkpt lon="18.603418" lat="-33.971275">
        <ele>284.186</ele>
        <time>2026-01-14T10:25:02.712Z</time>
      </trkpt>
      <trkpt lon="18.603157" lat="-33.970503">
        <ele>311.455</ele>
        <time>2026-01-14T10:25:05.924Z</time>
      </trkpt>
      <trkpt lon="18.602984" lat="-33.969949">
        <ele>303.836</ele>
        <time>2026-01-14T10:25:07.824Z</time>
      </trkpt>
      <trkpt lon="18.602721" lat="-33.969059">
        <ele>293.538</ele>
        <time>2026-01-14T10:25:10.408Z</time>
      </trkpt>
      <trkpt lon="18.602180" lat="-33.966985">
        <ele>289.657</ele>
        <time>2026-01-14T10:25:15.600Z</time>
      </trkpt>
      <trkpt lon="18.600972" lat="-33.960773">
        <ele>301.671</ele>
        <time>2026-01-14T10:25:29.752Z</time>
      </trkpt>
      <trkpt lon="18.600675" lat="-33.957494">
        <ele>303.494</ele>
        <time>2026-01-14T10:25:36.860Z</time>
      </trkpt>
      <trkpt lon="18.600691" lat="-33.956895">
        <ele>305.542</ele>
        <time>2026-01-14T10:25:38.144Z</time>
      </trkpt>
      <trkpt lon="18.600776" lat="-33.956299">
        <ele>308.801</ele>
        <time>2026-01-14T10:25:39.436Z</time>
      </trkpt>
      <trkpt lon="18.600938" lat="-33.955711">
        <ele>311.313</ele>
        <time>2026-01-14T10:25:40.748Z</time>
      </trkpt>
      <trkpt lon="18.601177" lat="-33.955154">
        <ele>312.856</ele>
        <time>2026-01-14T10:25:42.020Z</time>
      </trkpt>
      <trkpt lon="18.601493" lat="-33.954629">
        <ele>314.468</ele>
        <time>2026-01-14T10:25:43.284Z</time>
      </trkpt>
      <trkpt lon="18.601883" lat="-33.954142">
        <ele>316.003</ele>
        <time>2026-01-14T10:25:44.540Z</time>
      </trkpt>
      <trkpt lon="18.602359" lat="-33.953682">
        <ele>316.48</ele>
        <time>2026-01-14T10:25:45.848Z</time>
      </trkpt>
      <trkpt lon="18.602909" lat="-33.953269">
        <ele>316.34</ele>
        <time>2026-01-14T10:25:47.156Z</time>
      </trkpt>
      <trkpt lon="18.603518" lat="-33.952921">
        <ele>316.858</ele>
        <time>2026-01-14T10:25:48.456Z</time>
      </trkpt>
      <trkpt lon="18.604183" lat="-33.952642">
        <ele>318.346</ele>
        <time>2026-01-14T10:25:49.772Z</time>
      </trkpt>
      <trkpt lon="18.604861" lat="-33.952446">
        <ele>320.361</ele>
        <time>2026-01-14T10:25:51.052Z</time>
      </trkpt>
      <trkpt lon="18.607029" lat="-33.952132">
        <ele>319.443</ele>
        <time>2026-01-14T10:25:54.904Z</time>
      </trkpt>
      <trkpt lon="18.622748" lat="-33.950719">
        <ele>318.082</ele>
        <time>2026-01-14T10:26:21.472Z</time>
      </trkpt>
      <trkpt lon="18.623533" lat="-33.950689">
        <ele>317.654</ele>
        <time>2026-01-14T10:26:22.764Z</time>
      </trkpt>
      <trkpt lon="18.624298" lat="-33.950720">
        <ele>317.641</ele>
        <time>2026-01-14T10:26:24.040Z</time>
      </trkpt>
      <trkpt lon="18.625037" lat="-33.950825">
        <ele>319.54</ele>
        <time>2026-01-14T10:26:25.288Z</time>
      </trkpt>
      <trkpt lon="18.625775" lat="-33.951011">
        <ele>322.116</ele>
        <time>2026-01-14T10:26:26.584Z</time>
      </trkpt>
      <trkpt lon="18.626468" lat="-33.951263">
        <ele>323.521</ele>
        <time>2026-01-14T10:26:27.860Z</time>
      </trkpt>
      <trkpt lon="18.627117" lat="-33.951578">
        <ele>323.74</ele>
        <time>2026-01-14T10:26:29.140Z</time>
      </trkpt>
      <trkpt lon="18.627702" lat="-33.951951">
        <ele>324.056</ele>
        <time>2026-01-14T10:26:30.400Z</time>
      </trkpt>
      <trkpt lon="18.628257" lat="-33.952403">
        <ele>324.731</ele>
        <time>2026-01-14T10:26:31.720Z</time>
      </trkpt>
      <trkpt lon="18.628724" lat="-33.952891">
        <ele>326.06</ele>
        <time>2026-01-14T10:26:33.004Z</time>
      </trkpt>
      <trkpt lon="18.629105" lat="-33.953406">
        <ele>328.41</ele>
        <time>2026-01-14T10:26:34.276Z</time>
      </trkpt>
      <trkpt lon="18.629414" lat="-33.953959">
        <ele>331.76</ele>
        <time>2026-01-14T10:26:35.572Z</time>
      </trkpt>
      <trkpt lon="18.629747" lat="-33.954798">
        <ele>334.715</ele>
        <time>2026-01-14T10:26:37.472Z</time>
      </trkpt>
      <trkpt lon="18.630750" lat="-33.958606">
        <ele>330.865</ele>
        <time>2026-01-14T10:26:45.832Z</time>
      </trkpt>
      <trkpt lon="18.635970" lat="-33.972479">
        <ele>344.502</ele>
        <time>2026-01-14T10:27:16.092Z</time>
      </trkpt>
      <trkpt lon="18.640428" lat="-33.986402">
        <ele>342.587</ele>
        <time>2026-01-14T10:27:46.188Z</time>
      </trkpt>
      <trkpt lon="18.644253" lat="-34.000487">
        <ele>350.318</ele>
        <time>2026-01-14T10:28:16.576Z</time>
      </trkpt>
      <trkpt lon="18.645918" lat="-34.008887">
        <ele>358.364</ele>
        <time>2026-01-14T10:28:34.588Z</time>
      </trkpt>
      <trkpt lon="18.645960" lat="-34.009794">
        <ele>361.165</ele>
        <time>2026-01-14T10:28:36.528Z</time>
      </trkpt>
      <trkpt lon="18.645915" lat="-34.010385">
        <ele>361.001</ele>
        <time>2026-01-14T10:28:37.804Z</time>
      </trkpt>
      <trkpt lon="18.645787" lat="-34.010975">
        <ele>360.682</ele>
        <time>2026-01-14T10:28:39.088Z</time>
      </trkpt>
      <trkpt lon="18.645579" lat="-34.011543">
        <ele>359.667</ele>
        <time>2026-01-14T10:28:40.372Z</time>
      </trkpt>
      <trkpt lon="18.645296" lat="-34.012080">
        <ele>357.488</ele>
        <time>2026-01-14T10:28:41.632Z</time>
      </trkpt>
      <trkpt lon="18.644922" lat="-34.012619">
        <ele>353.039</ele>
        <time>2026-01-14T10:28:42.940Z</time>
      </trkpt>
      <trkpt lon="18.644475" lat="-34.013109">
        <ele>348.983</ele>
        <time>2026-01-14T10:28:44.236Z</time>
      </trkpt>
      <trkpt lon="18.643957" lat="-34.013559">
        <ele>345.125</ele>
        <time>2026-01-14T10:28:45.536Z</time>
      </trkpt>
      <trkpt lon="18.643389" lat="-34.013956">
        <ele>342.097</ele>
        <time>2026-01-14T10:28:46.816Z</time>
      </trkpt>
      <trkpt lon="18.642763" lat="-34.014301">
        <ele>340.918</ele>
        <time>2026-01-14T10:28:48.108Z</time>
      </trkpt>
      <trkpt lon="18.642102" lat="-34.014588">
        <ele>340.486</ele>
        <time>2026-01-14T10:28:49.404Z</time>
      </trkpt>
      <trkpt lon="18.641382" lat="-34.014824">
        <ele>340.083</ele>
        <time>2026-01-14T10:28:50.764Z</time>
      </trkpt>
      <trkpt lon="18.640321" lat="-34.015052">
        <ele>337.118</ele>
        <time>2026-01-14T10:28:52.712Z</time>
      </trkpt>
      <trkpt lon="18.639244" lat="-34.015171">
        <ele>332.072</ele>
        <time>2026-01-14T10:28:54.636Z</time>
      </trkpt>
      <trkpt lon="18.633575" lat="-34.015548">
        <ele>316.101</ele>
        <time>2026-01-14T10:29:04.892Z</time>
      </trkpt>
      <trkpt lon="18.629771" lat="-34.016253">
        <ele>303.329</ele>
        <time>2026-01-14T10:29:11.980Z</time>
      </trkpt>
      <trkpt lon="18.624357" lat="-34.017604">
        <ele>288.556</ele>
        <time>2026-01-14T10:29:22.240Z</time>
      </trkpt>
      <trkpt lon="18.623689" lat="-34.017656">
        <ele>291.009</ele>
        <time>2026-01-14T10:29:23.488Z</time>
      </trkpt>
      <trkpt lon="18.622676" lat="-34.017633">
        <ele>292.92</ele>
        <time>2026-01-14T10:29:25.416Z</time>
      </trkpt>
      <trkpt lon="18.622003" lat="-34.017546">
        <ele>290.754</ele>
        <time>2026-01-14T10:29:26.712Z</time>
      </trkpt>
      <trkpt lon="18.621352" lat="-34.017393">
        <ele>287.053</ele>
        <time>2026-01-14T10:29:27.996Z</time>
      </trkpt>
      <trkpt lon="18.620706" lat="-34.017160">
        <ele>282.665</ele>
        <time>2026-01-14T10:29:29.288Z</time>
      </trkpt>
      <trkpt lon="18.620106" lat="-34.016852">
        <ele>278.242</ele>
        <time>2026-01-14T10:29:30.584Z</time>
      </trkpt>
      <trkpt lon="18.619564" lat="-34.016482">
        <ele>272.451</ele>
        <time>2026-01-14T10:29:31.860Z</time>
      </trkpt>
      <trkpt lon="18.619055" lat="-34.016037">
        <ele>264.341</ele>
        <time>2026-01-14T10:29:33.172Z</time>
      </trkpt>
      <trkpt lon="18.618622" lat="-34.015539">
        <ele>255.446</ele>
        <time>2026-01-14T10:29:34.464Z</time>
      </trkpt>
      <trkpt lon="18.618267" lat="-34.014993">
        <ele>246.428</ele>
        <time>2026-01-14T10:29:35.744Z</time>
      </trkpt>
      <trkpt lon="18.617990" lat="-34.014401">
        <ele>237.29</ele>
        <time>2026-01-14T10:29:37.024Z</time>
      </trkpt>
      <trkpt lon="18.617797" lat="-34.013768">
        <ele>227.53</ele>
        <time>2026-01-14T10:29:38.320Z</time>
      </trkpt>
      <trkpt lon="18.617693" lat="-34.013126">
        <ele>217.719</ele>
        <time>2026-01-14T10:29:39.588Z</time>
      </trkpt>
      <trkpt lon="18.617666" lat="-34.012127">
        <ele>203.596</ele>
        <time>2026-01-14T10:29:41.508Z</time>
      </trkpt>
      <trkpt lon="18.617828" lat="-34.009445">
        <ele>185.608</ele>
        <time>2026-01-14T10:29:46.728Z</time>
      </trkpt>
      <trkpt lon="18.617669" lat="-34.008492">
        <ele>183.768</ele>
        <time>2026-01-14T10:29:48.660Z</time>
      </trkpt>
      <trkpt lon="18.617282" lat="-34.007249">
        <ele>180.679</ele>
        <time>2026-01-14T10:29:51.304Z</time>
      </trkpt>
      <trkpt lon="18.616633" lat="-34.005800">
        <ele>175.533</ele>
        <time>2026-01-14T10:29:54.548Z</time>
      </trkpt>
      <trkpt lon="18.613380" lat="-33.999722">
        <ele>155.222</ele>
        <time>2026-01-14T10:30:08.792Z</time>
      </trkpt>
      <trkpt lon="18.612217" lat="-33.997112">
        <ele>135.612</ele>
        <time>2026-01-14T10:30:14.588Z</time>
      </trkpt>
      <trkpt lon="18.610702" lat="-33.993211">
        <ele>116.801</ele>
        <time>2026-01-14T10:30:23.020Z</time>
      </trkpt>
      <trkpt lon="18.609824" lat="-33.990742">
        <ele>98.7939</ele>
        <time>2026-01-14T10:30:28.232Z</time>
      </trkpt>
      <trkpt lon="18.609628" lat="-33.990108">
        <ele>94.1344</ele>
        <time>2026-01-14T10:30:29.540Z</time>
      </trkpt>
      <trkpt lon="18.609010" lat="-33.987955">
        <ele>76.5871</ele>
        <time>2026-01-14T10:30:34.144Z</time>
      </trkpt>
      <trkpt lon="18.608221" lat="-33.985684">
        <ele>60.2675</ele>
        <time>2026-01-14T10:30:39.432Z</time>
      </trkpt>
      <trkpt lon="18.607571" lat="-33.983927">
        <ele>59.2212</ele>
        <time>2026-01-14T10:30:44.028Z</time>
      </trkpt>
      <trkpt lon="18.607246" lat="-33.983026">
        <ele>58.4602</ele>
        <time>2026-01-14T10:30:46.620Z</time>
      </trkpt>
      <trkpt lon="18.604055" lat="-33.972839">
        <ele>51.916</ele>
        <time>2026-01-14T10:31:17.176Z</time>
      </trkpt>
      <trkpt lon="18.602278" lat="-33.967089">
        <ele>55.6266</ele>
        <time>2026-01-14T10:31:34.752Z</time>
      </trkpt>
      <trkpt lon="18.602217" lat="-33.966872">
        <ele>57.4095</ele>
        <time>2026-01-14T10:31:35.404Z</time>
      </trkpt>
      <trkpt lon="18.602160" lat="-33.966653">
        <ele>60.1893</ele>
        <time>2026-01-14T10:31:36.076Z</time>
      </trkpt>
      <trkpt lon="18.602106" lat="-33.966447">
        <ele>62.5692</ele>
        <time>2026-01-14T10:31:36.704Z</time>
      </trkpt>
      <trkpt lon="18.601529" lat="-33.964308">
        <ele>58.593</ele>
        <time>2026-01-14T10:31:43.116Z</time>
      </trkpt>
      <trkpt lon="18.601098" lat="-33.963023">
        <ele>57.8896</ele>
        <time>2026-01-14T10:31:46.984Z</time>
      </trkpt>
      <trkpt lon="18.601031" lat="-33.962808">
        <ele>59.1534</ele>
        <time>2026-01-14T10:31:47.620Z</time>
      </trkpt>
      <trkpt lon="18.600905" lat="-33.962396">
        <ele>67.6069</ele>
        <time>2026-01-14T10:31:48.888Z</time>
      </trkpt>
      <trkpt lon="18.600789" lat="-33.962035">
        <ele>86.4273</ele>
        <time>2026-01-14T10:31:50.192Z</time>
      </trkpt>
      <trkpt lon="18.600695" lat="-33.961762">
        <ele>109.024</ele>
        <time>2026-01-14T10:31:51.464Z</time>
      </trkpt>
      <trkpt lon="18.600611" lat="-33.961546">
        <ele>129.54</ele>
        <time>2026-01-14T10:31:52.732Z</time>
      </trkpt>
      <trkpt lon="18.600396" lat="-33.960938">
        <ele>152.752</ele>
        <time>2026-01-14T10:31:55.948Z</time>
      </trkpt>
      <trkpt lon="18.600115" lat="-33.960088">
        <ele>174.449</ele>
        <time>2026-01-14T10:31:59.896Z</time>
      </trkpt>
      <trkpt lon="18.599841" lat="-33.959310">
        <ele>196.887</ele>
        <time>2026-01-14T10:32:03.132Z</time>
      </trkpt>
      <trkpt lon="18.599624" lat="-33.958718">
        <ele>220.953</ele>
        <time>2026-01-14T10:32:05.708Z</time>
      </trkpt>
      <trkpt lon="18.599371" lat="-33.957993">
        <ele>249.057</ele>
        <time>2026-01-14T10:32:08.924Z</time>
      </trkpt>
      <trkpt lon="18.599012" lat="-33.956796">
        <ele>278.129</ele>
        <time>2026-01-14T10:32:13.440Z</time>
      </trkpt>
      <trkpt lon="18.598917" lat="-33.956418">
        <ele>289.707</ele>
        <time>2026-01-14T10:32:14.752Z</time>
      </trkpt>
      <trkpt lon="18.598864" lat="-33.956029">
        <ele>301.736</ele>
        <time>2026-01-14T10:32:16.024Z</time>
      </trkpt>
      <trkpt lon="18.598893" lat="-33.955618">
        <ele>313.436</ele>
        <time>2026-01-14T10:32:17.296Z</time>
      </trkpt>
      <trkpt lon="18.599002" lat="-33.955191">
        <ele>318.822</ele>
        <time>2026-01-14T10:32:18.580Z</time>
      </trkpt>
      <trkpt lon="18.599101" lat="-33.954962">
        <ele>319.737</ele>
        <time>2026-01-14T10:32:19.228Z</time>
      </trkpt>
      <trkpt lon="18.599231" lat="-33.954741">
        <ele>320.18</ele>
        <time>2026-01-14T10:32:19.864Z</time>
      </trkpt>
      <trkpt lon="18.599399" lat="-33.954518">
        <ele>320.267</ele>
        <time>2026-01-14T10:32:20.520Z</time>
      </trkpt>
      <trkpt lon="18.599609" lat="-33.954301">
        <ele>320.266</ele>
        <time>2026-01-14T10:32:21.188Z</time>
      </trkpt>
      <trkpt lon="18.599855" lat="-33.954097">
        <ele>320.581</ele>
        <time>2026-01-14T10:32:21.852Z</time>
      </trkpt>
      <trkpt lon="18.600123" lat="-33.953920">
        <ele>321.271</ele>
        <time>2026-01-14T10:32:22.492Z</time>
      </trkpt>
      <trkpt lon="18.600414" lat="-33.953764">
        <ele>322.386</ele>
        <time>2026-01-14T10:32:23.140Z</time>
      </trkpt>
      <trkpt lon="18.600724" lat="-33.953628">
        <ele>323.729</ele>
        <time>2026-01-14T10:32:23.800Z</time>
      </trkpt>
      <trkpt lon="18.601383" lat="-33.953426">
        <ele>327.966</ele>
        <time>2026-01-14T10:32:25.096Z</time>
      </trkpt>
      <trkpt lon="18.602074" lat="-33.953301">
        <ele>332.478</ele>
        <time>2026-01-14T10:32:26.408Z</time>
      </trkpt>
      <trkpt lon="18.610879" lat="-33.952844">
        <ele>352.914</ele>
        <time>2026-01-14T10:32:41.868Z</time>
      </trkpt>
      <trkpt lon="18.627631" lat="-33.951368">
        <ele>358.398</ele>
        <time>2026-01-14T10:33:10.264Z</time>
      </trkpt>
      <trkpt lon="18.628399" lat="-33.951389">
        <ele>360.97</ele>
        <time>2026-01-14T10:33:11.568Z</time>
      </trkpt>
      <trkpt lon="18.628820" lat="-33.951448">
        <ele>363.695</ele>
        <time>2026-01-14T10:33:12.284Z</time>
      </trkpt>
      <trkpt lon="18.629182" lat="-33.951531">
        <ele>366.661</ele>
        <time>2026-01-14T10:33:12.928Z</time>
      </trkpt>
      <trkpt lon="18.629857" lat="-33.951768">
        <ele>371.866</ele>
        <time>2026-01-14T10:33:14.224Z</time>
      </trkpt>
      <trkpt lon="18.630483" lat="-33.952081">
        <ele>371.427</ele>
        <time>2026-01-14T10:33:15.516Z</time>
      </trkpt>
      <trkpt lon="18.630778" lat="-33.952276">
        <ele>369.877</ele>
        <time>2026-01-14T10:33:16.184Z</time>
      </trkpt>
      <trkpt lon="18.631044" lat="-33.952495">
        <ele>368.602</ele>
        <time>2026-01-14T10:33:16.840Z</time>
      </trkpt>
      <trkpt lon="18.631475" lat="-33.952975">
        <ele>365.761</ele>
        <time>2026-01-14T10:33:18.108Z</time>
      </trkpt>
      <trkpt lon="18.631648" lat="-33.953240">
        <ele>363.828</ele>
        <time>2026-01-14T10:33:18.752Z</time>
      </trkpt>
      <trkpt lon="18.631794" lat="-33.953528">
        <ele>361.816</ele>
        <time>2026-01-14T10:33:19.416Z</time>
      </trkpt>
      <trkpt lon="18.631905" lat="-33.953834">
        <ele>359.964</ele>
        <time>2026-01-14T10:33:20.088Z</time>
      </trkpt>
      <trkpt lon="18.632023" lat="-33.954439">
        <ele>356.478</ele>
        <time>2026-01-14T10:33:21.376Z</time>
      </trkpt>
      <trkpt lon="18.632051" lat="-33.955046">
        <ele>351.227</ele>
        <time>2026-01-14T10:33:22.648Z</time>
      </trkpt>
      <trkpt lon="18.631922" lat="-33.957819">
        <ele>345.544</ele>
        <time>2026-01-14T10:33:28.440Z</time>
      </trkpt>
      <trkpt lon="18.631992" lat="-33.958442">
        <ele>341.909</ele>
        <time>2026-01-14T10:33:29.740Z</time>
      </trkpt>
      <trkpt lon="18.634499" lat="-33.972757">
        <ele>328.468</ele>
        <time>2026-01-14T10:34:00.112Z</time>
      </trkpt>
      <trkpt lon="18.636702" lat="-33.986851">
        <ele>335.814</ele>
        <time>2026-01-14T10:34:30.332Z</time>
      </trkpt>
      <trkpt lon="18.639273" lat="-34.000977">
        <ele>346.578</ele>
        <time>2026-01-14T10:35:00.584Z</time>
      </trkpt>
      <trkpt lon="18.640926" lat="-34.009638">
        <ele>358.227</ele>
        <time>2026-01-14T10:35:19.344Z</time>
      </trkpt>
      <trkpt lon="18.641914" lat="-34.012287">
        <ele>356.425</ele>
        <time>2026-01-14T10:35:25.120Z</time>
      </trkpt>
      <trkpt lon="18.647792" lat="-34.025821">
        <ele>373.314</ele>
        <time>2026-01-14T10:35:55.264Z</time>
      </trkpt>
      <trkpt lon="18.649154" lat="-34.028363">
        <ele>375.837</ele>
        <time>2026-01-14T10:36:01.212Z</time>
      </trkpt>
      <trkpt lon="18.649274" lat="-34.028658">
        <ele>377.556</ele>
        <time>2026-01-14T10:36:01.856Z</time>
      </trkpt>
      <trkpt lon="18.649361" lat="-34.028937">
        <ele>379.807</ele>
        <time>2026-01-14T10:36:02.484Z</time>
      </trkpt>
      <trkpt lon="18.649449" lat="-34.029501">
        <ele>386.242</ele>
        <time>2026-01-14T10:36:03.756Z</time>
      </trkpt>
      <trkpt lon="18.649437" lat="-34.030051">
        <ele>390.927</ele>
        <time>2026-01-14T10:36:05.032Z</time>
      </trkpt>
      <trkpt lon="18.649324" lat="-34.030602">
        <ele>393.108</ele>
        <time>2026-01-14T10:36:06.336Z</time>
      </trkpt>
      <trkpt lon="18.649234" lat="-34.030864">
        <ele>393.428</ele>
        <time>2026-01-14T10:36:06.972Z</time>
      </trkpt>
      <trkpt lon="18.648971" lat="-34.031372">
        <ele>395.538</ele>
        <time>2026-01-14T10:36:08.288Z</time>
      </trkpt>
      <trkpt lon="18.648633" lat="-34.031827">
        <ele>398.225</ele>
        <time>2026-01-14T10:36:09.572Z</time>
      </trkpt>
      <trkpt lon="18.648232" lat="-34.032244">
        <ele>399.552</ele>
        <time>2026-01-14T10:36:10.848Z</time>
      </trkpt>
      <trkpt lon="18.647777" lat="-34.032621">
        <ele>399.542</ele>
        <time>2026-01-14T10:36:12.132Z</time>
      </trkpt>
      <trkpt lon="18.647263" lat="-34.032965">
        <ele>399.098</ele>
        <time>2026-01-14T10:36:13.444Z</time>
      </trkpt>
      <trkpt lon="18.646450" lat="-34.033395">
        <ele>398.961</ele>
        <time>2026-01-14T10:36:15.348Z</time>
      </trkpt>
      <trkpt lon="18.640844" lat="-34.035594">
        <ele>369.575</ele>
        <time>2026-01-14T10:36:26.920Z</time>
      </trkpt>
      <trkpt lon="18.635375" lat="-34.037685">
        <ele>364.95</ele>
        <time>2026-01-14T10:36:37.864Z</time>
      </trkpt>
      <trkpt lon="18.634718" lat="-34.037838">
        <ele>364.867</ele>
        <time>2026-01-14T10:36:39.160Z</time>
      </trkpt>
      <trkpt lon="18.634030" lat="-34.037920">
        <ele>364.264</ele>
        <time>2026-01-14T10:36:40.468Z</time>
      </trkpt>
      <trkpt lon="18.633353" lat="-34.037923">
        <ele>362.643</ele>
        <time>2026-01-14T10:36:41.752Z</time>
      </trkpt>
      <trkpt lon="18.632688" lat="-34.037861">
        <ele>360.162</ele>
        <time>2026-01-14T10:36:43.020Z</time>
      </trkpt>
      <trkpt lon="18.632023" lat="-34.037739">
        <ele>357.085</ele>
        <time>2026-01-14T10:36:44.300Z</time>
      </trkpt>
      <trkpt lon="18.631047" lat="-34.037469">
        <ele>351.7</ele>
        <time>2026-01-14T10:36:46.224Z</time>
      </trkpt>
      <trkpt lon="18.630082" lat="-34.037095">
        <ele>345.297</ele>
        <time>2026-01-14T10:36:48.172Z</time>
      </trkpt>
      <trkpt lon="18.628891" lat="-34.036479">
        <ele>340.128</ele>
        <time>2026-01-14T10:36:50.728Z</time>
      </trkpt>
      <trkpt lon="18.627764" lat="-34.035758">
        <ele>334.655</ele>
        <time>2026-01-14T10:36:53.272Z</time>
      </trkpt>
      <trkpt lon="18.626726" lat="-34.034935">
        <ele>329.444</ele>
        <time>2026-01-14T10:36:55.832Z</time>
      </trkpt>
      <trkpt lon="18.626016" lat="-34.034235">
        <ele>324.627</ele>
        <time>2026-01-14T10:36:57.780Z</time>
      </trkpt>
      <trkpt lon="18.625183" lat="-34.033218">
        <ele>317.561</ele>
        <time>2026-01-14T10:37:00.392Z</time>
      </trkpt>
      <trkpt lon="18.624087" lat="-34.031573">
        <ele>306.937</ele>
        <time>2026-01-14T10:37:04.264Z</time>
      </trkpt>
      <trkpt lon="18.622280" lat="-34.028246">
        <ele>291.58</ele>
        <time>2026-01-14T10:37:11.468Z</time>
      </trkpt>
      <trkpt lon="18.620205" lat="-34.023867">
        <ele>291.197</ele>
        <time>2026-01-14T10:37:19.768Z</time>
      </trkpt>
      <trkpt lon="18.618262" lat="-34.018970">
        <ele>264.574</ele>
        <time>2026-01-14T10:37:28.208Z</time>
      </trkpt>
      <trkpt lon="18.616203" lat="-34.013083">
        <ele>239.681</ele>
        <time>2026-01-14T10:37:37.860Z</time>
      </trkpt>
      <trkpt lon="18.614845" lat="-34.008653">
        <ele>213.766</ele>
        <time>2026-01-14T10:37:45.008Z</time>
      </trkpt>
      <trkpt lon="18.614053" lat="-34.005799">
        <ele>191.253</ele>
        <time>2026-01-14T10:37:49.520Z</time>
      </trkpt>
      <trkpt lon="18.612782" lat="-34.001336">
        <ele>168.666</ele>
        <time>2026-01-14T10:37:56.584Z</time>
      </trkpt>
      <trkpt lon="18.611974" lat="-33.998447">
        <ele>147.462</ele>
        <time>2026-01-14T10:38:01.120Z</time>
      </trkpt>
      <trkpt lon="18.611183" lat="-33.995559">
        <ele>126.663</ele>
        <time>2026-01-14T10:38:05.636Z</time>
      </trkpt>
      <trkpt lon="18.610470" lat="-33.993047">
        <ele>106.606</ele>
        <time>2026-01-14T10:38:09.560Z</time>
      </trkpt>
      <trkpt lon="18.609367" lat="-33.989287">
        <ele>88.4031</ele>
        <time>2026-01-14T10:38:15.536Z</time>
      </trkpt>
      <trkpt lon="18.609016" lat="-33.988145">
        <ele>81.7553</ele>
        <time>2026-01-14T10:38:17.532Z</time>
      </trkpt>
      <trkpt lon="18.608800" lat="-33.987478">
        <ele>82.9023</ele>
        <time>2026-01-14T10:38:18.856Z</time>
      </trkpt>
      <trkpt lon="18.608611" lat="-33.986906">
        <ele>85.33</ele>
        <time>2026-01-14T10:38:20.208Z</time>
      </trkpt>
      <trkpt lon="18.608453" lat="-33.986417">
        <ele>83.8757</ele>
        <time>2026-01-14T10:38:21.536Z</time>
      </trkpt>
      <trkpt lon="18.608170" lat="-33.985605">
        <ele>73.1538</ele>
        <time>2026-01-14T10:38:24.148Z</time>
      </trkpt>
      <trkpt lon="18.608016" lat="-33.985255">
        <ele>67.8042</ele>
        <time>2026-01-14T10:38:25.448Z</time>
      </trkpt>
      <trkpt lon="18.607850" lat="-33.984913">
        <ele>64.2981</ele>
        <time>2026-01-14T10:38:26.760Z</time>
      </trkpt>
      <trkpt lon="18.607724" lat="-33.984563">
        <ele>62.5854</ele>
        <time>2026-01-14T10:38:28.044Z</time>
      </trkpt>
      <trkpt lon="18.607355" lat="-33.983163">
        <ele>52.9156</ele>
        <time>2026-01-14T10:38:33.276Z</time>
      </trkpt>
      <trkpt lon="18.607217" lat="-33.982683">
        <ele>51.227</ele>
        <time>2026-01-14T10:38:35.184Z</time>
      </trkpt>
      <trkpt lon="18.607176" lat="-33.982526">
        <ele>51.2089</ele>
        <time>2026-01-14T10:38:35.828Z</time>
      </trkpt>
      <trkpt lon="18.607018" lat="-33.981933">
        <ele>47.7122</ele>
        <time>2026-01-14T10:38:38.516Z</time>
      </trkpt>
      <trkpt lon="18.606664" lat="-33.980742">
        <ele>48.3435</ele>
        <time>2026-01-14T10:38:44.392Z</time>
      </trkpt>
      <trkpt lon="18.606558" lat="-33.980379">
        <ele>46.651</ele>
        <time>2026-01-14T10:38:45.660Z</time>
      </trkpt>
      <trkpt lon="18.606295" lat="-33.979473">
        <ele>54.2264</ele>
        <time>2026-01-14T10:38:48.312Z</time>
      </trkpt>
      <trkpt lon="18.606076" lat="-33.978752">
        <ele>72.1383</ele>
        <time>2026-01-14T10:38:50.280Z</time>
      </trkpt>
      <trkpt lon="18.605938" lat="-33.978317">
        <ele>95.5539</ele>
        <time>2026-01-14T10:38:51.584Z</time>
      </trkpt>
      <trkpt lon="18.605827" lat="-33.977954">
        <ele>123.171</ele>
        <time>2026-01-14T10:38:52.840Z</time>
      </trkpt>
      <trkpt lon="18.605733" lat="-33.977627">
        <ele>151.352</ele>
        <time>2026-01-14T10:38:54.124Z</time>
      </trkpt>
      <trkpt lon="18.605652" lat="-33.977320">
        <ele>176.722</ele>
        <time>2026-01-14T10:38:55.416Z</time>
      </trkpt>
      <trkpt lon="18.605538" lat="-33.976856">
        <ele>206.402</ele>
        <time>2026-01-14T10:38:57.332Z</time>
      </trkpt>
      <trkpt lon="18.605411" lat="-33.976375">
        <ele>231.092</ele>
        <time>2026-01-14T10:38:59.264Z</time>
      </trkpt>
      <trkpt lon="18.605212" lat="-33.975728">
        <ele>261.49</ele>
        <time>2026-01-14T10:39:01.828Z</time>
      </trkpt>
      <trkpt lon="18.604996" lat="-33.975059">
        <ele>290.692</ele>
        <time>2026-01-14T10:39:04.372Z</time>
      </trkpt>
      <trkpt lon="18.604780" lat="-33.974353">
        <ele>320.358</ele>
        <time>2026-01-14T10:39:06.976Z</time>
      </trkpt>
      <trkpt lon="18.604597" lat="-33.973743">
        <ele>316.702</ele>
        <time>2026-01-14T10:39:08.900Z</time>
      </trkpt>
      <trkpt lon="18.604205" lat="-33.972521">
        <ele>327.915</ele>
        <time>2026-01-14T10:39:12.116Z</time>
      </trkpt>
      <trkpt lon="18.603019" lat="-33.969289">
        <ele>336.175</ele>
        <time>2026-01-14T10:39:19.832Z</time>
      </trkpt>
      <trkpt lon="18.601087" lat="-33.964522">
        <ele>350.935</ele>
        <time>2026-01-14T10:39:31.460Z</time>
      </trkpt>
      <trkpt lon="18.598417" lat="-33.954448">
        <ele>360.513</ele>
        <time>2026-01-14T10:39:55.820Z</time>
      </trkpt>
      <trkpt lon="18.598369" lat="-33.953911">
        <ele>363.854</ele>
        <time>2026-01-14T10:39:57.128Z</time>
      </trkpt>
      <trkpt lon="18.598403" lat="-33.953395">
        <ele>368.026</ele>
        <time>2026-01-14T10:39:58.404Z</time>
      </trkpt>
      <trkpt lon="18.598515" lat="-33.952858">
        <ele>370.514</ele>
        <time>2026-01-14T10:39:59.736Z</time>
      </trkpt>
      <trkpt lon="18.598696" lat="-33.952360">
        <ele>371.657</ele>
        <time>2026-01-14T10:40:01.012Z</time>
      </trkpt>
      <trkpt lon="18.598956" lat="-33.951871">
        <ele>372.27</ele>
        <time>2026-01-14T10:40:02.304Z</time>
      </trkpt>
      <trkpt lon="18.599279" lat="-33.951418">
        <ele>372.738</ele>
        <time>2026-01-14T10:40:03.572Z</time>
      </trkpt>
      <trkpt lon="18.599662" lat="-33.950996">
        <ele>373.553</ele>
        <time>2026-01-14T10:40:04.836Z</time>
      </trkpt>
      <trkpt lon="18.600105" lat="-33.950606">
        <ele>374.83</ele>
        <time>2026-01-14T10:40:06.108Z</time>
      </trkpt>
      <trkpt lon="18.600598" lat="-33.950260">
        <ele>377.434</ele>
        <time>2026-01-14T10:40:07.392Z</time>
      </trkpt>
      <trkpt lon="18.601410" lat="-33.949809">
        <ele>379.18</ele>
        <time>2026-01-14T10:40:09.332Z</time>
      </trkpt>
      <trkpt lon="18.602292" lat="-33.949421">
        <ele>375.388</ele>
        <time>2026-01-14T10:40:11.280Z</time>
      </trkpt>
      <trkpt lon="18.606715" lat="-33.947843">
        <ele>371.743</ele>
        <time>2026-01-14T10:40:20.280Z</time>
      </trkpt>
      <trkpt lon="18.613119" lat="-33.945927">
        <ele>393.361</ele>
        <time>2026-01-14T10:40:33.560Z</time>
      </trkpt>
      <trkpt lon="18.614707" lat="-33.945528">
        <ele>396.504</ele>
        <time>2026-01-14T10:40:36.828Z</time>
      </trkpt>
      <trkpt lon="18.620410" lat="-33.944639">
        <ele>400.232</ele>
        <time>2026-01-14T10:40:50.148Z</time>
      </trkpt>
      <trkpt lon="18.621108" lat="-33.944590">
        <ele>399.189</ele>
        <time>2026-01-14T10:40:51.492Z</time>
      </trkpt>
      <trkpt lon="18.621804" lat="-33.944606">
        <ele>398.209</ele>
        <time>2026-01-14T10:40:52.804Z</time>
      </trkpt>
      <trkpt lon="18.622509" lat="-33.944691">
        <ele>397.319</ele>
        <time>2026-01-14T10:40:54.144Z</time>
      </trkpt>
      <trkpt lon="18.623196" lat="-33.944847">
        <ele>396.767</ele>
        <time>2026-01-14T10:40:55.492Z</time>
      </trkpt>
      <trkpt lon="18.623853" lat="-33.945071">
        <ele>396.492</ele>
        <time>2026-01-14T10:40:56.836Z</time>
      </trkpt>
      <trkpt lon="18.624474" lat="-33.945359">
        <ele>396.213</ele>
        <time>2026-01-14T10:40:58.176Z</time>
      </trkpt>
      <trkpt lon="18.625046" lat="-33.945702">
        <ele>395.369</ele>
        <time>2026-01-14T10:40:59.512Z</time>
      </trkpt>
      <trkpt lon="18.625564" lat="-33.946092">
        <ele>393.281</ele>
        <time>2026-01-14T10:41:00.832Z</time>
      </trkpt>
      <trkpt lon="18.626031" lat="-33.946521">
        <ele>389.199</ele>
        <time>2026-01-14T10:41:02.144Z</time>
      </trkpt>
      <trkpt lon="18.626457" lat="-33.947001">
        <ele>384.253</ele>
        <time>2026-01-14T10:41:03.508Z</time>
      </trkpt>
      <trkpt lon="18.627066" lat="-33.947896">
        <ele>377.645</ele>
        <time>2026-01-14T10:41:07.860Z</time>
      </trkpt>
      <trkpt lon="18.627722" lat="-33.949271">
        <ele>368.759</ele>
        <time>2026-01-14T10:41:11.840Z</time>
      </trkpt>
      <trkpt lon="18.628415" lat="-33.951348">
        <ele>366.595</ele>
        <time>2026-01-14T10:41:16.780Z</time>
      </trkpt>
      <trkpt lon="18.631255" lat="-33.962816">
        <ele>379.935</ele>
        <time>2026-01-14T10:41:44.240Z</time>
      </trkpt>
      <trkpt lon="18.631555" lat="-33.966059">
        <ele>369.596</ele>
        <time>2026-01-14T10:41:51.572Z</time>
      </trkpt>
      <trkpt lon="18.632391" lat="-33.979379">
        <ele>362.155</ele>
        <time>2026-01-14T10:42:21.760Z</time>
      </trkpt>
      <trkpt lon="18.632331" lat="-33.989217">
        <ele>358.705</ele>
        <time>2026-01-14T10:42:44.480Z</time>
      </trkpt>
      <trkpt lon="18.632229" lat="-33.989791">
        <ele>360.173</ele>
        <time>2026-01-14T10:42:45.820Z</time>
      </trkpt>
      <trkpt lon="18.632041" lat="-33.990316">
        <ele>362.329</ele>
        <time>2026-01-14T10:42:47.116Z</time>
      </trkpt>
      <trkpt lon="18.631767" lat="-33.990818">
        <ele>363.991</ele>
        <time>2026-01-14T10:42:48.416Z</time>
      </trkpt>
      <trkpt lon="18.631401" lat="-33.991300">
        <ele>366.562</ele>
        <time>2026-01-14T10:42:49.752Z</time>
      </trkpt>
      <trkpt lon="18.630966" lat="-33.991746">
        <ele>370.121</ele>
        <time>2026-01-14T10:42:51.096Z</time>
      </trkpt>
      <trkpt lon="18.630473" lat="-33.992154">
        <ele>372.557</ele>
        <time>2026-01-14T10:42:52.460Z</time>
      </trkpt>
      <trkpt lon="18.629933" lat="-33.992518">
        <ele>373.873</ele>
        <time>2026-01-14T10:42:53.796Z</time>
      </trkpt>
      <trkpt lon="18.629020" lat="-33.993006">
        <ele>375.172</ele>
        <time>2026-01-14T10:42:55.868Z</time>
      </trkpt>
      <trkpt lon="18.627152" lat="-33.993773">
        <ele>381.016</ele>
        <time>2026-01-14T10:42:59.868Z</time>
      </trkpt>
      <trkpt lon="18.617999" lat="-33.996623">
        <ele>405.131</ele>
        <time>2026-01-14T10:43:19.404Z</time>
      </trkpt>
      <trkpt lon="18.616709" lat="-33.996979">
        <ele>408.34</ele>
        <time>2026-01-14T10:43:22.032Z</time>
      </trkpt>
      <trkpt lon="18.608956" lat="-33.999774">
        <ele>438.13</ele>
        <time>2026-01-14T10:43:38.716Z</time>
      </trkpt>
      <trkpt lon="18.607665" lat="-34.000049">
        <ele>438.346</ele>
        <time>2026-01-14T10:43:41.368Z</time>
      </trkpt>
      <trkpt lon="18.605002" lat="-34.000352">
        <ele>438.349</ele>
        <time>2026-01-14T10:43:46.644Z</time>
      </trkpt>
      <trkpt lon="18.602965" lat="-34.000435">
        <ele>442.3</ele>
        <time>2026-01-14T10:43:50.600Z</time>
      </trkpt>
      <trkpt lon="18.598886" lat="-34.000188">
        <ele>457.095</ele>
        <time>2026-01-14T10:43:58.640Z</time>
      </trkpt>
      <trkpt lon="18.597573" lat="-34.000037">
        <ele>462.143</ele>
        <time>2026-01-14T10:44:01.296Z</time>
      </trkpt>
      <trkpt lon="18.596628" lat="-33.999825">
        <ele>462.262</ele>
        <time>2026-01-14T10:44:03.260Z</time>
      </trkpt>
      <trkpt lon="18.595691" lat="-33.999519">
        <ele>463.274</ele>
        <time>2026-01-14T10:44:05.268Z</time>
      </trkpt>
      <trkpt lon="18.594790" lat="-33.999144">
        <ele>463.242</ele>
        <time>2026-01-14T10:44:07.240Z</time>
      </trkpt>
      <trkpt lon="18.593641" lat="-33.998534">
        <ele>461.416</ele>
        <time>2026-01-14T10:44:09.888Z</time>
      </trkpt>
      <trkpt lon="18.591702" lat="-33.997213">
        <ele>461.454</ele>
        <time>2026-01-14T10:44:14.688Z</time>
      </trkpt>
      <trkpt lon="18.588552" lat="-33.995071">
        <ele>472.555</ele>
        <time>2026-01-14T10:44:22.672Z</time>
      </trkpt>
      <trkpt lon="18.587754" lat="-33.994668">
        <ele>472.496</ele>
        <time>2026-01-14T10:44:24.572Z</time>
      </trkpt>
      <trkpt lon="18.587156" lat="-33.994435">
        <ele>470.891</ele>
        <time>2026-01-14T10:44:25.912Z</time>
      </trkpt>
      <trkpt lon="18.586219" lat="-33.994162">
        <ele>469.758</ele>
        <time>2026-01-14T10:44:27.908Z</time>
      </trkpt>
      <trkpt lon="18.584924" lat="-33.993909">
        <ele>469.513</ele>
        <time>2026-01-14T10:44:30.540Z</time>
      </trkpt>
      <trkpt lon="18.583236" lat="-33.993724">
        <ele>468.838</ele>
        <time>2026-01-14T10:44:33.884Z</time>
      </trkpt>
      <trkpt lon="18.572499" lat="-33.993328">
        <ele>485.479</ele>
        <time>2026-01-14T10:44:55.168Z</time>
      </trkpt>
      <trkpt lon="18.569094" lat="-33.993492">
        <ele>481.069</ele>
        <time>2026-01-14T10:45:01.868Z</time>
      </trkpt>
      <trkpt lon="18.562679" lat="-33.994393">
        <ele>487.398</ele>
        <time>2026-01-14T10:45:14.496Z</time>
      </trkpt>
      <trkpt lon="18.547834" lat="-33.997090">
        <ele>493.042</ele>
        <time>2026-01-14T10:45:44.528Z</time>
      </trkpt>
      <trkpt lon="18.538277" lat="-33.998927">
        <ele>499.496</ele>
        <time>2026-01-14T10:46:03.676Z</time>
      </trkpt>
      <trkpt lon="18.529027" lat="-34.000954">
        <ele>506.909</ele>
        <time>2026-01-14T10:46:22.356Z</time>
      </trkpt>
      <trkpt lon="18.525696" lat="-34.001317">
        <ele>513.761</ele>
        <time>2026-01-14T10:46:28.936Z</time>
      </trkpt>
      <trkpt lon="18.521599" lat="-34.001435">
        <ele>521.085</ele>
        <time>2026-01-14T10:46:37.000Z</time>
      </trkpt>
      <trkpt lon="18.508323" lat="-34.001028">
        <ele>561.097</ele>
        <time>2026-01-14T10:47:03.020Z</time>
      </trkpt>
      <trkpt lon="18.492956" lat="-33.999989">
        <ele>579.949</ele>
        <time>2026-01-14T10:47:33.236Z</time>
      </trkpt>
      <trkpt lon="18.485861" lat="-34.000253">
        <ele>581.26</ele>
        <time>2026-01-14T10:47:47.072Z</time>
      </trkpt>
      <trkpt lon="18.480402" lat="-34.000818">
        <ele>578.299</ele>
        <time>2026-01-14T10:47:57.808Z</time>
      </trkpt>
      <trkpt lon="18.466914" lat="-34.002976">
        <ele>580.422</ele>
        <time>2026-01-14T10:48:24.588Z</time>
      </trkpt>
      <trkpt lon="18.451329" lat="-34.003736">
        <ele>580.249</ele>
        <time>2026-01-14T10:48:54.852Z</time>
      </trkpt>
      <trkpt lon="18.443580" lat="-34.004676">
        <ele>586.574</ele>
        <time>2026-01-14T10:49:10.092Z</time>
      </trkpt>
      <trkpt lon="18.433330" lat="-34.007059">
        <ele>589.181</ele>
        <time>2026-01-14T10:49:30.752Z</time>
      </trkpt>
      <trkpt lon="18.426853" lat="-34.008639">
        <ele>589.041</ele>
        <time>2026-01-14T10:49:43.952Z</time>
      </trkpt>
      <trkpt lon="18.415234" lat="-34.010208">
        <ele>594.373</ele>
        <time>2026-01-14T10:50:06.732Z</time>
      </trkpt>
      <trkpt lon="18.408742" lat="-34.010806">
        <ele>594.204</ele>
        <time>2026-01-14T10:50:19.508Z</time>
      </trkpt>
      <trkpt lon="18.407689" lat="-34.010782">
        <ele>592.848</ele>
        <time>2026-01-14T10:50:21.536Z</time>
      </trkpt>
      <trkpt lon="18.406630" lat="-34.010673">
        <ele>589.542</ele>
        <time>2026-01-14T10:50:23.584Z</time>
      </trkpt>
      <trkpt lon="18.405602" lat="-34.010464">
        <ele>584.856</ele>
        <time>2026-01-14T10:50:25.580Z</time>
      </trkpt>
      <trkpt lon="18.404901" lat="-34.010250">
        <ele>581.938</ele>
        <time>2026-01-14T10:50:26.924Z</time>
      </trkpt>
      <trkpt lon="18.404209" lat="-34.009971">
        <ele>580.065</ele>
        <time>2026-01-14T10:50:28.284Z</time>
      </trkpt>
      <trkpt lon="18.403548" lat="-34.009632">
        <ele>579.606</ele>
        <time>2026-01-14T10:50:29.632Z</time>
      </trkpt>
      <trkpt lon="18.402928" lat="-34.009232">
        <ele>581.21</ele>
        <time>2026-01-14T10:50:30.960Z</time>
      </trkpt>
      <trkpt lon="18.402353" lat="-34.008767">
        <ele>584.822</ele>
        <time>2026-01-14T10:50:32.324Z</time>
      </trkpt>
      <trkpt lon="18.401857" lat="-34.008257">
        <ele>590.171</ele>
        <time>2026-01-14T10:50:33.648Z</time>
      </trkpt>
      <trkpt lon="18.401434" lat="-34.007693">
        <ele>597.059</ele>
        <time>2026-01-14T10:50:34.996Z</time>
      </trkpt>
      <trkpt lon="18.401113" lat="-34.007107">
        <ele>604.506</ele>
        <time>2026-01-14T10:50:36.300Z</time>
      </trkpt>
      <trkpt lon="18.400877" lat="-34.006444">
        <ele>612.907</ele>
        <time>2026-01-14T10:50:37.700Z</time>
      </trkpt>
      <trkpt lon="18.400755" lat="-34.005796">
        <ele>621.698</ele>
        <time>2026-01-14T10:50:39.060Z</time>
      </trkpt>
      <trkpt lon="18.400719" lat="-34.005145">
        <ele>631.997</ele>
        <time>2026-01-14T10:50:40.404Z</time>
      </trkpt>
      <trkpt lon="18.400790" lat="-34.004170">
        <ele>651.36</ele>
        <time>2026-01-14T10:50:42.468Z</time>
      </trkpt>
      <trkpt lon="18.401059" lat="-34.002695">
        <ele>689.87</ele>
        <time>2026-01-14T10:50:45.804Z</time>
      </trkpt>
      <trkpt lon="18.401261" lat="-34.001596">
        <ele>722.341</ele>
        <time>2026-01-14T10:50:48.436Z</time>
      </trkpt>
      <trkpt lon="18.401416" lat="-34.000497">
        <ele>754.328</ele>
        <time>2026-01-14T10:50:51.184Z</time>
      </trkpt>
      <trkpt lon="18.401516" lat="-33.999185">
        <ele>787.455</ele>
        <time>2026-01-14T10:50:54.520Z</time>
      </trkpt>
      <trkpt lon="18.401489" lat="-33.998146">
        <ele>807.374</ele>
        <time>2026-01-14T10:50:57.128Z</time>
      </trkpt>
      <trkpt lon="18.401326" lat="-33.997054">
        <ele>821.949</ele>
        <time>2026-01-14T10:50:59.804Z</time>
      </trkpt>
      <trkpt lon="18.400631" lat="-33.993532">
        <ele>858.924</ele>
        <time>2026-01-14T10:51:07.908Z</time>
      </trkpt>
      <trkpt lon="18.400547" lat="-33.992032">
        <ele>879.819</ele>
        <time>2026-01-14T10:51:11.216Z</time>
      </trkpt>
      <trkpt lon="18.400704" lat="-33.989668">
        <ele>918.808</ele>
        <time>2026-01-14T10:51:16.552Z</time>
      </trkpt>
      <trkpt lon="18.400755" lat="-33.988248">
        <ele>943.856</ele>
        <time>2026-01-14T10:51:19.872Z</time>
      </trkpt>
      <trkpt lon="18.400603" lat="-33.986827">
        <ele>966.479</ele>
        <time>2026-01-14T10:51:23.240Z</time>
      </trkpt>
      <trkpt lon="18.400161" lat="-33.984873">
        <ele>993.054</ele>
        <time>2026-01-14T10:51:27.888Z</time>
      </trkpt>
      <trkpt lon="18.399427" lat="-33.982321">
        <ele>1024.87</ele>
        <time>2026-01-14T10:51:33.892Z</time>
      </trkpt>
      <trkpt lon="18.398811" lat="-33.980012">
        <ele>1056.11</ele>
        <time>2026-01-14T10:51:39.236Z</time>
      </trkpt>
      <trkpt lon="18.398021" lat="-33.977767">
        <ele>1089.17</ele>
        <time>2026-01-14T10:51:44.560Z</time>
      </trkpt>
      <trkpt lon="18.396997" lat="-33.975651">
        <ele>1119.86</ele>
        <time>2026-01-14T10:51:49.892Z</time>
      </trkpt>
      <trkpt lon="18.393938" lat="-33.970809">
        <ele>1112.71</ele>
        <time>2026-01-14T10:52:02.532Z</time>
      </trkpt>
      <trkpt lon="18.392903" lat="-33.968766">
        <ele>1105.75</ele>
        <time>2026-01-14T10:52:07.212Z</time>
      </trkpt>
      <trkpt lon="18.392193" lat="-33.966890">
        <ele>1107.67</ele>
        <time>2026-01-14T10:52:11.312Z</time>
      </trkpt>
      <trkpt lon="18.391953" lat="-33.965940">
        <ele>1110.35</ele>
        <time>2026-01-14T10:52:13.352Z</time>
      </trkpt>
      <trkpt lon="18.391827" lat="-33.965000">
        <ele>1113.67</ele>
        <time>2026-01-14T10:52:15.348Z</time>
      </trkpt>
      <trkpt lon="18.391828" lat="-33.964077">
        <ele>1118.8</ele>
        <time>2026-01-14T10:52:17.320Z</time>
      </trkpt>
      <trkpt lon="18.392124" lat="-33.961994">
        <ele>1129.86</ele>
        <time>2026-01-14T10:52:21.920Z</time>
      </trkpt>
      <trkpt lon="18.392447" lat="-33.960818">
        <ele>1136.51</ele>
        <time>2026-01-14T10:52:24.596Z</time>
      </trkpt>
      <trkpt lon="18.392914" lat="-33.959685">
        <ele>1140.32</ele>
        <time>2026-01-14T10:52:27.272Z</time>
      </trkpt>
      <trkpt lon="18.393527" lat="-33.958596">
        <ele>1138.11</ele>
        <time>2026-01-14T10:52:29.928Z</time>
      </trkpt>
      <trkpt lon="18.394287" lat="-33.957551">
        <ele>1131.07</ele>
        <time>2026-01-14T10:52:32.572Z</time>
      </trkpt>
      <trkpt lon="18.395219" lat="-33.956531">
        <ele>1120.62</ele>
        <time>2026-01-14T10:52:35.244Z</time>
      </trkpt>
      <trkpt lon="18.396035" lat="-33.955802">
        <ele>1114.32</ele>
        <time>2026-01-14T10:52:37.300Z</time>
      </trkpt>
      <trkpt lon="18.397205" lat="-33.954947">
        <ele>1108.38</ele>
        <time>2026-01-14T10:52:39.916Z</time>
      </trkpt>
      <trkpt lon="18.398476" lat="-33.954201">
        <ele>1103.33</ele>
        <time>2026-01-14T10:52:42.536Z</time>
      </trkpt>
      <trkpt lon="18.406154" lat="-33.949859">
        <ele>1103.68</ele>
        <time>2026-01-14T10:52:58.580Z</time>
      </trkpt>
      <trkpt lon="18.409783" lat="-33.947230">
        <ele>1078.94</ele>
        <time>2026-01-14T10:53:07.204Z</time>
      </trkpt>
      <trkpt lon="18.412574" lat="-33.944926">
        <ele>1056.9</ele>
        <time>2026-01-14T10:53:13.976Z</time>
      </trkpt>
      <trkpt lon="18.413750" lat="-33.943675">
        <ele>1050.77</ele>
        <time>2026-01-14T10:53:17.272Z</time>
      </trkpt>
      <trkpt lon="18.415354" lat="-33.941598">
        <ele>1045.04</ele>
        <time>2026-01-14T10:53:22.916Z</time>
      </trkpt>
      <trkpt lon="18.418350" lat="-33.936795">
        <ele>1027.71</ele>
        <time>2026-01-14T10:53:34.196Z</time>
      </trkpt>
      <trkpt lon="18.419822" lat="-33.934126">
        <ele>1006.31</ele>
        <time>2026-01-14T10:53:40.824Z</time>
      </trkpt>
      <trkpt lon="18.421074" lat="-33.932120">
        <ele>942.899</ele>
        <time>2026-01-14T10:53:46.160Z</time>
      </trkpt>
      <trkpt lon="18.422112" lat="-33.930548">
        <ele>881.766</ele>
        <time>2026-01-14T10:53:50.080Z</time>
      </trkpt>
      <trkpt lon="18.423225" lat="-33.928866">
        <ele>825.325</ele>
        <time>2026-01-14T10:53:54.076Z</time>
      </trkpt>
      <trkpt lon="18.424141" lat="-33.927478">
        <ele>776.009</ele>
        <time>2026-01-14T10:53:57.424Z</time>
      </trkpt>
      <trkpt lon="18.425021" lat="-33.926123">
        <ele>727.625</ele>
        <time>2026-01-14T10:54:00.716Z</time>
      </trkpt>
      <trkpt lon="18.425989" lat="-33.924475">
        <ele>673.097</ele>
        <time>2026-01-14T10:54:04.672Z</time>
      </trkpt>
      <trkpt lon="18.426700" lat="-33.923069">
        <ele>628.78</ele>
        <time>2026-01-14T10:54:08.008Z</time>
      </trkpt>
      <trkpt lon="18.427419" lat="-33.921562">
        <ele>589.341</ele>
        <time>2026-01-14T10:54:11.356Z</time>
      </trkpt>
      <trkpt lon="18.429929" lat="-33.916776">
        <ele>565.04</ele>
        <time>2026-01-14T10:54:21.360Z</time>
      </trkpt>
      <trkpt lon="18.431562" lat="-33.914232">
        <ele>590.061</ele>
        <time>2026-01-14T10:54:27.360Z</time>
      </trkpt>
      <trkpt lon="18.432000" lat="-33.913406">
        <ele>589.666</ele>
        <time>2026-01-14T10:54:29.336Z</time>
      </trkpt>
      <trkpt lon="18.432225" lat="-33.912818">
        <ele>588.51</ele>
        <time>2026-01-14T10:54:30.688Z</time>
      </trkpt>
      <trkpt lon="18.432379" lat="-33.912239">
        <ele>587.835</ele>
        <time>2026-01-14T10:54:31.984Z</time>
      </trkpt>
      <trkpt lon="18.432493" lat="-33.911350">
        <ele>587.835</ele>
        <time>2026-01-14T10:54:33.964Z</time>
      </trkpt>
      <trkpt lon="18.432476" lat="-33.910474">
        <ele>586.946</ele>
        <time>2026-01-14T10:54:35.916Z</time>
      </trkpt>
      <trkpt lon="18.432339" lat="-33.909579">
        <ele>585.653</ele>
        <time>2026-01-14T10:54:37.932Z</time>
      </trkpt>
      <trkpt lon="18.430740" lat="-33.903856">
        <ele>599.551</ele>
        <time>2026-01-14T10:54:51.196Z</time>
      </trkpt>
      <trkpt lon="18.429685" lat="-33.900581">
        <ele>601.71</ele>
        <time>2026-01-14T10:54:59.032Z</time>
      </trkpt>
      <trkpt lon="18.429502" lat="-33.899419">
        <ele>598.064</ele>
        <time>2026-01-14T10:55:01.708Z</time>
      </trkpt>
      <trkpt lon="18.429477" lat="-33.898525">
        <ele>593.434</ele>
        <time>2026-01-14T10:55:03.700Z</time>
      </trkpt>
      <trkpt lon="18.429574" lat="-33.897608">
        <ele>587.27</ele>
        <time>2026-01-14T10:55:05.716Z</time>
      </trkpt>
      <trkpt lon="18.429716" lat="-33.897007">
        <ele>582.386</ele>
        <time>2026-01-14T10:55:07.048Z</time>
      </trkpt>
      <trkpt lon="18.429938" lat="-33.896379">
        <ele>576.602</ele>
        <time>2026-01-14T10:55:08.408Z</time>
      </trkpt>
      <trkpt lon="18.430234" lat="-33.895772">
        <ele>570.544</ele>
        <time>2026-01-14T10:55:09.760Z</time>
      </trkpt>
      <trkpt lon="18.430596" lat="-33.895201">
        <ele>564.528</ele>
        <time>2026-01-14T10:55:11.072Z</time>
      </trkpt>
      <trkpt lon="18.431029" lat="-33.894659">
        <ele>558.408</ele>
        <time>2026-01-14T10:55:12.384Z</time>
      </trkpt>
      <trkpt lon="18.431555" lat="-33.894133">
        <ele>552.212</ele>
        <time>2026-01-14T10:55:13.740Z</time>
      </trkpt>
      <trkpt lon="18.432123" lat="-33.893672">
        <ele>547.088</ele>
        <time>2026-01-14T10:55:15.040Z</time>
      </trkpt>
      <trkpt lon="18.432973" lat="-33.892973">
        <ele>544.948</ele>
        <time>2026-01-14T10:55:17.044Z</time>
      </trkpt>
      <trkpt lon="18.433425" lat="-33.892457">
        <ele>543.248</ele>
        <time>2026-01-14T10:55:18.348Z</time>
      </trkpt>
      <trkpt lon="18.433795" lat="-33.891889">
        <ele>540.918</ele>
        <time>2026-01-14T10:55:19.680Z</time>
      </trkpt>
      <trkpt lon="18.434068" lat="-33.891323">
        <ele>538.662</ele>
        <time>2026-01-14T10:55:20.948Z</time>
      </trkpt>
      <trkpt lon="18.434272" lat="-33.890712">
        <ele>536.136</ele>
        <time>2026-01-14T10:55:22.264Z</time>
      </trkpt>
      <trkpt lon="18.434395" lat="-33.890079">
        <ele>533.491</ele>
        <time>2026-01-14T10:55:23.600Z</time>
      </trkpt>
      <trkpt lon="18.434432" lat="-33.889452">
        <ele>530.84</ele>
        <time>2026-01-14T10:55:24.916Z</time>
      </trkpt>
      <trkpt lon="18.434389" lat="-33.888826">
        <ele>528.719</ele>
        <time>2026-01-14T10:55:26.232Z</time>
      </trkpt>
      <trkpt lon="18.434272" lat="-33.888205">
        <ele>527.436</ele>
        <time>2026-01-14T10:55:27.560Z</time>
      </trkpt>
      <trkpt lon="18.433978" lat="-33.887305">
        <ele>527.502</ele>
        <time>2026-01-14T10:55:29.560Z</time>
      </trkpt>
      <trkpt lon="18.433584" lat="-33.886450">
        <ele>530.654</ele>
        <time>2026-01-14T10:55:31.560Z</time>
      </trkpt>
      <trkpt lon="18.432976" lat="-33.885424">
        <ele>537.884</ele>
        <time>2026-01-14T10:55:34.128Z</time>
      </trkpt>
      <trkpt lon="18.430929" lat="-33.882779">
        <ele>533.929</ele>
        <time>2026-01-14T10:55:41.412Z</time>
      </trkpt>
      <trkpt lon="18.429625" lat="-33.881364">
        <ele>529.88</ele>
        <time>2026-01-14T10:55:45.396Z</time>
      </trkpt>
      <trkpt lon="18.422390" lat="-33.874313">
        <ele>555.703</ele>
        <time>2026-01-14T10:56:07.220Z</time>
      </trkpt>
      <trkpt lon="18.416879" lat="-33.867248">
        <ele>563.6</ele>
        <time>2026-01-14T10:56:26.992Z</time>
      </trkpt>
      <trkpt lon="18.415313" lat="-33.865157">
        <ele>560.848</ele>
        <time>2026-01-14T10:56:32.920Z</time>
      </trkpt>
      <trkpt lon="18.406485" lat="-33.854432">
        <ele>544.034</ele>
        <time>2026-01-14T10:57:03.468Z</time>
      </trkpt>
      <trkpt lon="18.398618" lat="-33.843262">
        <ele>532.466</ele>
        <time>2026-01-14T10:57:33.920Z</time>
      </trkpt>
      <trkpt lon="18.395738" lat="-33.839526">
        <ele>492.756</ele>
        <time>2026-01-14T10:57:44.524Z</time>
      </trkpt>
      <trkpt lon="18.393152" lat="-33.836086">
        <ele>456.042</ele>
        <time>2026-01-14T10:57:53.800Z</time>
      </trkpt>
      <trkpt lon="18.391949" lat="-33.834679">
        <ele>446.538</ele>
        <time>2026-01-14T10:57:57.812Z</time>
      </trkpt>
      <trkpt lon="18.391281" lat="-33.834073">
        <ele>440.832</ele>
        <time>2026-01-14T10:57:59.760Z</time>
      </trkpt>
      <trkpt lon="18.390264" lat="-33.833331">
        <ele>430.754</ele>
        <time>2026-01-14T10:58:02.428Z</time>
      </trkpt>
      <trkpt lon="18.386690" lat="-33.831210">
        <ele>397.371</ele>
        <time>2026-01-14T10:58:10.996Z</time>
      </trkpt>
      <trkpt lon="18.384529" lat="-33.829833">
        <ele>379.814</ele>
        <time>2026-01-14T10:58:16.280Z</time>
      </trkpt>
      <trkpt lon="18.383069" lat="-33.828706">
        <ele>367.001</ele>
        <time>2026-01-14T10:58:20.148Z</time>
      </trkpt>
      <trkpt lon="18.379922" lat="-33.825769">
        <ele>335.591</ele>
        <time>2026-01-14T10:58:29.368Z</time>
      </trkpt>
      <trkpt lon="18.376780" lat="-33.822792">
        <ele>304.675</ele>
        <time>2026-01-14T10:58:38.652Z</time>
      </trkpt>
      <trkpt lon="18.369987" lat="-33.816555">
        <ele>277.2</ele>
        <time>2026-01-14T10:58:58.584Z</time>
      </trkpt>
      <trkpt lon="18.366633" lat="-33.813035">
        <ele>258.75</ele>
        <time>2026-01-14T10:59:09.244Z</time>
      </trkpt>
      <trkpt lon="18.365510" lat="-33.811636">
        <ele>256.78</ele>
        <time>2026-01-14T10:59:13.216Z</time>
      </trkpt>
      <trkpt lon="18.365192" lat="-33.811133">
        <ele>257.072</ele>
        <time>2026-01-14T10:59:14.568Z</time>
      </trkpt>
      <trkpt lon="18.364862" lat="-33.810367">
        <ele>262.347</ele>
        <time>2026-01-14T10:59:16.548Z</time>
      </trkpt>
      <trkpt lon="18.364684" lat="-33.809585">
        <ele>266.699</ele>
        <time>2026-01-14T10:59:18.532Z</time>
      </trkpt>
      <trkpt lon="18.364644" lat="-33.809054">
        <ele>266.555</ele>
        <time>2026-01-14T10:59:19.868Z</time>
      </trkpt>
      <trkpt lon="18.364673" lat="-33.808511">
        <ele>264.857</ele>
        <time>2026-01-14T10:59:21.224Z</time>
      </trkpt>
      <trkpt lon="18.364766" lat="-33.807975">
        <ele>262.061</ele>
        <time>2026-01-14T10:59:22.560Z</time>
      </trkpt>
      <trkpt lon="18.365009" lat="-33.807190">
        <ele>257.773</ele>
        <time>2026-01-14T10:59:24.536Z</time>
      </trkpt>
      <trkpt lon="18.365354" lat="-33.806411">
        <ele>254.471</ele>
        <time>2026-01-14T10:59:26.516Z</time>
      </trkpt>
      <trkpt lon="18.365941" lat="-33.805393">
        <ele>250.614</ele>
        <time>2026-01-14T10:59:29.160Z</time>
      </trkpt>
      <trkpt lon="18.366669" lat="-33.804397">
        <ele>247.35</ele>
        <time>2026-01-14T10:59:31.824Z</time>
      </trkpt>
      <trkpt lon="18.367329" lat="-33.803694">
        <ele>245.346</ele>
        <time>2026-01-14T10:59:33.828Z</time>
      </trkpt>
      <trkpt lon="18.367837" lat="-33.803259">
        <ele>244.088</ele>
        <time>2026-01-14T10:59:35.184Z</time>
      </trkpt>
      <trkpt lon="18.368377" lat="-33.802873">
        <ele>242.643</ele>
        <time>2026-01-14T10:59:36.500Z</time>
      </trkpt>
      <trkpt lon="18.368960" lat="-33.802534">
        <ele>240.719</ele>
        <time>2026-01-14T10:59:37.808Z</time>
      </trkpt>
      <trkpt lon="18.369592" lat="-33.802242">
        <ele>238.006</ele>
        <time>2026-01-14T10:59:39.132Z</time>
      </trkpt>
      <trkpt lon="18.370281" lat="-33.802002">
        <ele>234.665</ele>
        <time>2026-01-14T10:59:40.492Z</time>
      </trkpt>
      <trkpt lon="18.370960" lat="-33.801833">
        <ele>231.25</ele>
        <time>2026-01-14T10:59:41.776Z</time>
      </trkpt>
      <trkpt lon="18.371708" lat="-33.801717">
        <ele>227.903</ele>
        <time>2026-01-14T10:59:43.144Z</time>
      </trkpt>
      <trkpt lon="18.372452" lat="-33.801671">
        <ele>225.091</ele>
        <time>2026-01-14T10:59:44.460Z</time>
      </trkpt>
      <trkpt lon="18.373204" lat="-33.801690">
        <ele>223.002</ele>
        <time>2026-01-14T10:59:45.772Z</time>
      </trkpt>
      <trkpt lon="18.373951" lat="-33.801777">
        <ele>221.815</ele>
        <time>2026-01-14T10:59:47.068Z</time>
      </trkpt>
      <trkpt lon="18.374698" lat="-33.801931">
        <ele>221.212</ele>
        <time>2026-01-14T10:59:48.396Z</time>
      </trkpt>
      <trkpt lon="18.375426" lat="-33.802155">
        <ele>221.058</ele>
        <time>2026-01-14T10:59:49.736Z</time>
      </trkpt>
      <trkpt lon="18.376106" lat="-33.802438">
        <ele>221.973</ele>
        <time>2026-01-14T10:59:51.040Z</time>
      </trkpt>
      <trkpt lon="18.376746" lat="-33.802782">
        <ele>223.217</ele>
        <time>2026-01-14T10:59:52.360Z</time>
      </trkpt>
      <trkpt lon="18.377333" lat="-33.803172">
        <ele>224.515</ele>
        <time>2026-01-14T10:59:53.668Z</time>
      </trkpt>
      <trkpt lon="18.377875" lat="-33.803616">
        <ele>226.242</ele>
        <time>2026-01-14T10:59:54.992Z</time>
      </trkpt>
      <trkpt lon="18.378344" lat="-33.804088">
        <ele>228.322</ele>
        <time>2026-01-14T10:59:56.300Z</time>
      </trkpt>
      <trkpt lon="18.378775" lat="-33.804615">
        <ele>230.933</ele>
        <time>2026-01-14T10:59:57.672Z</time>
      </trkpt>
      <trkpt lon="18.379301" lat="-33.805416">
        <ele>235.708</ele>
        <time>2026-01-14T10:59:59.660Z</time>
      </trkpt>
      <trkpt lon="18.380767" lat="-33.808040">
        <ele>264.231</ele>
        <time>2026-01-14T11:00:06.280Z</time>
      </trkpt>
      <trkpt lon="18.382998" lat="-33.812380">
        <ele>293.567</ele>
        <time>2026-01-14T11:00:17.516Z</time>
      </trkpt>
      <trkpt lon="18.386028" lat="-33.819726">
        <ele>323.926</ele>
        <time>2026-01-14T11:00:35.392Z</time>
      </trkpt>
      <trkpt lon="18.390922" lat="-33.829717">
        <ele>355.993</ele>
        <time>2026-01-14T11:00:59.872Z</time>
      </trkpt>
      <trkpt lon="18.393869" lat="-33.837475">
        <ele>389.26</ele>
        <time>2026-01-14T11:01:18.408Z</time>
      </trkpt>
      <trkpt lon="18.395949" lat="-33.842784">
        <ele>409.547</ele>
        <time>2026-01-14T11:01:30.984Z</time>
      </trkpt>
      <trkpt lon="18.397705" lat="-33.849649">
        <ele>429.292</ele>
        <time>2026-01-14T11:01:46.848Z</time>
      </trkpt>
      <trkpt lon="18.398038" lat="-33.852261">
        <ele>437.698</ele>
        <time>2026-01-14T11:01:52.812Z</time>
      </trkpt>
      <trkpt lon="18.398595" lat="-33.858581">
        <ele>458.299</ele>
        <time>2026-01-14T11:02:07.372Z</time>
      </trkpt>
      <trkpt lon="18.398646" lat="-33.861154">
        <ele>466.24</ele>
        <time>2026-01-14T11:02:13.280Z</time>
      </trkpt>
      <trkpt lon="18.398873" lat="-33.862552">
        <ele>470.366</ele>
        <time>2026-01-14T11:02:16.524Z</time>
      </trkpt>
      <trkpt lon="18.400747" lat="-33.869362">
        <ele>491.303</ele>
        <time>2026-01-14T11:02:32.424Z</time>
      </trkpt>
      <trkpt lon="18.404903" lat="-33.881471">
        <ele>530.784</ele>
        <time>2026-01-14T11:03:00.936Z</time>
      </trkpt>
      <trkpt lon="18.409804" lat="-33.894432">
        <ele>571.278</ele>
        <time>2026-01-14T11:03:31.396Z</time>
      </trkpt>
      <trkpt lon="18.412524" lat="-33.901864">
        <ele>611.886</ele>
        <time>2026-01-14T11:03:48.832Z</time>
      </trkpt>
      <trkpt lon="18.413087" lat="-33.904166">
        <ele>609.886</ele>
        <time>2026-01-14T11:03:54.084Z</time>
      </trkpt>
      <trkpt lon="18.413257" lat="-33.905986">
        <ele>617.807</ele>
        <time>2026-01-14T11:03:58.072Z</time>
      </trkpt>
      <trkpt lon="18.413208" lat="-33.909829">
        <ele>649.065</ele>
        <time>2026-01-14T11:04:06.692Z</time>
      </trkpt>
      <trkpt lon="18.412876" lat="-33.913031">
        <ele>673.081</ele>
        <time>2026-01-14T11:04:14.060Z</time>
      </trkpt>
      <trkpt lon="18.410150" lat="-33.925229">
        <ele>717.454</ele>
        <time>2026-01-14T11:04:41.824Z</time>
      </trkpt>
      <trkpt lon="18.409071" lat="-33.930613">
        <ele>746.513</ele>
        <time>2026-01-14T11:04:54.052Z</time>
      </trkpt>
      <trkpt lon="18.408551" lat="-33.932017">
        <ele>752.65</ele>
        <time>2026-01-14T11:04:57.392Z</time>
      </trkpt>
      <trkpt lon="18.407988" lat="-33.933109">
        <ele>756.901</ele>
        <time>2026-01-14T11:05:00.084Z</time>
      </trkpt>
      <trkpt lon="18.407291" lat="-33.934144">
        <ele>759.668</ele>
        <time>2026-01-14T11:05:02.768Z</time>
      </trkpt>
      <trkpt lon="18.406050" lat="-33.935899">
        <ele>766.457</ele>
        <time>2026-01-14T11:05:07.372Z</time>
      </trkpt>
      <trkpt lon="18.405353" lat="-33.937250">
        <ele>772.246</ele>
        <time>2026-01-14T11:05:10.684Z</time>
      </trkpt>
      <trkpt lon="18.404692" lat="-33.938936">
        <ele>781.795</ele>
        <time>2026-01-14T11:05:14.664Z</time>
      </trkpt>
      <trkpt lon="18.403458" lat="-33.942979">
        <ele>826.007</ele>
        <time>2026-01-14T11:05:23.908Z</time>
      </trkpt>
      <trkpt lon="18.402650" lat="-33.944925">
        <ele>869.361</ele>
        <time>2026-01-14T11:05:28.624Z</time>
      </trkpt>
      <trkpt lon="18.401756" lat="-33.946715">
        <ele>914.546</ele>
        <time>2026-01-14T11:05:33.296Z</time>
      </trkpt>
      <trkpt lon="18.400880" lat="-33.948794">
        <ele>955.666</ele>
        <time>2026-01-14T11:05:38.660Z</time>
      </trkpt>
      <trkpt lon="18.400638" lat="-33.949604">
        <ele>969.373</ele>
        <time>2026-01-14T11:05:40.672Z</time>
      </trkpt>
      <trkpt lon="18.400500" lat="-33.950421">
        <ele>981.411</ele>
        <time>2026-01-14T11:05:42.632Z</time>
      </trkpt>
      <trkpt lon="18.400485" lat="-33.951279">
        <ele>991.673</ele>
        <time>2026-01-14T11:05:44.604Z</time>
      </trkpt>
      <trkpt lon="18.400635" lat="-33.952467">
        <ele>1005.22</ele>
        <time>2026-01-14T11:05:47.272Z</time>
      </trkpt>
      <trkpt lon="18.400931" lat="-33.953642">
        <ele>1024.76</ele>
        <time>2026-01-14T11:05:49.920Z</time>
      </trkpt>
      <trkpt lon="18.401417" lat="-33.955087">
        <ele>1052.3</ele>
        <time>2026-01-14T11:05:53.248Z</time>
      </trkpt>
      <trkpt lon="18.401969" lat="-33.956527">
        <ele>1082.21</ele>
        <time>2026-01-14T11:05:56.636Z</time>
      </trkpt>
      <trkpt lon="18.402456" lat="-33.957642">
        <ele>1107.95</ele>
        <time>2026-01-14T11:05:59.344Z</time>
      </trkpt>
      <trkpt lon="18.402874" lat="-33.958419">
        <ele>1126.69</ele>
        <time>2026-01-14T11:06:01.280Z</time>
      </trkpt>
      <trkpt lon="18.403590" lat="-33.959452">
        <ele>1148.94</ele>
        <time>2026-01-14T11:06:04.016Z</time>
      </trkpt>
      <trkpt lon="18.404600" lat="-33.960648">
        <ele>1173.31</ele>
        <time>2026-01-14T11:06:07.360Z</time>
      </trkpt>
      <trkpt lon="18.407920" lat="-33.964895">
        <ele>1179.32</ele>
        <time>2026-01-14T11:06:18.860Z</time>
      </trkpt>
      <trkpt lon="18.409426" lat="-33.967180">
        <ele>1168.51</ele>
        <time>2026-01-14T11:06:24.176Z</time>
      </trkpt>
      <trkpt lon="18.410912" lat="-33.969895">
        <ele>1178.81</ele>
        <time>2026-01-14T11:06:30.268Z</time>
      </trkpt>
      <trkpt lon="18.413185" lat="-33.975370">
        <ele>1199.01</ele>
        <time>2026-01-14T11:06:43.112Z</time>
      </trkpt>
      <trkpt lon="18.414602" lat="-33.979331">
        <ele>1164.59</ele>
        <time>2026-01-14T11:06:51.844Z</time>
      </trkpt>
      <trkpt lon="18.415952" lat="-33.982328">
        <ele>1143.01</ele>
        <time>2026-01-14T11:06:58.528Z</time>
      </trkpt>
      <trkpt lon="18.416571" lat="-33.983410">
        <ele>1125.26</ele>
        <time>2026-01-14T11:07:01.208Z</time>
      </trkpt>
      <trkpt lon="18.417327" lat="-33.984447">
        <ele>1096.65</ele>
        <time>2026-01-14T11:07:03.940Z</time>
      </trkpt>
      <trkpt lon="18.418241" lat="-33.985440">
        <ele>1061.33</ele>
        <time>2026-01-14T11:07:06.692Z</time>
      </trkpt>
      <trkpt lon="18.419306" lat="-33.986373">
        <ele>1027.67</ele>
        <time>2026-01-14T11:07:09.404Z</time>
      </trkpt>
      <trkpt lon="18.420781" lat="-33.987479">
        <ele>985.94</ele>
        <time>2026-01-14T11:07:12.824Z</time>
      </trkpt>
      <trkpt lon="18.422854" lat="-33.988977">
        <ele>941.297</ele>
        <time>2026-01-14T11:07:17.524Z</time>
      </trkpt>
      <trkpt lon="18.425148" lat="-33.990772">
        <ele>890.828</ele>
        <time>2026-01-14T11:07:23.284Z</time>
      </trkpt>
      <trkpt lon="18.427104" lat="-33.992419">
        <ele>842.194</ele>
        <time>2026-01-14T11:07:27.940Z</time>
      </trkpt>
      <trkpt lon="18.429226" lat="-33.994321">
        <ele>792.984</ele>
        <time>2026-01-14T11:07:33.352Z</time>
      </trkpt>
      <trkpt lon="18.431133" lat="-33.996245">
        <ele>748.436</ele>
        <time>2026-01-14T11:07:38.628Z</time>
      </trkpt>
      <trkpt lon="18.432934" lat="-33.998242">
        <ele>705.422</ele>
        <time>2026-01-14T11:07:43.960Z</time>
      </trkpt>
      <trkpt lon="18.435371" lat="-34.001156">
        <ele>662.385</ele>
        <time>2026-01-14T11:07:51.856Z</time>
      </trkpt>
      <trkpt lon="18.441282" lat="-34.008022">
        <ele>621.149</ele>
        <time>2026-01-14T11:08:12.524Z</time>
      </trkpt>
      <trkpt lon="18.442689" lat="-34.009466">
        <ele>614.815</ele>
        <time>2026-01-14T11:08:17.164Z</time>
      </trkpt>
      <trkpt lon="18.443149" lat="-34.009843">
        <ele>613.804</ele>
        <time>2026-01-14T11:08:18.528Z</time>
      </trkpt>
      <trkpt lon="18.443631" lat="-34.010172">
        <ele>612.388</ele>
        <time>2026-01-14T11:08:19.840Z</time>
      </trkpt>
      <trkpt lon="18.444168" lat="-34.010460">
        <ele>609.718</ele>
        <time>2026-01-14T11:08:21.180Z</time>
      </trkpt>
      <trkpt lon="18.444736" lat="-34.010689">
        <ele>604.985</ele>
        <time>2026-01-14T11:08:22.508Z</time>
      </trkpt>
      <trkpt lon="18.445367" lat="-34.010869">
        <ele>598.598</ele>
        <time>2026-01-14T11:08:23.860Z</time>
      </trkpt>
      <trkpt lon="18.446021" lat="-34.010981">
        <ele>593.163</ele>
        <time>2026-01-14T11:08:25.188Z</time>
      </trkpt>
      <trkpt lon="18.446687" lat="-34.011031">
        <ele>589.33</ele>
        <time>2026-01-14T11:08:26.512Z</time>
      </trkpt>
      <trkpt lon="18.447368" lat="-34.011022">
        <ele>586.798</ele>
        <time>2026-01-14T11:08:27.856Z</time>
      </trkpt>
      <trkpt lon="18.448036" lat="-34.010958">
        <ele>585.107</ele>
        <time>2026-01-14T11:08:29.192Z</time>
      </trkpt>
      <trkpt lon="18.449021" lat="-34.010776">
        <ele>581.601</ele>
        <time>2026-01-14T11:08:31.196Z</time>
      </trkpt>
      <trkpt lon="18.449956" lat="-34.010507">
        <ele>580.399</ele>
        <time>2026-01-14T11:08:33.176Z</time>
      </trkpt>
      <trkpt lon="18.451417" lat="-34.009949">
        <ele>578.728</ele>
        <time>2026-01-14T11:08:36.460Z</time>
      </trkpt>
      <trkpt lon="18.452832" lat="-34.009279">
        <ele>577.21</ele>
        <time>2026-01-14T11:08:39.824Z</time>
      </trkpt>
      <trkpt lon="18.460823" lat="-34.004741">
        <ele>570.253</ele>
        <time>2026-01-14T11:08:59.084Z</time>
      </trkpt>
      <trkpt lon="18.462122" lat="-34.004132">
        <ele>569.941</ele>
        <time>2026-01-14T11:09:01.852Z</time>
      </trkpt>
      <trkpt lon="18.463438" lat="-34.003660">
        <ele>571.871</ele>
        <time>2026-01-14T11:09:04.504Z</time>
      </trkpt>
      <trkpt lon="18.465182" lat="-34.003185">
        <ele>572.578</ele>
        <time>2026-01-14T11:09:07.900Z</time>
      </trkpt>
      <trkpt lon="18.466928" lat="-34.002846">
        <ele>569.214</ele>
        <time>2026-01-14T11:09:11.184Z</time>
      </trkpt>
      <trkpt lon="18.471727" lat="-34.002377">
        <ele>562.917</ele>
        <time>2026-01-14T11:09:19.828Z</time>
      </trkpt>
      <trkpt lon="18.488416" lat="-34.001742">
        <ele>568.3</ele>
        <time>2026-01-14T11:09:49.948Z</time>
      </trkpt>
      <trkpt lon="18.501309" lat="-34.000988">
        <ele>585.48</ele>
        <time>2026-01-14T11:10:13.984Z</time>
      </trkpt>
      <trkpt lon="18.512014" lat="-33.999938">
        <ele>602.535</ele>
        <time>2026-01-14T11:10:34.012Z</time>
      </trkpt>
      <trkpt lon="18.513067" lat="-33.999686">
        <ele>601.896</ele>
        <time>2026-01-14T11:10:36.020Z</time>
      </trkpt>
      <trkpt lon="18.514102" lat="-33.999349">
        <ele>600.612</ele>
        <time>2026-01-14T11:10:38.040Z</time>
      </trkpt>
      <trkpt lon="18.516675" lat="-33.998268">
        <ele>607.195</ele>
        <time>2026-01-14T11:10:43.312Z</time>
      </trkpt>
      <trkpt lon="18.525174" lat="-33.994139">
        <ele>632.095</ele>
        <time>2026-01-14T11:11:01.936Z</time>
      </trkpt>
      <trkpt lon="18.528046" lat="-33.992366">
        <ele>641.039</ele>
        <time>2026-01-14T11:11:08.692Z</time>
      </trkpt>
      <trkpt lon="18.531467" lat="-33.989975">
        <ele>686.593</ele>
        <time>2026-01-14T11:11:16.808Z</time>
      </trkpt>
      <trkpt lon="18.533846" lat="-33.988245">
        <ele>739.132</ele>
        <time>2026-01-14T11:11:22.944Z</time>
      </trkpt>
      <trkpt lon="18.536612" lat="-33.986197">
        <ele>789.228</ele>
        <time>2026-01-14T11:11:30.376Z</time>
      </trkpt>
      <trkpt lon="18.539553" lat="-33.983914">
        <ele>842.752</ele>
        <time>2026-01-14T11:11:38.412Z</time>
      </trkpt>
      <trkpt lon="18.542961" lat="-33.981258">
        <ele>899.457</ele>
        <time>2026-01-14T11:11:47.712Z</time>
      </trkpt>
      <trkpt lon="18.546212" lat="-33.978987">
        <ele>929.812</ele>
        <time>2026-01-14T11:11:55.652Z</time>
      </trkpt>
      <trkpt lon="18.549034" lat="-33.977137">
        <ele>966.463</ele>
        <time>2026-01-14T11:12:02.232Z</time>
      </trkpt>
      <trkpt lon="18.550040" lat="-33.976276">
        <ele>983.96</ele>
        <time>2026-01-14T11:12:04.944Z</time>
      </trkpt>
      <trkpt lon="18.552888" lat="-33.973307">
        <ele>1035.09</ele>
        <time>2026-01-14T11:12:13.600Z</time>
      </trkpt>
      <trkpt lon="18.556517" lat="-33.969314">
        <ele>1099.72</ele>
        <time>2026-01-14T11:12:24.924Z</time>
      </trkpt>
      <trkpt lon="18.560587" lat="-33.964903">
        <ele>1169.35</ele>
        <time>2026-01-14T11:12:37.436Z</time>
      </trkpt>
      <trkpt lon="18.564382" lat="-33.960578">
        <ele>1240.6</ele>
        <time>2026-01-14T11:12:49.512Z</time>
      </trkpt>
      <trkpt lon="18.567796" lat="-33.957106">
        <ele>1293.17</ele>
        <time>2026-01-14T11:12:59.572Z</time>
      </trkpt>
      <trkpt lon="18.571184" lat="-33.954200">
        <ele>1333.27</ele>
        <time>2026-01-14T11:13:08.308Z</time>
      </trkpt>
      <trkpt lon="18.577068" lat="-33.950003">
        <ele>1412.65</ele>
        <time>2026-01-14T11:13:22.204Z</time>
      </trkpt>
      <trkpt lon="18.581982" lat="-33.946794">
        <ele>1464.66</ele>
        <time>2026-01-14T11:13:33.416Z</time>
      </trkpt>
      <trkpt lon="18.583622" lat="-33.945978">
        <ele>1478.84</ele>
        <time>2026-01-14T11:13:36.764Z</time>
      </trkpt>
      <trkpt lon="18.585352" lat="-33.945284">
        <ele>1492.84</ele>
        <time>2026-01-14T11:13:40.084Z</time>
      </trkpt>
      <trkpt lon="18.587556" lat="-33.944591">
        <ele>1512.47</ele>
        <time>2026-01-14T11:13:44.152Z</time>
      </trkpt>
      <trkpt lon="18.589744" lat="-33.944078">
        <ele>1533.85</ele>
        <time>2026-01-14T11:13:48.092Z</time>
      </trkpt>
      <trkpt lon="18.592342" lat="-33.943674">
        <ele>1559.08</ele>
        <time>2026-01-14T11:13:52.712Z</time>
      </trkpt>
      <trkpt lon="18.596894" lat="-33.943305">
        <ele>1599.01</ele>
        <time>2026-01-14T11:14:00.732Z</time>
      </trkpt>
      <trkpt lon="18.600688" lat="-33.943275">
        <ele>1629.48</ele>
        <time>2026-01-14T11:14:07.324Z</time>
      </trkpt>
      <trkpt lon="18.606063" lat="-33.943603">
        <ele>1674.76</ele>
        <time>2026-01-14T11:14:16.664Z</time>
      </trkpt>
      <trkpt lon="18.619285" lat="-33.945584">
        <ele>1703.21</ele>
        <time>2026-01-14T11:14:39.744Z</time>
      </trkpt>
      <trkpt lon="18.635649" lat="-33.947950">
        <ele>1702.42</ele>
        <time>2026-01-14T11:15:06.332Z</time>
      </trkpt>
      <trkpt lon="18.653443" lat="-33.949365">
        <ele>1689.59</ele>
        <time>2026-01-14T11:15:36.836Z</time>
      </trkpt>
      <trkpt lon="18.671323" lat="-33.950678">
        <ele>1687.17</ele>
        <time>2026-01-14T11:16:07.192Z</time>
      </trkpt>
      <trkpt lon="18.683792" lat="-33.950648">
        <ele>1685.7</ele>
        <time>2026-01-14T11:16:28.448Z</time>
      </trkpt>
      <trkpt lon="18.684570" lat="-33.950763">
        <ele>1679.88</ele>
        <time>2026-01-14T11:16:29.772Z</time>
      </trkpt>
      <trkpt lon="18.685748" lat="-33.951045">
        <ele>1672.48</ele>
        <time>2026-01-14T11:16:31.792Z</time>
      </trkpt>
      <trkpt lon="18.686498" lat="-33.951307">
        <ele>1668.66</ele>
        <time>2026-01-14T11:16:33.120Z</time>
      </trkpt>
      <trkpt lon="18.687229" lat="-33.951632">
        <ele>1664.44</ele>
        <time>2026-01-14T11:16:34.468Z</time>
      </trkpt>
      <trkpt lon="18.687910" lat="-33.952014">
        <ele>1660.73</ele>
        <time>2026-01-14T11:16:35.792Z</time>
      </trkpt>
      <trkpt lon="18.688551" lat="-33.952456">
        <ele>1656.85</ele>
        <time>2026-01-14T11:16:37.132Z</time>
      </trkpt>
      <trkpt lon="18.689408" lat="-33.953191">
        <ele>1650.84</ele>
        <time>2026-01-14T11:16:39.108Z</time>
      </trkpt>
      <trkpt lon="18.690160" lat="-33.954021">
        <ele>1645.27</ele>
        <time>2026-01-14T11:16:41.108Z</time>
      </trkpt>
      <trkpt lon="18.690793" lat="-33.954914">
        <ele>1641.18</ele>
        <time>2026-01-14T11:16:43.104Z</time>
      </trkpt>
      <trkpt lon="18.691308" lat="-33.955858">
        <ele>1638.97</ele>
        <time>2026-01-14T11:16:45.112Z</time>
      </trkpt>
      <trkpt lon="18.692088" lat="-33.957400">
        <ele>1642.18</ele>
        <time>2026-01-14T11:16:48.440Z</time>
      </trkpt>
      <trkpt lon="18.700080" lat="-33.970315">
        <ele>1604.13</ele>
        <time>2026-01-14T11:17:18.968Z</time>
      </trkpt>
      <trkpt lon="18.706230" lat="-33.980127">
        <ele>1521.64</ele>
        <time>2026-01-14T11:17:42.124Z</time>
      </trkpt>
      <trkpt lon="18.711154" lat="-33.987816">
        <ele>1442.86</ele>
        <time>2026-01-14T11:18:00.060Z</time>
      </trkpt>
      <trkpt lon="18.719130" lat="-34.001117">
        <ele>1382.41</ele>
        <time>2026-01-14T11:18:30.724Z</time>
      </trkpt>
      <trkpt lon="18.727422" lat="-34.013713">
        <ele>1360.49</ele>
        <time>2026-01-14T11:19:01.096Z</time>
      </trkpt>
      <trkpt lon="18.729575" lat="-34.016499">
        <ele>1364.91</ele>
        <time>2026-01-14T11:19:08.312Z</time>
      </trkpt>
      <trkpt lon="18.736848" lat="-34.029360">
        <ele>1361.87</ele>
        <time>2026-01-14T11:19:38.892Z</time>
      </trkpt>
      <trkpt lon="18.739978" lat="-34.034318">
        <ele>1363.88</ele>
        <time>2026-01-14T11:19:50.784Z</time>
      </trkpt>
      <trkpt lon="18.740248" lat="-34.034904">
        <ele>1362.34</ele>
        <time>2026-01-14T11:19:52.108Z</time>
      </trkpt>
      <trkpt lon="18.740449" lat="-34.035499">
        <ele>1361.35</ele>
        <time>2026-01-14T11:19:53.416Z</time>
      </trkpt>
      <trkpt lon="18.740580" lat="-34.036120">
        <ele>1361.46</ele>
        <time>2026-01-14T11:19:54.760Z</time>
      </trkpt>
      <trkpt lon="18.740646" lat="-34.037049">
        <ele>1360.97</ele>
        <time>2026-01-14T11:19:56.740Z</time>
      </trkpt>
      <trkpt lon="18.740568" lat="-34.037984">
        <ele>1360.64</ele>
        <time>2026-01-14T11:19:58.744Z</time>
      </trkpt>
      <trkpt lon="18.740436" lat="-34.038601">
        <ele>1361.75</ele>
        <time>2026-01-14T11:20:00.084Z</time>
      </trkpt>
      <trkpt lon="18.740133" lat="-34.039463">
        <ele>1364.3</ele>
        <time>2026-01-14T11:20:02.040Z</time>
      </trkpt>
      <trkpt lon="18.739702" lat="-34.040297">
        <ele>1366.12</ele>
        <time>2026-01-14T11:20:04.036Z</time>
      </trkpt>
      <trkpt lon="18.739168" lat="-34.041076">
        <ele>1367.69</ele>
        <time>2026-01-14T11:20:06.020Z</time>
      </trkpt>
      <trkpt lon="18.738551" lat="-34.041797">
        <ele>1370.09</ele>
        <time>2026-01-14T11:20:07.996Z</time>
      </trkpt>
      <trkpt lon="18.737628" lat="-34.042663">
        <ele>1373.74</ele>
        <time>2026-01-14T11:20:10.608Z</time>
      </trkpt>
      <trkpt lon="18.736612" lat="-34.043436">
        <ele>1374.32</ele>
        <time>2026-01-14T11:20:13.208Z</time>
      </trkpt>
      <trkpt lon="18.735485" lat="-34.044138">
        <ele>1371.66</ele>
        <time>2026-01-14T11:20:15.844Z</time>
      </trkpt>
      <trkpt lon="18.734238" lat="-34.044750">
        <ele>1369.02</ele>
        <time>2026-01-14T11:20:18.508Z</time>
      </trkpt>
      <trkpt lon="18.732937" lat="-34.045235">
        <ele>1369.68</ele>
        <time>2026-01-14T11:20:21.136Z</time>
      </trkpt>
      <trkpt lon="18.725397" lat="-34.047568">
        <ele>1368.46</ele>
        <time>2026-01-14T11:20:36.380Z</time>
      </trkpt>
      <trkpt lon="18.723812" lat="-34.048297">
        <ele>1352.85</ele>
        <time>2026-01-14T11:20:39.768Z</time>
      </trkpt>
      <trkpt lon="18.718802" lat="-34.051051">
        <ele>1285.9</ele>
        <time>2026-01-14T11:20:50.352Z</time>
      </trkpt>
      <trkpt lon="18.717733" lat="-34.051426">
        <ele>1273.64</ele>
        <time>2026-01-14T11:20:52.332Z</time>
      </trkpt>
      <trkpt lon="18.712123" lat="-34.053052">
        <ele>1259.81</ele>
        <time>2026-01-14T11:21:02.936Z</time>
      </trkpt>
      <trkpt lon="18.709214" lat="-34.053988">
        <ele>1242.91</ele>
        <time>2026-01-14T11:21:08.884Z</time>
      </trkpt>
      <trkpt lon="18.706938" lat="-34.054950">
        <ele>1208.3</ele>
        <time>2026-01-14T11:21:13.552Z</time>
      </trkpt>
      <trkpt lon="18.703323" lat="-34.056874">
        <ele>1138.42</ele>
        <time>2026-01-14T11:21:20.836Z</time>
      </trkpt>
      <trkpt lon="18.699021" lat="-34.059537">
        <ele>1075.09</ele>
        <time>2026-01-14T11:21:29.524Z</time>
      </trkpt>
      <trkpt lon="18.693634" lat="-34.063114">
        <ele>1011.53</ele>
        <time>2026-01-14T11:21:41.476Z</time>
      </trkpt>
      <trkpt lon="18.690874" lat="-34.065221">
        <ele>960.167</ele>
        <time>2026-01-14T11:21:48.140Z</time>
      </trkpt>
      <trkpt lon="18.689949" lat="-34.065749">
        <ele>944.31</ele>
        <time>2026-01-14T11:21:50.120Z</time>
      </trkpt>
      <trkpt lon="18.687590" lat="-34.066824">
        <ele>913.283</ele>
        <time>2026-01-14T11:21:54.824Z</time>
      </trkpt>
      <trkpt lon="18.685491" lat="-34.067553">
        <ele>898.445</ele>
        <time>2026-01-14T11:21:58.820Z</time>
      </trkpt>
      <trkpt lon="18.681945" lat="-34.068488">
        <ele>876.408</ele>
        <time>2026-01-14T11:22:05.420Z</time>
      </trkpt>
      <trkpt lon="18.675139" lat="-34.069663">
        <ele>861.574</ele>
        <time>2026-01-14T11:22:18.792Z</time>
      </trkpt>
      <trkpt lon="18.673796" lat="-34.069786">
        <ele>848.692</ele>
        <time>2026-01-14T11:22:21.444Z</time>
      </trkpt>
      <trkpt lon="18.672758" lat="-34.069782">
        <ele>836.101</ele>
        <time>2026-01-14T11:22:23.428Z</time>
      </trkpt>
      <trkpt lon="18.671675" lat="-34.069696">
        <ele>822.861</ele>
        <time>2026-01-14T11:22:25.448Z</time>
      </trkpt>
      <trkpt lon="18.670254" lat="-34.069452">
        <ele>807.77</ele>
        <time>2026-01-14T11:22:28.080Z</time>
      </trkpt>
      <trkpt lon="18.668486" lat="-34.068977">
        <ele>788.908</ele>
        <time>2026-01-14T11:22:31.380Z</time>
      </trkpt>
      <trkpt lon="18.666419" lat="-34.068219">
        <ele>773.135</ele>
        <time>2026-01-14T11:22:35.376Z</time>
      </trkpt>
      <trkpt lon="18.662854" lat="-34.066639">
        <ele>748.057</ele>
        <time>2026-01-14T11:22:42.684Z</time>
      </trkpt>
      <trkpt lon="18.661251" lat="-34.065756">
        <ele>732.421</ele>
        <time>2026-01-14T11:22:45.956Z</time>
      </trkpt>
      <trkpt lon="18.658189" lat="-34.063738">
        <ele>722.61</ele>
        <time>2026-01-14T11:22:51.996Z</time>
      </trkpt>
      <trkpt lon="18.652056" lat="-34.058834">
        <ele>723.775</ele>
        <time>2026-01-14T11:23:04.680Z</time>
      </trkpt>
      <trkpt lon="18.642810" lat="-34.050372">
        <ele>688.041</ele>
        <time>2026-01-14T11:23:24.700Z</time>
      </trkpt>
      <trkpt lon="18.639299" lat="-34.046418">
        <ele>643.323</ele>
        <time>2026-01-14T11:23:32.800Z</time>
      </trkpt>
      <trkpt lon="18.634922" lat="-34.040420">
        <ele>601.067</ele>
        <time>2026-01-14T11:23:44.148Z</time>
      </trkpt>
      <trkpt lon="18.631660" lat="-34.035164">
        <ele>560.269</ele>
        <time>2026-01-14T11:23:53.568Z</time>
      </trkpt>
      <trkpt lon="18.629589" lat="-34.031733">
        <ele>522.6</ele>
        <time>2026-01-14T11:23:59.536Z</time>
      </trkpt>
      <trkpt lon="18.627944" lat="-34.028969">
        <ele>486.155</ele>
        <time>2026-01-14T11:24:04.224Z</time>
      </trkpt>
      <trkpt lon="18.626334" lat="-34.026096">
        <ele>446.627</ele>
        <time>2026-01-14T11:24:08.968Z</time>
      </trkpt>
      <trkpt lon="18.624623" lat="-34.022741">
        <ele>411.066</ele>
        <time>2026-01-14T11:24:14.396Z</time>
      </trkpt>
      <trkpt lon="18.622628" lat="-34.018597">
        <ele>376.761</ele>
        <time>2026-01-14T11:24:21.128Z</time>
      </trkpt>
      <trkpt lon="18.621392" lat="-34.016109">
        <ele>345.743</ele>
        <time>2026-01-14T11:24:25.200Z</time>
      </trkpt>
      <trkpt lon="18.620115" lat="-34.013650">
        <ele>316.947</ele>
        <time>2026-01-14T11:24:29.236Z</time>
      </trkpt>
      <trkpt lon="18.618164" lat="-34.009925">
        <ele>288.398</ele>
        <time>2026-01-14T11:24:35.392Z</time>
      </trkpt>
      <trkpt lon="18.616800" lat="-34.007097">
        <ele>258.685</ele>
        <time>2026-01-14T11:24:40.040Z</time>
      </trkpt>
      <trkpt lon="18.615672" lat="-34.004618">
        <ele>231.894</ele>
        <time>2026-01-14T11:24:44.056Z</time>
      </trkpt>
      <trkpt lon="18.614396" lat="-34.001781">
        <ele>207.305</ele>
        <time>2026-01-14T11:24:48.632Z</time>
      </trkpt>
      <trkpt lon="18.613293" lat="-33.999321">
        <ele>184.178</ele>
        <time>2026-01-14T11:24:52.620Z</time>
      </trkpt>
      <trkpt lon="18.612278" lat="-33.996955">
        <ele>162.754</ele>
        <time>2026-01-14T11:24:56.536Z</time>
      </trkpt>
      <trkpt lon="18.611489" lat="-33.994976">
        <ele>142.888</ele>
        <time>2026-01-14T11:24:59.868Z</time>
      </trkpt>
      <trkpt lon="18.610770" lat="-33.993023">
        <ele>123.595</ele>
        <time>2026-01-14T11:25:03.204Z</time>
      </trkpt>
      <trkpt lon="18.610096" lat="-33.991076">
        <ele>100.803</ele>
        <time>2026-01-14T11:25:06.556Z</time>
      </trkpt>
      <trkpt lon="18.609571" lat="-33.989507">
        <ele>78.7956</ele>
        <time>2026-01-14T11:25:09.252Z</time>
      </trkpt>
      <trkpt lon="18.608951" lat="-33.987635">
        <ele>62.8711</ele>
        <time>2026-01-14T11:25:12.560Z</time>
      </trkpt>
      <trkpt lon="18.608607" lat="-33.986627">
        <ele>58.9159</ele>
        <time>2026-01-14T11:25:14.536Z</time>
      </trkpt>
      <trkpt lon="18.608194" lat="-33.985431">
        <ele>54.685</ele>
        <time>2026-01-14T11:25:17.164Z</time>
      </trkpt>
      <trkpt lon="18.607737" lat="-33.984072">
        <ele>55.275</ele>
        <time>2026-01-14T11:25:20.436Z</time>
      </trkpt>
      <trkpt lon="18.607432" lat="-33.983117">
        <ele>54.7825</ele>
        <time>2026-01-14T11:25:23.104Z</time>
      </trkpt>
      <trkpt lon="18.606920" lat="-33.981521">
        <ele>50.6689</ele>
        <time>2026-01-14T11:25:28.324Z</time>
      </trkpt>
      <trkpt lon="18.604521" lat="-33.973802">
        <ele>49.0145</ele>
        <time>2026-01-14T11:25:57.536Z</time>
      </trkpt>
      <trkpt lon="18.604038" lat="-33.972368">
        <ele>45.7692</ele>
        <time>2026-01-14T11:26:04.132Z</time>
      </trkpt>
      <trkpt lon="18.603873" lat="-33.972027">
        <ele>45.8473</ele>
        <time>2026-01-14T11:26:06.148Z</time>
      </trkpt>
      <trkpt lon="18.603735" lat="-33.971853">
        <ele>46.0647</ele>
        <time>2026-01-14T11:26:07.460Z</time>
      </trkpt>
      <trkpt lon="18.603433" lat="-33.971535">
        <ele>46.443</ele>
        <time>2026-01-14T11:26:10.148Z</time>
      </trkpt>
      <trkpt lon="18.603271" lat="-33.971403">
        <ele>46.5817</ele>
        <time>2026-01-14T11:26:11.476Z</time>
      </trkpt>
      <trkpt lon="18.603104" lat="-33.971300">
        <ele>46.6833</ele>
        <time>2026-01-14T11:26:12.772Z</time>
      </trkpt>
      <trkpt lon="18.602928" lat="-33.971214">
        <ele>46.7582</ele>
        <time>2026-01-14T11:26:14.088Z</time>
      </trkpt>
      <trkpt lon="18.602662" lat="-33.971116">
        <ele>46.8686</ele>
        <time>2026-01-14T11:26:16.064Z</time>
      </trkpt>
      <trkpt lon="18.601866" lat="-33.970891">
        <ele>47.9291</ele>
        <time>2026-01-14T11:26:22.524Z</time>
      </trkpt>
      <trkpt lon="18.601592" lat="-33.970830">
        <ele>48.4717</ele>
        <time>2026-01-14T11:26:25.840Z</time>
      </trkpt>
      <trkpt lon="18.601561" lat="-33.970823">
        <ele>48.5142</ele>
        <time>2026-01-14T11:26:35.916Z</time>
      </trkpt>
      <trkpt lon="18.601440" lat="-33.970796">
        <ele>48.6752</ele>
        <time>2026-01-14T11:28:58.884Z</time>
      </trkpt>
      <trkpt lon="18.601329" lat="-33.970771">
        <ele>48.776</ele>
        <time>2026-01-14T11:29:00.152Z</time>
      </trkpt>
      <trkpt lon="18.600382" lat="-33.970547">
        <ele>48.9255</ele>
        <time>2026-01-14T11:29:07.332Z</time>
      </trkpt>
      <trkpt lon="18.600300" lat="-33.970536">
        <ele>48.9315</ele>
        <time>2026-01-14T11:29:07.992Z</time>
      </trkpt>
      <trkpt lon="18.600139" lat="-33.970530">
        <ele>48.9426</ele>
        <time>2026-01-14T11:29:09.288Z</time>
      </trkpt>
      <trkpt lon="18.600058" lat="-33.970540">
        <ele>48.9498</ele>
        <time>2026-01-14T11:29:09.960Z</time>
      </trkpt>
      <trkpt lon="18.599982" lat="-33.970559">
        <ele>48.9521</ele>
        <time>2026-01-14T11:29:10.632Z</time>
      </trkpt>
      <trkpt lon="18.599912" lat="-33.970585">
        <ele>48.9571</ele>
        <time>2026-01-14T11:29:11.288Z</time>
      </trkpt>
      <trkpt lon="18.599850" lat="-33.970617">
        <ele>48.9603</ele>
        <time>2026-01-14T11:29:12.260Z</time>
      </trkpt>
      <trkpt lon="18.599796" lat="-33.970654">
        <ele>48.9618</ele>
        <time>2026-01-14T11:29:12.880Z</time>
      </trkpt>
      <trkpt lon="18.599740" lat="-33.970700">
        <ele>48.9643</ele>
        <time>2026-01-14T11:29:13.572Z</time>
      </trkpt>
      <trkpt lon="18.599693" lat="-33.970749">
        <ele>48.967</ele>
        <time>2026-01-14T11:29:14.248Z</time>
      </trkpt>
      <trkpt lon="18.599655" lat="-33.970800">
        <ele>48.9673</ele>
        <time>2026-01-14T11:29:14.920Z</time>
      </trkpt>
      <trkpt lon="18.599626" lat="-33.970853">
        <ele>48.9677</ele>
        <time>2026-01-14T11:29:15.576Z</time>
      </trkpt>
      <trkpt lon="18.599604" lat="-33.970911">
        <ele>48.9696</ele>
        <time>2026-01-14T11:29:16.248Z</time>
      </trkpt>
      <trkpt lon="18.599591" lat="-33.970969">
        <ele>48.9692</ele>
        <time>2026-01-14T11:29:16.920Z</time>
      </trkpt>
      <trkpt lon="18.599587" lat="-33.971025">
        <ele>48.9696</ele>
        <time>2026-01-14T11:29:17.564Z</time>
      </trkpt>
      <trkpt lon="18.599593" lat="-33.971084">
        <ele>48.9684</ele>
        <time>2026-01-14T11:29:18.260Z</time>
      </trkpt>
      <trkpt lon="18.599691" lat="-33.971399">
        <ele>48.9605</ele>
        <time>2026-01-14T11:29:22.928Z</time>
      </trkpt>
      <trkpt lon="18.599745" lat="-33.971582">
        <ele>48.969</ele>
        <time>2026-01-14T11:29:25.536Z</time>
      </trkpt>
      <trkpt lon="18.599824" lat="-33.971889">
        <ele>48.966</ele>
        <time>2026-01-14T11:29:28.848Z</time>
      </trkpt>
      <trkpt lon="18.600178" lat="-33.973031">
        <ele>48.9709</ele>
        <time>2026-01-14T11:29:39.448Z</time>
      </trkpt>
      <trkpt lon="18.600513" lat="-33.974084">
        <ele>48.9608</ele>
        <time>2026-01-14T11:29:49.504Z</time>
      </trkpt>
      <trkpt lon="18.600761" lat="-33.974777">
        <ele>48.9409</ele>
        <time>2026-01-14T11:29:56.172Z</time>
      </trkpt>
      <trkpt lon="18.601368" lat="-33.975923">
        <ele>48.9232</ele>
        <time>2026-01-14T11:30:06.816Z</time>
      </trkpt>
      <trkpt lon="18.601792" lat="-33.976866">
        <ele>48.9211</ele>
        <time>2026-01-14T11:30:15.552Z</time>
      </trkpt>
      <trkpt lon="18.601880" lat="-33.977063">
        <ele>48.9199</ele>
        <time>2026-01-14T11:30:18.236Z</time>
      </trkpt>
      <trkpt lon="18.601891" lat="-33.977116">
        <ele>48.9227</ele>
        <time>2026-01-14T11:30:18.892Z</time>
      </trkpt>
      <trkpt lon="18.601892" lat="-33.977172">
        <ele>48.9227</ele>
        <time>2026-01-14T11:30:19.564Z</time>
      </trkpt>
      <trkpt lon="18.601882" lat="-33.977227">
        <ele>48.9282</ele>
        <time>2026-01-14T11:30:20.232Z</time>
      </trkpt>
      <trkpt lon="18.601859" lat="-33.977278">
        <ele>48.9298</ele>
        <time>2026-01-14T11:30:20.908Z</time>
      </trkpt>
      <trkpt lon="18.601820" lat="-33.977329">
        <ele>48.9343</ele>
        <time>2026-01-14T11:30:21.596Z</time>
      </trkpt>
      <trkpt lon="18.601771" lat="-33.977367">
        <ele>48.941</ele>
        <time>2026-01-14T11:30:22.256Z</time>
      </trkpt>
      <trkpt lon="18.601714" lat="-33.977397">
        <ele>48.9476</ele>
        <time>2026-01-14T11:30:22.916Z</time>
      </trkpt>
      <trkpt lon="18.601651" lat="-33.977421">
        <ele>48.9525</ele>
        <time>2026-01-14T11:30:23.584Z</time>
      </trkpt>
      <trkpt lon="18.601238" lat="-33.977531">
        <ele>48.9809</ele>
        <time>2026-01-14T11:30:27.620Z</time>
      </trkpt>
      <trkpt lon="18.601167" lat="-33.977559">
        <ele>48.9821</ele>
        <time>2026-01-14T11:30:28.324Z</time>
      </trkpt>
      <trkpt lon="18.600965" lat="-33.977648">
        <ele>48.9873</ele>
        <time>2026-01-14T11:30:30.332Z</time>
      </trkpt>
      <trkpt lon="18.600891" lat="-33.977670">
        <ele>48.9931</ele>
        <time>2026-01-14T11:30:31.016Z</time>
      </trkpt>
      <trkpt lon="18.600818" lat="-33.977685">
        <ele>48.9915</ele>
        <time>2026-01-14T11:30:31.668Z</time>
      </trkpt>
      <trkpt lon="18.600583" lat="-33.977718">
        <ele>49.0008</ele>
        <time>2026-01-14T11:30:33.688Z</time>
      </trkpt>
      <trkpt lon="18.599400" lat="-33.978072">
        <ele>49.0181</ele>
        <time>2026-01-14T11:30:44.368Z</time>
      </trkpt>
      <trkpt lon="18.598747" lat="-33.978258">
        <ele>49.0145</ele>
        <time>2026-01-14T11:30:50.984Z</time>
      </trkpt>
      <trkpt lon="18.598314" lat="-33.978388">
        <ele>49.0177</ele>
        <time>2026-01-14T11:30:59.004Z</time>
      </trkpt>
      <trkpt lon="18.598284" lat="-33.978392">
        <ele>49.0163</ele>
        <time>2026-01-14T11:30:59.620Z</time>
      </trkpt>
      <trkpt lon="18.598258" lat="-33.978393">
        <ele>49.0188</ele>
        <time>2026-01-14T11:31:00.276Z</time>
      </trkpt>
      <trkpt lon="18.598235" lat="-33.978390">
        <ele>49.0198</ele>
        <time>2026-01-14T11:31:00.912Z</time>
      </trkpt>
      <trkpt lon="18.598212" lat="-33.978383">
        <ele>49.0169</ele>
        <time>2026-01-14T11:31:01.564Z</time>
      </trkpt>
      <trkpt lon="18.598191" lat="-33.978370">
        <ele>49.0196</ele>
        <time>2026-01-14T11:31:02.252Z</time>
      </trkpt>
      <trkpt lon="18.598173" lat="-33.978351">
        <ele>49.0234</ele>
        <time>2026-01-14T11:31:02.888Z</time>
      </trkpt>
      <trkpt lon="18.598156" lat="-33.978317">
        <ele>49.0253</ele>
        <time>2026-01-14T11:31:03.560Z</time>
      </trkpt>
      <trkpt lon="18.598092" lat="-33.977982">
        <ele>49.0249</ele>
        <time>2026-01-14T11:31:06.856Z</time>
      </trkpt>
      <trkpt lon="18.597722" lat="-33.977093">
        <ele>49.0204</ele>
        <time>2026-01-14T11:31:15.500Z</time>
      </trkpt>
      <trkpt lon="18.597555" lat="-33.976723">
        <ele>49.02</ele>
        <time>2026-01-14T11:31:20.756Z</time>
      </trkpt>
      <trkpt lon="18.597517" lat="-33.976629">
        <ele>49.0197</ele>
        <time>2026-01-14T11:31:23.976Z</time>
      </trkpt>
      <trkpt lon="18.597510" lat="-33.976611">
        <ele>49.0255</ele>
        <time>2026-01-14T11:31:37.280Z</time>
      </trkpt>
      <trkpt lon="18.597487" lat="-33.976584">
        <ele>49.024</ele>
        <time>2026-01-14T11:31:37.916Z</time>
      </trkpt>
      <trkpt lon="18.597451" lat="-33.976560">
        <ele>49.0238</ele>
        <time>2026-01-14T11:31:38.572Z</time>
      </trkpt>
      <trkpt lon="18.597415" lat="-33.976548">
        <ele>49.0199</ele>
        <time>2026-01-14T11:31:39.200Z</time>
      </trkpt>
      <trkpt lon="18.597309" lat="-33.976514">
        <ele>49.0193</ele>
        <time>2026-01-14T11:31:41.156Z</time>
      </trkpt>
      <trkpt lon="18.597252" lat="-33.976488">
        <ele>49.0192</ele>
        <time>2026-01-14T11:31:42.432Z</time>
      </trkpt>
      <trkpt lon="18.597202" lat="-33.976457">
        <ele>49.0257</ele>
        <time>2026-01-14T11:31:43.708Z</time>
      </trkpt>
      <trkpt lon="18.597170" lat="-33.976431">
        <ele>49.0235</ele>
        <time>2026-01-14T11:31:44.368Z</time>
      </trkpt>
      <trkpt lon="18.597139" lat="-33.976400">
        <ele>49.0209</ele>
        <time>2026-01-14T11:31:45.000Z</time>
      </trkpt>
      <trkpt lon="18.597112" lat="-33.976368">
        <ele>49.0198</ele>
        <time>2026-01-14T11:31:45.660Z</time>
      </trkpt>
      <trkpt lon="18.597092" lat="-33.976336">
        <ele>49.0203</ele>
        <time>2026-01-14T11:31:46.336Z</time>
      </trkpt>
      <trkpt lon="18.597080" lat="-33.976307">
        <ele>49.0185</ele>
        <time>2026-01-14T11:31:47.012Z</time>
      </trkpt>
      <trkpt lon="18.597072" lat="-33.976279">
        <ele>49.0177</ele>
        <time>2026-01-14T11:31:47.684Z</time>
      </trkpt>
      <trkpt lon="18.597068" lat="-33.976251">
        <ele>49.0196</ele>
        <time>2026-01-14T11:31:48.320Z</time>
      </trkpt>
      <trkpt lon="18.597068" lat="-33.976222">
        <ele>49.0212</ele>
        <time>2026-01-14T11:31:48.948Z</time>
      </trkpt>
      <trkpt lon="18.597075" lat="-33.976188">
        <ele>49.0224</ele>
        <time>2026-01-14T11:31:49.628Z</time>
      </trkpt>
      <trkpt lon="18.597091" lat="-33.976156">
        <ele>49.0221</ele>
        <time>2026-01-14T11:31:50.292Z</time>
      </trkpt>
      <trkpt lon="18.597112" lat="-33.976129">
        <ele>49.0187</ele>
        <time>2026-01-14T11:31:50.964Z</time>
      </trkpt>
      <trkpt lon="18.597133" lat="-33.976112">
        <ele>49.0184</ele>
        <time>2026-01-14T11:31:51.612Z</time>
      </trkpt>
      <trkpt lon="18.597155" lat="-33.976100">
        <ele>49.0184</ele>
        <time>2026-01-14T11:31:52.288Z</time>
      </trkpt>
      <trkpt lon="18.597180" lat="-33.976089">
        <ele>49.0079</ele>
        <time>2026-01-14T11:31:52.972Z</time>
      </trkpt>
      <trkpt lon="18.597206" lat="-33.976080">
        <ele>49.026</ele>
        <time>2026-01-14T11:31:53.628Z</time>
      </trkpt>
      <trkpt lon="18.597231" lat="-33.976075">
        <ele>49.0152</ele>
        <time>2026-01-14T11:31:54.300Z</time>
      </trkpt>
      <trkpt lon="18.597250" lat="-33.976074">
        <ele>49.0145</ele>
        <time>2026-01-14T11:31:54.984Z</time>
      </trkpt>
      <trkpt lon="18.597277" lat="-33.976076">
        <ele>49.0208</ele>
        <time>2026-01-14T11:31:57.000Z</time>
      </trkpt>
      <trkpt lon="18.597290" lat="-33.976079">
        <ele>49.0147</ele>
        <time>2026-01-14T11:31:57.676Z</time>
      </trkpt>
      <trkpt lon="18.597313" lat="-33.976090">
        <ele>49.0173</ele>
        <time>2026-01-14T11:31:59.640Z</time>
      </trkpt>
      <trkpt lon="18.597338" lat="-33.976107">
        <ele>49.0206</ele>
        <time>2026-01-14T11:32:00.984Z</time>
      </trkpt>
      <trkpt lon="18.597352" lat="-33.976119">
        <ele>49.0188</ele>
        <time>2026-01-14T11:32:01.664Z</time>
      </trkpt>
      <trkpt lon="18.597365" lat="-33.976134">
        <ele>49.0192</ele>
        <time>2026-01-14T11:32:02.968Z</time>
      </trkpt>
      <trkpt lon="18.597575" lat="-33.976055">
        <ele>48.4693</ele>
        <time>2026-01-14T21:08:18.384Z</time>
      </trkpt>
    </trkseg>
    <trkseg>
      <trkpt lon="-96.073842" lat="64.293408">
        <ele>19.928</ele>
        <time>2026-01-17T12:50:57.708Z</time>
      </trkpt>
      <trkpt lon="-96.073816" lat="64.293390">
        <ele>20.0409</ele>
        <time>2026-01-17T14:07:24.712Z</time>
      </trkpt>
      <trkpt lon="-96.073722" lat="64.293328">
        <ele>20.0991</ele>
        <time>2026-01-17T14:07:34.900Z</time>
      </trkpt>
      <trkpt lon="-96.073702" lat="64.293315">
        <ele>20.0811</ele>
        <time>2026-01-17T14:09:24.916Z</time>
      </trkpt>
      <trkpt lon="-96.081132" lat="64.304453">
        <ele>20.3315</ele>
        <time>2026-01-17T13:13:44.800Z</time>
      </trkpt>
      <trkpt lon="-96.081112" lat="64.304443">
        <ele>20.9982</ele>
        <time>2026-01-17T13:14:04.952Z</time>
      </trkpt>
      <trkpt lon="-96.081114" lat="64.304431">
        <ele>20.3597</ele>
        <time>2026-01-17T14:13:20.544Z</time>
      </trkpt>
      <trkpt lon="-96.081080" lat="64.304421">
        <ele>20.3119</ele>
        <time>2026-01-17T14:13:46.612Z</time>
      </trkpt>
      <trkpt lon="-96.081062" lat="64.304401">
        <ele>20.3559</ele>
        <time>2026-01-17T14:13:47.264Z</time>
      </trkpt>
      <trkpt lon="-96.080954" lat="64.304315">
        <ele>20.4758</ele>
        <time>2026-01-17T14:13:48.532Z</time>
      </trkpt>
      <trkpt lon="-96.080897" lat="64.304268">
        <ele>20.5131</ele>
        <time>2026-01-17T14:13:49.164Z</time>
      </trkpt>
      <trkpt lon="-96.080957" lat="64.304153">
        <ele>20.8852</ele>
        <time>2026-01-17T14:13:50.460Z</time>
      </trkpt>
      <trkpt lon="-96.080848" lat="64.304101">
        <ele>20.6227</ele>
        <time>2026-01-17T13:27:52.692Z</time>
      </trkpt>
      <trkpt lon="-96.080839" lat="64.304096">
        <ele>20.7459</ele>
        <time>2026-01-17T13:30:29.148Z</time>
      </trkpt>
      <trkpt lon="-96.080776" lat="64.304056">
        <ele>20.7797</ele>
        <time>2026-01-17T14:19:06.948Z</time>
      </trkpt>
      <trkpt lon="-96.080547" lat="64.303927">
        <ele>20.7784</ele>
        <time>2026-01-17T14:19:17.492Z</time>
      </trkpt>
      <trkpt lon="-96.080443" lat="64.303869">
        <ele>20.7888</ele>
        <time>2026-01-17T14:19:26.072Z</time>
      </trkpt>
      <trkpt lon="-96.080362" lat="64.303812">
        <ele>20.7198</ele>
        <time>2026-01-17T14:19:28.784Z</time>
      </trkpt>
      <trkpt lon="-96.080320" lat="64.303773">
        <ele>20.6285</ele>
        <time>2026-01-17T14:19:30.792Z</time>
      </trkpt>
      <trkpt lon="-96.080302" lat="64.303752">
        <ele>20.5873</ele>
        <time>2026-01-17T14:19:34.192Z</time>
      </trkpt>
      <trkpt lon="-96.080275" lat="64.303705">
        <ele>20.554</ele>
        <time>2026-01-17T14:19:42.332Z</time>
      </trkpt>
      <trkpt lon="-96.080262" lat="64.303664">
        <ele>20.5933</ele>
        <time>2026-01-17T14:19:43.704Z</time>
      </trkpt>
      <trkpt lon="-96.080257" lat="64.303610">
        <ele>20.6362</ele>
        <time>2026-01-17T14:19:45.060Z</time>
      </trkpt>
      <trkpt lon="-96.080271" lat="64.303554">
        <ele>20.6992</ele>
        <time>2026-01-17T14:19:46.404Z</time>
      </trkpt>
      <trkpt lon="-96.080300" lat="64.303497">
        <ele>20.6987</ele>
        <time>2026-01-17T14:19:47.728Z</time>
      </trkpt>
      <trkpt lon="-96.080349" lat="64.303441">
        <ele>20.7994</ele>
        <time>2026-01-17T14:19:49.044Z</time>
      </trkpt>
      <trkpt lon="-96.080457" lat="64.303343">
        <ele>20.84</ele>
        <time>2026-01-17T14:19:51.040Z</time>
      </trkpt>
      <trkpt lon="-96.080492" lat="64.303317">
        <ele>20.8475</ele>
        <time>2026-01-17T14:19:51.684Z</time>
      </trkpt>
      <trkpt lon="-96.080707" lat="64.303197">
        <ele>20.7567</ele>
        <time>2026-01-17T14:19:55.084Z</time>
      </trkpt>
      <trkpt lon="-96.080773" lat="64.303160">
        <ele>20.7077</ele>
        <time>2026-01-17T14:19:56.436Z</time>
      </trkpt>
      <trkpt lon="-96.080816" lat="64.303126">
        <ele>20.6841</ele>
        <time>2026-01-17T14:19:57.804Z</time>
      </trkpt>
      <trkpt lon="-96.080846" lat="64.303095">
        <ele>20.6564</ele>
        <time>2026-01-17T14:19:59.148Z</time>
      </trkpt>
      <trkpt lon="-96.080857" lat="64.303071">
        <ele>20.6377</ele>
        <time>2026-01-17T14:20:00.476Z</time>
      </trkpt>
      <trkpt lon="-96.080859" lat="64.303045">
        <ele>20.6177</ele>
        <time>2026-01-17T14:20:01.788Z</time>
      </trkpt>
      <trkpt lon="-96.080855" lat="64.303031">
        <ele>20.6009</ele>
        <time>2026-01-17T14:20:02.460Z</time>
      </trkpt>
      <trkpt lon="-96.080847" lat="64.303016">
        <ele>20.576</ele>
        <time>2026-01-17T14:20:03.116Z</time>
      </trkpt>
      <trkpt lon="-96.080833" lat="64.303000">
        <ele>20.5484</ele>
        <time>2026-01-17T14:20:03.816Z</time>
      </trkpt>
      <trkpt lon="-96.080813" lat="64.302981">
        <ele>20.5229</ele>
        <time>2026-01-17T14:20:14.292Z</time>
      </trkpt>
      <trkpt lon="-96.080725" lat="64.302887">
        <ele>20.3819</ele>
        <time>2026-01-17T14:22:44.036Z</time>
      </trkpt>
      <trkpt lon="-96.080555" lat="64.302675">
        <ele>20.1341</ele>
        <time>2026-01-17T14:22:46.060Z</time>
      </trkpt>
      <trkpt lon="-96.080307" lat="64.302356">
        <ele>19.9584</ele>
        <time>2026-01-17T14:22:48.044Z</time>
      </trkpt>
      <trkpt lon="-96.079848" lat="64.301810">
        <ele>20.3745</ele>
        <time>2026-01-17T14:22:50.620Z</time>
      </trkpt>
      <trkpt lon="-96.079287" lat="64.301120">
        <ele>20.0056</ele>
        <time>2026-01-17T14:22:53.208Z</time>
      </trkpt>
      <trkpt lon="-96.078615" lat="64.300263">
        <ele>20.3231</ele>
        <time>2026-01-17T14:22:55.856Z</time>
      </trkpt>
      <trkpt lon="-96.077869" lat="64.299264">
        <ele>20.2315</ele>
        <time>2026-01-17T14:22:58.536Z</time>
      </trkpt>
      <trkpt lon="-96.076817" lat="64.297893">
        <ele>20.662</ele>
        <time>2026-01-17T14:23:01.816Z</time>
      </trkpt>
      <trkpt lon="-96.075426" lat="64.296052">
        <ele>18.1734</ele>
        <time>2026-01-17T14:23:05.776Z</time>
      </trkpt>
      <trkpt lon="-96.073412" lat="64.293440">
        <ele>34.5846</ele>
        <time>2026-01-17T14:23:11.024Z</time>
      </trkpt>
      <trkpt lon="-96.072567" lat="64.292531">
        <ele>55.4694</ele>
        <time>2026-01-17T14:23:12.992Z</time>
      </trkpt>
      <trkpt lon="-96.070046" lat="64.290215">
        <ele>75.1833</ele>
        <time>2026-01-17T14:23:18.184Z</time>
      </trkpt>
      <trkpt lon="-96.068601" lat="64.289011">
        <ele>98.344</ele>
        <time>2026-01-17T14:23:20.904Z</time>
      </trkpt>
      <trkpt lon="-96.067538" lat="64.288237">
        <ele>123.595</ele>
        <time>2026-01-17T14:23:22.824Z</time>
      </trkpt>
      <trkpt lon="-96.066461" lat="64.287427">
        <ele>144.634</ele>
        <time>2026-01-17T14:23:24.800Z</time>
      </trkpt>
      <trkpt lon="-96.064910" lat="64.286369">
        <ele>168.94</ele>
        <time>2026-01-17T14:23:27.448Z</time>
      </trkpt>
      <trkpt lon="-96.064134" lat="64.285862">
        <ele>182.313</ele>
        <time>2026-01-17T14:23:28.760Z</time>
      </trkpt>
      <trkpt lon="-96.062557" lat="64.284815">
        <ele>203.091</ele>
        <time>2026-01-17T14:23:31.380Z</time>
      </trkpt>
      <trkpt lon="-96.061808" lat="64.284320">
        <ele>218.761</ele>
        <time>2026-01-17T14:23:32.668Z</time>
      </trkpt>
      <trkpt lon="-96.060260" lat="64.283025">
        <ele>244.306</ele>
        <time>2026-01-17T14:24:03.228Z</time>
      </trkpt>
      <trkpt lon="-96.059304" lat="64.282386">
        <ele>273.93</ele>
        <time>2026-01-17T14:24:04.808Z</time>
      </trkpt>
      <trkpt lon="-96.058852" lat="64.282162">
        <ele>283.965</ele>
        <time>2026-01-17T14:24:05.620Z</time>
      </trkpt>
      <trkpt lon="-96.058225" lat="64.281945">
        <ele>292.222</ele>
        <time>2026-01-17T14:24:06.292Z</time>
      </trkpt>
      <trkpt lon="-96.056840" lat="64.281595">
        <ele>277.366</ele>
        <time>2026-01-17T14:24:36.036Z</time>
      </trkpt>
      <trkpt lon="-96.056091" lat="64.281211">
        <ele>246.903</ele>
        <time>2026-01-17T14:24:36.992Z</time>
      </trkpt>
      <trkpt lon="-96.055272" lat="64.280632">
        <ele>216.686</ele>
        <time>2026-01-17T14:24:38.336Z</time>
      </trkpt>
      <trkpt lon="-96.054964" lat="64.280329">
        <ele>202.832</ele>
        <time>2026-01-17T14:24:38.976Z</time>
      </trkpt>
      <trkpt lon="-96.054687" lat="64.279977">
        <ele>190.935</ele>
        <time>2026-01-17T14:24:39.648Z</time>
      </trkpt>
      <trkpt lon="-96.053466" lat="64.277858">
        <ele>179.489</ele>
        <time>2026-01-17T14:24:47.684Z</time>
      </trkpt>
      <trkpt lon="-96.052055" lat="64.275782">
        <ele>185.365</ele>
        <time>2026-01-17T14:24:51.016Z</time>
      </trkpt>
      <trkpt lon="-96.051337" lat="64.274964">
        <ele>186.592</ele>
        <time>2026-01-17T14:24:52.308Z</time>
      </trkpt>
      <trkpt lon="-96.050356" lat="64.274165">
        <ele>191.126</ele>
        <time>2026-01-17T14:24:53.624Z</time>
      </trkpt>
      <trkpt lon="-96.049113" lat="64.273417">
        <ele>200.284</ele>
        <time>2026-01-17T14:24:54.944Z</time>
      </trkpt>
      <trkpt lon="-96.047684" lat="64.272720">
        <ele>208.942</ele>
        <time>2026-01-17T14:24:56.264Z</time>
      </trkpt>
      <trkpt lon="-96.046112" lat="64.272085">
        <ele>216.753</ele>
        <time>2026-01-17T14:24:57.580Z</time>
      </trkpt>
      <trkpt lon="-96.042619" lat="64.270978">
        <ele>234.363</ele>
        <time>2026-01-17T14:25:00.172Z</time>
      </trkpt>
      <trkpt lon="-96.037882" lat="64.269794">
        <ele>258.929</ele>
        <time>2026-01-17T14:25:03.420Z</time>
      </trkpt>
      <trkpt lon="-96.032823" lat="64.268739">
        <ele>290.276</ele>
        <time>2026-01-17T14:25:06.768Z</time>
      </trkpt>
      <trkpt lon="-96.028789" lat="64.268053">
        <ele>316.236</ele>
        <time>2026-01-17T14:25:09.380Z</time>
      </trkpt>
      <trkpt lon="-96.025633" lat="64.267677">
        <ele>333.633</ele>
        <time>2026-01-17T14:25:11.360Z</time>
      </trkpt>
      <trkpt lon="-96.023449" lat="64.267523">
        <ele>341.842</ele>
        <time>2026-01-17T14:25:12.696Z</time>
      </trkpt>
      <trkpt lon="-96.021330" lat="64.267474">
        <ele>347.696</ele>
        <time>2026-01-17T14:25:13.968Z</time>
      </trkpt>
      <trkpt lon="-96.019056" lat="64.267531">
        <ele>353.773</ele>
        <time>2026-01-17T14:25:15.332Z</time>
      </trkpt>
      <trkpt lon="-96.016893" lat="64.267674">
        <ele>358.472</ele>
        <time>2026-01-17T14:25:16.632Z</time>
      </trkpt>
      <trkpt lon="-96.014741" lat="64.267896">
        <ele>361.422</ele>
        <time>2026-01-17T14:25:17.944Z</time>
      </trkpt>
      <trkpt lon="-96.011561" lat="64.268367">
        <ele>365.491</ele>
        <time>2026-01-17T14:25:19.924Z</time>
      </trkpt>
      <trkpt lon="-96.007514" lat="64.269156">
        <ele>378.55</ele>
        <time>2026-01-17T14:25:22.540Z</time>
      </trkpt>
      <trkpt lon="-96.004590" lat="64.269860">
        <ele>394.656</ele>
        <time>2026-01-17T14:25:24.520Z</time>
      </trkpt>
      <trkpt lon="-96.001036" lat="64.270900">
        <ele>422.337</ele>
        <time>2026-01-17T14:25:27.136Z</time>
      </trkpt>
      <trkpt lon="-95.998579" lat="64.271772">
        <ele>447.303</ele>
        <time>2026-01-17T14:25:29.120Z</time>
      </trkpt>
      <trkpt lon="-95.994931" lat="64.273267">
        <ele>491.931</ele>
        <time>2026-01-17T14:25:32.412Z</time>
      </trkpt>
      <trkpt lon="-95.991469" lat="64.274672">
        <ele>540.01</ele>
        <time>2026-01-17T14:25:35.728Z</time>
      </trkpt>
      <trkpt lon="-95.988131" lat="64.275963">
        <ele>583.897</ele>
        <time>2026-01-17T14:25:39.020Z</time>
      </trkpt>
      <trkpt lon="-95.983551" lat="64.277655">
        <ele>631.141</ele>
        <time>2026-01-17T14:25:43.580Z</time>
      </trkpt>
      <trkpt lon="-95.973829" lat="64.281032">
        <ele>673.372</ele>
        <time>2026-01-17T14:25:52.712Z</time>
      </trkpt>
      <trkpt lon="-95.964203" lat="64.284634">
        <ele>692.547</ele>
        <time>2026-01-17T14:26:01.216Z</time>
      </trkpt>
      <trkpt lon="-95.955335" lat="64.288124">
        <ele>741.4</ele>
        <time>2026-01-17T14:26:08.996Z</time>
      </trkpt>
      <trkpt lon="-95.949594" lat="64.290415">
        <ele>793.611</ele>
        <time>2026-01-17T14:26:14.236Z</time>
      </trkpt>
      <trkpt lon="-95.944479" lat="64.292745">
        <ele>848.063</ele>
        <time>2026-01-17T14:26:19.460Z</time>
      </trkpt>
      <trkpt lon="-95.941140" lat="64.294634">
        <ele>880.437</ele>
        <time>2026-01-17T14:26:23.412Z</time>
      </trkpt>
      <trkpt lon="-95.937806" lat="64.296975">
        <ele>905.59</ele>
        <time>2026-01-17T14:26:28.012Z</time>
      </trkpt>
      <trkpt lon="-95.933680" lat="64.300985">
        <ele>930.405</ele>
        <time>2026-01-17T14:26:35.240Z</time>
      </trkpt>
      <trkpt lon="-95.928077" lat="64.307805">
        <ele>990.121</ele>
        <time>2026-01-17T14:26:47.028Z</time>
      </trkpt>
      <trkpt lon="-95.924387" lat="64.312157">
        <ele>1050.75</ele>
        <time>2026-01-17T14:26:54.908Z</time>
      </trkpt>
      <trkpt lon="-95.920105" lat="64.316688">
        <ele>1103.62</ele>
        <time>2026-01-17T14:27:03.484Z</time>
      </trkpt>
      <trkpt lon="-95.917667" lat="64.318735">
        <ele>1116.31</ele>
        <time>2026-01-17T14:27:07.456Z</time>
      </trkpt>
      <trkpt lon="-95.912930" lat="64.321673">
        <ele>1123.61</ele>
        <time>2026-01-17T14:27:13.388Z</time>
      </trkpt>
      <trkpt lon="-95.906686" lat="64.324783">
        <ele>1158.2</ele>
        <time>2026-01-17T14:27:19.908Z</time>
      </trkpt>
      <trkpt lon="-95.905162" lat="64.325788">
        <ele>1179.9</ele>
        <time>2026-01-17T14:27:21.860Z</time>
      </trkpt>
      <trkpt lon="-95.903534" lat="64.327165">
        <ele>1207.27</ele>
        <time>2026-01-17T14:27:24.436Z</time>
      </trkpt>
      <trkpt lon="-95.902235" lat="64.328589">
        <ele>1234.74</ele>
        <time>2026-01-17T14:27:27.084Z</time>
      </trkpt>
      <trkpt lon="-95.901556" lat="64.329693">
        <ele>1253.95</ele>
        <time>2026-01-17T14:27:29.104Z</time>
      </trkpt>
      <trkpt lon="-95.901195" lat="64.330772">
        <ele>1271.36</ele>
        <time>2026-01-17T14:27:31.084Z</time>
      </trkpt>
      <trkpt lon="-95.901145" lat="64.331816">
        <ele>1288.26</ele>
        <time>2026-01-17T14:27:33.016Z</time>
      </trkpt>
      <trkpt lon="-95.901386" lat="64.332843">
        <ele>1304.75</ele>
        <time>2026-01-17T14:27:34.976Z</time>
      </trkpt>
      <trkpt lon="-95.901990" lat="64.334508">
        <ele>1325.23</ele>
        <time>2026-01-17T14:27:38.244Z</time>
      </trkpt>
      <trkpt lon="-95.902117" lat="64.335507">
        <ele>1335.04</ele>
        <time>2026-01-17T14:27:40.224Z</time>
      </trkpt>
      <trkpt lon="-95.901983" lat="64.336498">
        <ele>1344.78</ele>
        <time>2026-01-17T14:27:42.200Z</time>
      </trkpt>
      <trkpt lon="-95.901458" lat="64.337791">
        <ele>1358.68</ele>
        <time>2026-01-17T14:27:44.820Z</time>
      </trkpt>
      <trkpt lon="-95.896894" lat="64.343725">
        <ele>1435.22</ele>
        <time>2026-01-17T14:27:57.368Z</time>
      </trkpt>
      <trkpt lon="-95.891601" lat="64.349800">
        <ele>1470.95</ele>
        <time>2026-01-17T14:28:10.024Z</time>
      </trkpt>
      <trkpt lon="-95.888124" lat="64.353962">
        <ele>1470.13</ele>
        <time>2026-01-17T14:28:17.804Z</time>
      </trkpt>
      <trkpt lon="-95.884445" lat="64.358521">
        <ele>1462.58</ele>
        <time>2026-01-17T14:28:25.628Z</time>
      </trkpt>
      <trkpt lon="-95.880177" lat="64.363933">
        <ele>1448.83</ele>
        <time>2026-01-17T14:28:34.212Z</time>
      </trkpt>
      <trkpt lon="-95.874904" lat="64.369545">
        <ele>1432.31</ele>
        <time>2026-01-17T14:28:42.724Z</time>
      </trkpt>
      <trkpt lon="-95.872357" lat="64.371693">
        <ele>1423.94</ele>
        <time>2026-01-17T14:28:45.968Z</time>
      </trkpt>
      <trkpt lon="-95.869893" lat="64.373312">
        <ele>1420.78</ele>
        <time>2026-01-17T14:28:48.544Z</time>
      </trkpt>
      <trkpt lon="-95.866881" lat="64.374877">
        <ele>1420.02</ele>
        <time>2026-01-17T14:28:51.216Z</time>
      </trkpt>
      <trkpt lon="-95.863496" lat="64.376278">
        <ele>1420.47</ele>
        <time>2026-01-17T14:28:53.836Z</time>
      </trkpt>
      <trkpt lon="-95.859750" lat="64.377515">
        <ele>1421.25</ele>
        <time>2026-01-17T14:28:56.440Z</time>
      </trkpt>
      <trkpt lon="-95.855573" lat="64.378602">
        <ele>1422.24</ele>
        <time>2026-01-17T14:28:59.096Z</time>
      </trkpt>
      <trkpt lon="-95.851095" lat="64.379501">
        <ele>1422.38</ele>
        <time>2026-01-17T14:29:01.744Z</time>
      </trkpt>
      <trkpt lon="-95.846403" lat="64.380190">
        <ele>1422.69</ele>
        <time>2026-01-17T14:29:04.360Z</time>
      </trkpt>
      <trkpt lon="-95.841484" lat="64.380672">
        <ele>1423.08</ele>
        <time>2026-01-17T14:29:06.988Z</time>
      </trkpt>
      <trkpt lon="-95.836409" lat="64.380938">
        <ele>1423.61</ele>
        <time>2026-01-17T14:29:09.608Z</time>
      </trkpt>
      <trkpt lon="-95.831182" lat="64.380981">
        <ele>1424.41</ele>
        <time>2026-01-17T14:29:12.248Z</time>
      </trkpt>
      <trkpt lon="-95.825958" lat="64.380803">
        <ele>1425.28</ele>
        <time>2026-01-17T14:29:14.876Z</time>
      </trkpt>
      <trkpt lon="-95.820772" lat="64.380409">
        <ele>1425.79</ele>
        <time>2026-01-17T14:29:17.476Z</time>
      </trkpt>
      <trkpt lon="-95.815497" lat="64.379778">
        <ele>1426.24</ele>
        <time>2026-01-17T14:29:20.140Z</time>
      </trkpt>
      <trkpt lon="-95.810483" lat="64.378954">
        <ele>1426.66</ele>
        <time>2026-01-17T14:29:22.732Z</time>
      </trkpt>
      <trkpt lon="-95.805499" lat="64.377904">
        <ele>1427.11</ele>
        <time>2026-01-17T14:29:25.380Z</time>
      </trkpt>
      <trkpt lon="-95.800753" lat="64.376662">
        <ele>1427.66</ele>
        <time>2026-01-17T14:29:28.004Z</time>
      </trkpt>
      <trkpt lon="-95.796188" lat="64.375214">
        <ele>1428.46</ele>
        <time>2026-01-17T14:29:30.656Z</time>
      </trkpt>
      <trkpt lon="-95.788760" lat="64.372386">
        <ele>1431.51</ele>
        <time>2026-01-17T14:29:35.232Z</time>
      </trkpt>
      <trkpt lon="-95.759408" lat="64.359925">
        <ele>1430.58</ele>
        <time>2026-01-17T14:29:53.584Z</time>
      </trkpt>
      <trkpt lon="-95.708955" lat="64.338599">
        <ele>1428.38</ele>
        <time>2026-01-17T14:30:23.764Z</time>
      </trkpt>
      <trkpt lon="-95.688623" lat="64.331368">
        <ele>1428.39</ele>
        <time>2026-01-17T14:30:34.876Z</time>
      </trkpt>
      <trkpt lon="-95.664079" lat="64.324000">
        <ele>1425.69</ele>
        <time>2026-01-17T14:30:47.468Z</time>
      </trkpt>
      <trkpt lon="-95.645305" lat="64.319163">
        <ele>1425.74</ele>
        <time>2026-01-17T14:30:56.664Z</time>
      </trkpt>
      <trkpt lon="-95.635541" lat="64.317169">
        <ele>1426.28</ele>
        <time>2026-01-17T14:31:01.224Z</time>
      </trkpt>
      <trkpt lon="-95.625405" lat="64.315559">
        <ele>1426.63</ele>
        <time>2026-01-17T14:31:05.796Z</time>
      </trkpt>
      <trkpt lon="-95.614810" lat="64.314320">
        <ele>1427.45</ele>
        <time>2026-01-17T14:31:10.480Z</time>
      </trkpt>
      <trkpt lon="-95.604262" lat="64.313500">
        <ele>1428.11</ele>
        <time>2026-01-17T14:31:15.080Z</time>
      </trkpt>
      <trkpt lon="-95.593720" lat="64.313080">
        <ele>1427.84</ele>
        <time>2026-01-17T14:31:19.660Z</time>
      </trkpt>
      <trkpt lon="-95.578846" lat="64.313064">
        <ele>1422.28</ele>
        <time>2026-01-17T14:31:26.136Z</time>
      </trkpt>
      <trkpt lon="-95.510498" lat="64.315081">
        <ele>1417.28</ele>
        <time>2026-01-17T14:31:56.348Z</time>
      </trkpt>
      <trkpt lon="-95.442722" lat="64.317176">
        <ele>1418.42</ele>
        <time>2026-01-17T14:32:26.492Z</time>
      </trkpt>
      <trkpt lon="-95.374327" lat="64.317951">
        <ele>1417.34</ele>
        <time>2026-01-17T14:32:56.816Z</time>
      </trkpt>
      <trkpt lon="-95.305603" lat="64.317411">
        <ele>1418.97</ele>
        <time>2026-01-17T14:33:27.064Z</time>
      </trkpt>
      <trkpt lon="-95.236486" lat="64.316067">
        <ele>1415.96</ele>
        <time>2026-01-17T14:33:57.368Z</time>
      </trkpt>
      <trkpt lon="-95.166974" lat="64.314467">
        <ele>1420.1</ele>
        <time>2026-01-17T14:34:27.708Z</time>
      </trkpt>
      <trkpt lon="-95.098080" lat="64.313135">
        <ele>1416.4</ele>
        <time>2026-01-17T14:34:57.796Z</time>
      </trkpt>
      <trkpt lon="-95.029018" lat="64.312319">
        <ele>1415.41</ele>
        <time>2026-01-17T14:35:28.036Z</time>
      </trkpt>
      <trkpt lon="-94.959942" lat="64.311950">
        <ele>1415.89</ele>
        <time>2026-01-17T14:35:58.320Z</time>
      </trkpt>
      <trkpt lon="-94.891205" lat="64.311830">
        <ele>1414.36</ele>
        <time>2026-01-17T14:36:28.448Z</time>
      </trkpt>
      <trkpt lon="-94.822431" lat="64.311771">
        <ele>1415.63</ele>
        <time>2026-01-17T14:36:58.548Z</time>
      </trkpt>
      <trkpt lon="-94.753415" lat="64.311657">
        <ele>1417.42</ele>
        <time>2026-01-17T14:37:29.012Z</time>
      </trkpt>
      <trkpt lon="-94.683845" lat="64.311403">
        <ele>1409.06</ele>
        <time>2026-01-17T14:37:59.312Z</time>
      </trkpt>
      <trkpt lon="-94.614683" lat="64.310883">
        <ele>1409.63</ele>
        <time>2026-01-17T14:38:29.692Z</time>
      </trkpt>
      <trkpt lon="-94.546351" lat="64.310278">
        <ele>1406.62</ele>
        <time>2026-01-17T14:38:59.776Z</time>
      </trkpt>
      <trkpt lon="-94.478023" lat="64.309535">
        <ele>1406.71</ele>
        <time>2026-01-17T14:39:29.828Z</time>
      </trkpt>
      <trkpt lon="-94.409165" lat="64.308785">
        <ele>1406.77</ele>
        <time>2026-01-17T14:40:00.096Z</time>
      </trkpt>
      <trkpt lon="-94.340388" lat="64.308113">
        <ele>1408.83</ele>
        <time>2026-01-17T14:40:30.268Z</time>
      </trkpt>
      <trkpt lon="-94.271456" lat="64.307432">
        <ele>1406.2</ele>
        <time>2026-01-17T14:41:00.572Z</time>
      </trkpt>
      <trkpt lon="-94.203100" lat="64.306833">
        <ele>1407.39</ele>
        <time>2026-01-17T14:41:30.692Z</time>
      </trkpt>
      <trkpt lon="-94.133720" lat="64.306353">
        <ele>1406.55</ele>
        <time>2026-01-17T14:42:01.228Z</time>
      </trkpt>
      <trkpt lon="-94.064626" lat="64.305949">
        <ele>1410.83</ele>
        <time>2026-01-17T14:42:31.612Z</time>
      </trkpt>
      <trkpt lon="-93.996381" lat="64.305541">
        <ele>1406.79</ele>
        <time>2026-01-17T14:43:01.644Z</time>
      </trkpt>
      <trkpt lon="-93.927366" lat="64.305095">
        <ele>1403.13</ele>
        <time>2026-01-17T14:43:31.804Z</time>
      </trkpt>
      <trkpt lon="-93.857949" lat="64.304561">
        <ele>1402.58</ele>
        <time>2026-01-17T14:44:02.116Z</time>
      </trkpt>
      <trkpt lon="-93.788741" lat="64.304008">
        <ele>1404.1</ele>
        <time>2026-01-17T14:44:32.416Z</time>
      </trkpt>
      <trkpt lon="-93.719698" lat="64.303553">
        <ele>1403.2</ele>
        <time>2026-01-17T14:45:02.540Z</time>
      </trkpt>
      <trkpt lon="-93.649921" lat="64.303093">
        <ele>1404.19</ele>
        <time>2026-01-17T14:45:33.140Z</time>
      </trkpt>
      <trkpt lon="-93.580718" lat="64.302666">
        <ele>1405.44</ele>
        <time>2026-01-17T14:46:03.488Z</time>
      </trkpt>
      <trkpt lon="-93.511685" lat="64.302155">
        <ele>1401.18</ele>
        <time>2026-01-17T14:46:33.840Z</time>
      </trkpt>
      <trkpt lon="-93.442804" lat="64.301615">
        <ele>1400.38</ele>
        <time>2026-01-17T14:47:04.084Z</time>
      </trkpt>
      <trkpt lon="-93.374114" lat="64.301082">
        <ele>1403.71</ele>
        <time>2026-01-17T14:47:34.228Z</time>
      </trkpt>
      <trkpt lon="-93.305572" lat="64.300531">
        <ele>1400.66</ele>
        <time>2026-01-17T14:48:04.276Z</time>
      </trkpt>
      <trkpt lon="-93.236107" lat="64.299966">
        <ele>1400.91</ele>
        <time>2026-01-17T14:48:34.624Z</time>
      </trkpt>
      <trkpt lon="-93.167061" lat="64.299432">
        <ele>1402.65</ele>
        <time>2026-01-17T14:49:04.796Z</time>
      </trkpt>
      <trkpt lon="-93.097361" lat="64.298815">
        <ele>1395.2</ele>
        <time>2026-01-17T14:49:35.184Z</time>
      </trkpt>
      <trkpt lon="-93.028247" lat="64.298218">
        <ele>1395.57</ele>
        <time>2026-01-17T14:50:05.392Z</time>
      </trkpt>
      <trkpt lon="-92.959368" lat="64.297730">
        <ele>1394.33</ele>
        <time>2026-01-17T14:50:35.584Z</time>
      </trkpt>
      <trkpt lon="-92.890151" lat="64.297226">
        <ele>1394.37</ele>
        <time>2026-01-17T14:51:05.968Z</time>
      </trkpt>
      <trkpt lon="-92.821221" lat="64.296709">
        <ele>1395.04</ele>
        <time>2026-01-17T14:51:36.248Z</time>
      </trkpt>
      <trkpt lon="-92.752401" lat="64.296221">
        <ele>1396.16</ele>
        <time>2026-01-17T14:52:06.464Z</time>
      </trkpt>
      <trkpt lon="-92.683099" lat="64.295781">
        <ele>1394.53</ele>
        <time>2026-01-17T14:52:36.764Z</time>
      </trkpt>
      <trkpt lon="-92.613701" lat="64.295324">
        <ele>1394.94</ele>
        <time>2026-01-17T14:53:07.140Z</time>
      </trkpt>
      <trkpt lon="-92.544433" lat="64.294866">
        <ele>1395.82</ele>
        <time>2026-01-17T14:53:37.456Z</time>
      </trkpt>
      <trkpt lon="-92.474738" lat="64.294382">
        <ele>1394.34</ele>
        <time>2026-01-17T14:54:07.932Z</time>
      </trkpt>
      <trkpt lon="-92.405553" lat="64.293847">
        <ele>1395.23</ele>
        <time>2026-01-17T14:54:38.292Z</time>
      </trkpt>
      <trkpt lon="-92.336582" lat="64.293240">
        <ele>1386.37</ele>
        <time>2026-01-17T14:55:08.548Z</time>
      </trkpt>
      <trkpt lon="-92.267480" lat="64.292644">
        <ele>1384.78</ele>
        <time>2026-01-17T14:55:38.888Z</time>
      </trkpt>
      <trkpt lon="-92.199158" lat="64.292114">
        <ele>1387.84</ele>
        <time>2026-01-17T14:56:08.892Z</time>
      </trkpt>
      <trkpt lon="-92.130220" lat="64.291536">
        <ele>1387.34</ele>
        <time>2026-01-17T14:56:39.168Z</time>
      </trkpt>
      <trkpt lon="-92.061676" lat="64.291001">
        <ele>1385.88</ele>
        <time>2026-01-17T14:57:09.364Z</time>
      </trkpt>
      <trkpt lon="-91.993160" lat="64.290487">
        <ele>1386.08</ele>
        <time>2026-01-17T14:57:39.588Z</time>
      </trkpt>
      <trkpt lon="-91.924521" lat="64.289980">
        <ele>1383.84</ele>
        <time>2026-01-17T14:58:09.916Z</time>
      </trkpt>
      <trkpt lon="-91.855778" lat="64.289483">
        <ele>1386.77</ele>
        <time>2026-01-17T14:58:40.176Z</time>
      </trkpt>
      <trkpt lon="-91.787279" lat="64.288990">
        <ele>1385.38</ele>
        <time>2026-01-17T14:59:10.452Z</time>
      </trkpt>
      <trkpt lon="-91.718710" lat="64.288513">
        <ele>1385.18</ele>
        <time>2026-01-17T14:59:40.752Z</time>
      </trkpt>
      <trkpt lon="-91.649609" lat="64.288089">
        <ele>1385.11</ele>
        <time>2026-01-17T15:00:11.172Z</time>
      </trkpt>
      <trkpt lon="-91.581176" lat="64.287733">
        <ele>1385.53</ele>
        <time>2026-01-17T15:00:41.316Z</time>
      </trkpt>
      <trkpt lon="-91.512109" lat="64.287469">
        <ele>1375.58</ele>
        <time>2026-01-17T15:01:11.596Z</time>
      </trkpt>
      <trkpt lon="-91.443465" lat="64.287263">
        <ele>1379.15</ele>
        <time>2026-01-17T15:01:41.800Z</time>
      </trkpt>
      <trkpt lon="-91.375267" lat="64.287106">
        <ele>1377.38</ele>
        <time>2026-01-17T15:02:11.908Z</time>
      </trkpt>
      <trkpt lon="-91.306742" lat="64.287099">
        <ele>1376.17</ele>
        <time>2026-01-17T15:02:42.236Z</time>
      </trkpt>
      <trkpt lon="-91.239159" lat="64.287173">
        <ele>1379.88</ele>
        <time>2026-01-17T15:03:12.348Z</time>
      </trkpt>
      <trkpt lon="-91.171197" lat="64.287180">
        <ele>1374.61</ele>
        <time>2026-01-17T15:03:42.544Z</time>
      </trkpt>
      <trkpt lon="-91.103224" lat="64.287319">
        <ele>1378.59</ele>
        <time>2026-01-17T15:04:12.816Z</time>
      </trkpt>
      <trkpt lon="-91.035399" lat="64.287492">
        <ele>1377.39</ele>
        <time>2026-01-17T15:04:42.940Z</time>
      </trkpt>
      <trkpt lon="-90.967527" lat="64.287706">
        <ele>1377.75</ele>
        <time>2026-01-17T15:05:13.064Z</time>
      </trkpt>
      <trkpt lon="-90.899317" lat="64.287936">
        <ele>1376.86</ele>
        <time>2026-01-17T15:05:43.204Z</time>
      </trkpt>
      <trkpt lon="-90.831316" lat="64.288170">
        <ele>1376.97</ele>
        <time>2026-01-17T15:06:13.312Z</time>
      </trkpt>
      <trkpt lon="-90.762974" lat="64.288495">
        <ele>1372.92</ele>
        <time>2026-01-17T15:06:43.424Z</time>
      </trkpt>
      <trkpt lon="-90.694057" lat="64.288908">
        <ele>1368.57</ele>
        <time>2026-01-17T15:07:13.688Z</time>
      </trkpt>
      <trkpt lon="-90.625648" lat="64.289383">
        <ele>1370.78</ele>
        <time>2026-01-17T15:07:43.856Z</time>
      </trkpt>
      <trkpt lon="-90.556273" lat="64.289909">
        <ele>1370.33</ele>
        <time>2026-01-17T15:08:14.500Z</time>
      </trkpt>
      <trkpt lon="-90.488132" lat="64.290442">
        <ele>1368.49</ele>
        <time>2026-01-17T15:08:44.668Z</time>
      </trkpt>
      <trkpt lon="-90.419563" lat="64.291039">
        <ele>1368.4</ele>
        <time>2026-01-17T15:09:15.008Z</time>
      </trkpt>
      <trkpt lon="-90.351529" lat="64.291714">
        <ele>1371.64</ele>
        <time>2026-01-17T15:09:45.048Z</time>
      </trkpt>
      <trkpt lon="-90.283478" lat="64.292398">
        <ele>1370.44</ele>
        <time>2026-01-17T15:10:15.152Z</time>
      </trkpt>
      <trkpt lon="-90.215274" lat="64.293133">
        <ele>1370.97</ele>
        <time>2026-01-17T15:10:45.416Z</time>
      </trkpt>
      <trkpt lon="-90.147251" lat="64.293871">
        <ele>1370.24</ele>
        <time>2026-01-17T15:11:15.604Z</time>
      </trkpt>
      <trkpt lon="-90.080916" lat="64.294512">
        <ele>1370.91</ele>
        <time>2026-01-17T15:11:45.836Z</time>
      </trkpt>
      <trkpt lon="-90.016355" lat="64.295118">
        <ele>1367.85</ele>
        <time>2026-01-17T15:12:16.064Z</time>
      </trkpt>
      <trkpt lon="-89.952247" lat="64.295779">
        <ele>1362.06</ele>
        <time>2026-01-17T15:12:46.308Z</time>
      </trkpt>
      <trkpt lon="-89.888283" lat="64.296427">
        <ele>1361.86</ele>
        <time>2026-01-17T15:13:16.556Z</time>
      </trkpt>
      <trkpt lon="-89.824727" lat="64.297133">
        <ele>1360.13</ele>
        <time>2026-01-17T15:13:46.688Z</time>
      </trkpt>
      <trkpt lon="-89.761139" lat="64.297889">
        <ele>1359.6</ele>
        <time>2026-01-17T15:14:16.956Z</time>
      </trkpt>
      <trkpt lon="-89.697311" lat="64.298685">
        <ele>1361.4</ele>
        <time>2026-01-17T15:14:47.392Z</time>
      </trkpt>
      <trkpt lon="-89.634233" lat="64.299476">
        <ele>1359.58</ele>
        <time>2026-01-17T15:15:17.464Z</time>
      </trkpt>
      <trkpt lon="-89.570946" lat="64.300381">
        <ele>1358.83</ele>
        <time>2026-01-17T15:15:47.668Z</time>
      </trkpt>
      <trkpt lon="-89.507782" lat="64.301297">
        <ele>1359.98</ele>
        <time>2026-01-17T15:16:17.868Z</time>
      </trkpt>
      <trkpt lon="-89.444224" lat="64.302233">
        <ele>1359.65</ele>
        <time>2026-01-17T15:16:48.252Z</time>
      </trkpt>
      <trkpt lon="-89.380787" lat="64.303215">
        <ele>1359.92</ele>
        <time>2026-01-17T15:17:18.580Z</time>
      </trkpt>
      <trkpt lon="-89.316687" lat="64.304207">
        <ele>1359.44</ele>
        <time>2026-01-17T15:17:49.212Z</time>
      </trkpt>
      <trkpt lon="-89.253649" lat="64.305227">
        <ele>1359.05</ele>
        <time>2026-01-17T15:18:19.376Z</time>
      </trkpt>
      <trkpt lon="-89.190514" lat="64.306307">
        <ele>1359.37</ele>
        <time>2026-01-17T15:18:49.436Z</time>
      </trkpt>
      <trkpt lon="-89.127264" lat="64.307397">
        <ele>1360.61</ele>
        <time>2026-01-17T15:19:19.652Z</time>
      </trkpt>
      <trkpt lon="-89.063573" lat="64.308566">
        <ele>1360.9</ele>
        <time>2026-01-17T15:19:49.964Z</time>
      </trkpt>
      <trkpt lon="-88.999361" lat="64.309806">
        <ele>1363.94</ele>
        <time>2026-01-17T15:20:20.248Z</time>
      </trkpt>
      <trkpt lon="-88.934337" lat="64.311254">
        <ele>1358.28</ele>
        <time>2026-01-17T15:20:50.480Z</time>
      </trkpt>
      <trkpt lon="-88.866797" lat="64.312800">
        <ele>1361.16</ele>
        <time>2026-01-17T15:21:20.796Z</time>
      </trkpt>
      <trkpt lon="-88.798812" lat="64.314441">
        <ele>1358.98</ele>
        <time>2026-01-17T15:21:51.108Z</time>
      </trkpt>
      <trkpt lon="-88.730691" lat="64.316106">
        <ele>1359.38</ele>
        <time>2026-01-17T15:22:21.416Z</time>
      </trkpt>
      <trkpt lon="-88.662258" lat="64.317820">
        <ele>1358.57</ele>
        <time>2026-01-17T15:22:51.752Z</time>
      </trkpt>
      <trkpt lon="-88.594182" lat="64.319577">
        <ele>1359.55</ele>
        <time>2026-01-17T15:23:21.904Z</time>
      </trkpt>
      <trkpt lon="-88.526325" lat="64.321413">
        <ele>1358.04</ele>
        <time>2026-01-17T15:23:51.960Z</time>
      </trkpt>
      <trkpt lon="-88.457835" lat="64.323245">
        <ele>1356.09</ele>
        <time>2026-01-17T15:24:22.264Z</time>
      </trkpt>
      <trkpt lon="-88.389413" lat="64.325146">
        <ele>1356.19</ele>
        <time>2026-01-17T15:24:52.576Z</time>
      </trkpt>
      <trkpt lon="-88.322022" lat="64.327081">
        <ele>1350.97</ele>
        <time>2026-01-17T15:25:23.048Z</time>
      </trkpt>
      <trkpt lon="-88.253629" lat="64.329130">
        <ele>1350.77</ele>
        <time>2026-01-17T15:25:53.272Z</time>
      </trkpt>
      <trkpt lon="-88.185110" lat="64.331217">
        <ele>1350.69</ele>
        <time>2026-01-17T15:26:23.520Z</time>
      </trkpt>
      <trkpt lon="-88.116838" lat="64.333298">
        <ele>1349.44</ele>
        <time>2026-01-17T15:26:53.712Z</time>
      </trkpt>
      <trkpt lon="-88.048269" lat="64.335444">
        <ele>1351.44</ele>
        <time>2026-01-17T15:27:24.124Z</time>
      </trkpt>
      <trkpt lon="-87.979910" lat="64.337655">
        <ele>1350.6</ele>
        <time>2026-01-17T15:27:54.392Z</time>
      </trkpt>
      <trkpt lon="-87.911589" lat="64.339863">
        <ele>1348.99</ele>
        <time>2026-01-17T15:28:24.652Z</time>
      </trkpt>
      <trkpt lon="-87.843600" lat="64.342114">
        <ele>1350.52</ele>
        <time>2026-01-17T15:28:54.820Z</time>
      </trkpt>
      <trkpt lon="-87.776090" lat="64.344498">
        <ele>1348.93</ele>
        <time>2026-01-17T15:29:24.940Z</time>
      </trkpt>
      <trkpt lon="-87.708699" lat="64.347029">
        <ele>1349.16</ele>
        <time>2026-01-17T15:29:55.172Z</time>
      </trkpt>
      <trkpt lon="-87.641776" lat="64.349580">
        <ele>1345.22</ele>
        <time>2026-01-17T15:30:25.184Z</time>
      </trkpt>
      <trkpt lon="-87.574790" lat="64.352270">
        <ele>1341.79</ele>
        <time>2026-01-17T15:30:55.228Z</time>
      </trkpt>
      <trkpt lon="-87.507548" lat="64.355149">
        <ele>1340.71</ele>
        <time>2026-01-17T15:31:25.376Z</time>
      </trkpt>
      <trkpt lon="-87.440564" lat="64.358094">
        <ele>1341.05</ele>
        <time>2026-01-17T15:31:55.516Z</time>
      </trkpt>
      <trkpt lon="-87.373235" lat="64.361074">
        <ele>1337.57</ele>
        <time>2026-01-17T15:32:25.836Z</time>
      </trkpt>
      <trkpt lon="-87.306196" lat="64.364086">
        <ele>1339.13</ele>
        <time>2026-01-17T15:32:56.008Z</time>
      </trkpt>
      <trkpt lon="-87.238853" lat="64.367148">
        <ele>1340.13</ele>
        <time>2026-01-17T15:33:26.316Z</time>
      </trkpt>
      <trkpt lon="-87.172031" lat="64.370200">
        <ele>1338.83</ele>
        <time>2026-01-17T15:33:56.416Z</time>
      </trkpt>
      <trkpt lon="-87.105252" lat="64.373265">
        <ele>1339.3</ele>
        <time>2026-01-17T15:34:26.488Z</time>
      </trkpt>
      <trkpt lon="-87.045864" lat="64.375595">
        <ele>1335.78</ele>
        <time>2026-01-17T15:34:53.228Z</time>
      </trkpt>
      <trkpt lon="-86.977900" lat="64.374257">
        <ele>1340</ele>
        <time>2026-01-17T15:35:23.500Z</time>
      </trkpt>
      <trkpt lon="-86.910182" lat="64.373958">
        <ele>1337</ele>
        <time>2026-01-17T15:35:53.508Z</time>
      </trkpt>
      <trkpt lon="-86.842078" lat="64.374799">
        <ele>1339.12</ele>
        <time>2026-01-17T15:36:23.776Z</time>
      </trkpt>
      <trkpt lon="-86.774224" lat="64.375716">
        <ele>1331.86</ele>
        <time>2026-01-17T15:36:53.940Z</time>
      </trkpt>
      <trkpt lon="-86.706714" lat="64.376810">
        <ele>1334.16</ele>
        <time>2026-01-17T15:37:23.964Z</time>
      </trkpt>
      <trkpt lon="-86.638742" lat="64.377898">
        <ele>1336.37</ele>
        <time>2026-01-17T15:37:54.184Z</time>
      </trkpt>
      <trkpt lon="-86.570821" lat="64.379042">
        <ele>1334.17</ele>
        <time>2026-01-17T15:38:24.360Z</time>
      </trkpt>
      <trkpt lon="-86.502475" lat="64.380275">
        <ele>1328.22</ele>
        <time>2026-01-17T15:38:54.604Z</time>
      </trkpt>
      <trkpt lon="-86.433859" lat="64.381533">
        <ele>1335.81</ele>
        <time>2026-01-17T15:39:25.080Z</time>
      </trkpt>
      <trkpt lon="-86.365760" lat="64.382803">
        <ele>1333.91</ele>
        <time>2026-01-17T15:39:55.416Z</time>
      </trkpt>
      <trkpt lon="-86.297997" lat="64.384092">
        <ele>1334.17</ele>
        <time>2026-01-17T15:40:25.656Z</time>
      </trkpt>
      <trkpt lon="-86.230175" lat="64.385179">
        <ele>1332.64</ele>
        <time>2026-01-17T15:40:55.960Z</time>
      </trkpt>
      <trkpt lon="-86.162250" lat="64.383568">
        <ele>1332.16</ele>
        <time>2026-01-17T15:41:26.112Z</time>
      </trkpt>
      <trkpt lon="-86.093696" lat="64.381003">
        <ele>1335.37</ele>
        <time>2026-01-17T15:41:56.416Z</time>
      </trkpt>
      <trkpt lon="-86.025657" lat="64.378472">
        <ele>1334.46</ele>
        <time>2026-01-17T15:42:26.496Z</time>
      </trkpt>
      <trkpt lon="-85.957214" lat="64.375965">
        <ele>1326.87</ele>
        <time>2026-01-17T15:42:56.644Z</time>
      </trkpt>
      <trkpt lon="-85.888809" lat="64.373479">
        <ele>1328.14</ele>
        <time>2026-01-17T15:43:26.720Z</time>
      </trkpt>
      <trkpt lon="-85.819998" lat="64.371033">
        <ele>1329.52</ele>
        <time>2026-01-17T15:43:57.060Z</time>
      </trkpt>
      <trkpt lon="-85.751400" lat="64.368640">
        <ele>1326.55</ele>
        <time>2026-01-17T15:44:27.252Z</time>
      </trkpt>
      <trkpt lon="-85.683101" lat="64.366285">
        <ele>1327.16</ele>
        <time>2026-01-17T15:44:57.268Z</time>
      </trkpt>
      <trkpt lon="-85.614539" lat="64.363992">
        <ele>1331.27</ele>
        <time>2026-01-17T15:45:27.436Z</time>
      </trkpt>
      <trkpt lon="-85.545966" lat="64.361730">
        <ele>1327.07</ele>
        <time>2026-01-17T15:45:57.628Z</time>
      </trkpt>
      <trkpt lon="-85.477358" lat="64.359466">
        <ele>1325.52</ele>
        <time>2026-01-17T15:46:27.880Z</time>
      </trkpt>
      <trkpt lon="-85.408733" lat="64.357242">
        <ele>1326.82</ele>
        <time>2026-01-17T15:46:58.136Z</time>
      </trkpt>
      <trkpt lon="-85.340539" lat="64.355059">
        <ele>1327.59</ele>
        <time>2026-01-17T15:47:28.168Z</time>
      </trkpt>
      <trkpt lon="-85.272379" lat="64.352909">
        <ele>1327.32</ele>
        <time>2026-01-17T15:47:58.272Z</time>
      </trkpt>
      <trkpt lon="-85.203823" lat="64.350813">
        <ele>1327.73</ele>
        <time>2026-01-17T15:48:28.496Z</time>
      </trkpt>
      <trkpt lon="-85.134766" lat="64.348599">
        <ele>1322.9</ele>
        <time>2026-01-17T15:48:59.116Z</time>
      </trkpt>
      <trkpt lon="-85.084577" lat="64.346620">
        <ele>1319.66</ele>
        <time>2026-01-17T15:49:21.452Z</time>
      </trkpt>
      <trkpt lon="-85.023361" lat="64.341500">
        <ele>1322.25</ele>
        <time>2026-01-17T15:49:49.004Z</time>
      </trkpt>
      <trkpt lon="-84.957374" lat="64.333725">
        <ele>1324.39</ele>
        <time>2026-01-17T15:50:19.084Z</time>
      </trkpt>
      <trkpt lon="-84.890764" lat="64.325856">
        <ele>1324.29</ele>
        <time>2026-01-17T15:50:49.260Z</time>
      </trkpt>
      <trkpt lon="-84.824148" lat="64.318023">
        <ele>1322.87</ele>
        <time>2026-01-17T15:51:19.324Z</time>
      </trkpt>
      <trkpt lon="-84.756510" lat="64.310099">
        <ele>1323.52</ele>
        <time>2026-01-17T15:51:49.920Z</time>
      </trkpt>
      <trkpt lon="-84.690094" lat="64.302340">
        <ele>1321.62</ele>
        <time>2026-01-17T15:52:20.012Z</time>
      </trkpt>
      <trkpt lon="-84.623545" lat="64.294508">
        <ele>1323.5</ele>
        <time>2026-01-17T15:52:50.212Z</time>
      </trkpt>
      <trkpt lon="-84.557074" lat="64.286778">
        <ele>1324.4</ele>
        <time>2026-01-17T15:53:20.380Z</time>
      </trkpt>
      <trkpt lon="-84.490798" lat="64.279141">
        <ele>1324.05</ele>
        <time>2026-01-17T15:53:50.432Z</time>
      </trkpt>
      <trkpt lon="-84.423604" lat="64.271375">
        <ele>1321.16</ele>
        <time>2026-01-17T15:54:21.012Z</time>
      </trkpt>
      <trkpt lon="-84.357873" lat="64.263759">
        <ele>1319.57</ele>
        <time>2026-01-17T15:54:51.188Z</time>
      </trkpt>
      <trkpt lon="-84.292498" lat="64.256203">
        <ele>1321.92</ele>
        <time>2026-01-17T15:55:21.304Z</time>
      </trkpt>
      <trkpt lon="-84.227002" lat="64.248731">
        <ele>1316.78</ele>
        <time>2026-01-17T15:55:51.448Z</time>
      </trkpt>
      <trkpt lon="-84.161872" lat="64.241335">
        <ele>1320.44</ele>
        <time>2026-01-17T15:56:21.568Z</time>
      </trkpt>
      <trkpt lon="-84.096843" lat="64.234138">
        <ele>1325.08</ele>
        <time>2026-01-17T15:56:51.768Z</time>
      </trkpt>
      <trkpt lon="-84.031488" lat="64.226888">
        <ele>1324.12</ele>
        <time>2026-01-17T15:57:21.976Z</time>
      </trkpt>
      <trkpt lon="-83.966195" lat="64.219613">
        <ele>1323.54</ele>
        <time>2026-01-17T15:57:52.128Z</time>
      </trkpt>
      <trkpt lon="-83.900930" lat="64.212391">
        <ele>1323.79</ele>
        <time>2026-01-17T15:58:22.296Z</time>
      </trkpt>
      <trkpt lon="-83.836067" lat="64.205232">
        <ele>1327.08</ele>
        <time>2026-01-17T15:58:52.348Z</time>
      </trkpt>
      <trkpt lon="-83.771176" lat="64.198034">
        <ele>1326.39</ele>
        <time>2026-01-17T15:59:22.476Z</time>
      </trkpt>
      <trkpt lon="-83.705923" lat="64.190885">
        <ele>1326.52</ele>
        <time>2026-01-17T15:59:52.632Z</time>
      </trkpt>
      <trkpt lon="-83.640631" lat="64.183952">
        <ele>1320.99</ele>
        <time>2026-01-17T16:00:22.644Z</time>
      </trkpt>
      <trkpt lon="-83.574289" lat="64.177009">
        <ele>1317.39</ele>
        <time>2026-01-17T16:00:52.688Z</time>
      </trkpt>
      <trkpt lon="-83.507501" lat="64.170049">
        <ele>1319.37</ele>
        <time>2026-01-17T16:01:22.972Z</time>
      </trkpt>
      <trkpt lon="-83.440119" lat="64.163077">
        <ele>1317.62</ele>
        <time>2026-01-17T16:01:53.584Z</time>
      </trkpt>
      <trkpt lon="-83.372503" lat="64.156113">
        <ele>1317.15</ele>
        <time>2026-01-17T16:02:24.228Z</time>
      </trkpt>
      <trkpt lon="-83.333560" lat="64.152197">
        <ele>1319.03</ele>
        <time>2026-01-17T16:02:42.036Z</time>
      </trkpt>
      <trkpt lon="-83.327778" lat="64.151904">
        <ele>1314.09</ele>
        <time>2026-01-17T16:02:44.708Z</time>
      </trkpt>
      <trkpt lon="-83.323636" lat="64.151885">
        <ele>1311.02</ele>
        <time>2026-01-17T16:02:46.612Z</time>
      </trkpt>
      <trkpt lon="-83.319508" lat="64.152049">
        <ele>1312.75</ele>
        <time>2026-01-17T16:02:48.552Z</time>
      </trkpt>
      <trkpt lon="-83.315371" lat="64.152408">
        <ele>1317.75</ele>
        <time>2026-01-17T16:02:50.548Z</time>
      </trkpt>
      <trkpt lon="-83.312723" lat="64.152768">
        <ele>1323.39</ele>
        <time>2026-01-17T16:02:51.888Z</time>
      </trkpt>
      <trkpt lon="-83.310364" lat="64.153205">
        <ele>1332.77</ele>
        <time>2026-01-17T16:02:53.152Z</time>
      </trkpt>
      <trkpt lon="-83.308111" lat="64.153744">
        <ele>1344.86</ele>
        <time>2026-01-17T16:02:54.444Z</time>
      </trkpt>
      <trkpt lon="-83.305979" lat="64.154375">
        <ele>1357.22</ele>
        <time>2026-01-17T16:02:55.772Z</time>
      </trkpt>
      <trkpt lon="-83.303156" lat="64.155426">
        <ele>1369.51</ele>
        <time>2026-01-17T16:02:57.736Z</time>
      </trkpt>
      <trkpt lon="-83.300652" lat="64.156594">
        <ele>1369</ele>
        <time>2026-01-17T16:02:59.688Z</time>
      </trkpt>
      <trkpt lon="-83.298554" lat="64.157841">
        <ele>1362.89</ele>
        <time>2026-01-17T16:03:01.600Z</time>
      </trkpt>
      <trkpt lon="-83.296823" lat="64.159205">
        <ele>1354.99</ele>
        <time>2026-01-17T16:03:03.532Z</time>
      </trkpt>
      <trkpt lon="-83.295470" lat="64.160665">
        <ele>1343.36</ele>
        <time>2026-01-17T16:03:05.488Z</time>
      </trkpt>
      <trkpt lon="-83.294522" lat="64.162199">
        <ele>1326.03</ele>
        <time>2026-01-17T16:03:07.468Z</time>
      </trkpt>
      <trkpt lon="-83.293961" lat="64.163790">
        <ele>1299.84</ele>
        <time>2026-01-17T16:03:09.444Z</time>
      </trkpt>
      <trkpt lon="-83.293802" lat="64.165406">
        <ele>1267.58</ele>
        <time>2026-01-17T16:03:11.400Z</time>
      </trkpt>
      <trkpt lon="-83.294071" lat="64.167070">
        <ele>1236.32</ele>
        <time>2026-01-17T16:03:13.384Z</time>
      </trkpt>
      <trkpt lon="-83.295012" lat="64.169308">
        <ele>1194.53</ele>
        <time>2026-01-17T16:03:16.008Z</time>
      </trkpt>
      <trkpt lon="-83.297076" lat="64.172081">
        <ele>1138.48</ele>
        <time>2026-01-17T16:03:19.296Z</time>
      </trkpt>
      <trkpt lon="-83.300973" lat="64.175985">
        <ele>1071.47</ele>
        <time>2026-01-17T16:03:23.916Z</time>
      </trkpt>
      <trkpt lon="-83.312996" lat="64.185582">
        <ele>1031.63</ele>
        <time>2026-01-17T16:03:35.704Z</time>
      </trkpt>
      <trkpt lon="-83.318442" lat="64.189582">
        <ele>1058.06</ele>
        <time>2026-01-17T16:03:41.036Z</time>
      </trkpt>
      <trkpt lon="-83.324808" lat="64.194395">
        <ele>1091.18</ele>
        <time>2026-01-17T16:03:47.816Z</time>
      </trkpt>
      <trkpt lon="-83.336647" lat="64.204138">
        <ele>1033.11</ele>
        <time>2026-01-17T16:04:01.640Z</time>
      </trkpt>
      <trkpt lon="-83.342743" lat="64.208899">
        <ele>976.183</ele>
        <time>2026-01-17T16:04:08.220Z</time>
      </trkpt>
      <trkpt lon="-83.345091" lat="64.210243">
        <ele>961.416</ele>
        <time>2026-01-17T16:04:10.224Z</time>
      </trkpt>
      <trkpt lon="-83.347711" lat="64.211393">
        <ele>952.73</ele>
        <time>2026-01-17T16:04:12.144Z</time>
      </trkpt>
      <trkpt lon="-83.350691" lat="64.212437">
        <ele>938.796</ele>
        <time>2026-01-17T16:04:14.120Z</time>
      </trkpt>
      <trkpt lon="-83.353912" lat="64.213350">
        <ele>919.853</ele>
        <time>2026-01-17T16:04:16.084Z</time>
      </trkpt>
      <trkpt lon="-83.357351" lat="64.214120">
        <ele>898.926</ele>
        <time>2026-01-17T16:04:18.044Z</time>
      </trkpt>
      <trkpt lon="-83.361021" lat="64.214732">
        <ele>880.818</ele>
        <time>2026-01-17T16:04:19.996Z</time>
      </trkpt>
      <trkpt lon="-83.364900" lat="64.215176">
        <ele>866.415</ele>
        <time>2026-01-17T16:04:21.976Z</time>
      </trkpt>
      <trkpt lon="-83.368896" lat="64.215434">
        <ele>855.557</ele>
        <time>2026-01-17T16:04:23.956Z</time>
      </trkpt>
      <trkpt lon="-83.372911" lat="64.215510">
        <ele>846.534</ele>
        <time>2026-01-17T16:04:25.916Z</time>
      </trkpt>
      <trkpt lon="-83.377027" lat="64.215404">
        <ele>837.508</ele>
        <time>2026-01-17T16:04:27.916Z</time>
      </trkpt>
      <trkpt lon="-83.379709" lat="64.215238">
        <ele>829.786</ele>
        <time>2026-01-17T16:04:29.224Z</time>
      </trkpt>
      <trkpt lon="-83.382370" lat="64.214981">
        <ele>820.256</ele>
        <time>2026-01-17T16:04:30.536Z</time>
      </trkpt>
      <trkpt lon="-83.387528" lat="64.214164">
        <ele>797.213</ele>
        <time>2026-01-17T16:04:33.172Z</time>
      </trkpt>
      <trkpt lon="-83.391393" lat="64.213279">
        <ele>780.128</ele>
        <time>2026-01-17T16:04:35.204Z</time>
      </trkpt>
      <trkpt lon="-83.394883" lat="64.212271">
        <ele>766.956</ele>
        <time>2026-01-17T16:04:37.140Z</time>
      </trkpt>
      <trkpt lon="-83.399258" lat="64.210690">
        <ele>757.621</ele>
        <time>2026-01-17T16:04:39.752Z</time>
      </trkpt>
      <trkpt lon="-83.401245" lat="64.209785">
        <ele>758.916</ele>
        <time>2026-01-17T16:04:41.060Z</time>
      </trkpt>
      <trkpt lon="-83.402940" lat="64.208834">
        <ele>768.353</ele>
        <time>2026-01-17T16:04:42.352Z</time>
      </trkpt>
      <trkpt lon="-83.405080" lat="64.207306">
        <ele>789.37</ele>
        <time>2026-01-17T16:04:44.316Z</time>
      </trkpt>
      <trkpt lon="-83.406736" lat="64.205746">
        <ele>810.36</ele>
        <time>2026-01-17T16:04:46.280Z</time>
      </trkpt>
      <trkpt lon="-83.407959" lat="64.204183">
        <ele>824.845</ele>
        <time>2026-01-17T16:04:48.248Z</time>
      </trkpt>
      <trkpt lon="-83.408812" lat="64.202618">
        <ele>829.668</ele>
        <time>2026-01-17T16:04:50.272Z</time>
      </trkpt>
      <trkpt lon="-83.409292" lat="64.201120">
        <ele>825.448</ele>
        <time>2026-01-17T16:04:52.232Z</time>
      </trkpt>
      <trkpt lon="-83.409444" lat="64.199625">
        <ele>812.9</ele>
        <time>2026-01-17T16:04:54.212Z</time>
      </trkpt>
      <trkpt lon="-83.409290" lat="64.198144">
        <ele>792.446</ele>
        <time>2026-01-17T16:04:56.184Z</time>
      </trkpt>
      <trkpt lon="-83.408823" lat="64.196726">
        <ele>770.473</ele>
        <time>2026-01-17T16:04:58.100Z</time>
      </trkpt>
      <trkpt lon="-83.408282" lat="64.195755">
        <ele>758.969</ele>
        <time>2026-01-17T16:04:59.428Z</time>
      </trkpt>
      <trkpt lon="-83.406810" lat="64.193922">
        <ele>739.042</ele>
        <time>2026-01-17T16:05:02.048Z</time>
      </trkpt>
      <trkpt lon="-83.403150" lat="64.190441">
        <ele>690.974</ele>
        <time>2026-01-17T16:05:07.264Z</time>
      </trkpt>
      <trkpt lon="-83.399482" lat="64.187461">
        <ele>648.839</ele>
        <time>2026-01-17T16:05:11.872Z</time>
      </trkpt>
      <trkpt lon="-83.395088" lat="64.184162">
        <ele>606.723</ele>
        <time>2026-01-17T16:05:17.096Z</time>
      </trkpt>
      <trkpt lon="-83.389918" lat="64.180526">
        <ele>565.658</ele>
        <time>2026-01-17T16:05:23.044Z</time>
      </trkpt>
      <trkpt lon="-83.383451" lat="64.176327">
        <ele>526.545</ele>
        <time>2026-01-17T16:05:30.216Z</time>
      </trkpt>
      <trkpt lon="-83.377057" lat="64.172732">
        <ele>489.921</ele>
        <time>2026-01-17T16:05:36.808Z</time>
      </trkpt>
      <trkpt lon="-83.373625" lat="64.171100">
        <ele>477.126</ele>
        <time>2026-01-17T16:05:40.056Z</time>
      </trkpt>
      <trkpt lon="-83.372125" lat="64.170509">
        <ele>471.814</ele>
        <time>2026-01-17T16:05:41.364Z</time>
      </trkpt>
      <trkpt lon="-83.370520" lat="64.169980">
        <ele>469.831</ele>
        <time>2026-01-17T16:05:42.676Z</time>
      </trkpt>
      <trkpt lon="-83.368822" lat="64.169525">
        <ele>470.845</ele>
        <time>2026-01-17T16:05:44.016Z</time>
      </trkpt>
      <trkpt lon="-83.367128" lat="64.169159">
        <ele>470.887</ele>
        <time>2026-01-17T16:05:45.304Z</time>
      </trkpt>
      <trkpt lon="-83.365350" lat="64.168860">
        <ele>469.171</ele>
        <time>2026-01-17T16:05:46.612Z</time>
      </trkpt>
      <trkpt lon="-83.363433" lat="64.168617">
        <ele>463.408</ele>
        <time>2026-01-17T16:05:48.000Z</time>
      </trkpt>
      <trkpt lon="-83.361658" lat="64.168465">
        <ele>457.574</ele>
        <time>2026-01-17T16:05:49.292Z</time>
      </trkpt>
      <trkpt lon="-83.357968" lat="64.168330">
        <ele>444.018</ele>
        <time>2026-01-17T16:05:51.940Z</time>
      </trkpt>
      <trkpt lon="-83.355271" lat="64.168360">
        <ele>433.112</ele>
        <time>2026-01-17T16:05:53.916Z</time>
      </trkpt>
      <trkpt lon="-83.352675" lat="64.168521">
        <ele>428.2</ele>
        <time>2026-01-17T16:05:55.900Z</time>
      </trkpt>
      <trkpt lon="-83.351062" lat="64.168699">
        <ele>428.055</ele>
        <time>2026-01-17T16:05:57.204Z</time>
      </trkpt>
      <trkpt lon="-83.348882" lat="64.169054">
        <ele>428.845</ele>
        <time>2026-01-17T16:05:59.160Z</time>
      </trkpt>
      <trkpt lon="-83.347596" lat="64.169338">
        <ele>428.293</ele>
        <time>2026-01-17T16:06:00.448Z</time>
      </trkpt>
      <trkpt lon="-83.346400" lat="64.169666">
        <ele>425.617</ele>
        <time>2026-01-17T16:06:01.760Z</time>
      </trkpt>
      <trkpt lon="-83.344785" lat="64.170228">
        <ele>416.499</ele>
        <time>2026-01-17T16:06:03.752Z</time>
      </trkpt>
      <trkpt lon="-83.343829" lat="64.170639">
        <ele>408.344</ele>
        <time>2026-01-17T16:06:05.080Z</time>
      </trkpt>
      <trkpt lon="-83.343394" lat="64.170867">
        <ele>407.395</ele>
        <time>2026-01-17T16:06:05.772Z</time>
      </trkpt>
      <trkpt lon="-83.343022" lat="64.171101">
        <ele>408.718</ele>
        <time>2026-01-17T16:06:06.456Z</time>
      </trkpt>
      <trkpt lon="-83.341460" lat="64.172459">
        <ele>399.455</ele>
        <time>2026-01-17T16:06:10.436Z</time>
      </trkpt>
      <trkpt lon="-83.341296" lat="64.172688">
        <ele>397.833</ele>
        <time>2026-01-17T16:06:11.096Z</time>
      </trkpt>
      <trkpt lon="-83.340976" lat="64.173604">
        <ele>382.274</ele>
        <time>2026-01-17T16:06:13.728Z</time>
      </trkpt>
      <trkpt lon="-83.340951" lat="64.174059">
        <ele>369.553</ele>
        <time>2026-01-17T16:06:15.016Z</time>
      </trkpt>
      <trkpt lon="-83.341188" lat="64.175003">
        <ele>339.451</ele>
        <time>2026-01-17T16:06:17.664Z</time>
      </trkpt>
      <trkpt lon="-83.341434" lat="64.175473">
        <ele>325.011</ele>
        <time>2026-01-17T16:06:18.976Z</time>
      </trkpt>
      <trkpt lon="-83.342121" lat="64.176403">
        <ele>292.872</ele>
        <time>2026-01-17T16:06:21.604Z</time>
      </trkpt>
      <trkpt lon="-83.342919" lat="64.177333">
        <ele>261.684</ele>
        <time>2026-01-17T16:06:24.244Z</time>
      </trkpt>
      <trkpt lon="-83.343768" lat="64.178267">
        <ele>234.205</ele>
        <time>2026-01-17T16:06:26.912Z</time>
      </trkpt>
      <trkpt lon="-83.344657" lat="64.179150">
        <ele>208.03</ele>
        <time>2026-01-17T16:06:29.528Z</time>
      </trkpt>
      <trkpt lon="-83.345141" lat="64.179592">
        <ele>197.224</ele>
        <time>2026-01-17T16:06:30.856Z</time>
      </trkpt>
      <trkpt lon="-83.345829" lat="64.180229">
        <ele>185.274</ele>
        <time>2026-01-17T16:06:32.832Z</time>
      </trkpt>
      <trkpt lon="-83.347186" lat="64.181422">
        <ele>160.423</ele>
        <time>2026-01-17T16:06:36.804Z</time>
      </trkpt>
      <trkpt lon="-83.348252" lat="64.182415">
        <ele>138.56</ele>
        <time>2026-01-17T16:06:40.124Z</time>
      </trkpt>
      <trkpt lon="-83.349369" lat="64.183621">
        <ele>119.646</ele>
        <time>2026-01-17T16:06:44.064Z</time>
      </trkpt>
      <trkpt lon="-83.350449" lat="64.184813">
        <ele>100.462</ele>
        <time>2026-01-17T16:06:48.028Z</time>
      </trkpt>
      <trkpt lon="-83.351775" lat="64.186174">
        <ele>83.2284</ele>
        <time>2026-01-17T16:06:52.692Z</time>
      </trkpt>
      <trkpt lon="-83.353417" lat="64.187670">
        <ele>71.8841</ele>
        <time>2026-01-17T16:06:58.056Z</time>
      </trkpt>
      <trkpt lon="-83.355536" lat="64.189735">
        <ele>67.6472</ele>
        <time>2026-01-17T16:07:06.108Z</time>
      </trkpt>
      <trkpt lon="-83.357089" lat="64.191158">
        <ele>63.6956</ele>
        <time>2026-01-17T16:07:12.876Z</time>
      </trkpt>
      <trkpt lon="-83.358074" lat="64.192196">
        <ele>62.5169</ele>
        <time>2026-01-17T16:07:18.928Z</time>
      </trkpt>
      <trkpt lon="-83.359101" lat="64.193181">
        <ele>62.7264</ele>
        <time>2026-01-17T16:07:25.700Z</time>
      </trkpt>
      <trkpt lon="-83.359238" lat="64.193332">
        <ele>62.682</ele>
        <time>2026-01-17T16:07:27.056Z</time>
      </trkpt>
      <trkpt lon="-83.359373" lat="64.193553">
        <ele>62.5624</ele>
        <time>2026-01-17T16:07:29.084Z</time>
      </trkpt>
      <trkpt lon="-83.359419" lat="64.193695">
        <ele>62.5388</ele>
        <time>2026-01-17T16:07:30.416Z</time>
      </trkpt>
      <trkpt lon="-83.359420" lat="64.193764">
        <ele>62.6684</ele>
        <time>2026-01-17T16:07:31.072Z</time>
      </trkpt>
      <trkpt lon="-83.359405" lat="64.193825">
        <ele>62.7814</ele>
        <time>2026-01-17T16:07:31.736Z</time>
      </trkpt>
      <trkpt lon="-83.359365" lat="64.193903">
        <ele>62.8018</ele>
        <time>2026-01-17T16:07:33.108Z</time>
      </trkpt>
      <trkpt lon="-83.359324" lat="64.193958">
        <ele>62.8538</ele>
        <time>2026-01-17T16:07:34.460Z</time>
      </trkpt>
      <trkpt lon="-83.359247" lat="64.194029">
        <ele>62.8714</ele>
        <time>2026-01-17T16:07:37.160Z</time>
      </trkpt>
      <trkpt lon="-83.359197" lat="64.194070">
        <ele>62.9251</ele>
        <time>2026-01-17T16:07:39.112Z</time>
      </trkpt>
      <trkpt lon="-83.359077" lat="64.194141">
        <ele>62.9572</ele>
        <time>2026-01-17T16:07:45.076Z</time>
      </trkpt>
      <trkpt lon="-83.359055" lat="64.194151">
        <ele>62.9627</ele>
        <time>2026-01-17T16:07:55.656Z</time>
      </trkpt>
    </trkseg>
    <trkseg>
      <trkpt lon="-96.073877" lat="64.293903">
        <ele>19.2966</ele>
        <time>2026-01-19T17:50:40.492Z</time>
      </trkpt>
      <trkpt lon="-96.073805" lat="64.293799">
        <ele>19.3558</ele>
        <time>2026-01-19T17:51:01.160Z</time>
      </trkpt>
      <trkpt lon="-96.073798" lat="64.293789">
        <ele>19.3752</ele>
        <time>2026-01-19T17:52:42.844Z</time>
      </trkpt>
      <trkpt lon="-96.073836" lat="64.293837">
        <ele>19.2906</ele>
        <time>2026-01-19T18:06:20.788Z</time>
      </trkpt>
      <trkpt lon="-96.073979" lat="64.294013">
        <ele>19.0097</ele>
        <time>2026-01-19T18:06:22.788Z</time>
      </trkpt>
      <trkpt lon="-96.074216" lat="64.294290">
        <ele>18.6691</ele>
        <time>2026-01-19T18:06:24.768Z</time>
      </trkpt>
      <trkpt lon="-96.074612" lat="64.294778">
        <ele>18.8135</ele>
        <time>2026-01-19T18:06:27.376Z</time>
      </trkpt>
      <trkpt lon="-96.075217" lat="64.295568">
        <ele>18.4903</ele>
        <time>2026-01-19T18:06:30.724Z</time>
      </trkpt>
      <trkpt lon="-96.076301" lat="64.297103">
        <ele>19.6956</ele>
        <time>2026-01-19T18:06:36.096Z</time>
      </trkpt>
      <trkpt lon="-96.076746" lat="64.297725">
        <ele>20.3971</ele>
        <time>2026-01-19T18:06:38.084Z</time>
      </trkpt>
      <trkpt lon="-96.078073" lat="64.299308">
        <ele>20.2196</ele>
        <time>2026-01-19T18:06:42.788Z</time>
      </trkpt>
      <trkpt lon="-96.080586" lat="64.302399">
        <ele>40.3592</ele>
        <time>2026-01-19T18:06:50.940Z</time>
      </trkpt>
      <trkpt lon="-96.081049" lat="64.303103">
        <ele>61.8278</ele>
        <time>2026-01-19T18:06:52.952Z</time>
      </trkpt>
      <trkpt lon="-96.081579" lat="64.303980">
        <ele>83.8219</ele>
        <time>2026-01-19T18:06:55.520Z</time>
      </trkpt>
      <trkpt lon="-96.082183" lat="64.305089">
        <ele>109.695</ele>
        <time>2026-01-19T18:06:58.792Z</time>
      </trkpt>
      <trkpt lon="-96.082281" lat="64.305265">
        <ele>119.694</ele>
        <time>2026-01-19T18:06:59.432Z</time>
      </trkpt>
      <trkpt lon="-96.082525" lat="64.305561">
        <ele>142.68</ele>
        <time>2026-01-19T18:07:00.744Z</time>
      </trkpt>
      <trkpt lon="-96.082665" lat="64.305683">
        <ele>153.758</ele>
        <time>2026-01-19T18:07:01.388Z</time>
      </trkpt>
      <trkpt lon="-96.082987" lat="64.305972">
        <ele>174.409</ele>
        <time>2026-01-19T18:07:27.240Z</time>
      </trkpt>
      <trkpt lon="-96.083523" lat="64.306588">
        <ele>193.192</ele>
        <time>2026-01-19T18:07:29.892Z</time>
      </trkpt>
      <trkpt lon="-96.083816" lat="64.306937">
        <ele>190.259</ele>
        <time>2026-01-19T18:07:31.156Z</time>
      </trkpt>
      <trkpt lon="-96.084043" lat="64.307342">
        <ele>184.082</ele>
        <time>2026-01-19T18:07:32.472Z</time>
      </trkpt>
      <trkpt lon="-96.084095" lat="64.307552">
        <ele>181.145</ele>
        <time>2026-01-19T18:07:33.112Z</time>
      </trkpt>
      <trkpt lon="-96.084103" lat="64.307768">
        <ele>178.743</ele>
        <time>2026-01-19T18:07:33.760Z</time>
      </trkpt>
      <trkpt lon="-96.084056" lat="64.307994">
        <ele>176.855</ele>
        <time>2026-01-19T18:07:34.420Z</time>
      </trkpt>
      <trkpt lon="-96.083790" lat="64.308438">
        <ele>174.55</ele>
        <time>2026-01-19T18:07:35.736Z</time>
      </trkpt>
      <trkpt lon="-96.083307" lat="64.308852">
        <ele>174.041</ele>
        <time>2026-01-19T18:07:37.028Z</time>
      </trkpt>
      <trkpt lon="-96.082623" lat="64.309240">
        <ele>173.628</ele>
        <time>2026-01-19T18:07:38.340Z</time>
      </trkpt>
      <trkpt lon="-96.081764" lat="64.309588">
        <ele>170.972</ele>
        <time>2026-01-19T18:07:39.652Z</time>
      </trkpt>
      <trkpt lon="-96.080767" lat="64.309897">
        <ele>163.869</ele>
        <time>2026-01-19T18:07:40.936Z</time>
      </trkpt>
      <trkpt lon="-96.079614" lat="64.310160">
        <ele>153.621</ele>
        <time>2026-01-19T18:07:42.232Z</time>
      </trkpt>
      <trkpt lon="-96.078324" lat="64.310361">
        <ele>142.316</ele>
        <time>2026-01-19T18:07:43.500Z</time>
      </trkpt>
      <trkpt lon="-96.076862" lat="64.310506">
        <ele>129.072</ele>
        <time>2026-01-19T18:07:44.808Z</time>
      </trkpt>
      <trkpt lon="-96.075305" lat="64.310581">
        <ele>115.049</ele>
        <time>2026-01-19T18:07:46.100Z</time>
      </trkpt>
      <trkpt lon="-96.072770" lat="64.310551">
        <ele>93.5646</ele>
        <time>2026-01-19T18:07:48.032Z</time>
      </trkpt>
      <trkpt lon="-96.070986" lat="64.310437">
        <ele>80.1779</ele>
        <time>2026-01-19T18:07:49.320Z</time>
      </trkpt>
      <trkpt lon="-96.069119" lat="64.310243">
        <ele>68.0964</ele>
        <time>2026-01-19T18:07:50.636Z</time>
      </trkpt>
      <trkpt lon="-96.066367" lat="64.309826">
        <ele>52.8976</ele>
        <time>2026-01-19T18:07:52.552Z</time>
      </trkpt>
      <trkpt lon="-96.063619" lat="64.309233">
        <ele>44.7389</ele>
        <time>2026-01-19T18:07:54.500Z</time>
      </trkpt>
      <trkpt lon="-96.061007" lat="64.308504">
        <ele>43.0599</ele>
        <time>2026-01-19T18:07:56.432Z</time>
      </trkpt>
      <trkpt lon="-96.059345" lat="64.307930">
        <ele>43.4887</ele>
        <time>2026-01-19T18:07:57.752Z</time>
      </trkpt>
      <trkpt lon="-96.057831" lat="64.307302">
        <ele>44.535</ele>
        <time>2026-01-19T18:07:59.040Z</time>
      </trkpt>
      <trkpt lon="-96.056344" lat="64.306568">
        <ele>46.2905</ele>
        <time>2026-01-19T18:08:00.416Z</time>
      </trkpt>
      <trkpt lon="-96.055101" lat="64.305838">
        <ele>48.5932</ele>
        <time>2026-01-19T18:08:01.700Z</time>
      </trkpt>
      <trkpt lon="-96.053439" lat="64.304647">
        <ele>54.18</ele>
        <time>2026-01-19T18:08:03.664Z</time>
      </trkpt>
      <trkpt lon="-96.051593" lat="64.302975">
        <ele>66.6498</ele>
        <time>2026-01-19T18:08:06.292Z</time>
      </trkpt>
      <trkpt lon="-96.050492" lat="64.301683">
        <ele>78.4078</ele>
        <time>2026-01-19T18:08:08.248Z</time>
      </trkpt>
      <trkpt lon="-96.049666" lat="64.300381">
        <ele>91.068</ele>
        <time>2026-01-19T18:08:10.204Z</time>
      </trkpt>
      <trkpt lon="-96.048604" lat="64.298215">
        <ele>113.613</ele>
        <time>2026-01-19T18:08:13.480Z</time>
      </trkpt>
      <trkpt lon="-96.047087" lat="64.295297">
        <ele>135.071</ele>
        <time>2026-01-19T18:08:18.032Z</time>
      </trkpt>
      <trkpt lon="-96.044195" lat="64.290186">
        <ele>115.906</ele>
        <time>2026-01-19T18:08:25.792Z</time>
      </trkpt>
      <trkpt lon="-96.039110" lat="64.282293">
        <ele>108.995</ele>
        <time>2026-01-19T18:08:36.972Z</time>
      </trkpt>
      <trkpt lon="-96.033652" lat="64.273118">
        <ele>121.62</ele>
        <time>2026-01-19T18:08:49.448Z</time>
      </trkpt>
      <trkpt lon="-96.033095" lat="64.271157">
        <ele>126.178</ele>
        <time>2026-01-19T18:08:52.052Z</time>
      </trkpt>
      <trkpt lon="-96.032962" lat="64.269640">
        <ele>128.318</ele>
        <time>2026-01-19T18:08:54.004Z</time>
      </trkpt>
      <trkpt lon="-96.033171" lat="64.267548">
        <ele>131.973</ele>
        <time>2026-01-19T18:08:56.632Z</time>
      </trkpt>
      <trkpt lon="-96.033624" lat="64.265973">
        <ele>136.934</ele>
        <time>2026-01-19T18:08:58.616Z</time>
      </trkpt>
      <trkpt lon="-96.034378" lat="64.264367">
        <ele>143.768</ele>
        <time>2026-01-19T18:09:00.600Z</time>
      </trkpt>
      <trkpt lon="-96.035742" lat="64.262368">
        <ele>155.715</ele>
        <time>2026-01-19T18:09:03.180Z</time>
      </trkpt>
      <trkpt lon="-96.037526" lat="64.260457">
        <ele>171.4</ele>
        <time>2026-01-19T18:09:05.756Z</time>
      </trkpt>
      <trkpt lon="-96.039780" lat="64.258597">
        <ele>190.913</ele>
        <time>2026-01-19T18:09:08.448Z</time>
      </trkpt>
      <trkpt lon="-96.041683" lat="64.257292">
        <ele>207.077</ele>
        <time>2026-01-19T18:09:10.472Z</time>
      </trkpt>
      <trkpt lon="-96.043713" lat="64.256127">
        <ele>224.972</ele>
        <time>2026-01-19T18:09:12.424Z</time>
      </trkpt>
      <trkpt lon="-96.045912" lat="64.255096">
        <ele>240.926</ele>
        <time>2026-01-19T18:09:14.360Z</time>
      </trkpt>
      <trkpt lon="-96.049134" lat="64.253884">
        <ele>258.313</ele>
        <time>2026-01-19T18:09:16.964Z</time>
      </trkpt>
      <trkpt lon="-96.052738" lat="64.252844">
        <ele>271.584</ele>
        <time>2026-01-19T18:09:19.628Z</time>
      </trkpt>
      <trkpt lon="-96.055516" lat="64.252209">
        <ele>279.091</ele>
        <time>2026-01-19T18:09:21.560Z</time>
      </trkpt>
      <trkpt lon="-96.058459" lat="64.251679">
        <ele>286.21</ele>
        <time>2026-01-19T18:09:23.516Z</time>
      </trkpt>
      <trkpt lon="-96.062543" lat="64.251144">
        <ele>296.801</ele>
        <time>2026-01-19T18:09:26.160Z</time>
      </trkpt>
      <trkpt lon="-96.066538" lat="64.250790">
        <ele>310.016</ele>
        <time>2026-01-19T18:09:28.740Z</time>
      </trkpt>
      <trkpt lon="-96.071463" lat="64.250550">
        <ele>331.385</ele>
        <time>2026-01-19T18:09:32.032Z</time>
      </trkpt>
      <trkpt lon="-96.077925" lat="64.250472">
        <ele>359.404</ele>
        <time>2026-01-19T18:09:36.632Z</time>
      </trkpt>
      <trkpt lon="-96.083060" lat="64.250402">
        <ele>375.864</ele>
        <time>2026-01-19T18:09:40.584Z</time>
      </trkpt>
      <trkpt lon="-96.093099" lat="64.250133">
        <ele>339.894</ele>
        <time>2026-01-19T18:09:49.120Z</time>
      </trkpt>
      <trkpt lon="-96.096183" lat="64.250128">
        <ele>304.587</ele>
        <time>2026-01-19T18:09:51.724Z</time>
      </trkpt>
      <trkpt lon="-96.098584" lat="64.250162">
        <ele>272.056</ele>
        <time>2026-01-19T18:09:53.660Z</time>
      </trkpt>
      <trkpt lon="-96.101143" lat="64.250233">
        <ele>235.386</ele>
        <time>2026-01-19T18:09:55.608Z</time>
      </trkpt>
      <trkpt lon="-96.102898" lat="64.250302">
        <ele>210.61</ele>
        <time>2026-01-19T18:09:56.884Z</time>
      </trkpt>
      <trkpt lon="-96.104823" lat="64.250391">
        <ele>184.507</ele>
        <time>2026-01-19T18:09:58.216Z</time>
      </trkpt>
      <trkpt lon="-96.106769" lat="64.250496">
        <ele>160.111</ele>
        <time>2026-01-19T18:09:59.536Z</time>
      </trkpt>
      <trkpt lon="-96.108855" lat="64.250623">
        <ele>136.767</ele>
        <time>2026-01-19T18:10:00.888Z</time>
      </trkpt>
      <trkpt lon="-96.110962" lat="64.250761">
        <ele>116.021</ele>
        <time>2026-01-19T18:10:02.224Z</time>
      </trkpt>
      <trkpt lon="-96.114075" lat="64.250972">
        <ele>92.3546</ele>
        <time>2026-01-19T18:10:04.180Z</time>
      </trkpt>
      <trkpt lon="-96.118226" lat="64.251300">
        <ele>72.4284</ele>
        <time>2026-01-19T18:10:06.800Z</time>
      </trkpt>
      <trkpt lon="-96.122104" lat="64.251646">
        <ele>65.5307</ele>
        <time>2026-01-19T18:10:09.400Z</time>
      </trkpt>
      <trkpt lon="-96.125606" lat="64.251995">
        <ele>67.7803</ele>
        <time>2026-01-19T18:10:12.000Z</time>
      </trkpt>
      <trkpt lon="-96.128795" lat="64.252364">
        <ele>69.5469</ele>
        <time>2026-01-19T18:10:14.628Z</time>
      </trkpt>
      <trkpt lon="-96.139233" lat="64.253996">
        <ele>55.6898</ele>
        <time>2026-01-19T18:10:23.700Z</time>
      </trkpt>
      <trkpt lon="-96.150109" lat="64.256327">
        <ele>53.342</ele>
        <time>2026-01-19T18:10:33.540Z</time>
      </trkpt>
      <trkpt lon="-96.153234" lat="64.257106">
        <ele>65.7012</ele>
        <time>2026-01-19T18:10:36.844Z</time>
      </trkpt>
      <trkpt lon="-96.155985" lat="64.257783">
        <ele>69.609</ele>
        <time>2026-01-19T18:10:40.108Z</time>
      </trkpt>
      <trkpt lon="-96.156983" lat="64.258058">
        <ele>67.7137</ele>
        <time>2026-01-19T18:10:41.424Z</time>
      </trkpt>
      <trkpt lon="-96.158375" lat="64.258509">
        <ele>56.5826</ele>
        <time>2026-01-19T18:10:43.408Z</time>
      </trkpt>
      <trkpt lon="-96.160065" lat="64.259151">
        <ele>37.2779</ele>
        <time>2026-01-19T18:10:46.004Z</time>
      </trkpt>
      <trkpt lon="-96.162610" lat="64.260028">
        <ele>24.9518</ele>
        <time>2026-01-19T18:10:49.916Z</time>
      </trkpt>
      <trkpt lon="-96.164291" lat="64.260499">
        <ele>21.9786</ele>
        <time>2026-01-19T18:10:52.496Z</time>
      </trkpt>
      <trkpt lon="-96.179161" lat="64.263589">
        <ele>5.89848</ele>
        <time>2026-01-19T18:11:16.584Z</time>
      </trkpt>
      <trkpt lon="-96.181275" lat="64.263921">
        <ele>3.03229</ele>
        <time>2026-01-19T18:11:20.480Z</time>
      </trkpt>
      <trkpt lon="-96.181949" lat="64.263955">
        <ele>2.5401</ele>
        <time>2026-01-19T18:11:21.836Z</time>
      </trkpt>
      <trkpt lon="-96.182539" lat="64.263982">
        <ele>2.47422</ele>
        <time>2026-01-19T18:11:23.148Z</time>
      </trkpt>
      <trkpt lon="-96.182795" lat="64.263996">
        <ele>1.97058</ele>
        <time>2026-01-19T18:11:23.796Z</time>
      </trkpt>
      <trkpt lon="-96.183230" lat="64.264003">
        <ele>1.76309</ele>
        <time>2026-01-19T18:11:25.124Z</time>
      </trkpt>
      <trkpt lon="-96.183408" lat="64.264024">
        <ele>1.8569</ele>
        <time>2026-01-19T18:11:25.788Z</time>
      </trkpt>
      <trkpt lon="-96.183557" lat="64.264058">
        <ele>2.05055</ele>
        <time>2026-01-19T18:11:26.436Z</time>
      </trkpt>
      <trkpt lon="-96.184244" lat="64.264254">
        <ele>3.30397</ele>
        <time>2026-01-19T18:11:29.060Z</time>
      </trkpt>
      <trkpt lon="-96.184936" lat="64.264428">
        <ele>4.65447</ele>
        <time>2026-01-19T18:11:31.012Z</time>
      </trkpt>
      <trkpt lon="-96.185282" lat="64.264505">
        <ele>5.22568</ele>
        <time>2026-01-19T18:11:32.360Z</time>
      </trkpt>
      <trkpt lon="-96.185461" lat="64.264550">
        <ele>5.14479</ele>
        <time>2026-01-19T18:11:33.652Z</time>
      </trkpt>
      <trkpt lon="-96.185543" lat="64.264574">
        <ele>5.1446</ele>
        <time>2026-01-19T18:11:35.008Z</time>
      </trkpt>
      <trkpt lon="-96.185723" lat="64.264637">
        <ele>5.04932</ele>
        <time>2026-01-19T18:11:42.388Z</time>
      </trkpt>
      <trkpt lon="-96.185840" lat="64.264670">
        <ele>4.83498</ele>
        <time>2026-01-19T18:11:43.056Z</time>
      </trkpt>
      <trkpt lon="-96.185991" lat="64.264705">
        <ele>4.84361</ele>
        <time>2026-01-19T18:11:43.716Z</time>
      </trkpt>
      <trkpt lon="-96.186184" lat="64.264736">
        <ele>5.0133</ele>
        <time>2026-01-19T18:11:44.404Z</time>
      </trkpt>
      <trkpt lon="-96.186636" lat="64.264788">
        <ele>5.50803</ele>
        <time>2026-01-19T18:11:45.720Z</time>
      </trkpt>
      <trkpt lon="-96.186886" lat="64.264829">
        <ele>5.57008</ele>
        <time>2026-01-19T18:11:46.372Z</time>
      </trkpt>
      <trkpt lon="-96.188065" lat="64.265071">
        <ele>5.07497</ele>
        <time>2026-01-19T18:11:49.016Z</time>
      </trkpt>
      <trkpt lon="-96.189473" lat="64.265353">
        <ele>3.94943</ele>
        <time>2026-01-19T18:11:51.632Z</time>
      </trkpt>
      <trkpt lon="-96.189849" lat="64.265417">
        <ele>3.90587</ele>
        <time>2026-01-19T18:11:52.300Z</time>
      </trkpt>
      <trkpt lon="-96.190226" lat="64.265490">
        <ele>3.72309</ele>
        <time>2026-01-19T18:11:52.980Z</time>
      </trkpt>
      <trkpt lon="-96.190983" lat="64.265626">
        <ele>3.20166</ele>
        <time>2026-01-19T18:11:54.332Z</time>
      </trkpt>
      <trkpt lon="-96.191738" lat="64.265742">
        <ele>2.81522</ele>
        <time>2026-01-19T18:11:55.648Z</time>
      </trkpt>
      <trkpt lon="-96.192123" lat="64.265790">
        <ele>2.14085</ele>
        <time>2026-01-19T18:11:56.292Z</time>
      </trkpt>
      <trkpt lon="-96.192907" lat="64.265891">
        <ele>3.02642</ele>
        <time>2026-01-19T18:11:57.616Z</time>
      </trkpt>
      <trkpt lon="-96.197686" lat="64.266680">
        <ele>16.6637</ele>
        <time>2026-01-19T18:12:05.060Z</time>
      </trkpt>
      <trkpt lon="-96.200803" lat="64.267355">
        <ele>32.0693</ele>
        <time>2026-01-19T18:12:09.664Z</time>
      </trkpt>
      <trkpt lon="-96.203540" lat="64.268156">
        <ele>44.0903</ele>
        <time>2026-01-19T18:12:13.648Z</time>
      </trkpt>
      <trkpt lon="-96.205746" lat="64.269020">
        <ele>57.3854</ele>
        <time>2026-01-19T18:12:16.976Z</time>
      </trkpt>
      <trkpt lon="-96.207367" lat="64.269832">
        <ele>72.5889</ele>
        <time>2026-01-19T18:12:19.672Z</time>
      </trkpt>
      <trkpt lon="-96.209099" lat="64.270912">
        <ele>92.2963</ele>
        <time>2026-01-19T18:12:22.908Z</time>
      </trkpt>
      <trkpt lon="-96.214175" lat="64.274617">
        <ele>107.251</ele>
        <time>2026-01-19T18:12:32.640Z</time>
      </trkpt>
      <trkpt lon="-96.215393" lat="64.275714">
        <ele>113.042</ele>
        <time>2026-01-19T18:12:35.256Z</time>
      </trkpt>
      <trkpt lon="-96.215836" lat="64.276288">
        <ele>115.621</ele>
        <time>2026-01-19T18:12:36.556Z</time>
      </trkpt>
      <trkpt lon="-96.216140" lat="64.276890">
        <ele>117.144</ele>
        <time>2026-01-19T18:12:37.868Z</time>
      </trkpt>
      <trkpt lon="-96.216296" lat="64.277498">
        <ele>116.786</ele>
        <time>2026-01-19T18:12:39.156Z</time>
      </trkpt>
      <trkpt lon="-96.216287" lat="64.278133">
        <ele>115.266</ele>
        <time>2026-01-19T18:12:40.468Z</time>
      </trkpt>
      <trkpt lon="-96.216097" lat="64.278763">
        <ele>114.431</ele>
        <time>2026-01-19T18:12:41.756Z</time>
      </trkpt>
      <trkpt lon="-96.215707" lat="64.279397">
        <ele>115.175</ele>
        <time>2026-01-19T18:12:43.072Z</time>
      </trkpt>
      <trkpt lon="-96.215141" lat="64.280003">
        <ele>117.429</ele>
        <time>2026-01-19T18:12:44.352Z</time>
      </trkpt>
      <trkpt lon="-96.214413" lat="64.280578">
        <ele>120.699</ele>
        <time>2026-01-19T18:12:45.648Z</time>
      </trkpt>
      <trkpt lon="-96.213504" lat="64.281123">
        <ele>123.42</ele>
        <time>2026-01-19T18:12:46.952Z</time>
      </trkpt>
      <trkpt lon="-96.212439" lat="64.281625">
        <ele>124.099</ele>
        <time>2026-01-19T18:12:48.264Z</time>
      </trkpt>
      <trkpt lon="-96.211235" lat="64.282084">
        <ele>122.925</ele>
        <time>2026-01-19T18:12:49.580Z</time>
      </trkpt>
      <trkpt lon="-96.209931" lat="64.282494">
        <ele>119.83</ele>
        <time>2026-01-19T18:12:50.868Z</time>
      </trkpt>
      <trkpt lon="-96.208510" lat="64.282862">
        <ele>115.505</ele>
        <time>2026-01-19T18:12:52.156Z</time>
      </trkpt>
      <trkpt lon="-96.206094" lat="64.283325">
        <ele>112.272</ele>
        <time>2026-01-19T18:12:54.116Z</time>
      </trkpt>
      <trkpt lon="-96.202489" lat="64.283778">
        <ele>121.688</ele>
        <time>2026-01-19T18:12:56.744Z</time>
      </trkpt>
      <trkpt lon="-96.199665" lat="64.284066">
        <ele>142.642</ele>
        <time>2026-01-19T18:12:58.720Z</time>
      </trkpt>
      <trkpt lon="-96.195714" lat="64.284437">
        <ele>169.407</ele>
        <time>2026-01-19T18:13:01.400Z</time>
      </trkpt>
      <trkpt lon="-96.189743" lat="64.285021">
        <ele>185.729</ele>
        <time>2026-01-19T18:13:05.248Z</time>
      </trkpt>
      <trkpt lon="-96.181092" lat="64.286071">
        <ele>202.444</ele>
        <time>2026-01-19T18:13:10.492Z</time>
      </trkpt>
      <trkpt lon="-96.174461" lat="64.286970">
        <ele>227.279</ele>
        <time>2026-01-19T18:13:14.400Z</time>
      </trkpt>
      <trkpt lon="-96.167947" lat="64.287930">
        <ele>254.911</ele>
        <time>2026-01-19T18:13:18.248Z</time>
      </trkpt>
      <trkpt lon="-96.161320" lat="64.288987">
        <ele>281.503</ele>
        <time>2026-01-19T18:13:22.164Z</time>
      </trkpt>
      <trkpt lon="-96.152564" lat="64.290706">
        <ele>311.747</ele>
        <time>2026-01-19T18:13:27.428Z</time>
      </trkpt>
      <trkpt lon="-96.145010" lat="64.292249">
        <ele>341.04</ele>
        <time>2026-01-19T18:13:31.992Z</time>
      </trkpt>
      <trkpt lon="-96.137564" lat="64.293809">
        <ele>375.676</ele>
        <time>2026-01-19T18:13:36.532Z</time>
      </trkpt>
      <trkpt lon="-96.130048" lat="64.295159">
        <ele>411.229</ele>
        <time>2026-01-19T18:13:41.048Z</time>
      </trkpt>
      <trkpt lon="-96.123542" lat="64.296003">
        <ele>415.383</ele>
        <time>2026-01-19T18:13:44.952Z</time>
      </trkpt>
      <trkpt lon="-96.119286" lat="64.296433">
        <ele>389.31</ele>
        <time>2026-01-19T18:13:47.580Z</time>
      </trkpt>
      <trkpt lon="-96.117075" lat="64.296580">
        <ele>365.188</ele>
        <time>2026-01-19T18:13:48.916Z</time>
      </trkpt>
      <trkpt lon="-96.115955" lat="64.296600">
        <ele>354.458</ele>
        <time>2026-01-19T18:13:49.556Z</time>
      </trkpt>
      <trkpt lon="-96.114767" lat="64.296582">
        <ele>344.761</ele>
        <time>2026-01-19T18:13:50.220Z</time>
      </trkpt>
      <trkpt lon="-96.113566" lat="64.296515">
        <ele>336.817</ele>
        <time>2026-01-19T18:13:50.892Z</time>
      </trkpt>
      <trkpt lon="-96.111245" lat="64.296243">
        <ele>328.433</ele>
        <time>2026-01-19T18:13:52.172Z</time>
      </trkpt>
      <trkpt lon="-96.108982" lat="64.295872">
        <ele>319.668</ele>
        <time>2026-01-19T18:13:53.444Z</time>
      </trkpt>
      <trkpt lon="-96.106673" lat="64.295372">
        <ele>311.067</ele>
        <time>2026-01-19T18:13:54.756Z</time>
      </trkpt>
      <trkpt lon="-96.103547" lat="64.294440">
        <ele>300.921</ele>
        <time>2026-01-19T18:13:56.672Z</time>
      </trkpt>
      <trkpt lon="-96.101656" lat="64.293713">
        <ele>298.374</ele>
        <time>2026-01-19T18:13:57.960Z</time>
      </trkpt>
      <trkpt lon="-96.100775" lat="64.293313">
        <ele>297.631</ele>
        <time>2026-01-19T18:13:58.632Z</time>
      </trkpt>
      <trkpt lon="-96.099998" lat="64.292908">
        <ele>296.366</ele>
        <time>2026-01-19T18:13:59.272Z</time>
      </trkpt>
      <trkpt lon="-96.099313" lat="64.292488">
        <ele>294.526</ele>
        <time>2026-01-19T18:13:59.920Z</time>
      </trkpt>
      <trkpt lon="-96.098192" lat="64.291577">
        <ele>291.99</ele>
        <time>2026-01-19T18:14:01.228Z</time>
      </trkpt>
      <trkpt lon="-96.097786" lat="64.291130">
        <ele>290.92</ele>
        <time>2026-01-19T18:14:01.852Z</time>
      </trkpt>
      <trkpt lon="-96.097163" lat="64.290164">
        <ele>286.653</ele>
        <time>2026-01-19T18:14:03.180Z</time>
      </trkpt>
      <trkpt lon="-96.096179" lat="64.287737">
        <ele>262.612</ele>
        <time>2026-01-19T18:14:06.516Z</time>
      </trkpt>
      <trkpt lon="-96.095891" lat="64.287276">
        <ele>256.643</ele>
        <time>2026-01-19T18:14:07.164Z</time>
      </trkpt>
      <trkpt lon="-96.095106" lat="64.286439">
        <ele>245.216</ele>
        <time>2026-01-19T18:14:08.416Z</time>
      </trkpt>
      <trkpt lon="-96.093989" lat="64.285646">
        <ele>244.529</ele>
        <time>2026-01-19T18:14:09.744Z</time>
      </trkpt>
      <trkpt lon="-96.091434" lat="64.284371">
        <ele>240.51</ele>
        <time>2026-01-19T18:14:12.384Z</time>
      </trkpt>
      <trkpt lon="-96.090730" lat="64.284090">
        <ele>237.05</ele>
        <time>2026-01-19T18:14:13.056Z</time>
      </trkpt>
      <trkpt lon="-96.089967" lat="64.283823">
        <ele>232.792</ele>
        <time>2026-01-19T18:14:13.744Z</time>
      </trkpt>
      <trkpt lon="-96.089209" lat="64.283595">
        <ele>228.244</ele>
        <time>2026-01-19T18:14:14.384Z</time>
      </trkpt>
      <trkpt lon="-96.088418" lat="64.283395">
        <ele>224.051</ele>
        <time>2026-01-19T18:14:15.032Z</time>
      </trkpt>
      <trkpt lon="-96.085924" lat="64.282937">
        <ele>215.851</ele>
        <time>2026-01-19T18:14:16.960Z</time>
      </trkpt>
      <trkpt lon="-96.084205" lat="64.282702">
        <ele>207.99</ele>
        <time>2026-01-19T18:14:18.256Z</time>
      </trkpt>
      <trkpt lon="-96.082412" lat="64.282554">
        <ele>200.981</ele>
        <time>2026-01-19T18:14:19.584Z</time>
      </trkpt>
      <trkpt lon="-96.080636" lat="64.282507">
        <ele>196.956</ele>
        <time>2026-01-19T18:14:20.900Z</time>
      </trkpt>
      <trkpt lon="-96.078967" lat="64.282578">
        <ele>200.258</ele>
        <time>2026-01-19T18:14:22.188Z</time>
      </trkpt>
      <trkpt lon="-96.076558" lat="64.282816">
        <ele>197.297</ele>
        <time>2026-01-19T18:14:24.164Z</time>
      </trkpt>
      <trkpt lon="-96.075079" lat="64.283050">
        <ele>192.053</ele>
        <time>2026-01-19T18:14:25.476Z</time>
      </trkpt>
      <trkpt lon="-96.074405" lat="64.283200">
        <ele>190.394</ele>
        <time>2026-01-19T18:14:26.124Z</time>
      </trkpt>
      <trkpt lon="-96.073171" lat="64.283546">
        <ele>186.746</ele>
        <time>2026-01-19T18:14:27.436Z</time>
      </trkpt>
      <trkpt lon="-96.072114" lat="64.283933">
        <ele>182.023</ele>
        <time>2026-01-19T18:14:28.752Z</time>
      </trkpt>
      <trkpt lon="-96.071667" lat="64.284134">
        <ele>179.461</ele>
        <time>2026-01-19T18:14:29.392Z</time>
      </trkpt>
      <trkpt lon="-96.071254" lat="64.284353">
        <ele>176.971</ele>
        <time>2026-01-19T18:14:30.056Z</time>
      </trkpt>
      <trkpt lon="-96.070914" lat="64.284573">
        <ele>174.857</ele>
        <time>2026-01-19T18:14:30.704Z</time>
      </trkpt>
      <trkpt lon="-96.070632" lat="64.284799">
        <ele>172.813</ele>
        <time>2026-01-19T18:14:31.352Z</time>
      </trkpt>
      <trkpt lon="-96.070231" lat="64.285252">
        <ele>168.065</ele>
        <time>2026-01-19T18:14:32.616Z</time>
      </trkpt>
      <trkpt lon="-96.069996" lat="64.285714">
        <ele>161.717</ele>
        <time>2026-01-19T18:14:33.928Z</time>
      </trkpt>
      <trkpt lon="-96.069833" lat="64.286592">
        <ele>138.803</ele>
        <time>2026-01-19T18:14:36.524Z</time>
      </trkpt>
      <trkpt lon="-96.069910" lat="64.287456">
        <ele>115.139</ele>
        <time>2026-01-19T18:14:39.124Z</time>
      </trkpt>
      <trkpt lon="-96.070153" lat="64.288301">
        <ele>94.5992</ele>
        <time>2026-01-19T18:14:41.712Z</time>
      </trkpt>
      <trkpt lon="-96.070513" lat="64.289149">
        <ele>75.7104</ele>
        <time>2026-01-19T18:14:44.288Z</time>
      </trkpt>
      <trkpt lon="-96.071344" lat="64.290513">
        <ele>55.9814</ele>
        <time>2026-01-19T18:14:48.244Z</time>
      </trkpt>
      <trkpt lon="-96.072542" lat="64.292150">
        <ele>38.2224</ele>
        <time>2026-01-19T18:14:52.876Z</time>
      </trkpt>
      <trkpt lon="-96.073684" lat="64.293731">
        <ele>31.7761</ele>
        <time>2026-01-19T18:14:57.616Z</time>
      </trkpt>
      <trkpt lon="-96.074319" lat="64.294659">
        <ele>31.5627</ele>
        <time>2026-01-19T18:15:00.992Z</time>
      </trkpt>
      <trkpt lon="-96.075022" lat="64.295748">
        <ele>23.0401</ele>
        <time>2026-01-19T18:15:05.736Z</time>
      </trkpt>
      <trkpt lon="-96.075891" lat="64.296875">
        <ele>19.5393</ele>
        <time>2026-01-19T18:15:11.172Z</time>
      </trkpt>
      <trkpt lon="-96.076104" lat="64.297180">
        <ele>19.8995</ele>
        <time>2026-01-19T18:15:13.180Z</time>
      </trkpt>
      <trkpt lon="-96.076195" lat="64.297307">
        <ele>20.0174</ele>
        <time>2026-01-19T18:15:14.524Z</time>
      </trkpt>
      <trkpt lon="-96.076237" lat="64.297363">
        <ele>20.0495</ele>
        <time>2026-01-19T18:15:15.852Z</time>
      </trkpt>
    </trkseg>
    <trkseg>
      <trkpt lon="10.218787" lat="49.390656">
        <ele>400.068</ele>
        <time>2026-01-19T18:23:22.132Z</time>
      </trkpt>
      <trkpt lon="10.219294" lat="49.391204">
        <ele>400.01</ele>
        <time>2026-01-19T18:37:53.680Z</time>
      </trkpt>
      <trkpt lon="10.219158" lat="49.391136">
        <ele>399.925</ele>
        <time>2026-01-19T18:39:30.240Z</time>
      </trkpt>
      <trkpt lon="10.219124" lat="49.390971">
        <ele>399.981</ele>
        <time>2026-01-19T14:54:46.488Z</time>
      </trkpt>
      <trkpt lon="10.219116" lat="49.390928">
        <ele>399.982</ele>
        <time>2026-01-19T14:54:56.924Z</time>
      </trkpt>
      <trkpt lon="10.219113" lat="49.390911">
        <ele>399.981</ele>
        <time>2026-01-19T14:55:17.752Z</time>
      </trkpt>
      <trkpt lon="10.219107" lat="49.390828">
        <ele>399.983</ele>
        <time>2026-01-19T14:55:20.436Z</time>
      </trkpt>
      <trkpt lon="10.219109" lat="49.390780">
        <ele>399.97</ele>
        <time>2026-01-19T14:55:21.736Z</time>
      </trkpt>
      <trkpt lon="10.219118" lat="49.390748">
        <ele>399.971</ele>
        <time>2026-01-19T14:55:42.860Z</time>
      </trkpt>
      <trkpt lon="10.219125" lat="49.390730">
        <ele>399.973</ele>
        <time>2026-01-19T14:56:27.852Z</time>
      </trkpt>
      <trkpt lon="10.219134" lat="49.390716">
        <ele>399.971</ele>
        <time>2026-01-19T14:56:28.524Z</time>
      </trkpt>
      <trkpt lon="10.219150" lat="49.390699">
        <ele>399.966</ele>
        <time>2026-01-19T14:56:29.176Z</time>
      </trkpt>
      <trkpt lon="10.219174" lat="49.390682">
        <ele>399.953</ele>
        <time>2026-01-19T14:56:29.848Z</time>
      </trkpt>
      <trkpt lon="10.219195" lat="49.390672">
        <ele>399.946</ele>
        <time>2026-01-19T14:56:30.472Z</time>
      </trkpt>
      <trkpt lon="10.219230" lat="49.390661">
        <ele>399.923</ele>
        <time>2026-01-19T14:56:34.584Z</time>
      </trkpt>
      <trkpt lon="10.219326" lat="49.390635">
        <ele>399.869</ele>
        <time>2026-01-19T14:57:16.352Z</time>
      </trkpt>
      <trkpt lon="10.219391" lat="49.390615">
        <ele>399.819</ele>
        <time>2026-01-19T14:57:18.404Z</time>
      </trkpt>
      <trkpt lon="10.219557" lat="49.390548">
        <ele>399.667</ele>
        <time>2026-01-19T14:57:21.064Z</time>
      </trkpt>
      <trkpt lon="10.219595" lat="49.390526">
        <ele>399.659</ele>
        <time>2026-01-19T14:57:21.704Z</time>
      </trkpt>
      <trkpt lon="10.219618" lat="49.390502">
        <ele>399.659</ele>
        <time>2026-01-19T14:57:22.388Z</time>
      </trkpt>
      <trkpt lon="10.219641" lat="49.390453">
        <ele>399.663</ele>
        <time>2026-01-19T14:57:23.688Z</time>
      </trkpt>
      <trkpt lon="10.219647" lat="49.390429">
        <ele>399.67</ele>
        <time>2026-01-19T14:57:24.360Z</time>
      </trkpt>
      <trkpt lon="10.219648" lat="49.390405">
        <ele>399.678</ele>
        <time>2026-01-19T14:57:25.040Z</time>
      </trkpt>
      <trkpt lon="10.219645" lat="49.390388">
        <ele>399.681</ele>
        <time>2026-01-19T14:57:25.688Z</time>
      </trkpt>
      <trkpt lon="10.219611" lat="49.390336">
        <ele>399.726</ele>
        <time>2026-01-19T14:57:36.796Z</time>
      </trkpt>
      <trkpt lon="10.219499" lat="49.390179">
        <ele>399.838</ele>
        <time>2026-01-19T14:57:38.756Z</time>
      </trkpt>
      <trkpt lon="10.219347" lat="49.389916">
        <ele>400.012</ele>
        <time>2026-01-19T14:57:40.724Z</time>
      </trkpt>
      <trkpt lon="10.219293" lat="49.389803">
        <ele>400.09</ele>
        <time>2026-01-19T14:57:41.412Z</time>
      </trkpt>
      <trkpt lon="10.218958" lat="49.389289">
        <ele>401.452</ele>
        <time>2026-01-19T14:57:44.112Z</time>
      </trkpt>
      <trkpt lon="10.218168" lat="49.388472">
        <ele>416.206</ele>
        <time>2026-01-19T14:57:48.120Z</time>
      </trkpt>
      <trkpt lon="10.217334" lat="49.387797">
        <ele>423.29</ele>
        <time>2026-01-19T14:57:51.416Z</time>
      </trkpt>
      <trkpt lon="10.216442" lat="49.386981">
        <ele>431.324</ele>
        <time>2026-01-19T14:57:54.632Z</time>
      </trkpt>
      <trkpt lon="10.215481" lat="49.385790">
        <ele>438.703</ele>
        <time>2026-01-19T14:57:58.488Z</time>
      </trkpt>
      <trkpt lon="10.213939" lat="49.383422">
        <ele>455.461</ele>
        <time>2026-01-19T14:58:04.932Z</time>
      </trkpt>
      <trkpt lon="10.213469" lat="49.382373">
        <ele>468.274</ele>
        <time>2026-01-19T14:58:07.584Z</time>
      </trkpt>
      <trkpt lon="10.213051" lat="49.381049">
        <ele>488.898</ele>
        <time>2026-01-19T14:58:10.924Z</time>
      </trkpt>
      <trkpt lon="10.212690" lat="49.379766">
        <ele>510.319</ele>
        <time>2026-01-19T14:58:14.252Z</time>
      </trkpt>
      <trkpt lon="10.211740" lat="49.375648">
        <ele>532.901</ele>
        <time>2026-01-19T14:58:24.928Z</time>
      </trkpt>
      <trkpt lon="10.211109" lat="49.370844">
        <ele>556.356</ele>
        <time>2026-01-19T14:58:36.804Z</time>
      </trkpt>
      <trkpt lon="10.210687" lat="49.365997">
        <ele>580.825</ele>
        <time>2026-01-19T14:58:48.688Z</time>
      </trkpt>
      <trkpt lon="10.210165" lat="49.361200">
        <ele>606.525</ele>
        <time>2026-01-19T14:59:00.620Z</time>
      </trkpt>
      <trkpt lon="10.209775" lat="49.358049">
        <ele>616.241</ele>
        <time>2026-01-19T14:59:08.504Z</time>
      </trkpt>
      <trkpt lon="10.208748" lat="49.353006">
        <ele>643.349</ele>
        <time>2026-01-19T14:59:21.008Z</time>
      </trkpt>
      <trkpt lon="10.208145" lat="49.345237">
        <ele>672.983</ele>
        <time>2026-01-19T14:59:40.160Z</time>
      </trkpt>
      <trkpt lon="10.206880" lat="49.337243">
        <ele>702.658</ele>
        <time>2026-01-19T15:00:00.572Z</time>
      </trkpt>
      <trkpt lon="10.205944" lat="49.327626">
        <ele>732.279</ele>
        <time>2026-01-19T15:00:24.952Z</time>
      </trkpt>
      <trkpt lon="10.205314" lat="49.317315">
        <ele>728.417</ele>
        <time>2026-01-19T15:00:50.544Z</time>
      </trkpt>
      <trkpt lon="10.205590" lat="49.313544">
        <ele>705.504</ele>
        <time>2026-01-19T15:00:59.952Z</time>
      </trkpt>
      <trkpt lon="10.206068" lat="49.311392">
        <ele>691.088</ele>
        <time>2026-01-19T15:01:05.216Z</time>
      </trkpt>
      <trkpt lon="10.208543" lat="49.304396">
        <ele>670.73</ele>
        <time>2026-01-19T15:01:22.476Z</time>
      </trkpt>
      <trkpt lon="10.213577" lat="49.295242">
        <ele>648.466</ele>
        <time>2026-01-19T15:01:47.032Z</time>
      </trkpt>
      <trkpt lon="10.219724" lat="49.284884">
        <ele>657.351</ele>
        <time>2026-01-19T15:02:17.232Z</time>
      </trkpt>
      <trkpt lon="10.222580" lat="49.280539">
        <ele>655.748</ele>
        <time>2026-01-19T15:02:31.004Z</time>
      </trkpt>
      <trkpt lon="10.224999" lat="49.277304">
        <ele>668.151</ele>
        <time>2026-01-19T15:02:41.568Z</time>
      </trkpt>
      <trkpt lon="10.226167" lat="49.275012">
        <ele>671.49</ele>
        <time>2026-01-19T15:02:48.756Z</time>
      </trkpt>
      <trkpt lon="10.227386" lat="49.271721">
        <ele>671.79</ele>
        <time>2026-01-19T15:02:58.164Z</time>
      </trkpt>
      <trkpt lon="10.228015" lat="49.269440">
        <ele>695.697</ele>
        <time>2026-01-19T15:03:04.200Z</time>
      </trkpt>
      <trkpt lon="10.228420" lat="49.267499">
        <ele>721.887</ele>
        <time>2026-01-19T15:03:09.508Z</time>
      </trkpt>
      <trkpt lon="10.228594" lat="49.265503">
        <ele>740.776</ele>
        <time>2026-01-19T15:03:14.848Z</time>
      </trkpt>
      <trkpt lon="10.228488" lat="49.262110">
        <ele>749.108</ele>
        <time>2026-01-19T15:03:23.416Z</time>
      </trkpt>
      <trkpt lon="10.227628" lat="49.258143">
        <ele>750.659</ele>
        <time>2026-01-19T15:03:32.672Z</time>
      </trkpt>
      <trkpt lon="10.223736" lat="49.244376">
        <ele>757.278</ele>
        <time>2026-01-19T15:04:03.100Z</time>
      </trkpt>
      <trkpt lon="10.222172" lat="49.238563">
        <ele>762.289</ele>
        <time>2026-01-19T15:04:15.700Z</time>
      </trkpt>
      <trkpt lon="10.222037" lat="49.235804">
        <ele>763.304</ele>
        <time>2026-01-19T15:04:21.596Z</time>
      </trkpt>
      <trkpt lon="10.223045" lat="49.226364">
        <ele>763.965</ele>
        <time>2026-01-19T15:04:41.952Z</time>
      </trkpt>
      <trkpt lon="10.224942" lat="49.218986">
        <ele>767.516</ele>
        <time>2026-01-19T15:04:57.912Z</time>
      </trkpt>
      <trkpt lon="10.229832" lat="49.205166">
        <ele>748.339</ele>
        <time>2026-01-19T15:05:28.496Z</time>
      </trkpt>
      <trkpt lon="10.232792" lat="49.198461">
        <ele>742.477</ele>
        <time>2026-01-19T15:05:44.544Z</time>
      </trkpt>
      <trkpt lon="10.237540" lat="49.189023">
        <ele>727.739</ele>
        <time>2026-01-19T15:06:09.752Z</time>
      </trkpt>
      <trkpt lon="10.237753" lat="49.188546">
        <ele>695.145</ele>
        <time>2026-01-19T15:06:11.120Z</time>
      </trkpt>
      <trkpt lon="10.237990" lat="49.188035">
        <ele>653.085</ele>
        <time>2026-01-19T15:06:12.468Z</time>
      </trkpt>
      <trkpt lon="10.238262" lat="49.187471">
        <ele>611.283</ele>
        <time>2026-01-19T15:06:13.792Z</time>
      </trkpt>
      <trkpt lon="10.238577" lat="49.186828">
        <ele>571.571</ele>
        <time>2026-01-19T15:06:15.160Z</time>
      </trkpt>
      <trkpt lon="10.238918" lat="49.186124">
        <ele>538.277</ele>
        <time>2026-01-19T15:06:16.480Z</time>
      </trkpt>
      <trkpt lon="10.239279" lat="49.185348">
        <ele>512.541</ele>
        <time>2026-01-19T15:06:17.840Z</time>
      </trkpt>
      <trkpt lon="10.239799" lat="49.184155">
        <ele>493.334</ele>
        <time>2026-01-19T15:06:19.852Z</time>
      </trkpt>
      <trkpt lon="10.240989" lat="49.181465">
        <ele>482.448</ele>
        <time>2026-01-19T15:06:24.604Z</time>
      </trkpt>
      <trkpt lon="10.242638" lat="49.178034">
        <ele>475.056</ele>
        <time>2026-01-19T15:06:31.288Z</time>
      </trkpt>
      <trkpt lon="10.243633" lat="49.176496">
        <ele>464.021</ele>
        <time>2026-01-19T15:06:34.596Z</time>
      </trkpt>
      <trkpt lon="10.244127" lat="49.175948">
        <ele>462.094</ele>
        <time>2026-01-19T15:06:36.688Z</time>
      </trkpt>
      <trkpt lon="10.246199" lat="49.174161">
        <ele>479.256</ele>
        <time>2026-01-19T15:06:41.372Z</time>
      </trkpt>
      <trkpt lon="10.247221" lat="49.173273">
        <ele>497.264</ele>
        <time>2026-01-19T15:06:43.968Z</time>
      </trkpt>
      <trkpt lon="10.249648" lat="49.171149">
        <ele>515.7</ele>
        <time>2026-01-19T15:06:50.540Z</time>
      </trkpt>
      <trkpt lon="10.251703" lat="49.169534">
        <ele>535.813</ele>
        <time>2026-01-19T15:06:55.960Z</time>
      </trkpt>
      <trkpt lon="10.254212" lat="49.167692">
        <ele>557.026</ele>
        <time>2026-01-19T15:07:02.524Z</time>
      </trkpt>
      <trkpt lon="10.255797" lat="49.166389">
        <ele>580.419</ele>
        <time>2026-01-19T15:07:07.120Z</time>
      </trkpt>
      <trkpt lon="10.258134" lat="49.164424">
        <ele>602.936</ele>
        <time>2026-01-19T15:07:14.304Z</time>
      </trkpt>
      <trkpt lon="10.260332" lat="49.162481">
        <ele>607.053</ele>
        <time>2026-01-19T15:07:20.952Z</time>
      </trkpt>
      <trkpt lon="10.261104" lat="49.161602">
        <ele>610.058</ele>
        <time>2026-01-19T15:07:23.612Z</time>
      </trkpt>
      <trkpt lon="10.261717" lat="49.160701">
        <ele>614.805</ele>
        <time>2026-01-19T15:07:26.204Z</time>
      </trkpt>
      <trkpt lon="10.262187" lat="49.159710">
        <ele>618.469</ele>
        <time>2026-01-19T15:07:28.872Z</time>
      </trkpt>
      <trkpt lon="10.262553" lat="49.158430">
        <ele>619.766</ele>
        <time>2026-01-19T15:07:32.172Z</time>
      </trkpt>
      <trkpt lon="10.262782" lat="49.156570">
        <ele>622.199</ele>
        <time>2026-01-19T15:07:36.828Z</time>
      </trkpt>
      <trkpt lon="10.262911" lat="49.150731">
        <ele>622.337</ele>
        <time>2026-01-19T15:07:50.768Z</time>
      </trkpt>
      <trkpt lon="10.262629" lat="49.148414">
        <ele>627.277</ele>
        <time>2026-01-19T15:07:56.232Z</time>
      </trkpt>
      <trkpt lon="10.261677" lat="49.145040">
        <ele>651.744</ele>
        <time>2026-01-19T15:08:04.732Z</time>
      </trkpt>
      <trkpt lon="10.258471" lat="49.137877">
        <ele>675.527</ele>
        <time>2026-01-19T15:08:23.396Z</time>
      </trkpt>
      <trkpt lon="10.257184" lat="49.135655">
        <ele>691.61</ele>
        <time>2026-01-19T15:08:29.432Z</time>
      </trkpt>
      <trkpt lon="10.252903" lat="49.130258">
        <ele>711.329</ele>
        <time>2026-01-19T15:08:44.648Z</time>
      </trkpt>
      <trkpt lon="10.249273" lat="49.126310">
        <ele>685.251</ele>
        <time>2026-01-19T15:08:55.324Z</time>
      </trkpt>
      <trkpt lon="10.244366" lat="49.121458">
        <ele>714.042</ele>
        <time>2026-01-19T15:09:08.572Z</time>
      </trkpt>
      <trkpt lon="10.241202" lat="49.118118">
        <ele>717.275</ele>
        <time>2026-01-19T15:09:18.300Z</time>
      </trkpt>
      <trkpt lon="10.238101" lat="49.114399">
        <ele>747.348</ele>
        <time>2026-01-19T15:09:28.864Z</time>
      </trkpt>
      <trkpt lon="10.229940" lat="49.103832">
        <ele>759.949</ele>
        <time>2026-01-19T15:09:59.312Z</time>
      </trkpt>
      <trkpt lon="10.221555" lat="49.093130">
        <ele>740.757</ele>
        <time>2026-01-19T15:10:27.840Z</time>
      </trkpt>
      <trkpt lon="10.210988" lat="49.081663">
        <ele>722.78</ele>
        <time>2026-01-19T15:10:58.492Z</time>
      </trkpt>
      <trkpt lon="10.207473" lat="49.078068">
        <ele>729.172</ele>
        <time>2026-01-19T15:11:08.516Z</time>
      </trkpt>
      <trkpt lon="10.201564" lat="49.073334">
        <ele>756.907</ele>
        <time>2026-01-19T15:11:22.752Z</time>
      </trkpt>
      <trkpt lon="10.192872" lat="49.066077">
        <ele>766.724</ele>
        <time>2026-01-19T15:11:42.932Z</time>
      </trkpt>
      <trkpt lon="10.187506" lat="49.061572">
        <ele>765.543</ele>
        <time>2026-01-19T15:11:54.772Z</time>
      </trkpt>
      <trkpt lon="10.186562" lat="49.060493">
        <ele>771.929</ele>
        <time>2026-01-19T15:11:57.400Z</time>
      </trkpt>
      <trkpt lon="10.185837" lat="49.059359">
        <ele>776.182</ele>
        <time>2026-01-19T15:12:00.096Z</time>
      </trkpt>
      <trkpt lon="10.183559" lat="49.054538">
        <ele>747.199</ele>
        <time>2026-01-19T15:12:10.784Z</time>
      </trkpt>
      <trkpt lon="10.181662" lat="49.048296">
        <ele>722.318</ele>
        <time>2026-01-19T15:12:23.556Z</time>
      </trkpt>
      <trkpt lon="10.179700" lat="49.039102">
        <ele>715.302</ele>
        <time>2026-01-19T15:12:42.376Z</time>
      </trkpt>
      <trkpt lon="10.179674" lat="49.036182">
        <ele>708.676</ele>
        <time>2026-01-19T15:12:48.352Z</time>
      </trkpt>
      <trkpt lon="10.180402" lat="49.021805">
        <ele>727.866</ele>
        <time>2026-01-19T15:13:18.360Z</time>
      </trkpt>
      <trkpt lon="10.179357" lat="49.008122">
        <ele>731.814</ele>
        <time>2026-01-19T15:13:47.088Z</time>
      </trkpt>
      <trkpt lon="10.177146" lat="48.996566">
        <ele>719.115</ele>
        <time>2026-01-19T15:14:11.048Z</time>
      </trkpt>
      <trkpt lon="10.172788" lat="48.982170">
        <ele>723.492</ele>
        <time>2026-01-19T15:14:41.212Z</time>
      </trkpt>
      <trkpt lon="10.168379" lat="48.967771">
        <ele>726.985</ele>
        <time>2026-01-19T15:15:11.660Z</time>
      </trkpt>
      <trkpt lon="10.166558" lat="48.955634">
        <ele>741.986</ele>
        <time>2026-01-19T15:15:37.744Z</time>
      </trkpt>
      <trkpt lon="10.166495" lat="48.946000">
        <ele>761.637</ele>
        <time>2026-01-19T15:15:58.352Z</time>
      </trkpt>
      <trkpt lon="10.168442" lat="48.931733">
        <ele>765.956</ele>
        <time>2026-01-19T15:16:28.904Z</time>
      </trkpt>
      <trkpt lon="10.172345" lat="48.917496">
        <ele>762.571</ele>
        <time>2026-01-19T15:16:59.220Z</time>
      </trkpt>
      <trkpt lon="10.175948" lat="48.903289">
        <ele>760.6</ele>
        <time>2026-01-19T15:17:29.784Z</time>
      </trkpt>
      <trkpt lon="10.177586" lat="48.891447">
        <ele>751.378</ele>
        <time>2026-01-19T15:17:55.008Z</time>
      </trkpt>
      <trkpt lon="10.178013" lat="48.876806">
        <ele>741.607</ele>
        <time>2026-01-19T15:18:25.088Z</time>
      </trkpt>
      <trkpt lon="10.176654" lat="48.862177">
        <ele>740.055</ele>
        <time>2026-01-19T15:18:55.092Z</time>
      </trkpt>
      <trkpt lon="10.175951" lat="48.858739">
        <ele>740.201</ele>
        <time>2026-01-19T15:19:02.272Z</time>
      </trkpt>
      <trkpt lon="10.172354" lat="48.844304">
        <ele>741.337</ele>
        <time>2026-01-19T15:19:32.428Z</time>
      </trkpt>
      <trkpt lon="10.169002" lat="48.832811">
        <ele>742.467</ele>
        <time>2026-01-19T15:19:56.388Z</time>
      </trkpt>
      <trkpt lon="10.168997" lat="48.832193">
        <ele>745.483</ele>
        <time>2026-01-19T15:19:57.692Z</time>
      </trkpt>
      <trkpt lon="10.169088" lat="48.831569">
        <ele>746.63</ele>
        <time>2026-01-19T15:19:59.028Z</time>
      </trkpt>
      <trkpt lon="10.169270" lat="48.830952">
        <ele>745.555</ele>
        <time>2026-01-19T15:20:00.352Z</time>
      </trkpt>
      <trkpt lon="10.169691" lat="48.830058">
        <ele>744.345</ele>
        <time>2026-01-19T15:20:02.336Z</time>
      </trkpt>
      <trkpt lon="10.170280" lat="48.829191">
        <ele>747.791</ele>
        <time>2026-01-19T15:20:04.348Z</time>
      </trkpt>
      <trkpt lon="10.170995" lat="48.828408">
        <ele>751.831</ele>
        <time>2026-01-19T15:20:06.272Z</time>
      </trkpt>
      <trkpt lon="10.172133" lat="48.827433">
        <ele>757.267</ele>
        <time>2026-01-19T15:20:08.988Z</time>
      </trkpt>
      <trkpt lon="10.174647" lat="48.825656">
        <ele>765.883</ele>
        <time>2026-01-19T15:20:14.256Z</time>
      </trkpt>
      <trkpt lon="10.177519" lat="48.824000">
        <ele>761.992</ele>
        <time>2026-01-19T15:20:19.636Z</time>
      </trkpt>
      <trkpt lon="10.179838" lat="48.822916">
        <ele>758.307</ele>
        <time>2026-01-19T15:20:23.596Z</time>
      </trkpt>
      <trkpt lon="10.181092" lat="48.822477">
        <ele>759.403</ele>
        <time>2026-01-19T15:20:25.576Z</time>
      </trkpt>
      <trkpt lon="10.182434" lat="48.822128">
        <ele>761.096</ele>
        <time>2026-01-19T15:20:27.584Z</time>
      </trkpt>
      <trkpt lon="10.185194" lat="48.821635">
        <ele>766.411</ele>
        <time>2026-01-19T15:20:31.528Z</time>
      </trkpt>
      <trkpt lon="10.195912" lat="48.820199">
        <ele>790.18</ele>
        <time>2026-01-19T15:20:46.752Z</time>
      </trkpt>
      <trkpt lon="10.203612" lat="48.819243">
        <ele>815.394</ele>
        <time>2026-01-19T15:20:58.048Z</time>
      </trkpt>
      <trkpt lon="10.220328" lat="48.817773">
        <ele>838.858</ele>
        <time>2026-01-19T15:21:22.016Z</time>
      </trkpt>
      <trkpt lon="10.222783" lat="48.817755">
        <ele>846.133</ele>
        <time>2026-01-19T15:21:25.420Z</time>
      </trkpt>
      <trkpt lon="10.230668" lat="48.818300">
        <ele>873.835</ele>
        <time>2026-01-19T15:21:36.752Z</time>
      </trkpt>
      <trkpt lon="10.251346" lat="48.819702">
        <ele>894.282</ele>
        <time>2026-01-19T15:22:05.356Z</time>
      </trkpt>
      <trkpt lon="10.252331" lat="48.819685">
        <ele>898.901</ele>
        <time>2026-01-19T15:22:06.724Z</time>
      </trkpt>
      <trkpt lon="10.253273" lat="48.819593">
        <ele>903.72</ele>
        <time>2026-01-19T15:22:08.056Z</time>
      </trkpt>
      <trkpt lon="10.254159" lat="48.819406">
        <ele>909.102</ele>
        <time>2026-01-19T15:22:09.364Z</time>
      </trkpt>
      <trkpt lon="10.254941" lat="48.819127">
        <ele>914.706</ele>
        <time>2026-01-19T15:22:10.692Z</time>
      </trkpt>
      <trkpt lon="10.255313" lat="48.818943">
        <ele>917.593</ele>
        <time>2026-01-19T15:22:11.392Z</time>
      </trkpt>
      <trkpt lon="10.255622" lat="48.818755">
        <ele>920.021</ele>
        <time>2026-01-19T15:22:12.028Z</time>
      </trkpt>
      <trkpt lon="10.255907" lat="48.818543">
        <ele>922.312</ele>
        <time>2026-01-19T15:22:12.736Z</time>
      </trkpt>
      <trkpt lon="10.256158" lat="48.818311">
        <ele>924.398</ele>
        <time>2026-01-19T15:22:13.388Z</time>
      </trkpt>
      <trkpt lon="10.256528" lat="48.817827">
        <ele>927.82</ele>
        <time>2026-01-19T15:22:14.708Z</time>
      </trkpt>
      <trkpt lon="10.256659" lat="48.817565">
        <ele>929.484</ele>
        <time>2026-01-19T15:22:15.360Z</time>
      </trkpt>
      <trkpt lon="10.256795" lat="48.817056">
        <ele>932.561</ele>
        <time>2026-01-19T15:22:16.632Z</time>
      </trkpt>
      <trkpt lon="10.256797" lat="48.816493">
        <ele>934.03</ele>
        <time>2026-01-19T15:22:18.000Z</time>
      </trkpt>
      <trkpt lon="10.256571" lat="48.815686">
        <ele>935.504</ele>
        <time>2026-01-19T15:22:19.996Z</time>
      </trkpt>
      <trkpt lon="10.255447" lat="48.813336">
        <ele>946.158</ele>
        <time>2026-01-19T15:22:25.924Z</time>
      </trkpt>
      <trkpt lon="10.255270" lat="48.813084">
        <ele>947.37</ele>
        <time>2026-01-19T15:22:26.612Z</time>
      </trkpt>
      <trkpt lon="10.255051" lat="48.812834">
        <ele>949.195</ele>
        <time>2026-01-19T15:22:27.264Z</time>
      </trkpt>
      <trkpt lon="10.254796" lat="48.812604">
        <ele>951.666</ele>
        <time>2026-01-19T15:22:27.948Z</time>
      </trkpt>
      <trkpt lon="10.254202" lat="48.812215">
        <ele>957.806</ele>
        <time>2026-01-19T15:22:29.268Z</time>
      </trkpt>
      <trkpt lon="10.253514" lat="48.811905">
        <ele>962.561</ele>
        <time>2026-01-19T15:22:30.592Z</time>
      </trkpt>
      <trkpt lon="10.252749" lat="48.811671">
        <ele>964.649</ele>
        <time>2026-01-19T15:22:31.872Z</time>
      </trkpt>
      <trkpt lon="10.251942" lat="48.811517">
        <ele>964.338</ele>
        <time>2026-01-19T15:22:33.176Z</time>
      </trkpt>
      <trkpt lon="10.251059" lat="48.811414">
        <ele>961.152</ele>
        <time>2026-01-19T15:22:34.492Z</time>
      </trkpt>
      <trkpt lon="10.245225" lat="48.811030">
        <ele>955.929</ele>
        <time>2026-01-19T15:22:43.212Z</time>
      </trkpt>
      <trkpt lon="10.240087" lat="48.810507">
        <ele>939.367</ele>
        <time>2026-01-19T15:22:50.604Z</time>
      </trkpt>
      <trkpt lon="10.234466" lat="48.809923">
        <ele>909.762</ele>
        <time>2026-01-19T15:22:57.944Z</time>
      </trkpt>
      <trkpt lon="10.231436" lat="48.809592">
        <ele>904.611</ele>
        <time>2026-01-19T15:23:01.888Z</time>
      </trkpt>
      <trkpt lon="10.230484" lat="48.809408">
        <ele>902.929</ele>
        <time>2026-01-19T15:23:03.200Z</time>
      </trkpt>
      <trkpt lon="10.229546" lat="48.809154">
        <ele>900.473</ele>
        <time>2026-01-19T15:23:04.540Z</time>
      </trkpt>
      <trkpt lon="10.228669" lat="48.808831">
        <ele>896.37</ele>
        <time>2026-01-19T15:23:05.880Z</time>
      </trkpt>
      <trkpt lon="10.227884" lat="48.808449">
        <ele>891.405</ele>
        <time>2026-01-19T15:23:07.208Z</time>
      </trkpt>
      <trkpt lon="10.227181" lat="48.808005">
        <ele>885.813</ele>
        <time>2026-01-19T15:23:08.508Z</time>
      </trkpt>
      <trkpt lon="10.226566" lat="48.807491">
        <ele>880.124</ele>
        <time>2026-01-19T15:23:09.836Z</time>
      </trkpt>
      <trkpt lon="10.226071" lat="48.806925">
        <ele>874.291</ele>
        <time>2026-01-19T15:23:11.188Z</time>
      </trkpt>
      <trkpt lon="10.225699" lat="48.806324">
        <ele>869.538</ele>
        <time>2026-01-19T15:23:12.500Z</time>
      </trkpt>
      <trkpt lon="10.225451" lat="48.805707">
        <ele>866.382</ele>
        <time>2026-01-19T15:23:13.808Z</time>
      </trkpt>
      <trkpt lon="10.225200" lat="48.804448">
        <ele>858.801</ele>
        <time>2026-01-19T15:23:16.444Z</time>
      </trkpt>
      <trkpt lon="10.224835" lat="48.795994">
        <ele>832.553</ele>
        <time>2026-01-19T15:23:34.532Z</time>
      </trkpt>
      <trkpt lon="10.224904" lat="48.791117">
        <ele>806.595</ele>
        <time>2026-01-19T15:23:45.140Z</time>
      </trkpt>
      <trkpt lon="10.225461" lat="48.785049">
        <ele>803.023</ele>
        <time>2026-01-19T15:23:58.444Z</time>
      </trkpt>
      <trkpt lon="10.225931" lat="48.782712">
        <ele>797.92</ele>
        <time>2026-01-19T15:24:03.732Z</time>
      </trkpt>
      <trkpt lon="10.226291" lat="48.781837">
        <ele>800.22</ele>
        <time>2026-01-19T15:24:05.772Z</time>
      </trkpt>
      <trkpt lon="10.226615" lat="48.781327">
        <ele>802.773</ele>
        <time>2026-01-19T15:24:07.084Z</time>
      </trkpt>
      <trkpt lon="10.227042" lat="48.780841">
        <ele>804.979</ele>
        <time>2026-01-19T15:24:08.364Z</time>
      </trkpt>
      <trkpt lon="10.227576" lat="48.780387">
        <ele>805.712</ele>
        <time>2026-01-19T15:24:09.712Z</time>
      </trkpt>
      <trkpt lon="10.228190" lat="48.779996">
        <ele>805.398</ele>
        <time>2026-01-19T15:24:11.024Z</time>
      </trkpt>
      <trkpt lon="10.228884" lat="48.779653">
        <ele>804.533</ele>
        <time>2026-01-19T15:24:12.360Z</time>
      </trkpt>
      <trkpt lon="10.230024" lat="48.779222">
        <ele>799.863</ele>
        <time>2026-01-19T15:24:14.352Z</time>
      </trkpt>
      <trkpt lon="10.231296" lat="48.778882">
        <ele>792.227</ele>
        <time>2026-01-19T15:24:16.388Z</time>
      </trkpt>
      <trkpt lon="10.232623" lat="48.778634">
        <ele>781.969</ele>
        <time>2026-01-19T15:24:18.368Z</time>
      </trkpt>
      <trkpt lon="10.235017" lat="48.778354">
        <ele>764.73</ele>
        <time>2026-01-19T15:24:21.704Z</time>
      </trkpt>
      <trkpt lon="10.239007" lat="48.778089">
        <ele>741.378</ele>
        <time>2026-01-19T15:24:27.036Z</time>
      </trkpt>
      <trkpt lon="10.242953" lat="48.777887">
        <ele>719.567</ele>
        <time>2026-01-19T15:24:32.412Z</time>
      </trkpt>
      <trkpt lon="10.246353" lat="48.777814">
        <ele>695.893</ele>
        <time>2026-01-19T15:24:37.092Z</time>
      </trkpt>
      <trkpt lon="10.249242" lat="48.777823">
        <ele>672.545</ele>
        <time>2026-01-19T15:24:41.068Z</time>
      </trkpt>
      <trkpt lon="10.251681" lat="48.777768">
        <ele>650.36</ele>
        <time>2026-01-19T15:24:44.396Z</time>
      </trkpt>
      <trkpt lon="10.253670" lat="48.777740">
        <ele>631.253</ele>
        <time>2026-01-19T15:24:47.084Z</time>
      </trkpt>
      <trkpt lon="10.255617" lat="48.777773">
        <ele>614.184</ele>
        <time>2026-01-19T15:24:49.708Z</time>
      </trkpt>
      <trkpt lon="10.257992" lat="48.777818">
        <ele>597.057</ele>
        <time>2026-01-19T15:24:52.980Z</time>
      </trkpt>
      <trkpt lon="10.261570" lat="48.777915">
        <ele>591.351</ele>
        <time>2026-01-19T15:24:58.320Z</time>
      </trkpt>
      <trkpt lon="10.262319" lat="48.777935">
        <ele>595.296</ele>
        <time>2026-01-19T15:24:59.652Z</time>
      </trkpt>
      <trkpt lon="10.263311" lat="48.777969">
        <ele>596.206</ele>
        <time>2026-01-19T15:25:01.668Z</time>
      </trkpt>
      <trkpt lon="10.264663" lat="48.777991">
        <ele>592.766</ele>
        <time>2026-01-19T15:25:04.932Z</time>
      </trkpt>
      <trkpt lon="10.268041" lat="48.778046">
        <ele>584.662</ele>
        <time>2026-01-19T15:25:14.944Z</time>
      </trkpt>
      <trkpt lon="10.269408" lat="48.778062">
        <ele>584.976</ele>
        <time>2026-01-19T15:25:19.548Z</time>
      </trkpt>
      <trkpt lon="10.269950" lat="48.778069">
        <ele>585.121</ele>
        <time>2026-01-19T15:25:22.256Z</time>
      </trkpt>
      <trkpt lon="10.270065" lat="48.778081">
        <ele>585.138</ele>
        <time>2026-01-19T15:25:22.912Z</time>
      </trkpt>
      <trkpt lon="10.270269" lat="48.778124">
        <ele>585.161</ele>
        <time>2026-01-19T15:25:24.220Z</time>
      </trkpt>
      <trkpt lon="10.270433" lat="48.778190">
        <ele>585.171</ele>
        <time>2026-01-19T15:25:25.540Z</time>
      </trkpt>
      <trkpt lon="10.270489" lat="48.778229">
        <ele>585.164</ele>
        <time>2026-01-19T15:25:26.184Z</time>
      </trkpt>
      <trkpt lon="10.270535" lat="48.778273">
        <ele>585.181</ele>
        <time>2026-01-19T15:25:26.852Z</time>
      </trkpt>
      <trkpt lon="10.270564" lat="48.778313">
        <ele>585.2</ele>
        <time>2026-01-19T15:25:27.492Z</time>
      </trkpt>
      <trkpt lon="10.270583" lat="48.778355">
        <ele>585.226</ele>
        <time>2026-01-19T15:25:28.172Z</time>
      </trkpt>
      <trkpt lon="10.270591" lat="48.778395">
        <ele>585.258</ele>
        <time>2026-01-19T15:25:28.880Z</time>
      </trkpt>
      <trkpt lon="10.270592" lat="48.778429">
        <ele>585.301</ele>
        <time>2026-01-19T15:25:29.568Z</time>
      </trkpt>
      <trkpt lon="10.270582" lat="48.778515">
        <ele>585.434</ele>
        <time>2026-01-19T15:25:31.532Z</time>
      </trkpt>
      <trkpt lon="10.270576" lat="48.778539">
        <ele>585.482</ele>
        <time>2026-01-19T15:25:32.204Z</time>
      </trkpt>
      <trkpt lon="10.270568" lat="48.778556">
        <ele>585.516</ele>
        <time>2026-01-19T15:25:32.844Z</time>
      </trkpt>
      <trkpt lon="10.270561" lat="48.778566">
        <ele>585.536</ele>
        <time>2026-01-19T15:25:33.512Z</time>
      </trkpt>
      <trkpt lon="10.270538" lat="48.778580">
        <ele>585.574</ele>
        <time>2026-01-19T15:25:37.540Z</time>
      </trkpt>
      <trkpt lon="10.270500" lat="48.778590">
        <ele>585.607</ele>
        <time>2026-01-19T15:25:38.196Z</time>
      </trkpt>
      <trkpt lon="10.270443" lat="48.778591">
        <ele>585.62</ele>
        <time>2026-01-19T15:25:38.856Z</time>
      </trkpt>
      <trkpt lon="10.270223" lat="48.778572">
        <ele>585.627</ele>
        <time>2026-01-19T15:25:40.876Z</time>
      </trkpt>
      <trkpt lon="10.270077" lat="48.778575">
        <ele>585.686</ele>
        <time>2026-01-19T15:25:42.232Z</time>
      </trkpt>
      <trkpt lon="10.270012" lat="48.778581">
        <ele>585.743</ele>
        <time>2026-01-19T15:25:42.908Z</time>
      </trkpt>
      <trkpt lon="10.269953" lat="48.778591">
        <ele>585.808</ele>
        <time>2026-01-19T15:25:43.580Z</time>
      </trkpt>
      <trkpt lon="10.269900" lat="48.778604">
        <ele>585.884</ele>
        <time>2026-01-19T15:25:44.232Z</time>
      </trkpt>
      <trkpt lon="10.269859" lat="48.778619">
        <ele>585.877</ele>
        <time>2026-01-19T15:25:44.872Z</time>
      </trkpt>
      <trkpt lon="10.269824" lat="48.778638">
        <ele>585.889</ele>
        <time>2026-01-19T15:25:45.524Z</time>
      </trkpt>
      <trkpt lon="10.269796" lat="48.778659">
        <ele>585.908</ele>
        <time>2026-01-19T15:25:46.180Z</time>
      </trkpt>
      <trkpt lon="10.269774" lat="48.778685">
        <ele>585.922</ele>
        <time>2026-01-19T15:25:46.848Z</time>
      </trkpt>
      <trkpt lon="10.269763" lat="48.778711">
        <ele>585.94</ele>
        <time>2026-01-19T15:25:47.504Z</time>
      </trkpt>
      <trkpt lon="10.269762" lat="48.778738">
        <ele>585.95</ele>
        <time>2026-01-19T15:25:48.176Z</time>
      </trkpt>
      <trkpt lon="10.269781" lat="48.778821">
        <ele>586.004</ele>
        <time>2026-01-19T15:25:50.328Z</time>
      </trkpt>
      <trkpt lon="10.269779" lat="48.778848">
        <ele>586.013</ele>
        <time>2026-01-19T15:25:51.028Z</time>
      </trkpt>
      <trkpt lon="10.269769" lat="48.778870">
        <ele>586.011</ele>
        <time>2026-01-19T15:25:51.680Z</time>
      </trkpt>
      <trkpt lon="10.269749" lat="48.778891">
        <ele>586.021</ele>
        <time>2026-01-19T15:25:52.376Z</time>
      </trkpt>
      <trkpt lon="10.269724" lat="48.778905">
        <ele>586.016</ele>
        <time>2026-01-19T15:25:53.028Z</time>
      </trkpt>
      <trkpt lon="10.269692" lat="48.778915">
        <ele>586.002</ele>
        <time>2026-01-19T15:25:53.684Z</time>
      </trkpt>
      <trkpt lon="10.269660" lat="48.778919">
        <ele>585.989</ele>
        <time>2026-01-19T15:25:54.356Z</time>
      </trkpt>
      <trkpt lon="10.269640" lat="48.778918">
        <ele>585.975</ele>
        <time>2026-01-19T15:25:55.028Z</time>
      </trkpt>
      <trkpt lon="10.269625" lat="48.778914">
        <ele>585.967</ele>
        <time>2026-01-19T15:25:55.656Z</time>
      </trkpt>
      <trkpt lon="10.269607" lat="48.778906">
        <ele>585.964</ele>
        <time>2026-01-19T15:25:57.656Z</time>
      </trkpt>
      <trkpt lon="10.269592" lat="48.778895">
        <ele>585.958</ele>
        <time>2026-01-19T15:25:58.968Z</time>
      </trkpt>
      <trkpt lon="10.269581" lat="48.778884">
        <ele>585.954</ele>
        <time>2026-01-19T15:26:01.672Z</time>
      </trkpt>
      <trkpt lon="10.269574" lat="48.778871">
        <ele>585.955</ele>
        <time>2026-01-19T15:26:04.364Z</time>
      </trkpt>
      <trkpt lon="10.269571" lat="48.778853">
        <ele>585.964</ele>
        <time>2026-01-19T15:27:49.568Z</time>
      </trkpt>
      <trkpt lon="10.269563" lat="48.778836">
        <ele>585.962</ele>
        <time>2026-01-19T15:27:50.204Z</time>
      </trkpt>
      <trkpt lon="10.269546" lat="48.778816">
        <ele>585.957</ele>
        <time>2026-01-19T15:27:50.860Z</time>
      </trkpt>
      <trkpt lon="10.269516" lat="48.778797">
        <ele>585.955</ele>
        <time>2026-01-19T15:27:51.500Z</time>
      </trkpt>
      <trkpt lon="10.269472" lat="48.778782">
        <ele>585.951</ele>
        <time>2026-01-19T15:27:52.152Z</time>
      </trkpt>
      <trkpt lon="10.269357" lat="48.778756">
        <ele>585.95</ele>
        <time>2026-01-19T15:27:53.464Z</time>
      </trkpt>
      <trkpt lon="10.269163" lat="48.778731">
        <ele>585.947</ele>
        <time>2026-01-19T15:27:55.440Z</time>
      </trkpt>
      <trkpt lon="10.268934" lat="48.778720">
        <ele>585.946</ele>
        <time>2026-01-19T15:27:57.480Z</time>
      </trkpt>
      <trkpt lon="10.268792" lat="48.778722">
        <ele>585.948</ele>
        <time>2026-01-19T15:27:58.792Z</time>
      </trkpt>
      <trkpt lon="10.268724" lat="48.778730">
        <ele>585.948</ele>
        <time>2026-01-19T15:27:59.448Z</time>
      </trkpt>
      <trkpt lon="10.268659" lat="48.778742">
        <ele>585.946</ele>
        <time>2026-01-19T15:28:00.096Z</time>
      </trkpt>
      <trkpt lon="10.268537" lat="48.778777">
        <ele>585.954</ele>
        <time>2026-01-19T15:28:01.400Z</time>
      </trkpt>
      <trkpt lon="10.268372" lat="48.778829">
        <ele>585.959</ele>
        <time>2026-01-19T15:28:03.356Z</time>
      </trkpt>
      <trkpt lon="10.268279" lat="48.778847">
        <ele>585.958</ele>
        <time>2026-01-19T15:28:04.732Z</time>
      </trkpt>
      <trkpt lon="10.268236" lat="48.778852">
        <ele>585.96</ele>
        <time>2026-01-19T15:28:05.444Z</time>
      </trkpt>
      <trkpt lon="10.268203" lat="48.778852">
        <ele>585.957</ele>
        <time>2026-01-19T15:28:06.116Z</time>
      </trkpt>
      <trkpt lon="10.268178" lat="48.778850">
        <ele>585.961</ele>
        <time>2026-01-19T15:28:06.772Z</time>
      </trkpt>
      <trkpt lon="10.268154" lat="48.778845">
        <ele>585.962</ele>
        <time>2026-01-19T15:28:07.416Z</time>
      </trkpt>
      <trkpt lon="10.268130" lat="48.778838">
        <ele>585.96</ele>
        <time>2026-01-19T15:28:08.096Z</time>
      </trkpt>
      <trkpt lon="10.268113" lat="48.778830">
        <ele>585.959</ele>
        <time>2026-01-19T15:28:08.748Z</time>
      </trkpt>
      <trkpt lon="10.268098" lat="48.778813">
        <ele>585.955</ele>
        <time>2026-01-19T15:29:09.928Z</time>
      </trkpt>
      <trkpt lon="10.268089" lat="48.778803">
        <ele>585.956</ele>
        <time>2026-01-19T15:29:10.584Z</time>
      </trkpt>
      <trkpt lon="10.268074" lat="48.778790">
        <ele>585.951</ele>
        <time>2026-01-19T15:29:11.256Z</time>
      </trkpt>
      <trkpt lon="10.268027" lat="48.778759">
        <ele>585.945</ele>
        <time>2026-01-19T15:29:12.612Z</time>
      </trkpt>
      <trkpt lon="10.267967" lat="48.778725">
        <ele>585.941</ele>
        <time>2026-01-19T15:29:13.932Z</time>
      </trkpt>
      <trkpt lon="10.267889" lat="48.778691">
        <ele>585.94</ele>
        <time>2026-01-19T15:29:15.268Z</time>
      </trkpt>
      <trkpt lon="10.267808" lat="48.778661">
        <ele>585.931</ele>
        <time>2026-01-19T15:29:17.276Z</time>
      </trkpt>
      <trkpt lon="10.267624" lat="48.778594">
        <ele>585.918</ele>
        <time>2026-01-19T15:30:04.140Z</time>
      </trkpt>
      <trkpt lon="10.267533" lat="48.778572">
        <ele>585.91</ele>
        <time>2026-01-19T15:30:05.488Z</time>
      </trkpt>
      <trkpt lon="10.267371" lat="48.778545">
        <ele>585.897</ele>
        <time>2026-01-19T15:30:07.468Z</time>
      </trkpt>
      <trkpt lon="10.267104" lat="48.778528">
        <ele>585.896</ele>
        <time>2026-01-19T15:30:10.124Z</time>
      </trkpt>
      <trkpt lon="10.265745" lat="48.778481">
        <ele>585.971</ele>
        <time>2026-01-19T15:30:20.224Z</time>
      </trkpt>
      <trkpt lon="10.264253" lat="48.778446">
        <ele>585.972</ele>
        <time>2026-01-19T15:30:30.240Z</time>
      </trkpt>
      <trkpt lon="10.262860" lat="48.778413">
        <ele>585.937</ele>
        <time>2026-01-19T15:30:40.268Z</time>
      </trkpt>
      <trkpt lon="10.261718" lat="48.778384">
        <ele>585.982</ele>
        <time>2026-01-19T15:30:50.328Z</time>
      </trkpt>
      <trkpt lon="10.261130" lat="48.778365">
        <ele>586.137</ele>
        <time>2026-01-19T15:30:56.304Z</time>
      </trkpt>
      <trkpt lon="10.260840" lat="48.778347">
        <ele>586.256</ele>
        <time>2026-01-19T15:30:59.676Z</time>
      </trkpt>
      <trkpt lon="10.260591" lat="48.778351">
        <ele>586.265</ele>
        <time>2026-01-19T15:31:02.980Z</time>
      </trkpt>
      <trkpt lon="10.260359" lat="48.778370">
        <ele>586.198</ele>
        <time>2026-01-19T15:31:09.604Z</time>
      </trkpt>
      <trkpt lon="10.260293" lat="48.778378">
        <ele>586.17</ele>
        <time>2026-01-19T15:31:19.692Z</time>
      </trkpt>
      <trkpt lon="10.260150" lat="48.778399">
        <ele>586.075</ele>
        <time>2026-01-19T14:59:10.728Z</time>
      </trkpt>
      <trkpt lon="10.260080" lat="48.778417">
        <ele>586.012</ele>
        <time>2026-01-19T14:59:12.724Z</time>
      </trkpt>
      <trkpt lon="10.259975" lat="48.778446">
        <ele>585.896</ele>
        <time>2026-01-19T15:00:04.496Z</time>
      </trkpt>
      <trkpt lon="10.259904" lat="48.778459">
        <ele>585.841</ele>
        <time>2026-01-19T15:00:05.840Z</time>
      </trkpt>
      <trkpt lon="10.259832" lat="48.778467">
        <ele>585.801</ele>
        <time>2026-01-19T15:00:07.160Z</time>
      </trkpt>
      <trkpt lon="10.259732" lat="48.778469">
        <ele>585.752</ele>
        <time>2026-01-19T15:00:09.128Z</time>
      </trkpt>
      <trkpt lon="10.259653" lat="48.778466">
        <ele>585.715</ele>
        <time>2026-01-19T15:00:11.120Z</time>
      </trkpt>
      <trkpt lon="10.259569" lat="48.778458">
        <ele>585.692</ele>
        <time>2026-01-19T15:00:19.224Z</time>
      </trkpt>
      <trkpt lon="10.259549" lat="48.778455">
        <ele>585.69</ele>
        <time>2026-01-19T15:00:19.872Z</time>
      </trkpt>
      <trkpt lon="10.259521" lat="48.778449">
        <ele>585.691</ele>
        <time>2026-01-19T15:00:20.580Z</time>
      </trkpt>
      <trkpt lon="10.259492" lat="48.778440">
        <ele>585.694</ele>
        <time>2026-01-19T15:00:21.216Z</time>
      </trkpt>
      <trkpt lon="10.259466" lat="48.778428">
        <ele>585.703</ele>
        <time>2026-01-19T15:00:21.876Z</time>
      </trkpt>
      <trkpt lon="10.259445" lat="48.778416">
        <ele>585.713</ele>
        <time>2026-01-19T15:00:22.552Z</time>
      </trkpt>
      <trkpt lon="10.259425" lat="48.778402">
        <ele>585.735</ele>
        <time>2026-01-19T15:00:23.904Z</time>
      </trkpt>
      <trkpt lon="10.259399" lat="48.778376">
        <ele>585.768</ele>
        <time>2026-01-19T15:00:26.584Z</time>
      </trkpt>
      <trkpt lon="10.259297" lat="48.778275">
        <ele>585.852</ele>
        <time>2026-01-19T15:01:07.468Z</time>
      </trkpt>
      <trkpt lon="10.259280" lat="48.778258">
        <ele>585.87</ele>
        <time>2026-01-19T15:01:37.788Z</time>
      </trkpt>
      <trkpt lon="10.259177" lat="48.778157">
        <ele>585.902</ele>
        <time>2026-01-19T15:01:43.856Z</time>
      </trkpt>
      <trkpt lon="10.259126" lat="48.778091">
        <ele>585.914</ele>
        <time>2026-01-19T15:01:45.204Z</time>
      </trkpt>
      <trkpt lon="10.259104" lat="48.778052">
        <ele>585.923</ele>
        <time>2026-01-19T15:01:45.872Z</time>
      </trkpt>
      <trkpt lon="10.259091" lat="48.778010">
        <ele>585.94</ele>
        <time>2026-01-19T15:01:46.556Z</time>
      </trkpt>
      <trkpt lon="10.259091" lat="48.777970">
        <ele>585.957</ele>
        <time>2026-01-19T15:01:47.216Z</time>
      </trkpt>
      <trkpt lon="10.259105" lat="48.777929">
        <ele>585.986</ele>
        <time>2026-01-19T15:01:47.888Z</time>
      </trkpt>
      <trkpt lon="10.259133" lat="48.777895">
        <ele>586.026</ele>
        <time>2026-01-19T15:01:48.540Z</time>
      </trkpt>
      <trkpt lon="10.259170" lat="48.777870">
        <ele>586.075</ele>
        <time>2026-01-19T15:01:49.212Z</time>
      </trkpt>
      <trkpt lon="10.259211" lat="48.777853">
        <ele>586.119</ele>
        <time>2026-01-19T15:01:49.860Z</time>
      </trkpt>
      <trkpt lon="10.259252" lat="48.777844">
        <ele>586.169</ele>
        <time>2026-01-19T15:01:50.484Z</time>
      </trkpt>
      <trkpt lon="10.259300" lat="48.777839">
        <ele>586.22</ele>
        <time>2026-01-19T15:01:51.156Z</time>
      </trkpt>
      <trkpt lon="10.259334" lat="48.777840">
        <ele>586.252</ele>
        <time>2026-01-19T15:01:51.824Z</time>
      </trkpt>
      <trkpt lon="10.259381" lat="48.777842">
        <ele>586.304</ele>
        <time>2026-01-19T15:02:07.920Z</time>
      </trkpt>
      <trkpt lon="10.259600" lat="48.777843">
        <ele>586.508</ele>
        <time>2026-01-19T15:02:09.948Z</time>
      </trkpt>
      <trkpt lon="10.259988" lat="48.777850">
        <ele>586.771</ele>
        <time>2026-01-19T15:02:11.936Z</time>
      </trkpt>
      <trkpt lon="10.260524" lat="48.777865">
        <ele>586.953</ele>
        <time>2026-01-19T15:02:13.900Z</time>
      </trkpt>
      <trkpt lon="10.261209" lat="48.777888">
        <ele>586.874</ele>
        <time>2026-01-19T15:02:15.884Z</time>
      </trkpt>
      <trkpt lon="10.262030" lat="48.777965">
        <ele>586.38</ele>
        <time>2026-01-19T15:02:17.880Z</time>
      </trkpt>
      <trkpt lon="10.263995" lat="48.778054">
        <ele>593.519</ele>
        <time>2026-01-19T15:02:21.936Z</time>
      </trkpt>
      <trkpt lon="10.266856" lat="48.777989">
        <ele>610.303</ele>
        <time>2026-01-19T15:02:27.172Z</time>
      </trkpt>
      <trkpt lon="10.269563" lat="48.777881">
        <ele>630.078</ele>
        <time>2026-01-19T15:02:31.824Z</time>
      </trkpt>
      <trkpt lon="10.271455" lat="48.777746">
        <ele>650.896</ele>
        <time>2026-01-19T15:02:35.112Z</time>
      </trkpt>
      <trkpt lon="10.273341" lat="48.777673">
        <ele>671.573</ele>
        <time>2026-01-19T15:02:38.424Z</time>
      </trkpt>
      <trkpt lon="10.275223" lat="48.777589">
        <ele>694.131</ele>
        <time>2026-01-19T15:02:41.780Z</time>
      </trkpt>
      <trkpt lon="10.276646" lat="48.777527">
        <ele>721.745</ele>
        <time>2026-01-19T15:02:44.480Z</time>
      </trkpt>
      <trkpt lon="10.277579" lat="48.777489">
        <ele>747.522</ele>
        <time>2026-01-19T15:02:46.460Z</time>
      </trkpt>
      <trkpt lon="10.278390" lat="48.777460">
        <ele>773.075</ele>
        <time>2026-01-19T15:02:48.416Z</time>
      </trkpt>
      <trkpt lon="10.279425" lat="48.777441">
        <ele>801.275</ele>
        <time>2026-01-19T15:02:51.120Z</time>
      </trkpt>
      <trkpt lon="10.281637" lat="48.777401">
        <ele>821.323</ele>
        <time>2026-01-19T15:02:56.468Z</time>
      </trkpt>
      <trkpt lon="10.283620" lat="48.777241">
        <ele>828.114</ele>
        <time>2026-01-19T15:03:00.532Z</time>
      </trkpt>
      <trkpt lon="10.284287" lat="48.777133">
        <ele>831.229</ele>
        <time>2026-01-19T15:03:01.840Z</time>
      </trkpt>
      <trkpt lon="10.284974" lat="48.776966">
        <ele>834.687</ele>
        <time>2026-01-19T15:03:03.184Z</time>
      </trkpt>
      <trkpt lon="10.285613" lat="48.776746">
        <ele>838.046</ele>
        <time>2026-01-19T15:03:04.508Z</time>
      </trkpt>
      <trkpt lon="10.286224" lat="48.776468">
        <ele>841.625</ele>
        <time>2026-01-19T15:03:05.888Z</time>
      </trkpt>
      <trkpt lon="10.286810" lat="48.776127">
        <ele>844.485</ele>
        <time>2026-01-19T15:03:07.260Z</time>
      </trkpt>
      <trkpt lon="10.287312" lat="48.775761">
        <ele>846.543</ele>
        <time>2026-01-19T15:03:08.576Z</time>
      </trkpt>
      <trkpt lon="10.287757" lat="48.775351">
        <ele>848.981</ele>
        <time>2026-01-19T15:03:09.900Z</time>
      </trkpt>
      <trkpt lon="10.288143" lat="48.774896">
        <ele>852.486</ele>
        <time>2026-01-19T15:03:11.284Z</time>
      </trkpt>
      <trkpt lon="10.288456" lat="48.774414">
        <ele>857.354</ele>
        <time>2026-01-19T15:03:12.624Z</time>
      </trkpt>
      <trkpt lon="10.288794" lat="48.773695">
        <ele>867.37</ele>
        <time>2026-01-19T15:03:14.592Z</time>
      </trkpt>
      <trkpt lon="10.289086" lat="48.772718">
        <ele>880.804</ele>
        <time>2026-01-19T15:03:17.240Z</time>
      </trkpt>
      <trkpt lon="10.289283" lat="48.771188">
        <ele>895.321</ele>
        <time>2026-01-19T15:03:21.268Z</time>
      </trkpt>
      <trkpt lon="10.289257" lat="48.767760">
        <ele>910.706</ele>
        <time>2026-01-19T15:03:29.836Z</time>
      </trkpt>
      <trkpt lon="10.289074" lat="48.765216">
        <ele>915.383</ele>
        <time>2026-01-19T15:03:35.800Z</time>
      </trkpt>
      <trkpt lon="10.289325" lat="48.763804">
        <ele>918.982</ele>
        <time>2026-01-19T15:03:39.020Z</time>
      </trkpt>
      <trkpt lon="10.289773" lat="48.762397">
        <ele>930.192</ele>
        <time>2026-01-19T15:03:42.340Z</time>
      </trkpt>
      <trkpt lon="10.291444" lat="48.758188">
        <ele>954.566</ele>
        <time>2026-01-19T15:03:52.376Z</time>
      </trkpt>
      <trkpt lon="10.291694" lat="48.756753">
        <ele>965.176</ele>
        <time>2026-01-19T15:03:55.728Z</time>
      </trkpt>
      <trkpt lon="10.291692" lat="48.753866">
        <ele>969.307</ele>
        <time>2026-01-19T15:04:02.432Z</time>
      </trkpt>
      <trkpt lon="10.290304" lat="48.744570">
        <ele>958.598</ele>
        <time>2026-01-19T15:04:23.224Z</time>
      </trkpt>
      <trkpt lon="10.287582" lat="48.735005">
        <ele>958.735</ele>
        <time>2026-01-19T15:04:45.224Z</time>
      </trkpt>
      <trkpt lon="10.284672" lat="48.728489">
        <ele>977.79</ele>
        <time>2026-01-19T15:05:01.092Z</time>
      </trkpt>
      <trkpt lon="10.281155" lat="48.722770">
        <ele>997.921</ele>
        <time>2026-01-19T15:05:15.772Z</time>
      </trkpt>
      <trkpt lon="10.274951" lat="48.715072">
        <ele>1025.37</ele>
        <time>2026-01-19T15:05:36.584Z</time>
      </trkpt>
      <trkpt lon="10.269784" lat="48.709858">
        <ele>1048.13</ele>
        <time>2026-01-19T15:05:51.408Z</time>
      </trkpt>
      <trkpt lon="10.263185" lat="48.704409">
        <ele>1051.61</ele>
        <time>2026-01-19T15:06:07.516Z</time>
      </trkpt>
      <trkpt lon="10.255237" lat="48.699019">
        <ele>1049.54</ele>
        <time>2026-01-19T15:06:24.248Z</time>
      </trkpt>
      <trkpt lon="10.239768" lat="48.689928">
        <ele>1051.32</ele>
        <time>2026-01-19T15:06:54.364Z</time>
      </trkpt>
      <trkpt lon="10.233166" lat="48.685296">
        <ele>1051.49</ele>
        <time>2026-01-19T15:07:08.328Z</time>
      </trkpt>
      <trkpt lon="10.229158" lat="48.681971">
        <ele>1051.15</ele>
        <time>2026-01-19T15:07:17.584Z</time>
      </trkpt>
      <trkpt lon="10.227714" lat="48.680469">
        <ele>1051.36</ele>
        <time>2026-01-19T15:07:21.564Z</time>
      </trkpt>
      <trkpt lon="10.226952" lat="48.679512">
        <ele>1049.47</ele>
        <time>2026-01-19T15:07:24.196Z</time>
      </trkpt>
      <trkpt lon="10.226265" lat="48.678434">
        <ele>1043.31</ele>
        <time>2026-01-19T15:07:27.472Z</time>
      </trkpt>
      <trkpt lon="10.225727" lat="48.677170">
        <ele>1034.69</ele>
        <time>2026-01-19T15:07:31.448Z</time>
      </trkpt>
      <trkpt lon="10.225428" lat="48.675957">
        <ele>1031.44</ele>
        <time>2026-01-19T15:07:34.764Z</time>
      </trkpt>
      <trkpt lon="10.225291" lat="48.674366">
        <ele>1029.79</ele>
        <time>2026-01-19T15:07:38.756Z</time>
      </trkpt>
      <trkpt lon="10.225415" lat="48.672665">
        <ele>1027.89</ele>
        <time>2026-01-19T15:07:42.836Z</time>
      </trkpt>
      <trkpt lon="10.227116" lat="48.662556">
        <ele>1031.28</ele>
        <time>2026-01-19T15:08:05.416Z</time>
      </trkpt>
      <trkpt lon="10.226807" lat="48.657650">
        <ele>1037.4</ele>
        <time>2026-01-19T15:08:16.044Z</time>
      </trkpt>
      <trkpt lon="10.224642" lat="48.647951">
        <ele>1078.31</ele>
        <time>2026-01-19T15:08:37.900Z</time>
      </trkpt>
      <trkpt lon="10.221637" lat="48.636374">
        <ele>1122.08</ele>
        <time>2026-01-19T15:09:04.688Z</time>
      </trkpt>
      <trkpt lon="10.218593" lat="48.624138">
        <ele>1168.28</ele>
        <time>2026-01-19T15:09:32.792Z</time>
      </trkpt>
      <trkpt lon="10.216816" lat="48.616657">
        <ele>1217.03</ele>
        <time>2026-01-19T15:09:50.200Z</time>
      </trkpt>
      <trkpt lon="10.215464" lat="48.610739">
        <ele>1267.99</ele>
        <time>2026-01-19T15:10:04.784Z</time>
      </trkpt>
      <trkpt lon="10.214064" lat="48.604504">
        <ele>1319.82</ele>
        <time>2026-01-19T15:10:20.552Z</time>
      </trkpt>
      <trkpt lon="10.213170" lat="48.602225">
        <ele>1341.33</ele>
        <time>2026-01-19T15:10:26.468Z</time>
      </trkpt>
      <trkpt lon="10.212056" lat="48.600244">
        <ele>1360.15</ele>
        <time>2026-01-19T15:10:31.780Z</time>
      </trkpt>
      <trkpt lon="10.210451" lat="48.598098">
        <ele>1378.19</ele>
        <time>2026-01-19T15:10:37.784Z</time>
      </trkpt>
      <trkpt lon="10.208484" lat="48.596036">
        <ele>1386.51</ele>
        <time>2026-01-19T15:10:43.700Z</time>
      </trkpt>
      <trkpt lon="10.203540" lat="48.591798">
        <ele>1405.89</ele>
        <time>2026-01-19T15:10:56.244Z</time>
      </trkpt>
      <trkpt lon="10.198650" lat="48.588402">
        <ele>1412.69</ele>
        <time>2026-01-19T15:11:06.796Z</time>
      </trkpt>
      <trkpt lon="10.190562" lat="48.583796">
        <ele>1422.88</ele>
        <time>2026-01-19T15:11:22.152Z</time>
      </trkpt>
      <trkpt lon="10.172870" lat="48.575378">
        <ele>1429.97</ele>
        <time>2026-01-19T15:11:52.480Z</time>
      </trkpt>
      <trkpt lon="10.154914" lat="48.566781">
        <ele>1433.57</ele>
        <time>2026-01-19T15:12:22.844Z</time>
      </trkpt>
      <trkpt lon="10.136993" lat="48.557960">
        <ele>1437.85</ele>
        <time>2026-01-19T15:12:53.452Z</time>
      </trkpt>
      <trkpt lon="10.119434" lat="48.549105">
        <ele>1443.08</ele>
        <time>2026-01-19T15:13:23.760Z</time>
      </trkpt>
      <trkpt lon="10.102176" lat="48.540183">
        <ele>1445.01</ele>
        <time>2026-01-19T15:13:54.176Z</time>
      </trkpt>
      <trkpt lon="10.091172" lat="48.534140">
        <ele>1447.99</ele>
        <time>2026-01-19T15:14:13.480Z</time>
      </trkpt>
      <trkpt lon="10.089238" lat="48.532742">
        <ele>1449.03</ele>
        <time>2026-01-19T15:14:17.384Z</time>
      </trkpt>
      <trkpt lon="10.087485" lat="48.531190">
        <ele>1450.13</ele>
        <time>2026-01-19T15:14:21.392Z</time>
      </trkpt>
      <trkpt lon="10.086014" lat="48.529569">
        <ele>1451.34</ele>
        <time>2026-01-19T15:14:25.332Z</time>
      </trkpt>
      <trkpt lon="10.084793" lat="48.527853">
        <ele>1452.39</ele>
        <time>2026-01-19T15:14:29.292Z</time>
      </trkpt>
      <trkpt lon="10.083830" lat="48.526036">
        <ele>1452.92</ele>
        <time>2026-01-19T15:14:33.324Z</time>
      </trkpt>
      <trkpt lon="10.083147" lat="48.524134">
        <ele>1453.82</ele>
        <time>2026-01-19T15:14:37.404Z</time>
      </trkpt>
      <trkpt lon="10.082781" lat="48.522275">
        <ele>1454.92</ele>
        <time>2026-01-19T15:14:41.348Z</time>
      </trkpt>
      <trkpt lon="10.082701" lat="48.520416">
        <ele>1456.2</ele>
        <time>2026-01-19T15:14:45.248Z</time>
      </trkpt>
      <trkpt lon="10.082909" lat="48.518547">
        <ele>1457.51</ele>
        <time>2026-01-19T15:14:49.208Z</time>
      </trkpt>
      <trkpt lon="10.083393" lat="48.516727">
        <ele>1458.71</ele>
        <time>2026-01-19T15:14:53.088Z</time>
      </trkpt>
      <trkpt lon="10.084188" lat="48.514878">
        <ele>1460.05</ele>
        <time>2026-01-19T15:14:57.092Z</time>
      </trkpt>
      <trkpt lon="10.085261" lat="48.513094">
        <ele>1461.55</ele>
        <time>2026-01-19T15:15:01.084Z</time>
      </trkpt>
      <trkpt lon="10.092402" lat="48.503279">
        <ele>1466.78</ele>
        <time>2026-01-19T15:15:23.752Z</time>
      </trkpt>
      <trkpt lon="10.093741" lat="48.500219">
        <ele>1469.22</ele>
        <time>2026-01-19T15:15:30.396Z</time>
      </trkpt>
      <trkpt lon="10.095927" lat="48.492386">
        <ele>1470.73</ele>
        <time>2026-01-19T15:15:47.024Z</time>
      </trkpt>
      <trkpt lon="10.096789" lat="48.485711">
        <ele>1472.36</ele>
        <time>2026-01-19T15:16:01.000Z</time>
      </trkpt>
      <trkpt lon="10.096708" lat="48.477762">
        <ele>1473.58</ele>
        <time>2026-01-19T15:16:17.564Z</time>
      </trkpt>
      <trkpt lon="10.094509" lat="48.463341">
        <ele>1476.83</ele>
        <time>2026-01-19T15:16:47.572Z</time>
      </trkpt>
      <trkpt lon="10.090688" lat="48.448803">
        <ele>1481.57</ele>
        <time>2026-01-19T15:17:18.104Z</time>
      </trkpt>
      <trkpt lon="10.086541" lat="48.434321">
        <ele>1484.04</ele>
        <time>2026-01-19T15:17:48.688Z</time>
      </trkpt>
      <trkpt lon="10.082086" lat="48.419982">
        <ele>1485.04</ele>
        <time>2026-01-19T15:18:19.120Z</time>
      </trkpt>
      <trkpt lon="10.075986" lat="48.405761">
        <ele>1486.35</ele>
        <time>2026-01-19T15:18:49.680Z</time>
      </trkpt>
      <trkpt lon="10.068398" lat="48.391854">
        <ele>1488.4</ele>
        <time>2026-01-19T15:19:20.160Z</time>
      </trkpt>
      <trkpt lon="10.062747" lat="48.379569">
        <ele>1491.15</ele>
        <time>2026-01-19T15:19:46.736Z</time>
      </trkpt>
      <trkpt lon="10.058810" lat="48.366764">
        <ele>1493.9</ele>
        <time>2026-01-19T15:20:13.816Z</time>
      </trkpt>
      <trkpt lon="10.056716" lat="48.354429">
        <ele>1493.17</ele>
        <time>2026-01-19T15:20:39.820Z</time>
      </trkpt>
      <trkpt lon="10.056409" lat="48.343128">
        <ele>1492.97</ele>
        <time>2026-01-19T15:21:03.604Z</time>
      </trkpt>
      <trkpt lon="10.058064" lat="48.328659">
        <ele>1493.56</ele>
        <time>2026-01-19T15:21:34.188Z</time>
      </trkpt>
      <trkpt lon="10.060551" lat="48.314230">
        <ele>1493.78</ele>
        <time>2026-01-19T15:22:04.700Z</time>
      </trkpt>
      <trkpt lon="10.063375" lat="48.300041">
        <ele>1494.11</ele>
        <time>2026-01-19T15:22:34.808Z</time>
      </trkpt>
      <trkpt lon="10.065471" lat="48.293886">
        <ele>1494.14</ele>
        <time>2026-01-19T15:22:48.148Z</time>
      </trkpt>
      <trkpt lon="10.068387" lat="48.287914">
        <ele>1494.06</ele>
        <time>2026-01-19T15:23:01.428Z</time>
      </trkpt>
      <trkpt lon="10.072174" lat="48.282102">
        <ele>1494.23</ele>
        <time>2026-01-19T15:23:14.764Z</time>
      </trkpt>
      <trkpt lon="10.076790" lat="48.276539">
        <ele>1495.18</ele>
        <time>2026-01-19T15:23:28.072Z</time>
      </trkpt>
      <trkpt lon="10.088348" lat="48.264073">
        <ele>1494.57</ele>
        <time>2026-01-19T15:23:58.660Z</time>
      </trkpt>
      <trkpt lon="10.098465" lat="48.251390">
        <ele>1489.79</ele>
        <time>2026-01-19T15:24:28.672Z</time>
      </trkpt>
      <trkpt lon="10.100640" lat="48.248673">
        <ele>1461</ele>
        <time>2026-01-19T15:24:35.332Z</time>
      </trkpt>
      <trkpt lon="10.101459" lat="48.247902">
        <ele>1445.4</ele>
        <time>2026-01-19T15:24:37.332Z</time>
      </trkpt>
      <trkpt lon="10.102747" lat="48.246920">
        <ele>1420.65</ele>
        <time>2026-01-19T15:24:40.012Z</time>
      </trkpt>
      <trkpt lon="10.106660" lat="48.244325">
        <ele>1363.74</ele>
        <time>2026-01-19T15:24:47.260Z</time>
      </trkpt>
      <trkpt lon="10.110138" lat="48.241960">
        <ele>1335.87</ele>
        <time>2026-01-19T15:24:53.920Z</time>
      </trkpt>
      <trkpt lon="10.113025" lat="48.240151">
        <ele>1278.82</ele>
        <time>2026-01-19T15:24:59.932Z</time>
      </trkpt>
      <trkpt lon="10.114034" lat="48.239591">
        <ele>1247.28</ele>
        <time>2026-01-19T15:25:01.976Z</time>
      </trkpt>
      <trkpt lon="10.115170" lat="48.239099">
        <ele>1210.8</ele>
        <time>2026-01-19T15:25:04.028Z</time>
      </trkpt>
      <trkpt lon="10.116383" lat="48.238703">
        <ele>1170.57</ele>
        <time>2026-01-19T15:25:06.008Z</time>
      </trkpt>
      <trkpt lon="10.117675" lat="48.238406">
        <ele>1127.73</ele>
        <time>2026-01-19T15:25:07.956Z</time>
      </trkpt>
      <trkpt lon="10.118640" lat="48.238270">
        <ele>1096.55</ele>
        <time>2026-01-19T15:25:09.320Z</time>
      </trkpt>
      <trkpt lon="10.119661" lat="48.238200">
        <ele>1064.96</ele>
        <time>2026-01-19T15:25:10.672Z</time>
      </trkpt>
      <trkpt lon="10.120669" lat="48.238206">
        <ele>1035.23</ele>
        <time>2026-01-19T15:25:11.972Z</time>
      </trkpt>
      <trkpt lon="10.121734" lat="48.238299">
        <ele>1005.41</ele>
        <time>2026-01-19T15:25:13.324Z</time>
      </trkpt>
      <trkpt lon="10.122807" lat="48.238493">
        <ele>979.75</ele>
        <time>2026-01-19T15:25:14.632Z</time>
      </trkpt>
      <trkpt lon="10.123875" lat="48.238792">
        <ele>960.05</ele>
        <time>2026-01-19T15:25:15.956Z</time>
      </trkpt>
      <trkpt lon="10.124930" lat="48.239196">
        <ele>945.681</ele>
        <time>2026-01-19T15:25:17.272Z</time>
      </trkpt>
      <trkpt lon="10.125931" lat="48.239689">
        <ele>937.686</ele>
        <time>2026-01-19T15:25:18.612Z</time>
      </trkpt>
      <trkpt lon="10.127678" lat="48.240769">
        <ele>943.553</ele>
        <time>2026-01-19T15:25:21.248Z</time>
      </trkpt>
      <trkpt lon="10.128818" lat="48.241544">
        <ele>962.237</ele>
        <time>2026-01-19T15:25:23.192Z</time>
      </trkpt>
      <trkpt lon="10.130264" lat="48.242499">
        <ele>993.596</ele>
        <time>2026-01-19T15:25:25.848Z</time>
      </trkpt>
      <trkpt lon="10.132264" lat="48.243711">
        <ele>1032.69</ele>
        <time>2026-01-19T15:25:29.804Z</time>
      </trkpt>
      <trkpt lon="10.135280" lat="48.245312">
        <ele>1068.36</ele>
        <time>2026-01-19T15:25:36.704Z</time>
      </trkpt>
      <trkpt lon="10.136575" lat="48.245934">
        <ele>1059.13</ele>
        <time>2026-01-19T15:25:39.476Z</time>
      </trkpt>
      <trkpt lon="10.137440" lat="48.246287">
        <ele>1046.71</ele>
        <time>2026-01-19T15:25:41.436Z</time>
      </trkpt>
      <trkpt lon="10.138895" lat="48.246765">
        <ele>1027.9</ele>
        <time>2026-01-19T15:25:44.748Z</time>
      </trkpt>
      <trkpt lon="10.141237" lat="48.247442">
        <ele>988.522</ele>
        <time>2026-01-19T15:25:50.104Z</time>
      </trkpt>
      <trkpt lon="10.143215" lat="48.248150">
        <ele>947.854</ele>
        <time>2026-01-19T15:25:54.756Z</time>
      </trkpt>
      <trkpt lon="10.144924" lat="48.248784">
        <ele>908.661</ele>
        <time>2026-01-19T15:25:58.692Z</time>
      </trkpt>
      <trkpt lon="10.145619" lat="48.248953">
        <ele>895.467</ele>
        <time>2026-01-19T15:26:00.112Z</time>
      </trkpt>
      <trkpt lon="10.146036" lat="48.249012">
        <ele>889.361</ele>
        <time>2026-01-19T15:26:00.784Z</time>
      </trkpt>
      <trkpt lon="10.146426" lat="48.249036">
        <ele>884.185</ele>
        <time>2026-01-19T15:26:01.448Z</time>
      </trkpt>
      <trkpt lon="10.147232" lat="48.249008">
        <ele>872.218</ele>
        <time>2026-01-19T15:26:02.724Z</time>
      </trkpt>
      <trkpt lon="10.148060" lat="48.248889">
        <ele>855.626</ele>
        <time>2026-01-19T15:26:04.008Z</time>
      </trkpt>
      <trkpt lon="10.148888" lat="48.248698">
        <ele>836.45</ele>
        <time>2026-01-19T15:26:05.292Z</time>
      </trkpt>
      <trkpt lon="10.149786" lat="48.248410">
        <ele>816.833</ele>
        <time>2026-01-19T15:26:06.636Z</time>
      </trkpt>
      <trkpt lon="10.150641" lat="48.248026">
        <ele>799.157</ele>
        <time>2026-01-19T15:26:08.000Z</time>
      </trkpt>
      <trkpt lon="10.155482" lat="48.245099">
        <ele>811.027</ele>
        <time>2026-01-19T15:26:16.556Z</time>
      </trkpt>
      <trkpt lon="10.157091" lat="48.244303">
        <ele>836.786</ele>
        <time>2026-01-19T15:26:20.200Z</time>
      </trkpt>
      <trkpt lon="10.157930" lat="48.244008">
        <ele>846.149</ele>
        <time>2026-01-19T15:26:21.548Z</time>
      </trkpt>
      <trkpt lon="10.158691" lat="48.243826">
        <ele>850.093</ele>
        <time>2026-01-19T15:26:22.868Z</time>
      </trkpt>
      <trkpt lon="10.161734" lat="48.243121">
        <ele>846.86</ele>
        <time>2026-01-19T15:26:28.008Z</time>
      </trkpt>
      <trkpt lon="10.164218" lat="48.242442">
        <ele>819.758</ele>
        <time>2026-01-19T15:26:31.916Z</time>
      </trkpt>
      <trkpt lon="10.168428" lat="48.241212">
        <ele>791.407</ele>
        <time>2026-01-19T15:26:37.940Z</time>
      </trkpt>
      <trkpt lon="10.177380" lat="48.238471">
        <ele>815.872</ele>
        <time>2026-01-19T15:26:50.828Z</time>
      </trkpt>
      <trkpt lon="10.178322" lat="48.238306">
        <ele>818.688</ele>
        <time>2026-01-19T15:26:52.160Z</time>
      </trkpt>
      <trkpt lon="10.179762" lat="48.238170">
        <ele>823.118</ele>
        <time>2026-01-19T15:26:54.176Z</time>
      </trkpt>
      <trkpt lon="10.182466" lat="48.237981">
        <ele>834.633</ele>
        <time>2026-01-19T15:26:58.084Z</time>
      </trkpt>
      <trkpt lon="10.184219" lat="48.237742">
        <ele>840.922</ele>
        <time>2026-01-19T15:27:00.740Z</time>
      </trkpt>
      <trkpt lon="10.185950" lat="48.237377">
        <ele>843.501</ele>
        <time>2026-01-19T15:27:03.416Z</time>
      </trkpt>
      <trkpt lon="10.187189" lat="48.237016">
        <ele>843.111</ele>
        <time>2026-01-19T15:27:05.420Z</time>
      </trkpt>
      <trkpt lon="10.188389" lat="48.236564">
        <ele>841.045</ele>
        <time>2026-01-19T15:27:07.432Z</time>
      </trkpt>
      <trkpt lon="10.189514" lat="48.236025">
        <ele>837.574</ele>
        <time>2026-01-19T15:27:09.428Z</time>
      </trkpt>
      <trkpt lon="10.190539" lat="48.235406">
        <ele>832.871</ele>
        <time>2026-01-19T15:27:11.420Z</time>
      </trkpt>
      <trkpt lon="10.191477" lat="48.234687">
        <ele>827.539</ele>
        <time>2026-01-19T15:27:13.416Z</time>
      </trkpt>
      <trkpt lon="10.192285" lat="48.233896">
        <ele>823</ele>
        <time>2026-01-19T15:27:15.424Z</time>
      </trkpt>
      <trkpt lon="10.192972" lat="48.233058">
        <ele>820.649</ele>
        <time>2026-01-19T15:27:17.384Z</time>
      </trkpt>
      <trkpt lon="10.193545" lat="48.232145">
        <ele>820.316</ele>
        <time>2026-01-19T15:27:19.416Z</time>
      </trkpt>
      <trkpt lon="10.194499" lat="48.230015">
        <ele>830.92</ele>
        <time>2026-01-19T15:27:24.068Z</time>
      </trkpt>
      <trkpt lon="10.195164" lat="48.227963">
        <ele>850.06</ele>
        <time>2026-01-19T15:27:28.680Z</time>
      </trkpt>
      <trkpt lon="10.195486" lat="48.225931">
        <ele>862.701</ele>
        <time>2026-01-19T15:27:33.292Z</time>
      </trkpt>
      <trkpt lon="10.195526" lat="48.223642">
        <ele>864.41</ele>
        <time>2026-01-19T15:27:38.492Z</time>
      </trkpt>
      <trkpt lon="10.195312" lat="48.210313">
        <ele>870.797</ele>
        <time>2026-01-19T15:28:08.916Z</time>
      </trkpt>
      <trkpt lon="10.195195" lat="48.202976">
        <ele>872.696</ele>
        <time>2026-01-19T15:28:23.724Z</time>
      </trkpt>
      <trkpt lon="10.195020" lat="48.202021">
        <ele>872.396</ele>
        <time>2026-01-19T15:28:25.676Z</time>
      </trkpt>
      <trkpt lon="10.194768" lat="48.201381">
        <ele>869.575</ele>
        <time>2026-01-19T15:28:27.000Z</time>
      </trkpt>
      <trkpt lon="10.194593" lat="48.201076">
        <ele>867.702</ele>
        <time>2026-01-19T15:28:27.652Z</time>
      </trkpt>
      <trkpt lon="10.194386" lat="48.200793">
        <ele>866.494</ele>
        <time>2026-01-19T15:28:28.300Z</time>
      </trkpt>
      <trkpt lon="10.194126" lat="48.200512">
        <ele>865.793</ele>
        <time>2026-01-19T15:28:28.948Z</time>
      </trkpt>
      <trkpt lon="10.193823" lat="48.200249">
        <ele>865.652</ele>
        <time>2026-01-19T15:28:29.600Z</time>
      </trkpt>
      <trkpt lon="10.193507" lat="48.200024">
        <ele>865.905</ele>
        <time>2026-01-19T15:28:30.236Z</time>
      </trkpt>
      <trkpt lon="10.193124" lat="48.199801">
        <ele>866.375</ele>
        <time>2026-01-19T15:28:30.904Z</time>
      </trkpt>
      <trkpt lon="10.192699" lat="48.199602">
        <ele>866.774</ele>
        <time>2026-01-19T15:28:31.608Z</time>
      </trkpt>
      <trkpt lon="10.192274" lat="48.199443">
        <ele>866.956</ele>
        <time>2026-01-19T15:28:32.252Z</time>
      </trkpt>
      <trkpt lon="10.191830" lat="48.199314">
        <ele>866.805</ele>
        <time>2026-01-19T15:28:32.920Z</time>
      </trkpt>
      <trkpt lon="10.191381" lat="48.199215">
        <ele>866.283</ele>
        <time>2026-01-19T15:28:33.564Z</time>
      </trkpt>
      <trkpt lon="10.190407" lat="48.199087">
        <ele>865.123</ele>
        <time>2026-01-19T15:28:34.896Z</time>
      </trkpt>
      <trkpt lon="10.189451" lat="48.199066">
        <ele>864.486</ele>
        <time>2026-01-19T15:28:36.208Z</time>
      </trkpt>
      <trkpt lon="10.188463" lat="48.199150">
        <ele>864.824</ele>
        <time>2026-01-19T15:28:37.540Z</time>
      </trkpt>
      <trkpt lon="10.187551" lat="48.199327">
        <ele>866.289</ele>
        <time>2026-01-19T15:28:38.860Z</time>
      </trkpt>
      <trkpt lon="10.186667" lat="48.199598">
        <ele>868.596</ele>
        <time>2026-01-19T15:28:40.176Z</time>
      </trkpt>
      <trkpt lon="10.185839" lat="48.199950">
        <ele>871.029</ele>
        <time>2026-01-19T15:28:41.516Z</time>
      </trkpt>
      <trkpt lon="10.185094" lat="48.200369">
        <ele>873.325</ele>
        <time>2026-01-19T15:28:42.872Z</time>
      </trkpt>
      <trkpt lon="10.184448" lat="48.200836">
        <ele>875.457</ele>
        <time>2026-01-19T15:28:44.200Z</time>
      </trkpt>
      <trkpt lon="10.183912" lat="48.201328">
        <ele>878.007</ele>
        <time>2026-01-19T15:28:45.472Z</time>
      </trkpt>
      <trkpt lon="10.183213" lat="48.202165">
        <ele>881.745</ele>
        <time>2026-01-19T15:28:47.480Z</time>
      </trkpt>
      <trkpt lon="10.182665" lat="48.203049">
        <ele>883.47</ele>
        <time>2026-01-19T15:28:49.488Z</time>
      </trkpt>
      <trkpt lon="10.181368" lat="48.206148">
        <ele>885.948</ele>
        <time>2026-01-19T15:28:56.208Z</time>
      </trkpt>
      <trkpt lon="10.180110" lat="48.209264">
        <ele>886.386</ele>
        <time>2026-01-19T15:29:02.872Z</time>
      </trkpt>
      <trkpt lon="10.177784" lat="48.212999">
        <ele>887.604</ele>
        <time>2026-01-19T15:29:11.096Z</time>
      </trkpt>
      <trkpt lon="10.173560" lat="48.218403">
        <ele>897.177</ele>
        <time>2026-01-19T15:29:23.704Z</time>
      </trkpt>
      <trkpt lon="10.170365" lat="48.221912">
        <ele>893.145</ele>
        <time>2026-01-19T15:29:32.384Z</time>
      </trkpt>
      <trkpt lon="10.168649" lat="48.223398">
        <ele>890.688</ele>
        <time>2026-01-19T15:29:36.344Z</time>
      </trkpt>
      <trkpt lon="10.167061" lat="48.224564">
        <ele>894.471</ele>
        <time>2026-01-19T15:29:39.736Z</time>
      </trkpt>
      <trkpt lon="10.166342" lat="48.224976">
        <ele>895.71</ele>
        <time>2026-01-19T15:29:41.120Z</time>
      </trkpt>
      <trkpt lon="10.165585" lat="48.225315">
        <ele>895.482</ele>
        <time>2026-01-19T15:29:42.456Z</time>
      </trkpt>
      <trkpt lon="10.164755" lat="48.225587">
        <ele>891.521</ele>
        <time>2026-01-19T15:29:43.808Z</time>
      </trkpt>
      <trkpt lon="10.164330" lat="48.225681">
        <ele>888.908</ele>
        <time>2026-01-19T15:29:44.468Z</time>
      </trkpt>
      <trkpt lon="10.163874" lat="48.225747">
        <ele>887.076</ele>
        <time>2026-01-19T15:29:45.140Z</time>
      </trkpt>
      <trkpt lon="10.162957" lat="48.225803">
        <ele>885.79</ele>
        <time>2026-01-19T15:29:46.464Z</time>
      </trkpt>
      <trkpt lon="10.161580" lat="48.225781">
        <ele>884.277</ele>
        <time>2026-01-19T15:29:48.468Z</time>
      </trkpt>
      <trkpt lon="10.156413" lat="48.225311">
        <ele>872.063</ele>
        <time>2026-01-19T15:29:55.852Z</time>
      </trkpt>
      <trkpt lon="10.146421" lat="48.223892">
        <ele>877.029</ele>
        <time>2026-01-19T15:30:10.576Z</time>
      </trkpt>
      <trkpt lon="10.140169" lat="48.222890">
        <ele>863.188</ele>
        <time>2026-01-19T15:30:19.780Z</time>
      </trkpt>
      <trkpt lon="10.128992" lat="48.221617">
        <ele>834.321</ele>
        <time>2026-01-19T15:30:35.944Z</time>
      </trkpt>
      <trkpt lon="10.128118" lat="48.221602">
        <ele>830.27</ele>
        <time>2026-01-19T15:30:37.208Z</time>
      </trkpt>
      <trkpt lon="10.127183" lat="48.221666">
        <ele>826.939</ele>
        <time>2026-01-19T15:30:38.548Z</time>
      </trkpt>
      <trkpt lon="10.126325" lat="48.221825">
        <ele>823.791</ele>
        <time>2026-01-19T15:30:39.836Z</time>
      </trkpt>
      <trkpt lon="10.125903" lat="48.221948">
        <ele>821.67</ele>
        <time>2026-01-19T15:30:40.512Z</time>
      </trkpt>
      <trkpt lon="10.125517" lat="48.222093">
        <ele>819.04</ele>
        <time>2026-01-19T15:30:41.164Z</time>
      </trkpt>
      <trkpt lon="10.125116" lat="48.222281">
        <ele>815.5</ele>
        <time>2026-01-19T15:30:41.852Z</time>
      </trkpt>
      <trkpt lon="10.124765" lat="48.222485">
        <ele>811.833</ele>
        <time>2026-01-19T15:30:42.524Z</time>
      </trkpt>
      <trkpt lon="10.124147" lat="48.222952">
        <ele>803.649</ele>
        <time>2026-01-19T15:30:43.876Z</time>
      </trkpt>
      <trkpt lon="10.123905" lat="48.223196">
        <ele>800.985</ele>
        <time>2026-01-19T15:30:44.536Z</time>
      </trkpt>
      <trkpt lon="10.123535" lat="48.223698">
        <ele>798.121</ele>
        <time>2026-01-19T15:30:45.840Z</time>
      </trkpt>
      <trkpt lon="10.123284" lat="48.224209">
        <ele>795.817</ele>
        <time>2026-01-19T15:30:47.188Z</time>
      </trkpt>
      <trkpt lon="10.123132" lat="48.224708">
        <ele>793.068</ele>
        <time>2026-01-19T15:30:48.564Z</time>
      </trkpt>
      <trkpt lon="10.123054" lat="48.225162">
        <ele>788.008</ele>
        <time>2026-01-19T15:30:49.888Z</time>
      </trkpt>
      <trkpt lon="10.122959" lat="48.226024">
        <ele>777.072</ele>
        <time>2026-01-19T15:30:52.568Z</time>
      </trkpt>
      <trkpt lon="10.122877" lat="48.226423">
        <ele>771.546</ele>
        <time>2026-01-19T15:30:53.940Z</time>
      </trkpt>
      <trkpt lon="10.122761" lat="48.227536">
        <ele>744.314</ele>
        <time>2026-01-19T15:30:57.948Z</time>
      </trkpt>
      <trkpt lon="10.122691" lat="48.228105">
        <ele>728.545</ele>
        <time>2026-01-19T15:31:00.000Z</time>
      </trkpt>
      <trkpt lon="10.122491" lat="48.229024">
        <ele>699.52</ele>
        <time>2026-01-19T15:31:03.312Z</time>
      </trkpt>
      <trkpt lon="10.122412" lat="48.229586">
        <ele>680.705</ele>
        <time>2026-01-19T15:31:05.300Z</time>
      </trkpt>
      <trkpt lon="10.122438" lat="48.229975">
        <ele>666.602</ele>
        <time>2026-01-19T15:31:06.652Z</time>
      </trkpt>
      <trkpt lon="10.122488" lat="48.230167">
        <ele>659.126</ele>
        <time>2026-01-19T15:31:07.320Z</time>
      </trkpt>
      <trkpt lon="10.122565" lat="48.230354">
        <ele>651.56</ele>
        <time>2026-01-19T15:31:07.984Z</time>
      </trkpt>
      <trkpt lon="10.122666" lat="48.230532">
        <ele>644.104</ele>
        <time>2026-01-19T15:31:08.624Z</time>
      </trkpt>
      <trkpt lon="10.122802" lat="48.230718">
        <ele>635.984</ele>
        <time>2026-01-19T15:31:09.304Z</time>
      </trkpt>
      <trkpt lon="10.122966" lat="48.230897">
        <ele>627.743</ele>
        <time>2026-01-19T15:31:09.980Z</time>
      </trkpt>
      <trkpt lon="10.123152" lat="48.231061">
        <ele>619.687</ele>
        <time>2026-01-19T15:31:10.652Z</time>
      </trkpt>
      <trkpt lon="10.123583" lat="48.231356">
        <ele>604.654</ele>
        <time>2026-01-19T15:31:11.960Z</time>
      </trkpt>
      <trkpt lon="10.124081" lat="48.231620">
        <ele>590.385</ele>
        <time>2026-01-19T15:31:13.308Z</time>
      </trkpt>
      <trkpt lon="10.124928" lat="48.231975">
        <ele>570.867</ele>
        <time>2026-01-19T15:31:15.404Z</time>
      </trkpt>
      <trkpt lon="10.126016" lat="48.232357">
        <ele>552.33</ele>
        <time>2026-01-19T15:31:18.052Z</time>
      </trkpt>
      <trkpt lon="10.126828" lat="48.232612">
        <ele>542.013</ele>
        <time>2026-01-19T15:31:20.056Z</time>
      </trkpt>
      <trkpt lon="10.127076" lat="48.232684">
        <ele>539.458</ele>
        <time>2026-01-19T15:31:20.700Z</time>
      </trkpt>
      <trkpt lon="10.127613" lat="48.232823">
        <ele>535.838</ele>
        <time>2026-01-19T15:31:22.020Z</time>
      </trkpt>
      <trkpt lon="10.130562" lat="48.233472">
        <ele>519.915</ele>
        <time>2026-01-19T15:31:30.020Z</time>
      </trkpt>
      <trkpt lon="10.133994" lat="48.234236">
        <ele>514.553</ele>
        <time>2026-01-19T15:31:40.652Z</time>
      </trkpt>
      <trkpt lon="10.136617" lat="48.234804">
        <ele>514.292</ele>
        <time>2026-01-19T15:31:50.064Z</time>
      </trkpt>
      <trkpt lon="10.137036" lat="48.234913">
        <ele>514.394</ele>
        <time>2026-01-19T15:31:52.084Z</time>
      </trkpt>
      <trkpt lon="10.137193" lat="48.234959">
        <ele>514.424</ele>
        <time>2026-01-19T15:31:53.420Z</time>
      </trkpt>
      <trkpt lon="10.137250" lat="48.234991">
        <ele>514.446</ele>
        <time>2026-01-19T15:31:54.116Z</time>
      </trkpt>
      <trkpt lon="10.137287" lat="48.235030">
        <ele>514.472</ele>
        <time>2026-01-19T15:31:54.760Z</time>
      </trkpt>
      <trkpt lon="10.137305" lat="48.235078">
        <ele>514.52</ele>
        <time>2026-01-19T15:31:55.432Z</time>
      </trkpt>
      <trkpt lon="10.137302" lat="48.235127">
        <ele>514.568</ele>
        <time>2026-01-19T15:31:56.084Z</time>
      </trkpt>
      <trkpt lon="10.137284" lat="48.235178">
        <ele>514.614</ele>
        <time>2026-01-19T15:31:56.748Z</time>
      </trkpt>
      <trkpt lon="10.137254" lat="48.235229">
        <ele>514.681</ele>
        <time>2026-01-19T15:31:57.424Z</time>
      </trkpt>
      <trkpt lon="10.137210" lat="48.235282">
        <ele>514.779</ele>
        <time>2026-01-19T15:31:58.136Z</time>
      </trkpt>
      <trkpt lon="10.137135" lat="48.235356">
        <ele>515.101</ele>
        <time>2026-01-19T15:31:59.468Z</time>
      </trkpt>
      <trkpt lon="10.137103" lat="48.235378">
        <ele>515.091</ele>
        <time>2026-01-19T15:32:00.140Z</time>
      </trkpt>
      <trkpt lon="10.137014" lat="48.235423">
        <ele>515.002</ele>
        <time>2026-01-19T15:32:03.472Z</time>
      </trkpt>
      <trkpt lon="10.136994" lat="48.235432">
        <ele>514.946</ele>
        <time>2026-01-19T15:32:04.120Z</time>
      </trkpt>
      <trkpt lon="10.136969" lat="48.235442">
        <ele>514.905</ele>
        <time>2026-01-19T15:32:04.768Z</time>
      </trkpt>
      <trkpt lon="10.136939" lat="48.235449">
        <ele>514.903</ele>
        <time>2026-01-19T15:32:05.440Z</time>
      </trkpt>
      <trkpt lon="10.136907" lat="48.235454">
        <ele>514.905</ele>
        <time>2026-01-19T15:32:06.100Z</time>
      </trkpt>
      <trkpt lon="10.136839" lat="48.235458">
        <ele>515.029</ele>
        <time>2026-01-19T15:32:07.380Z</time>
      </trkpt>
      <trkpt lon="10.136790" lat="48.235457">
        <ele>514.973</ele>
        <time>2026-01-19T15:32:08.720Z</time>
      </trkpt>
      <trkpt lon="10.136754" lat="48.235453">
        <ele>514.882</ele>
        <time>2026-01-19T15:32:14.752Z</time>
      </trkpt>
      <trkpt lon="10.136728" lat="48.235448">
        <ele>514.832</ele>
        <time>2026-01-19T15:32:15.420Z</time>
      </trkpt>
      <trkpt lon="10.136332" lat="48.235346">
        <ele>515.291</ele>
        <time>2026-01-19T15:32:20.752Z</time>
      </trkpt>
      <trkpt lon="10.135434" lat="48.235171">
        <ele>514.58</ele>
        <time>2026-01-19T15:32:30.204Z</time>
      </trkpt>
      <trkpt lon="10.134697" lat="48.234926">
        <ele>514.657</ele>
        <time>2026-01-19T15:32:38.908Z</time>
      </trkpt>
      <trkpt lon="10.134645" lat="48.234919">
        <ele>514.608</ele>
        <time>2026-01-19T15:32:39.560Z</time>
      </trkpt>
      <trkpt lon="10.134346" lat="48.234887">
        <ele>514.693</ele>
        <time>2026-01-19T15:32:43.612Z</time>
      </trkpt>
      <trkpt lon="10.134328" lat="48.234884">
        <ele>514.618</ele>
        <time>2026-01-19T15:32:54.296Z</time>
      </trkpt>
      <trkpt lon="10.134318" lat="48.234882">
        <ele>514.564</ele>
        <time>2026-01-19T15:35:58.064Z</time>
      </trkpt>
      <trkpt lon="10.134308" lat="48.234880">
        <ele>514.527</ele>
        <time>2026-01-19T15:43:14.476Z</time>
      </trkpt>
      <trkpt lon="10.134183" lat="48.234848">
        <ele>514.391</ele>
        <time>2026-01-19T15:43:17.816Z</time>
      </trkpt>
      <trkpt lon="10.133888" lat="48.234768">
        <ele>514.837</ele>
        <time>2026-01-19T15:43:28.488Z</time>
      </trkpt>
      <trkpt lon="10.133838" lat="48.234757">
        <ele>514.784</ele>
        <time>2026-01-19T15:43:39.128Z</time>
      </trkpt>
      <trkpt lon="10.133724" lat="48.234733">
        <ele>514.624</ele>
        <time>2026-01-19T15:44:41.108Z</time>
      </trkpt>
      <trkpt lon="10.133553" lat="48.234701">
        <ele>514.574</ele>
        <time>2026-01-19T15:44:51.140Z</time>
      </trkpt>
      <trkpt lon="10.133524" lat="48.234696">
        <ele>514.574</ele>
        <time>2026-01-19T15:45:29.040Z</time>
      </trkpt>
      <trkpt lon="10.133464" lat="48.234687">
        <ele>514.628</ele>
        <time>2026-01-19T15:45:32.392Z</time>
      </trkpt>
      <trkpt lon="10.133436" lat="48.234680">
        <ele>514.631</ele>
        <time>2026-01-19T15:45:42.436Z</time>
      </trkpt>
      <trkpt lon="10.133379" lat="48.234664">
        <ele>514.691</ele>
        <time>2026-01-19T15:46:01.600Z</time>
      </trkpt>
      <trkpt lon="10.133342" lat="48.234649">
        <ele>514.591</ele>
        <time>2026-01-19T15:46:02.288Z</time>
      </trkpt>
      <trkpt lon="10.133307" lat="48.234627">
        <ele>514.402</ele>
        <time>2026-01-19T15:46:02.940Z</time>
      </trkpt>
      <trkpt lon="10.133278" lat="48.234599">
        <ele>514.293</ele>
        <time>2026-01-19T15:46:03.612Z</time>
      </trkpt>
      <trkpt lon="10.133260" lat="48.234572">
        <ele>514.325</ele>
        <time>2026-01-19T15:46:04.268Z</time>
      </trkpt>
      <trkpt lon="10.133252" lat="48.234549">
        <ele>514.341</ele>
        <time>2026-01-19T15:46:04.916Z</time>
      </trkpt>
      <trkpt lon="10.133249" lat="48.234532">
        <ele>514.396</ele>
        <time>2026-01-19T15:46:05.624Z</time>
      </trkpt>
      <trkpt lon="10.133255" lat="48.234486">
        <ele>514.541</ele>
        <time>2026-01-19T15:46:11.016Z</time>
      </trkpt>
      <trkpt lon="10.133262" lat="48.234464">
        <ele>514.552</ele>
        <time>2026-01-19T15:46:11.656Z</time>
      </trkpt>
      <trkpt lon="10.133293" lat="48.234408">
        <ele>514.425</ele>
        <time>2026-01-19T15:46:12.956Z</time>
      </trkpt>
      <trkpt lon="10.133318" lat="48.234374">
        <ele>514.414</ele>
        <time>2026-01-19T15:46:13.656Z</time>
      </trkpt>
      <trkpt lon="10.133352" lat="48.234342">
        <ele>514.426</ele>
        <time>2026-01-19T15:46:14.344Z</time>
      </trkpt>
      <trkpt lon="10.133393" lat="48.234317">
        <ele>514.418</ele>
        <time>2026-01-19T15:46:15.008Z</time>
      </trkpt>
      <trkpt lon="10.133434" lat="48.234303">
        <ele>514.428</ele>
        <time>2026-01-19T15:46:15.652Z</time>
      </trkpt>
      <trkpt lon="10.133470" lat="48.234296">
        <ele>514.434</ele>
        <time>2026-01-19T15:46:16.312Z</time>
      </trkpt>
      <trkpt lon="10.133498" lat="48.234295">
        <ele>514.443</ele>
        <time>2026-01-19T15:46:16.964Z</time>
      </trkpt>
      <trkpt lon="10.133526" lat="48.234296">
        <ele>514.459</ele>
        <time>2026-01-19T15:46:17.640Z</time>
      </trkpt>
      <trkpt lon="10.133547" lat="48.234299">
        <ele>514.461</ele>
        <time>2026-01-19T15:46:18.292Z</time>
      </trkpt>
      <trkpt lon="10.133568" lat="48.234304">
        <ele>514.48</ele>
        <time>2026-01-19T15:46:28.296Z</time>
      </trkpt>
      <trkpt lon="10.133750" lat="48.234349">
        <ele>514.543</ele>
        <time>2026-01-19T15:46:30.332Z</time>
      </trkpt>
      <trkpt lon="10.134100" lat="48.234426">
        <ele>514.6</ele>
        <time>2026-01-19T15:46:32.316Z</time>
      </trkpt>
      <trkpt lon="10.134596" lat="48.234549">
        <ele>514.562</ele>
        <time>2026-01-19T15:46:34.276Z</time>
      </trkpt>
      <trkpt lon="10.135257" lat="48.234687">
        <ele>514.43</ele>
        <time>2026-01-19T15:46:36.296Z</time>
      </trkpt>
      <trkpt lon="10.136277" lat="48.234957">
        <ele>514.856</ele>
        <time>2026-01-19T15:46:38.940Z</time>
      </trkpt>
      <trkpt lon="10.137465" lat="48.235222">
        <ele>522.079</ele>
        <time>2026-01-19T15:46:41.596Z</time>
      </trkpt>
      <trkpt lon="10.139770" lat="48.235599">
        <ele>539.607</ele>
        <time>2026-01-19T15:46:46.336Z</time>
      </trkpt>
      <trkpt lon="10.141441" lat="48.235912">
        <ele>557.128</ele>
        <time>2026-01-19T15:46:49.676Z</time>
      </trkpt>
      <trkpt lon="10.142718" lat="48.236177">
        <ele>577.992</ele>
        <time>2026-01-19T15:46:52.316Z</time>
      </trkpt>
      <trkpt lon="10.143915" lat="48.236459">
        <ele>599.478</ele>
        <time>2026-01-19T15:46:54.944Z</time>
      </trkpt>
      <trkpt lon="10.145356" lat="48.236836">
        <ele>623.069</ele>
        <time>2026-01-19T15:46:58.256Z</time>
      </trkpt>
      <trkpt lon="10.146809" lat="48.237173">
        <ele>644.659</ele>
        <time>2026-01-19T15:47:01.592Z</time>
      </trkpt>
      <trkpt lon="10.148585" lat="48.237521">
        <ele>670.878</ele>
        <time>2026-01-19T15:47:05.684Z</time>
      </trkpt>
      <trkpt lon="10.151359" lat="48.237981">
        <ele>694.391</ele>
        <time>2026-01-19T15:47:11.716Z</time>
      </trkpt>
      <trkpt lon="10.152376" lat="48.238119">
        <ele>700.288</ele>
        <time>2026-01-19T15:47:13.720Z</time>
      </trkpt>
      <trkpt lon="10.153051" lat="48.238157">
        <ele>703.732</ele>
        <time>2026-01-19T15:47:14.992Z</time>
      </trkpt>
      <trkpt lon="10.153754" lat="48.238133">
        <ele>706.224</ele>
        <time>2026-01-19T15:47:16.296Z</time>
      </trkpt>
      <trkpt lon="10.154497" lat="48.238045">
        <ele>707.356</ele>
        <time>2026-01-19T15:47:17.640Z</time>
      </trkpt>
      <trkpt lon="10.155247" lat="48.237893">
        <ele>707.664</ele>
        <time>2026-01-19T15:47:19.016Z</time>
      </trkpt>
      <trkpt lon="10.155957" lat="48.237693">
        <ele>707.787</ele>
        <time>2026-01-19T15:47:20.272Z</time>
      </trkpt>
      <trkpt lon="10.156992" lat="48.237306">
        <ele>708.381</ele>
        <time>2026-01-19T15:47:22.200Z</time>
      </trkpt>
      <trkpt lon="10.158013" lat="48.236807">
        <ele>711.187</ele>
        <time>2026-01-19T15:47:24.188Z</time>
      </trkpt>
      <trkpt lon="10.158944" lat="48.236233">
        <ele>717.388</ele>
        <time>2026-01-19T15:47:26.156Z</time>
      </trkpt>
      <trkpt lon="10.159775" lat="48.235594">
        <ele>727.131</ele>
        <time>2026-01-19T15:47:28.144Z</time>
      </trkpt>
      <trkpt lon="10.160508" lat="48.234882">
        <ele>738.932</ele>
        <time>2026-01-19T15:47:30.208Z</time>
      </trkpt>
      <trkpt lon="10.161084" lat="48.234169">
        <ele>750.208</ele>
        <time>2026-01-19T15:47:32.168Z</time>
      </trkpt>
      <trkpt lon="10.161545" lat="48.233419">
        <ele>761.331</ele>
        <time>2026-01-19T15:47:34.168Z</time>
      </trkpt>
      <trkpt lon="10.161877" lat="48.232668">
        <ele>771.346</ele>
        <time>2026-01-19T15:47:36.156Z</time>
      </trkpt>
      <trkpt lon="10.162105" lat="48.231887">
        <ele>780.648</ele>
        <time>2026-01-19T15:47:38.132Z</time>
      </trkpt>
      <trkpt lon="10.162296" lat="48.230204">
        <ele>795.934</ele>
        <time>2026-01-19T15:47:42.328Z</time>
      </trkpt>
      <trkpt lon="10.162300" lat="48.227603">
        <ele>793.545</ele>
        <time>2026-01-19T15:47:48.380Z</time>
      </trkpt>
      <trkpt lon="10.161743" lat="48.218306">
        <ele>797.224</ele>
        <time>2026-01-19T15:48:07.520Z</time>
      </trkpt>
      <trkpt lon="10.160584" lat="48.210560">
        <ele>801.506</ele>
        <time>2026-01-19T15:48:22.900Z</time>
      </trkpt>
      <trkpt lon="10.158954" lat="48.205208">
        <ele>806.628</ele>
        <time>2026-01-19T15:48:33.628Z</time>
      </trkpt>
      <trkpt lon="10.156632" lat="48.200030">
        <ele>811.596</ele>
        <time>2026-01-19T15:48:44.248Z</time>
      </trkpt>
      <trkpt lon="10.154035" lat="48.195673">
        <ele>816.034</ele>
        <time>2026-01-19T15:48:53.464Z</time>
      </trkpt>
      <trkpt lon="10.151250" lat="48.192056">
        <ele>819.995</ele>
        <time>2026-01-19T15:49:01.480Z</time>
      </trkpt>
      <trkpt lon="10.148006" lat="48.188652">
        <ele>823.717</ele>
        <time>2026-01-19T15:49:09.456Z</time>
      </trkpt>
      <trkpt lon="10.144310" lat="48.185460">
        <ele>827.401</ele>
        <time>2026-01-19T15:49:17.468Z</time>
      </trkpt>
      <trkpt lon="10.140191" lat="48.182509">
        <ele>831.065</ele>
        <time>2026-01-19T15:49:25.440Z</time>
      </trkpt>
      <trkpt lon="10.122971" lat="48.172442">
        <ele>843.393</ele>
        <time>2026-01-19T15:49:55.628Z</time>
      </trkpt>
      <trkpt lon="10.108559" lat="48.164637">
        <ele>852.831</ele>
        <time>2026-01-19T15:50:20.100Z</time>
      </trkpt>
      <trkpt lon="10.097968" lat="48.160063">
        <ele>858.716</ele>
        <time>2026-01-19T15:50:36.748Z</time>
      </trkpt>
      <trkpt lon="10.086853" lat="48.156181">
        <ele>865.229</ele>
        <time>2026-01-19T15:50:53.348Z</time>
      </trkpt>
      <trkpt lon="10.075252" lat="48.153001">
        <ele>869.313</ele>
        <time>2026-01-19T15:51:09.964Z</time>
      </trkpt>
      <trkpt lon="10.062292" lat="48.150382">
        <ele>874.557</ele>
        <time>2026-01-19T15:51:27.920Z</time>
      </trkpt>
      <trkpt lon="10.040191" lat="48.146836">
        <ele>885.311</ele>
        <time>2026-01-19T15:51:58.008Z</time>
      </trkpt>
      <trkpt lon="10.017874" lat="48.143232">
        <ele>895.497</ele>
        <time>2026-01-19T15:52:28.436Z</time>
      </trkpt>
      <trkpt lon="9.995646" lat="48.140098">
        <ele>906.56</ele>
        <time>2026-01-19T15:52:58.508Z</time>
      </trkpt>
      <trkpt lon="9.983746" lat="48.138747">
        <ele>910.887</ele>
        <time>2026-01-19T15:53:14.500Z</time>
      </trkpt>
      <trkpt lon="9.971733" lat="48.138110">
        <ele>914.995</ele>
        <time>2026-01-19T15:53:30.484Z</time>
      </trkpt>
      <trkpt lon="9.953130" lat="48.138348">
        <ele>923.696</ele>
        <time>2026-01-19T15:53:55.156Z</time>
      </trkpt>
      <trkpt lon="9.930139" lat="48.139126">
        <ele>934.762</ele>
        <time>2026-01-19T15:54:25.720Z</time>
      </trkpt>
      <trkpt lon="9.907027" lat="48.139722">
        <ele>945.485</ele>
        <time>2026-01-19T15:54:56.392Z</time>
      </trkpt>
      <trkpt lon="9.883669" lat="48.140136">
        <ele>955.821</ele>
        <time>2026-01-19T15:55:27.056Z</time>
      </trkpt>
      <trkpt lon="9.859942" lat="48.140349">
        <ele>956.293</ele>
        <time>2026-01-19T15:55:57.660Z</time>
      </trkpt>
      <trkpt lon="9.836156" lat="48.140473">
        <ele>955.304</ele>
        <time>2026-01-19T15:56:28.252Z</time>
      </trkpt>
      <trkpt lon="9.823207" lat="48.141256">
        <ele>956.255</ele>
        <time>2026-01-19T15:56:44.956Z</time>
      </trkpt>
      <trkpt lon="9.809924" lat="48.142880">
        <ele>957.428</ele>
        <time>2026-01-19T15:57:02.340Z</time>
      </trkpt>
      <trkpt lon="9.799988" lat="48.144685">
        <ele>955.957</ele>
        <time>2026-01-19T15:57:15.592Z</time>
      </trkpt>
      <trkpt lon="9.799006" lat="48.144946">
        <ele>954.561</ele>
        <time>2026-01-19T15:57:16.932Z</time>
      </trkpt>
      <trkpt lon="9.798104" lat="48.145264">
        <ele>953.268</ele>
        <time>2026-01-19T15:57:18.248Z</time>
      </trkpt>
      <trkpt lon="9.797259" lat="48.145659">
        <ele>950.946</ele>
        <time>2026-01-19T15:57:19.568Z</time>
      </trkpt>
      <trkpt lon="9.796493" lat="48.146121">
        <ele>947.48</ele>
        <time>2026-01-19T15:57:20.860Z</time>
      </trkpt>
      <trkpt lon="9.795794" lat="48.146651">
        <ele>943.607</ele>
        <time>2026-01-19T15:57:22.196Z</time>
      </trkpt>
      <trkpt lon="9.795185" lat="48.147229">
        <ele>940.405</ele>
        <time>2026-01-19T15:57:23.500Z</time>
      </trkpt>
      <trkpt lon="9.794645" lat="48.147877">
        <ele>938.153</ele>
        <time>2026-01-19T15:57:24.880Z</time>
      </trkpt>
      <trkpt lon="9.794220" lat="48.148535">
        <ele>936.568</ele>
        <time>2026-01-19T15:57:26.208Z</time>
      </trkpt>
      <trkpt lon="9.793900" lat="48.149219">
        <ele>934.838</ele>
        <time>2026-01-19T15:57:27.516Z</time>
      </trkpt>
      <trkpt lon="9.793694" lat="48.149945">
        <ele>932.176</ele>
        <time>2026-01-19T15:57:28.880Z</time>
      </trkpt>
      <trkpt lon="9.793625" lat="48.150709">
        <ele>927.989</ele>
        <time>2026-01-19T15:57:30.284Z</time>
      </trkpt>
      <trkpt lon="9.793690" lat="48.151444">
        <ele>923.616</ele>
        <time>2026-01-19T15:57:31.640Z</time>
      </trkpt>
      <trkpt lon="9.793875" lat="48.152201">
        <ele>919.967</ele>
        <time>2026-01-19T15:57:32.976Z</time>
      </trkpt>
      <trkpt lon="9.794309" lat="48.153298">
        <ele>915.033</ele>
        <time>2026-01-19T15:57:35.020Z</time>
      </trkpt>
      <trkpt lon="9.796250" lat="48.157082">
        <ele>912.787</ele>
        <time>2026-01-19T15:57:42.296Z</time>
      </trkpt>
      <trkpt lon="9.796442" lat="48.157792">
        <ele>912.892</ele>
        <time>2026-01-19T15:57:43.640Z</time>
      </trkpt>
      <trkpt lon="9.796518" lat="48.158507">
        <ele>911.117</ele>
        <time>2026-01-19T15:57:44.984Z</time>
      </trkpt>
      <trkpt lon="9.796501" lat="48.158855">
        <ele>908.967</ele>
        <time>2026-01-19T15:57:45.640Z</time>
      </trkpt>
      <trkpt lon="9.796429" lat="48.159232">
        <ele>906.636</ele>
        <time>2026-01-19T15:57:46.352Z</time>
      </trkpt>
      <trkpt lon="9.796132" lat="48.159919">
        <ele>905.503</ele>
        <time>2026-01-19T15:57:47.700Z</time>
      </trkpt>
      <trkpt lon="9.795913" lat="48.160236">
        <ele>906.646</ele>
        <time>2026-01-19T15:57:48.336Z</time>
      </trkpt>
      <trkpt lon="9.795634" lat="48.160545">
        <ele>908.854</ele>
        <time>2026-01-19T15:57:49.028Z</time>
      </trkpt>
      <trkpt lon="9.795315" lat="48.160818">
        <ele>911.74</ele>
        <time>2026-01-19T15:57:49.708Z</time>
      </trkpt>
      <trkpt lon="9.794940" lat="48.161065">
        <ele>915.312</ele>
        <time>2026-01-19T15:57:50.396Z</time>
      </trkpt>
      <trkpt lon="9.794539" lat="48.161265">
        <ele>919.019</ele>
        <time>2026-01-19T15:57:51.060Z</time>
      </trkpt>
      <trkpt lon="9.794089" lat="48.161435">
        <ele>921.603</ele>
        <time>2026-01-19T15:57:51.756Z</time>
      </trkpt>
      <trkpt lon="9.793650" lat="48.161560">
        <ele>922.156</ele>
        <time>2026-01-19T15:57:52.404Z</time>
      </trkpt>
      <trkpt lon="9.793169" lat="48.161643">
        <ele>921.533</ele>
        <time>2026-01-19T15:57:53.084Z</time>
      </trkpt>
      <trkpt lon="9.792688" lat="48.161674">
        <ele>920.071</ele>
        <time>2026-01-19T15:57:53.732Z</time>
      </trkpt>
      <trkpt lon="9.792201" lat="48.161656">
        <ele>917.882</ele>
        <time>2026-01-19T15:57:54.404Z</time>
      </trkpt>
      <trkpt lon="9.791725" lat="48.161591">
        <ele>915.043</ele>
        <time>2026-01-19T15:57:55.068Z</time>
      </trkpt>
      <trkpt lon="9.791257" lat="48.161478">
        <ele>911.686</ele>
        <time>2026-01-19T15:57:55.736Z</time>
      </trkpt>
      <trkpt lon="9.789995" lat="48.160937">
        <ele>899.377</ele>
        <time>2026-01-19T15:57:57.744Z</time>
      </trkpt>
      <trkpt lon="9.787336" lat="48.159360">
        <ele>893.236</ele>
        <time>2026-01-19T15:58:02.368Z</time>
      </trkpt>
      <trkpt lon="9.785968" lat="48.158346">
        <ele>892.731</ele>
        <time>2026-01-19T15:58:04.972Z</time>
      </trkpt>
      <trkpt lon="9.784477" lat="48.156980">
        <ele>893.271</ele>
        <time>2026-01-19T15:58:08.224Z</time>
      </trkpt>
      <trkpt lon="9.779635" lat="48.151758">
        <ele>897.835</ele>
        <time>2026-01-19T15:58:20.340Z</time>
      </trkpt>
      <trkpt lon="9.779035" lat="48.150872">
        <ele>897.882</ele>
        <time>2026-01-19T15:58:22.336Z</time>
      </trkpt>
      <trkpt lon="9.778420" lat="48.149660">
        <ele>897.138</ele>
        <time>2026-01-19T15:58:24.980Z</time>
      </trkpt>
      <trkpt lon="9.777746" lat="48.147712">
        <ele>894.424</ele>
        <time>2026-01-19T15:58:29.020Z</time>
      </trkpt>
      <trkpt lon="9.777181" lat="48.144330">
        <ele>892.811</ele>
        <time>2026-01-19T15:58:35.728Z</time>
      </trkpt>
      <trkpt lon="9.777136" lat="48.143293">
        <ele>892.982</ele>
        <time>2026-01-19T15:58:37.748Z</time>
      </trkpt>
      <trkpt lon="9.777276" lat="48.141920">
        <ele>889.752</ele>
        <time>2026-01-19T15:58:40.428Z</time>
      </trkpt>
      <trkpt lon="9.778727" lat="48.135045">
        <ele>860.217</ele>
        <time>2026-01-19T15:58:54.952Z</time>
      </trkpt>
      <trkpt lon="9.779275" lat="48.133163">
        <ele>833.154</ele>
        <time>2026-01-19T15:58:58.932Z</time>
      </trkpt>
      <trkpt lon="9.779886" lat="48.131218">
        <ele>803.048</ele>
        <time>2026-01-19T15:59:02.948Z</time>
      </trkpt>
      <trkpt lon="9.780255" lat="48.129881">
        <ele>777.265</ele>
        <time>2026-01-19T15:59:05.588Z</time>
      </trkpt>
      <trkpt lon="9.780617" lat="48.128490">
        <ele>748.746</ele>
        <time>2026-01-19T15:59:08.284Z</time>
      </trkpt>
      <trkpt lon="9.780997" lat="48.126692">
        <ele>720.171</ele>
        <time>2026-01-19T15:59:11.624Z</time>
      </trkpt>
      <trkpt lon="9.781117" lat="48.125282">
        <ele>697.578</ele>
        <time>2026-01-19T15:59:14.224Z</time>
      </trkpt>
      <trkpt lon="9.781089" lat="48.124576">
        <ele>687.379</ele>
        <time>2026-01-19T15:59:15.520Z</time>
      </trkpt>
      <trkpt lon="9.780938" lat="48.123859">
        <ele>677.858</ele>
        <time>2026-01-19T15:59:16.848Z</time>
      </trkpt>
      <trkpt lon="9.780802" lat="48.123519">
        <ele>674.254</ele>
        <time>2026-01-19T15:59:17.504Z</time>
      </trkpt>
      <trkpt lon="9.780593" lat="48.123176">
        <ele>673.371</ele>
        <time>2026-01-19T15:59:18.212Z</time>
      </trkpt>
      <trkpt lon="9.780337" lat="48.122906">
        <ele>676.636</ele>
        <time>2026-01-19T15:59:18.860Z</time>
      </trkpt>
      <trkpt lon="9.780050" lat="48.122685">
        <ele>682.396</ele>
        <time>2026-01-19T15:59:19.512Z</time>
      </trkpt>
      <trkpt lon="9.779441" lat="48.122322">
        <ele>692.368</ele>
        <time>2026-01-19T15:59:20.832Z</time>
      </trkpt>
      <trkpt lon="9.778852" lat="48.122024">
        <ele>693.675</ele>
        <time>2026-01-19T15:59:22.156Z</time>
      </trkpt>
      <trkpt lon="9.776647" lat="48.120992">
        <ele>670.625</ele>
        <time>2026-01-19T15:59:27.564Z</time>
      </trkpt>
      <trkpt lon="9.775888" lat="48.120603">
        <ele>648.762</ele>
        <time>2026-01-19T15:59:29.532Z</time>
      </trkpt>
      <trkpt lon="9.774813" lat="48.120048">
        <ele>631.041</ele>
        <time>2026-01-19T15:59:32.172Z</time>
      </trkpt>
      <trkpt lon="9.773333" lat="48.119237">
        <ele>614.926</ele>
        <time>2026-01-19T15:59:36.132Z</time>
      </trkpt>
      <trkpt lon="9.771919" lat="48.118288">
        <ele>600.552</ele>
        <time>2026-01-19T15:59:40.776Z</time>
      </trkpt>
      <trkpt lon="9.769877" lat="48.116792">
        <ele>584.934</ele>
        <time>2026-01-19T15:59:48.812Z</time>
      </trkpt>
      <trkpt lon="9.768308" lat="48.115609">
        <ele>581.032</ele>
        <time>2026-01-19T15:59:56.028Z</time>
      </trkpt>
      <trkpt lon="9.768103" lat="48.115457">
        <ele>581.021</ele>
        <time>2026-01-19T15:59:57.360Z</time>
      </trkpt>
      <trkpt lon="9.768022" lat="48.115407">
        <ele>581.037</ele>
        <time>2026-01-19T15:59:58.036Z</time>
      </trkpt>
      <trkpt lon="9.767929" lat="48.115372">
        <ele>581.058</ele>
        <time>2026-01-19T15:59:58.736Z</time>
      </trkpt>
      <trkpt lon="9.767841" lat="48.115359">
        <ele>581.075</ele>
        <time>2026-01-19T15:59:59.396Z</time>
      </trkpt>
      <trkpt lon="9.767756" lat="48.115364">
        <ele>581.075</ele>
        <time>2026-01-19T16:00:00.028Z</time>
      </trkpt>
      <trkpt lon="9.767586" lat="48.115393">
        <ele>581.076</ele>
        <time>2026-01-19T16:00:01.344Z</time>
      </trkpt>
      <trkpt lon="9.767430" lat="48.115401">
        <ele>581.093</ele>
        <time>2026-01-19T16:00:02.632Z</time>
      </trkpt>
      <trkpt lon="9.767361" lat="48.115417">
        <ele>581.094</ele>
        <time>2026-01-19T16:00:03.268Z</time>
      </trkpt>
      <trkpt lon="9.767290" lat="48.115445">
        <ele>581.11</ele>
        <time>2026-01-19T16:00:03.948Z</time>
      </trkpt>
      <trkpt lon="9.767111" lat="48.115536">
        <ele>581.181</ele>
        <time>2026-01-19T16:00:05.972Z</time>
      </trkpt>
      <trkpt lon="9.767065" lat="48.115552">
        <ele>581.21</ele>
        <time>2026-01-19T16:00:06.612Z</time>
      </trkpt>
      <trkpt lon="9.767020" lat="48.115560">
        <ele>581.241</ele>
        <time>2026-01-19T16:00:07.272Z</time>
      </trkpt>
      <trkpt lon="9.766972" lat="48.115559">
        <ele>581.271</ele>
        <time>2026-01-19T16:00:07.956Z</time>
      </trkpt>
      <trkpt lon="9.766925" lat="48.115550">
        <ele>581.293</ele>
        <time>2026-01-19T16:00:08.604Z</time>
      </trkpt>
      <trkpt lon="9.766876" lat="48.115531">
        <ele>581.321</ele>
        <time>2026-01-19T16:00:09.272Z</time>
      </trkpt>
      <trkpt lon="9.766832" lat="48.115504">
        <ele>581.332</ele>
        <time>2026-01-19T16:00:09.908Z</time>
      </trkpt>
      <trkpt lon="9.766691" lat="48.115391">
        <ele>581.353</ele>
        <time>2026-01-19T16:00:12.532Z</time>
      </trkpt>
      <trkpt lon="9.766659" lat="48.115358">
        <ele>581.355</ele>
        <time>2026-01-19T16:00:13.196Z</time>
      </trkpt>
      <trkpt lon="9.766637" lat="48.115320">
        <ele>581.33</ele>
        <time>2026-01-19T16:00:13.860Z</time>
      </trkpt>
      <trkpt lon="9.766622" lat="48.115281">
        <ele>581.43</ele>
        <time>2026-01-19T16:00:14.520Z</time>
      </trkpt>
      <trkpt lon="9.766613" lat="48.115244">
        <ele>581.523</ele>
        <time>2026-01-19T16:00:15.180Z</time>
      </trkpt>
      <trkpt lon="9.766611" lat="48.115214">
        <ele>581.614</ele>
        <time>2026-01-19T16:00:15.832Z</time>
      </trkpt>
      <trkpt lon="9.766614" lat="48.115192">
        <ele>581.679</ele>
        <time>2026-01-19T16:00:16.500Z</time>
      </trkpt>
      <trkpt lon="9.766618" lat="48.115179">
        <ele>581.734</ele>
        <time>2026-01-19T16:00:17.188Z</time>
      </trkpt>
      <trkpt lon="9.766676" lat="48.115122">
        <ele>581.827</ele>
        <time>2026-01-19T16:00:21.796Z</time>
      </trkpt>
      <trkpt lon="9.766707" lat="48.115101">
        <ele>581.704</ele>
        <time>2026-01-19T16:00:23.192Z</time>
      </trkpt>
      <trkpt lon="9.766726" lat="48.115089">
        <ele>581.634</ele>
        <time>2026-01-19T16:00:33.284Z</time>
      </trkpt>
      <trkpt lon="9.766738" lat="48.115082">
        <ele>581.59</ele>
        <time>2026-01-19T16:00:43.376Z</time>
      </trkpt>
      <trkpt lon="9.766714" lat="48.115097">
        <ele>581.691</ele>
        <time>2026-01-19T16:02:33.712Z</time>
      </trkpt>
      <trkpt lon="9.766742" lat="48.115079">
        <ele>581.562</ele>
        <time>2026-01-19T16:05:31.704Z</time>
      </trkpt>
      <trkpt lon="9.766781" lat="48.115055">
        <ele>581.504</ele>
        <time>2026-01-19T16:05:42.532Z</time>
      </trkpt>
      <trkpt lon="9.766385" lat="48.115291">
        <ele>581.434</ele>
        <time>2026-01-19T16:06:32.184Z</time>
      </trkpt>
      <trkpt lon="9.766580" lat="48.115175">
        <ele>581.73</ele>
        <time>2026-01-19T16:06:41.212Z</time>
      </trkpt>
      <trkpt lon="9.765598" lat="48.115759">
        <ele>586.263</ele>
        <time>2026-01-19T16:06:42.300Z</time>
      </trkpt>
      <trkpt lon="9.766390" lat="48.115288">
        <ele>581.451</ele>
        <time>2026-01-19T16:06:53.036Z</time>
      </trkpt>
      <trkpt lon="9.766587" lat="48.115170">
        <ele>581.689</ele>
        <time>2026-01-19T16:07:14.700Z</time>
      </trkpt>
      <trkpt lon="9.766784" lat="48.115051">
        <ele>581.512</ele>
        <time>2026-01-19T16:07:15.600Z</time>
      </trkpt>
      <trkpt lon="9.766590" lat="48.115168">
        <ele>581.749</ele>
        <time>2026-01-19T16:07:26.428Z</time>
      </trkpt>
      <trkpt lon="9.766580" lat="48.115174">
        <ele>581.74</ele>
        <time>2026-01-19T16:07:58.036Z</time>
      </trkpt>
      <trkpt lon="9.766785" lat="48.115063">
        <ele>581.507</ele>
        <time>2026-01-19T16:08:08.868Z</time>
      </trkpt>
      <trkpt lon="9.766775" lat="48.115068">
        <ele>581.487</ele>
        <time>2026-01-19T16:08:19.704Z</time>
      </trkpt>
    </trkseg>
    <trkseg>
      <trkpt lon="-83.361747" lat="64.199292">
        <ele>66.689</ele>
        <time>2026-01-25T11:02:28.872Z</time>
      </trkpt>
      <trkpt lon="-83.361726" lat="64.199277">
        <ele>66.8406</ele>
        <time>2026-01-25T13:29:36.432Z</time>
      </trkpt>
      <trkpt lon="-83.361713" lat="64.199264">
        <ele>66.9197</ele>
        <time>2026-01-25T13:29:42.464Z</time>
      </trkpt>
      <trkpt lon="-83.361697" lat="64.199243">
        <ele>66.9698</ele>
        <time>2026-01-25T13:29:43.852Z</time>
      </trkpt>
      <trkpt lon="-83.361694" lat="64.199231">
        <ele>67.0102</ele>
        <time>2026-01-25T13:29:44.496Z</time>
      </trkpt>
      <trkpt lon="-83.361693" lat="64.199217">
        <ele>66.9817</ele>
        <time>2026-01-25T13:29:45.160Z</time>
      </trkpt>
      <trkpt lon="-83.361699" lat="64.199199">
        <ele>66.9523</ele>
        <time>2026-01-25T13:29:45.828Z</time>
      </trkpt>
      <trkpt lon="-83.361717" lat="64.199175">
        <ele>66.8048</ele>
        <time>2026-01-25T13:29:46.516Z</time>
      </trkpt>
      <trkpt lon="-83.361754" lat="64.199149">
        <ele>66.5993</ele>
        <time>2026-01-25T13:29:47.200Z</time>
      </trkpt>
      <trkpt lon="-83.361808" lat="64.199126">
        <ele>66.3227</ele>
        <time>2026-01-25T13:29:47.876Z</time>
      </trkpt>
      <trkpt lon="-83.361909" lat="64.199097">
        <ele>65.9347</ele>
        <time>2026-01-25T13:29:49.188Z</time>
      </trkpt>
      <trkpt lon="-83.362032" lat="64.199069">
        <ele>65.6136</ele>
        <time>2026-01-25T13:29:50.540Z</time>
      </trkpt>
      <trkpt lon="-83.362517" lat="64.198961">
        <ele>64.9318</ele>
        <time>2026-01-25T13:29:55.232Z</time>
      </trkpt>
      <trkpt lon="-83.362675" lat="64.198913">
        <ele>64.411</ele>
        <time>2026-01-25T13:29:56.604Z</time>
      </trkpt>
      <trkpt lon="-83.362730" lat="64.198888">
        <ele>64.2541</ele>
        <time>2026-01-25T13:29:57.288Z</time>
      </trkpt>
      <trkpt lon="-83.362760" lat="64.198867">
        <ele>64.195</ele>
        <time>2026-01-25T13:29:57.956Z</time>
      </trkpt>
      <trkpt lon="-83.362775" lat="64.198853">
        <ele>64.1384</ele>
        <time>2026-01-25T13:29:58.612Z</time>
      </trkpt>
      <trkpt lon="-83.362783" lat="64.198842">
        <ele>64.0963</ele>
        <time>2026-01-25T13:30:09.332Z</time>
      </trkpt>
      <trkpt lon="-83.362806" lat="64.198790">
        <ele>63.9871</ele>
        <time>2026-01-25T13:31:09.440Z</time>
      </trkpt>
      <trkpt lon="-83.362827" lat="64.198762">
        <ele>63.952</ele>
        <time>2026-01-25T13:31:10.784Z</time>
      </trkpt>
      <trkpt lon="-83.362845" lat="64.198745">
        <ele>63.896</ele>
        <time>2026-01-25T13:31:11.460Z</time>
      </trkpt>
      <trkpt lon="-83.362864" lat="64.198731">
        <ele>63.8869</ele>
        <time>2026-01-25T13:31:12.144Z</time>
      </trkpt>
      <trkpt lon="-83.362921" lat="64.198697">
        <ele>63.7968</ele>
        <time>2026-01-25T13:31:17.532Z</time>
      </trkpt>
      <trkpt lon="-83.362965" lat="64.198674">
        <ele>63.7881</ele>
        <time>2026-01-25T13:31:19.532Z</time>
      </trkpt>
      <trkpt lon="-83.363022" lat="64.198651">
        <ele>63.7652</ele>
        <time>2026-01-25T13:31:21.500Z</time>
      </trkpt>
      <trkpt lon="-83.363098" lat="64.198629">
        <ele>63.568</ele>
        <time>2026-01-25T13:31:22.872Z</time>
      </trkpt>
      <trkpt lon="-83.363149" lat="64.198619">
        <ele>63.5443</ele>
        <time>2026-01-25T13:31:23.540Z</time>
      </trkpt>
      <trkpt lon="-83.363207" lat="64.198610">
        <ele>63.482</ele>
        <time>2026-01-25T13:31:24.216Z</time>
      </trkpt>
      <trkpt lon="-83.363259" lat="64.198605">
        <ele>63.4318</ele>
        <time>2026-01-25T13:31:24.904Z</time>
      </trkpt>
      <trkpt lon="-83.363354" lat="64.198600">
        <ele>63.291</ele>
        <time>2026-01-25T13:31:26.284Z</time>
      </trkpt>
      <trkpt lon="-83.363436" lat="64.198599">
        <ele>63.3166</ele>
        <time>2026-01-25T13:31:27.608Z</time>
      </trkpt>
      <trkpt lon="-83.363748" lat="64.198615">
        <ele>63.2234</ele>
        <time>2026-01-25T13:31:37.660Z</time>
      </trkpt>
      <trkpt lon="-83.364027" lat="64.198620">
        <ele>63.0399</ele>
        <time>2026-01-25T13:31:47.744Z</time>
      </trkpt>
      <trkpt lon="-83.364094" lat="64.198618">
        <ele>63.0568</ele>
        <time>2026-01-25T13:31:52.452Z</time>
      </trkpt>
      <trkpt lon="-83.364280" lat="64.198604">
        <ele>63.0515</ele>
        <time>2026-01-25T13:32:02.664Z</time>
      </trkpt>
      <trkpt lon="-83.364335" lat="64.198599">
        <ele>63.038</ele>
        <time>2026-01-25T13:32:04.656Z</time>
      </trkpt>
      <trkpt lon="-83.364369" lat="64.198594">
        <ele>63.0009</ele>
        <time>2026-01-25T13:32:14.732Z</time>
      </trkpt>
      <trkpt lon="-83.364382" lat="64.198592">
        <ele>63.0147</ele>
        <time>2026-01-25T13:32:20.752Z</time>
      </trkpt>
      <trkpt lon="-83.364408" lat="64.198586">
        <ele>62.9507</ele>
        <time>2026-01-25T13:32:22.120Z</time>
      </trkpt>
      <trkpt lon="-83.364427" lat="64.198579">
        <ele>63.0031</ele>
        <time>2026-01-25T13:32:22.788Z</time>
      </trkpt>
      <trkpt lon="-83.364451" lat="64.198568">
        <ele>62.9208</ele>
        <time>2026-01-25T13:32:23.488Z</time>
      </trkpt>
      <trkpt lon="-83.364473" lat="64.198553">
        <ele>62.9185</ele>
        <time>2026-01-25T13:32:24.156Z</time>
      </trkpt>
      <trkpt lon="-83.364487" lat="64.198534">
        <ele>62.8718</ele>
        <time>2026-01-25T13:32:24.848Z</time>
      </trkpt>
      <trkpt lon="-83.364493" lat="64.198516">
        <ele>62.8378</ele>
        <time>2026-01-25T13:32:25.528Z</time>
      </trkpt>
      <trkpt lon="-83.364493" lat="64.198493">
        <ele>62.7846</ele>
        <time>2026-01-25T13:32:26.832Z</time>
      </trkpt>
      <trkpt lon="-83.364478" lat="64.198443">
        <ele>62.6076</ele>
        <time>2026-01-25T13:32:30.184Z</time>
      </trkpt>
      <trkpt lon="-83.364439" lat="64.198379">
        <ele>62.3934</ele>
        <time>2026-01-25T13:32:31.544Z</time>
      </trkpt>
      <trkpt lon="-83.364325" lat="64.198210">
        <ele>62.1526</ele>
        <time>2026-01-25T13:32:33.496Z</time>
      </trkpt>
      <trkpt lon="-83.364158" lat="64.197919">
        <ele>62.0367</ele>
        <time>2026-01-25T13:32:35.588Z</time>
      </trkpt>
      <trkpt lon="-83.363676" lat="64.197409">
        <ele>62.0905</ele>
        <time>2026-01-25T13:32:38.344Z</time>
      </trkpt>
      <trkpt lon="-83.363015" lat="64.196781">
        <ele>61.9114</ele>
        <time>2026-01-25T13:32:41.044Z</time>
      </trkpt>
      <trkpt lon="-83.361832" lat="64.195664">
        <ele>63.3469</ele>
        <time>2026-01-25T13:32:45.044Z</time>
      </trkpt>
      <trkpt lon="-83.360173" lat="64.194138">
        <ele>63.0654</ele>
        <time>2026-01-25T13:32:49.764Z</time>
      </trkpt>
      <trkpt lon="-83.355895" lat="64.190170">
        <ele>80.0895</ele>
        <time>2026-01-25T13:33:00.584Z</time>
      </trkpt>
      <trkpt lon="-83.353337" lat="64.187891">
        <ele>96.9365</ele>
        <time>2026-01-25T13:33:06.700Z</time>
      </trkpt>
      <trkpt lon="-83.350683" lat="64.185512">
        <ele>115.05</ele>
        <time>2026-01-25T13:33:12.704Z</time>
      </trkpt>
      <trkpt lon="-83.348865" lat="64.183936">
        <ele>124.56</ele>
        <time>2026-01-25T13:33:16.624Z</time>
      </trkpt>
      <trkpt lon="-83.347378" lat="64.182874">
        <ele>127.533</ele>
        <time>2026-01-25T13:33:19.256Z</time>
      </trkpt>
      <trkpt lon="-83.345168" lat="64.181611">
        <ele>137.562</ele>
        <time>2026-01-25T13:33:22.596Z</time>
      </trkpt>
      <trkpt lon="-83.343146" lat="64.180699">
        <ele>147.346</ele>
        <time>2026-01-25T13:33:25.228Z</time>
      </trkpt>
      <trkpt lon="-83.340787" lat="64.179838">
        <ele>159.886</ele>
        <time>2026-01-25T13:33:27.892Z</time>
      </trkpt>
      <trkpt lon="-83.338156" lat="64.179070">
        <ele>171.858</ele>
        <time>2026-01-25T13:33:30.540Z</time>
      </trkpt>
      <trkpt lon="-83.335275" lat="64.178421">
        <ele>186.309</ele>
        <time>2026-01-25T13:33:33.164Z</time>
      </trkpt>
      <trkpt lon="-83.331449" lat="64.177758">
        <ele>212.807</ele>
        <time>2026-01-25T13:33:36.460Z</time>
      </trkpt>
      <trkpt lon="-83.326597" lat="64.177090">
        <ele>239.43</ele>
        <time>2026-01-25T13:33:40.376Z</time>
      </trkpt>
      <trkpt lon="-83.320571" lat="64.176459">
        <ele>267.676</ele>
        <time>2026-01-25T13:33:45.000Z</time>
      </trkpt>
      <trkpt lon="-83.316035" lat="64.176152">
        <ele>292.043</ele>
        <time>2026-01-25T13:33:48.340Z</time>
      </trkpt>
      <trkpt lon="-83.309459" lat="64.175935">
        <ele>316.767</ele>
        <time>2026-01-25T13:33:52.980Z</time>
      </trkpt>
      <trkpt lon="-83.302920" lat="64.176072">
        <ele>348.84</ele>
        <time>2026-01-25T13:33:57.452Z</time>
      </trkpt>
      <trkpt lon="-83.293985" lat="64.176376">
        <ele>382.284</ele>
        <time>2026-01-25T13:34:03.360Z</time>
      </trkpt>
      <trkpt lon="-83.285736" lat="64.176685">
        <ele>415.229</ele>
        <time>2026-01-25T13:34:08.608Z</time>
      </trkpt>
      <trkpt lon="-83.279231" lat="64.176735">
        <ele>428.994</ele>
        <time>2026-01-25T13:34:12.576Z</time>
      </trkpt>
      <trkpt lon="-83.275988" lat="64.176617">
        <ele>442.927</ele>
        <time>2026-01-25T13:34:14.560Z</time>
      </trkpt>
      <trkpt lon="-83.269607" lat="64.176137">
        <ele>479.469</ele>
        <time>2026-01-25T13:34:18.500Z</time>
      </trkpt>
      <trkpt lon="-83.266401" lat="64.175979">
        <ele>497.879</ele>
        <time>2026-01-25T13:34:20.484Z</time>
      </trkpt>
      <trkpt lon="-83.263170" lat="64.175962">
        <ele>516.159</ele>
        <time>2026-01-25T13:34:22.484Z</time>
      </trkpt>
      <trkpt lon="-83.260015" lat="64.176093">
        <ele>534.461</ele>
        <time>2026-01-25T13:34:24.460Z</time>
      </trkpt>
      <trkpt lon="-83.256975" lat="64.176362">
        <ele>552.41</ele>
        <time>2026-01-25T13:34:26.420Z</time>
      </trkpt>
      <trkpt lon="-83.253986" lat="64.176771">
        <ele>570.484</ele>
        <time>2026-01-25T13:34:28.384Z</time>
      </trkpt>
      <trkpt lon="-83.251180" lat="64.177297">
        <ele>587.986</ele>
        <time>2026-01-25T13:34:30.316Z</time>
      </trkpt>
      <trkpt lon="-83.248400" lat="64.177969">
        <ele>606.102</ele>
        <time>2026-01-25T13:34:32.352Z</time>
      </trkpt>
      <trkpt lon="-83.243392" lat="64.179490">
        <ele>643.413</ele>
        <time>2026-01-25T13:34:36.260Z</time>
      </trkpt>
      <trkpt lon="-83.237895" lat="64.181342">
        <ele>688.203</ele>
        <time>2026-01-25T13:34:40.816Z</time>
      </trkpt>
      <trkpt lon="-83.231712" lat="64.183403">
        <ele>737.037</ele>
        <time>2026-01-25T13:34:46.020Z</time>
      </trkpt>
      <trkpt lon="-83.224746" lat="64.185621">
        <ele>787.504</ele>
        <time>2026-01-25T13:34:51.928Z</time>
      </trkpt>
      <trkpt lon="-83.216983" lat="64.187981">
        <ele>839.921</ele>
        <time>2026-01-25T13:34:58.500Z</time>
      </trkpt>
      <trkpt lon="-83.208288" lat="64.190487">
        <ele>895.949</ele>
        <time>2026-01-25T13:35:05.764Z</time>
      </trkpt>
      <trkpt lon="-83.198771" lat="64.193077">
        <ele>954.903</ele>
        <time>2026-01-25T13:35:13.628Z</time>
      </trkpt>
      <trkpt lon="-83.189054" lat="64.195555">
        <ele>1013.84</ele>
        <time>2026-01-25T13:35:21.572Z</time>
      </trkpt>
      <trkpt lon="-83.184858" lat="64.196446">
        <ele>1037.49</ele>
        <time>2026-01-25T13:35:24.880Z</time>
      </trkpt>
      <trkpt lon="-83.180557" lat="64.197139">
        <ele>1061.06</ele>
        <time>2026-01-25T13:35:28.148Z</time>
      </trkpt>
      <trkpt lon="-83.176089" lat="64.197645">
        <ele>1084.17</ele>
        <time>2026-01-25T13:35:31.440Z</time>
      </trkpt>
      <trkpt lon="-83.164319" lat="64.198336">
        <ele>1144.88</ele>
        <time>2026-01-25T13:35:39.948Z</time>
      </trkpt>
      <trkpt lon="-83.150575" lat="64.198833">
        <ele>1212.97</ele>
        <time>2026-01-25T13:35:49.872Z</time>
      </trkpt>
      <trkpt lon="-83.135003" lat="64.199306">
        <ele>1288.21</ele>
        <time>2026-01-25T13:36:01.192Z</time>
      </trkpt>
      <trkpt lon="-83.118701" lat="64.199771">
        <ele>1366.12</ele>
        <time>2026-01-25T13:36:13.040Z</time>
      </trkpt>
      <trkpt lon="-83.101372" lat="64.200245">
        <ele>1448.46</ele>
        <time>2026-01-25T13:36:25.584Z</time>
      </trkpt>
      <trkpt lon="-83.083217" lat="64.200727">
        <ele>1532.38</ele>
        <time>2026-01-25T13:36:38.668Z</time>
      </trkpt>
      <trkpt lon="-83.063958" lat="64.201246">
        <ele>1620.02</ele>
        <time>2026-01-25T13:36:52.476Z</time>
      </trkpt>
      <trkpt lon="-83.042827" lat="64.201811">
        <ele>1714.72</ele>
        <time>2026-01-25T13:37:07.544Z</time>
      </trkpt>
      <trkpt lon="-83.020721" lat="64.202434">
        <ele>1812.59</ele>
        <time>2026-01-25T13:37:23.332Z</time>
      </trkpt>
      <trkpt lon="-82.997025" lat="64.203170">
        <ele>1914.06</ele>
        <time>2026-01-25T13:37:40.472Z</time>
      </trkpt>
      <trkpt lon="-82.972026" lat="64.204040">
        <ele>2019.7</ele>
        <time>2026-01-25T13:37:58.856Z</time>
      </trkpt>
      <trkpt lon="-82.958254" lat="64.204572">
        <ele>2038.52</ele>
        <time>2026-01-25T13:38:08.672Z</time>
      </trkpt>
      <trkpt lon="-82.947279" lat="64.205033">
        <ele>2036.12</ele>
        <time>2026-01-25T13:38:15.916Z</time>
      </trkpt>
      <trkpt lon="-82.934293" lat="64.205612">
        <ele>2025.97</ele>
        <time>2026-01-25T13:38:23.908Z</time>
      </trkpt>
      <trkpt lon="-82.919542" lat="64.206279">
        <ele>2010.58</ele>
        <time>2026-01-25T13:38:32.408Z</time>
      </trkpt>
      <trkpt lon="-82.898937" lat="64.207219">
        <ele>1993.26</ele>
        <time>2026-01-25T13:38:43.564Z</time>
      </trkpt>
      <trkpt lon="-82.839539" lat="64.210102">
        <ele>1990.31</ele>
        <time>2026-01-25T13:39:13.868Z</time>
      </trkpt>
      <trkpt lon="-82.778040" lat="64.213431">
        <ele>1989.72</ele>
        <time>2026-01-25T13:39:44.268Z</time>
      </trkpt>
      <trkpt lon="-82.715355" lat="64.216907">
        <ele>1990.29</ele>
        <time>2026-01-25T13:40:14.492Z</time>
      </trkpt>
      <trkpt lon="-82.651926" lat="64.220453">
        <ele>1988.96</ele>
        <time>2026-01-25T13:40:44.760Z</time>
      </trkpt>
      <trkpt lon="-82.588276" lat="64.224057">
        <ele>1990.95</ele>
        <time>2026-01-25T13:41:14.960Z</time>
      </trkpt>
      <trkpt lon="-82.524291" lat="64.227712">
        <ele>1989.57</ele>
        <time>2026-01-25T13:41:45.344Z</time>
      </trkpt>
      <trkpt lon="-82.460033" lat="64.231412">
        <ele>1989.88</ele>
        <time>2026-01-25T13:42:15.780Z</time>
      </trkpt>
      <trkpt lon="-82.395482" lat="64.235151">
        <ele>1989.26</ele>
        <time>2026-01-25T13:42:46.292Z</time>
      </trkpt>
      <trkpt lon="-82.331140" lat="64.238638">
        <ele>1989.42</ele>
        <time>2026-01-25T13:43:16.616Z</time>
      </trkpt>
      <trkpt lon="-82.266765" lat="64.240950">
        <ele>1988.35</ele>
        <time>2026-01-25T13:43:46.788Z</time>
      </trkpt>
      <trkpt lon="-82.201799" lat="64.243292">
        <ele>1987.1</ele>
        <time>2026-01-25T13:44:17.204Z</time>
      </trkpt>
      <trkpt lon="-82.136937" lat="64.245639">
        <ele>1990.57</ele>
        <time>2026-01-25T13:44:47.616Z</time>
      </trkpt>
      <trkpt lon="-82.072098" lat="64.248033">
        <ele>1990.88</ele>
        <time>2026-01-25T13:45:18.032Z</time>
      </trkpt>
      <trkpt lon="-82.008029" lat="64.250600">
        <ele>1989.32</ele>
        <time>2026-01-25T13:45:48.252Z</time>
      </trkpt>
      <trkpt lon="-81.944489" lat="64.253566">
        <ele>1986.94</ele>
        <time>2026-01-25T13:46:18.540Z</time>
      </trkpt>
      <trkpt lon="-81.881007" lat="64.256568">
        <ele>1987.71</ele>
        <time>2026-01-25T13:46:48.856Z</time>
      </trkpt>
      <trkpt lon="-81.817227" lat="64.259594">
        <ele>1990.59</ele>
        <time>2026-01-25T13:47:19.276Z</time>
      </trkpt>
      <trkpt lon="-81.753517" lat="64.262654">
        <ele>1989.06</ele>
        <time>2026-01-25T13:47:49.616Z</time>
      </trkpt>
      <trkpt lon="-81.690605" lat="64.265728">
        <ele>1990.17</ele>
        <time>2026-01-25T13:48:19.708Z</time>
      </trkpt>
      <trkpt lon="-81.627087" lat="64.268821">
        <ele>1989.17</ele>
        <time>2026-01-25T13:48:50.012Z</time>
      </trkpt>
      <trkpt lon="-81.564022" lat="64.271963">
        <ele>1990.17</ele>
        <time>2026-01-25T13:49:20.224Z</time>
      </trkpt>
      <trkpt lon="-81.500530" lat="64.274943">
        <ele>1990.38</ele>
        <time>2026-01-25T13:49:50.448Z</time>
      </trkpt>
      <trkpt lon="-81.436275" lat="64.277161">
        <ele>1987.86</ele>
        <time>2026-01-25T13:50:21.088Z</time>
      </trkpt>
      <trkpt lon="-81.371827" lat="64.279412">
        <ele>1990.8</ele>
        <time>2026-01-25T13:50:51.652Z</time>
      </trkpt>
      <trkpt lon="-81.355114" lat="64.279759">
        <ele>1988.64</ele>
        <time>2026-01-25T13:50:59.616Z</time>
      </trkpt>
      <trkpt lon="-81.331724" lat="64.279136">
        <ele>1988.36</ele>
        <time>2026-01-25T13:51:10.708Z</time>
      </trkpt>
      <trkpt lon="-81.293558" lat="64.276767">
        <ele>1988.55</ele>
        <time>2026-01-25T13:51:29.112Z</time>
      </trkpt>
      <trkpt lon="-81.230535" lat="64.271069">
        <ele>1985.06</ele>
        <time>2026-01-25T13:51:59.520Z</time>
      </trkpt>
      <trkpt lon="-81.166721" lat="64.265766">
        <ele>1988.99</ele>
        <time>2026-01-25T13:52:30.140Z</time>
      </trkpt>
      <trkpt lon="-81.109881" lat="64.261115">
        <ele>1980.54</ele>
        <time>2026-01-25T13:52:57.576Z</time>
      </trkpt>
      <trkpt lon="-81.102864" lat="64.260970">
        <ele>1981.15</ele>
        <time>2026-01-25T13:53:00.892Z</time>
      </trkpt>
      <trkpt lon="-81.089160" lat="64.261339">
        <ele>1985.42</ele>
        <time>2026-01-25T13:53:07.380Z</time>
      </trkpt>
      <trkpt lon="-81.025788" lat="64.265017">
        <ele>1988.8</ele>
        <time>2026-01-25T13:53:37.640Z</time>
      </trkpt>
      <trkpt lon="-80.962716" lat="64.268933">
        <ele>1988.32</ele>
        <time>2026-01-25T13:54:07.952Z</time>
      </trkpt>
      <trkpt lon="-80.898953" lat="64.272934">
        <ele>1987.31</ele>
        <time>2026-01-25T13:54:38.332Z</time>
      </trkpt>
      <trkpt lon="-80.836237" lat="64.276888">
        <ele>1989.7</ele>
        <time>2026-01-25T13:55:08.496Z</time>
      </trkpt>
      <trkpt lon="-80.772882" lat="64.280927">
        <ele>1988.39</ele>
        <time>2026-01-25T13:55:38.800Z</time>
      </trkpt>
      <trkpt lon="-80.709955" lat="64.284968">
        <ele>1987.1</ele>
        <time>2026-01-25T13:56:09.032Z</time>
      </trkpt>
      <trkpt lon="-80.646507" lat="64.289107">
        <ele>1988.7</ele>
        <time>2026-01-25T13:56:39.364Z</time>
      </trkpt>
      <trkpt lon="-80.583405" lat="64.293227">
        <ele>1990.06</ele>
        <time>2026-01-25T13:57:09.572Z</time>
      </trkpt>
      <trkpt lon="-80.520540" lat="64.297328">
        <ele>1989.08</ele>
        <time>2026-01-25T13:57:39.696Z</time>
      </trkpt>
      <trkpt lon="-80.457632" lat="64.301486">
        <ele>1988.95</ele>
        <time>2026-01-25T13:58:09.816Z</time>
      </trkpt>
      <trkpt lon="-80.394591" lat="64.305779">
        <ele>1988.22</ele>
        <time>2026-01-25T13:58:40.184Z</time>
      </trkpt>
      <trkpt lon="-80.331507" lat="64.310223">
        <ele>1989.03</ele>
        <time>2026-01-25T13:59:10.488Z</time>
      </trkpt>
      <trkpt lon="-80.268571" lat="64.314724">
        <ele>1986.44</ele>
        <time>2026-01-25T13:59:40.912Z</time>
      </trkpt>
      <trkpt lon="-80.205450" lat="64.319264">
        <ele>1987.54</ele>
        <time>2026-01-25T14:00:11.204Z</time>
      </trkpt>
      <trkpt lon="-80.142801" lat="64.323812">
        <ele>1989.07</ele>
        <time>2026-01-25T14:00:41.492Z</time>
      </trkpt>
      <trkpt lon="-80.079848" lat="64.328359">
        <ele>1988.11</ele>
        <time>2026-01-25T14:01:11.684Z</time>
      </trkpt>
      <trkpt lon="-80.017186" lat="64.332962">
        <ele>1987.92</ele>
        <time>2026-01-25T14:01:42.000Z</time>
      </trkpt>
      <trkpt lon="-79.954518" lat="64.337583">
        <ele>1987.38</ele>
        <time>2026-01-25T14:02:12.156Z</time>
      </trkpt>
      <trkpt lon="-79.891523" lat="64.341424">
        <ele>1988.13</ele>
        <time>2026-01-25T14:02:42.328Z</time>
      </trkpt>
      <trkpt lon="-79.828279" lat="64.345079">
        <ele>1987.25</ele>
        <time>2026-01-25T14:03:12.624Z</time>
      </trkpt>
      <trkpt lon="-79.764992" lat="64.348775">
        <ele>1988.2</ele>
        <time>2026-01-25T14:03:42.920Z</time>
      </trkpt>
      <trkpt lon="-79.702019" lat="64.352514">
        <ele>1988.51</ele>
        <time>2026-01-25T14:04:13.192Z</time>
      </trkpt>
      <trkpt lon="-79.638088" lat="64.356329">
        <ele>1987.49</ele>
        <time>2026-01-25T14:04:43.688Z</time>
      </trkpt>
      <trkpt lon="-79.575005" lat="64.359473">
        <ele>1988.29</ele>
        <time>2026-01-25T14:05:14.016Z</time>
      </trkpt>
      <trkpt lon="-79.511706" lat="64.361736">
        <ele>1986.02</ele>
        <time>2026-01-25T14:05:44.376Z</time>
      </trkpt>
      <trkpt lon="-79.449381" lat="64.362435">
        <ele>1985.21</ele>
        <time>2026-01-25T14:06:14.496Z</time>
      </trkpt>
      <trkpt lon="-79.386107" lat="64.362745">
        <ele>1986.78</ele>
        <time>2026-01-25T14:06:44.844Z</time>
      </trkpt>
      <trkpt lon="-79.323629" lat="64.362770">
        <ele>1984.3</ele>
        <time>2026-01-25T14:07:15.072Z</time>
      </trkpt>
      <trkpt lon="-79.260907" lat="64.362622">
        <ele>1989.6</ele>
        <time>2026-01-25T14:07:45.368Z</time>
      </trkpt>
      <trkpt lon="-79.198238" lat="64.362478">
        <ele>1989.87</ele>
        <time>2026-01-25T14:08:15.600Z</time>
      </trkpt>
      <trkpt lon="-79.137938" lat="64.362333">
        <ele>1989.07</ele>
        <time>2026-01-25T14:08:45.976Z</time>
      </trkpt>
      <trkpt lon="-79.131358" lat="64.362303">
        <ele>1987.51</ele>
        <time>2026-01-25T11:52:53.232Z</time>
      </trkpt>
      <trkpt lon="-79.067604" lat="64.362258">
        <ele>1989.42</ele>
        <time>2026-01-25T11:53:23.608Z</time>
      </trkpt>
      <trkpt lon="-79.005277" lat="64.362155">
        <ele>1988.59</ele>
        <time>2026-01-25T11:53:53.688Z</time>
      </trkpt>
      <trkpt lon="-78.950518" lat="64.361146">
        <ele>1986.59</ele>
        <time>2026-01-25T11:54:19.928Z</time>
      </trkpt>
      <trkpt lon="-78.888485" lat="64.358607">
        <ele>1986.99</ele>
        <time>2026-01-25T11:54:50.024Z</time>
      </trkpt>
      <trkpt lon="-78.825854" lat="64.356073">
        <ele>1985.6</ele>
        <time>2026-01-25T11:55:20.364Z</time>
      </trkpt>
      <trkpt lon="-78.762766" lat="64.353542">
        <ele>1988.12</ele>
        <time>2026-01-25T11:55:50.856Z</time>
      </trkpt>
      <trkpt lon="-78.701792" lat="64.351086">
        <ele>1989.83</ele>
        <time>2026-01-25T11:56:21.072Z</time>
      </trkpt>
      <trkpt lon="-78.639673" lat="64.348649">
        <ele>1990.16</ele>
        <time>2026-01-25T11:56:51.444Z</time>
      </trkpt>
      <trkpt lon="-78.577791" lat="64.346203">
        <ele>1988.95</ele>
        <time>2026-01-25T11:57:21.880Z</time>
      </trkpt>
      <trkpt lon="-78.516520" lat="64.343819">
        <ele>1988.02</ele>
        <time>2026-01-25T11:57:52.184Z</time>
      </trkpt>
      <trkpt lon="-78.454561" lat="64.341447">
        <ele>1990.35</ele>
        <time>2026-01-25T11:58:22.368Z</time>
      </trkpt>
      <trkpt lon="-78.393414" lat="64.339071">
        <ele>1988.12</ele>
        <time>2026-01-25T11:58:52.628Z</time>
      </trkpt>
      <trkpt lon="-78.331667" lat="64.336745">
        <ele>1985.6</ele>
        <time>2026-01-25T11:59:22.920Z</time>
      </trkpt>
      <trkpt lon="-78.270043" lat="64.334439">
        <ele>1990.04</ele>
        <time>2026-01-25T11:59:53.156Z</time>
      </trkpt>
      <trkpt lon="-78.209233" lat="64.332153">
        <ele>1987.2</ele>
        <time>2026-01-25T12:00:23.376Z</time>
      </trkpt>
      <trkpt lon="-78.147510" lat="64.329831">
        <ele>1993.55</ele>
        <time>2026-01-25T12:00:53.548Z</time>
      </trkpt>
      <trkpt lon="-78.085802" lat="64.327541">
        <ele>1985.94</ele>
        <time>2026-01-25T12:01:23.880Z</time>
      </trkpt>
      <trkpt lon="-78.035353" lat="64.324816">
        <ele>1989.36</ele>
        <time>2026-01-25T12:01:48.888Z</time>
      </trkpt>
      <trkpt lon="-77.973686" lat="64.320058">
        <ele>1985.6</ele>
        <time>2026-01-25T12:02:19.192Z</time>
      </trkpt>
      <trkpt lon="-77.912964" lat="64.315091">
        <ele>1988.4</ele>
        <time>2026-01-25T12:02:49.552Z</time>
      </trkpt>
      <trkpt lon="-77.852965" lat="64.310187">
        <ele>1988.26</ele>
        <time>2026-01-25T12:03:19.724Z</time>
      </trkpt>
      <trkpt lon="-77.791829" lat="64.305309">
        <ele>1992.36</ele>
        <time>2026-01-25T12:03:50.088Z</time>
      </trkpt>
      <trkpt lon="-77.731591" lat="64.300442">
        <ele>1990.64</ele>
        <time>2026-01-25T12:04:20.276Z</time>
      </trkpt>
      <trkpt lon="-77.671605" lat="64.295584">
        <ele>1990.38</ele>
        <time>2026-01-25T12:04:50.516Z</time>
      </trkpt>
      <trkpt lon="-77.610423" lat="64.290799">
        <ele>1988.35</ele>
        <time>2026-01-25T12:05:20.760Z</time>
      </trkpt>
      <trkpt lon="-77.549647" lat="64.285980">
        <ele>1988.49</ele>
        <time>2026-01-25T12:05:51.096Z</time>
      </trkpt>
      <trkpt lon="-77.489105" lat="64.281194">
        <ele>1988.48</ele>
        <time>2026-01-25T12:06:21.384Z</time>
      </trkpt>
      <trkpt lon="-77.427731" lat="64.276406">
        <ele>1988.71</ele>
        <time>2026-01-25T12:06:51.716Z</time>
      </trkpt>
      <trkpt lon="-77.367123" lat="64.271679">
        <ele>1989.32</ele>
        <time>2026-01-25T12:07:21.992Z</time>
      </trkpt>
      <trkpt lon="-77.306911" lat="64.266944">
        <ele>1991.65</ele>
        <time>2026-01-25T12:07:52.392Z</time>
      </trkpt>
      <trkpt lon="-77.246098" lat="64.262228">
        <ele>1989.35</ele>
        <time>2026-01-25T12:08:22.592Z</time>
      </trkpt>
      <trkpt lon="-77.185263" lat="64.257497">
        <ele>1988.61</ele>
        <time>2026-01-25T12:08:52.856Z</time>
      </trkpt>
      <trkpt lon="-77.125403" lat="64.252740">
        <ele>1988.08</ele>
        <time>2026-01-25T12:09:22.992Z</time>
      </trkpt>
      <trkpt lon="-77.064180" lat="64.248017">
        <ele>1989.25</ele>
        <time>2026-01-25T12:09:53.324Z</time>
      </trkpt>
      <trkpt lon="-77.003415" lat="64.243334">
        <ele>1988.38</ele>
        <time>2026-01-25T12:10:23.524Z</time>
      </trkpt>
      <trkpt lon="-76.978336" lat="64.241951">
        <ele>1987.51</ele>
        <time>2026-01-25T12:10:36.040Z</time>
      </trkpt>
      <trkpt lon="-76.916812" lat="64.240220">
        <ele>1988.11</ele>
        <time>2026-01-25T12:11:06.396Z</time>
      </trkpt>
      <trkpt lon="-76.855155" lat="64.238616">
        <ele>1989.47</ele>
        <time>2026-01-25T12:11:36.584Z</time>
      </trkpt>
      <trkpt lon="-76.794603" lat="64.236997">
        <ele>1989.22</ele>
        <time>2026-01-25T12:12:06.792Z</time>
      </trkpt>
      <trkpt lon="-76.734084" lat="64.235437">
        <ele>1991.27</ele>
        <time>2026-01-25T12:12:37.016Z</time>
      </trkpt>
      <trkpt lon="-76.673448" lat="64.233855">
        <ele>1988.31</ele>
        <time>2026-01-25T12:13:07.276Z</time>
      </trkpt>
      <trkpt lon="-76.612308" lat="64.232338">
        <ele>1988.81</ele>
        <time>2026-01-25T12:13:37.636Z</time>
      </trkpt>
      <trkpt lon="-76.550484" lat="64.230850">
        <ele>1988.58</ele>
        <time>2026-01-25T12:14:08.028Z</time>
      </trkpt>
      <trkpt lon="-76.489324" lat="64.229391">
        <ele>1990.89</ele>
        <time>2026-01-25T12:14:38.196Z</time>
      </trkpt>
      <trkpt lon="-76.427043" lat="64.228016">
        <ele>1989.42</ele>
        <time>2026-01-25T12:15:08.300Z</time>
      </trkpt>
      <trkpt lon="-76.366017" lat="64.226778">
        <ele>1982.68</ele>
        <time>2026-01-25T12:15:38.684Z</time>
      </trkpt>
      <trkpt lon="-76.362041" lat="64.226697">
        <ele>1983.44</ele>
        <time>2026-01-25T11:41:00.016Z</time>
      </trkpt>
      <trkpt lon="-76.360687" lat="64.226670">
        <ele>1983.8</ele>
        <time>2026-01-25T12:24:00.016Z</time>
      </trkpt>
      <trkpt lon="-76.359343" lat="64.226643">
        <ele>1984.14</ele>
        <time>2026-01-25T13:41:00.012Z</time>
      </trkpt>
      <trkpt lon="-76.357987" lat="64.226616">
        <ele>1984.46</ele>
        <time>2026-01-25T13:29:00.016Z</time>
      </trkpt>
      <trkpt lon="-76.345786" lat="64.226381">
        <ele>1987.03</ele>
        <time>2026-01-25T12:15:48.572Z</time>
      </trkpt>
      <trkpt lon="-76.340357" lat="64.226275">
        <ele>1989.15</ele>
        <time>2026-01-25T16:48:00.016Z</time>
      </trkpt>
      <trkpt lon="-76.337579" lat="64.226222">
        <ele>1990.49</ele>
        <time>2026-01-25T13:18:00.012Z</time>
      </trkpt>
      <trkpt lon="-76.274203" lat="64.224907">
        <ele>1989.43</ele>
        <time>2026-01-25T13:18:30.152Z</time>
      </trkpt>
      <trkpt lon="-76.272838" lat="64.224876">
        <ele>1989.29</ele>
        <time>2026-01-25T12:16:23.596Z</time>
      </trkpt>
      <trkpt lon="-76.209957" lat="64.223500">
        <ele>1984.27</ele>
        <time>2026-01-25T12:16:54.160Z</time>
      </trkpt>
      <trkpt lon="-76.148019" lat="64.222094">
        <ele>2002.81</ele>
        <time>2026-01-25T12:17:24.392Z</time>
      </trkpt>
      <trkpt lon="-76.085481" lat="64.220927">
        <ele>1986.32</ele>
        <time>2026-01-25T12:17:54.720Z</time>
      </trkpt>
      <trkpt lon="-76.034137" lat="64.219530">
        <ele>1986.81</ele>
        <time>2026-01-25T12:18:19.796Z</time>
      </trkpt>
      <trkpt lon="-75.971751" lat="64.215355">
        <ele>1986.83</ele>
        <time>2026-01-25T12:18:50.044Z</time>
      </trkpt>
      <trkpt lon="-75.910581" lat="64.211056">
        <ele>1986.8</ele>
        <time>2026-01-25T12:19:20.200Z</time>
      </trkpt>
      <trkpt lon="-75.885632" lat="64.208824">
        <ele>1984.67</ele>
        <time>2026-01-25T12:19:32.692Z</time>
      </trkpt>
      <trkpt lon="-75.856845" lat="64.205243">
        <ele>1986.51</ele>
        <time>2026-01-25T12:19:47.168Z</time>
      </trkpt>
      <trkpt lon="-75.806554" lat="64.197815">
        <ele>1987.08</ele>
        <time>2026-01-25T12:20:13.036Z</time>
      </trkpt>
      <trkpt lon="-75.745756" lat="64.190992">
        <ele>1987.75</ele>
        <time>2026-01-25T12:20:43.192Z</time>
      </trkpt>
      <trkpt lon="-75.684872" lat="64.184092">
        <ele>1985.04</ele>
        <time>2026-01-25T12:21:13.832Z</time>
      </trkpt>
      <trkpt lon="-75.624945" lat="64.177301">
        <ele>1983.88</ele>
        <time>2026-01-25T12:21:44.112Z</time>
      </trkpt>
      <trkpt lon="-75.605281" lat="64.174918">
        <ele>1982.99</ele>
        <time>2026-01-25T12:21:54.048Z</time>
      </trkpt>
      <trkpt lon="-75.600154" lat="64.174023">
        <ele>1981</ele>
        <time>2026-01-25T12:21:56.696Z</time>
      </trkpt>
      <trkpt lon="-75.595272" lat="64.172925">
        <ele>1981.38</ele>
        <time>2026-01-25T12:21:59.308Z</time>
      </trkpt>
      <trkpt lon="-75.589510" lat="64.171268">
        <ele>1984</ele>
        <time>2026-01-25T12:22:02.596Z</time>
      </trkpt>
      <trkpt lon="-75.579910" lat="64.167762">
        <ele>1984.37</ele>
        <time>2026-01-25T12:22:08.536Z</time>
      </trkpt>
      <trkpt lon="-75.534346" lat="64.147964">
        <ele>1984.65</ele>
        <time>2026-01-25T12:22:38.588Z</time>
      </trkpt>
      <trkpt lon="-75.490644" lat="64.127672">
        <ele>1982.8</ele>
        <time>2026-01-25T12:23:08.736Z</time>
      </trkpt>
      <trkpt lon="-75.459458" lat="64.113185">
        <ele>1985.48</ele>
        <time>2026-01-25T12:23:30.300Z</time>
      </trkpt>
      <trkpt lon="-75.455212" lat="64.111683">
        <ele>1984.86</ele>
        <time>2026-01-25T12:23:32.880Z</time>
      </trkpt>
      <trkpt lon="-75.450504" lat="64.110326">
        <ele>1986.83</ele>
        <time>2026-01-25T12:23:35.544Z</time>
      </trkpt>
      <trkpt lon="-75.444386" lat="64.108953">
        <ele>1988.17</ele>
        <time>2026-01-25T12:23:38.812Z</time>
      </trkpt>
      <trkpt lon="-75.436705" lat="64.107660">
        <ele>1986.27</ele>
        <time>2026-01-25T12:23:42.728Z</time>
      </trkpt>
      <trkpt lon="-75.375814" lat="64.100769">
        <ele>1981.62</ele>
        <time>2026-01-25T12:24:12.824Z</time>
      </trkpt>
      <trkpt lon="-75.314297" lat="64.094272">
        <ele>1984.46</ele>
        <time>2026-01-25T12:24:43.324Z</time>
      </trkpt>
      <trkpt lon="-75.254611" lat="64.087884">
        <ele>1981.29</ele>
        <time>2026-01-25T12:25:13.380Z</time>
      </trkpt>
      <trkpt lon="-75.193827" lat="64.081501">
        <ele>1982.6</ele>
        <time>2026-01-25T12:25:43.716Z</time>
      </trkpt>
      <trkpt lon="-75.132301" lat="64.075168">
        <ele>1984.21</ele>
        <time>2026-01-25T12:26:14.068Z</time>
      </trkpt>
      <trkpt lon="-75.072003" lat="64.068842">
        <ele>1982.7</ele>
        <time>2026-01-25T12:26:44.388Z</time>
      </trkpt>
      <trkpt lon="-75.011973" lat="64.062577">
        <ele>1982.66</ele>
        <time>2026-01-25T12:27:14.692Z</time>
      </trkpt>
      <trkpt lon="-74.961307" lat="64.057091">
        <ele>1983.49</ele>
        <time>2026-01-25T12:27:40.160Z</time>
      </trkpt>
      <trkpt lon="-74.904130" lat="64.046806">
        <ele>1984.8</ele>
        <time>2026-01-25T12:28:10.472Z</time>
      </trkpt>
      <trkpt lon="-74.847827" lat="64.035899">
        <ele>1980.85</ele>
        <time>2026-01-25T12:28:40.564Z</time>
      </trkpt>
      <trkpt lon="-74.792755" lat="64.024697">
        <ele>1982.83</ele>
        <time>2026-01-25T12:29:10.864Z</time>
      </trkpt>
      <trkpt lon="-74.736274" lat="64.013742">
        <ele>1982.61</ele>
        <time>2026-01-25T12:29:41.004Z</time>
      </trkpt>
      <trkpt lon="-74.679649" lat="64.002740">
        <ele>1984.15</ele>
        <time>2026-01-25T12:30:11.308Z</time>
      </trkpt>
      <trkpt lon="-74.622448" lat="63.991840">
        <ele>1980.42</ele>
        <time>2026-01-25T12:30:41.532Z</time>
      </trkpt>
      <trkpt lon="-74.565788" lat="63.980742">
        <ele>1981.44</ele>
        <time>2026-01-25T12:31:11.840Z</time>
      </trkpt>
      <trkpt lon="-74.509194" lat="63.969614">
        <ele>1980.8</ele>
        <time>2026-01-25T12:31:42.200Z</time>
      </trkpt>
      <trkpt lon="-74.452927" lat="63.958328">
        <ele>1979.66</ele>
        <time>2026-01-25T12:32:12.720Z</time>
      </trkpt>
      <trkpt lon="-74.396198" lat="63.947287">
        <ele>1980.44</ele>
        <time>2026-01-25T12:32:42.980Z</time>
      </trkpt>
      <trkpt lon="-74.338495" lat="63.936305">
        <ele>1981.55</ele>
        <time>2026-01-25T12:33:13.328Z</time>
      </trkpt>
      <trkpt lon="-74.281263" lat="63.925314">
        <ele>1982.28</ele>
        <time>2026-01-25T12:33:43.560Z</time>
      </trkpt>
      <trkpt lon="-74.224518" lat="63.914282">
        <ele>1982.15</ele>
        <time>2026-01-25T12:34:13.792Z</time>
      </trkpt>
      <trkpt lon="-74.168927" lat="63.903054">
        <ele>1980</ele>
        <time>2026-01-25T12:34:43.876Z</time>
      </trkpt>
      <trkpt lon="-74.113388" lat="63.891031">
        <ele>1978.54</ele>
        <time>2026-01-25T12:35:13.972Z</time>
      </trkpt>
      <trkpt lon="-74.057364" lat="63.878925">
        <ele>1978.04</ele>
        <time>2026-01-25T12:35:44.344Z</time>
      </trkpt>
      <trkpt lon="-74.000796" lat="63.867216">
        <ele>1979.56</ele>
        <time>2026-01-25T12:36:14.500Z</time>
      </trkpt>
      <trkpt lon="-73.943895" lat="63.855375">
        <ele>1978.14</ele>
        <time>2026-01-25T12:36:44.856Z</time>
      </trkpt>
      <trkpt lon="-73.887724" lat="63.843345">
        <ele>1977.54</ele>
        <time>2026-01-25T12:37:15.220Z</time>
      </trkpt>
      <trkpt lon="-73.832606" lat="63.831060">
        <ele>1977.98</ele>
        <time>2026-01-25T12:37:45.520Z</time>
      </trkpt>
      <trkpt lon="-73.778062" lat="63.818767">
        <ele>1978.55</ele>
        <time>2026-01-25T12:38:15.692Z</time>
      </trkpt>
      <trkpt lon="-73.724525" lat="63.807526">
        <ele>1982.15</ele>
        <time>2026-01-25T12:38:44.524Z</time>
      </trkpt>
      <trkpt lon="-73.711718" lat="63.805675">
        <ele>1977.93</ele>
        <time>2026-01-25T12:38:51.148Z</time>
      </trkpt>
      <trkpt lon="-73.694677" lat="63.803957">
        <ele>1978.78</ele>
        <time>2026-01-25T12:38:59.692Z</time>
      </trkpt>
      <trkpt lon="-73.674611" lat="63.803135">
        <ele>1977.7</ele>
        <time>2026-01-25T12:39:09.576Z</time>
      </trkpt>
      <trkpt lon="-73.613922" lat="63.802035">
        <ele>1978.95</ele>
        <time>2026-01-25T12:39:39.852Z</time>
      </trkpt>
      <trkpt lon="-73.554198" lat="63.800873">
        <ele>1977.65</ele>
        <time>2026-01-25T12:40:10.124Z</time>
      </trkpt>
      <trkpt lon="-73.493396" lat="63.800105">
        <ele>1976.48</ele>
        <time>2026-01-25T12:40:40.416Z</time>
      </trkpt>
      <trkpt lon="-73.433708" lat="63.799008">
        <ele>1976.71</ele>
        <time>2026-01-25T12:41:10.660Z</time>
      </trkpt>
      <trkpt lon="-73.373113" lat="63.798177">
        <ele>1976.4</ele>
        <time>2026-01-25T12:41:40.856Z</time>
      </trkpt>
      <trkpt lon="-73.313168" lat="63.797121">
        <ele>1978.14</ele>
        <time>2026-01-25T12:42:11.132Z</time>
      </trkpt>
      <trkpt lon="-73.252691" lat="63.796107">
        <ele>1976.06</ele>
        <time>2026-01-25T12:42:41.500Z</time>
      </trkpt>
      <trkpt lon="-73.192171" lat="63.795202">
        <ele>1977.96</ele>
        <time>2026-01-25T12:43:11.720Z</time>
      </trkpt>
      <trkpt lon="-73.132074" lat="63.794127">
        <ele>1977.62</ele>
        <time>2026-01-25T12:43:42.120Z</time>
      </trkpt>
      <trkpt lon="-73.070722" lat="63.792326">
        <ele>1978.44</ele>
        <time>2026-01-25T12:44:12.596Z</time>
      </trkpt>
      <trkpt lon="-73.010438" lat="63.790088">
        <ele>1977.28</ele>
        <time>2026-01-25T12:44:42.832Z</time>
      </trkpt>
      <trkpt lon="-72.949949" lat="63.788133">
        <ele>1977.91</ele>
        <time>2026-01-25T12:45:13.116Z</time>
      </trkpt>
      <trkpt lon="-72.888752" lat="63.786419">
        <ele>1978.14</ele>
        <time>2026-01-25T12:45:43.460Z</time>
      </trkpt>
      <trkpt lon="-72.839780" lat="63.784690">
        <ele>1875.9</ele>
        <time>2026-01-25T12:46:07.860Z</time>
      </trkpt>
      <trkpt lon="-72.808912" lat="63.783747">
        <ele>1776.95</ele>
        <time>2026-01-25T12:46:22.900Z</time>
      </trkpt>
      <trkpt lon="-72.783609" lat="63.783105">
        <ele>1680.68</ele>
        <time>2026-01-25T12:46:35.496Z</time>
      </trkpt>
      <trkpt lon="-72.761472" lat="63.782480">
        <ele>1591</ele>
        <time>2026-01-25T12:46:46.728Z</time>
      </trkpt>
      <trkpt lon="-72.740646" lat="63.781880">
        <ele>1507.23</ele>
        <time>2026-01-25T12:46:57.260Z</time>
      </trkpt>
      <trkpt lon="-72.718969" lat="63.781073">
        <ele>1425.51</ele>
        <time>2026-01-25T12:47:08.288Z</time>
      </trkpt>
      <trkpt lon="-72.698108" lat="63.780173">
        <ele>1345.7</ele>
        <time>2026-01-25T12:47:18.888Z</time>
      </trkpt>
      <trkpt lon="-72.676720" lat="63.779414">
        <ele>1269.92</ele>
        <time>2026-01-25T12:47:29.424Z</time>
      </trkpt>
      <trkpt lon="-72.655440" lat="63.778443">
        <ele>1199.69</ele>
        <time>2026-01-25T12:47:39.832Z</time>
      </trkpt>
      <trkpt lon="-72.592138" lat="63.775687">
        <ele>1163.08</ele>
        <time>2026-01-25T12:48:10.092Z</time>
      </trkpt>
      <trkpt lon="-72.530819" lat="63.772503">
        <ele>1181.9</ele>
        <time>2026-01-25T12:48:40.400Z</time>
      </trkpt>
      <trkpt lon="-72.470301" lat="63.769514">
        <ele>1185.19</ele>
        <time>2026-01-25T12:49:10.724Z</time>
      </trkpt>
      <trkpt lon="-72.415063" lat="63.766849">
        <ele>1119.06</ele>
        <time>2026-01-25T12:49:39.028Z</time>
      </trkpt>
      <trkpt lon="-72.392722" lat="63.765396">
        <ele>1056.21</ele>
        <time>2026-01-25T12:49:50.260Z</time>
      </trkpt>
      <trkpt lon="-72.372770" lat="63.763906">
        <ele>1014.52</ele>
        <time>2026-01-25T12:50:00.148Z</time>
      </trkpt>
      <trkpt lon="-72.362238" lat="63.762680">
        <ele>991.201</ele>
        <time>2026-01-25T12:50:05.420Z</time>
      </trkpt>
      <trkpt lon="-72.343305" lat="63.759633">
        <ele>961.352</ele>
        <time>2026-01-25T12:50:15.116Z</time>
      </trkpt>
      <trkpt lon="-72.333036" lat="63.757850">
        <ele>978.571</ele>
        <time>2026-01-25T12:50:20.436Z</time>
      </trkpt>
      <trkpt lon="-72.316423" lat="63.755912">
        <ele>986.145</ele>
        <time>2026-01-25T12:50:29.080Z</time>
      </trkpt>
      <trkpt lon="-72.262013" lat="63.747087">
        <ele>1019.43</ele>
        <time>2026-01-25T12:50:59.288Z</time>
      </trkpt>
      <trkpt lon="-72.205910" lat="63.737572">
        <ele>1053.77</ele>
        <time>2026-01-25T12:51:29.560Z</time>
      </trkpt>
      <trkpt lon="-72.147996" lat="63.729492">
        <ele>1087.23</ele>
        <time>2026-01-25T12:51:59.820Z</time>
      </trkpt>
      <trkpt lon="-72.104770" lat="63.724216">
        <ele>1111.62</ele>
        <time>2026-01-25T12:52:22.340Z</time>
      </trkpt>
      <trkpt lon="-72.099589" lat="63.723872">
        <ele>1114.91</ele>
        <time>2026-01-25T12:52:24.956Z</time>
      </trkpt>
      <trkpt lon="-72.091854" lat="63.723760">
        <ele>1117.16</ele>
        <time>2026-01-25T12:52:28.872Z</time>
      </trkpt>
      <trkpt lon="-72.080266" lat="63.724222">
        <ele>1123.65</ele>
        <time>2026-01-25T12:52:34.816Z</time>
      </trkpt>
      <trkpt lon="-72.052775" lat="63.726533">
        <ele>1133.9</ele>
        <time>2026-01-25T12:52:49.312Z</time>
      </trkpt>
      <trkpt lon="-72.023680" lat="63.729906">
        <ele>1148.69</ele>
        <time>2026-01-25T12:53:05.196Z</time>
      </trkpt>
      <trkpt lon="-71.970006" lat="63.738176">
        <ele>1170.85</ele>
        <time>2026-01-25T12:53:35.524Z</time>
      </trkpt>
      <trkpt lon="-71.936861" lat="63.743137">
        <ele>1184.46</ele>
        <time>2026-01-25T12:53:54.420Z</time>
      </trkpt>
      <trkpt lon="-71.928616" lat="63.743750">
        <ele>1184.47</ele>
        <time>2026-01-25T12:53:58.980Z</time>
      </trkpt>
      <trkpt lon="-71.871734" lat="63.745503">
        <ele>1186.29</ele>
        <time>2026-01-25T12:54:29.332Z</time>
      </trkpt>
      <trkpt lon="-71.813818" lat="63.749447">
        <ele>1178.99</ele>
        <time>2026-01-25T12:54:59.836Z</time>
      </trkpt>
      <trkpt lon="-71.756175" lat="63.755055">
        <ele>1181.07</ele>
        <time>2026-01-25T12:55:30.496Z</time>
      </trkpt>
      <trkpt lon="-71.699732" lat="63.761452">
        <ele>1181.48</ele>
        <time>2026-01-25T12:56:00.680Z</time>
      </trkpt>
      <trkpt lon="-71.642578" lat="63.768086">
        <ele>1181.7</ele>
        <time>2026-01-25T12:56:31.176Z</time>
      </trkpt>
      <trkpt lon="-71.585829" lat="63.773718">
        <ele>1180.57</ele>
        <time>2026-01-25T12:57:01.272Z</time>
      </trkpt>
      <trkpt lon="-71.527895" lat="63.777825">
        <ele>1181.66</ele>
        <time>2026-01-25T12:57:31.428Z</time>
      </trkpt>
      <trkpt lon="-71.468517" lat="63.779872">
        <ele>1180.17</ele>
        <time>2026-01-25T12:58:01.604Z</time>
      </trkpt>
      <trkpt lon="-71.407846" lat="63.779824">
        <ele>1179.64</ele>
        <time>2026-01-25T12:58:32.240Z</time>
      </trkpt>
      <trkpt lon="-71.347819" lat="63.777794">
        <ele>1180.03</ele>
        <time>2026-01-25T12:59:02.504Z</time>
      </trkpt>
      <trkpt lon="-71.288023" lat="63.773967">
        <ele>1181.08</ele>
        <time>2026-01-25T12:59:32.888Z</time>
      </trkpt>
      <trkpt lon="-71.228388" lat="63.769057">
        <ele>1179.45</ele>
        <time>2026-01-25T13:00:03.124Z</time>
      </trkpt>
      <trkpt lon="-71.168913" lat="63.763701">
        <ele>1183.98</ele>
        <time>2026-01-25T13:00:33.368Z</time>
      </trkpt>
      <trkpt lon="-71.109149" lat="63.758599">
        <ele>1183.12</ele>
        <time>2026-01-25T13:01:03.588Z</time>
      </trkpt>
      <trkpt lon="-71.048996" lat="63.754614">
        <ele>1181.27</ele>
        <time>2026-01-25T13:01:33.944Z</time>
      </trkpt>
      <trkpt lon="-70.989722" lat="63.751928">
        <ele>1173.03</ele>
        <time>2026-01-25T13:02:04.508Z</time>
      </trkpt>
      <trkpt lon="-70.930631" lat="63.750866">
        <ele>1173.33</ele>
        <time>2026-01-25T13:02:35.104Z</time>
      </trkpt>
      <trkpt lon="-70.872468" lat="63.751426">
        <ele>1175.36</ele>
        <time>2026-01-25T13:03:05.476Z</time>
      </trkpt>
      <trkpt lon="-70.814524" lat="63.753265">
        <ele>1174.25</ele>
        <time>2026-01-25T13:03:35.824Z</time>
      </trkpt>
      <trkpt lon="-70.757835" lat="63.755797">
        <ele>1175.35</ele>
        <time>2026-01-25T13:04:05.980Z</time>
      </trkpt>
      <trkpt lon="-70.700824" lat="63.758626">
        <ele>1172.51</ele>
        <time>2026-01-25T13:04:36.368Z</time>
      </trkpt>
      <trkpt lon="-70.643633" lat="63.761179">
        <ele>1179.47</ele>
        <time>2026-01-25T13:05:06.828Z</time>
      </trkpt>
      <trkpt lon="-70.586463" lat="63.762825">
        <ele>1176.12</ele>
        <time>2026-01-25T13:05:37.156Z</time>
      </trkpt>
      <trkpt lon="-70.528857" lat="63.763328">
        <ele>1193.09</ele>
        <time>2026-01-25T13:06:07.464Z</time>
      </trkpt>
      <trkpt lon="-70.481721" lat="63.762772">
        <ele>1243.04</ele>
        <time>2026-01-25T13:06:32.520Z</time>
      </trkpt>
      <trkpt lon="-70.434153" lat="63.761513">
        <ele>1294.59</ele>
        <time>2026-01-25T13:06:57.712Z</time>
      </trkpt>
      <trkpt lon="-70.375983" lat="63.759443">
        <ele>1280.14</ele>
        <time>2026-01-25T13:07:27.884Z</time>
      </trkpt>
      <trkpt lon="-70.317232" lat="63.756867">
        <ele>1284.98</ele>
        <time>2026-01-25T13:07:58.172Z</time>
      </trkpt>
      <trkpt lon="-70.258386" lat="63.754330">
        <ele>1283.71</ele>
        <time>2026-01-25T13:08:28.492Z</time>
      </trkpt>
      <trkpt lon="-70.200779" lat="63.752681">
        <ele>1276.66</ele>
        <time>2026-01-25T13:08:58.596Z</time>
      </trkpt>
      <trkpt lon="-70.143589" lat="63.752019">
        <ele>1278.6</ele>
        <time>2026-01-25T13:09:28.844Z</time>
      </trkpt>
      <trkpt lon="-70.086466" lat="63.751935">
        <ele>1273.22</ele>
        <time>2026-01-25T13:09:59.116Z</time>
      </trkpt>
      <trkpt lon="-70.030197" lat="63.752334">
        <ele>1279.23</ele>
        <time>2026-01-25T13:10:29.224Z</time>
      </trkpt>
      <trkpt lon="-69.973400" lat="63.753065">
        <ele>1275.37</ele>
        <time>2026-01-25T13:10:59.464Z</time>
      </trkpt>
      <trkpt lon="-69.917569" lat="63.753586">
        <ele>1278.56</ele>
        <time>2026-01-25T13:11:29.484Z</time>
      </trkpt>
      <trkpt lon="-69.861206" lat="63.753684">
        <ele>1277.78</ele>
        <time>2026-01-25T13:11:59.792Z</time>
      </trkpt>
      <trkpt lon="-69.804458" lat="63.753381">
        <ele>1278.68</ele>
        <time>2026-01-25T13:12:30.148Z</time>
      </trkpt>
      <trkpt lon="-69.747521" lat="63.752559">
        <ele>1272.49</ele>
        <time>2026-01-25T13:13:00.592Z</time>
      </trkpt>
      <trkpt lon="-69.690727" lat="63.751489">
        <ele>1272.24</ele>
        <time>2026-01-25T13:13:30.888Z</time>
      </trkpt>
      <trkpt lon="-69.634660" lat="63.750494">
        <ele>1282.74</ele>
        <time>2026-01-25T13:14:01.128Z</time>
      </trkpt>
      <trkpt lon="-69.578232" lat="63.749679">
        <ele>1278.2</ele>
        <time>2026-01-25T13:14:31.256Z</time>
      </trkpt>
      <trkpt lon="-69.521029" lat="63.749087">
        <ele>1280.09</ele>
        <time>2026-01-25T13:15:01.512Z</time>
      </trkpt>
      <trkpt lon="-69.464005" lat="63.748770">
        <ele>1227.43</ele>
        <time>2026-01-25T13:15:31.668Z</time>
      </trkpt>
      <trkpt lon="-69.439061" lat="63.748632">
        <ele>1171.07</ele>
        <time>2026-01-25T13:15:44.832Z</time>
      </trkpt>
      <trkpt lon="-69.411963" lat="63.748486">
        <ele>1116.62</ele>
        <time>2026-01-25T13:15:58.708Z</time>
      </trkpt>
      <trkpt lon="-69.372444" lat="63.748685">
        <ele>1064.43</ele>
        <time>2026-01-25T13:16:18.620Z</time>
      </trkpt>
      <trkpt lon="-69.338929" lat="63.748784">
        <ele>1019.79</ele>
        <time>2026-01-25T13:16:35.404Z</time>
      </trkpt>
      <trkpt lon="-69.315403" lat="63.748731">
        <ele>977.306</ele>
        <time>2026-01-25T13:16:47.460Z</time>
      </trkpt>
      <trkpt lon="-69.296050" lat="63.748609">
        <ele>934.817</ele>
        <time>2026-01-25T13:16:57.416Z</time>
      </trkpt>
      <trkpt lon="-69.279198" lat="63.748440">
        <ele>897.629</ele>
        <time>2026-01-25T13:17:06.064Z</time>
      </trkpt>
      <trkpt lon="-69.262406" lat="63.748229">
        <ele>860.657</ele>
        <time>2026-01-25T13:17:14.616Z</time>
      </trkpt>
      <trkpt lon="-69.201311" lat="63.747110">
        <ele>840.288</ele>
        <time>2026-01-25T13:17:45.416Z</time>
      </trkpt>
      <trkpt lon="-69.179471" lat="63.746615">
        <ele>835.181</ele>
        <time>2026-01-25T13:18:05.964Z</time>
      </trkpt>
      <trkpt lon="-69.166753" lat="63.746478">
        <ele>875.042</ele>
        <time>2026-01-25T13:18:12.472Z</time>
      </trkpt>
      <trkpt lon="-69.107528" lat="63.746229">
        <ele>843.522</ele>
        <time>2026-01-25T13:18:42.656Z</time>
      </trkpt>
      <trkpt lon="-69.046510" lat="63.746034">
        <ele>845.474</ele>
        <time>2026-01-25T13:19:13.248Z</time>
      </trkpt>
      <trkpt lon="-68.986862" lat="63.745940">
        <ele>846.016</ele>
        <time>2026-01-25T13:19:43.836Z</time>
      </trkpt>
      <trkpt lon="-68.927956" lat="63.745138">
        <ele>846.423</ele>
        <time>2026-01-25T13:20:14.360Z</time>
      </trkpt>
      <trkpt lon="-68.896501" lat="63.744922">
        <ele>846.79</ele>
        <time>2026-01-25T13:20:30.916Z</time>
      </trkpt>
      <trkpt lon="-68.884139" lat="63.745330">
        <ele>840.365</ele>
        <time>2026-01-25T13:20:37.432Z</time>
      </trkpt>
      <trkpt lon="-68.879301" lat="63.745203">
        <ele>838.823</ele>
        <time>2026-01-25T13:20:39.980Z</time>
      </trkpt>
      <trkpt lon="-68.875752" lat="63.744961">
        <ele>838.669</ele>
        <time>2026-01-25T13:20:41.872Z</time>
      </trkpt>
      <trkpt lon="-68.871074" lat="63.744428">
        <ele>841.591</ele>
        <time>2026-01-25T13:20:44.412Z</time>
      </trkpt>
      <trkpt lon="-68.866566" lat="63.743659">
        <ele>845.671</ele>
        <time>2026-01-25T13:20:46.948Z</time>
      </trkpt>
      <trkpt lon="-68.862293" lat="63.742682">
        <ele>848.388</ele>
        <time>2026-01-25T13:20:49.480Z</time>
      </trkpt>
      <trkpt lon="-68.857141" lat="63.741206">
        <ele>850.622</ele>
        <time>2026-01-25T13:20:52.688Z</time>
      </trkpt>
      <trkpt lon="-68.816993" lat="63.726672">
        <ele>842.531</ele>
        <time>2026-01-25T13:21:18.860Z</time>
      </trkpt>
      <trkpt lon="-68.769451" lat="63.708882">
        <ele>843.611</ele>
        <time>2026-01-25T13:21:49.496Z</time>
      </trkpt>
      <trkpt lon="-68.741747" lat="63.699435">
        <ele>844.377</ele>
        <time>2026-01-25T13:22:06.648Z</time>
      </trkpt>
      <trkpt lon="-68.703011" lat="63.688411">
        <ele>846.449</ele>
        <time>2026-01-25T13:22:29.504Z</time>
      </trkpt>
      <trkpt lon="-68.697227" lat="63.687177">
        <ele>845.847</ele>
        <time>2026-01-25T13:22:32.716Z</time>
      </trkpt>
      <trkpt lon="-68.692448" lat="63.686418">
        <ele>844.509</ele>
        <time>2026-01-25T13:22:35.256Z</time>
      </trkpt>
      <trkpt lon="-68.683860" lat="63.685474">
        <ele>847.679</ele>
        <time>2026-01-25T13:22:39.728Z</time>
      </trkpt>
      <trkpt lon="-68.646135" lat="63.682698">
        <ele>840.554</ele>
        <time>2026-01-25T13:22:59.480Z</time>
      </trkpt>
      <trkpt lon="-68.600529" lat="63.679881">
        <ele>807.149</ele>
        <time>2026-01-25T13:23:24.300Z</time>
      </trkpt>
      <trkpt lon="-68.595721" lat="63.679889">
        <ele>804.62</ele>
        <time>2026-01-25T13:23:26.848Z</time>
      </trkpt>
      <trkpt lon="-68.590938" lat="63.680121">
        <ele>800.088</ele>
        <time>2026-01-25T13:23:29.380Z</time>
      </trkpt>
      <trkpt lon="-68.586198" lat="63.680576">
        <ele>795.875</ele>
        <time>2026-01-25T13:23:31.928Z</time>
      </trkpt>
      <trkpt lon="-68.581501" lat="63.681260">
        <ele>792.613</ele>
        <time>2026-01-25T13:23:34.508Z</time>
      </trkpt>
      <trkpt lon="-68.577072" lat="63.682128">
        <ele>789.958</ele>
        <time>2026-01-25T13:23:37.064Z</time>
      </trkpt>
      <trkpt lon="-68.572909" lat="63.683171">
        <ele>788.72</ele>
        <time>2026-01-25T13:23:39.624Z</time>
      </trkpt>
      <trkpt lon="-68.569005" lat="63.684386">
        <ele>787.664</ele>
        <time>2026-01-25T13:23:42.188Z</time>
      </trkpt>
      <trkpt lon="-68.564679" lat="63.686075">
        <ele>786.615</ele>
        <time>2026-01-25T13:23:45.356Z</time>
      </trkpt>
      <trkpt lon="-68.560853" lat="63.687995">
        <ele>785.113</ele>
        <time>2026-01-25T13:23:48.524Z</time>
      </trkpt>
      <trkpt lon="-68.558264" lat="63.689645">
        <ele>783.331</ele>
        <time>2026-01-25T13:23:51.056Z</time>
      </trkpt>
      <trkpt lon="-68.556047" lat="63.691426">
        <ele>780.283</ele>
        <time>2026-01-25T13:23:53.636Z</time>
      </trkpt>
      <trkpt lon="-68.553889" lat="63.693783">
        <ele>775.278</ele>
        <time>2026-01-25T13:23:56.872Z</time>
      </trkpt>
      <trkpt lon="-68.545218" lat="63.707449">
        <ele>764.869</ele>
        <time>2026-01-25T13:24:15.540Z</time>
      </trkpt>
      <trkpt lon="-68.540766" lat="63.712498">
        <ele>715.024</ele>
        <time>2026-01-25T13:24:22.668Z</time>
      </trkpt>
      <trkpt lon="-68.537261" lat="63.716242">
        <ele>663.639</ele>
        <time>2026-01-25T13:24:27.828Z</time>
      </trkpt>
      <trkpt lon="-68.534085" lat="63.719561">
        <ele>616.92</ele>
        <time>2026-01-25T13:24:32.300Z</time>
      </trkpt>
      <trkpt lon="-68.530372" lat="63.723392">
        <ele>570.446</ele>
        <time>2026-01-25T13:24:37.476Z</time>
      </trkpt>
      <trkpt lon="-68.528139" lat="63.725569">
        <ele>549.113</ele>
        <time>2026-01-25T13:24:40.660Z</time>
      </trkpt>
      <trkpt lon="-68.526829" lat="63.726771">
        <ele>545.378</ele>
        <time>2026-01-25T13:24:42.576Z</time>
      </trkpt>
      <trkpt lon="-68.525586" lat="63.727871">
        <ele>543.75</ele>
        <time>2026-01-25T13:24:44.504Z</time>
      </trkpt>
      <trkpt lon="-68.524097" lat="63.729178">
        <ele>529.791</ele>
        <time>2026-01-25T13:24:47.036Z</time>
      </trkpt>
      <trkpt lon="-68.522390" lat="63.730684">
        <ele>490.894</ele>
        <time>2026-01-25T13:24:50.244Z</time>
      </trkpt>
      <trkpt lon="-68.521551" lat="63.731536">
        <ele>457.852</ele>
        <time>2026-01-25T13:24:52.156Z</time>
      </trkpt>
      <trkpt lon="-68.520921" lat="63.732404">
        <ele>417.55</ele>
        <time>2026-01-25T13:24:54.096Z</time>
      </trkpt>
      <trkpt lon="-68.520631" lat="63.732997">
        <ele>387.2</ele>
        <time>2026-01-25T13:24:55.380Z</time>
      </trkpt>
      <trkpt lon="-68.520480" lat="63.733589">
        <ele>358.173</ele>
        <time>2026-01-25T13:24:56.648Z</time>
      </trkpt>
      <trkpt lon="-68.520488" lat="63.734514">
        <ele>315.083</ele>
        <time>2026-01-25T13:24:58.588Z</time>
      </trkpt>
      <trkpt lon="-68.520593" lat="63.735129">
        <ele>285.901</ele>
        <time>2026-01-25T13:24:59.892Z</time>
      </trkpt>
      <trkpt lon="-68.520743" lat="63.735724">
        <ele>258.345</ele>
        <time>2026-01-25T13:25:01.188Z</time>
      </trkpt>
      <trkpt lon="-68.520949" lat="63.736352">
        <ele>230.796</ele>
        <time>2026-01-25T13:25:02.532Z</time>
      </trkpt>
      <trkpt lon="-68.521327" lat="63.737220">
        <ele>195.645</ele>
        <time>2026-01-25T13:25:04.448Z</time>
      </trkpt>
      <trkpt lon="-68.521815" lat="63.738084">
        <ele>166.696</ele>
        <time>2026-01-25T13:25:06.408Z</time>
      </trkpt>
      <trkpt lon="-68.522630" lat="63.739184">
        <ele>140.036</ele>
        <time>2026-01-25T13:25:09.048Z</time>
      </trkpt>
      <trkpt lon="-68.523891" lat="63.740464">
        <ele>115.673</ele>
        <time>2026-01-25T13:25:12.320Z</time>
      </trkpt>
      <trkpt lon="-68.525672" lat="63.741848">
        <ele>95.8032</ele>
        <time>2026-01-25T13:25:16.224Z</time>
      </trkpt>
      <trkpt lon="-68.528061" lat="63.743316">
        <ele>74.8216</ele>
        <time>2026-01-25T13:25:20.840Z</time>
      </trkpt>
      <trkpt lon="-68.531956" lat="63.745232">
        <ele>59.0977</ele>
        <time>2026-01-25T13:25:28.100Z</time>
      </trkpt>
      <trkpt lon="-68.533013" lat="63.745676">
        <ele>55.9225</ele>
        <time>2026-01-25T13:25:30.068Z</time>
      </trkpt>
      <trkpt lon="-68.537151" lat="63.747694">
        <ele>45.3105</ele>
        <time>2026-01-25T13:25:39.216Z</time>
      </trkpt>
      <trkpt lon="-68.537626" lat="63.747991">
        <ele>45.4947</ele>
        <time>2026-01-25T13:25:40.552Z</time>
      </trkpt>
      <trkpt lon="-68.538326" lat="63.748437">
        <ele>43.3938</ele>
        <time>2026-01-25T13:25:42.556Z</time>
      </trkpt>
      <trkpt lon="-68.542571" lat="63.750269">
        <ele>29.8229</ele>
        <time>2026-01-25T13:25:52.996Z</time>
      </trkpt>
      <trkpt lon="-68.543691" lat="63.750706">
        <ele>28.1209</ele>
        <time>2026-01-25T13:25:56.276Z</time>
      </trkpt>
      <trkpt lon="-68.543860" lat="63.750810">
        <ele>28.1576</ele>
        <time>2026-01-25T13:25:56.960Z</time>
      </trkpt>
      <trkpt lon="-68.544129" lat="63.751014">
        <ele>28.037</ele>
        <time>2026-01-25T13:25:58.296Z</time>
      </trkpt>
      <trkpt lon="-68.544429" lat="63.751188">
        <ele>27.7681</ele>
        <time>2026-01-25T13:25:59.592Z</time>
      </trkpt>
      <trkpt lon="-68.546655" lat="63.752271">
        <ele>26.7796</ele>
        <time>2026-01-25T13:26:09.384Z</time>
      </trkpt>
      <trkpt lon="-68.548442" lat="63.753107">
        <ele>26.7497</ele>
        <time>2026-01-25T13:26:19.768Z</time>
      </trkpt>
      <trkpt lon="-68.549740" lat="63.753700">
        <ele>26.9862</ele>
        <time>2026-01-25T13:26:30.292Z</time>
      </trkpt>
      <trkpt lon="-68.550442" lat="63.754020">
        <ele>27.3416</ele>
        <time>2026-01-25T13:26:36.796Z</time>
      </trkpt>
      <trkpt lon="-68.550518" lat="63.754071">
        <ele>27.4305</ele>
        <time>2026-01-25T13:26:38.088Z</time>
      </trkpt>
      <trkpt lon="-68.550643" lat="63.754186">
        <ele>27.6238</ele>
        <time>2026-01-25T13:26:40.720Z</time>
      </trkpt>
      <trkpt lon="-68.550700" lat="63.754260">
        <ele>27.718</ele>
        <time>2026-01-25T13:26:42.036Z</time>
      </trkpt>
      <trkpt lon="-68.550719" lat="63.754300">
        <ele>27.7588</ele>
        <time>2026-01-25T13:26:42.672Z</time>
      </trkpt>
      <trkpt lon="-68.550729" lat="63.754349">
        <ele>27.7959</ele>
        <time>2026-01-25T13:26:43.360Z</time>
      </trkpt>
      <trkpt lon="-68.550725" lat="63.754400">
        <ele>27.8254</ele>
        <time>2026-01-25T13:26:44.040Z</time>
      </trkpt>
      <trkpt lon="-68.550691" lat="63.754500">
        <ele>27.8711</ele>
        <time>2026-01-25T13:26:45.348Z</time>
      </trkpt>
      <trkpt lon="-68.550588" lat="63.754688">
        <ele>27.9987</ele>
        <time>2026-01-25T13:26:47.924Z</time>
      </trkpt>
      <trkpt lon="-68.550557" lat="63.754727">
        <ele>28.0357</ele>
        <time>2026-01-25T13:26:48.584Z</time>
      </trkpt>
      <trkpt lon="-68.550444" lat="63.754823">
        <ele>28.1592</ele>
        <time>2026-01-25T13:26:50.604Z</time>
      </trkpt>
      <trkpt lon="-68.550344" lat="63.754886">
        <ele>28.2697</ele>
        <time>2026-01-25T13:26:51.880Z</time>
      </trkpt>
      <trkpt lon="-68.549255" lat="63.755393">
        <ele>28.6141</ele>
        <time>2026-01-25T13:27:00.912Z</time>
      </trkpt>
      <trkpt lon="-68.549036" lat="63.755485">
        <ele>28.548</ele>
        <time>2026-01-25T13:27:11.332Z</time>
      </trkpt>
      <trkpt lon="-68.548387" lat="63.755775">
        <ele>27.4149</ele>
        <time>2026-01-25T13:27:15.272Z</time>
      </trkpt>
      <trkpt lon="-68.548156" lat="63.755881">
        <ele>27.1494</ele>
        <time>2026-01-25T13:27:16.576Z</time>
      </trkpt>
      <trkpt lon="-68.546543" lat="63.756442">
        <ele>27.0279</ele>
        <time>2026-01-25T13:27:27.028Z</time>
      </trkpt>
      <trkpt lon="-68.546471" lat="63.756459">
        <ele>27.0262</ele>
        <time>2026-01-25T13:27:27.700Z</time>
      </trkpt>
      <trkpt lon="-68.546380" lat="63.756475">
        <ele>27.0239</ele>
        <time>2026-01-25T13:27:29.000Z</time>
      </trkpt>
      <trkpt lon="-68.546235" lat="63.756493">
        <ele>27.0236</ele>
        <time>2026-01-25T13:27:30.968Z</time>
      </trkpt>
      <trkpt lon="-68.546117" lat="63.756501">
        <ele>27.0225</ele>
        <time>2026-01-25T13:27:32.280Z</time>
      </trkpt>
      <trkpt lon="-68.545982" lat="63.756504">
        <ele>27.0246</ele>
        <time>2026-01-25T13:27:33.592Z</time>
      </trkpt>
      <trkpt lon="-68.545924" lat="63.756502">
        <ele>27.0274</ele>
        <time>2026-01-25T13:27:34.220Z</time>
      </trkpt>
      <trkpt lon="-68.545877" lat="63.756499">
        <ele>27.0289</ele>
        <time>2026-01-25T13:27:34.844Z</time>
      </trkpt>
      <trkpt lon="-68.545838" lat="63.756494">
        <ele>27.0273</ele>
        <time>2026-01-25T13:27:35.508Z</time>
      </trkpt>
      <trkpt lon="-68.545780" lat="63.756483">
        <ele>27.0221</ele>
        <time>2026-01-25T13:27:36.816Z</time>
      </trkpt>
      <trkpt lon="-68.545522" lat="63.756420">
        <ele>27.0201</ele>
        <time>2026-01-25T13:27:40.136Z</time>
      </trkpt>
      <trkpt lon="-68.545469" lat="63.756411">
        <ele>27.0219</ele>
        <time>2026-01-25T13:27:41.400Z</time>
      </trkpt>
      <trkpt lon="-68.545452" lat="63.756408">
        <ele>27.0223</ele>
        <time>2026-01-25T13:27:42.084Z</time>
      </trkpt>
      <trkpt lon="-68.545438" lat="63.756407">
        <ele>27.0207</ele>
        <time>2026-01-25T13:27:42.764Z</time>
      </trkpt>
      <trkpt lon="-68.545406" lat="63.756407">
        <ele>27.0203</ele>
        <time>2026-01-25T13:27:44.104Z</time>
      </trkpt>
      <trkpt lon="-68.545382" lat="63.756409">
        <ele>27.0218</ele>
        <time>2026-01-25T13:27:44.772Z</time>
      </trkpt>
      <trkpt lon="-68.545361" lat="63.756412">
        <ele>27.0228</ele>
        <time>2026-01-25T13:27:45.436Z</time>
      </trkpt>
      <trkpt lon="-68.545342" lat="63.756415">
        <ele>27.0205</ele>
        <time>2026-01-25T13:27:46.120Z</time>
      </trkpt>
      <trkpt lon="-68.545326" lat="63.756420">
        <ele>27.0238</ele>
        <time>2026-01-25T13:27:46.780Z</time>
      </trkpt>
      <trkpt lon="-68.545303" lat="63.756429">
        <ele>27.0173</ele>
        <time>2026-01-25T13:27:47.456Z</time>
      </trkpt>
      <trkpt lon="-68.544916" lat="63.756613">
        <ele>27.0131</ele>
        <time>2026-01-25T13:27:58.028Z</time>
      </trkpt>
    </trkseg>
    <trkseg>
      <trkpt lon="90.000332" lat="0.001153">
        <ele>7062.83</ele>
        <time>2026-01-28T18:46:34.168Z</time>
      </trkpt>
    </trkseg>
    <trkseg>
      <trkpt lon="31.106755" lat="-29.620558">
        <ele>90.6384</ele>
        <time>2026-01-28T18:55:50.248Z</time>
      </trkpt>
      <trkpt lon="31.106769" lat="-29.620568">
        <ele>90.6949</ele>
        <time>2026-01-28T11:20:56.632Z</time>
      </trkpt>
      <trkpt lon="31.106782" lat="-29.620583">
        <ele>90.6914</ele>
        <time>2026-01-28T11:20:57.896Z</time>
      </trkpt>
      <trkpt lon="31.106787" lat="-29.620597">
        <ele>90.6892</ele>
        <time>2026-01-28T11:20:59.212Z</time>
      </trkpt>
      <trkpt lon="31.106771" lat="-29.620613">
        <ele>90.6859</ele>
        <time>2026-01-28T11:21:04.920Z</time>
      </trkpt>
      <trkpt lon="31.106758" lat="-29.620618">
        <ele>90.687</ele>
        <time>2026-01-28T11:21:06.868Z</time>
      </trkpt>
      <trkpt lon="31.106742" lat="-29.620616">
        <ele>90.6863</ele>
        <time>2026-01-28T11:21:09.412Z</time>
      </trkpt>
      <trkpt lon="31.106717" lat="-29.620604">
        <ele>90.688</ele>
        <time>2026-01-28T11:21:10.704Z</time>
      </trkpt>
      <trkpt lon="31.106706" lat="-29.620597">
        <ele>90.6858</ele>
        <time>2026-01-28T11:21:11.324Z</time>
      </trkpt>
      <trkpt lon="31.106657" lat="-29.620538">
        <ele>90.6969</ele>
        <time>2026-01-28T11:21:20.884Z</time>
      </trkpt>
      <trkpt lon="31.106510" lat="-29.620384">
        <ele>90.7058</ele>
        <time>2026-01-28T11:21:24.124Z</time>
      </trkpt>
      <trkpt lon="31.106395" lat="-29.620297">
        <ele>90.709</ele>
        <time>2026-01-28T11:21:26.040Z</time>
      </trkpt>
      <trkpt lon="31.106309" lat="-29.620246">
        <ele>90.7054</ele>
        <time>2026-01-28T11:21:27.328Z</time>
      </trkpt>
      <trkpt lon="31.106261" lat="-29.620231">
        <ele>90.7028</ele>
        <time>2026-01-28T11:21:27.968Z</time>
      </trkpt>
      <trkpt lon="31.106211" lat="-29.620228">
        <ele>90.7016</ele>
        <time>2026-01-28T11:21:28.612Z</time>
      </trkpt>
      <trkpt lon="31.106162" lat="-29.620238">
        <ele>90.6961</ele>
        <time>2026-01-28T11:21:29.264Z</time>
      </trkpt>
      <trkpt lon="31.106117" lat="-29.620262">
        <ele>90.6915</ele>
        <time>2026-01-28T11:21:29.924Z</time>
      </trkpt>
      <trkpt lon="31.106083" lat="-29.620295">
        <ele>90.6879</ele>
        <time>2026-01-28T11:21:30.584Z</time>
      </trkpt>
      <trkpt lon="31.105517" lat="-29.620959">
        <ele>90.5649</ele>
        <time>2026-01-28T11:21:40.800Z</time>
      </trkpt>
      <trkpt lon="31.104880" lat="-29.621683">
        <ele>90.4215</ele>
        <time>2026-01-28T11:21:51.076Z</time>
      </trkpt>
      <trkpt lon="31.104351" lat="-29.622301">
        <ele>90.3049</ele>
        <time>2026-01-28T11:21:59.996Z</time>
      </trkpt>
      <trkpt lon="31.104297" lat="-29.622395">
        <ele>90.2822</ele>
        <time>2026-01-28T11:22:01.260Z</time>
      </trkpt>
      <trkpt lon="31.104283" lat="-29.622445">
        <ele>90.2822</ele>
        <time>2026-01-28T11:22:01.888Z</time>
      </trkpt>
      <trkpt lon="31.104279" lat="-29.622496">
        <ele>90.2736</ele>
        <time>2026-01-28T11:22:02.516Z</time>
      </trkpt>
      <trkpt lon="31.104288" lat="-29.622549">
        <ele>90.2656</ele>
        <time>2026-01-28T11:22:03.180Z</time>
      </trkpt>
      <trkpt lon="31.104308" lat="-29.622596">
        <ele>90.264</ele>
        <time>2026-01-28T11:22:03.808Z</time>
      </trkpt>
      <trkpt lon="31.104339" lat="-29.622638">
        <ele>90.2596</ele>
        <time>2026-01-28T11:22:04.452Z</time>
      </trkpt>
      <trkpt lon="31.104378" lat="-29.622673">
        <ele>90.2548</ele>
        <time>2026-01-28T11:22:05.080Z</time>
      </trkpt>
      <trkpt lon="31.105094" lat="-29.623141">
        <ele>90.2321</ele>
        <time>2026-01-28T11:22:15.256Z</time>
      </trkpt>
      <trkpt lon="31.105789" lat="-29.623607">
        <ele>90.1979</ele>
        <time>2026-01-28T11:22:25.416Z</time>
      </trkpt>
      <trkpt lon="31.106479" lat="-29.624068">
        <ele>90.0811</ele>
        <time>2026-01-28T11:22:35.616Z</time>
      </trkpt>
      <trkpt lon="31.106560" lat="-29.624122">
        <ele>90.0473</ele>
        <time>2026-01-28T11:22:37.532Z</time>
      </trkpt>
      <trkpt lon="31.106595" lat="-29.624145">
        <ele>90.0517</ele>
        <time>2026-01-28T11:27:21.908Z</time>
      </trkpt>
      <trkpt lon="31.107284" lat="-29.624571">
        <ele>89.6892</ele>
        <time>2026-01-28T11:27:30.240Z</time>
      </trkpt>
      <trkpt lon="31.107337" lat="-29.624599">
        <ele>89.672</ele>
        <time>2026-01-28T11:27:30.892Z</time>
      </trkpt>
      <trkpt lon="31.107391" lat="-29.624619">
        <ele>89.6617</ele>
        <time>2026-01-28T11:27:31.516Z</time>
      </trkpt>
      <trkpt lon="31.107447" lat="-29.624634">
        <ele>89.6622</ele>
        <time>2026-01-28T11:27:32.160Z</time>
      </trkpt>
      <trkpt lon="31.107507" lat="-29.624644">
        <ele>89.6781</ele>
        <time>2026-01-28T11:27:32.792Z</time>
      </trkpt>
      <trkpt lon="31.107580" lat="-29.624647">
        <ele>89.6958</ele>
        <time>2026-01-28T11:27:33.428Z</time>
      </trkpt>
      <trkpt lon="31.107681" lat="-29.624641">
        <ele>89.734</ele>
        <time>2026-01-28T11:27:34.084Z</time>
      </trkpt>
      <trkpt lon="31.107791" lat="-29.624625">
        <ele>89.8411</ele>
        <time>2026-01-28T11:27:34.716Z</time>
      </trkpt>
      <trkpt lon="31.108061" lat="-29.624565">
        <ele>90.06</ele>
        <time>2026-01-28T11:27:36.004Z</time>
      </trkpt>
      <trkpt lon="31.108210" lat="-29.624520">
        <ele>90.0686</ele>
        <time>2026-01-28T11:27:36.636Z</time>
      </trkpt>
      <trkpt lon="31.108524" lat="-29.624379">
        <ele>90.3045</ele>
        <time>2026-01-28T11:27:37.916Z</time>
      </trkpt>
      <trkpt lon="31.109306" lat="-29.623794">
        <ele>103.944</ele>
        <time>2026-01-28T11:27:41.124Z</time>
      </trkpt>
      <trkpt lon="31.109700" lat="-29.623304">
        <ele>116.615</ele>
        <time>2026-01-28T11:27:43.076Z</time>
      </trkpt>
      <trkpt lon="31.110364" lat="-29.622307">
        <ele>132.076</ele>
        <time>2026-01-28T11:27:46.416Z</time>
      </trkpt>
      <trkpt lon="31.111287" lat="-29.621046">
        <ele>152.447</ele>
        <time>2026-01-28T11:27:50.244Z</time>
      </trkpt>
      <trkpt lon="31.112019" lat="-29.620221">
        <ele>174.723</ele>
        <time>2026-01-28T11:27:52.800Z</time>
      </trkpt>
      <trkpt lon="31.112587" lat="-29.619623">
        <ele>197.36</ele>
        <time>2026-01-28T11:27:54.724Z</time>
      </trkpt>
      <trkpt lon="31.113130" lat="-29.619064">
        <ele>222.446</ele>
        <time>2026-01-28T11:27:56.632Z</time>
      </trkpt>
      <trkpt lon="31.113659" lat="-29.618516">
        <ele>249.332</ele>
        <time>2026-01-28T11:27:58.568Z</time>
      </trkpt>
      <trkpt lon="31.114154" lat="-29.617990">
        <ele>275.339</ele>
        <time>2026-01-28T11:28:00.516Z</time>
      </trkpt>
      <trkpt lon="31.114762" lat="-29.617329">
        <ele>301.852</ele>
        <time>2026-01-28T11:28:03.092Z</time>
      </trkpt>
      <trkpt lon="31.116328" lat="-29.615660">
        <ele>328.606</ele>
        <time>2026-01-28T11:28:09.452Z</time>
      </trkpt>
      <trkpt lon="31.118102" lat="-29.613775">
        <ele>338.075</ele>
        <time>2026-01-28T11:28:15.828Z</time>
      </trkpt>
      <trkpt lon="31.122237" lat="-29.608870">
        <ele>354.538</ele>
        <time>2026-01-28T11:28:29.828Z</time>
      </trkpt>
      <trkpt lon="31.132296" lat="-29.597655">
        <ele>354.86</ele>
        <time>2026-01-28T11:29:00.004Z</time>
      </trkpt>
      <trkpt lon="31.132681" lat="-29.597138">
        <ele>353.988</ele>
        <time>2026-01-28T11:29:01.288Z</time>
      </trkpt>
      <trkpt lon="31.133000" lat="-29.596578">
        <ele>353.911</ele>
        <time>2026-01-28T11:29:02.596Z</time>
      </trkpt>
      <trkpt lon="31.133234" lat="-29.596003">
        <ele>354.04</ele>
        <time>2026-01-28T11:29:03.896Z</time>
      </trkpt>
      <trkpt lon="31.133388" lat="-29.595425">
        <ele>353.361</ele>
        <time>2026-01-28T11:29:05.148Z</time>
      </trkpt>
      <trkpt lon="31.133462" lat="-29.594835">
        <ele>352.102</ele>
        <time>2026-01-28T11:29:06.416Z</time>
      </trkpt>
      <trkpt lon="31.133447" lat="-29.594231">
        <ele>350.616</ele>
        <time>2026-01-28T11:29:07.692Z</time>
      </trkpt>
      <trkpt lon="31.133338" lat="-29.593624">
        <ele>348.985</ele>
        <time>2026-01-28T11:29:08.980Z</time>
      </trkpt>
      <trkpt lon="31.133143" lat="-29.593042">
        <ele>347.009</ele>
        <time>2026-01-28T11:29:10.248Z</time>
      </trkpt>
      <trkpt lon="31.132850" lat="-29.592454">
        <ele>344.68</ele>
        <time>2026-01-28T11:29:11.576Z</time>
      </trkpt>
      <trkpt lon="31.132481" lat="-29.591904">
        <ele>341.903</ele>
        <time>2026-01-28T11:29:12.888Z</time>
      </trkpt>
      <trkpt lon="31.132047" lat="-29.591396">
        <ele>338.559</ele>
        <time>2026-01-28T11:29:14.184Z</time>
      </trkpt>
      <trkpt lon="31.131536" lat="-29.590917">
        <ele>334.974</ele>
        <time>2026-01-28T11:29:15.496Z</time>
      </trkpt>
      <trkpt lon="31.130662" lat="-29.590275">
        <ele>330.746</ele>
        <time>2026-01-28T11:29:17.480Z</time>
      </trkpt>
      <trkpt lon="31.129712" lat="-29.589726">
        <ele>329.567</ele>
        <time>2026-01-28T11:29:19.448Z</time>
      </trkpt>
      <trkpt lon="31.128083" lat="-29.588988">
        <ele>334.414</ele>
        <time>2026-01-28T11:29:22.652Z</time>
      </trkpt>
      <trkpt lon="31.125171" lat="-29.587770">
        <ele>341.579</ele>
        <time>2026-01-28T11:29:28.464Z</time>
      </trkpt>
      <trkpt lon="31.119227" lat="-29.584555">
        <ele>346.19</ele>
        <time>2026-01-28T11:29:41.272Z</time>
      </trkpt>
      <trkpt lon="31.118575" lat="-29.584349">
        <ele>350.16</ele>
        <time>2026-01-28T11:29:42.572Z</time>
      </trkpt>
      <trkpt lon="31.117922" lat="-29.584213">
        <ele>352.471</ele>
        <time>2026-01-28T11:29:43.824Z</time>
      </trkpt>
      <trkpt lon="31.117234" lat="-29.584141">
        <ele>353.031</ele>
        <time>2026-01-28T11:29:45.100Z</time>
      </trkpt>
      <trkpt lon="31.116538" lat="-29.584141">
        <ele>352.691</ele>
        <time>2026-01-28T11:29:46.376Z</time>
      </trkpt>
      <trkpt lon="31.115824" lat="-29.584221">
        <ele>351.943</ele>
        <time>2026-01-28T11:29:47.684Z</time>
      </trkpt>
      <trkpt lon="31.115135" lat="-29.584378">
        <ele>350.553</ele>
        <time>2026-01-28T11:29:48.956Z</time>
      </trkpt>
      <trkpt lon="31.114457" lat="-29.584613">
        <ele>348.131</ele>
        <time>2026-01-28T11:29:50.244Z</time>
      </trkpt>
      <trkpt lon="31.113799" lat="-29.584923">
        <ele>344.885</ele>
        <time>2026-01-28T11:29:51.536Z</time>
      </trkpt>
      <trkpt lon="31.113177" lat="-29.585305">
        <ele>342.006</ele>
        <time>2026-01-28T11:29:52.836Z</time>
      </trkpt>
      <trkpt lon="31.112604" lat="-29.585744">
        <ele>339.335</ele>
        <time>2026-01-28T11:29:54.116Z</time>
      </trkpt>
      <trkpt lon="31.111807" lat="-29.586504">
        <ele>335.332</ele>
        <time>2026-01-28T11:29:56.068Z</time>
      </trkpt>
      <trkpt lon="31.100190" lat="-29.598910">
        <ele>342.491</ele>
        <time>2026-01-28T11:30:26.524Z</time>
      </trkpt>
      <trkpt lon="31.098020" lat="-29.601089">
        <ele>373.138</ele>
        <time>2026-01-28T11:30:32.304Z</time>
      </trkpt>
      <trkpt lon="31.091230" lat="-29.608592">
        <ele>369.261</ele>
        <time>2026-01-28T11:30:51.728Z</time>
      </trkpt>
      <trkpt lon="31.080306" lat="-29.621908">
        <ele>362.637</ele>
        <time>2026-01-28T11:31:22.116Z</time>
      </trkpt>
      <trkpt lon="31.069531" lat="-29.635461">
        <ele>347.608</ele>
        <time>2026-01-28T11:31:52.356Z</time>
      </trkpt>
      <trkpt lon="31.065122" lat="-29.640951">
        <ele>358.14</ele>
        <time>2026-01-28T11:32:05.276Z</time>
      </trkpt>
      <trkpt lon="31.064787" lat="-29.641535">
        <ele>362.264</ele>
        <time>2026-01-28T11:32:06.572Z</time>
      </trkpt>
      <trkpt lon="31.064535" lat="-29.642120">
        <ele>367.633</ele>
        <time>2026-01-28T11:32:07.848Z</time>
      </trkpt>
      <trkpt lon="31.064354" lat="-29.642721">
        <ele>371.953</ele>
        <time>2026-01-28T11:32:09.132Z</time>
      </trkpt>
      <trkpt lon="31.064251" lat="-29.643340">
        <ele>374.912</ele>
        <time>2026-01-28T11:32:10.412Z</time>
      </trkpt>
      <trkpt lon="31.064242" lat="-29.643970">
        <ele>376.854</ele>
        <time>2026-01-28T11:32:11.728Z</time>
      </trkpt>
      <trkpt lon="31.064322" lat="-29.644600">
        <ele>376.497</ele>
        <time>2026-01-28T11:32:13.036Z</time>
      </trkpt>
      <trkpt lon="31.064481" lat="-29.645205">
        <ele>375.006</ele>
        <time>2026-01-28T11:32:14.308Z</time>
      </trkpt>
      <trkpt lon="31.064707" lat="-29.645791">
        <ele>373.356</ele>
        <time>2026-01-28T11:32:15.560Z</time>
      </trkpt>
      <trkpt lon="31.065018" lat="-29.646382">
        <ele>371.056</ele>
        <time>2026-01-28T11:32:16.884Z</time>
      </trkpt>
      <trkpt lon="31.065385" lat="-29.646921">
        <ele>368.263</ele>
        <time>2026-01-28T11:32:18.144Z</time>
      </trkpt>
      <trkpt lon="31.065840" lat="-29.647452">
        <ele>365.471</ele>
        <time>2026-01-28T11:32:19.464Z</time>
      </trkpt>
      <trkpt lon="31.066350" lat="-29.647937">
        <ele>363.498</ele>
        <time>2026-01-28T11:32:20.756Z</time>
      </trkpt>
      <trkpt lon="31.067206" lat="-29.648603">
        <ele>359.873</ele>
        <time>2026-01-28T11:32:22.708Z</time>
      </trkpt>
      <trkpt lon="31.068445" lat="-29.649377">
        <ele>354.605</ele>
        <time>2026-01-28T11:32:25.268Z</time>
      </trkpt>
      <trkpt lon="31.073096" lat="-29.651764">
        <ele>340.003</ele>
        <time>2026-01-28T11:32:34.280Z</time>
      </trkpt>
      <trkpt lon="31.073810" lat="-29.651994">
        <ele>342.691</ele>
        <time>2026-01-28T11:32:35.584Z</time>
      </trkpt>
      <trkpt lon="31.074533" lat="-29.652121">
        <ele>343.747</ele>
        <time>2026-01-28T11:32:36.880Z</time>
      </trkpt>
      <trkpt lon="31.075273" lat="-29.652162">
        <ele>342.578</ele>
        <time>2026-01-28T11:32:38.160Z</time>
      </trkpt>
      <trkpt lon="31.076005" lat="-29.652123">
        <ele>339.927</ele>
        <time>2026-01-28T11:32:39.432Z</time>
      </trkpt>
      <trkpt lon="31.076727" lat="-29.652013">
        <ele>337.358</ele>
        <time>2026-01-28T11:32:40.712Z</time>
      </trkpt>
      <trkpt lon="31.077789" lat="-29.651734">
        <ele>333.348</ele>
        <time>2026-01-28T11:32:42.632Z</time>
      </trkpt>
      <trkpt lon="31.079119" lat="-29.651251">
        <ele>325.014</ele>
        <time>2026-01-28T11:32:45.140Z</time>
      </trkpt>
      <trkpt lon="31.081487" lat="-29.650144">
        <ele>315.244</ele>
        <time>2026-01-28T11:32:49.708Z</time>
      </trkpt>
      <trkpt lon="31.084307" lat="-29.648511">
        <ele>312.409</ele>
        <time>2026-01-28T11:32:55.516Z</time>
      </trkpt>
      <trkpt lon="31.088649" lat="-29.645451">
        <ele>305.549</ele>
        <time>2026-01-28T11:33:05.240Z</time>
      </trkpt>
      <trkpt lon="31.094013" lat="-29.640894">
        <ele>303.436</ele>
        <time>2026-01-28T11:33:18.752Z</time>
      </trkpt>
      <trkpt lon="31.096608" lat="-29.638164">
        <ele>278.763</ele>
        <time>2026-01-28T11:33:25.912Z</time>
      </trkpt>
      <trkpt lon="31.098896" lat="-29.635474">
        <ele>251.993</ele>
        <time>2026-01-28T11:33:32.420Z</time>
      </trkpt>
      <trkpt lon="31.100884" lat="-29.633109">
        <ele>228.218</ele>
        <time>2026-01-28T11:33:38.244Z</time>
      </trkpt>
      <trkpt lon="31.102141" lat="-29.631575">
        <ele>205.859</ele>
        <time>2026-01-28T11:33:42.056Z</time>
      </trkpt>
      <trkpt lon="31.103854" lat="-29.629502">
        <ele>184.386</ele>
        <time>2026-01-28T11:33:47.256Z</time>
      </trkpt>
      <trkpt lon="31.105188" lat="-29.627984">
        <ele>161.735</ele>
        <time>2026-01-28T11:33:51.220Z</time>
      </trkpt>
      <trkpt lon="31.106087" lat="-29.626987">
        <ele>143.227</ele>
        <time>2026-01-28T11:33:53.844Z</time>
      </trkpt>
      <trkpt lon="31.106945" lat="-29.625996">
        <ele>124.397</ele>
        <time>2026-01-28T11:33:56.416Z</time>
      </trkpt>
      <trkpt lon="31.107964" lat="-29.624708">
        <ele>107.975</ele>
        <time>2026-01-28T11:33:59.704Z</time>
      </trkpt>
      <trkpt lon="31.109755" lat="-29.622640">
        <ele>96.0946</ele>
        <time>2026-01-28T11:34:05.552Z</time>
      </trkpt>
      <trkpt lon="31.110966" lat="-29.621207">
        <ele>93.6891</ele>
        <time>2026-01-28T11:34:10.112Z</time>
      </trkpt>
      <trkpt lon="31.111902" lat="-29.620149">
        <ele>90.9626</ele>
        <time>2026-01-28T11:34:14.012Z</time>
      </trkpt>
      <trkpt lon="31.113789" lat="-29.618004">
        <ele>95.671</ele>
        <time>2026-01-28T11:34:21.824Z</time>
      </trkpt>
      <trkpt lon="31.122302" lat="-29.608329">
        <ele>107.073</ele>
        <time>2026-01-28T11:34:52.344Z</time>
      </trkpt>
      <trkpt lon="31.124474" lat="-29.605833">
        <ele>106.983</ele>
        <time>2026-01-28T11:34:59.468Z</time>
      </trkpt>
      <trkpt lon="31.126159" lat="-29.603889">
        <ele>128.422</ele>
        <time>2026-01-28T11:35:04.636Z</time>
      </trkpt>
      <trkpt lon="31.126316" lat="-29.603710">
        <ele>148.44</ele>
        <time>2026-01-28T11:35:05.276Z</time>
      </trkpt>
      <trkpt lon="31.126438" lat="-29.603576">
        <ele>172.569</ele>
        <time>2026-01-28T11:35:05.924Z</time>
      </trkpt>
      <trkpt lon="31.126528" lat="-29.603481">
        <ele>196.522</ele>
        <time>2026-01-28T11:35:06.560Z</time>
      </trkpt>
      <trkpt lon="31.126600" lat="-29.603405">
        <ele>219.875</ele>
        <time>2026-01-28T11:35:07.200Z</time>
      </trkpt>
      <trkpt lon="31.126719" lat="-29.603282">
        <ele>260.569</ele>
        <time>2026-01-28T11:35:08.464Z</time>
      </trkpt>
      <trkpt lon="31.126839" lat="-29.603159">
        <ele>292.171</ele>
        <time>2026-01-28T11:35:09.752Z</time>
      </trkpt>
      <trkpt lon="31.127076" lat="-29.602900">
        <ele>315.752</ele>
        <time>2026-01-28T11:35:11.668Z</time>
      </trkpt>
      <trkpt lon="31.127390" lat="-29.602545">
        <ele>314.423</ele>
        <time>2026-01-28T11:35:13.600Z</time>
      </trkpt>
      <trkpt lon="31.127786" lat="-29.602098">
        <ele>303.116</ele>
        <time>2026-01-28T11:35:15.524Z</time>
      </trkpt>
      <trkpt lon="31.129396" lat="-29.600323">
        <ele>329.148</ele>
        <time>2026-01-28T11:35:21.928Z</time>
      </trkpt>
      <trkpt lon="31.131582" lat="-29.597926">
        <ele>344.211</ele>
        <time>2026-01-28T11:35:29.672Z</time>
      </trkpt>
      <trkpt lon="31.133719" lat="-29.595485">
        <ele>342.745</ele>
        <time>2026-01-28T11:35:36.684Z</time>
      </trkpt>
      <trkpt lon="31.133889" lat="-29.595249">
        <ele>343.115</ele>
        <time>2026-01-28T11:35:37.324Z</time>
      </trkpt>
      <trkpt lon="31.134043" lat="-29.594987">
        <ele>344.56</ele>
        <time>2026-01-28T11:35:37.964Z</time>
      </trkpt>
      <trkpt lon="31.134151" lat="-29.594720">
        <ele>347.681</ele>
        <time>2026-01-28T11:35:38.616Z</time>
      </trkpt>
      <trkpt lon="31.134194" lat="-29.594451">
        <ele>353.577</ele>
        <time>2026-01-28T11:35:39.260Z</time>
      </trkpt>
      <trkpt lon="31.134172" lat="-29.594193">
        <ele>360.863</ele>
        <time>2026-01-28T11:35:39.916Z</time>
      </trkpt>
      <trkpt lon="31.134085" lat="-29.593963">
        <ele>368.164</ele>
        <time>2026-01-28T11:35:40.548Z</time>
      </trkpt>
      <trkpt lon="31.133931" lat="-29.593756">
        <ele>374.934</ele>
        <time>2026-01-28T11:35:41.212Z</time>
      </trkpt>
      <trkpt lon="31.132219" lat="-29.592515">
        <ele>375.833</ele>
        <time>2026-01-28T11:35:46.288Z</time>
      </trkpt>
      <trkpt lon="31.127939" lat="-29.589883">
        <ele>380.721</ele>
        <time>2026-01-28T11:35:56.592Z</time>
      </trkpt>
      <trkpt lon="31.114215" lat="-29.582055">
        <ele>406.543</ele>
        <time>2026-01-28T11:36:26.368Z</time>
      </trkpt>
      <trkpt lon="31.113889" lat="-29.581896">
        <ele>407.257</ele>
        <time>2026-01-28T11:36:27.028Z</time>
      </trkpt>
      <trkpt lon="31.113576" lat="-29.581764">
        <ele>408.199</ele>
        <time>2026-01-28T11:36:27.644Z</time>
      </trkpt>
      <trkpt lon="31.112874" lat="-29.581560">
        <ele>410.21</ele>
        <time>2026-01-28T11:36:28.948Z</time>
      </trkpt>
      <trkpt lon="31.112130" lat="-29.581487">
        <ele>412.963</ele>
        <time>2026-01-28T11:36:30.280Z</time>
      </trkpt>
      <trkpt lon="31.111766" lat="-29.581502">
        <ele>414.553</ele>
        <time>2026-01-28T11:36:30.924Z</time>
      </trkpt>
      <trkpt lon="31.111398" lat="-29.581553">
        <ele>416.133</ele>
        <time>2026-01-28T11:36:31.584Z</time>
      </trkpt>
      <trkpt lon="31.111050" lat="-29.581636">
        <ele>417.621</ele>
        <time>2026-01-28T11:36:32.228Z</time>
      </trkpt>
      <trkpt lon="31.110397" lat="-29.581887">
        <ele>420.081</ele>
        <time>2026-01-28T11:36:33.500Z</time>
      </trkpt>
      <trkpt lon="31.110084" lat="-29.582050">
        <ele>420.233</ele>
        <time>2026-01-28T11:36:34.152Z</time>
      </trkpt>
      <trkpt lon="31.109499" lat="-29.582429">
        <ele>417.933</ele>
        <time>2026-01-28T11:36:35.440Z</time>
      </trkpt>
      <trkpt lon="31.098942" lat="-29.593041">
        <ele>409.336</ele>
        <time>2026-01-28T11:37:02.376Z</time>
      </trkpt>
      <trkpt lon="31.087562" lat="-29.605482">
        <ele>412.141</ele>
        <time>2026-01-28T11:37:32.616Z</time>
      </trkpt>
      <trkpt lon="31.086877" lat="-29.606317">
        <ele>413.003</ele>
        <time>2026-01-28T11:37:34.564Z</time>
      </trkpt>
      <trkpt lon="31.086495" lat="-29.606888">
        <ele>414.161</ele>
        <time>2026-01-28T11:37:35.816Z</time>
      </trkpt>
      <trkpt lon="31.086181" lat="-29.607505">
        <ele>413.502</ele>
        <time>2026-01-28T11:37:37.104Z</time>
      </trkpt>
      <trkpt lon="31.085957" lat="-29.608151">
        <ele>411.316</ele>
        <time>2026-01-28T11:37:38.408Z</time>
      </trkpt>
      <trkpt lon="31.085812" lat="-29.608820">
        <ele>406.975</ele>
        <time>2026-01-28T11:37:39.680Z</time>
      </trkpt>
      <trkpt lon="31.085724" lat="-29.609857">
        <ele>395.832</ele>
        <time>2026-01-28T11:37:41.616Z</time>
      </trkpt>
      <trkpt lon="31.085747" lat="-29.610568">
        <ele>384.984</ele>
        <time>2026-01-28T11:37:42.916Z</time>
      </trkpt>
      <trkpt lon="31.085939" lat="-29.611618">
        <ele>363.755</ele>
        <time>2026-01-28T11:37:44.840Z</time>
      </trkpt>
      <trkpt lon="31.086460" lat="-29.613038">
        <ele>329.312</ele>
        <time>2026-01-28T11:37:47.440Z</time>
      </trkpt>
      <trkpt lon="31.086796" lat="-29.613736">
        <ele>313.917</ele>
        <time>2026-01-28T11:37:48.732Z</time>
      </trkpt>
      <trkpt lon="31.087595" lat="-29.615122">
        <ele>289.503</ele>
        <time>2026-01-28T11:37:51.304Z</time>
      </trkpt>
      <trkpt lon="31.089182" lat="-29.617464">
        <ele>265.144</ele>
        <time>2026-01-28T11:37:55.836Z</time>
      </trkpt>
      <trkpt lon="31.091083" lat="-29.620254">
        <ele>249.005</ele>
        <time>2026-01-28T11:38:01.580Z</time>
      </trkpt>
      <trkpt lon="31.093028" lat="-29.622841">
        <ele>225.069</ele>
        <time>2026-01-28T11:38:07.372Z</time>
      </trkpt>
      <trkpt lon="31.094044" lat="-29.623907">
        <ele>212.485</ele>
        <time>2026-01-28T11:38:09.928Z</time>
      </trkpt>
      <trkpt lon="31.095458" lat="-29.625153">
        <ele>206.16</ele>
        <time>2026-01-28T11:38:13.152Z</time>
      </trkpt>
      <trkpt lon="31.096948" lat="-29.626250">
        <ele>208.151</ele>
        <time>2026-01-28T11:38:16.344Z</time>
      </trkpt>
      <trkpt lon="31.099388" lat="-29.627864">
        <ele>207.779</ele>
        <time>2026-01-28T11:38:21.496Z</time>
      </trkpt>
      <trkpt lon="31.100032" lat="-29.628191">
        <ele>208.392</ele>
        <time>2026-01-28T11:38:22.792Z</time>
      </trkpt>
      <trkpt lon="31.100368" lat="-29.628299">
        <ele>208.978</ele>
        <time>2026-01-28T11:38:23.444Z</time>
      </trkpt>
      <trkpt lon="31.100731" lat="-29.628363">
        <ele>210.167</ele>
        <time>2026-01-28T11:38:24.108Z</time>
      </trkpt>
      <trkpt lon="31.101779" lat="-29.628337">
        <ele>208.843</ele>
        <time>2026-01-28T11:38:26.076Z</time>
      </trkpt>
      <trkpt lon="31.103178" lat="-29.628033">
        <ele>188.841</ele>
        <time>2026-01-28T11:38:28.732Z</time>
      </trkpt>
      <trkpt lon="31.103895" lat="-29.627841">
        <ele>168.488</ele>
        <time>2026-01-28T11:38:30.036Z</time>
      </trkpt>
      <trkpt lon="31.104623" lat="-29.627612">
        <ele>149.508</ele>
        <time>2026-01-28T11:38:31.308Z</time>
      </trkpt>
      <trkpt lon="31.105341" lat="-29.627291">
        <ele>141.61</ele>
        <time>2026-01-28T11:38:32.604Z</time>
      </trkpt>
      <trkpt lon="31.106007" lat="-29.626857">
        <ele>137.594</ele>
        <time>2026-01-28T11:38:33.948Z</time>
      </trkpt>
      <trkpt lon="31.106827" lat="-29.626108">
        <ele>127.039</ele>
        <time>2026-01-28T11:38:35.876Z</time>
      </trkpt>
      <trkpt lon="31.107824" lat="-29.624956">
        <ele>108.232</ele>
        <time>2026-01-28T11:38:38.504Z</time>
      </trkpt>
      <trkpt lon="31.111945" lat="-29.620277">
        <ele>98.7088</ele>
        <time>2026-01-28T11:38:49.548Z</time>
      </trkpt>
      <trkpt lon="31.116103" lat="-29.615424">
        <ele>98.6384</ele>
        <time>2026-01-28T11:39:01.908Z</time>
      </trkpt>
      <trkpt lon="31.116308" lat="-29.615181">
        <ele>99.9046</ele>
        <time>2026-01-28T11:39:02.540Z</time>
      </trkpt>
      <trkpt lon="31.122850" lat="-29.607556">
        <ele>102.65</ele>
        <time>2026-01-28T11:39:23.376Z</time>
      </trkpt>
      <trkpt lon="31.123046" lat="-29.607329">
        <ele>103.103</ele>
        <time>2026-01-28T11:39:23.996Z</time>
      </trkpt>
      <trkpt lon="31.123253" lat="-29.607106">
        <ele>103.933</ele>
        <time>2026-01-28T11:39:24.636Z</time>
      </trkpt>
      <trkpt lon="31.125104" lat="-29.605140">
        <ele>102.284</ele>
        <time>2026-01-28T11:39:30.428Z</time>
      </trkpt>
      <trkpt lon="31.127656" lat="-29.602248">
        <ele>103.682</ele>
        <time>2026-01-28T11:39:38.872Z</time>
      </trkpt>
      <trkpt lon="31.127855" lat="-29.602018">
        <ele>105.026</ele>
        <time>2026-01-28T11:39:39.540Z</time>
      </trkpt>
      <trkpt lon="31.128030" lat="-29.601788">
        <ele>110.156</ele>
        <time>2026-01-28T11:39:40.192Z</time>
      </trkpt>
      <trkpt lon="31.128172" lat="-29.601581">
        <ele>122.578</ele>
        <time>2026-01-28T11:39:40.832Z</time>
      </trkpt>
      <trkpt lon="31.128294" lat="-29.601412">
        <ele>140.176</ele>
        <time>2026-01-28T11:39:41.488Z</time>
      </trkpt>
      <trkpt lon="31.128396" lat="-29.601275">
        <ele>158.501</ele>
        <time>2026-01-28T11:39:42.112Z</time>
      </trkpt>
      <trkpt lon="31.128562" lat="-29.601062">
        <ele>194.557</ele>
        <time>2026-01-28T11:39:43.376Z</time>
      </trkpt>
      <trkpt lon="31.128698" lat="-29.600891">
        <ele>226.579</ele>
        <time>2026-01-28T11:39:44.652Z</time>
      </trkpt>
      <trkpt lon="31.128818" lat="-29.600744">
        <ele>253.394</ele>
        <time>2026-01-28T11:39:45.944Z</time>
      </trkpt>
      <trkpt lon="31.128990" lat="-29.600539">
        <ele>280.883</ele>
        <time>2026-01-28T11:39:47.900Z</time>
      </trkpt>
      <trkpt lon="31.129211" lat="-29.600270">
        <ele>277.79</ele>
        <time>2026-01-28T11:39:49.836Z</time>
      </trkpt>
      <trkpt lon="31.129424" lat="-29.600039">
        <ele>267.927</ele>
        <time>2026-01-28T11:39:51.152Z</time>
      </trkpt>
      <trkpt lon="31.129836" lat="-29.599645">
        <ele>260.057</ele>
        <time>2026-01-28T11:39:53.052Z</time>
      </trkpt>
      <trkpt lon="31.131318" lat="-29.598307">
        <ele>284.533</ele>
        <time>2026-01-28T11:39:58.840Z</time>
      </trkpt>
      <trkpt lon="31.132472" lat="-29.597220">
        <ele>311.737</ele>
        <time>2026-01-28T11:40:03.400Z</time>
      </trkpt>
      <trkpt lon="31.133256" lat="-29.596446">
        <ele>329.099</ele>
        <time>2026-01-28T11:40:06.608Z</time>
      </trkpt>
      <trkpt lon="31.133387" lat="-29.596276">
        <ele>332.624</ele>
        <time>2026-01-28T11:40:07.256Z</time>
      </trkpt>
      <trkpt lon="31.133487" lat="-29.596093">
        <ele>335.866</ele>
        <time>2026-01-28T11:40:07.916Z</time>
      </trkpt>
      <trkpt lon="31.133547" lat="-29.595902">
        <ele>338.58</ele>
        <time>2026-01-28T11:40:08.572Z</time>
      </trkpt>
      <trkpt lon="31.133567" lat="-29.595704">
        <ele>340.705</ele>
        <time>2026-01-28T11:40:09.228Z</time>
      </trkpt>
      <trkpt lon="31.133547" lat="-29.595512">
        <ele>342.122</ele>
        <time>2026-01-28T11:40:09.868Z</time>
      </trkpt>
      <trkpt lon="31.133492" lat="-29.595332">
        <ele>342.934</ele>
        <time>2026-01-28T11:40:10.484Z</time>
      </trkpt>
      <trkpt lon="31.133401" lat="-29.595154">
        <ele>343.329</ele>
        <time>2026-01-28T11:40:11.120Z</time>
      </trkpt>
      <trkpt lon="31.133277" lat="-29.594989">
        <ele>343.466</ele>
        <time>2026-01-28T11:40:11.760Z</time>
      </trkpt>
      <trkpt lon="31.133126" lat="-29.594839">
        <ele>343.526</ele>
        <time>2026-01-28T11:40:12.404Z</time>
      </trkpt>
      <trkpt lon="31.132953" lat="-29.594709">
        <ele>343.457</ele>
        <time>2026-01-28T11:40:13.032Z</time>
      </trkpt>
      <trkpt lon="31.132758" lat="-29.594581">
        <ele>342.191</ele>
        <time>2026-01-28T11:40:13.680Z</time>
      </trkpt>
      <trkpt lon="31.131702" lat="-29.593913">
        <ele>333.546</ele>
        <time>2026-01-28T11:40:16.868Z</time>
      </trkpt>
      <trkpt lon="31.129585" lat="-29.592632">
        <ele>345.635</ele>
        <time>2026-01-28T11:40:22.684Z</time>
      </trkpt>
      <trkpt lon="31.127229" lat="-29.591509">
        <ele>361.093</ele>
        <time>2026-01-28T11:40:28.436Z</time>
      </trkpt>
      <trkpt lon="31.123938" lat="-29.590245">
        <ele>385.611</ele>
        <time>2026-01-28T11:40:36.132Z</time>
      </trkpt>
      <trkpt lon="31.117906" lat="-29.588061">
        <ele>392.805</ele>
        <time>2026-01-28T11:40:49.068Z</time>
      </trkpt>
      <trkpt lon="31.112616" lat="-29.586020">
        <ele>366.658</ele>
        <time>2026-01-28T11:40:59.364Z</time>
      </trkpt>
      <trkpt lon="31.111539" lat="-29.585749">
        <ele>367.031</ele>
        <time>2026-01-28T11:41:01.296Z</time>
      </trkpt>
      <trkpt lon="31.110826" lat="-29.585624">
        <ele>368.075</ele>
        <time>2026-01-28T11:41:02.564Z</time>
      </trkpt>
      <trkpt lon="31.110099" lat="-29.585557">
        <ele>372.021</ele>
        <time>2026-01-28T11:41:03.844Z</time>
      </trkpt>
      <trkpt lon="31.109351" lat="-29.585548">
        <ele>374.875</ele>
        <time>2026-01-28T11:41:05.160Z</time>
      </trkpt>
      <trkpt lon="31.108259" lat="-29.585639">
        <ele>375.996</ele>
        <time>2026-01-28T11:41:07.084Z</time>
      </trkpt>
      <trkpt lon="31.107527" lat="-29.585775">
        <ele>376.135</ele>
        <time>2026-01-28T11:41:08.392Z</time>
      </trkpt>
      <trkpt lon="31.106821" lat="-29.585977">
        <ele>376.61</ele>
        <time>2026-01-28T11:41:09.684Z</time>
      </trkpt>
      <trkpt lon="31.106146" lat="-29.586242">
        <ele>377.238</ele>
        <time>2026-01-28T11:41:10.960Z</time>
      </trkpt>
      <trkpt lon="31.105507" lat="-29.586563">
        <ele>377.903</ele>
        <time>2026-01-28T11:41:12.236Z</time>
      </trkpt>
      <trkpt lon="31.104888" lat="-29.586950">
        <ele>378.186</ele>
        <time>2026-01-28T11:41:13.532Z</time>
      </trkpt>
      <trkpt lon="31.104038" lat="-29.587615">
        <ele>377.713</ele>
        <time>2026-01-28T11:41:15.476Z</time>
      </trkpt>
      <trkpt lon="31.103280" lat="-29.588357">
        <ele>375.924</ele>
        <time>2026-01-28T11:41:17.416Z</time>
      </trkpt>
      <trkpt lon="31.098201" lat="-29.594526">
        <ele>383.96</ele>
        <time>2026-01-28T11:41:32.216Z</time>
      </trkpt>
      <trkpt lon="31.094861" lat="-29.599169">
        <ele>394.586</ele>
        <time>2026-01-28T11:41:43.172Z</time>
      </trkpt>
      <trkpt lon="31.091831" lat="-29.603905">
        <ele>398.34</ele>
        <time>2026-01-28T11:41:54.040Z</time>
      </trkpt>
      <trkpt lon="31.090962" lat="-29.604940">
        <ele>402.035</ele>
        <time>2026-01-28T11:41:56.604Z</time>
      </trkpt>
      <trkpt lon="31.090208" lat="-29.605671">
        <ele>403.98</ele>
        <time>2026-01-28T11:41:58.584Z</time>
      </trkpt>
      <trkpt lon="31.089404" lat="-29.606306">
        <ele>407.685</ele>
        <time>2026-01-28T11:42:00.496Z</time>
      </trkpt>
      <trkpt lon="31.088529" lat="-29.606871">
        <ele>411.475</ele>
        <time>2026-01-28T11:42:02.432Z</time>
      </trkpt>
      <trkpt lon="31.087606" lat="-29.607353">
        <ele>414.651</ele>
        <time>2026-01-28T11:42:04.360Z</time>
      </trkpt>
      <trkpt lon="31.086614" lat="-29.607756">
        <ele>417.045</ele>
        <time>2026-01-28T11:42:06.328Z</time>
      </trkpt>
      <trkpt lon="31.085263" lat="-29.608161">
        <ele>419.105</ele>
        <time>2026-01-28T11:42:08.888Z</time>
      </trkpt>
      <trkpt lon="31.084577" lat="-29.608326">
        <ele>419.293</ele>
        <time>2026-01-28T11:42:10.172Z</time>
      </trkpt>
      <trkpt lon="31.083148" lat="-29.608540">
        <ele>419.663</ele>
        <time>2026-01-28T11:42:12.748Z</time>
      </trkpt>
      <trkpt lon="31.082090" lat="-29.608589">
        <ele>422.409</ele>
        <time>2026-01-28T11:42:14.656Z</time>
      </trkpt>
      <trkpt lon="31.080668" lat="-29.608523">
        <ele>426.721</ele>
        <time>2026-01-28T11:42:17.196Z</time>
      </trkpt>
      <trkpt lon="31.078830" lat="-29.608259">
        <ele>429.194</ele>
        <time>2026-01-28T11:42:20.456Z</time>
      </trkpt>
      <trkpt lon="31.068863" lat="-29.606255">
        <ele>437.79</ele>
        <time>2026-01-28T11:42:37.172Z</time>
      </trkpt>
      <trkpt lon="31.050843" lat="-29.602095">
        <ele>452.496</ele>
        <time>2026-01-28T11:43:06.644Z</time>
      </trkpt>
      <trkpt lon="31.035759" lat="-29.596782">
        <ele>485.731</ele>
        <time>2026-01-28T11:43:32.292Z</time>
      </trkpt>
      <trkpt lon="31.017960" lat="-29.590379">
        <ele>495.907</ele>
        <time>2026-01-28T11:44:02.536Z</time>
      </trkpt>
      <trkpt lon="31.000654" lat="-29.584166">
        <ele>496.104</ele>
        <time>2026-01-28T11:44:32.896Z</time>
      </trkpt>
      <trkpt lon="30.993109" lat="-29.581672">
        <ele>518.898</ele>
        <time>2026-01-28T11:44:45.984Z</time>
      </trkpt>
      <trkpt lon="30.990795" lat="-29.581140">
        <ele>519.778</ele>
        <time>2026-01-28T11:44:49.880Z</time>
      </trkpt>
      <trkpt lon="30.989217" lat="-29.580927">
        <ele>519.366</ele>
        <time>2026-01-28T11:44:52.472Z</time>
      </trkpt>
      <trkpt lon="30.987654" lat="-29.580854">
        <ele>517.08</ele>
        <time>2026-01-28T11:44:55.016Z</time>
      </trkpt>
      <trkpt lon="30.986053" lat="-29.580922">
        <ele>514.651</ele>
        <time>2026-01-28T11:44:57.612Z</time>
      </trkpt>
      <trkpt lon="30.984463" lat="-29.581134">
        <ele>513.056</ele>
        <time>2026-01-28T11:45:00.224Z</time>
      </trkpt>
      <trkpt lon="30.982936" lat="-29.581478">
        <ele>511.53</ele>
        <time>2026-01-28T11:45:02.772Z</time>
      </trkpt>
      <trkpt lon="30.981430" lat="-29.581970">
        <ele>512.158</ele>
        <time>2026-01-28T11:45:05.368Z</time>
      </trkpt>
      <trkpt lon="30.979999" lat="-29.582589">
        <ele>513.447</ele>
        <time>2026-01-28T11:45:07.940Z</time>
      </trkpt>
      <trkpt lon="30.978654" lat="-29.583335">
        <ele>518.814</ele>
        <time>2026-01-28T11:45:10.504Z</time>
      </trkpt>
      <trkpt lon="30.977404" lat="-29.584195">
        <ele>524.298</ele>
        <time>2026-01-28T11:45:13.076Z</time>
      </trkpt>
      <trkpt lon="30.975978" lat="-29.585398">
        <ele>526.724</ele>
        <time>2026-01-28T11:45:16.268Z</time>
      </trkpt>
      <trkpt lon="30.974930" lat="-29.586448">
        <ele>530.773</ele>
        <time>2026-01-28T11:45:18.824Z</time>
      </trkpt>
      <trkpt lon="30.973761" lat="-29.587852">
        <ele>534.026</ele>
        <time>2026-01-28T11:45:22.028Z</time>
      </trkpt>
      <trkpt lon="30.972744" lat="-29.589349">
        <ele>533.13</ele>
        <time>2026-01-28T11:45:25.236Z</time>
      </trkpt>
      <trkpt lon="30.972069" lat="-29.590584">
        <ele>532.839</ele>
        <time>2026-01-28T11:45:27.756Z</time>
      </trkpt>
      <trkpt lon="30.971389" lat="-29.592190">
        <ele>537.148</ele>
        <time>2026-01-28T11:45:30.936Z</time>
      </trkpt>
      <trkpt lon="30.970891" lat="-29.593874">
        <ele>540.464</ele>
        <time>2026-01-28T11:45:34.172Z</time>
      </trkpt>
      <trkpt lon="30.970588" lat="-29.595533">
        <ele>543.595</ele>
        <time>2026-01-28T11:45:37.316Z</time>
      </trkpt>
      <trkpt lon="30.969827" lat="-29.601278">
        <ele>559.269</ele>
        <time>2026-01-28T11:45:48.140Z</time>
      </trkpt>
      <trkpt lon="30.969142" lat="-29.603627">
        <ele>562.938</ele>
        <time>2026-01-28T11:45:52.668Z</time>
      </trkpt>
      <trkpt lon="30.967670" lat="-29.607176">
        <ele>567.136</ele>
        <time>2026-01-28T11:45:59.704Z</time>
      </trkpt>
      <trkpt lon="30.964928" lat="-29.612445">
        <ele>573.423</ele>
        <time>2026-01-28T11:46:10.492Z</time>
      </trkpt>
      <trkpt lon="30.955589" lat="-29.626738">
        <ele>594.517</ele>
        <time>2026-01-28T11:46:40.880Z</time>
      </trkpt>
      <trkpt lon="30.950763" lat="-29.635260">
        <ele>597.983</ele>
        <time>2026-01-28T11:47:00.496Z</time>
      </trkpt>
      <trkpt lon="30.943625" lat="-29.650722">
        <ele>592.293</ele>
        <time>2026-01-28T11:47:31.016Z</time>
      </trkpt>
      <trkpt lon="30.942679" lat="-29.652263">
        <ele>591.161</ele>
        <time>2026-01-28T11:47:34.240Z</time>
      </trkpt>
      <trkpt lon="30.940095" lat="-29.655926">
        <ele>586.928</ele>
        <time>2026-01-28T11:47:42.124Z</time>
      </trkpt>
      <trkpt lon="30.939064" lat="-29.657091">
        <ele>583.216</ele>
        <time>2026-01-28T11:47:44.796Z</time>
      </trkpt>
      <trkpt lon="30.938173" lat="-29.657878">
        <ele>577.549</ele>
        <time>2026-01-28T11:47:46.776Z</time>
      </trkpt>
      <trkpt lon="30.937504" lat="-29.658348">
        <ele>571.38</ele>
        <time>2026-01-28T11:47:48.116Z</time>
      </trkpt>
      <trkpt lon="30.936790" lat="-29.658750">
        <ele>565.922</ele>
        <time>2026-01-28T11:47:49.416Z</time>
      </trkpt>
      <trkpt lon="30.933871" lat="-29.660161">
        <ele>592.207</ele>
        <time>2026-01-28T11:47:54.752Z</time>
      </trkpt>
      <trkpt lon="30.931515" lat="-29.661388">
        <ele>615.203</ele>
        <time>2026-01-28T11:47:59.388Z</time>
      </trkpt>
      <trkpt lon="30.927578" lat="-29.663702">
        <ele>622.55</ele>
        <time>2026-01-28T11:48:07.360Z</time>
      </trkpt>
      <trkpt lon="30.925395" lat="-29.665270">
        <ele>627.008</ele>
        <time>2026-01-28T11:48:12.044Z</time>
      </trkpt>
      <trkpt lon="30.924203" lat="-29.666307">
        <ele>625.059</ele>
        <time>2026-01-28T11:48:14.796Z</time>
      </trkpt>
      <trkpt lon="30.918477" lat="-29.672095">
        <ele>596.605</ele>
        <time>2026-01-28T11:48:28.968Z</time>
      </trkpt>
      <trkpt lon="30.914387" lat="-29.676160">
        <ele>567.164</ele>
        <time>2026-01-28T11:48:38.900Z</time>
      </trkpt>
      <trkpt lon="30.912539" lat="-29.677634">
        <ele>559.533</ele>
        <time>2026-01-28T11:48:42.852Z</time>
      </trkpt>
      <trkpt lon="30.909857" lat="-29.679326">
        <ele>569.587</ele>
        <time>2026-01-28T11:48:48.196Z</time>
      </trkpt>
      <trkpt lon="30.896586" lat="-29.687617">
        <ele>547.02</ele>
        <time>2026-01-28T11:49:17.660Z</time>
      </trkpt>
      <trkpt lon="30.894801" lat="-29.688809">
        <ele>511.043</ele>
        <time>2026-01-28T11:49:21.692Z</time>
      </trkpt>
      <trkpt lon="30.893969" lat="-29.689411">
        <ele>479.744</ele>
        <time>2026-01-28T11:49:23.716Z</time>
      </trkpt>
      <trkpt lon="30.893142" lat="-29.690026">
        <ele>440.05</ele>
        <time>2026-01-28T11:49:25.756Z</time>
      </trkpt>
      <trkpt lon="30.892580" lat="-29.690425">
        <ele>410.247</ele>
        <time>2026-01-28T11:49:27.112Z</time>
      </trkpt>
      <trkpt lon="30.892006" lat="-29.690816">
        <ele>378.914</ele>
        <time>2026-01-28T11:49:28.448Z</time>
      </trkpt>
      <trkpt lon="30.891425" lat="-29.691207">
        <ele>347.293</ele>
        <time>2026-01-28T11:49:29.748Z</time>
      </trkpt>
      <trkpt lon="30.890809" lat="-29.691633">
        <ele>313.743</ele>
        <time>2026-01-28T11:49:31.112Z</time>
      </trkpt>
      <trkpt lon="30.890200" lat="-29.692074">
        <ele>281.894</ele>
        <time>2026-01-28T11:49:32.452Z</time>
      </trkpt>
      <trkpt lon="30.889585" lat="-29.692540">
        <ele>255.595</ele>
        <time>2026-01-28T11:49:33.784Z</time>
      </trkpt>
      <trkpt lon="30.888664" lat="-29.693255">
        <ele>231.975</ele>
        <time>2026-01-28T11:49:35.776Z</time>
      </trkpt>
      <trkpt lon="30.887492" lat="-29.694152">
        <ele>220.641</ele>
        <time>2026-01-28T11:49:38.440Z</time>
      </trkpt>
      <trkpt lon="30.886344" lat="-29.694922">
        <ele>212.221</ele>
        <time>2026-01-28T11:49:41.100Z</time>
      </trkpt>
      <trkpt lon="30.885099" lat="-29.695592">
        <ele>208.63</ele>
        <time>2026-01-28T11:49:43.744Z</time>
      </trkpt>
      <trkpt lon="30.874350" lat="-29.700737">
        <ele>204.244</ele>
        <time>2026-01-28T11:50:04.708Z</time>
      </trkpt>
      <trkpt lon="30.873087" lat="-29.701563">
        <ele>204.077</ele>
        <time>2026-01-28T11:50:07.376Z</time>
      </trkpt>
      <trkpt lon="30.872227" lat="-29.702255">
        <ele>201.552</ele>
        <time>2026-01-28T11:50:09.348Z</time>
      </trkpt>
      <trkpt lon="30.871465" lat="-29.703031">
        <ele>198.181</ele>
        <time>2026-01-28T11:50:11.296Z</time>
      </trkpt>
      <trkpt lon="30.870784" lat="-29.703916">
        <ele>197.351</ele>
        <time>2026-01-28T11:50:13.336Z</time>
      </trkpt>
      <trkpt lon="30.870044" lat="-29.705154">
        <ele>201.898</ele>
        <time>2026-01-28T11:50:16.028Z</time>
      </trkpt>
      <trkpt lon="30.868884" lat="-29.707551">
        <ele>210.246</ele>
        <time>2026-01-28T11:50:21.288Z</time>
      </trkpt>
      <trkpt lon="30.868664" lat="-29.708070">
        <ele>219.263</ele>
        <time>2026-01-28T11:50:22.632Z</time>
      </trkpt>
      <trkpt lon="30.868402" lat="-29.708740">
        <ele>230.488</ele>
        <time>2026-01-28T11:50:24.632Z</time>
      </trkpt>
      <trkpt lon="30.868135" lat="-29.709482">
        <ele>243.095</ele>
        <time>2026-01-28T11:50:27.272Z</time>
      </trkpt>
      <trkpt lon="30.867840" lat="-29.710150">
        <ele>246.625</ele>
        <time>2026-01-28T11:50:29.928Z</time>
      </trkpt>
      <trkpt lon="30.867315" lat="-29.711140">
        <ele>251.556</ele>
        <time>2026-01-28T11:50:34.036Z</time>
      </trkpt>
      <trkpt lon="30.867223" lat="-29.711295">
        <ele>252.773</ele>
        <time>2026-01-28T11:50:34.708Z</time>
      </trkpt>
      <trkpt lon="30.867113" lat="-29.711439">
        <ele>254.19</ele>
        <time>2026-01-28T11:50:35.368Z</time>
      </trkpt>
      <trkpt lon="30.866978" lat="-29.711574">
        <ele>256.406</ele>
        <time>2026-01-28T11:50:36.032Z</time>
      </trkpt>
      <trkpt lon="30.866817" lat="-29.711695">
        <ele>259.486</ele>
        <time>2026-01-28T11:50:36.716Z</time>
      </trkpt>
      <trkpt lon="30.866643" lat="-29.711788">
        <ele>262.983</ele>
        <time>2026-01-28T11:50:37.388Z</time>
      </trkpt>
      <trkpt lon="30.866450" lat="-29.711856">
        <ele>266.754</ele>
        <time>2026-01-28T11:50:38.076Z</time>
      </trkpt>
      <trkpt lon="30.866249" lat="-29.711894">
        <ele>270.532</ele>
        <time>2026-01-28T11:50:38.756Z</time>
      </trkpt>
      <trkpt lon="30.866043" lat="-29.711904">
        <ele>274.317</ele>
        <time>2026-01-28T11:50:39.452Z</time>
      </trkpt>
      <trkpt lon="30.865838" lat="-29.711884">
        <ele>277.946</ele>
        <time>2026-01-28T11:50:40.160Z</time>
      </trkpt>
      <trkpt lon="30.865645" lat="-29.711836">
        <ele>281.223</ele>
        <time>2026-01-28T11:50:40.856Z</time>
      </trkpt>
      <trkpt lon="30.865471" lat="-29.711764">
        <ele>284.03</ele>
        <time>2026-01-28T11:50:41.516Z</time>
      </trkpt>
      <trkpt lon="30.865311" lat="-29.711666">
        <ele>286.44</ele>
        <time>2026-01-28T11:50:42.188Z</time>
      </trkpt>
      <trkpt lon="30.865168" lat="-29.711545">
        <ele>288.237</ele>
        <time>2026-01-28T11:50:42.864Z</time>
      </trkpt>
      <trkpt lon="30.865047" lat="-29.711404">
        <ele>289.359</ele>
        <time>2026-01-28T11:50:43.528Z</time>
      </trkpt>
      <trkpt lon="30.864947" lat="-29.711239">
        <ele>289.961</ele>
        <time>2026-01-28T11:50:44.216Z</time>
      </trkpt>
      <trkpt lon="30.864880" lat="-29.711070">
        <ele>290.252</ele>
        <time>2026-01-28T11:50:44.872Z</time>
      </trkpt>
      <trkpt lon="30.864839" lat="-29.710883">
        <ele>290.437</ele>
        <time>2026-01-28T11:50:45.544Z</time>
      </trkpt>
      <trkpt lon="30.864828" lat="-29.710695">
        <ele>290.636</ele>
        <time>2026-01-28T11:50:46.208Z</time>
      </trkpt>
      <trkpt lon="30.864844" lat="-29.710500">
        <ele>290.97</ele>
        <time>2026-01-28T11:50:46.884Z</time>
      </trkpt>
      <trkpt lon="30.864891" lat="-29.710298">
        <ele>291.603</ele>
        <time>2026-01-28T11:50:47.584Z</time>
      </trkpt>
      <trkpt lon="30.864962" lat="-29.710105">
        <ele>292.611</ele>
        <time>2026-01-28T11:50:48.260Z</time>
      </trkpt>
      <trkpt lon="30.865049" lat="-29.709934">
        <ele>293.958</ele>
        <time>2026-01-28T11:50:48.900Z</time>
      </trkpt>
      <trkpt lon="30.865168" lat="-29.709754">
        <ele>295.961</ele>
        <time>2026-01-28T11:50:49.600Z</time>
      </trkpt>
      <trkpt lon="30.865300" lat="-29.709597">
        <ele>298.14</ele>
        <time>2026-01-28T11:50:50.260Z</time>
      </trkpt>
      <trkpt lon="30.865442" lat="-29.709456">
        <ele>300.383</ele>
        <time>2026-01-28T11:50:50.900Z</time>
      </trkpt>
      <trkpt lon="30.865617" lat="-29.709316">
        <ele>302.778</ele>
        <time>2026-01-28T11:50:51.608Z</time>
      </trkpt>
      <trkpt lon="30.865792" lat="-29.709200">
        <ele>304.811</ele>
        <time>2026-01-28T11:50:52.260Z</time>
      </trkpt>
      <trkpt lon="30.865981" lat="-29.709099">
        <ele>306.602</ele>
        <time>2026-01-28T11:50:52.928Z</time>
      </trkpt>
      <trkpt lon="30.866186" lat="-29.709012">
        <ele>308.092</ele>
        <time>2026-01-28T11:50:53.608Z</time>
      </trkpt>
      <trkpt lon="30.866399" lat="-29.708945">
        <ele>309.269</ele>
        <time>2026-01-28T11:50:54.280Z</time>
      </trkpt>
      <trkpt lon="30.866619" lat="-29.708896">
        <ele>310.131</ele>
        <time>2026-01-28T11:50:54.952Z</time>
      </trkpt>
      <trkpt lon="30.866840" lat="-29.708868">
        <ele>310.664</ele>
        <time>2026-01-28T11:50:55.600Z</time>
      </trkpt>
      <trkpt lon="30.867074" lat="-29.708858">
        <ele>310.947</ele>
        <time>2026-01-28T11:50:56.284Z</time>
      </trkpt>
      <trkpt lon="30.867295" lat="-29.708868">
        <ele>311.008</ele>
        <time>2026-01-28T11:50:56.924Z</time>
      </trkpt>
      <trkpt lon="30.867526" lat="-29.708900">
        <ele>310.885</ele>
        <time>2026-01-28T11:50:57.588Z</time>
      </trkpt>
      <trkpt lon="30.867755" lat="-29.708954">
        <ele>310.608</ele>
        <time>2026-01-28T11:50:58.256Z</time>
      </trkpt>
      <trkpt lon="30.867978" lat="-29.709030">
        <ele>310.223</ele>
        <time>2026-01-28T11:50:58.932Z</time>
      </trkpt>
      <trkpt lon="30.868183" lat="-29.709125">
        <ele>309.805</ele>
        <time>2026-01-28T11:50:59.572Z</time>
      </trkpt>
      <trkpt lon="30.868390" lat="-29.709251">
        <ele>309.176</ele>
        <time>2026-01-28T11:51:00.264Z</time>
      </trkpt>
      <trkpt lon="30.868570" lat="-29.709397">
        <ele>308.303</ele>
        <time>2026-01-28T11:51:00.936Z</time>
      </trkpt>
      <trkpt lon="30.868735" lat="-29.709576">
        <ele>307.075</ele>
        <time>2026-01-28T11:51:01.636Z</time>
      </trkpt>
      <trkpt lon="30.868859" lat="-29.709763">
        <ele>305.569</ele>
        <time>2026-01-28T11:51:02.304Z</time>
      </trkpt>
      <trkpt lon="30.868954" lat="-29.709975">
        <ele>303.594</ele>
        <time>2026-01-28T11:51:02.988Z</time>
      </trkpt>
      <trkpt lon="30.869008" lat="-29.710185">
        <ele>301.343</ele>
        <time>2026-01-28T11:51:03.628Z</time>
      </trkpt>
      <trkpt lon="30.869025" lat="-29.710419">
        <ele>298.681</ele>
        <time>2026-01-28T11:51:04.308Z</time>
      </trkpt>
      <trkpt lon="30.868999" lat="-29.710654">
        <ele>295.971</ele>
        <time>2026-01-28T11:51:04.988Z</time>
      </trkpt>
      <trkpt lon="30.868925" lat="-29.710894">
        <ele>293.142</ele>
        <time>2026-01-28T11:51:05.696Z</time>
      </trkpt>
      <trkpt lon="30.868815" lat="-29.711105">
        <ele>290.648</ele>
        <time>2026-01-28T11:51:06.352Z</time>
      </trkpt>
      <trkpt lon="30.868668" lat="-29.711301">
        <ele>288.314</ele>
        <time>2026-01-28T11:51:07.008Z</time>
      </trkpt>
      <trkpt lon="30.868482" lat="-29.711479">
        <ele>286.138</ele>
        <time>2026-01-28T11:51:07.676Z</time>
      </trkpt>
      <trkpt lon="30.868265" lat="-29.711632">
        <ele>284.268</ele>
        <time>2026-01-28T11:51:08.356Z</time>
      </trkpt>
      <trkpt lon="30.868032" lat="-29.711750">
        <ele>282.89</ele>
        <time>2026-01-28T11:51:09.008Z</time>
      </trkpt>
      <trkpt lon="30.867758" lat="-29.711844">
        <ele>281.919</ele>
        <time>2026-01-28T11:51:09.712Z</time>
      </trkpt>
      <trkpt lon="30.867490" lat="-29.711895">
        <ele>281.422</ele>
        <time>2026-01-28T11:51:10.372Z</time>
      </trkpt>
      <trkpt lon="30.867216" lat="-29.711910">
        <ele>281.219</ele>
        <time>2026-01-28T11:51:11.044Z</time>
      </trkpt>
      <trkpt lon="30.866938" lat="-29.711887">
        <ele>281.218</ele>
        <time>2026-01-28T11:51:11.716Z</time>
      </trkpt>
      <trkpt lon="30.866678" lat="-29.711829">
        <ele>281.324</ele>
        <time>2026-01-28T11:51:12.376Z</time>
      </trkpt>
      <trkpt lon="30.866432" lat="-29.711736">
        <ele>281.443</ele>
        <time>2026-01-28T11:51:13.040Z</time>
      </trkpt>
      <trkpt lon="30.866204" lat="-29.711608">
        <ele>281.44</ele>
        <time>2026-01-28T11:51:13.716Z</time>
      </trkpt>
      <trkpt lon="30.865996" lat="-29.711445">
        <ele>281.186</ele>
        <time>2026-01-28T11:51:14.408Z</time>
      </trkpt>
      <trkpt lon="30.865829" lat="-29.711260">
        <ele>280.629</ele>
        <time>2026-01-28T11:51:15.084Z</time>
      </trkpt>
      <trkpt lon="30.865697" lat="-29.711052">
        <ele>279.75</ele>
        <time>2026-01-28T11:51:15.756Z</time>
      </trkpt>
      <trkpt lon="30.865608" lat="-29.710837">
        <ele>278.641</ele>
        <time>2026-01-28T11:51:16.416Z</time>
      </trkpt>
      <trkpt lon="30.865559" lat="-29.710605">
        <ele>277.291</ele>
        <time>2026-01-28T11:51:17.084Z</time>
      </trkpt>
      <trkpt lon="30.865552" lat="-29.710367">
        <ele>275.799</ele>
        <time>2026-01-28T11:51:17.760Z</time>
      </trkpt>
      <trkpt lon="30.865586" lat="-29.710138">
        <ele>274.371</ele>
        <time>2026-01-28T11:51:18.420Z</time>
      </trkpt>
      <trkpt lon="30.865659" lat="-29.709915">
        <ele>273.112</ele>
        <time>2026-01-28T11:51:19.076Z</time>
      </trkpt>
      <trkpt lon="30.865774" lat="-29.709696">
        <ele>272.079</ele>
        <time>2026-01-28T11:51:19.760Z</time>
      </trkpt>
      <trkpt lon="30.866092" lat="-29.709321">
        <ele>271.918</ele>
        <time>2026-01-28T11:51:21.084Z</time>
      </trkpt>
      <trkpt lon="30.866263" lat="-29.709156">
        <ele>274.909</ele>
        <time>2026-01-28T11:51:21.736Z</time>
      </trkpt>
      <trkpt lon="30.866435" lat="-29.708973">
        <ele>277.846</ele>
        <time>2026-01-28T11:51:22.440Z</time>
      </trkpt>
      <trkpt lon="30.866575" lat="-29.708783">
        <ele>278.917</ele>
        <time>2026-01-28T11:51:23.112Z</time>
      </trkpt>
      <trkpt lon="30.866785" lat="-29.708362">
        <ele>280.213</ele>
        <time>2026-01-28T11:51:24.464Z</time>
      </trkpt>
      <trkpt lon="30.866920" lat="-29.707939">
        <ele>276.36</ele>
        <time>2026-01-28T11:51:25.744Z</time>
      </trkpt>
      <trkpt lon="30.867049" lat="-29.706973">
        <ele>250.13</ele>
        <time>2026-01-28T11:51:28.388Z</time>
      </trkpt>
      <trkpt lon="30.867078" lat="-29.705628">
        <ele>229.053</ele>
        <time>2026-01-28T11:51:31.760Z</time>
      </trkpt>
      <trkpt lon="30.867073" lat="-29.704671">
        <ele>219.385</ele>
        <time>2026-01-28T11:51:34.524Z</time>
      </trkpt>
      <trkpt lon="30.867093" lat="-29.703895">
        <ele>218.101</ele>
        <time>2026-01-28T11:51:37.276Z</time>
      </trkpt>
      <trkpt lon="30.867195" lat="-29.701016">
        <ele>200.026</ele>
        <time>2026-01-28T11:51:48.084Z</time>
      </trkpt>
      <trkpt lon="30.867149" lat="-29.698371">
        <ele>194.769</ele>
        <time>2026-01-28T11:51:58.164Z</time>
      </trkpt>
      <trkpt lon="30.867248" lat="-29.697306">
        <ele>195.016</ele>
        <time>2026-01-28T11:52:02.268Z</time>
      </trkpt>
      <trkpt lon="30.867402" lat="-29.696631">
        <ele>191.856</ele>
        <time>2026-01-28T11:52:04.932Z</time>
      </trkpt>
      <trkpt lon="30.868483" lat="-29.693087">
        <ele>214.261</ele>
        <time>2026-01-28T11:52:18.964Z</time>
      </trkpt>
      <trkpt lon="30.868697" lat="-29.692213">
        <ele>228.39</ele>
        <time>2026-01-28T11:52:23.064Z</time>
      </trkpt>
      <trkpt lon="30.869232" lat="-29.690327">
        <ele>249.451</ele>
        <time>2026-01-28T11:52:30.516Z</time>
      </trkpt>
      <trkpt lon="30.869851" lat="-29.688253">
        <ele>272.182</ele>
        <time>2026-01-28T11:52:38.312Z</time>
      </trkpt>
      <trkpt lon="30.870231" lat="-29.686117">
        <ele>295.673</ele>
        <time>2026-01-28T11:52:46.156Z</time>
      </trkpt>
      <trkpt lon="30.870328" lat="-29.685304">
        <ele>309.316</ele>
        <time>2026-01-28T11:52:50.832Z</time>
      </trkpt>
      <trkpt lon="30.870332" lat="-29.684628">
        <ele>319.942</ele>
        <time>2026-01-28T11:52:53.480Z</time>
      </trkpt>
      <trkpt lon="30.870201" lat="-29.683564">
        <ele>314.329</ele>
        <time>2026-01-28T11:52:58.040Z</time>
      </trkpt>
      <trkpt lon="30.869590" lat="-29.680525">
        <ele>307.288</ele>
        <time>2026-01-28T11:53:09.928Z</time>
      </trkpt>
      <trkpt lon="30.869333" lat="-29.679719">
        <ele>304.906</ele>
        <time>2026-01-28T11:53:13.208Z</time>
      </trkpt>
      <trkpt lon="30.869176" lat="-29.679406">
        <ele>302.407</ele>
        <time>2026-01-28T11:53:14.520Z</time>
      </trkpt>
      <trkpt lon="30.868961" lat="-29.679104">
        <ele>299.762</ele>
        <time>2026-01-28T11:53:15.828Z</time>
      </trkpt>
      <trkpt lon="30.868825" lat="-29.678960">
        <ele>298.474</ele>
        <time>2026-01-28T11:53:16.500Z</time>
      </trkpt>
      <trkpt lon="30.868682" lat="-29.678836">
        <ele>297.333</ele>
        <time>2026-01-28T11:53:17.124Z</time>
      </trkpt>
      <trkpt lon="30.868512" lat="-29.678714">
        <ele>296.172</ele>
        <time>2026-01-28T11:53:17.788Z</time>
      </trkpt>
      <trkpt lon="30.868158" lat="-29.678516">
        <ele>294.181</ele>
        <time>2026-01-28T11:53:19.092Z</time>
      </trkpt>
      <trkpt lon="30.867411" lat="-29.678205">
        <ele>291.317</ele>
        <time>2026-01-28T11:53:21.728Z</time>
      </trkpt>
      <trkpt lon="30.866836" lat="-29.678028">
        <ele>289.863</ele>
        <time>2026-01-28T11:53:23.704Z</time>
      </trkpt>
      <trkpt lon="30.866243" lat="-29.677893">
        <ele>287.694</ele>
        <time>2026-01-28T11:53:25.732Z</time>
      </trkpt>
      <trkpt lon="30.862594" lat="-29.677354">
        <ele>266.629</ele>
        <time>2026-01-28T11:53:37.680Z</time>
      </trkpt>
      <trkpt lon="30.860368" lat="-29.677239">
        <ele>257.529</ele>
        <time>2026-01-28T11:53:44.944Z</time>
      </trkpt>
      <trkpt lon="30.858134" lat="-29.677122">
        <ele>244.418</ele>
        <time>2026-01-28T11:53:52.260Z</time>
      </trkpt>
      <trkpt lon="30.857318" lat="-29.677015">
        <ele>240.46</ele>
        <time>2026-01-28T11:53:54.916Z</time>
      </trkpt>
      <trkpt lon="30.856709" lat="-29.676943">
        <ele>236.69</ele>
        <time>2026-01-28T11:53:56.920Z</time>
      </trkpt>
      <trkpt lon="30.856300" lat="-29.676930">
        <ele>233.488</ele>
        <time>2026-01-28T11:53:58.264Z</time>
      </trkpt>
      <trkpt lon="30.855890" lat="-29.676951">
        <ele>230.432</ele>
        <time>2026-01-28T11:53:59.580Z</time>
      </trkpt>
      <trkpt lon="30.855457" lat="-29.677009">
        <ele>228.709</ele>
        <time>2026-01-28T11:54:00.948Z</time>
      </trkpt>
      <trkpt lon="30.855037" lat="-29.677102">
        <ele>227.963</ele>
        <time>2026-01-28T11:54:02.316Z</time>
      </trkpt>
      <trkpt lon="30.854631" lat="-29.677229">
        <ele>227.683</ele>
        <time>2026-01-28T11:54:03.712Z</time>
      </trkpt>
      <trkpt lon="30.854255" lat="-29.677386">
        <ele>227.495</ele>
        <time>2026-01-28T11:54:05.084Z</time>
      </trkpt>
      <trkpt lon="30.853906" lat="-29.677571">
        <ele>227.178</ele>
        <time>2026-01-28T11:54:06.444Z</time>
      </trkpt>
      <trkpt lon="30.852943" lat="-29.678203">
        <ele>225.889</ele>
        <time>2026-01-28T11:54:10.536Z</time>
      </trkpt>
      <trkpt lon="30.852379" lat="-29.678658">
        <ele>226.06</ele>
        <time>2026-01-28T11:54:13.192Z</time>
      </trkpt>
      <trkpt lon="30.851873" lat="-29.679148">
        <ele>226.235</ele>
        <time>2026-01-28T11:54:15.832Z</time>
      </trkpt>
      <trkpt lon="30.851318" lat="-29.679803">
        <ele>227.121</ele>
        <time>2026-01-28T11:54:19.148Z</time>
      </trkpt>
      <trkpt lon="30.850942" lat="-29.680352">
        <ele>226.778</ele>
        <time>2026-01-28T11:54:21.796Z</time>
      </trkpt>
      <trkpt lon="30.850628" lat="-29.680926">
        <ele>226.791</ele>
        <time>2026-01-28T11:54:24.444Z</time>
      </trkpt>
      <trkpt lon="30.850442" lat="-29.681369">
        <ele>228.107</ele>
        <time>2026-01-28T11:54:26.428Z</time>
      </trkpt>
      <trkpt lon="30.850364" lat="-29.681671">
        <ele>229.472</ele>
        <time>2026-01-28T11:54:27.752Z</time>
      </trkpt>
      <trkpt lon="30.850331" lat="-29.681972">
        <ele>230.8</ele>
        <time>2026-01-28T11:54:29.060Z</time>
      </trkpt>
      <trkpt lon="30.850344" lat="-29.682275">
        <ele>231.881</ele>
        <time>2026-01-28T11:54:30.396Z</time>
      </trkpt>
      <trkpt lon="30.850398" lat="-29.682566">
        <ele>232.649</ele>
        <time>2026-01-28T11:54:31.704Z</time>
      </trkpt>
      <trkpt lon="30.850492" lat="-29.682863">
        <ele>233.069</ele>
        <time>2026-01-28T11:54:33.088Z</time>
      </trkpt>
      <trkpt lon="30.850747" lat="-29.683420">
        <ele>233.099</ele>
        <time>2026-01-28T11:54:35.768Z</time>
      </trkpt>
      <trkpt lon="30.851483" lat="-29.684625">
        <ele>232.023</ele>
        <time>2026-01-28T11:54:41.744Z</time>
      </trkpt>
      <trkpt lon="30.851796" lat="-29.685011">
        <ele>230.941</ele>
        <time>2026-01-28T11:54:43.760Z</time>
      </trkpt>
      <trkpt lon="30.852286" lat="-29.685503">
        <ele>230.127</ele>
        <time>2026-01-28T11:54:46.500Z</time>
      </trkpt>
      <trkpt lon="30.854233" lat="-29.687282">
        <ele>223.785</ele>
        <time>2026-01-28T11:54:56.520Z</time>
      </trkpt>
      <trkpt lon="30.854452" lat="-29.687557">
        <ele>222.389</ele>
        <time>2026-01-28T11:54:57.880Z</time>
      </trkpt>
      <trkpt lon="30.855702" lat="-29.689257">
        <ele>219.153</ele>
        <time>2026-01-28T11:55:06.108Z</time>
      </trkpt>
      <trkpt lon="30.856066" lat="-29.689631">
        <ele>217.307</ele>
        <time>2026-01-28T11:55:08.128Z</time>
      </trkpt>
      <trkpt lon="30.856758" lat="-29.690201">
        <ele>214.623</ele>
        <time>2026-01-28T11:55:11.500Z</time>
      </trkpt>
      <trkpt lon="30.858056" lat="-29.691151">
        <ele>210.841</ele>
        <time>2026-01-28T11:55:17.512Z</time>
      </trkpt>
      <trkpt lon="30.860422" lat="-29.692559">
        <ele>203.028</ele>
        <time>2026-01-28T11:55:27.628Z</time>
      </trkpt>
      <trkpt lon="30.862531" lat="-29.694049">
        <ele>193.587</ele>
        <time>2026-01-28T11:55:37.080Z</time>
      </trkpt>
      <trkpt lon="30.863902" lat="-29.694964">
        <ele>190.533</ele>
        <time>2026-01-28T11:55:43.100Z</time>
      </trkpt>
      <trkpt lon="30.864321" lat="-29.695304">
        <ele>189.481</ele>
        <time>2026-01-28T11:55:45.112Z</time>
      </trkpt>
      <trkpt lon="30.865201" lat="-29.696177">
        <ele>186.858</ele>
        <time>2026-01-28T11:55:49.828Z</time>
      </trkpt>
      <trkpt lon="30.866593" lat="-29.697806">
        <ele>181.952</ele>
        <time>2026-01-28T11:55:58.064Z</time>
      </trkpt>
      <trkpt lon="30.866977" lat="-29.698377">
        <ele>181.377</ele>
        <time>2026-01-28T11:56:00.756Z</time>
      </trkpt>
      <trkpt lon="30.867289" lat="-29.698978">
        <ele>180.577</ele>
        <time>2026-01-28T11:56:03.464Z</time>
      </trkpt>
      <trkpt lon="30.868395" lat="-29.701884">
        <ele>180.674</ele>
        <time>2026-01-28T11:56:16.324Z</time>
      </trkpt>
      <trkpt lon="30.868773" lat="-29.703283">
        <ele>179.997</ele>
        <time>2026-01-28T11:56:22.468Z</time>
      </trkpt>
      <trkpt lon="30.868834" lat="-29.703743">
        <ele>180.256</ele>
        <time>2026-01-28T11:56:24.448Z</time>
      </trkpt>
      <trkpt lon="30.868842" lat="-29.704199">
        <ele>179.441</ele>
        <time>2026-01-28T11:56:26.396Z</time>
      </trkpt>
      <trkpt lon="30.868673" lat="-29.707768">
        <ele>198.575</ele>
        <time>2026-01-28T11:56:41.080Z</time>
      </trkpt>
      <trkpt lon="30.868772" lat="-29.710439">
        <ele>214.416</ele>
        <time>2026-01-28T11:56:52.624Z</time>
      </trkpt>
      <trkpt lon="30.868885" lat="-29.711575">
        <ele>217.585</ele>
        <time>2026-01-28T11:56:57.336Z</time>
      </trkpt>
      <trkpt lon="30.868843" lat="-29.713892">
        <ele>226.463</ele>
        <time>2026-01-28T11:57:06.632Z</time>
      </trkpt>
      <trkpt lon="30.868948" lat="-29.714712">
        <ele>228.464</ele>
        <time>2026-01-28T11:57:09.976Z</time>
      </trkpt>
      <trkpt lon="30.869434" lat="-29.716548">
        <ele>233.175</ele>
        <time>2026-01-28T11:57:17.500Z</time>
      </trkpt>
      <trkpt lon="30.870037" lat="-29.718178">
        <ele>257.216</ele>
        <time>2026-01-28T11:57:24.336Z</time>
      </trkpt>
      <trkpt lon="30.870302" lat="-29.718723">
        <ele>273.97</ele>
        <time>2026-01-28T11:57:26.976Z</time>
      </trkpt>
      <trkpt lon="30.870624" lat="-29.719233">
        <ele>288.07</ele>
        <time>2026-01-28T11:57:29.720Z</time>
      </trkpt>
      <trkpt lon="30.871383" lat="-29.720213">
        <ele>304.994</ele>
        <time>2026-01-28T11:57:35.048Z</time>
      </trkpt>
      <trkpt lon="30.871965" lat="-29.720832">
        <ele>316.126</ele>
        <time>2026-01-28T11:57:38.404Z</time>
      </trkpt>
      <trkpt lon="30.872347" lat="-29.721171">
        <ele>324.676</ele>
        <time>2026-01-28T11:57:40.392Z</time>
      </trkpt>
      <trkpt lon="30.872629" lat="-29.721377">
        <ele>331.233</ele>
        <time>2026-01-28T11:57:41.752Z</time>
      </trkpt>
      <trkpt lon="30.873069" lat="-29.721636">
        <ele>341.34</ele>
        <time>2026-01-28T11:57:43.740Z</time>
      </trkpt>
      <trkpt lon="30.873521" lat="-29.721845">
        <ele>351.122</ele>
        <time>2026-01-28T11:57:45.688Z</time>
      </trkpt>
      <trkpt lon="30.875128" lat="-29.722411">
        <ele>379.987</ele>
        <time>2026-01-28T11:57:52.324Z</time>
      </trkpt>
      <trkpt lon="30.875809" lat="-29.722676">
        <ele>390.752</ele>
        <time>2026-01-28T11:57:55.088Z</time>
      </trkpt>
      <trkpt lon="30.876131" lat="-29.722856">
        <ele>395.5</ele>
        <time>2026-01-28T11:57:56.468Z</time>
      </trkpt>
      <trkpt lon="30.876416" lat="-29.723068">
        <ele>399.364</ele>
        <time>2026-01-28T11:57:57.788Z</time>
      </trkpt>
      <trkpt lon="30.876683" lat="-29.723319">
        <ele>403.395</ele>
        <time>2026-01-28T11:57:59.144Z</time>
      </trkpt>
      <trkpt lon="30.876924" lat="-29.723603">
        <ele>408.155</ele>
        <time>2026-01-28T11:58:00.520Z</time>
      </trkpt>
      <trkpt lon="30.877214" lat="-29.724062">
        <ele>416.498</ele>
        <time>2026-01-28T11:58:02.548Z</time>
      </trkpt>
      <trkpt lon="30.877425" lat="-29.724548">
        <ele>426.195</ele>
        <time>2026-01-28T11:58:04.564Z</time>
      </trkpt>
      <trkpt lon="30.877526" lat="-29.724878">
        <ele>433.1</ele>
        <time>2026-01-28T11:58:05.908Z</time>
      </trkpt>
      <trkpt lon="30.877587" lat="-29.725215">
        <ele>439.443</ele>
        <time>2026-01-28T11:58:07.248Z</time>
      </trkpt>
      <trkpt lon="30.877594" lat="-29.725557">
        <ele>444.55</ele>
        <time>2026-01-28T11:58:08.588Z</time>
      </trkpt>
      <trkpt lon="30.877553" lat="-29.726418">
        <ele>456.168</ele>
        <time>2026-01-28T11:58:11.912Z</time>
      </trkpt>
      <trkpt lon="30.877599" lat="-29.726922">
        <ele>465.344</ele>
        <time>2026-01-28T11:58:13.872Z</time>
      </trkpt>
      <trkpt lon="30.877775" lat="-29.727776">
        <ele>480.984</ele>
        <time>2026-01-28T11:58:17.320Z</time>
      </trkpt>
      <trkpt lon="30.878291" lat="-29.729635">
        <ele>505.58</ele>
        <time>2026-01-28T11:58:24.564Z</time>
      </trkpt>
      <trkpt lon="30.878572" lat="-29.731081">
        <ele>528.734</ele>
        <time>2026-01-28T11:58:29.892Z</time>
      </trkpt>
      <trkpt lon="30.878701" lat="-29.732557">
        <ele>549.093</ele>
        <time>2026-01-28T11:58:35.268Z</time>
      </trkpt>
      <trkpt lon="30.878679" lat="-29.733670">
        <ele>563.18</ele>
        <time>2026-01-28T11:58:39.248Z</time>
      </trkpt>
      <trkpt lon="30.878481" lat="-29.735492">
        <ele>562.884</ele>
        <time>2026-01-28T11:58:45.324Z</time>
      </trkpt>
      <trkpt lon="30.878397" lat="-29.736192">
        <ele>551.136</ele>
        <time>2026-01-28T11:58:47.324Z</time>
      </trkpt>
      <trkpt lon="30.878314" lat="-29.736988">
        <ele>533.128</ele>
        <time>2026-01-28T11:58:49.252Z</time>
      </trkpt>
      <trkpt lon="30.878285" lat="-29.737936">
        <ele>516.98</ele>
        <time>2026-01-28T11:58:51.260Z</time>
      </trkpt>
      <trkpt lon="30.878376" lat="-29.738979">
        <ele>502.472</ele>
        <time>2026-01-28T11:58:53.304Z</time>
      </trkpt>
      <trkpt lon="30.878595" lat="-29.740018">
        <ele>487.37</ele>
        <time>2026-01-28T11:58:55.276Z</time>
      </trkpt>
      <trkpt lon="30.878950" lat="-29.741090">
        <ele>471.948</ele>
        <time>2026-01-28T11:58:57.308Z</time>
      </trkpt>
      <trkpt lon="30.879755" lat="-29.742860">
        <ele>451.929</ele>
        <time>2026-01-28T11:59:00.796Z</time>
      </trkpt>
      <trkpt lon="30.882002" lat="-29.746740">
        <ele>429.725</ele>
        <time>2026-01-28T11:59:08.552Z</time>
      </trkpt>
      <trkpt lon="30.884603" lat="-29.750431">
        <ele>411.914</ele>
        <time>2026-01-28T11:59:16.644Z</time>
      </trkpt>
      <trkpt lon="30.887282" lat="-29.753551">
        <ele>385.756</ele>
        <time>2026-01-28T11:59:24.044Z</time>
      </trkpt>
      <trkpt lon="30.890118" lat="-29.756498">
        <ele>356.227</ele>
        <time>2026-01-28T11:59:31.484Z</time>
      </trkpt>
      <trkpt lon="30.891922" lat="-29.758280">
        <ele>336.79</ele>
        <time>2026-01-28T11:59:36.132Z</time>
      </trkpt>
      <trkpt lon="30.892810" lat="-29.758959">
        <ele>327.371</ele>
        <time>2026-01-28T11:59:38.140Z</time>
      </trkpt>
      <trkpt lon="30.893823" lat="-29.759562">
        <ele>315.774</ele>
        <time>2026-01-28T11:59:40.212Z</time>
      </trkpt>
      <trkpt lon="30.894540" lat="-29.759888">
        <ele>306.645</ele>
        <time>2026-01-28T11:59:41.572Z</time>
      </trkpt>
      <trkpt lon="30.895307" lat="-29.760157">
        <ele>296.179</ele>
        <time>2026-01-28T11:59:42.948Z</time>
      </trkpt>
      <trkpt lon="30.896496" lat="-29.760452">
        <ele>280.112</ele>
        <time>2026-01-28T11:59:44.972Z</time>
      </trkpt>
      <trkpt lon="30.897741" lat="-29.760636">
        <ele>265.139</ele>
        <time>2026-01-28T11:59:47.012Z</time>
      </trkpt>
      <trkpt lon="30.900677" lat="-29.761016">
        <ele>246.695</ele>
        <time>2026-01-28T11:59:51.752Z</time>
      </trkpt>
      <trkpt lon="30.903968" lat="-29.761714">
        <ele>268.777</ele>
        <time>2026-01-28T11:59:57.148Z</time>
      </trkpt>
      <trkpt lon="30.905859" lat="-29.762227">
        <ele>294.572</ele>
        <time>2026-01-28T12:00:00.588Z</time>
      </trkpt>
      <trkpt lon="30.908258" lat="-29.763074">
        <ele>317.14</ele>
        <time>2026-01-28T12:00:05.380Z</time>
      </trkpt>
      <trkpt lon="30.913609" lat="-29.765171">
        <ele>304.877</ele>
        <time>2026-01-28T12:00:15.940Z</time>
      </trkpt>
      <trkpt lon="30.915105" lat="-29.765527">
        <ele>296.151</ele>
        <time>2026-01-28T12:00:18.556Z</time>
      </trkpt>
      <trkpt lon="30.916663" lat="-29.765750">
        <ele>287.983</ele>
        <time>2026-01-28T12:00:21.140Z</time>
      </trkpt>
      <trkpt lon="30.918287" lat="-29.765834">
        <ele>283.658</ele>
        <time>2026-01-28T12:00:23.768Z</time>
      </trkpt>
      <trkpt lon="30.919923" lat="-29.765768">
        <ele>283.762</ele>
        <time>2026-01-28T12:00:26.416Z</time>
      </trkpt>
      <trkpt lon="30.921537" lat="-29.765556">
        <ele>288.342</ele>
        <time>2026-01-28T12:00:29.092Z</time>
      </trkpt>
      <trkpt lon="30.923086" lat="-29.765238">
        <ele>279.029</ele>
        <time>2026-01-28T12:00:31.828Z</time>
      </trkpt>
      <trkpt lon="30.924147" lat="-29.764997">
        <ele>254.26</ele>
        <time>2026-01-28T12:00:33.852Z</time>
      </trkpt>
      <trkpt lon="30.924845" lat="-29.764830">
        <ele>234.406</ele>
        <time>2026-01-28T12:00:35.228Z</time>
      </trkpt>
      <trkpt lon="30.925514" lat="-29.764661">
        <ele>212.672</ele>
        <time>2026-01-28T12:00:36.556Z</time>
      </trkpt>
      <trkpt lon="30.926228" lat="-29.764470">
        <ele>187.752</ele>
        <time>2026-01-28T12:00:37.920Z</time>
      </trkpt>
      <trkpt lon="30.927001" lat="-29.764253">
        <ele>163.151</ele>
        <time>2026-01-28T12:00:39.260Z</time>
      </trkpt>
      <trkpt lon="30.927843" lat="-29.764010">
        <ele>141.301</ele>
        <time>2026-01-28T12:00:40.620Z</time>
      </trkpt>
      <trkpt lon="30.929155" lat="-29.763640">
        <ele>119.156</ele>
        <time>2026-01-28T12:00:42.612Z</time>
      </trkpt>
      <trkpt lon="30.930520" lat="-29.763343">
        <ele>110.781</ele>
        <time>2026-01-28T12:00:44.584Z</time>
      </trkpt>
      <trkpt lon="30.931481" lat="-29.763251">
        <ele>109.899</ele>
        <time>2026-01-28T12:00:45.948Z</time>
      </trkpt>
      <trkpt lon="30.932403" lat="-29.763268">
        <ele>110.969</ele>
        <time>2026-01-28T12:00:47.264Z</time>
      </trkpt>
      <trkpt lon="30.933291" lat="-29.763387">
        <ele>113.077</ele>
        <time>2026-01-28T12:00:48.568Z</time>
      </trkpt>
      <trkpt lon="30.934176" lat="-29.763616">
        <ele>115.578</ele>
        <time>2026-01-28T12:00:49.916Z</time>
      </trkpt>
      <trkpt lon="30.934972" lat="-29.763929">
        <ele>118.102</ele>
        <time>2026-01-28T12:00:51.196Z</time>
      </trkpt>
      <trkpt lon="30.936825" lat="-29.764876">
        <ele>136.073</ele>
        <time>2026-01-28T12:00:54.512Z</time>
      </trkpt>
      <trkpt lon="30.937562" lat="-29.765168">
        <ele>146.173</ele>
        <time>2026-01-28T12:00:55.832Z</time>
      </trkpt>
      <trkpt lon="30.938322" lat="-29.765371">
        <ele>152.724</ele>
        <time>2026-01-28T12:00:57.136Z</time>
      </trkpt>
      <trkpt lon="30.939108" lat="-29.765487">
        <ele>156.567</ele>
        <time>2026-01-28T12:00:58.468Z</time>
      </trkpt>
      <trkpt lon="30.939897" lat="-29.765526">
        <ele>159.42</ele>
        <time>2026-01-28T12:00:59.780Z</time>
      </trkpt>
      <trkpt lon="30.940684" lat="-29.765490">
        <ele>162.462</ele>
        <time>2026-01-28T12:01:01.084Z</time>
      </trkpt>
      <trkpt lon="30.941457" lat="-29.765371">
        <ele>166.241</ele>
        <time>2026-01-28T12:01:02.376Z</time>
      </trkpt>
      <trkpt lon="30.942234" lat="-29.765159">
        <ele>170.522</ele>
        <time>2026-01-28T12:01:03.732Z</time>
      </trkpt>
      <trkpt lon="30.942955" lat="-29.764874">
        <ele>175.339</ele>
        <time>2026-01-28T12:01:05.072Z</time>
      </trkpt>
      <trkpt lon="30.945057" lat="-29.763939">
        <ele>194.108</ele>
        <time>2026-01-28T12:01:09.088Z</time>
      </trkpt>
      <trkpt lon="30.946425" lat="-29.763366">
        <ele>209.62</ele>
        <time>2026-01-28T12:01:11.772Z</time>
      </trkpt>
      <trkpt lon="30.947043" lat="-29.762977">
        <ele>214.59</ele>
        <time>2026-01-28T12:01:13.136Z</time>
      </trkpt>
      <trkpt lon="30.947578" lat="-29.762544">
        <ele>217.893</ele>
        <time>2026-01-28T12:01:14.444Z</time>
      </trkpt>
      <trkpt lon="30.948329" lat="-29.761777">
        <ele>224.687</ele>
        <time>2026-01-28T12:01:16.488Z</time>
      </trkpt>
      <trkpt lon="30.948975" lat="-29.760953">
        <ele>233.431</ele>
        <time>2026-01-28T12:01:18.512Z</time>
      </trkpt>
      <trkpt lon="30.949698" lat="-29.759784">
        <ele>245.485</ele>
        <time>2026-01-28T12:01:21.176Z</time>
      </trkpt>
      <trkpt lon="30.950549" lat="-29.757943">
        <ele>265.912</ele>
        <time>2026-01-28T12:01:25.180Z</time>
      </trkpt>
      <trkpt lon="30.951182" lat="-29.756034">
        <ele>288.793</ele>
        <time>2026-01-28T12:01:29.224Z</time>
      </trkpt>
      <trkpt lon="30.951593" lat="-29.754107">
        <ele>311.764</ele>
        <time>2026-01-28T12:01:33.232Z</time>
      </trkpt>
      <trkpt lon="30.951874" lat="-29.751808">
        <ele>333.895</ele>
        <time>2026-01-28T12:01:38.020Z</time>
      </trkpt>
      <trkpt lon="30.952469" lat="-29.747535">
        <ele>358.11</ele>
        <time>2026-01-28T12:01:46.752Z</time>
      </trkpt>
      <trkpt lon="30.953007" lat="-29.744173">
        <ele>381.378</ele>
        <time>2026-01-28T12:01:53.512Z</time>
      </trkpt>
      <trkpt lon="30.953689" lat="-29.740277">
        <ele>406.144</ele>
        <time>2026-01-28T12:02:01.560Z</time>
      </trkpt>
      <trkpt lon="30.954091" lat="-29.736747">
        <ele>394.235</ele>
        <time>2026-01-28T12:02:08.860Z</time>
      </trkpt>
      <trkpt lon="30.954048" lat="-29.736430">
        <ele>394.799</ele>
        <time>2026-01-28T12:02:09.520Z</time>
      </trkpt>
      <trkpt lon="30.953950" lat="-29.736115">
        <ele>395.57</ele>
        <time>2026-01-28T12:02:10.188Z</time>
      </trkpt>
      <trkpt lon="30.953797" lat="-29.735806">
        <ele>396.019</ele>
        <time>2026-01-28T12:02:10.880Z</time>
      </trkpt>
      <trkpt lon="30.953608" lat="-29.735526">
        <ele>395.582</ele>
        <time>2026-01-28T12:02:11.544Z</time>
      </trkpt>
      <trkpt lon="30.953376" lat="-29.735258">
        <ele>393.964</ele>
        <time>2026-01-28T12:02:12.236Z</time>
      </trkpt>
      <trkpt lon="30.953116" lat="-29.735016">
        <ele>391.254</ele>
        <time>2026-01-28T12:02:12.892Z</time>
      </trkpt>
      <trkpt lon="30.952816" lat="-29.734794">
        <ele>387.815</ele>
        <time>2026-01-28T12:02:13.576Z</time>
      </trkpt>
      <trkpt lon="30.952499" lat="-29.734609">
        <ele>384.757</ele>
        <time>2026-01-28T12:02:14.244Z</time>
      </trkpt>
      <trkpt lon="30.951754" lat="-29.734301">
        <ele>379.078</ele>
        <time>2026-01-28T12:02:15.608Z</time>
      </trkpt>
      <trkpt lon="30.950954" lat="-29.734084">
        <ele>372.712</ele>
        <time>2026-01-28T12:02:16.960Z</time>
      </trkpt>
      <trkpt lon="30.947949" lat="-29.733589">
        <ele>360.504</ele>
        <time>2026-01-28T12:02:21.680Z</time>
      </trkpt>
      <trkpt lon="30.939732" lat="-29.732492">
        <ele>384.965</ele>
        <time>2026-01-28T12:02:34.560Z</time>
      </trkpt>
      <trkpt lon="30.937414" lat="-29.731949">
        <ele>408.322</ele>
        <time>2026-01-28T12:02:38.660Z</time>
      </trkpt>
      <trkpt lon="30.933865" lat="-29.730839">
        <ele>425.822</ele>
        <time>2026-01-28T12:02:45.332Z</time>
      </trkpt>
      <trkpt lon="30.930368" lat="-29.729631">
        <ele>449.099</ele>
        <time>2026-01-28T12:02:52.060Z</time>
      </trkpt>
      <trkpt lon="30.925718" lat="-29.728023">
        <ele>448.413</ele>
        <time>2026-01-28T12:03:00.880Z</time>
      </trkpt>
      <trkpt lon="30.920362" lat="-29.725318">
        <ele>470.918</ele>
        <time>2026-01-28T12:03:10.872Z</time>
      </trkpt>
      <trkpt lon="30.919064" lat="-29.724549">
        <ele>487.208</ele>
        <time>2026-01-28T12:03:13.584Z</time>
      </trkpt>
      <trkpt lon="30.917030" lat="-29.723103">
        <ele>510.111</ele>
        <time>2026-01-28T12:03:18.284Z</time>
      </trkpt>
      <trkpt lon="30.915435" lat="-29.721690">
        <ele>519.478</ele>
        <time>2026-01-28T12:03:22.336Z</time>
      </trkpt>
      <trkpt lon="30.905463" lat="-29.712503">
        <ele>493.425</ele>
        <time>2026-01-28T12:03:47.416Z</time>
      </trkpt>
      <trkpt lon="30.903315" lat="-29.710886">
        <ele>474.67</ele>
        <time>2026-01-28T12:03:52.136Z</time>
      </trkpt>
      <trkpt lon="30.902369" lat="-29.710300">
        <ele>463.247</ele>
        <time>2026-01-28T12:03:54.184Z</time>
      </trkpt>
      <trkpt lon="30.901407" lat="-29.709817">
        <ele>445.352</ele>
        <time>2026-01-28T12:03:56.212Z</time>
      </trkpt>
      <trkpt lon="30.900738" lat="-29.709554">
        <ele>431.023</ele>
        <time>2026-01-28T12:03:57.564Z</time>
      </trkpt>
      <trkpt lon="30.900045" lat="-29.709352">
        <ele>418.508</ele>
        <time>2026-01-28T12:03:58.900Z</time>
      </trkpt>
      <trkpt lon="30.899313" lat="-29.709212">
        <ele>408.064</ele>
        <time>2026-01-28T12:04:00.264Z</time>
      </trkpt>
      <trkpt lon="30.898568" lat="-29.709129">
        <ele>397.863</ele>
        <time>2026-01-28T12:04:01.620Z</time>
      </trkpt>
      <trkpt lon="30.897839" lat="-29.709105">
        <ele>389.769</ele>
        <time>2026-01-28T12:04:02.952Z</time>
      </trkpt>
      <trkpt lon="30.897113" lat="-29.709142">
        <ele>383.726</ele>
        <time>2026-01-28T12:04:04.272Z</time>
      </trkpt>
      <trkpt lon="30.896385" lat="-29.709241">
        <ele>378.34</ele>
        <time>2026-01-28T12:04:05.632Z</time>
      </trkpt>
      <trkpt lon="30.895693" lat="-29.709397">
        <ele>371.554</ele>
        <time>2026-01-28T12:04:06.984Z</time>
      </trkpt>
      <trkpt lon="30.895035" lat="-29.709614">
        <ele>362.348</ele>
        <time>2026-01-28T12:04:08.288Z</time>
      </trkpt>
      <trkpt lon="30.894349" lat="-29.709911">
        <ele>350.51</ele>
        <time>2026-01-28T12:04:09.636Z</time>
      </trkpt>
      <trkpt lon="30.893310" lat="-29.710468">
        <ele>331.646</ele>
        <time>2026-01-28T12:04:11.628Z</time>
      </trkpt>
      <trkpt lon="30.889684" lat="-29.712452">
        <ele>343.756</ele>
        <time>2026-01-28T12:04:18.188Z</time>
      </trkpt>
      <trkpt lon="30.888905" lat="-29.712748">
        <ele>351.552</ele>
        <time>2026-01-28T12:04:19.532Z</time>
      </trkpt>
      <trkpt lon="30.888121" lat="-29.712978">
        <ele>357.871</ele>
        <time>2026-01-28T12:04:20.840Z</time>
      </trkpt>
      <trkpt lon="30.887330" lat="-29.713145">
        <ele>362.671</ele>
        <time>2026-01-28T12:04:22.120Z</time>
      </trkpt>
      <trkpt lon="30.886065" lat="-29.713296">
        <ele>368.681</ele>
        <time>2026-01-28T12:04:24.152Z</time>
      </trkpt>
      <trkpt lon="30.884845" lat="-29.713325">
        <ele>375.391</ele>
        <time>2026-01-28T12:04:26.108Z</time>
      </trkpt>
      <trkpt lon="30.883620" lat="-29.713231">
        <ele>381.991</ele>
        <time>2026-01-28T12:04:28.068Z</time>
      </trkpt>
      <trkpt lon="30.882825" lat="-29.713098">
        <ele>385.88</ele>
        <time>2026-01-28T12:04:29.364Z</time>
      </trkpt>
      <trkpt lon="30.880469" lat="-29.712481">
        <ele>403.531</ele>
        <time>2026-01-28T12:04:33.356Z</time>
      </trkpt>
      <trkpt lon="30.878538" lat="-29.711932">
        <ele>424.465</ele>
        <time>2026-01-28T12:04:36.712Z</time>
      </trkpt>
      <trkpt lon="30.877466" lat="-29.711614">
        <ele>432.527</ele>
        <time>2026-01-28T12:04:38.740Z</time>
      </trkpt>
      <trkpt lon="30.876207" lat="-29.711253">
        <ele>424.285</ele>
        <time>2026-01-28T12:04:41.416Z</time>
      </trkpt>
      <trkpt lon="30.875331" lat="-29.710985">
        <ele>402.044</ele>
        <time>2026-01-28T12:04:43.416Z</time>
      </trkpt>
      <trkpt lon="30.875035" lat="-29.710870">
        <ele>391.645</ele>
        <time>2026-01-28T12:04:44.084Z</time>
      </trkpt>
      <trkpt lon="30.874725" lat="-29.710712">
        <ele>380.234</ele>
        <time>2026-01-28T12:04:44.792Z</time>
      </trkpt>
      <trkpt lon="30.874438" lat="-29.710510">
        <ele>370.039</ele>
        <time>2026-01-28T12:04:45.468Z</time>
      </trkpt>
      <trkpt lon="30.874185" lat="-29.710269">
        <ele>361.535</ele>
        <time>2026-01-28T12:04:46.132Z</time>
      </trkpt>
      <trkpt lon="30.873952" lat="-29.709970">
        <ele>354.537</ele>
        <time>2026-01-28T12:04:46.844Z</time>
      </trkpt>
      <trkpt lon="30.873586" lat="-29.709305">
        <ele>343.941</ele>
        <time>2026-01-28T12:04:48.240Z</time>
      </trkpt>
      <trkpt lon="30.872656" lat="-29.707264">
        <ele>348.822</ele>
        <time>2026-01-28T12:04:52.408Z</time>
      </trkpt>
      <trkpt lon="30.872252" lat="-29.706676">
        <ele>356.884</ele>
        <time>2026-01-28T12:04:53.752Z</time>
      </trkpt>
      <trkpt lon="30.871771" lat="-29.706138">
        <ele>364.642</ele>
        <time>2026-01-28T12:04:55.120Z</time>
      </trkpt>
      <trkpt lon="30.871235" lat="-29.705652">
        <ele>369.733</ele>
        <time>2026-01-28T12:04:56.464Z</time>
      </trkpt>
      <trkpt lon="30.870665" lat="-29.705229">
        <ele>372.709</ele>
        <time>2026-01-28T12:04:57.768Z</time>
      </trkpt>
      <trkpt lon="30.870033" lat="-29.704846">
        <ele>374.441</ele>
        <time>2026-01-28T12:04:59.096Z</time>
      </trkpt>
      <trkpt lon="30.869351" lat="-29.704513">
        <ele>374.013</ele>
        <time>2026-01-28T12:05:00.416Z</time>
      </trkpt>
      <trkpt lon="30.868633" lat="-29.704242">
        <ele>371.836</ele>
        <time>2026-01-28T12:05:01.712Z</time>
      </trkpt>
      <trkpt lon="30.867868" lat="-29.704031">
        <ele>368.152</ele>
        <time>2026-01-28T12:05:03.012Z</time>
      </trkpt>
      <trkpt lon="30.867061" lat="-29.703888">
        <ele>363.64</ele>
        <time>2026-01-28T12:05:04.312Z</time>
      </trkpt>
      <trkpt lon="30.866169" lat="-29.703818">
        <ele>358.823</ele>
        <time>2026-01-28T12:05:05.696Z</time>
      </trkpt>
      <trkpt lon="30.865256" lat="-29.703837">
        <ele>355.026</ele>
        <time>2026-01-28T12:05:07.076Z</time>
      </trkpt>
      <trkpt lon="30.864341" lat="-29.703945">
        <ele>352.983</ele>
        <time>2026-01-28T12:05:08.432Z</time>
      </trkpt>
      <trkpt lon="30.863417" lat="-29.704148">
        <ele>353.489</ele>
        <time>2026-01-28T12:05:09.836Z</time>
      </trkpt>
      <trkpt lon="30.862563" lat="-29.704427">
        <ele>356.385</ele>
        <time>2026-01-28T12:05:11.180Z</time>
      </trkpt>
      <trkpt lon="30.861046" lat="-29.705094">
        <ele>367.591</ele>
        <time>2026-01-28T12:05:13.780Z</time>
      </trkpt>
      <trkpt lon="30.859268" lat="-29.706079">
        <ele>390.474</ele>
        <time>2026-01-28T12:05:17.156Z</time>
      </trkpt>
      <trkpt lon="30.857685" lat="-29.707132">
        <ele>418.419</ele>
        <time>2026-01-28T12:05:20.484Z</time>
      </trkpt>
      <trkpt lon="30.856197" lat="-29.708246">
        <ele>446.64</ele>
        <time>2026-01-28T12:05:23.800Z</time>
      </trkpt>
      <trkpt lon="30.854755" lat="-29.709385">
        <ele>471.798</ele>
        <time>2026-01-28T12:05:27.164Z</time>
      </trkpt>
      <trkpt lon="30.853141" lat="-29.710768">
        <ele>498.884</ele>
        <time>2026-01-28T12:05:31.120Z</time>
      </trkpt>
      <trkpt lon="30.852125" lat="-29.711821">
        <ele>512.758</ele>
        <time>2026-01-28T12:05:33.876Z</time>
      </trkpt>
      <trkpt lon="30.851268" lat="-29.712937">
        <ele>521.564</ele>
        <time>2026-01-28T12:05:36.504Z</time>
      </trkpt>
      <trkpt lon="30.848987" lat="-29.716604">
        <ele>537.654</ele>
        <time>2026-01-28T12:05:44.300Z</time>
      </trkpt>
      <trkpt lon="30.847911" lat="-29.718562">
        <ele>555.819</ele>
        <time>2026-01-28T12:05:48.240Z</time>
      </trkpt>
      <trkpt lon="30.846577" lat="-29.720833">
        <ele>573.373</ele>
        <time>2026-01-28T12:05:52.916Z</time>
      </trkpt>
      <trkpt lon="30.842562" lat="-29.727537">
        <ele>593.743</ele>
        <time>2026-01-28T12:06:06.908Z</time>
      </trkpt>
      <trkpt lon="30.841338" lat="-29.730257">
        <ele>614.739</ele>
        <time>2026-01-28T12:06:12.316Z</time>
      </trkpt>
      <trkpt lon="30.839219" lat="-29.735648">
        <ele>625.835</ele>
        <time>2026-01-28T12:06:23.104Z</time>
      </trkpt>
      <trkpt lon="30.837475" lat="-29.742166">
        <ele>650.272</ele>
        <time>2026-01-28T12:06:35.272Z</time>
      </trkpt>
      <trkpt lon="30.836584" lat="-29.745675">
        <ele>674.518</ele>
        <time>2026-01-28T12:06:42.012Z</time>
      </trkpt>
      <trkpt lon="30.835815" lat="-29.748866">
        <ele>702.692</ele>
        <time>2026-01-28T12:06:48.104Z</time>
      </trkpt>
      <trkpt lon="30.835544" lat="-29.750620">
        <ele>721.107</ele>
        <time>2026-01-28T12:06:51.476Z</time>
      </trkpt>
      <trkpt lon="30.835472" lat="-29.752329">
        <ele>731.519</ele>
        <time>2026-01-28T12:06:54.852Z</time>
      </trkpt>
      <trkpt lon="30.835655" lat="-29.755733">
        <ele>713.94</ele>
        <time>2026-01-28T12:07:01.700Z</time>
      </trkpt>
      <trkpt lon="30.835837" lat="-29.757026">
        <ele>689.335</ele>
        <time>2026-01-28T12:07:04.404Z</time>
      </trkpt>
      <trkpt lon="30.836049" lat="-29.757934">
        <ele>660.793</ele>
        <time>2026-01-28T12:07:06.436Z</time>
      </trkpt>
      <trkpt lon="30.836240" lat="-29.758510">
        <ele>636.394</ele>
        <time>2026-01-28T12:07:07.760Z</time>
      </trkpt>
      <trkpt lon="30.836478" lat="-29.759063">
        <ele>607.522</ele>
        <time>2026-01-28T12:07:09.088Z</time>
      </trkpt>
      <trkpt lon="30.836781" lat="-29.759614">
        <ele>572.801</ele>
        <time>2026-01-28T12:07:10.440Z</time>
      </trkpt>
      <trkpt lon="30.837155" lat="-29.760141">
        <ele>534.185</ele>
        <time>2026-01-28T12:07:11.788Z</time>
      </trkpt>
      <trkpt lon="30.837629" lat="-29.760646">
        <ele>495.312</ele>
        <time>2026-01-28T12:07:13.140Z</time>
      </trkpt>
      <trkpt lon="30.838215" lat="-29.761112">
        <ele>460.892</ele>
        <time>2026-01-28T12:07:14.508Z</time>
      </trkpt>
      <trkpt lon="30.838891" lat="-29.761541">
        <ele>429.833</ele>
        <time>2026-01-28T12:07:15.892Z</time>
      </trkpt>
      <trkpt lon="30.839576" lat="-29.761908">
        <ele>403.37</ele>
        <time>2026-01-28T12:07:17.232Z</time>
      </trkpt>
      <trkpt lon="30.840304" lat="-29.762244">
        <ele>380.454</ele>
        <time>2026-01-28T12:07:18.584Z</time>
      </trkpt>
      <trkpt lon="30.841396" lat="-29.762669">
        <ele>355.796</ele>
        <time>2026-01-28T12:07:20.552Z</time>
      </trkpt>
      <trkpt lon="30.842843" lat="-29.763120">
        <ele>331.95</ele>
        <time>2026-01-28T12:07:23.208Z</time>
      </trkpt>
      <trkpt lon="30.844241" lat="-29.763476">
        <ele>310.58</ele>
        <time>2026-01-28T12:07:25.840Z</time>
      </trkpt>
      <trkpt lon="30.845681" lat="-29.763801">
        <ele>293.335</ele>
        <time>2026-01-28T12:07:28.448Z</time>
      </trkpt>
      <trkpt lon="30.848683" lat="-29.764431">
        <ele>275.589</ele>
        <time>2026-01-28T12:07:33.704Z</time>
      </trkpt>
      <trkpt lon="30.850191" lat="-29.764671">
        <ele>276.076</ele>
        <time>2026-01-28T12:07:36.312Z</time>
      </trkpt>
      <trkpt lon="30.850582" lat="-29.764682">
        <ele>277.332</ele>
        <time>2026-01-28T12:07:36.992Z</time>
      </trkpt>
      <trkpt lon="30.850950" lat="-29.764661">
        <ele>278.081</ele>
        <time>2026-01-28T12:07:37.652Z</time>
      </trkpt>
      <trkpt lon="30.851326" lat="-29.764606">
        <ele>278.002</ele>
        <time>2026-01-28T12:07:38.332Z</time>
      </trkpt>
      <trkpt lon="30.851682" lat="-29.764522">
        <ele>277.11</ele>
        <time>2026-01-28T12:07:38.984Z</time>
      </trkpt>
      <trkpt lon="30.852364" lat="-29.764273">
        <ele>274.097</ele>
        <time>2026-01-28T12:07:40.288Z</time>
      </trkpt>
      <trkpt lon="30.853009" lat="-29.763932">
        <ele>271.088</ele>
        <time>2026-01-28T12:07:41.600Z</time>
      </trkpt>
      <trkpt lon="30.854265" lat="-29.763225">
        <ele>269.341</ele>
        <time>2026-01-28T12:07:44.288Z</time>
      </trkpt>
      <trkpt lon="30.854610" lat="-29.763099">
        <ele>268.28</ele>
        <time>2026-01-28T12:07:44.964Z</time>
      </trkpt>
      <trkpt lon="30.855324" lat="-29.762929">
        <ele>265.652</ele>
        <time>2026-01-28T12:07:46.284Z</time>
      </trkpt>
      <trkpt lon="30.857904" lat="-29.762569">
        <ele>249.649</ele>
        <time>2026-01-28T12:07:50.988Z</time>
      </trkpt>
      <trkpt lon="30.860031" lat="-29.762016">
        <ele>226.223</ele>
        <time>2026-01-28T12:07:54.964Z</time>
      </trkpt>
      <trkpt lon="30.861603" lat="-29.761754">
        <ele>205.744</ele>
        <time>2026-01-28T12:07:57.624Z</time>
      </trkpt>
      <trkpt lon="30.864111" lat="-29.761438">
        <ele>186.495</ele>
        <time>2026-01-28T12:08:01.620Z</time>
      </trkpt>
      <trkpt lon="30.866247" lat="-29.761183">
        <ele>168.289</ele>
        <time>2026-01-28T12:08:04.920Z</time>
      </trkpt>
      <trkpt lon="30.868008" lat="-29.760867">
        <ele>158.803</ele>
        <time>2026-01-28T12:08:07.576Z</time>
      </trkpt>
      <trkpt lon="30.868443" lat="-29.760740">
        <ele>158.215</ele>
        <time>2026-01-28T12:08:08.256Z</time>
      </trkpt>
      <trkpt lon="30.868858" lat="-29.760582">
        <ele>159.39</ele>
        <time>2026-01-28T12:08:08.920Z</time>
      </trkpt>
      <trkpt lon="30.869250" lat="-29.760388">
        <ele>161.785</ele>
        <time>2026-01-28T12:08:09.600Z</time>
      </trkpt>
      <trkpt lon="30.869595" lat="-29.760174">
        <ele>164.535</ele>
        <time>2026-01-28T12:08:10.244Z</time>
      </trkpt>
      <trkpt lon="30.869946" lat="-29.759910">
        <ele>167.435</ele>
        <time>2026-01-28T12:08:10.936Z</time>
      </trkpt>
      <trkpt lon="30.870249" lat="-29.759632">
        <ele>169.993</ele>
        <time>2026-01-28T12:08:11.604Z</time>
      </trkpt>
      <trkpt lon="30.870526" lat="-29.759309">
        <ele>171.761</ele>
        <time>2026-01-28T12:08:12.320Z</time>
      </trkpt>
      <trkpt lon="30.870733" lat="-29.758977">
        <ele>172.526</ele>
        <time>2026-01-28T12:08:12.980Z</time>
      </trkpt>
      <trkpt lon="30.870872" lat="-29.758637">
        <ele>173.076</ele>
        <time>2026-01-28T12:08:13.616Z</time>
      </trkpt>
      <trkpt lon="30.870949" lat="-29.758269">
        <ele>174.01</ele>
        <time>2026-01-28T12:08:14.292Z</time>
      </trkpt>
      <trkpt lon="30.870956" lat="-29.757894">
        <ele>175.712</ele>
        <time>2026-01-28T12:08:14.960Z</time>
      </trkpt>
      <trkpt lon="30.870893" lat="-29.757525">
        <ele>178.437</ele>
        <time>2026-01-28T12:08:15.628Z</time>
      </trkpt>
      <trkpt lon="30.870768" lat="-29.757178">
        <ele>182.099</ele>
        <time>2026-01-28T12:08:16.296Z</time>
      </trkpt>
      <trkpt lon="30.870591" lat="-29.756849">
        <ele>185.906</ele>
        <time>2026-01-28T12:08:16.972Z</time>
      </trkpt>
      <trkpt lon="30.869888" lat="-29.755957">
        <ele>194.227</ele>
        <time>2026-01-28T12:08:19.016Z</time>
      </trkpt>
      <trkpt lon="30.869457" lat="-29.755392">
        <ele>200.969</ele>
        <time>2026-01-28T12:08:20.324Z</time>
      </trkpt>
      <trkpt lon="30.869304" lat="-29.755090">
        <ele>205.999</ele>
        <time>2026-01-28T12:08:20.964Z</time>
      </trkpt>
      <trkpt lon="30.869205" lat="-29.754773">
        <ele>212.239</ele>
        <time>2026-01-28T12:08:21.628Z</time>
      </trkpt>
      <trkpt lon="30.869158" lat="-29.754451">
        <ele>218.923</ele>
        <time>2026-01-28T12:08:22.292Z</time>
      </trkpt>
      <trkpt lon="30.869164" lat="-29.754129">
        <ele>225.909</ele>
        <time>2026-01-28T12:08:22.944Z</time>
      </trkpt>
      <trkpt lon="30.869450" lat="-29.752885">
        <ele>249.438</ele>
        <time>2026-01-28T12:08:25.628Z</time>
      </trkpt>
      <trkpt lon="30.869800" lat="-29.751314">
        <ele>271.408</ele>
        <time>2026-01-28T12:08:29.044Z</time>
      </trkpt>
      <trkpt lon="30.870184" lat="-29.749082">
        <ele>292.923</ele>
        <time>2026-01-28T12:08:33.712Z</time>
      </trkpt>
      <trkpt lon="30.870295" lat="-29.748142">
        <ele>309.812</ele>
        <time>2026-01-28T12:08:35.680Z</time>
      </trkpt>
      <trkpt lon="30.870285" lat="-29.747530">
        <ele>321.001</ele>
        <time>2026-01-28T12:08:37.000Z</time>
      </trkpt>
      <trkpt lon="30.870191" lat="-29.746930">
        <ele>329.264</ele>
        <time>2026-01-28T12:08:38.292Z</time>
      </trkpt>
      <trkpt lon="30.869856" lat="-29.745734">
        <ele>349.201</ele>
        <time>2026-01-28T12:08:40.928Z</time>
      </trkpt>
      <trkpt lon="30.869577" lat="-29.744530">
        <ele>366.096</ele>
        <time>2026-01-28T12:08:43.580Z</time>
      </trkpt>
      <trkpt lon="30.869267" lat="-29.742686">
        <ele>384.344</ele>
        <time>2026-01-28T12:08:47.524Z</time>
      </trkpt>
      <trkpt lon="30.869236" lat="-29.742049">
        <ele>389.357</ele>
        <time>2026-01-28T12:08:48.868Z</time>
      </trkpt>
      <trkpt lon="30.869302" lat="-29.741414">
        <ele>393.607</ele>
        <time>2026-01-28T12:08:50.192Z</time>
      </trkpt>
      <trkpt lon="30.869471" lat="-29.740786">
        <ele>396.601</ele>
        <time>2026-01-28T12:08:51.524Z</time>
      </trkpt>
      <trkpt lon="30.870156" lat="-29.739296">
        <ele>412.987</ele>
        <time>2026-01-28T12:08:54.856Z</time>
      </trkpt>
      <trkpt lon="30.870389" lat="-29.738679">
        <ele>419.109</ele>
        <time>2026-01-28T12:08:56.220Z</time>
      </trkpt>
      <trkpt lon="30.870520" lat="-29.738058">
        <ele>422.115</ele>
        <time>2026-01-28T12:08:57.548Z</time>
      </trkpt>
      <trkpt lon="30.870262" lat="-29.733585">
        <ele>433.742</ele>
        <time>2026-01-28T12:09:06.848Z</time>
      </trkpt>
      <trkpt lon="30.870297" lat="-29.732324">
        <ele>438.576</ele>
        <time>2026-01-28T12:09:09.536Z</time>
      </trkpt>
      <trkpt lon="30.870446" lat="-29.731156">
        <ele>442.605</ele>
        <time>2026-01-28T12:09:12.156Z</time>
      </trkpt>
      <trkpt lon="30.870482" lat="-29.730893">
        <ele>441.977</ele>
        <time>2026-01-28T12:09:12.812Z</time>
      </trkpt>
      <trkpt lon="30.870515" lat="-29.730624">
        <ele>440.409</ele>
        <time>2026-01-28T12:09:13.484Z</time>
      </trkpt>
      <trkpt lon="30.870563" lat="-29.730113">
        <ele>430.956</ele>
        <time>2026-01-28T12:09:14.812Z</time>
      </trkpt>
      <trkpt lon="30.870593" lat="-29.729616">
        <ele>410.422</ele>
        <time>2026-01-28T12:09:16.160Z</time>
      </trkpt>
      <trkpt lon="30.870605" lat="-29.729147">
        <ele>379.366</ele>
        <time>2026-01-28T12:09:17.476Z</time>
      </trkpt>
      <trkpt lon="30.870605" lat="-29.728883">
        <ele>358.698</ele>
        <time>2026-01-28T12:09:18.156Z</time>
      </trkpt>
      <trkpt lon="30.870600" lat="-29.728612">
        <ele>338.081</ele>
        <time>2026-01-28T12:09:18.808Z</time>
      </trkpt>
      <trkpt lon="30.870590" lat="-29.728294">
        <ele>316.206</ele>
        <time>2026-01-28T12:09:19.492Z</time>
      </trkpt>
      <trkpt lon="30.870572" lat="-29.727958">
        <ele>297.335</ele>
        <time>2026-01-28T12:09:20.140Z</time>
      </trkpt>
      <trkpt lon="30.870511" lat="-29.727189">
        <ele>270.167</ele>
        <time>2026-01-28T12:09:21.488Z</time>
      </trkpt>
      <trkpt lon="30.870263" lat="-29.724319">
        <ele>259.021</ele>
        <time>2026-01-28T12:09:26.232Z</time>
      </trkpt>
      <trkpt lon="30.870055" lat="-29.722839">
        <ele>266.299</ele>
        <time>2026-01-28T12:09:28.956Z</time>
      </trkpt>
      <trkpt lon="30.869819" lat="-29.721177">
        <ele>274.117</ele>
        <time>2026-01-28T12:09:32.332Z</time>
      </trkpt>
      <trkpt lon="30.869664" lat="-29.719097">
        <ele>281.015</ele>
        <time>2026-01-28T12:09:37.004Z</time>
      </trkpt>
      <trkpt lon="30.869649" lat="-29.713781">
        <ele>274.916</ele>
        <time>2026-01-28T12:09:50.504Z</time>
      </trkpt>
      <trkpt lon="30.869864" lat="-29.710275">
        <ele>253.336</ele>
        <time>2026-01-28T12:09:59.896Z</time>
      </trkpt>
      <trkpt lon="30.869762" lat="-29.709229">
        <ele>246.748</ele>
        <time>2026-01-28T12:10:02.600Z</time>
      </trkpt>
      <trkpt lon="30.869665" lat="-29.708721">
        <ele>245.813</ele>
        <time>2026-01-28T12:10:03.944Z</time>
      </trkpt>
      <trkpt lon="30.869513" lat="-29.708223">
        <ele>246.939</ele>
        <time>2026-01-28T12:10:05.308Z</time>
      </trkpt>
      <trkpt lon="30.869311" lat="-29.707763">
        <ele>248.797</ele>
        <time>2026-01-28T12:10:06.636Z</time>
      </trkpt>
      <trkpt lon="30.869060" lat="-29.707333">
        <ele>250.474</ele>
        <time>2026-01-28T12:10:07.976Z</time>
      </trkpt>
      <trkpt lon="30.867112" lat="-29.704781">
        <ele>251.384</ele>
        <time>2026-01-28T12:10:16.892Z</time>
      </trkpt>
      <trkpt lon="30.866790" lat="-29.704168">
        <ele>250.311</ele>
        <time>2026-01-28T12:10:18.892Z</time>
      </trkpt>
      <trkpt lon="30.866642" lat="-29.703701">
        <ele>250.774</ele>
        <time>2026-01-28T12:10:20.268Z</time>
      </trkpt>
      <trkpt lon="30.866567" lat="-29.703207">
        <ele>254.061</ele>
        <time>2026-01-28T12:10:21.644Z</time>
      </trkpt>
      <trkpt lon="30.866610" lat="-29.701407">
        <ele>260.141</ele>
        <time>2026-01-28T12:10:26.388Z</time>
      </trkpt>
      <trkpt lon="30.866835" lat="-29.695568">
        <ele>266.376</ele>
        <time>2026-01-28T12:10:39.740Z</time>
      </trkpt>
      <trkpt lon="30.866585" lat="-29.685442">
        <ele>256.667</ele>
        <time>2026-01-28T12:11:00.916Z</time>
      </trkpt>
      <trkpt lon="30.866312" lat="-29.682546">
        <ele>258.884</ele>
        <time>2026-01-28T12:11:06.920Z</time>
      </trkpt>
      <trkpt lon="30.866147" lat="-29.681973">
        <ele>269.402</ele>
        <time>2026-01-28T12:11:08.204Z</time>
      </trkpt>
      <trkpt lon="30.865886" lat="-29.681437">
        <ele>282.855</ele>
        <time>2026-01-28T12:11:09.544Z</time>
      </trkpt>
      <trkpt lon="30.865731" lat="-29.681192">
        <ele>289.59</ele>
        <time>2026-01-28T12:11:10.208Z</time>
      </trkpt>
      <trkpt lon="30.865569" lat="-29.680973">
        <ele>295.276</ele>
        <time>2026-01-28T12:11:10.856Z</time>
      </trkpt>
      <trkpt lon="30.865372" lat="-29.680746">
        <ele>300.28</ele>
        <time>2026-01-28T12:11:11.548Z</time>
      </trkpt>
      <trkpt lon="30.865174" lat="-29.680558">
        <ele>303.462</ele>
        <time>2026-01-28T12:11:12.184Z</time>
      </trkpt>
      <trkpt lon="30.864960" lat="-29.680388">
        <ele>305.808</ele>
        <time>2026-01-28T12:11:12.832Z</time>
      </trkpt>
      <trkpt lon="30.864724" lat="-29.680233">
        <ele>307.663</ele>
        <time>2026-01-28T12:11:13.484Z</time>
      </trkpt>
      <trkpt lon="30.864220" lat="-29.679985">
        <ele>309.613</ele>
        <time>2026-01-28T12:11:14.800Z</time>
      </trkpt>
      <trkpt lon="30.863688" lat="-29.679810">
        <ele>309.897</ele>
        <time>2026-01-28T12:11:16.096Z</time>
      </trkpt>
      <trkpt lon="30.863420" lat="-29.679756">
        <ele>310.062</ele>
        <time>2026-01-28T12:11:16.732Z</time>
      </trkpt>
      <trkpt lon="30.863140" lat="-29.679725">
        <ele>310.587</ele>
        <time>2026-01-28T12:11:17.368Z</time>
      </trkpt>
      <trkpt lon="30.862259" lat="-29.679799">
        <ele>314.517</ele>
        <time>2026-01-28T12:11:19.412Z</time>
      </trkpt>
      <trkpt lon="30.861703" lat="-29.679940">
        <ele>317.568</ele>
        <time>2026-01-28T12:11:20.752Z</time>
      </trkpt>
      <trkpt lon="30.861442" lat="-29.680028">
        <ele>319.342</ele>
        <time>2026-01-28T12:11:21.404Z</time>
      </trkpt>
      <trkpt lon="30.860671" lat="-29.680393">
        <ele>325.936</ele>
        <time>2026-01-28T12:11:23.468Z</time>
      </trkpt>
      <trkpt lon="30.860013" lat="-29.680840">
        <ele>330.755</ele>
        <time>2026-01-28T12:11:25.444Z</time>
      </trkpt>
      <trkpt lon="30.859624" lat="-29.681197">
        <ele>332.117</ele>
        <time>2026-01-28T12:11:26.756Z</time>
      </trkpt>
      <trkpt lon="30.859449" lat="-29.681408">
        <ele>332.235</ele>
        <time>2026-01-28T12:11:27.444Z</time>
      </trkpt>
      <trkpt lon="30.859176" lat="-29.681850">
        <ele>332.437</ele>
        <time>2026-01-28T12:11:28.752Z</time>
      </trkpt>
      <trkpt lon="30.858859" lat="-29.682594">
        <ele>334.494</ele>
        <time>2026-01-28T12:11:30.796Z</time>
      </trkpt>
      <trkpt lon="30.858619" lat="-29.683373">
        <ele>337.51</ele>
        <time>2026-01-28T12:11:32.832Z</time>
      </trkpt>
      <trkpt lon="30.858520" lat="-29.683895">
        <ele>339.917</ele>
        <time>2026-01-28T12:11:34.156Z</time>
      </trkpt>
      <trkpt lon="30.858486" lat="-29.684448">
        <ele>341.055</ele>
        <time>2026-01-28T12:11:35.528Z</time>
      </trkpt>
      <trkpt lon="30.858562" lat="-29.685523">
        <ele>342.139</ele>
        <time>2026-01-28T12:11:38.160Z</time>
      </trkpt>
      <trkpt lon="30.858713" lat="-29.686340">
        <ele>341.069</ele>
        <time>2026-01-28T12:11:40.148Z</time>
      </trkpt>
      <trkpt lon="30.859072" lat="-29.687436">
        <ele>340.295</ele>
        <time>2026-01-28T12:11:42.800Z</time>
      </trkpt>
      <trkpt lon="30.860424" lat="-29.690498">
        <ele>338.742</ele>
        <time>2026-01-28T12:11:50.244Z</time>
      </trkpt>
      <trkpt lon="30.862544" lat="-29.695076">
        <ele>332.022</ele>
        <time>2026-01-28T12:12:01.056Z</time>
      </trkpt>
      <trkpt lon="30.867789" lat="-29.707538">
        <ele>334.668</ele>
        <time>2026-01-28T12:12:29.412Z</time>
      </trkpt>
      <trkpt lon="30.869225" lat="-29.710021">
        <ele>330.188</ele>
        <time>2026-01-28T12:12:35.440Z</time>
      </trkpt>
      <trkpt lon="30.870769" lat="-29.712153">
        <ele>323.57</ele>
        <time>2026-01-28T12:12:40.804Z</time>
      </trkpt>
      <trkpt lon="30.872758" lat="-29.714412">
        <ele>322.183</ele>
        <time>2026-01-28T12:12:46.860Z</time>
      </trkpt>
      <trkpt lon="30.874461" lat="-29.716010">
        <ele>314.635</ele>
        <time>2026-01-28T12:12:51.492Z</time>
      </trkpt>
      <trkpt lon="30.875803" lat="-29.717048">
        <ele>311.307</ele>
        <time>2026-01-28T12:12:54.784Z</time>
      </trkpt>
      <trkpt lon="30.876983" lat="-29.717777">
        <ele>308.329</ele>
        <time>2026-01-28T12:12:57.416Z</time>
      </trkpt>
      <trkpt lon="30.878277" lat="-29.718386">
        <ele>306.901</ele>
        <time>2026-01-28T12:13:00.100Z</time>
      </trkpt>
      <trkpt lon="30.879960" lat="-29.718984">
        <ele>304.099</ele>
        <time>2026-01-28T12:13:03.416Z</time>
      </trkpt>
      <trkpt lon="30.883853" lat="-29.719970">
        <ele>296.926</ele>
        <time>2026-01-28T12:13:10.700Z</time>
      </trkpt>
      <trkpt lon="30.894692" lat="-29.721957">
        <ele>280.07</ele>
        <time>2026-01-28T12:13:30.244Z</time>
      </trkpt>
      <trkpt lon="30.899085" lat="-29.722381">
        <ele>278.503</ele>
        <time>2026-01-28T12:13:37.620Z</time>
      </trkpt>
      <trkpt lon="30.907712" lat="-29.722957">
        <ele>301.931</ele>
        <time>2026-01-28T12:13:50.920Z</time>
      </trkpt>
      <trkpt lon="30.908445" lat="-29.723009">
        <ele>328.293</ele>
        <time>2026-01-28T12:13:52.212Z</time>
      </trkpt>
      <trkpt lon="30.909197" lat="-29.723055">
        <ele>352.444</ele>
        <time>2026-01-28T12:13:53.568Z</time>
      </trkpt>
      <trkpt lon="30.910650" lat="-29.723110">
        <ele>375.329</ele>
        <time>2026-01-28T12:13:56.216Z</time>
      </trkpt>
      <trkpt lon="30.912837" lat="-29.723141">
        <ele>394.617</ele>
        <time>2026-01-28T12:14:00.128Z</time>
      </trkpt>
      <trkpt lon="30.915529" lat="-29.723253">
        <ele>403.683</ele>
        <time>2026-01-28T12:14:04.752Z</time>
      </trkpt>
      <trkpt lon="30.918177" lat="-29.723601">
        <ele>427.756</ele>
        <time>2026-01-28T12:14:09.452Z</time>
      </trkpt>
      <trkpt lon="30.920265" lat="-29.723801">
        <ele>450.49</ele>
        <time>2026-01-28T12:14:13.584Z</time>
      </trkpt>
      <trkpt lon="30.921913" lat="-29.723850">
        <ele>456.103</ele>
        <time>2026-01-28T12:14:16.940Z</time>
      </trkpt>
      <trkpt lon="30.923529" lat="-29.723754">
        <ele>459.263</ele>
        <time>2026-01-28T12:14:20.276Z</time>
      </trkpt>
      <trkpt lon="30.928751" lat="-29.722945">
        <ele>462.888</ele>
        <time>2026-01-28T12:14:30.968Z</time>
      </trkpt>
      <trkpt lon="30.932795" lat="-29.722007">
        <ele>462.228</ele>
        <time>2026-01-28T12:14:39.028Z</time>
      </trkpt>
      <trkpt lon="30.946111" lat="-29.717926">
        <ele>438.643</ele>
        <time>2026-01-28T12:15:05.296Z</time>
      </trkpt>
      <trkpt lon="30.958513" lat="-29.713979">
        <ele>423.122</ele>
        <time>2026-01-28T12:15:29.244Z</time>
      </trkpt>
      <trkpt lon="30.962877" lat="-29.712144">
        <ele>417.089</ele>
        <time>2026-01-28T12:15:38.084Z</time>
      </trkpt>
      <trkpt lon="30.977036" lat="-29.704585">
        <ele>393.61</ele>
        <time>2026-01-28T12:16:08.356Z</time>
      </trkpt>
      <trkpt lon="30.991457" lat="-29.697579">
        <ele>368.84</ele>
        <time>2026-01-28T12:16:38.484Z</time>
      </trkpt>
      <trkpt lon="31.005518" lat="-29.691523">
        <ele>342.684</ele>
        <time>2026-01-28T12:17:07.356Z</time>
      </trkpt>
      <trkpt lon="31.017527" lat="-29.685776">
        <ele>327.927</ele>
        <time>2026-01-28T12:17:32.688Z</time>
      </trkpt>
      <trkpt lon="31.024411" lat="-29.681777">
        <ele>323.247</ele>
        <time>2026-01-28T12:17:48.060Z</time>
      </trkpt>
      <trkpt lon="31.033480" lat="-29.675481">
        <ele>310.389</ele>
        <time>2026-01-28T12:18:09.608Z</time>
      </trkpt>
      <trkpt lon="31.045185" lat="-29.665907">
        <ele>286.017</ele>
        <time>2026-01-28T12:18:39.916Z</time>
      </trkpt>
      <trkpt lon="31.050751" lat="-29.661846">
        <ele>273.939</ele>
        <time>2026-01-28T12:18:53.348Z</time>
      </trkpt>
      <trkpt lon="31.057056" lat="-29.657680">
        <ele>284.768</ele>
        <time>2026-01-28T12:19:06.176Z</time>
      </trkpt>
      <trkpt lon="31.062867" lat="-29.653933">
        <ele>287.626</ele>
        <time>2026-01-28T12:19:17.092Z</time>
      </trkpt>
      <trkpt lon="31.067224" lat="-29.651576">
        <ele>262.308</ele>
        <time>2026-01-28T12:19:24.524Z</time>
      </trkpt>
      <trkpt lon="31.076624" lat="-29.647010">
        <ele>236.637</ele>
        <time>2026-01-28T12:19:39.980Z</time>
      </trkpt>
      <trkpt lon="31.083912" lat="-29.643594">
        <ele>212.095</ele>
        <time>2026-01-28T12:19:51.912Z</time>
      </trkpt>
      <trkpt lon="31.089962" lat="-29.640442">
        <ele>185.911</ele>
        <time>2026-01-28T12:20:02.084Z</time>
      </trkpt>
      <trkpt lon="31.092261" lat="-29.639058">
        <ele>159.918</ele>
        <time>2026-01-28T12:20:06.092Z</time>
      </trkpt>
      <trkpt lon="31.093316" lat="-29.638264">
        <ele>139.299</ele>
        <time>2026-01-28T12:20:08.080Z</time>
      </trkpt>
      <trkpt lon="31.097508" lat="-29.634476">
        <ele>136.643</ele>
        <time>2026-01-28T12:20:16.772Z</time>
      </trkpt>
      <trkpt lon="31.101876" lat="-29.631360">
        <ele>132.141</ele>
        <time>2026-01-28T12:20:25.372Z</time>
      </trkpt>
      <trkpt lon="31.103009" lat="-29.630237">
        <ele>127.529</ele>
        <time>2026-01-28T12:20:28.000Z</time>
      </trkpt>
      <trkpt lon="31.106673" lat="-29.626508">
        <ele>119.602</ele>
        <time>2026-01-28T12:20:36.580Z</time>
      </trkpt>
      <trkpt lon="31.109025" lat="-29.623852">
        <ele>103.051</ele>
        <time>2026-01-28T12:20:42.572Z</time>
      </trkpt>
      <trkpt lon="31.109456" lat="-29.623311">
        <ele>101.907</ele>
        <time>2026-01-28T12:20:43.860Z</time>
      </trkpt>
      <trkpt lon="31.110057" lat="-29.622554">
        <ele>101.986</ele>
        <time>2026-01-28T12:20:45.844Z</time>
      </trkpt>
      <trkpt lon="31.110803" lat="-29.621649">
        <ele>98.382</ele>
        <time>2026-01-28T12:20:48.588Z</time>
      </trkpt>
      <trkpt lon="31.115470" lat="-29.616290">
        <ele>96.0438</ele>
        <time>2026-01-28T12:21:07.380Z</time>
      </trkpt>
      <trkpt lon="31.116182" lat="-29.615472">
        <ele>99.2206</ele>
        <time>2026-01-28T12:21:10.724Z</time>
      </trkpt>
      <trkpt lon="31.116732" lat="-29.614834">
        <ele>96.1456</ele>
        <time>2026-01-28T12:21:14.092Z</time>
      </trkpt>
      <trkpt lon="31.117172" lat="-29.614286">
        <ele>92.4168</ele>
        <time>2026-01-28T12:21:17.476Z</time>
      </trkpt>
      <trkpt lon="31.117357" lat="-29.614014">
        <ele>92.4359</ele>
        <time>2026-01-28T12:21:19.460Z</time>
      </trkpt>
      <trkpt lon="31.117399" lat="-29.613930">
        <ele>92.4495</ele>
        <time>2026-01-28T12:21:20.104Z</time>
      </trkpt>
      <trkpt lon="31.117426" lat="-29.613844">
        <ele>92.4638</ele>
        <time>2026-01-28T12:21:20.768Z</time>
      </trkpt>
      <trkpt lon="31.117436" lat="-29.613757">
        <ele>92.4715</ele>
        <time>2026-01-28T12:21:21.448Z</time>
      </trkpt>
      <trkpt lon="31.117429" lat="-29.613678">
        <ele>92.4725</ele>
        <time>2026-01-28T12:21:22.104Z</time>
      </trkpt>
      <trkpt lon="31.117403" lat="-29.613602">
        <ele>92.4651</ele>
        <time>2026-01-28T12:21:22.776Z</time>
      </trkpt>
      <trkpt lon="31.117360" lat="-29.613537">
        <ele>92.4674</ele>
        <time>2026-01-28T12:21:23.452Z</time>
      </trkpt>
      <trkpt lon="31.117301" lat="-29.613483">
        <ele>92.4551</ele>
        <time>2026-01-28T12:21:24.136Z</time>
      </trkpt>
      <trkpt lon="31.117235" lat="-29.613445">
        <ele>92.439</ele>
        <time>2026-01-28T12:21:24.792Z</time>
      </trkpt>
      <trkpt lon="31.117161" lat="-29.613420">
        <ele>92.4281</ele>
        <time>2026-01-28T12:21:25.440Z</time>
      </trkpt>
      <trkpt lon="31.117081" lat="-29.613409">
        <ele>92.4169</ele>
        <time>2026-01-28T12:21:26.112Z</time>
      </trkpt>
      <trkpt lon="31.116920" lat="-29.613405">
        <ele>92.383</ele>
        <time>2026-01-28T12:21:27.432Z</time>
      </trkpt>
      <trkpt lon="31.116836" lat="-29.613412">
        <ele>92.3639</ele>
        <time>2026-01-28T12:21:28.108Z</time>
      </trkpt>
      <trkpt lon="31.116752" lat="-29.613430">
        <ele>92.346</ele>
        <time>2026-01-28T12:21:28.776Z</time>
      </trkpt>
      <trkpt lon="31.115988" lat="-29.613681">
        <ele>92.1047</ele>
        <time>2026-01-28T12:21:35.312Z</time>
      </trkpt>
      <trkpt lon="31.115840" lat="-29.613731">
        <ele>92.0623</ele>
        <time>2026-01-28T12:21:39.312Z</time>
      </trkpt>
      <trkpt lon="31.115755" lat="-29.613750">
        <ele>92.0622</ele>
        <time>2026-01-28T12:21:45.368Z</time>
      </trkpt>
      <trkpt lon="31.115529" lat="-29.613839">
        <ele>91.9988</ele>
        <time>2026-01-28T12:21:49.372Z</time>
      </trkpt>
      <trkpt lon="31.115388" lat="-29.613895">
        <ele>91.9796</ele>
        <time>2026-01-28T12:24:05.692Z</time>
      </trkpt>
      <trkpt lon="31.115056" lat="-29.614059">
        <ele>91.9249</ele>
        <time>2026-01-28T12:24:11.004Z</time>
      </trkpt>
      <trkpt lon="31.114870" lat="-29.614178">
        <ele>91.8957</ele>
        <time>2026-01-28T12:24:13.648Z</time>
      </trkpt>
      <trkpt lon="31.114595" lat="-29.614389">
        <ele>91.8502</ele>
        <time>2026-01-28T12:24:17.528Z</time>
      </trkpt>
      <trkpt lon="31.114480" lat="-29.614500">
        <ele>91.8339</ele>
        <time>2026-01-28T12:24:19.524Z</time>
      </trkpt>
      <trkpt lon="31.113933" lat="-29.615168">
        <ele>91.714</ele>
        <time>2026-01-28T12:24:30.120Z</time>
      </trkpt>
      <trkpt lon="31.113370" lat="-29.615869">
        <ele>91.5251</ele>
        <time>2026-01-28T12:24:40.624Z</time>
      </trkpt>
      <trkpt lon="31.112733" lat="-29.616580">
        <ele>91.3575</ele>
        <time>2026-01-28T12:24:51.112Z</time>
      </trkpt>
      <trkpt lon="31.112035" lat="-29.617331">
        <ele>91.2883</ele>
        <time>2026-01-28T12:25:01.736Z</time>
      </trkpt>
      <trkpt lon="31.111730" lat="-29.617664">
        <ele>91.2602</ele>
        <time>2026-01-28T12:25:07.008Z</time>
      </trkpt>
      <trkpt lon="31.111654" lat="-29.617727">
        <ele>91.25</ele>
        <time>2026-01-28T12:25:08.308Z</time>
      </trkpt>
      <trkpt lon="31.111613" lat="-29.617754">
        <ele>91.2491</ele>
        <time>2026-01-28T12:25:08.968Z</time>
      </trkpt>
      <trkpt lon="31.111572" lat="-29.617776">
        <ele>91.2464</ele>
        <time>2026-01-28T12:25:09.600Z</time>
      </trkpt>
      <trkpt lon="31.111527" lat="-29.617793">
        <ele>91.2423</ele>
        <time>2026-01-28T12:25:10.264Z</time>
      </trkpt>
      <trkpt lon="31.111439" lat="-29.617814">
        <ele>91.2396</ele>
        <time>2026-01-28T12:25:11.552Z</time>
      </trkpt>
      <trkpt lon="31.111393" lat="-29.617819">
        <ele>91.2403</ele>
        <time>2026-01-28T12:25:12.212Z</time>
      </trkpt>
      <trkpt lon="31.111346" lat="-29.617820">
        <ele>91.2385</ele>
        <time>2026-01-28T12:25:12.860Z</time>
      </trkpt>
      <trkpt lon="31.111297" lat="-29.617817">
        <ele>91.2371</ele>
        <time>2026-01-28T12:25:13.528Z</time>
      </trkpt>
      <trkpt lon="31.111248" lat="-29.617809">
        <ele>91.2406</ele>
        <time>2026-01-28T12:25:14.184Z</time>
      </trkpt>
      <trkpt lon="31.111198" lat="-29.617797">
        <ele>91.2399</ele>
        <time>2026-01-28T12:25:14.868Z</time>
      </trkpt>
      <trkpt lon="31.111106" lat="-29.617760">
        <ele>91.2489</ele>
        <time>2026-01-28T12:25:16.152Z</time>
      </trkpt>
      <trkpt lon="31.111015" lat="-29.617713">
        <ele>91.2539</ele>
        <time>2026-01-28T12:25:17.484Z</time>
      </trkpt>
      <trkpt lon="31.110931" lat="-29.617655">
        <ele>91.2632</ele>
        <time>2026-01-28T12:25:18.800Z</time>
      </trkpt>
      <trkpt lon="31.110679" lat="-29.617473">
        <ele>91.2913</ele>
        <time>2026-01-28T12:25:22.728Z</time>
      </trkpt>
      <trkpt lon="31.109937" lat="-29.617009">
        <ele>91.3326</ele>
        <time>2026-01-28T12:25:33.272Z</time>
      </trkpt>
      <trkpt lon="31.109657" lat="-29.616829">
        <ele>91.3388</ele>
        <time>2026-01-28T12:25:37.196Z</time>
      </trkpt>
      <trkpt lon="31.109551" lat="-29.616789">
        <ele>91.3351</ele>
        <time>2026-01-28T12:25:38.504Z</time>
      </trkpt>
      <trkpt lon="31.109497" lat="-29.616777">
        <ele>91.3318</ele>
        <time>2026-01-28T12:25:39.132Z</time>
      </trkpt>
      <trkpt lon="31.109439" lat="-29.616771">
        <ele>91.3319</ele>
        <time>2026-01-28T12:25:39.796Z</time>
      </trkpt>
      <trkpt lon="31.109324" lat="-29.616774">
        <ele>91.32</ele>
        <time>2026-01-28T12:25:41.088Z</time>
      </trkpt>
      <trkpt lon="31.109263" lat="-29.616788">
        <ele>91.3153</ele>
        <time>2026-01-28T12:25:41.792Z</time>
      </trkpt>
      <trkpt lon="31.109209" lat="-29.616808">
        <ele>91.3078</ele>
        <time>2026-01-28T12:25:42.436Z</time>
      </trkpt>
      <trkpt lon="31.109159" lat="-29.616835">
        <ele>91.2975</ele>
        <time>2026-01-28T12:25:43.100Z</time>
      </trkpt>
      <trkpt lon="31.109115" lat="-29.616867">
        <ele>91.2917</ele>
        <time>2026-01-28T12:25:43.752Z</time>
      </trkpt>
      <trkpt lon="31.109071" lat="-29.616907">
        <ele>91.2855</ele>
        <time>2026-01-28T12:25:44.424Z</time>
      </trkpt>
      <trkpt lon="31.108857" lat="-29.617170">
        <ele>91.2394</ele>
        <time>2026-01-28T12:25:48.344Z</time>
      </trkpt>
      <trkpt lon="31.108363" lat="-29.617760">
        <ele>91.1411</ele>
        <time>2026-01-28T12:25:56.920Z</time>
      </trkpt>
      <trkpt lon="31.107748" lat="-29.618404">
        <ele>91.0302</ele>
        <time>2026-01-28T12:26:07.404Z</time>
      </trkpt>
      <trkpt lon="31.107303" lat="-29.618921">
        <ele>90.9379</ele>
        <time>2026-01-28T12:26:16.624Z</time>
      </trkpt>
      <trkpt lon="31.107150" lat="-29.619127">
        <ele>90.9019</ele>
        <time>2026-01-28T12:26:25.120Z</time>
      </trkpt>
      <trkpt lon="31.107138" lat="-29.619149">
        <ele>90.8973</ele>
        <time>2026-01-28T12:26:25.804Z</time>
      </trkpt>
      <trkpt lon="31.107131" lat="-29.619171">
        <ele>90.8995</ele>
        <time>2026-01-28T12:26:26.488Z</time>
      </trkpt>
      <trkpt lon="31.107128" lat="-29.619187">
        <ele>90.8922</ele>
        <time>2026-01-28T12:26:27.132Z</time>
      </trkpt>
      <trkpt lon="31.107129" lat="-29.619203">
        <ele>90.8944</ele>
        <time>2026-01-28T12:26:27.768Z</time>
      </trkpt>
      <trkpt lon="31.107134" lat="-29.619221">
        <ele>90.8918</ele>
        <time>2026-01-28T12:26:28.416Z</time>
      </trkpt>
      <trkpt lon="31.107146" lat="-29.619245">
        <ele>90.8916</ele>
        <time>2026-01-28T12:26:29.076Z</time>
      </trkpt>
      <trkpt lon="31.107163" lat="-29.619270">
        <ele>90.8919</ele>
        <time>2026-01-28T12:26:29.720Z</time>
      </trkpt>
      <trkpt lon="31.107188" lat="-29.619297">
        <ele>90.8948</ele>
        <time>2026-01-28T12:26:30.380Z</time>
      </trkpt>
      <trkpt lon="31.107223" lat="-29.619321">
        <ele>90.89</ele>
        <time>2026-01-28T12:26:31.052Z</time>
      </trkpt>
      <trkpt lon="31.107595" lat="-29.619512">
        <ele>90.8842</ele>
        <time>2026-01-28T12:26:37.540Z</time>
      </trkpt>
      <trkpt lon="31.107644" lat="-29.619538">
        <ele>90.892</ele>
        <time>2026-01-28T12:26:40.796Z</time>
      </trkpt>
      <trkpt lon="31.107711" lat="-29.619574">
        <ele>90.8846</ele>
        <time>2026-01-28T12:26:42.768Z</time>
      </trkpt>
    </trkseg>
    <trkseg>
      <trkpt lon="8.563189" lat="50.045702">
        <ele>103.602</ele>
        <time>2026-03-06T10:16:03.548Z</time>
      </trkpt>
    </trkseg>
    <trkseg>
      <trkpt lon="90.000326" lat="0.000445">
        <ele>26.7607</ele>
        <time>2026-03-06T10:34:33.236Z</time>
      </trkpt>
      <trkpt lon="90.000333" lat="0.000989">
        <ele>26.6794</ele>
        <time>2026-03-06T10:34:43.280Z</time>
      </trkpt>
      <trkpt lon="90.000339" lat="0.001389">
        <ele>26.6211</ele>
        <time>2026-03-06T10:34:54.224Z</time>
      </trkpt>
    </trkseg>
    <trkseg>
      <trkpt lon="8.558323" lat="50.041028">
        <ele>103.644</ele>
        <time>2026-03-06T10:36:19.104Z</time>
      </trkpt>
      <trkpt lon="8.562335" lat="50.045478">
        <ele>103.681</ele>
        <time>2026-03-06T11:22:55.008Z</time>
      </trkpt>
    </trkseg>
    <trkseg>
      <trkpt lon="7.909580" lat="53.787370">
        <ele>2.66396</ele>
        <time>2026-03-06T11:54:32.348Z</time>
      </trkpt>
      <trkpt lon="7.913224" lat="53.783242">
        <ele>2.10922</ele>
        <time>2026-03-06T17:50:20.428Z</time>
      </trkpt>
      <trkpt lon="7.913227" lat="53.782808">
        <ele>2.09897</ele>
        <time>2026-03-06T17:50:39.156Z</time>
      </trkpt>
      <trkpt lon="7.913324" lat="53.782807">
        <ele>2.09739</ele>
        <time>2026-03-06T09:42:35.428Z</time>
      </trkpt>
      <trkpt lon="7.913570" lat="53.782804">
        <ele>1.9879</ele>
        <time>2026-03-06T09:42:36.796Z</time>
      </trkpt>
      <trkpt lon="7.913955" lat="53.782780">
        <ele>1.84029</ele>
        <time>2026-03-06T09:42:38.168Z</time>
      </trkpt>
      <trkpt lon="7.914449" lat="53.782754">
        <ele>1.70506</ele>
        <time>2026-03-06T09:42:39.496Z</time>
      </trkpt>
      <trkpt lon="7.915363" lat="53.782711">
        <ele>2.58939</ele>
        <time>2026-03-06T09:42:41.464Z</time>
      </trkpt>
      <trkpt lon="7.916781" lat="53.782621">
        <ele>14.1358</ele>
        <time>2026-03-06T09:42:44.184Z</time>
      </trkpt>
      <trkpt lon="7.918357" lat="53.782487">
        <ele>33.0952</ele>
        <time>2026-03-06T09:42:47.548Z</time>
      </trkpt>
      <trkpt lon="7.926152" lat="53.781877">
        <ele>50.927</ele>
        <time>2026-03-06T09:43:04.828Z</time>
      </trkpt>
      <trkpt lon="7.929838" lat="53.781550">
        <ele>52.2111</ele>
        <time>2026-03-06T09:43:12.128Z</time>
      </trkpt>
      <trkpt lon="7.931873" lat="53.781452">
        <ele>49.0635</ele>
        <time>2026-03-06T09:43:15.488Z</time>
      </trkpt>
      <trkpt lon="7.933185" lat="53.781483">
        <ele>49.9845</ele>
        <time>2026-03-06T09:43:17.520Z</time>
      </trkpt>
      <trkpt lon="7.934485" lat="53.781595">
        <ele>52.9712</ele>
        <time>2026-03-06T09:43:19.496Z</time>
      </trkpt>
      <trkpt lon="7.941252" lat="53.782585">
        <ele>59.239</ele>
        <time>2026-03-06T09:43:29.420Z</time>
      </trkpt>
      <trkpt lon="7.945173" lat="53.783319">
        <ele>63.1758</ele>
        <time>2026-03-06T09:43:35.408Z</time>
      </trkpt>
      <trkpt lon="7.948050" lat="53.783904">
        <ele>43.7078</ele>
        <time>2026-03-06T09:43:40.100Z</time>
      </trkpt>
      <trkpt lon="7.949722" lat="53.784157">
        <ele>36.6619</ele>
        <time>2026-03-06T09:43:42.756Z</time>
      </trkpt>
      <trkpt lon="7.951064" lat="53.784259">
        <ele>32.7359</ele>
        <time>2026-03-06T09:43:44.792Z</time>
      </trkpt>
      <trkpt lon="7.952416" lat="53.784256">
        <ele>29.6022</ele>
        <time>2026-03-06T09:43:46.796Z</time>
      </trkpt>
      <trkpt lon="7.953754" lat="53.784158">
        <ele>27.4476</ele>
        <time>2026-03-06T09:43:48.772Z</time>
      </trkpt>
      <trkpt lon="7.956013" lat="53.783841">
        <ele>26.1689</ele>
        <time>2026-03-06T09:43:52.124Z</time>
      </trkpt>
      <trkpt lon="7.961987" lat="53.782555">
        <ele>27.2501</ele>
        <time>2026-03-06T09:44:00.912Z</time>
      </trkpt>
      <trkpt lon="7.967621" lat="53.781104">
        <ele>33.7146</ele>
        <time>2026-03-06T09:44:09.588Z</time>
      </trkpt>
      <trkpt lon="7.968879" lat="53.780679">
        <ele>32.7301</ele>
        <time>2026-03-06T09:44:11.620Z</time>
      </trkpt>
      <trkpt lon="7.969676" lat="53.780342">
        <ele>32.6321</ele>
        <time>2026-03-06T09:44:12.960Z</time>
      </trkpt>
      <trkpt lon="7.970416" lat="53.779937">
        <ele>34.1816</ele>
        <time>2026-03-06T09:44:14.292Z</time>
      </trkpt>
      <trkpt lon="7.970756" lat="53.779697">
        <ele>35.3214</ele>
        <time>2026-03-06T09:44:14.964Z</time>
      </trkpt>
      <trkpt lon="7.971064" lat="53.779429">
        <ele>36.636</ele>
        <time>2026-03-06T09:44:15.648Z</time>
      </trkpt>
      <trkpt lon="7.971330" lat="53.779141">
        <ele>37.7187</ele>
        <time>2026-03-06T09:44:16.332Z</time>
      </trkpt>
      <trkpt lon="7.971545" lat="53.778845">
        <ele>38.2557</ele>
        <time>2026-03-06T09:44:16.988Z</time>
      </trkpt>
      <trkpt lon="7.971719" lat="53.778530">
        <ele>38.3046</ele>
        <time>2026-03-06T09:44:17.652Z</time>
      </trkpt>
      <trkpt lon="7.971846" lat="53.778193">
        <ele>37.9621</ele>
        <time>2026-03-06T09:44:18.336Z</time>
      </trkpt>
      <trkpt lon="7.971918" lat="53.777849">
        <ele>37.2986</ele>
        <time>2026-03-06T09:44:19.040Z</time>
      </trkpt>
      <trkpt lon="7.971934" lat="53.777480">
        <ele>36.2945</ele>
        <time>2026-03-06T09:44:19.712Z</time>
      </trkpt>
      <trkpt lon="7.971889" lat="53.777141">
        <ele>35.4648</ele>
        <time>2026-03-06T09:44:20.340Z</time>
      </trkpt>
      <trkpt lon="7.971783" lat="53.776797">
        <ele>34.8466</ele>
        <time>2026-03-06T09:44:20.996Z</time>
      </trkpt>
      <trkpt lon="7.971623" lat="53.776471">
        <ele>34.5042</ele>
        <time>2026-03-06T09:44:21.632Z</time>
      </trkpt>
      <trkpt lon="7.971384" lat="53.776123">
        <ele>34.4659</ele>
        <time>2026-03-06T09:44:22.300Z</time>
      </trkpt>
      <trkpt lon="7.971088" lat="53.775799">
        <ele>34.7661</ele>
        <time>2026-03-06T09:44:22.968Z</time>
      </trkpt>
      <trkpt lon="7.970731" lat="53.775491">
        <ele>35.3459</ele>
        <time>2026-03-06T09:44:23.636Z</time>
      </trkpt>
      <trkpt lon="7.970317" lat="53.775206">
        <ele>36.1849</ele>
        <time>2026-03-06T09:44:24.292Z</time>
      </trkpt>
      <trkpt lon="7.969847" lat="53.774951">
        <ele>37.5377</ele>
        <time>2026-03-06T09:44:24.956Z</time>
      </trkpt>
      <trkpt lon="7.969363" lat="53.774749">
        <ele>39.4221</ele>
        <time>2026-03-06T09:44:25.592Z</time>
      </trkpt>
      <trkpt lon="7.968808" lat="53.774575">
        <ele>42.0304</ele>
        <time>2026-03-06T09:44:26.240Z</time>
      </trkpt>
      <trkpt lon="7.968199" lat="53.774441">
        <ele>45.3209</ele>
        <time>2026-03-06T09:44:26.908Z</time>
      </trkpt>
      <trkpt lon="7.967567" lat="53.774358">
        <ele>49.1206</ele>
        <time>2026-03-06T09:44:27.592Z</time>
      </trkpt>
      <trkpt lon="7.966910" lat="53.774323">
        <ele>53.2791</ele>
        <time>2026-03-06T09:44:28.288Z</time>
      </trkpt>
      <trkpt lon="7.966275" lat="53.774332">
        <ele>57.398</ele>
        <time>2026-03-06T09:44:28.968Z</time>
      </trkpt>
      <trkpt lon="7.965642" lat="53.774379">
        <ele>62.031</ele>
        <time>2026-03-06T09:44:29.656Z</time>
      </trkpt>
      <trkpt lon="7.964432" lat="53.774556">
        <ele>74.6973</ele>
        <time>2026-03-06T09:44:31.028Z</time>
      </trkpt>
      <trkpt lon="7.962796" lat="53.774915">
        <ele>101.918</ele>
        <time>2026-03-06T09:44:33.052Z</time>
      </trkpt>
      <trkpt lon="7.961828" lat="53.775168">
        <ele>124.515</ele>
        <time>2026-03-06T09:44:34.380Z</time>
      </trkpt>
      <trkpt lon="7.960963" lat="53.775414">
        <ele>148.537</ele>
        <time>2026-03-06T09:44:35.688Z</time>
      </trkpt>
      <trkpt lon="7.960120" lat="53.775673">
        <ele>174.281</ele>
        <time>2026-03-06T09:44:37.036Z</time>
      </trkpt>
      <trkpt lon="7.958945" lat="53.776063">
        <ele>205.511</ele>
        <time>2026-03-06T09:44:39.036Z</time>
      </trkpt>
      <trkpt lon="7.956954" lat="53.776764">
        <ele>232.423</ele>
        <time>2026-03-06T09:44:42.460Z</time>
      </trkpt>
      <trkpt lon="7.954808" lat="53.777499">
        <ele>229.103</ele>
        <time>2026-03-06T09:44:45.792Z</time>
      </trkpt>
      <trkpt lon="7.951935" lat="53.778452">
        <ele>219.659</ele>
        <time>2026-03-06T09:44:49.756Z</time>
      </trkpt>
      <trkpt lon="7.949902" lat="53.779258">
        <ele>204.168</ele>
        <time>2026-03-06T09:44:52.472Z</time>
      </trkpt>
      <trkpt lon="7.947967" lat="53.780193">
        <ele>180.352</ele>
        <time>2026-03-06T09:44:55.080Z</time>
      </trkpt>
      <trkpt lon="7.946027" lat="53.781290">
        <ele>157.423</ele>
        <time>2026-03-06T09:44:57.728Z</time>
      </trkpt>
      <trkpt lon="7.943233" lat="53.783099">
        <ele>134.828</ele>
        <time>2026-03-06T09:45:01.684Z</time>
      </trkpt>
      <trkpt lon="7.938715" lat="53.786052">
        <ele>113.354</ele>
        <time>2026-03-06T09:45:08.268Z</time>
      </trkpt>
      <trkpt lon="7.936740" lat="53.787082">
        <ele>101.261</ele>
        <time>2026-03-06T09:45:11.004Z</time>
      </trkpt>
      <trkpt lon="7.934621" lat="53.787960">
        <ele>84.7071</ele>
        <time>2026-03-06T09:45:13.696Z</time>
      </trkpt>
      <trkpt lon="7.932284" lat="53.788706">
        <ele>67.2997</ele>
        <time>2026-03-06T09:45:16.360Z</time>
      </trkpt>
      <trkpt lon="7.929729" lat="53.789335">
        <ele>55.2293</ele>
        <time>2026-03-06T09:45:19.056Z</time>
      </trkpt>
      <trkpt lon="7.919697" lat="53.791212">
        <ele>51.6964</ele>
        <time>2026-03-06T09:45:29.652Z</time>
      </trkpt>
      <trkpt lon="7.913682" lat="53.792169">
        <ele>32.4748</ele>
        <time>2026-03-06T09:45:36.336Z</time>
      </trkpt>
      <trkpt lon="7.908522" lat="53.793169">
        <ele>15.8316</ele>
        <time>2026-03-06T09:45:42.308Z</time>
      </trkpt>
      <trkpt lon="7.904514" lat="53.793815">
        <ele>9.6434</ele>
        <time>2026-03-06T09:45:46.916Z</time>
      </trkpt>
      <trkpt lon="7.902055" lat="53.794048">
        <ele>15.683</ele>
        <time>2026-03-06T09:45:49.560Z</time>
      </trkpt>
      <trkpt lon="7.896956" lat="53.794215">
        <ele>21.0286</ele>
        <time>2026-03-06T09:45:54.880Z</time>
      </trkpt>
      <trkpt lon="7.888416" lat="53.794209">
        <ele>39.0657</ele>
        <time>2026-03-06T09:46:03.560Z</time>
      </trkpt>
      <trkpt lon="7.884528" lat="53.794111">
        <ele>58.0687</ele>
        <time>2026-03-06T09:46:07.540Z</time>
      </trkpt>
      <trkpt lon="7.881378" lat="53.793899">
        <ele>74.3224</ele>
        <time>2026-03-06T09:46:10.848Z</time>
      </trkpt>
      <trkpt lon="7.878833" lat="53.793570">
        <ele>84.9504</ele>
        <time>2026-03-06T09:46:13.592Z</time>
      </trkpt>
      <trkpt lon="7.876991" lat="53.793213">
        <ele>91.7649</ele>
        <time>2026-03-06T09:46:15.624Z</time>
      </trkpt>
      <trkpt lon="7.875260" lat="53.792763">
        <ele>96.3079</ele>
        <time>2026-03-06T09:46:17.604Z</time>
      </trkpt>
      <trkpt lon="7.864933" lat="53.789630">
        <ele>115.565</ele>
        <time>2026-03-06T09:46:29.784Z</time>
      </trkpt>
      <trkpt lon="7.862460" lat="53.789181">
        <ele>115.327</ele>
        <time>2026-03-06T09:46:32.416Z</time>
      </trkpt>
      <trkpt lon="7.860562" lat="53.788963">
        <ele>88.9288</ele>
        <time>2026-03-06T09:46:34.368Z</time>
      </trkpt>
      <trkpt lon="7.859228" lat="53.788929">
        <ele>60.4255</ele>
        <time>2026-03-06T09:46:35.676Z</time>
      </trkpt>
      <trkpt lon="7.858538" lat="53.788978">
        <ele>46.4125</ele>
        <time>2026-03-06T09:46:36.324Z</time>
      </trkpt>
      <trkpt lon="7.857814" lat="53.789098">
        <ele>36.3224</ele>
        <time>2026-03-06T09:46:37.004Z</time>
      </trkpt>
      <trkpt lon="7.855746" lat="53.789644">
        <ele>27.4042</ele>
        <time>2026-03-06T09:46:39.032Z</time>
      </trkpt>
      <trkpt lon="7.853158" lat="53.790319">
        <ele>30.4072</ele>
        <time>2026-03-06T09:46:41.648Z</time>
      </trkpt>
      <trkpt lon="7.851817" lat="53.790527">
        <ele>34.2878</ele>
        <time>2026-03-06T09:46:42.964Z</time>
      </trkpt>
      <trkpt lon="7.851093" lat="53.790582">
        <ele>36.3975</ele>
        <time>2026-03-06T09:46:43.660Z</time>
      </trkpt>
      <trkpt lon="7.849729" lat="53.790573">
        <ele>38.7046</ele>
        <time>2026-03-06T09:46:44.980Z</time>
      </trkpt>
      <trkpt lon="7.849029" lat="53.790515">
        <ele>38.5176</ele>
        <time>2026-03-06T09:46:45.668Z</time>
      </trkpt>
      <trkpt lon="7.848401" lat="53.790430">
        <ele>37.6888</ele>
        <time>2026-03-06T09:46:46.308Z</time>
      </trkpt>
      <trkpt lon="7.847755" lat="53.790305">
        <ele>36.48</ele>
        <time>2026-03-06T09:46:46.948Z</time>
      </trkpt>
      <trkpt lon="7.847143" lat="53.790146">
        <ele>35.2959</ele>
        <time>2026-03-06T09:46:47.600Z</time>
      </trkpt>
      <trkpt lon="7.846552" lat="53.789949">
        <ele>34.2103</ele>
        <time>2026-03-06T09:46:48.256Z</time>
      </trkpt>
      <trkpt lon="7.845984" lat="53.789714">
        <ele>33.144</ele>
        <time>2026-03-06T09:46:48.920Z</time>
      </trkpt>
      <trkpt lon="7.844980" lat="53.789163">
        <ele>31.1909</ele>
        <time>2026-03-06T09:46:50.248Z</time>
      </trkpt>
      <trkpt lon="7.840371" lat="53.786266">
        <ele>33.9723</ele>
        <time>2026-03-06T09:46:56.816Z</time>
      </trkpt>
      <trkpt lon="7.838782" lat="53.785544">
        <ele>38.3635</ele>
        <time>2026-03-06T09:46:58.788Z</time>
      </trkpt>
      <trkpt lon="7.835901" lat="53.784490">
        <ele>42.7817</ele>
        <time>2026-03-06T09:47:02.148Z</time>
      </trkpt>
      <trkpt lon="7.831079" lat="53.782943">
        <ele>25.3744</ele>
        <time>2026-03-06T09:47:07.492Z</time>
      </trkpt>
      <trkpt lon="7.820020" lat="53.779881">
        <ele>27.3231</ele>
        <time>2026-03-06T09:47:19.328Z</time>
      </trkpt>
      <trkpt lon="7.815341" lat="53.778745">
        <ele>17.2492</ele>
        <time>2026-03-06T09:47:24.664Z</time>
      </trkpt>
      <trkpt lon="7.812783" lat="53.778311">
        <ele>11.9315</ele>
        <time>2026-03-06T09:47:27.344Z</time>
      </trkpt>
      <trkpt lon="7.810171" lat="53.778035">
        <ele>9.34974</ele>
        <time>2026-03-06T09:47:29.968Z</time>
      </trkpt>
      <trkpt lon="7.806758" lat="53.777880">
        <ele>13.8651</ele>
        <time>2026-03-06T09:47:33.328Z</time>
      </trkpt>
      <trkpt lon="7.802719" lat="53.777919">
        <ele>31.435</ele>
        <time>2026-03-06T09:47:37.380Z</time>
      </trkpt>
      <trkpt lon="7.799511" lat="53.778015">
        <ele>52.0275</ele>
        <time>2026-03-06T09:47:40.712Z</time>
      </trkpt>
      <trkpt lon="7.796411" lat="53.778118">
        <ele>72.8891</ele>
        <time>2026-03-06T09:47:44.012Z</time>
      </trkpt>
      <trkpt lon="7.792915" lat="53.778297">
        <ele>81.339</ele>
        <time>2026-03-06T09:47:48.028Z</time>
      </trkpt>
      <trkpt lon="7.790193" lat="53.778517">
        <ele>60.9703</ele>
        <time>2026-03-06T09:47:51.324Z</time>
      </trkpt>
      <trkpt lon="7.788493" lat="53.778693">
        <ele>40.1232</ele>
        <time>2026-03-06T09:47:53.364Z</time>
      </trkpt>
      <trkpt lon="7.784735" lat="53.779061">
        <ele>24.8891</ele>
        <time>2026-03-06T09:47:57.996Z</time>
      </trkpt>
      <trkpt lon="7.783829" lat="53.779137">
        <ele>26.4228</ele>
        <time>2026-03-06T09:47:59.324Z</time>
      </trkpt>
      <trkpt lon="7.782641" lat="53.779225">
        <ele>25.419</ele>
        <time>2026-03-06T09:48:01.292Z</time>
      </trkpt>
      <trkpt lon="7.778856" lat="53.779425">
        <ele>20.2474</ele>
        <time>2026-03-06T09:48:08.544Z</time>
      </trkpt>
      <trkpt lon="7.777308" lat="53.779558">
        <ele>17.5997</ele>
        <time>2026-03-06T09:48:11.836Z</time>
      </trkpt>
      <trkpt lon="7.772426" lat="53.780158">
        <ele>5.40085</ele>
        <time>2026-03-06T09:48:23.204Z</time>
      </trkpt>
      <trkpt lon="7.769607" lat="53.780329">
        <ele>2.44625</ele>
        <time>2026-03-06T09:48:30.620Z</time>
      </trkpt>
      <trkpt lon="7.768794" lat="53.780361">
        <ele>2.67528</ele>
        <time>2026-03-06T09:48:33.224Z</time>
      </trkpt>
      <trkpt lon="7.768375" lat="53.780367">
        <ele>2.71219</ele>
        <time>2026-03-06T09:48:35.208Z</time>
      </trkpt>
      <trkpt lon="7.768050" lat="53.780381">
        <ele>2.4195</ele>
        <time>2026-03-06T09:48:37.144Z</time>
      </trkpt>
      <trkpt lon="7.765939" lat="53.780271">
        <ele>3.23741</ele>
        <time>2026-03-06T09:48:47.708Z</time>
      </trkpt>
      <trkpt lon="7.765489" lat="53.780271">
        <ele>3.317</ele>
        <time>2026-03-06T09:48:50.364Z</time>
      </trkpt>
      <trkpt lon="7.765274" lat="53.780265">
        <ele>3.68526</ele>
        <time>2026-03-06T09:48:52.988Z</time>
      </trkpt>
      <trkpt lon="7.876742" lat="53.794094">
        <ele>0.662598</ele>
        <time>2026-03-06T12:02:00.708Z</time>
      </trkpt>
      <trkpt lon="7.876643" lat="53.794071">
        <ele>1.12013</ele>
        <time>2026-03-06T12:02:09.616Z</time>
      </trkpt>
      <trkpt lon="7.875230" lat="53.793756">
        <ele>1.25191</ele>
        <time>2026-03-06T12:02:10.272Z</time>
      </trkpt>
      <trkpt lon="7.872385" lat="53.793123">
        <ele>5.81784</ele>
        <time>2026-03-06T12:02:10.920Z</time>
      </trkpt>
      <trkpt lon="7.868702" lat="53.792302">
        <ele>2.9557</ele>
        <time>2026-03-06T12:02:12.232Z</time>
      </trkpt>
      <trkpt lon="7.867955" lat="53.792136">
        <ele>3.19851</ele>
        <time>2026-03-06T12:02:12.860Z</time>
      </trkpt>
      <trkpt lon="7.867520" lat="53.792388">
        <ele>4.09514</ele>
        <time>2026-03-06T12:02:13.496Z</time>
      </trkpt>
      <trkpt lon="7.864199" lat="53.794085">
        <ele>1.20396</ele>
        <time>2026-03-06T12:02:14.780Z</time>
      </trkpt>
      <trkpt lon="7.862774" lat="53.793767">
        <ele>1.29435</ele>
        <time>2026-03-06T12:02:15.408Z</time>
      </trkpt>
      <trkpt lon="7.861739" lat="53.793537">
        <ele>1.45506</ele>
        <time>2026-03-06T12:02:16.076Z</time>
      </trkpt>
      <trkpt lon="7.859160" lat="53.792544">
        <ele>1.47787</ele>
        <time>2026-03-06T12:02:17.396Z</time>
      </trkpt>
      <trkpt lon="7.857870" lat="53.792149">
        <ele>1.57906</ele>
        <time>2026-03-06T12:02:18.044Z</time>
      </trkpt>
      <trkpt lon="7.857049" lat="53.791406">
        <ele>1.37101</ele>
        <time>2026-03-06T12:02:18.700Z</time>
      </trkpt>
      <trkpt lon="7.855793" lat="53.790855">
        <ele>1.71934</ele>
        <time>2026-03-06T12:02:19.340Z</time>
      </trkpt>
      <trkpt lon="7.850438" lat="53.788940">
        <ele>9.79817</ele>
        <time>2026-03-06T12:02:21.940Z</time>
      </trkpt>
      <trkpt lon="7.848773" lat="53.788320">
        <ele>3.56504</ele>
        <time>2026-03-06T12:02:22.584Z</time>
      </trkpt>
      <trkpt lon="7.858166" lat="53.782511">
        <ele>1.20572</ele>
        <time>2026-03-06T12:02:27.208Z</time>
      </trkpt>
      <trkpt lon="7.859884" lat="53.781941">
        <ele>8.05461</ele>
        <time>2026-03-06T12:02:27.916Z</time>
      </trkpt>
      <trkpt lon="7.860081" lat="53.781785">
        <ele>10.238</ele>
        <time>2026-03-06T12:02:28.544Z</time>
      </trkpt>
      <trkpt lon="7.860188" lat="53.781613">
        <ele>6.70278</ele>
        <time>2026-03-06T12:02:38.740Z</time>
      </trkpt>
      <trkpt lon="7.858989" lat="53.782147">
        <ele>1.626</ele>
        <time>2026-03-06T12:02:40.636Z</time>
      </trkpt>
      <trkpt lon="7.858829" lat="53.782710">
        <ele>6.49352</ele>
        <time>2026-03-06T12:02:41.912Z</time>
      </trkpt>
      <trkpt lon="7.858639" lat="53.782941">
        <ele>9.4717</ele>
        <time>2026-03-06T12:02:42.548Z</time>
      </trkpt>
      <trkpt lon="7.858373" lat="53.782881">
        <ele>7.02119</ele>
        <time>2026-03-06T12:02:43.184Z</time>
      </trkpt>
      <trkpt lon="7.859192" lat="53.781922">
        <ele>1.41729</ele>
        <time>2026-03-06T12:02:53.392Z</time>
      </trkpt>
      <trkpt lon="7.859146" lat="53.781912">
        <ele>1.46622</ele>
        <time>2026-03-06T12:04:04.764Z</time>
      </trkpt>
      <trkpt lon="7.859096" lat="53.781901">
        <ele>1.46617</ele>
        <time>2026-03-06T12:04:25.132Z</time>
      </trkpt>
      <trkpt lon="7.859647" lat="53.781639">
        <ele>1.25047</ele>
        <time>2026-03-06T23:07:08.800Z</time>
      </trkpt>
      <trkpt lon="7.913224" lat="53.783242">
        <ele>2.10617</ele>
        <time>2026-03-07T11:53:24.240Z</time>
      </trkpt>
      <trkpt lon="7.913228" lat="53.782808">
        <ele>2.12358</ele>
        <time>2026-03-07T11:53:42.752Z</time>
      </trkpt>
      <trkpt lon="7.913282" lat="53.782806">
        <ele>2.09655</ele>
        <time>2026-03-07T11:53:52.928Z</time>
      </trkpt>
      <trkpt lon="7.913354" lat="53.782804">
        <ele>2.08001</ele>
        <time>2026-03-07T11:54:00.552Z</time>
      </trkpt>
      <trkpt lon="7.913566" lat="53.782797">
        <ele>1.98804</ele>
        <time>2026-03-07T11:54:01.828Z</time>
      </trkpt>
      <trkpt lon="7.913900" lat="53.782786">
        <ele>1.84183</ele>
        <time>2026-03-07T11:54:03.084Z</time>
      </trkpt>
      <trkpt lon="7.914348" lat="53.782756">
        <ele>1.69434</ele>
        <time>2026-03-07T11:54:04.352Z</time>
      </trkpt>
      <trkpt lon="7.915213" lat="53.782691">
        <ele>3.49232</ele>
        <time>2026-03-07T11:54:06.272Z</time>
      </trkpt>
      <trkpt lon="7.916547" lat="53.782547">
        <ele>14.1697</ele>
        <time>2026-03-07T11:54:08.816Z</time>
      </trkpt>
      <trkpt lon="7.918122" lat="53.782407">
        <ele>23.1169</ele>
        <time>2026-03-07T11:54:11.360Z</time>
      </trkpt>
      <trkpt lon="7.919451" lat="53.782360">
        <ele>32.2615</ele>
        <time>2026-03-07T11:54:13.264Z</time>
      </trkpt>
      <trkpt lon="7.920836" lat="53.782404">
        <ele>45.2941</ele>
        <time>2026-03-07T11:54:15.184Z</time>
      </trkpt>
      <trkpt lon="7.922219" lat="53.782527">
        <ele>64.2075</ele>
        <time>2026-03-07T11:54:17.088Z</time>
      </trkpt>
      <trkpt lon="7.923536" lat="53.782720">
        <ele>88.5221</ele>
        <time>2026-03-07T11:54:18.988Z</time>
      </trkpt>
      <trkpt lon="7.923940" lat="53.782809">
        <ele>96.6395</ele>
        <time>2026-03-07T11:54:19.608Z</time>
      </trkpt>
      <trkpt lon="7.924343" lat="53.782921">
        <ele>104.419</ele>
        <time>2026-03-07T11:54:20.252Z</time>
      </trkpt>
      <trkpt lon="7.924711" lat="53.783055">
        <ele>110.851</ele>
        <time>2026-03-07T11:54:20.884Z</time>
      </trkpt>
      <trkpt lon="7.925058" lat="53.783216">
        <ele>115.404</ele>
        <time>2026-03-07T11:54:21.524Z</time>
      </trkpt>
      <trkpt lon="7.925373" lat="53.783402">
        <ele>117.405</ele>
        <time>2026-03-07T11:54:22.160Z</time>
      </trkpt>
      <trkpt lon="7.925651" lat="53.783617">
        <ele>116.576</ele>
        <time>2026-03-07T11:54:22.796Z</time>
      </trkpt>
      <trkpt lon="7.925869" lat="53.783868">
        <ele>113.161</ele>
        <time>2026-03-07T11:54:23.444Z</time>
      </trkpt>
      <trkpt lon="7.925989" lat="53.784142">
        <ele>107.995</ele>
        <time>2026-03-07T11:54:24.080Z</time>
      </trkpt>
      <trkpt lon="7.925995" lat="53.784437">
        <ele>101.664</ele>
        <time>2026-03-07T11:54:24.712Z</time>
      </trkpt>
      <trkpt lon="7.925879" lat="53.784740">
        <ele>94.6683</ele>
        <time>2026-03-07T11:54:25.356Z</time>
      </trkpt>
      <trkpt lon="7.925662" lat="53.785023">
        <ele>87.5398</ele>
        <time>2026-03-07T11:54:25.980Z</time>
      </trkpt>
      <trkpt lon="7.925331" lat="53.785311">
        <ele>79.3523</ele>
        <time>2026-03-07T11:54:26.672Z</time>
      </trkpt>
      <trkpt lon="7.924910" lat="53.785561">
        <ele>71.8729</ele>
        <time>2026-03-07T11:54:27.316Z</time>
      </trkpt>
      <trkpt lon="7.924422" lat="53.785759">
        <ele>65.8628</ele>
        <time>2026-03-07T11:54:27.972Z</time>
      </trkpt>
      <trkpt lon="7.923882" lat="53.785900">
        <ele>61.5025</ele>
        <time>2026-03-07T11:54:28.596Z</time>
      </trkpt>
      <trkpt lon="7.923283" lat="53.785984">
        <ele>58.9847</ele>
        <time>2026-03-07T11:54:29.244Z</time>
      </trkpt>
      <trkpt lon="7.922674" lat="53.786003">
        <ele>58.416</ele>
        <time>2026-03-07T11:54:29.888Z</time>
      </trkpt>
      <trkpt lon="7.922056" lat="53.785973">
        <ele>58.756</ele>
        <time>2026-03-07T11:54:30.536Z</time>
      </trkpt>
      <trkpt lon="7.918570" lat="53.785608">
        <ele>63.4405</ele>
        <time>2026-03-07T11:54:34.400Z</time>
      </trkpt>
      <trkpt lon="7.917407" lat="53.785627">
        <ele>66.5534</ele>
        <time>2026-03-07T11:54:35.680Z</time>
      </trkpt>
      <trkpt lon="7.916836" lat="53.785679">
        <ele>69.2466</ele>
        <time>2026-03-07T11:54:36.320Z</time>
      </trkpt>
      <trkpt lon="7.916281" lat="53.785759">
        <ele>72.6773</ele>
        <time>2026-03-07T11:54:36.948Z</time>
      </trkpt>
      <trkpt lon="7.915754" lat="53.785869">
        <ele>76.6902</ele>
        <time>2026-03-07T11:54:37.576Z</time>
      </trkpt>
      <trkpt lon="7.915236" lat="53.786011">
        <ele>81.3091</ele>
        <time>2026-03-07T11:54:38.212Z</time>
      </trkpt>
      <trkpt lon="7.914747" lat="53.786186">
        <ele>86.2509</ele>
        <time>2026-03-07T11:54:38.852Z</time>
      </trkpt>
      <trkpt lon="7.914302" lat="53.786386">
        <ele>91.1904</ele>
        <time>2026-03-07T11:54:39.492Z</time>
      </trkpt>
      <trkpt lon="7.913895" lat="53.786614">
        <ele>95.8706</ele>
        <time>2026-03-07T11:54:40.120Z</time>
      </trkpt>
      <trkpt lon="7.913526" lat="53.786869">
        <ele>99.9752</ele>
        <time>2026-03-07T11:54:40.780Z</time>
      </trkpt>
      <trkpt lon="7.913197" lat="53.787149">
        <ele>103.219</ele>
        <time>2026-03-07T11:54:41.416Z</time>
      </trkpt>
      <trkpt lon="7.912915" lat="53.787447">
        <ele>105.44</ele>
        <time>2026-03-07T11:54:42.060Z</time>
      </trkpt>
      <trkpt lon="7.912687" lat="53.787761">
        <ele>106.782</ele>
        <time>2026-03-07T11:54:42.700Z</time>
      </trkpt>
      <trkpt lon="7.912515" lat="53.788087">
        <ele>107.399</ele>
        <time>2026-03-07T11:54:43.344Z</time>
      </trkpt>
      <trkpt lon="7.912401" lat="53.788421">
        <ele>107.386</ele>
        <time>2026-03-07T11:54:43.972Z</time>
      </trkpt>
      <trkpt lon="7.912351" lat="53.788770">
        <ele>106.925</ele>
        <time>2026-03-07T11:54:44.612Z</time>
      </trkpt>
      <trkpt lon="7.912373" lat="53.789124">
        <ele>106.087</ele>
        <time>2026-03-07T11:54:45.256Z</time>
      </trkpt>
      <trkpt lon="7.912471" lat="53.789473">
        <ele>104.872</ele>
        <time>2026-03-07T11:54:45.888Z</time>
      </trkpt>
      <trkpt lon="7.912645" lat="53.789811">
        <ele>103.354</ele>
        <time>2026-03-07T11:54:46.516Z</time>
      </trkpt>
      <trkpt lon="7.912905" lat="53.790145">
        <ele>101.373</ele>
        <time>2026-03-07T11:54:47.160Z</time>
      </trkpt>
      <trkpt lon="7.913244" lat="53.790457">
        <ele>98.8912</ele>
        <time>2026-03-07T11:54:47.800Z</time>
      </trkpt>
      <trkpt lon="7.913647" lat="53.790734">
        <ele>95.9094</ele>
        <time>2026-03-07T11:54:48.432Z</time>
      </trkpt>
      <trkpt lon="7.914127" lat="53.790983">
        <ele>92.2009</ele>
        <time>2026-03-07T11:54:49.064Z</time>
      </trkpt>
      <trkpt lon="7.914673" lat="53.791193">
        <ele>87.8921</ele>
        <time>2026-03-07T11:54:49.712Z</time>
      </trkpt>
      <trkpt lon="7.915239" lat="53.791350">
        <ele>82.9763</ele>
        <time>2026-03-07T11:54:50.348Z</time>
      </trkpt>
      <trkpt lon="7.915858" lat="53.791464">
        <ele>77.1658</ele>
        <time>2026-03-07T11:54:50.984Z</time>
      </trkpt>
      <trkpt lon="7.916505" lat="53.791519">
        <ele>71.3039</ele>
        <time>2026-03-07T11:54:51.616Z</time>
      </trkpt>
      <trkpt lon="7.917174" lat="53.791511">
        <ele>65.9538</ele>
        <time>2026-03-07T11:54:52.260Z</time>
      </trkpt>
      <trkpt lon="7.917835" lat="53.791445">
        <ele>61.9561</ele>
        <time>2026-03-07T11:54:52.896Z</time>
      </trkpt>
      <trkpt lon="7.918483" lat="53.791331">
        <ele>59.8519</ele>
        <time>2026-03-07T11:54:53.528Z</time>
      </trkpt>
      <trkpt lon="7.920822" lat="53.790695">
        <ele>62.4575</ele>
        <time>2026-03-07T11:54:56.076Z</time>
      </trkpt>
      <trkpt lon="7.922365" lat="53.790262">
        <ele>71.0917</ele>
        <time>2026-03-07T11:54:57.980Z</time>
      </trkpt>
      <trkpt lon="7.923731" lat="53.789904">
        <ele>78.8815</ele>
        <time>2026-03-07T11:54:59.880Z</time>
      </trkpt>
      <trkpt lon="7.925780" lat="53.789382">
        <ele>70.5121</ele>
        <time>2026-03-07T11:55:03.072Z</time>
      </trkpt>
      <trkpt lon="7.927376" lat="53.789054">
        <ele>52.4593</ele>
        <time>2026-03-07T11:55:05.620Z</time>
      </trkpt>
      <trkpt lon="7.931050" lat="53.788548">
        <ele>34.2132</ele>
        <time>2026-03-07T11:55:11.356Z</time>
      </trkpt>
      <trkpt lon="7.933721" lat="53.788125">
        <ele>25.5963</ele>
        <time>2026-03-07T11:55:15.776Z</time>
      </trkpt>
      <trkpt lon="7.937541" lat="53.787230">
        <ele>18.9868</ele>
        <time>2026-03-07T11:55:22.784Z</time>
      </trkpt>
      <trkpt lon="7.940656" lat="53.786344">
        <ele>19.9783</ele>
        <time>2026-03-07T11:55:29.148Z</time>
      </trkpt>
      <trkpt lon="7.940991" lat="53.786301">
        <ele>21.2755</ele>
        <time>2026-03-07T11:55:29.792Z</time>
      </trkpt>
      <trkpt lon="7.941338" lat="53.786288">
        <ele>23.2238</ele>
        <time>2026-03-07T11:55:30.448Z</time>
      </trkpt>
      <trkpt lon="7.941670" lat="53.786308">
        <ele>26.0209</ele>
        <time>2026-03-07T11:55:31.080Z</time>
      </trkpt>
      <trkpt lon="7.941993" lat="53.786369">
        <ele>29.8029</ele>
        <time>2026-03-07T11:55:31.720Z</time>
      </trkpt>
      <trkpt lon="7.942285" lat="53.786464">
        <ele>34.8219</ele>
        <time>2026-03-07T11:55:32.356Z</time>
      </trkpt>
      <trkpt lon="7.942536" lat="53.786587">
        <ele>40.9215</ele>
        <time>2026-03-07T11:55:33.000Z</time>
      </trkpt>
      <trkpt lon="7.942730" lat="53.786729">
        <ele>47.7721</ele>
        <time>2026-03-07T11:55:33.632Z</time>
      </trkpt>
      <trkpt lon="7.942865" lat="53.786884">
        <ele>55.312</ele>
        <time>2026-03-07T11:55:34.264Z</time>
      </trkpt>
      <trkpt lon="7.942933" lat="53.787052">
        <ele>63.3217</ele>
        <time>2026-03-07T11:55:34.912Z</time>
      </trkpt>
      <trkpt lon="7.942923" lat="53.787215">
        <ele>70.6118</ele>
        <time>2026-03-07T11:55:35.540Z</time>
      </trkpt>
      <trkpt lon="7.942832" lat="53.787372">
        <ele>76.8065</ele>
        <time>2026-03-07T11:55:36.180Z</time>
      </trkpt>
      <trkpt lon="7.942664" lat="53.787508">
        <ele>81.2862</ele>
        <time>2026-03-07T11:55:36.812Z</time>
      </trkpt>
      <trkpt lon="7.942426" lat="53.787617">
        <ele>83.8677</ele>
        <time>2026-03-07T11:55:37.460Z</time>
      </trkpt>
      <trkpt lon="7.942159" lat="53.787687">
        <ele>84.254</ele>
        <time>2026-03-07T11:55:38.092Z</time>
      </trkpt>
      <trkpt lon="7.941867" lat="53.787725">
        <ele>82.4062</ele>
        <time>2026-03-07T11:55:38.724Z</time>
      </trkpt>
      <trkpt lon="7.941261" lat="53.787711">
        <ele>72.9632</ele>
        <time>2026-03-07T11:55:40.000Z</time>
      </trkpt>
      <trkpt lon="7.940328" lat="53.787551">
        <ele>49.9692</ele>
        <time>2026-03-07T11:55:41.900Z</time>
      </trkpt>
      <trkpt lon="7.939649" lat="53.787428">
        <ele>31.6748</ele>
        <time>2026-03-07T11:55:43.164Z</time>
      </trkpt>
      <trkpt lon="7.939288" lat="53.787391">
        <ele>23.9579</ele>
        <time>2026-03-07T11:55:43.812Z</time>
      </trkpt>
      <trkpt lon="7.938882" lat="53.787378">
        <ele>16.92</ele>
        <time>2026-03-07T11:55:44.456Z</time>
      </trkpt>
      <trkpt lon="7.938485" lat="53.787402">
        <ele>12.1241</ele>
        <time>2026-03-07T11:55:45.100Z</time>
      </trkpt>
      <trkpt lon="7.937094" lat="53.787700">
        <ele>11.1889</ele>
        <time>2026-03-07T11:55:47.672Z</time>
      </trkpt>
      <trkpt lon="7.936187" lat="53.787893">
        <ele>12.7372</ele>
        <time>2026-03-07T11:55:49.580Z</time>
      </trkpt>
      <trkpt lon="7.934550" lat="53.788172">
        <ele>8.22336</ele>
        <time>2026-03-07T11:55:53.400Z</time>
      </trkpt>
      <trkpt lon="7.933266" lat="53.788412">
        <ele>3.15758</ele>
        <time>2026-03-07T11:55:57.236Z</time>
      </trkpt>
      <trkpt lon="7.933081" lat="53.788448">
        <ele>2.44737</ele>
        <time>2026-03-07T11:55:57.868Z</time>
      </trkpt>
      <trkpt lon="7.932753" lat="53.788492">
        <ele>2.71209</ele>
        <time>2026-03-07T11:55:59.144Z</time>
      </trkpt>
      <trkpt lon="7.932380" lat="53.788506">
        <ele>2.70974</ele>
        <time>2026-03-07T11:56:01.076Z</time>
      </trkpt>
      <trkpt lon="7.932252" lat="53.788508">
        <ele>3.00027</ele>
        <time>2026-03-07T11:56:02.988Z</time>
      </trkpt>
      <trkpt lon="7.932313" lat="53.788487">
        <ele>3.08494</ele>
        <time>2026-03-07T11:56:10.640Z</time>
      </trkpt>
      <trkpt lon="7.932670" lat="53.788413">
        <ele>3.17511</ele>
        <time>2026-03-07T11:56:11.276Z</time>
      </trkpt>
      <trkpt lon="7.933560" lat="53.788326">
        <ele>2.85488</ele>
        <time>2026-03-07T11:56:11.916Z</time>
      </trkpt>
      <trkpt lon="7.933856" lat="53.788289">
        <ele>3.1318</ele>
        <time>2026-03-07T11:56:12.540Z</time>
      </trkpt>
      <trkpt lon="7.934990" lat="53.788136">
        <ele>2.01865</ele>
        <time>2026-03-07T11:56:13.228Z</time>
      </trkpt>
      <trkpt lon="7.937064" lat="53.787862">
        <ele>1.77814</ele>
        <time>2026-03-07T11:56:13.892Z</time>
      </trkpt>
      <trkpt lon="7.938769" lat="53.787632">
        <ele>1.91671</ele>
        <time>2026-03-07T11:56:14.540Z</time>
      </trkpt>
      <trkpt lon="7.941587" lat="53.787152">
        <ele>1.60466</ele>
        <time>2026-03-07T11:56:15.208Z</time>
      </trkpt>
      <trkpt lon="7.944612" lat="53.786587">
        <ele>2.18687</ele>
        <time>2026-03-07T11:56:15.852Z</time>
      </trkpt>
      <trkpt lon="7.945487" lat="53.786393">
        <ele>2.00239</ele>
        <time>2026-03-07T11:56:16.512Z</time>
      </trkpt>
      <trkpt lon="7.945114" lat="53.786442">
        <ele>2.1807</ele>
        <time>2026-03-07T11:56:17.148Z</time>
      </trkpt>
      <trkpt lon="7.944398" lat="53.786421">
        <ele>1.80154</ele>
        <time>2026-03-07T11:56:17.788Z</time>
      </trkpt>
      <trkpt lon="7.943410" lat="53.786339">
        <ele>3.25566</ele>
        <time>2026-03-07T11:56:19.084Z</time>
      </trkpt>
      <trkpt lon="7.943282" lat="53.786874">
        <ele>1.89006</ele>
        <time>2026-03-07T11:56:19.732Z</time>
      </trkpt>
      <trkpt lon="7.941945" lat="53.786762">
        <ele>2.64831</ele>
        <time>2026-03-07T11:56:20.380Z</time>
      </trkpt>
      <trkpt lon="7.941553" lat="53.787497">
        <ele>1.88484</ele>
        <time>2026-03-07T11:56:21.004Z</time>
      </trkpt>
      <trkpt lon="7.941031" lat="53.787958">
        <ele>1.84616</ele>
        <time>2026-03-07T11:56:21.652Z</time>
      </trkpt>
      <trkpt lon="7.937827" lat="53.787683">
        <ele>1.73047</ele>
        <time>2026-03-07T11:56:22.964Z</time>
      </trkpt>
      <trkpt lon="7.936983" lat="53.787609">
        <ele>2.60843</ele>
        <time>2026-03-07T11:56:24.252Z</time>
      </trkpt>
      <trkpt lon="7.936912" lat="53.787603">
        <ele>2.46076</ele>
        <time>2026-03-07T11:56:24.896Z</time>
      </trkpt>
      <trkpt lon="7.936221" lat="53.788061">
        <ele>1.50543</ele>
        <time>2026-03-07T11:56:26.172Z</time>
      </trkpt>
      <trkpt lon="7.935519" lat="53.787998">
        <ele>1.8988</ele>
        <time>2026-03-07T11:56:26.824Z</time>
      </trkpt>
      <trkpt lon="7.935535" lat="53.788000">
        <ele>1.76105</ele>
        <time>2026-03-07T11:56:37.236Z</time>
      </trkpt>
      <trkpt lon="7.935623" lat="53.788009">
        <ele>1.54129</ele>
        <time>2026-03-07T11:56:44.232Z</time>
      </trkpt>
      <trkpt lon="7.935710" lat="53.788016">
        <ele>1.21542</ele>
        <time>2026-03-07T11:56:44.876Z</time>
      </trkpt>
      <trkpt lon="7.935821" lat="53.788015">
        <ele>1.69722</ele>
        <time>2026-03-07T11:56:45.516Z</time>
      </trkpt>
      <trkpt lon="7.936530" lat="53.787973">
        <ele>1.57639</ele>
        <time>2026-03-07T11:56:49.356Z</time>
      </trkpt>
      <trkpt lon="7.861104" lat="53.780546">
        <ele>2.05485</ele>
        <time>2026-03-07T11:57:50.840Z</time>
      </trkpt>
      <trkpt lon="7.861045" lat="53.780313">
        <ele>1.99261</ele>
        <time>2026-03-07T11:58:09.192Z</time>
      </trkpt>
      <trkpt lon="7.860939" lat="53.779891">
        <ele>1.76718</ele>
        <time>2026-03-07T11:58:09.876Z</time>
      </trkpt>
      <trkpt lon="7.860846" lat="53.779899">
        <ele>1.46796</ele>
        <time>2026-03-07T11:58:11.796Z</time>
      </trkpt>
      <trkpt lon="7.858259" lat="53.781148">
        <ele>1.6764</ele>
        <time>2026-03-07T11:58:13.160Z</time>
      </trkpt>
      <trkpt lon="7.856625" lat="53.782302">
        <ele>1.67905</ele>
        <time>2026-03-07T11:58:13.800Z</time>
      </trkpt>
      <trkpt lon="7.857448" lat="53.782824">
        <ele>1.92983</ele>
        <time>2026-03-07T11:58:15.192Z</time>
      </trkpt>
      <trkpt lon="7.857048" lat="53.782945">
        <ele>2.05151</ele>
        <time>2026-03-07T11:58:15.840Z</time>
      </trkpt>
      <trkpt lon="7.857072" lat="53.783041">
        <ele>1.8748</ele>
        <time>2026-03-07T11:58:16.472Z</time>
      </trkpt>
      <trkpt lon="7.857373" lat="53.782934">
        <ele>1.97374</ele>
        <time>2026-03-07T11:58:18.416Z</time>
      </trkpt>
      <trkpt lon="7.857848" lat="53.782394">
        <ele>1.97412</ele>
        <time>2026-03-07T11:58:19.068Z</time>
      </trkpt>
      <trkpt lon="7.858842" lat="53.781610">
        <ele>2.1378</ele>
        <time>2026-03-07T11:58:20.392Z</time>
      </trkpt>
      <trkpt lon="7.859817" lat="53.780500">
        <ele>1.6764</ele>
        <time>2026-03-07T11:58:21.704Z</time>
      </trkpt>
      <trkpt lon="7.861266" lat="53.779743">
        <ele>1.68088</ele>
        <time>2026-03-07T11:58:22.344Z</time>
      </trkpt>
      <trkpt lon="7.861440" lat="53.779344">
        <ele>1.88485</ele>
        <time>2026-03-07T11:58:23.016Z</time>
      </trkpt>
      <trkpt lon="7.861397" lat="53.779578">
        <ele>2.01138</ele>
        <time>2026-03-07T11:58:25.568Z</time>
      </trkpt>
      <trkpt lon="7.861109" lat="53.779942">
        <ele>1.40248</ele>
        <time>2026-03-07T11:58:26.860Z</time>
      </trkpt>
      <trkpt lon="7.861374" lat="53.780122">
        <ele>1.48192</ele>
        <time>2026-03-07T11:58:30.816Z</time>
      </trkpt>
      <trkpt lon="7.861366" lat="53.780112">
        <ele>1.46148</ele>
        <time>2026-03-07T12:00:04.136Z</time>
      </trkpt>
      <trkpt lon="7.861354" lat="53.780109">
        <ele>1.3934</ele>
        <time>2026-03-07T12:00:05.400Z</time>
      </trkpt>
      <trkpt lon="7.861344" lat="53.780111">
        <ele>1.33194</ele>
        <time>2026-03-07T12:00:07.332Z</time>
      </trkpt>
      <trkpt lon="7.861326" lat="53.780121">
        <ele>1.26276</ele>
        <time>2026-03-07T12:00:08.620Z</time>
      </trkpt>
      <trkpt lon="7.860979" lat="53.780303">
        <ele>2.02965</ele>
        <time>2026-03-07T12:00:09.252Z</time>
      </trkpt>
      <trkpt lon="7.860665" lat="53.780508">
        <ele>2.02267</ele>
        <time>2026-03-07T12:00:09.900Z</time>
      </trkpt>
      <trkpt lon="7.860364" lat="53.780895">
        <ele>2.02079</ele>
        <time>2026-03-07T12:00:10.540Z</time>
      </trkpt>
      <trkpt lon="7.860150" lat="53.781179">
        <ele>1.52638</ele>
        <time>2026-03-07T12:00:11.196Z</time>
      </trkpt>
      <trkpt lon="7.860035" lat="53.781307">
        <ele>1.46294</ele>
        <time>2026-03-07T12:00:11.840Z</time>
      </trkpt>
      <trkpt lon="7.860008" lat="53.781335">
        <ele>1.46117</ele>
        <time>2026-03-07T12:00:33.452Z</time>
      </trkpt>
      <trkpt lon="7.859946" lat="53.781386">
        <ele>1.84453</ele>
        <time>2026-03-07T12:00:51.432Z</time>
      </trkpt>
      <trkpt lon="7.859801" lat="53.781487">
        <ele>2.10387</ele>
        <time>2026-03-07T12:00:52.728Z</time>
      </trkpt>
      <trkpt lon="7.859588" lat="53.781640">
        <ele>2.0543</ele>
        <time>2026-03-07T12:00:53.988Z</time>
      </trkpt>
      <trkpt lon="7.859304" lat="53.781849">
        <ele>1.84052</ele>
        <time>2026-03-07T12:00:55.264Z</time>
      </trkpt>
      <trkpt lon="7.858555" lat="53.782354">
        <ele>8.90118</ele>
        <time>2026-03-07T12:00:57.808Z</time>
      </trkpt>
      <trkpt lon="7.857795" lat="53.782942">
        <ele>28.3235</ele>
        <time>2026-03-07T12:01:00.368Z</time>
      </trkpt>
      <trkpt lon="7.857252" lat="53.783465">
        <ele>38.2596</ele>
        <time>2026-03-07T12:01:02.256Z</time>
      </trkpt>
      <trkpt lon="7.856749" lat="53.784081">
        <ele>47.0317</ele>
        <time>2026-03-07T12:01:04.160Z</time>
      </trkpt>
      <trkpt lon="7.856338" lat="53.784787">
        <ele>57.7017</ele>
        <time>2026-03-07T12:01:06.080Z</time>
      </trkpt>
      <trkpt lon="7.856154" lat="53.785291">
        <ele>67.2414</ele>
        <time>2026-03-07T12:01:07.348Z</time>
      </trkpt>
      <trkpt lon="7.855884" lat="53.786321">
        <ele>86.5372</ele>
        <time>2026-03-07T12:01:09.900Z</time>
      </trkpt>
      <trkpt lon="7.855737" lat="53.786569">
        <ele>89.2979</ele>
        <time>2026-03-07T12:01:10.528Z</time>
      </trkpt>
      <trkpt lon="7.855531" lat="53.786812">
        <ele>90.986</ele>
        <time>2026-03-07T12:01:11.164Z</time>
      </trkpt>
      <trkpt lon="7.855264" lat="53.787041">
        <ele>92.1779</ele>
        <time>2026-03-07T12:01:11.796Z</time>
      </trkpt>
      <trkpt lon="7.854940" lat="53.787259">
        <ele>92.9002</ele>
        <time>2026-03-07T12:01:12.436Z</time>
      </trkpt>
      <trkpt lon="7.854552" lat="53.787465">
        <ele>93.4634</ele>
        <time>2026-03-07T12:01:13.096Z</time>
      </trkpt>
      <trkpt lon="7.854140" lat="53.787640">
        <ele>94.1452</ele>
        <time>2026-03-07T12:01:13.736Z</time>
      </trkpt>
      <trkpt lon="7.853681" lat="53.787796">
        <ele>95.0036</ele>
        <time>2026-03-07T12:01:14.380Z</time>
      </trkpt>
      <trkpt lon="7.853196" lat="53.787927">
        <ele>96.099</ele>
        <time>2026-03-07T12:01:15.004Z</time>
      </trkpt>
      <trkpt lon="7.852675" lat="53.788035">
        <ele>97.6506</ele>
        <time>2026-03-07T12:01:15.648Z</time>
      </trkpt>
      <trkpt lon="7.852127" lat="53.788114">
        <ele>99.8567</ele>
        <time>2026-03-07T12:01:16.300Z</time>
      </trkpt>
      <trkpt lon="7.851586" lat="53.788160">
        <ele>102.493</ele>
        <time>2026-03-07T12:01:16.924Z</time>
      </trkpt>
      <trkpt lon="7.851036" lat="53.788174">
        <ele>105.444</ele>
        <time>2026-03-07T12:01:17.564Z</time>
      </trkpt>
      <trkpt lon="7.850482" lat="53.788154">
        <ele>108.48</ele>
        <time>2026-03-07T12:01:18.196Z</time>
      </trkpt>
      <trkpt lon="7.849908" lat="53.788094">
        <ele>111.713</ele>
        <time>2026-03-07T12:01:18.844Z</time>
      </trkpt>
      <trkpt lon="7.849369" lat="53.788001">
        <ele>114.815</ele>
        <time>2026-03-07T12:01:19.476Z</time>
      </trkpt>
      <trkpt lon="7.848833" lat="53.787869">
        <ele>117.995</ele>
        <time>2026-03-07T12:01:20.116Z</time>
      </trkpt>
      <trkpt lon="7.848328" lat="53.787704">
        <ele>121.152</ele>
        <time>2026-03-07T12:01:20.752Z</time>
      </trkpt>
      <trkpt lon="7.847386" lat="53.787289">
        <ele>129.859</ele>
        <time>2026-03-07T12:01:22.040Z</time>
      </trkpt>
      <trkpt lon="7.844606" lat="53.785954">
        <ele>114.44</ele>
        <time>2026-03-07T12:01:25.856Z</time>
      </trkpt>
      <trkpt lon="7.841942" lat="53.784830">
        <ele>100.403</ele>
        <time>2026-03-07T12:01:29.068Z</time>
      </trkpt>
      <trkpt lon="7.838442" lat="53.783620">
        <ele>90.3889</ele>
        <time>2026-03-07T12:01:32.892Z</time>
      </trkpt>
      <trkpt lon="7.832800" lat="53.782073">
        <ele>78.9414</ele>
        <time>2026-03-07T12:01:38.652Z</time>
      </trkpt>
      <trkpt lon="7.827603" lat="53.780931">
        <ele>68.2118</ele>
        <time>2026-03-07T12:01:43.752Z</time>
      </trkpt>
      <trkpt lon="7.825700" lat="53.780619">
        <ele>66.7832</ele>
        <time>2026-03-07T12:01:45.660Z</time>
      </trkpt>
      <trkpt lon="7.824610" lat="53.780483">
        <ele>74.2433</ele>
        <time>2026-03-07T12:01:46.936Z</time>
      </trkpt>
      <trkpt lon="7.823674" lat="53.780362">
        <ele>66.3142</ele>
        <time>2026-03-07T12:01:48.216Z</time>
      </trkpt>
      <trkpt lon="7.822437" lat="53.780203">
        <ele>54.9722</ele>
        <time>2026-03-07T12:01:50.112Z</time>
      </trkpt>
      <trkpt lon="7.821347" lat="53.780018">
        <ele>37.9019</ele>
        <time>2026-03-07T12:01:52.036Z</time>
      </trkpt>
      <trkpt lon="7.819698" lat="53.779715">
        <ele>20.5426</ele>
        <time>2026-03-07T12:01:55.200Z</time>
      </trkpt>
      <trkpt lon="7.819385" lat="53.779697">
        <ele>19.2074</ele>
        <time>2026-03-07T12:01:55.836Z</time>
      </trkpt>
      <trkpt lon="7.819073" lat="53.779706">
        <ele>18.7902</ele>
        <time>2026-03-07T12:01:56.472Z</time>
      </trkpt>
      <trkpt lon="7.818784" lat="53.779750">
        <ele>19.3816</ele>
        <time>2026-03-07T12:01:57.104Z</time>
      </trkpt>
      <trkpt lon="7.818522" lat="53.779834">
        <ele>20.2056</ele>
        <time>2026-03-07T12:01:57.760Z</time>
      </trkpt>
      <trkpt lon="7.818315" lat="53.779951">
        <ele>20.564</ele>
        <time>2026-03-07T12:01:58.400Z</time>
      </trkpt>
      <trkpt lon="7.818177" lat="53.780106">
        <ele>20.5754</ele>
        <time>2026-03-07T12:01:59.044Z</time>
      </trkpt>
      <trkpt lon="7.818131" lat="53.780280">
        <ele>20.543</ele>
        <time>2026-03-07T12:01:59.676Z</time>
      </trkpt>
      <trkpt lon="7.818185" lat="53.780459">
        <ele>20.7952</ele>
        <time>2026-03-07T12:02:00.332Z</time>
      </trkpt>
      <trkpt lon="7.818336" lat="53.780628">
        <ele>21.7494</ele>
        <time>2026-03-07T12:02:00.984Z</time>
      </trkpt>
      <trkpt lon="7.818558" lat="53.780764">
        <ele>23.8577</ele>
        <time>2026-03-07T12:02:01.624Z</time>
      </trkpt>
      <trkpt lon="7.818848" lat="53.780870">
        <ele>27.2749</ele>
        <time>2026-03-07T12:02:02.292Z</time>
      </trkpt>
      <trkpt lon="7.819157" lat="53.780930">
        <ele>31.0896</ele>
        <time>2026-03-07T12:02:02.924Z</time>
      </trkpt>
      <trkpt lon="7.819481" lat="53.780950">
        <ele>35.7365</ele>
        <time>2026-03-07T12:02:03.568Z</time>
      </trkpt>
      <trkpt lon="7.819801" lat="53.780928">
        <ele>41.4513</ele>
        <time>2026-03-07T12:02:04.208Z</time>
      </trkpt>
      <trkpt lon="7.820107" lat="53.780869">
        <ele>47.7238</ele>
        <time>2026-03-07T12:02:04.856Z</time>
      </trkpt>
      <trkpt lon="7.820374" lat="53.780779">
        <ele>53.437</ele>
        <time>2026-03-07T12:02:05.480Z</time>
      </trkpt>
      <trkpt lon="7.820619" lat="53.780649">
        <ele>59.0034</ele>
        <time>2026-03-07T12:02:06.132Z</time>
      </trkpt>
      <trkpt lon="7.820804" lat="53.780493">
        <ele>64.0138</ele>
        <time>2026-03-07T12:02:06.772Z</time>
      </trkpt>
      <trkpt lon="7.820931" lat="53.780319">
        <ele>68.6439</ele>
        <time>2026-03-07T12:02:07.412Z</time>
      </trkpt>
      <trkpt lon="7.820997" lat="53.780133">
        <ele>73.0883</ele>
        <time>2026-03-07T12:02:08.048Z</time>
      </trkpt>
      <trkpt lon="7.821001" lat="53.779947">
        <ele>77.4383</ele>
        <time>2026-03-07T12:02:08.680Z</time>
      </trkpt>
      <trkpt lon="7.820944" lat="53.779758">
        <ele>81.9396</ele>
        <time>2026-03-07T12:02:09.328Z</time>
      </trkpt>
      <trkpt lon="7.820832" lat="53.779583">
        <ele>86.3451</ele>
        <time>2026-03-07T12:02:09.960Z</time>
      </trkpt>
      <trkpt lon="7.820665" lat="53.779421">
        <ele>90.7705</ele>
        <time>2026-03-07T12:02:10.600Z</time>
      </trkpt>
      <trkpt lon="7.820450" lat="53.779288">
        <ele>94.3225</ele>
        <time>2026-03-07T12:02:11.236Z</time>
      </trkpt>
      <trkpt lon="7.820191" lat="53.779189">
        <ele>97.0799</ele>
        <time>2026-03-07T12:02:11.868Z</time>
      </trkpt>
      <trkpt lon="7.819899" lat="53.779129">
        <ele>99.1896</ele>
        <time>2026-03-07T12:02:12.504Z</time>
      </trkpt>
      <trkpt lon="7.819585" lat="53.779108">
        <ele>100.197</ele>
        <time>2026-03-07T12:02:13.152Z</time>
      </trkpt>
      <trkpt lon="7.819284" lat="53.779120">
        <ele>99.493</ele>
        <time>2026-03-07T12:02:13.784Z</time>
      </trkpt>
      <trkpt lon="7.818994" lat="53.779167">
        <ele>97.3867</ele>
        <time>2026-03-07T12:02:14.416Z</time>
      </trkpt>
      <trkpt lon="7.818734" lat="53.779250">
        <ele>94.1379</ele>
        <time>2026-03-07T12:02:15.048Z</time>
      </trkpt>
      <trkpt lon="7.818508" lat="53.779370">
        <ele>89.6385</ele>
        <time>2026-03-07T12:02:15.692Z</time>
      </trkpt>
      <trkpt lon="7.818338" lat="53.779519">
        <ele>83.9212</ele>
        <time>2026-03-07T12:02:16.332Z</time>
      </trkpt>
      <trkpt lon="7.818243" lat="53.779685">
        <ele>77.2375</ele>
        <time>2026-03-07T12:02:16.956Z</time>
      </trkpt>
      <trkpt lon="7.818234" lat="53.779869">
        <ele>69.6465</ele>
        <time>2026-03-07T12:02:17.596Z</time>
      </trkpt>
      <trkpt lon="7.818328" lat="53.780051">
        <ele>61.798</ele>
        <time>2026-03-07T12:02:18.240Z</time>
      </trkpt>
      <trkpt lon="7.818531" lat="53.780208">
        <ele>54.3293</ele>
        <time>2026-03-07T12:02:18.876Z</time>
      </trkpt>
      <trkpt lon="7.818846" lat="53.780319">
        <ele>47.6999</ele>
        <time>2026-03-07T12:02:19.520Z</time>
      </trkpt>
      <trkpt lon="7.819218" lat="53.780357">
        <ele>43.2601</ele>
        <time>2026-03-07T12:02:20.152Z</time>
      </trkpt>
      <trkpt lon="7.819599" lat="53.780318">
        <ele>41.9002</ele>
        <time>2026-03-07T12:02:20.784Z</time>
      </trkpt>
      <trkpt lon="7.820256" lat="53.780079">
        <ele>47.9443</ele>
        <time>2026-03-07T12:02:22.052Z</time>
      </trkpt>
      <trkpt lon="7.820788" lat="53.779762">
        <ele>58.5686</ele>
        <time>2026-03-07T12:02:23.336Z</time>
      </trkpt>
      <trkpt lon="7.822369" lat="53.778838">
        <ele>78.543</ele>
        <time>2026-03-07T12:02:27.160Z</time>
      </trkpt>
      <trkpt lon="7.823843" lat="53.778059">
        <ele>52.2452</ele>
        <time>2026-03-07T12:02:30.364Z</time>
      </trkpt>
      <trkpt lon="7.824804" lat="53.777477">
        <ele>29.9078</ele>
        <time>2026-03-07T12:02:32.280Z</time>
      </trkpt>
      <trkpt lon="7.825720" lat="53.776825">
        <ele>18.6669</ele>
        <time>2026-03-07T12:02:34.188Z</time>
      </trkpt>
      <trkpt lon="7.825911" lat="53.776609">
        <ele>28.3962</ele>
        <time>2026-03-07T12:02:34.828Z</time>
      </trkpt>
      <trkpt lon="7.825970" lat="53.776399">
        <ele>37.6585</ele>
        <time>2026-03-07T12:02:35.460Z</time>
      </trkpt>
      <trkpt lon="7.825940" lat="53.776193">
        <ele>40.1091</ele>
        <time>2026-03-07T12:02:36.092Z</time>
      </trkpt>
      <trkpt lon="7.825885" lat="53.775994">
        <ele>32.877</ele>
        <time>2026-03-07T12:02:36.748Z</time>
      </trkpt>
      <trkpt lon="7.825885" lat="53.775831">
        <ele>17.2575</ele>
        <time>2026-03-07T12:02:37.384Z</time>
      </trkpt>
      <trkpt lon="7.825986" lat="53.775693">
        <ele>1.14429</ele>
        <time>2026-03-07T12:02:38.016Z</time>
      </trkpt>
      <trkpt lon="7.826078" lat="53.775579">
        <ele>0.725142</ele>
        <time>2026-03-07T12:02:38.660Z</time>
      </trkpt>
      <trkpt lon="7.826123" lat="53.775511">
        <ele>0.598059</ele>
        <time>2026-03-07T12:02:39.300Z</time>
      </trkpt>
      <trkpt lon="7.826127" lat="53.775495">
        <ele>0.594047</ele>
        <time>2026-03-07T12:02:39.948Z</time>
      </trkpt>
      <trkpt lon="7.825765" lat="53.775651">
        <ele>1.43591</ele>
        <time>2026-03-07T12:02:43.872Z</time>
      </trkpt>
      <trkpt lon="7.820605" lat="53.777857">
        <ele>1.67602</ele>
        <time>2026-03-07T12:02:46.524Z</time>
      </trkpt>
      <trkpt lon="7.820878" lat="53.778357">
        <ele>2.35488</ele>
        <time>2026-03-07T12:02:48.504Z</time>
      </trkpt>
      <trkpt lon="7.821316" lat="53.778722">
        <ele>1.96172</ele>
        <time>2026-03-07T12:02:49.164Z</time>
      </trkpt>
      <trkpt lon="7.821178" lat="53.778920">
        <ele>2.13737</ele>
        <time>2026-03-07T12:02:49.796Z</time>
      </trkpt>
      <trkpt lon="7.819776" lat="53.779507">
        <ele>1.71151</ele>
        <time>2026-03-07T12:02:50.476Z</time>
      </trkpt>
      <trkpt lon="7.819298" lat="53.779836">
        <ele>1.77752</ele>
        <time>2026-03-07T12:02:56.244Z</time>
      </trkpt>
      <trkpt lon="7.819349" lat="53.779879">
        <ele>1.99854</ele>
        <time>2026-03-07T12:02:56.892Z</time>
      </trkpt>
      <trkpt lon="7.819325" lat="53.779889">
        <ele>1.6027</ele>
        <time>2026-03-07T12:03:03.356Z</time>
      </trkpt>
      <trkpt lon="7.819277" lat="53.779900">
        <ele>1.59978</ele>
        <time>2026-03-07T12:03:04.000Z</time>
      </trkpt>
      <trkpt lon="7.819214" lat="53.779903">
        <ele>1.70697</ele>
        <time>2026-03-07T12:03:04.624Z</time>
      </trkpt>
      <trkpt lon="7.819137" lat="53.779897">
        <ele>1.72787</ele>
        <time>2026-03-07T12:03:05.264Z</time>
      </trkpt>
      <trkpt lon="7.818896" lat="53.779862">
        <ele>1.46125</ele>
        <time>2026-03-07T12:03:06.564Z</time>
      </trkpt>
      <trkpt lon="7.818540" lat="53.779819">
        <ele>1.78343</ele>
        <time>2026-03-07T12:03:07.840Z</time>
      </trkpt>
      <trkpt lon="7.817829" lat="53.779750">
        <ele>4.39679</ele>
        <time>2026-03-07T12:03:09.760Z</time>
      </trkpt>
      <trkpt lon="7.816590" lat="53.779612">
        <ele>21.4089</ele>
        <time>2026-03-07T12:03:12.944Z</time>
      </trkpt>
      <trkpt lon="7.815005" lat="53.779388">
        <ele>27.4962</ele>
        <time>2026-03-07T12:03:17.420Z</time>
      </trkpt>
      <trkpt lon="7.814384" lat="53.779300">
        <ele>21.1832</ele>
        <time>2026-03-07T12:03:18.704Z</time>
      </trkpt>
      <trkpt lon="7.811845" lat="53.778898">
        <ele>15.227</ele>
        <time>2026-03-07T12:03:23.196Z</time>
      </trkpt>
      <trkpt lon="7.809412" lat="53.778388">
        <ele>20.9743</ele>
        <time>2026-03-07T12:03:28.956Z</time>
      </trkpt>
      <trkpt lon="7.808906" lat="53.778313">
        <ele>20.0488</ele>
        <time>2026-03-07T12:03:30.236Z</time>
      </trkpt>
      <trkpt lon="7.807402" lat="53.778175">
        <ele>9.96201</ele>
        <time>2026-03-07T12:03:34.052Z</time>
      </trkpt>
      <trkpt lon="7.806147" lat="53.778157">
        <ele>5.21138</ele>
        <time>2026-03-07T12:03:37.232Z</time>
      </trkpt>
      <trkpt lon="7.804604" lat="53.778199">
        <ele>3.30993</ele>
        <time>2026-03-07T12:03:41.728Z</time>
      </trkpt>
      <trkpt lon="7.804271" lat="53.778219">
        <ele>3.26996</ele>
        <time>2026-03-07T12:03:43.000Z</time>
      </trkpt>
      <trkpt lon="7.804083" lat="53.778226">
        <ele>3.90209</ele>
        <time>2026-03-07T12:03:44.268Z</time>
      </trkpt>
    </trkseg>
    <trkseg>
      <trkpt lon="7.603428" lat="51.100347">
        <ele>472.266</ele>
        <time>2026-03-07T16:03:34.716Z</time>
      </trkpt>
      <trkpt lon="7.603418" lat="51.100345">
        <ele>472.327</ele>
        <time>2026-03-07T16:32:05.216Z</time>
      </trkpt>
      <trkpt lon="7.603408" lat="51.100343">
        <ele>472.322</ele>
        <time>2026-03-07T16:33:28.348Z</time>
      </trkpt>
      <trkpt lon="7.603398" lat="51.100340">
        <ele>472.321</ele>
        <time>2026-03-07T16:34:40.148Z</time>
      </trkpt>
      <trkpt lon="7.603389" lat="51.100338">
        <ele>472.311</ele>
        <time>2026-03-07T16:36:04.812Z</time>
      </trkpt>
      <trkpt lon="7.603380" lat="51.100336">
        <ele>472.309</ele>
        <time>2026-03-07T16:37:38.728Z</time>
      </trkpt>
      <trkpt lon="7.603370" lat="51.100334">
        <ele>472.308</ele>
        <time>2026-03-07T16:39:12.308Z</time>
      </trkpt>
      <trkpt lon="7.603360" lat="51.100331">
        <ele>472.302</ele>
        <time>2026-03-07T16:40:25.312Z</time>
      </trkpt>
      <trkpt lon="7.603350" lat="51.100329">
        <ele>472.297</ele>
        <time>2026-03-07T16:41:38.596Z</time>
      </trkpt>
      <trkpt lon="7.603340" lat="51.100326">
        <ele>472.296</ele>
        <time>2026-03-07T16:42:51.908Z</time>
      </trkpt>
      <trkpt lon="7.603330" lat="51.100324">
        <ele>472.292</ele>
        <time>2026-03-07T16:44:06.284Z</time>
      </trkpt>
      <trkpt lon="7.603320" lat="51.100322">
        <ele>472.287</ele>
        <time>2026-03-07T16:45:10.404Z</time>
      </trkpt>
      <trkpt lon="7.603309" lat="51.100319">
        <ele>472.287</ele>
        <time>2026-03-07T16:46:02.740Z</time>
      </trkpt>
      <trkpt lon="7.603300" lat="51.100317">
        <ele>472.286</ele>
        <time>2026-03-07T16:46:46.384Z</time>
      </trkpt>
      <trkpt lon="7.603290" lat="51.100314">
        <ele>472.275</ele>
        <time>2026-03-07T16:47:40.544Z</time>
      </trkpt>
      <trkpt lon="7.603280" lat="51.100312">
        <ele>472.268</ele>
        <time>2026-03-07T16:48:32.784Z</time>
      </trkpt>
      <trkpt lon="7.603271" lat="51.100310">
        <ele>472.262</ele>
        <time>2026-03-07T16:49:15.656Z</time>
      </trkpt>
      <trkpt lon="7.603262" lat="51.100308">
        <ele>472.259</ele>
        <time>2026-03-07T16:49:57.080Z</time>
      </trkpt>
      <trkpt lon="7.603251" lat="51.100305">
        <ele>472.251</ele>
        <time>2026-03-07T16:50:49.284Z</time>
      </trkpt>
      <trkpt lon="7.603242" lat="51.100303">
        <ele>472.238</ele>
        <time>2026-03-07T16:51:40.688Z</time>
      </trkpt>
      <trkpt lon="7.603231" lat="51.100301">
        <ele>472.241</ele>
        <time>2026-03-07T16:52:31.900Z</time>
      </trkpt>
      <trkpt lon="7.603221" lat="51.100298">
        <ele>472.237</ele>
        <time>2026-03-07T16:53:22.972Z</time>
      </trkpt>
      <trkpt lon="7.603210" lat="51.100296">
        <ele>472.229</ele>
        <time>2026-03-07T16:54:14.100Z</time>
      </trkpt>
      <trkpt lon="7.603200" lat="51.100293">
        <ele>472.228</ele>
        <time>2026-03-07T16:55:15.540Z</time>
      </trkpt>
      <trkpt lon="7.603189" lat="51.100291">
        <ele>472.224</ele>
        <time>2026-03-07T16:56:17.044Z</time>
      </trkpt>
      <trkpt lon="7.603178" lat="51.100288">
        <ele>472.213</ele>
        <time>2026-03-07T16:57:18.476Z</time>
      </trkpt>
      <trkpt lon="7.603169" lat="51.100286">
        <ele>472.208</ele>
        <time>2026-03-07T16:58:19.808Z</time>
      </trkpt>
      <trkpt lon="7.603159" lat="51.100284">
        <ele>472.207</ele>
        <time>2026-03-07T16:59:21.420Z</time>
      </trkpt>
      <trkpt lon="7.603150" lat="51.100281">
        <ele>472.211</ele>
        <time>2026-03-07T17:00:33.188Z</time>
      </trkpt>
      <trkpt lon="7.603138" lat="51.100279">
        <ele>472.207</ele>
        <time>2026-03-07T17:01:36.188Z</time>
      </trkpt>
      <trkpt lon="7.603779" lat="51.100473">
        <ele>472.4</ele>
        <time>2026-03-07T17:27:28.016Z</time>
      </trkpt>
      <trkpt lon="7.603770" lat="51.100470">
        <ele>472.474</ele>
        <time>2026-03-07T17:58:35.764Z</time>
      </trkpt>
      <trkpt lon="7.603779" lat="51.100473">
        <ele>472.4</ele>
        <time>2026-03-07T18:11:54.436Z</time>
      </trkpt>
      <trkpt lon="7.603770" lat="51.100470">
        <ele>472.476</ele>
        <time>2026-03-07T08:35:52.948Z</time>
      </trkpt>
      <trkpt lon="7.603760" lat="51.100467">
        <ele>472.472</ele>
        <time>2026-03-07T08:37:14.422Z</time>
      </trkpt>
      <trkpt lon="7.603751" lat="51.100463">
        <ele>472.471</ele>
        <time>2026-03-07T08:38:05.376Z</time>
      </trkpt>
      <trkpt lon="7.603742" lat="51.100460">
        <ele>472.466</ele>
        <time>2026-03-07T08:39:16.712Z</time>
      </trkpt>
      <trkpt lon="7.603731" lat="51.100456">
        <ele>472.464</ele>
        <time>2026-03-07T08:40:38.180Z</time>
      </trkpt>
      <trkpt lon="7.603779" lat="51.100473">
        <ele>472.4</ele>
        <time>2026-03-07T08:41:53.458Z</time>
      </trkpt>
      <trkpt lon="7.603770" lat="51.100470">
        <ele>472.475</ele>
        <time>2026-03-07T08:51:14.786Z</time>
      </trkpt>
      <trkpt lon="7.603760" lat="51.100467">
        <ele>472.47</ele>
        <time>2026-03-07T08:54:58.758Z</time>
      </trkpt>
      <trkpt lon="7.603751" lat="51.100463">
        <ele>472.468</ele>
        <time>2026-03-07T08:57:21.274Z</time>
      </trkpt>
      <trkpt lon="7.603742" lat="51.100460">
        <ele>472.466</ele>
        <time>2026-03-07T08:58:53.048Z</time>
      </trkpt>
      <trkpt lon="7.603731" lat="51.100456">
        <ele>472.464</ele>
        <time>2026-03-07T08:59:46.242Z</time>
      </trkpt>
      <trkpt lon="7.603720" lat="51.100452">
        <ele>472.46</ele>
        <time>2026-03-07T09:00:37.822Z</time>
      </trkpt>
      <trkpt lon="7.603710" lat="51.100449">
        <ele>472.455</ele>
        <time>2026-03-07T09:01:22.074Z</time>
      </trkpt>
      <trkpt lon="7.603699" lat="51.100445">
        <ele>472.453</ele>
        <time>2026-03-07T09:02:14.004Z</time>
      </trkpt>
      <trkpt lon="7.603686" lat="51.100440">
        <ele>472.452</ele>
        <time>2026-03-07T09:02:55.260Z</time>
      </trkpt>
      <trkpt lon="7.603672" lat="51.100436">
        <ele>472.448</ele>
        <time>2026-03-07T09:03:26.950Z</time>
      </trkpt>
      <trkpt lon="7.603662" lat="51.100432">
        <ele>472.442</ele>
        <time>2026-03-07T09:03:57.606Z</time>
      </trkpt>
      <trkpt lon="7.603651" lat="51.100428">
        <ele>472.44</ele>
        <time>2026-03-07T09:04:27.722Z</time>
      </trkpt>
      <trkpt lon="7.603639" lat="51.100425">
        <ele>472.434</ele>
        <time>2026-03-07T09:04:58.562Z</time>
      </trkpt>
      <trkpt lon="7.603610" lat="51.100381">
        <ele>472.358</ele>
        <time>2026-03-07T09:05:06.504Z</time>
      </trkpt>
      <trkpt lon="7.603600" lat="51.100371">
        <ele>472.331</ele>
        <time>2026-03-07T09:05:07.790Z</time>
      </trkpt>
      <trkpt lon="7.603588" lat="51.100343">
        <ele>472.484</ele>
        <time>2026-03-07T09:05:14.384Z</time>
      </trkpt>
      <trkpt lon="7.603515" lat="51.100303">
        <ele>474.096</ele>
        <time>2026-03-07T09:05:22.572Z</time>
      </trkpt>
      <trkpt lon="7.603490" lat="51.100316">
        <ele>474.243</ele>
        <time>2026-03-07T09:05:24.560Z</time>
      </trkpt>
      <trkpt lon="7.603529" lat="51.100315">
        <ele>474.404</ele>
        <time>2026-03-07T09:05:28.552Z</time>
      </trkpt>
      <trkpt lon="7.603552" lat="51.100319">
        <ele>474.375</ele>
        <time>2026-03-07T09:05:29.210Z</time>
      </trkpt>
      <trkpt lon="7.603577" lat="51.100325">
        <ele>474.567</ele>
        <time>2026-03-07T09:05:29.882Z</time>
      </trkpt>
      <trkpt lon="7.603603" lat="51.100334">
        <ele>474.898</ele>
        <time>2026-03-07T09:05:30.544Z</time>
      </trkpt>
      <trkpt lon="7.603627" lat="51.100348">
        <ele>475.124</ele>
        <time>2026-03-07T09:05:31.246Z</time>
      </trkpt>
      <trkpt lon="7.603645" lat="51.100364">
        <ele>475.01</ele>
        <time>2026-03-07T09:05:31.888Z</time>
      </trkpt>
      <trkpt lon="7.603659" lat="51.100386">
        <ele>474.602</ele>
        <time>2026-03-07T09:05:32.570Z</time>
      </trkpt>
      <trkpt lon="7.603661" lat="51.100408">
        <ele>474.237</ele>
        <time>2026-03-07T09:05:33.234Z</time>
      </trkpt>
      <trkpt lon="7.603656" lat="51.100430">
        <ele>473.961</ele>
        <time>2026-03-07T09:05:33.876Z</time>
      </trkpt>
      <trkpt lon="7.603644" lat="51.100453">
        <ele>473.765</ele>
        <time>2026-03-07T09:05:34.562Z</time>
      </trkpt>
      <trkpt lon="7.603626" lat="51.100474">
        <ele>473.719</ele>
        <time>2026-03-07T09:05:35.230Z</time>
      </trkpt>
      <trkpt lon="7.603603" lat="51.100494">
        <ele>473.825</ele>
        <time>2026-03-07T09:05:35.912Z</time>
      </trkpt>
      <trkpt lon="7.603573" lat="51.100512">
        <ele>474.115</ele>
        <time>2026-03-07T09:05:36.592Z</time>
      </trkpt>
      <trkpt lon="7.603537" lat="51.100526">
        <ele>474.5</ele>
        <time>2026-03-07T09:05:37.284Z</time>
      </trkpt>
      <trkpt lon="7.603493" lat="51.100535">
        <ele>474.87</ele>
        <time>2026-03-07T09:05:37.972Z</time>
      </trkpt>
      <trkpt lon="7.603446" lat="51.100539">
        <ele>475.095</ele>
        <time>2026-03-07T09:05:38.632Z</time>
      </trkpt>
      <trkpt lon="7.603336" lat="51.100539">
        <ele>474.901</ele>
        <time>2026-03-07T09:05:39.914Z</time>
      </trkpt>
      <trkpt lon="7.603197" lat="51.100532">
        <ele>474.052</ele>
        <time>2026-03-07T09:05:41.260Z</time>
      </trkpt>
      <trkpt lon="7.603044" lat="51.100524">
        <ele>473.815</ele>
        <time>2026-03-07T09:05:42.550Z</time>
      </trkpt>
      <trkpt lon="7.602267" lat="51.100457">
        <ele>476.547</ele>
        <time>2026-03-07T09:05:47.284Z</time>
      </trkpt>
      <trkpt lon="7.601411" lat="51.100325">
        <ele>475.923</ele>
        <time>2026-03-07T09:05:50.706Z</time>
      </trkpt>
      <trkpt lon="7.600308" lat="51.100124">
        <ele>474.909</ele>
        <time>2026-03-07T09:05:54.060Z</time>
      </trkpt>
      <trkpt lon="7.598440" lat="51.099774">
        <ele>476.316</ele>
        <time>2026-03-07T09:05:58.716Z</time>
      </trkpt>
      <trkpt lon="7.595295" lat="51.099171">
        <ele>480.83</ele>
        <time>2026-03-07T09:06:05.380Z</time>
      </trkpt>
      <trkpt lon="7.590965" lat="51.098369">
        <ele>496.194</ele>
        <time>2026-03-07T09:06:13.398Z</time>
      </trkpt>
      <trkpt lon="7.588948" lat="51.098161">
        <ele>505.109</ele>
        <time>2026-03-07T09:06:16.774Z</time>
      </trkpt>
      <trkpt lon="7.585071" lat="51.097978">
        <ele>513.063</ele>
        <time>2026-03-07T09:06:22.848Z</time>
      </trkpt>
      <trkpt lon="7.582768" lat="51.098023">
        <ele>511.274</ele>
        <time>2026-03-07T09:06:26.132Z</time>
      </trkpt>
      <trkpt lon="7.580298" lat="51.098221">
        <ele>507.826</ele>
        <time>2026-03-07T09:06:29.520Z</time>
      </trkpt>
      <trkpt lon="7.577273" lat="51.098658">
        <ele>503.755</ele>
        <time>2026-03-07T09:06:33.550Z</time>
      </trkpt>
      <trkpt lon="7.569833" lat="51.100127">
        <ele>486.368</ele>
        <time>2026-03-07T09:06:42.876Z</time>
      </trkpt>
      <trkpt lon="7.565166" lat="51.101022">
        <ele>465.009</ele>
        <time>2026-03-07T09:06:48.250Z</time>
      </trkpt>
      <trkpt lon="7.560199" lat="51.101773">
        <ele>443.587</ele>
        <time>2026-03-07T09:06:53.558Z</time>
      </trkpt>
      <trkpt lon="7.557602" lat="51.101996">
        <ele>435.869</ele>
        <time>2026-03-07T09:06:56.222Z</time>
      </trkpt>
      <trkpt lon="7.553636" lat="51.102134">
        <ele>417.887</ele>
        <time>2026-03-07T09:07:00.214Z</time>
      </trkpt>
      <trkpt lon="7.549070" lat="51.102047">
        <ele>411.031</ele>
        <time>2026-03-07T09:07:04.886Z</time>
      </trkpt>
      <trkpt lon="7.547175" lat="51.101908">
        <ele>418.476</ele>
        <time>2026-03-07T09:07:06.894Z</time>
      </trkpt>
      <trkpt lon="7.545370" lat="51.101636">
        <ele>427.729</ele>
        <time>2026-03-07T09:07:08.898Z</time>
      </trkpt>
      <trkpt lon="7.544248" lat="51.101379">
        <ele>433.824</ele>
        <time>2026-03-07T09:07:10.230Z</time>
      </trkpt>
      <trkpt lon="7.543200" lat="51.101068">
        <ele>439.243</ele>
        <time>2026-03-07T09:07:11.542Z</time>
      </trkpt>
      <trkpt lon="7.542263" lat="51.100728">
        <ele>440.687</ele>
        <time>2026-03-07T09:07:12.796Z</time>
      </trkpt>
      <trkpt lon="7.541341" lat="51.100325">
        <ele>438.352</ele>
        <time>2026-03-07T09:07:14.098Z</time>
      </trkpt>
      <trkpt lon="7.540477" lat="51.099863">
        <ele>433.579</ele>
        <time>2026-03-07T09:07:15.450Z</time>
      </trkpt>
      <trkpt lon="7.539719" lat="51.099360">
        <ele>429.566</ele>
        <time>2026-03-07T09:07:16.710Z</time>
      </trkpt>
      <trkpt lon="7.539057" lat="51.098821">
        <ele>427.79</ele>
        <time>2026-03-07T09:07:18.016Z</time>
      </trkpt>
      <trkpt lon="7.538486" lat="51.098256">
        <ele>427.775</ele>
        <time>2026-03-07T09:07:19.290Z</time>
      </trkpt>
      <trkpt lon="7.537986" lat="51.097657">
        <ele>429.809</ele>
        <time>2026-03-07T09:07:20.632Z</time>
      </trkpt>
      <trkpt lon="7.537421" lat="51.096726">
        <ele>436.008</ele>
        <time>2026-03-07T09:07:22.624Z</time>
      </trkpt>
      <trkpt lon="7.536901" lat="51.095254">
        <ele>453.63</ele>
        <time>2026-03-07T09:07:25.930Z</time>
      </trkpt>
      <trkpt lon="7.536794" lat="51.094415">
        <ele>465.695</ele>
        <time>2026-03-07T09:07:27.972Z</time>
      </trkpt>
      <trkpt lon="7.536809" lat="51.093893">
        <ele>474.256</ele>
        <time>2026-03-07T09:07:29.300Z</time>
      </trkpt>
      <trkpt lon="7.536939" lat="51.093169">
        <ele>486.552</ele>
        <time>2026-03-07T09:07:31.262Z</time>
      </trkpt>
      <trkpt lon="7.537166" lat="51.092508">
        <ele>495.949</ele>
        <time>2026-03-07T09:07:33.204Z</time>
      </trkpt>
      <trkpt lon="7.537489" lat="51.091877">
        <ele>501.929</ele>
        <time>2026-03-07T09:07:35.204Z</time>
      </trkpt>
      <trkpt lon="7.538034" lat="51.091095">
        <ele>506.295</ele>
        <time>2026-03-07T09:07:37.800Z</time>
      </trkpt>
      <trkpt lon="7.538811" lat="51.090159">
        <ele>509.406</ele>
        <time>2026-03-07T09:07:41.106Z</time>
      </trkpt>
      <trkpt lon="7.539471" lat="51.089424">
        <ele>512.176</ele>
        <time>2026-03-07T09:07:43.766Z</time>
      </trkpt>
      <trkpt lon="7.540436" lat="51.088557">
        <ele>515.029</ele>
        <time>2026-03-07T09:07:47.102Z</time>
      </trkpt>
      <trkpt lon="7.540868" lat="51.088260">
        <ele>516.274</ele>
        <time>2026-03-07T09:07:48.398Z</time>
      </trkpt>
      <trkpt lon="7.541612" lat="51.087849">
        <ele>518.901</ele>
        <time>2026-03-07T09:07:50.394Z</time>
      </trkpt>
      <trkpt lon="7.542127" lat="51.087614">
        <ele>521.349</ele>
        <time>2026-03-07T09:07:51.696Z</time>
      </trkpt>
      <trkpt lon="7.542969" lat="51.087301">
        <ele>526.587</ele>
        <time>2026-03-07T09:07:53.742Z</time>
      </trkpt>
      <trkpt lon="7.543810" lat="51.087061">
        <ele>532.86</ele>
        <time>2026-03-07T09:07:55.730Z</time>
      </trkpt>
      <trkpt lon="7.544625" lat="51.086890">
        <ele>539.486</ele>
        <time>2026-03-07T09:07:57.692Z</time>
      </trkpt>
      <trkpt lon="7.545440" lat="51.086784">
        <ele>547.013</ele>
        <time>2026-03-07T09:07:59.676Z</time>
      </trkpt>
      <trkpt lon="7.546733" lat="51.086755">
        <ele>558.986</ele>
        <time>2026-03-07T09:08:02.972Z</time>
      </trkpt>
      <trkpt lon="7.546990" lat="51.086760">
        <ele>561.339</ele>
        <time>2026-03-07T09:08:03.660Z</time>
      </trkpt>
      <trkpt lon="7.547233" lat="51.086767">
        <ele>563.629</ele>
        <time>2026-03-07T09:08:04.328Z</time>
      </trkpt>
      <trkpt lon="7.552057" lat="51.087268">
        <ele>565.973</ele>
        <time>2026-03-07T09:08:18.210Z</time>
      </trkpt>
      <trkpt lon="7.552977" lat="51.087435">
        <ele>557.513</ele>
        <time>2026-03-07T09:08:20.262Z</time>
      </trkpt>
      <trkpt lon="7.553882" lat="51.087681">
        <ele>548.711</ele>
        <time>2026-03-07T09:08:22.234Z</time>
      </trkpt>
      <trkpt lon="7.554815" lat="51.088024">
        <ele>539.09</ele>
        <time>2026-03-07T09:08:24.282Z</time>
      </trkpt>
      <trkpt lon="7.555693" lat="51.088436">
        <ele>531.1</ele>
        <time>2026-03-07T09:08:26.246Z</time>
      </trkpt>
      <trkpt lon="7.556546" lat="51.088935">
        <ele>523.737</ele>
        <time>2026-03-07T09:08:28.274Z</time>
      </trkpt>
      <trkpt lon="7.557369" lat="51.089522">
        <ele>513.135</ele>
        <time>2026-03-07T09:08:30.304Z</time>
      </trkpt>
      <trkpt lon="7.558111" lat="51.090169">
        <ele>498.623</ele>
        <time>2026-03-07T09:08:32.278Z</time>
      </trkpt>
      <trkpt lon="7.559044" lat="51.091179">
        <ele>474.869</ele>
        <time>2026-03-07T09:08:34.968Z</time>
      </trkpt>
      <trkpt lon="7.559876" lat="51.092314">
        <ele>453.175</ele>
        <time>2026-03-07T09:08:37.680Z</time>
      </trkpt>
      <trkpt lon="7.560556" lat="51.093510">
        <ele>437.978</ele>
        <time>2026-03-07T09:08:40.320Z</time>
      </trkpt>
      <trkpt lon="7.561174" lat="51.095110">
        <ele>421.664</ele>
        <time>2026-03-07T09:08:43.672Z</time>
      </trkpt>
      <trkpt lon="7.561618" lat="51.097126">
        <ele>406.254</ele>
        <time>2026-03-07T09:08:47.746Z</time>
      </trkpt>
      <trkpt lon="7.561962" lat="51.100656">
        <ele>427.905</ele>
        <time>2026-03-07T09:08:54.972Z</time>
      </trkpt>
      <trkpt lon="7.562031" lat="51.101565">
        <ele>448.348</ele>
        <time>2026-03-07T09:08:57.000Z</time>
      </trkpt>
      <trkpt lon="7.562080" lat="51.102396">
        <ele>473.516</ele>
        <time>2026-03-07T09:08:58.988Z</time>
      </trkpt>
      <trkpt lon="7.562103" lat="51.103160">
        <ele>497.017</ele>
        <time>2026-03-07T09:09:00.926Z</time>
      </trkpt>
      <trkpt lon="7.562073" lat="51.104168">
        <ele>521.098</ele>
        <time>2026-03-07T09:09:03.594Z</time>
      </trkpt>
      <trkpt lon="7.561801" lat="51.107075">
        <ele>538.745</ele>
        <time>2026-03-07T09:09:10.852Z</time>
      </trkpt>
      <trkpt lon="7.561314" lat="51.110339">
        <ele>537.466</ele>
        <time>2026-03-07T09:09:18.132Z</time>
      </trkpt>
      <trkpt lon="7.561230" lat="51.112265">
        <ele>528.851</ele>
        <time>2026-03-07T09:09:22.090Z</time>
      </trkpt>
      <trkpt lon="7.561438" lat="51.114256">
        <ele>526.622</ele>
        <time>2026-03-07T09:09:26.090Z</time>
      </trkpt>
      <trkpt lon="7.562951" lat="51.119587">
        <ele>546.216</ele>
        <time>2026-03-07T09:09:36.782Z</time>
      </trkpt>
      <trkpt lon="7.564779" lat="51.126260">
        <ele>548.548</ele>
        <time>2026-03-07T09:09:49.942Z</time>
      </trkpt>
      <trkpt lon="7.565315" lat="51.127305">
        <ele>538.055</ele>
        <time>2026-03-07T09:09:51.976Z</time>
      </trkpt>
      <trkpt lon="7.566049" lat="51.128317">
        <ele>529.734</ele>
        <time>2026-03-07T09:09:54.004Z</time>
      </trkpt>
      <trkpt lon="7.566944" lat="51.129222">
        <ele>524.017</ele>
        <time>2026-03-07T09:09:55.950Z</time>
      </trkpt>
      <trkpt lon="7.568450" lat="51.130394">
        <ele>517.814</ele>
        <time>2026-03-07T09:09:58.656Z</time>
      </trkpt>
      <trkpt lon="7.570637" lat="51.131761">
        <ele>514.443</ele>
        <time>2026-03-07T09:10:02.124Z</time>
      </trkpt>
      <trkpt lon="7.579448" lat="51.136317">
        <ele>499.213</ele>
        <time>2026-03-07T09:10:15.348Z</time>
      </trkpt>
      <trkpt lon="7.582839" lat="51.137825">
        <ele>477.845</ele>
        <time>2026-03-07T09:10:20.046Z</time>
      </trkpt>
      <trkpt lon="7.586022" lat="51.139470">
        <ele>475.474</ele>
        <time>2026-03-07T09:10:24.680Z</time>
      </trkpt>
      <trkpt lon="7.588903" lat="51.141386">
        <ele>478.886</ele>
        <time>2026-03-07T09:10:29.532Z</time>
      </trkpt>
      <trkpt lon="7.590977" lat="51.143101">
        <ele>474.072</ele>
        <time>2026-03-07T09:10:33.454Z</time>
      </trkpt>
      <trkpt lon="7.597528" lat="51.149674">
        <ele>456.388</ele>
        <time>2026-03-07T09:10:48.144Z</time>
      </trkpt>
      <trkpt lon="7.602393" lat="51.155627">
        <ele>479.952</ele>
        <time>2026-03-07T09:11:01.230Z</time>
      </trkpt>
      <trkpt lon="7.609203" lat="51.166377">
        <ele>497.447</ele>
        <time>2026-03-07T09:12:44.094Z</time>
      </trkpt>
      <trkpt lon="7.613077" lat="51.172834">
        <ele>487.168</ele>
        <time>2026-03-07T09:12:58.422Z</time>
      </trkpt>
      <trkpt lon="7.613502" lat="51.173674">
        <ele>485.125</ele>
        <time>2026-03-07T09:14:04.074Z</time>
      </trkpt>
      <trkpt lon="7.614929" lat="51.176769">
        <ele>467.619</ele>
        <time>2026-03-07T09:14:10.226Z</time>
      </trkpt>
      <trkpt lon="7.617076" lat="51.181333">
        <ele>458.26</ele>
        <time>2026-03-07T09:14:19.542Z</time>
      </trkpt>
      <trkpt lon="7.617707" lat="51.182254">
        <ele>454.764</ele>
        <time>2026-03-07T09:14:21.524Z</time>
      </trkpt>
      <trkpt lon="7.618483" lat="51.183151">
        <ele>454.58</ele>
        <time>2026-03-07T09:14:23.540Z</time>
      </trkpt>
      <trkpt lon="7.623601" lat="51.187561">
        <ele>437.886</ele>
        <time>2026-03-07T09:14:34.184Z</time>
      </trkpt>
      <trkpt lon="7.628366" lat="51.190970">
        <ele>461.01</ele>
        <time>2026-03-07T09:14:43.036Z</time>
      </trkpt>
      <trkpt lon="7.630138" lat="51.192116">
        <ele>484.54</ele>
        <time>2026-03-07T09:14:46.356Z</time>
      </trkpt>
      <trkpt lon="7.632184" lat="51.193449">
        <ele>508.551</ele>
        <time>2026-03-07T09:14:50.402Z</time>
      </trkpt>
      <trkpt lon="7.636007" lat="51.196215">
        <ele>514.451</ele>
        <time>2026-03-07T09:14:58.328Z</time>
      </trkpt>
      <trkpt lon="7.640659" lat="51.200296">
        <ele>501.774</ele>
        <time>2026-03-07T09:15:08.434Z</time>
      </trkpt>
      <trkpt lon="7.643597" lat="51.202872">
        <ele>524.253</ele>
        <time>2026-03-07T09:15:14.382Z</time>
      </trkpt>
      <trkpt lon="7.645698" lat="51.204498">
        <ele>532.704</ele>
        <time>2026-03-07T09:15:18.378Z</time>
      </trkpt>
      <trkpt lon="7.647687" lat="51.205706">
        <ele>540.698</ele>
        <time>2026-03-07T09:15:21.672Z</time>
      </trkpt>
      <trkpt lon="7.654099" lat="51.209208">
        <ele>541.183</ele>
        <time>2026-03-07T09:15:31.664Z</time>
      </trkpt>
      <trkpt lon="7.664550" lat="51.214499">
        <ele>535.112</ele>
        <time>2026-03-07T09:15:47.606Z</time>
      </trkpt>
      <trkpt lon="7.667454" lat="51.215652">
        <ele>524.034</ele>
        <time>2026-03-07T09:15:51.664Z</time>
      </trkpt>
      <trkpt lon="7.671587" lat="51.216962">
        <ele>508.332</ele>
        <time>2026-03-07T09:15:56.988Z</time>
      </trkpt>
      <trkpt lon="7.677088" lat="51.218289">
        <ele>495.748</ele>
        <time>2026-03-07T09:16:03.644Z</time>
      </trkpt>
      <trkpt lon="7.682930" lat="51.219394">
        <ele>476.82</ele>
        <time>2026-03-07T09:16:10.414Z</time>
      </trkpt>
      <trkpt lon="7.687831" lat="51.220161">
        <ele>456.941</ele>
        <time>2026-03-07T09:16:15.980Z</time>
      </trkpt>
      <trkpt lon="7.693626" lat="51.220882">
        <ele>434.904</ele>
        <time>2026-03-07T09:16:27.296Z</time>
      </trkpt>
      <trkpt lon="7.700542" lat="51.221497">
        <ele>418.308</ele>
        <time>2026-03-07T09:16:34.672Z</time>
      </trkpt>
      <trkpt lon="7.704881" lat="51.221685">
        <ele>440.655</ele>
        <time>2026-03-07T09:16:39.312Z</time>
      </trkpt>
      <trkpt lon="7.706701" lat="51.221737">
        <ele>461.114</ele>
        <time>2026-03-07T09:16:41.390Z</time>
      </trkpt>
      <trkpt lon="7.708413" lat="51.221754">
        <ele>485.083</ele>
        <time>2026-03-07T09:16:43.422Z</time>
      </trkpt>
      <trkpt lon="7.710018" lat="51.221731">
        <ele>508.16</ele>
        <time>2026-03-07T09:16:45.450Z</time>
      </trkpt>
      <trkpt lon="7.712009" lat="51.221636">
        <ele>532.037</ele>
        <time>2026-03-07T09:16:48.124Z</time>
      </trkpt>
      <trkpt lon="7.712942" lat="51.221557">
        <ele>541.648</ele>
        <time>2026-03-07T09:16:49.468Z</time>
      </trkpt>
      <trkpt lon="7.715733" lat="51.221299">
        <ele>563.703</ele>
        <time>2026-03-07T09:16:53.450Z</time>
      </trkpt>
      <trkpt lon="7.718602" lat="51.221019">
        <ele>569.745</ele>
        <time>2026-03-07T09:16:57.528Z</time>
      </trkpt>
      <trkpt lon="7.725404" lat="51.220182">
        <ele>566.78</ele>
        <time>2026-03-07T09:17:06.636Z</time>
      </trkpt>
      <trkpt lon="7.742082" lat="51.217620">
        <ele>590.993</ele>
        <time>2026-03-07T09:17:27.250Z</time>
      </trkpt>
      <trkpt lon="7.748026" lat="51.216640">
        <ele>600.971</ele>
        <time>2026-03-07T09:17:34.632Z</time>
      </trkpt>
      <trkpt lon="7.753837" lat="51.216056">
        <ele>603.177</ele>
        <time>2026-03-07T09:17:41.832Z</time>
      </trkpt>
    </trkseg>
    <trkseg>
      <trkpt lon="7.603428" lat="51.100347">
        <ele>472.439</ele>
        <time>2026-03-08T17:53:32.248Z</time>
      </trkpt>
      <trkpt lon="7.603418" lat="51.100345">
        <ele>472.445</ele>
        <time>2026-03-08T09:09:00.844Z</time>
      </trkpt>
      <trkpt lon="7.603409" lat="51.100334">
        <ele>472.692</ele>
        <time>2026-03-08T09:10:35.336Z</time>
      </trkpt>
      <trkpt lon="7.603407" lat="51.100335">
        <ele>476.277</ele>
        <time>2026-03-08T09:10:38.582Z</time>
      </trkpt>
      <trkpt lon="7.603427" lat="51.100340">
        <ele>481.131</ele>
        <time>2026-03-08T09:10:39.860Z</time>
      </trkpt>
      <trkpt lon="7.603451" lat="51.100344">
        <ele>483.154</ele>
        <time>2026-03-08T09:10:40.516Z</time>
      </trkpt>
      <trkpt lon="7.603528" lat="51.100366">
        <ele>484.982</ele>
        <time>2026-03-08T09:10:41.816Z</time>
      </trkpt>
      <trkpt lon="7.603584" lat="51.100384">
        <ele>484.98</ele>
        <time>2026-03-08T09:10:42.446Z</time>
      </trkpt>
      <trkpt lon="7.603762" lat="51.100439">
        <ele>485.341</ele>
        <time>2026-03-08T09:10:43.754Z</time>
      </trkpt>
      <trkpt lon="7.603882" lat="51.100479">
        <ele>485.933</ele>
        <time>2026-03-08T09:10:44.382Z</time>
      </trkpt>
      <trkpt lon="7.604197" lat="51.100593">
        <ele>485.445</ele>
        <time>2026-03-08T09:10:45.664Z</time>
      </trkpt>
      <trkpt lon="7.604603" lat="51.100745">
        <ele>482.082</ele>
        <time>2026-03-08T09:10:46.954Z</time>
      </trkpt>
      <trkpt lon="7.604845" lat="51.100832">
        <ele>480.906</ele>
        <time>2026-03-08T09:10:47.606Z</time>
      </trkpt>
      <trkpt lon="7.605693" lat="51.101134">
        <ele>481.623</ele>
        <time>2026-03-08T09:10:49.546Z</time>
      </trkpt>
      <trkpt lon="7.607041" lat="51.101527">
        <ele>483.101</ele>
        <time>2026-03-08T09:10:52.140Z</time>
      </trkpt>
      <trkpt lon="7.608161" lat="51.101739">
        <ele>492.091</ele>
        <time>2026-03-08T09:10:54.118Z</time>
      </trkpt>
      <trkpt lon="7.608479" lat="51.101792">
        <ele>497.598</ele>
        <time>2026-03-08T09:10:54.734Z</time>
      </trkpt>
      <trkpt lon="7.608759" lat="51.101845">
        <ele>504.852</ele>
        <time>2026-03-08T09:10:55.378Z</time>
      </trkpt>
      <trkpt lon="7.608978" lat="51.101898">
        <ele>512.532</ele>
        <time>2026-03-08T09:10:56.004Z</time>
      </trkpt>
      <trkpt lon="7.609148" lat="51.101949">
        <ele>519.027</ele>
        <time>2026-03-08T09:10:56.640Z</time>
      </trkpt>
      <trkpt lon="7.609280" lat="51.101997">
        <ele>523.558</ele>
        <time>2026-03-08T09:10:57.274Z</time>
      </trkpt>
      <trkpt lon="7.609534" lat="51.102142">
        <ele>523.523</ele>
        <time>2026-03-08T09:10:59.238Z</time>
      </trkpt>
      <trkpt lon="7.609583" lat="51.102207">
        <ele>522.337</ele>
        <time>2026-03-08T09:10:59.894Z</time>
      </trkpt>
      <trkpt lon="7.609610" lat="51.102282">
        <ele>522.353</ele>
        <time>2026-03-08T09:11:00.532Z</time>
      </trkpt>
      <trkpt lon="7.609618" lat="51.102363">
        <ele>523.199</ele>
        <time>2026-03-08T09:11:01.172Z</time>
      </trkpt>
      <trkpt lon="7.609617" lat="51.102452">
        <ele>523.225</ele>
        <time>2026-03-08T09:11:01.824Z</time>
      </trkpt>
      <trkpt lon="7.609615" lat="51.102540">
        <ele>522.21</ele>
        <time>2026-03-08T09:11:02.458Z</time>
      </trkpt>
      <trkpt lon="7.609614" lat="51.102629">
        <ele>520.813</ele>
        <time>2026-03-08T09:11:03.086Z</time>
      </trkpt>
      <trkpt lon="7.609620" lat="51.102809">
        <ele>516.517</ele>
        <time>2026-03-08T09:11:04.368Z</time>
      </trkpt>
      <trkpt lon="7.609628" lat="51.102900">
        <ele>513.831</ele>
        <time>2026-03-08T09:11:05.024Z</time>
      </trkpt>
      <trkpt lon="7.609643" lat="51.102991">
        <ele>510.701</ele>
        <time>2026-03-08T09:11:05.700Z</time>
      </trkpt>
      <trkpt lon="7.609666" lat="51.103076">
        <ele>507.241</ele>
        <time>2026-03-08T09:11:06.360Z</time>
      </trkpt>
      <trkpt lon="7.609694" lat="51.103153">
        <ele>503.526</ele>
        <time>2026-03-08T09:11:07.012Z</time>
      </trkpt>
      <trkpt lon="7.609723" lat="51.103219">
        <ele>499.653</ele>
        <time>2026-03-08T09:11:07.640Z</time>
      </trkpt>
      <trkpt lon="7.609751" lat="51.103278">
        <ele>495.282</ele>
        <time>2026-03-08T09:11:08.274Z</time>
      </trkpt>
      <trkpt lon="7.609791" lat="51.103343">
        <ele>488.831</ele>
        <time>2026-03-08T09:11:09.554Z</time>
      </trkpt>
      <trkpt lon="7.609801" lat="51.103343">
        <ele>486.397</ele>
        <time>2026-03-08T09:11:10.200Z</time>
      </trkpt>
      <trkpt lon="7.609805" lat="51.103324">
        <ele>483.467</ele>
        <time>2026-03-08T09:11:10.836Z</time>
      </trkpt>
      <trkpt lon="7.609802" lat="51.103289">
        <ele>480.63</ele>
        <time>2026-03-08T09:11:11.480Z</time>
      </trkpt>
      <trkpt lon="7.609793" lat="51.103244">
        <ele>478.265</ele>
        <time>2026-03-08T09:11:12.114Z</time>
      </trkpt>
      <trkpt lon="7.609743" lat="51.103037">
        <ele>467.73</ele>
        <time>2026-03-08T09:11:15.308Z</time>
      </trkpt>
      <trkpt lon="7.609759" lat="51.103029">
        <ele>465.329</ele>
        <time>2026-03-08T09:11:16.558Z</time>
      </trkpt>
      <trkpt lon="7.609769" lat="51.103033">
        <ele>464.276</ele>
        <time>2026-03-08T09:11:17.196Z</time>
      </trkpt>
      <trkpt lon="7.609767" lat="51.102952">
        <ele>467.967</ele>
        <time>2026-03-08T09:11:21.656Z</time>
      </trkpt>
      <trkpt lon="7.609769" lat="51.102861">
        <ele>466.77</ele>
        <time>2026-03-08T09:11:24.208Z</time>
      </trkpt>
      <trkpt lon="7.609768" lat="51.102874">
        <ele>463.046</ele>
        <time>2026-03-08T09:11:35.692Z</time>
      </trkpt>
      <trkpt lon="7.609789" lat="51.102874">
        <ele>476.703</ele>
        <time>2026-03-08T09:11:45.262Z</time>
      </trkpt>
      <trkpt lon="7.609812" lat="51.102854">
        <ele>478.577</ele>
        <time>2026-03-08T09:11:45.922Z</time>
      </trkpt>
      <trkpt lon="7.609840" lat="51.102824">
        <ele>479.959</ele>
        <time>2026-03-08T09:11:46.546Z</time>
      </trkpt>
      <trkpt lon="7.609902" lat="51.102728">
        <ele>481.669</ele>
        <time>2026-03-08T09:11:47.824Z</time>
      </trkpt>
      <trkpt lon="7.609959" lat="51.102600">
        <ele>482.254</ele>
        <time>2026-03-08T09:11:49.136Z</time>
      </trkpt>
      <trkpt lon="7.609994" lat="51.102466">
        <ele>483.23</ele>
        <time>2026-03-08T09:11:50.410Z</time>
      </trkpt>
      <trkpt lon="7.610005" lat="51.102350">
        <ele>485.468</ele>
        <time>2026-03-08T09:11:51.688Z</time>
      </trkpt>
      <trkpt lon="7.610001" lat="51.102304">
        <ele>486.647</ele>
        <time>2026-03-08T09:11:52.316Z</time>
      </trkpt>
      <trkpt lon="7.609993" lat="51.102267">
        <ele>487.738</ele>
        <time>2026-03-08T09:11:52.968Z</time>
      </trkpt>
      <trkpt lon="7.609979" lat="51.102239">
        <ele>488.546</ele>
        <time>2026-03-08T09:11:53.610Z</time>
      </trkpt>
      <trkpt lon="7.609961" lat="51.102219">
        <ele>488.618</ele>
        <time>2026-03-08T09:11:54.258Z</time>
      </trkpt>
      <trkpt lon="7.609940" lat="51.102207">
        <ele>487.873</ele>
        <time>2026-03-08T09:11:54.890Z</time>
      </trkpt>
      <trkpt lon="7.609876" lat="51.102190">
        <ele>482.043</ele>
        <time>2026-03-08T09:11:56.820Z</time>
      </trkpt>
      <trkpt lon="7.609855" lat="51.102178">
        <ele>480.492</ele>
        <time>2026-03-08T09:11:57.460Z</time>
      </trkpt>
      <trkpt lon="7.609824" lat="51.102155">
        <ele>479.87</ele>
        <time>2026-03-08T09:11:58.118Z</time>
      </trkpt>
      <trkpt lon="7.609783" lat="51.102121">
        <ele>480.071</ele>
        <time>2026-03-08T09:11:58.734Z</time>
      </trkpt>
      <trkpt lon="7.609727" lat="51.102069">
        <ele>480.584</ele>
        <time>2026-03-08T09:11:59.372Z</time>
      </trkpt>
      <trkpt lon="7.609651" lat="51.102002">
        <ele>480.903</ele>
        <time>2026-03-08T09:12:00.016Z</time>
      </trkpt>
      <trkpt lon="7.609548" lat="51.101925">
        <ele>480.806</ele>
        <time>2026-03-08T09:12:00.640Z</time>
      </trkpt>
      <trkpt lon="7.609220" lat="51.101751">
        <ele>480.108</ele>
        <time>2026-03-08T09:12:01.930Z</time>
      </trkpt>
      <trkpt lon="7.608738" lat="51.101585">
        <ele>480.874</ele>
        <time>2026-03-08T09:12:03.238Z</time>
      </trkpt>
      <trkpt lon="7.608465" lat="51.101518">
        <ele>481.15</ele>
        <time>2026-03-08T09:12:03.872Z</time>
      </trkpt>
      <trkpt lon="7.606212" lat="51.101192">
        <ele>488.404</ele>
        <time>2026-03-08T09:12:09.058Z</time>
      </trkpt>
      <trkpt lon="7.605798" lat="51.101123">
        <ele>487.114</ele>
        <time>2026-03-08T09:12:10.340Z</time>
      </trkpt>
      <trkpt lon="7.605485" lat="51.101045">
        <ele>486.556</ele>
        <time>2026-03-08T09:12:11.628Z</time>
      </trkpt>
      <trkpt lon="7.605353" lat="51.101006">
        <ele>484.912</ele>
        <time>2026-03-08T09:12:12.278Z</time>
      </trkpt>
      <trkpt lon="7.605144" lat="51.100927">
        <ele>481.349</ele>
        <time>2026-03-08T09:12:13.554Z</time>
      </trkpt>
      <trkpt lon="7.605056" lat="51.100886">
        <ele>482.014</ele>
        <time>2026-03-08T09:12:14.204Z</time>
      </trkpt>
      <trkpt lon="7.604965" lat="51.100846">
        <ele>483.371</ele>
        <time>2026-03-08T09:12:14.864Z</time>
      </trkpt>
      <trkpt lon="7.604875" lat="51.100806">
        <ele>483.485</ele>
        <time>2026-03-08T09:12:15.528Z</time>
      </trkpt>
      <trkpt lon="7.604785" lat="51.100770">
        <ele>482.873</ele>
        <time>2026-03-08T09:12:16.180Z</time>
      </trkpt>
      <trkpt lon="7.604695" lat="51.100739">
        <ele>482.274</ele>
        <time>2026-03-08T09:12:16.808Z</time>
      </trkpt>
      <trkpt lon="7.604503" lat="51.100683">
        <ele>481.165</ele>
        <time>2026-03-08T09:12:18.114Z</time>
      </trkpt>
      <trkpt lon="7.604001" lat="51.100523">
        <ele>473.856</ele>
        <time>2026-03-08T09:12:22.590Z</time>
      </trkpt>
      <trkpt lon="7.603961" lat="51.100499">
        <ele>473.775</ele>
        <time>2026-03-08T09:12:23.868Z</time>
      </trkpt>
      <trkpt lon="7.609767" lat="51.102875">
        <ele>462.978</ele>
        <time>2026-03-08T09:12:24.528Z</time>
      </trkpt>
      <trkpt lon="7.603428" lat="51.100347">
        <ele>472.269</ele>
        <time>2026-03-08T18:04:37.556Z</time>
      </trkpt>
      <trkpt lon="7.603417" lat="51.100345">
        <ele>472.327</ele>
        <time>2026-03-08T11:02:10.268Z</time>
      </trkpt>
      <trkpt lon="7.603406" lat="51.100342">
        <ele>472.323</ele>
        <time>2026-03-08T11:02:51.928Z</time>
      </trkpt>
      <trkpt lon="7.603391" lat="51.100336">
        <ele>472.328</ele>
        <time>2026-03-08T11:03:35.404Z</time>
      </trkpt>
      <trkpt lon="7.603408" lat="51.100322">
        <ele>472.582</ele>
        <time>2026-03-08T11:03:38.048Z</time>
      </trkpt>
      <trkpt lon="7.603423" lat="51.100305">
        <ele>472.594</ele>
        <time>2026-03-08T11:03:39.408Z</time>
      </trkpt>
      <trkpt lon="7.603433" lat="51.100297">
        <ele>472.592</ele>
        <time>2026-03-08T11:03:40.072Z</time>
      </trkpt>
      <trkpt lon="7.603445" lat="51.100291">
        <ele>472.634</ele>
        <time>2026-03-08T11:03:40.724Z</time>
      </trkpt>
      <trkpt lon="7.603457" lat="51.100287">
        <ele>472.672</ele>
        <time>2026-03-08T11:03:41.368Z</time>
      </trkpt>
      <trkpt lon="7.603472" lat="51.100286">
        <ele>472.66</ele>
        <time>2026-03-08T11:03:42.048Z</time>
      </trkpt>
      <trkpt lon="7.603489" lat="51.100288">
        <ele>472.552</ele>
        <time>2026-03-08T11:03:42.700Z</time>
      </trkpt>
      <trkpt lon="7.603506" lat="51.100292">
        <ele>472.398</ele>
        <time>2026-03-08T11:03:43.352Z</time>
      </trkpt>
      <trkpt lon="7.603524" lat="51.100301">
        <ele>472.424</ele>
        <time>2026-03-08T11:03:44.028Z</time>
      </trkpt>
      <trkpt lon="7.603542" lat="51.100311">
        <ele>472.659</ele>
        <time>2026-03-08T11:03:44.680Z</time>
      </trkpt>
      <trkpt lon="7.603559" lat="51.100324">
        <ele>472.801</ele>
        <time>2026-03-08T11:03:45.324Z</time>
      </trkpt>
      <trkpt lon="7.603575" lat="51.100340">
        <ele>472.628</ele>
        <time>2026-03-08T11:03:45.988Z</time>
      </trkpt>
      <trkpt lon="7.603588" lat="51.100358">
        <ele>472.517</ele>
        <time>2026-03-08T11:03:46.628Z</time>
      </trkpt>
      <trkpt lon="7.603598" lat="51.100375">
        <ele>472.421</ele>
        <time>2026-03-08T11:03:47.256Z</time>
      </trkpt>
      <trkpt lon="7.603608" lat="51.100391">
        <ele>472.4</ele>
        <time>2026-03-08T11:03:47.896Z</time>
      </trkpt>
      <trkpt lon="7.603618" lat="51.100404">
        <ele>472.414</ele>
        <time>2026-03-08T11:03:48.536Z</time>
      </trkpt>
      <trkpt lon="7.603643" lat="51.100428">
        <ele>472.905</ele>
        <time>2026-03-08T11:03:49.832Z</time>
      </trkpt>
      <trkpt lon="7.603681" lat="51.100464">
        <ele>473.626</ele>
        <time>2026-03-08T11:03:51.152Z</time>
      </trkpt>
      <trkpt lon="7.603700" lat="51.100485">
        <ele>473.516</ele>
        <time>2026-03-08T11:03:51.780Z</time>
      </trkpt>
      <trkpt lon="7.603725" lat="51.100529">
        <ele>473.796</ele>
        <time>2026-03-08T11:03:53.052Z</time>
      </trkpt>
      <trkpt lon="7.603729" lat="51.100552">
        <ele>474.229</ele>
        <time>2026-03-08T11:03:53.684Z</time>
      </trkpt>
      <trkpt lon="7.603709" lat="51.100596">
        <ele>475.158</ele>
        <time>2026-03-08T11:03:54.964Z</time>
      </trkpt>
      <trkpt lon="7.603683" lat="51.100616">
        <ele>475.454</ele>
        <time>2026-03-08T11:03:55.612Z</time>
      </trkpt>
      <trkpt lon="7.603596" lat="51.100644">
        <ele>475.194</ele>
        <time>2026-03-08T11:03:56.912Z</time>
      </trkpt>
      <trkpt lon="7.603527" lat="51.100653">
        <ele>474.929</ele>
        <time>2026-03-08T11:03:57.596Z</time>
      </trkpt>
      <trkpt lon="7.603372" lat="51.100656">
        <ele>475.023</ele>
        <time>2026-03-08T11:03:58.924Z</time>
      </trkpt>
      <trkpt lon="7.603174" lat="51.100647">
        <ele>476.028</ele>
        <time>2026-03-08T11:04:00.276Z</time>
      </trkpt>
      <trkpt lon="7.602628" lat="51.100587">
        <ele>478.067</ele>
        <time>2026-03-08T11:04:02.956Z</time>
      </trkpt>
      <trkpt lon="7.602280" lat="51.100537">
        <ele>476.712</ele>
        <time>2026-03-08T11:04:04.288Z</time>
      </trkpt>
      <trkpt lon="7.601456" lat="51.100388">
        <ele>475.247</ele>
        <time>2026-03-08T11:04:07.032Z</time>
      </trkpt>
      <trkpt lon="7.599027" lat="51.099924">
        <ele>476.899</ele>
        <time>2026-03-08T11:04:13.744Z</time>
      </trkpt>
      <trkpt lon="7.596731" lat="51.099494">
        <ele>493.901</ele>
        <time>2026-03-08T11:04:19.056Z</time>
      </trkpt>
      <trkpt lon="7.595482" lat="51.099285">
        <ele>512.823</ele>
        <time>2026-03-08T11:04:21.748Z</time>
      </trkpt>
      <trkpt lon="7.594229" lat="51.099119">
        <ele>532.331</ele>
        <time>2026-03-08T11:04:24.436Z</time>
      </trkpt>
      <trkpt lon="7.592250" lat="51.098933">
        <ele>552.687</ele>
        <time>2026-03-08T11:04:28.464Z</time>
      </trkpt>
      <trkpt lon="7.589286" lat="51.098845">
        <ele>565.636</ele>
        <time>2026-03-08T11:04:33.840Z</time>
      </trkpt>
      <trkpt lon="7.588369" lat="51.098930">
        <ele>567.694</ele>
        <time>2026-03-08T11:04:35.380Z</time>
      </trkpt>
      <trkpt lon="7.587539" lat="51.099079">
        <ele>570.367</ele>
        <time>2026-03-08T11:04:36.736Z</time>
      </trkpt>
      <trkpt lon="7.586752" lat="51.099289">
        <ele>573.338</ele>
        <time>2026-03-08T11:04:38.036Z</time>
      </trkpt>
      <trkpt lon="7.585955" lat="51.099573">
        <ele>576.652</ele>
        <time>2026-03-08T11:04:39.364Z</time>
      </trkpt>
      <trkpt lon="7.585201" lat="51.099917">
        <ele>580.462</ele>
        <time>2026-03-08T11:04:40.700Z</time>
      </trkpt>
      <trkpt lon="7.584491" lat="51.100328">
        <ele>586.638</ele>
        <time>2026-03-08T11:04:42.020Z</time>
      </trkpt>
      <trkpt lon="7.583859" lat="51.100807">
        <ele>596.052</ele>
        <time>2026-03-08T11:04:43.384Z</time>
      </trkpt>
      <trkpt lon="7.583326" lat="51.101332">
        <ele>605.801</ele>
        <time>2026-03-08T11:04:44.728Z</time>
      </trkpt>
      <trkpt lon="7.582898" lat="51.101882">
        <ele>615.324</ele>
        <time>2026-03-08T11:04:46.028Z</time>
      </trkpt>
      <trkpt lon="7.582570" lat="51.102456">
        <ele>624.803</ele>
        <time>2026-03-08T11:04:47.332Z</time>
      </trkpt>
      <trkpt lon="7.582335" lat="51.103062">
        <ele>634.534</ele>
        <time>2026-03-08T11:04:48.652Z</time>
      </trkpt>
      <trkpt lon="7.582207" lat="51.103659">
        <ele>644.083</ele>
        <time>2026-03-08T11:04:49.956Z</time>
      </trkpt>
      <trkpt lon="7.582177" lat="51.104288">
        <ele>654.428</ele>
        <time>2026-03-08T11:04:51.288Z</time>
      </trkpt>
      <trkpt lon="7.582253" lat="51.104918">
        <ele>665.26</ele>
        <time>2026-03-08T11:04:52.668Z</time>
      </trkpt>
      <trkpt lon="7.582420" lat="51.105499">
        <ele>675.787</ele>
        <time>2026-03-08T11:04:53.948Z</time>
      </trkpt>
      <trkpt lon="7.582684" lat="51.106082">
        <ele>687.061</ele>
        <time>2026-03-08T11:04:55.284Z</time>
      </trkpt>
      <trkpt lon="7.583033" lat="51.106646">
        <ele>698.075</ele>
        <time>2026-03-08T11:04:56.624Z</time>
      </trkpt>
      <trkpt lon="7.583650" lat="51.107417">
        <ele>712.5</ele>
        <time>2026-03-08T11:04:58.580Z</time>
      </trkpt>
      <trkpt lon="7.584390" lat="51.108157">
        <ele>726.249</ele>
        <time>2026-03-08T11:05:00.584Z</time>
      </trkpt>
      <trkpt lon="7.585241" lat="51.108853">
        <ele>739.744</ele>
        <time>2026-03-08T11:05:02.640Z</time>
      </trkpt>
      <trkpt lon="7.586480" lat="51.109685">
        <ele>756.594</ele>
        <time>2026-03-08T11:05:05.296Z</time>
      </trkpt>
      <trkpt lon="7.588802" lat="51.110972">
        <ele>786.81</ele>
        <time>2026-03-08T11:05:09.880Z</time>
      </trkpt>
      <trkpt lon="7.593208" lat="51.113001">
        <ele>820.948</ele>
        <time>2026-03-08T11:05:17.744Z</time>
      </trkpt>
      <trkpt lon="7.597967" lat="51.114736">
        <ele>820.414</ele>
        <time>2026-03-08T11:05:24.960Z</time>
      </trkpt>
      <trkpt lon="7.605797" lat="51.117444">
        <ele>827.042</ele>
        <time>2026-03-08T11:05:35.672Z</time>
      </trkpt>
      <trkpt lon="7.608632" lat="51.118789">
        <ele>816.591</ele>
        <time>2026-03-08T11:05:39.696Z</time>
      </trkpt>
      <trkpt lon="7.614315" lat="51.121928">
        <ele>781.968</ele>
        <time>2026-03-08T11:05:47.764Z</time>
      </trkpt>
      <trkpt lon="7.619722" lat="51.124924">
        <ele>749.472</ele>
        <time>2026-03-08T11:05:55.052Z</time>
      </trkpt>
      <trkpt lon="7.628385" lat="51.129467">
        <ele>737.278</ele>
        <time>2026-03-08T11:06:06.408Z</time>
      </trkpt>
      <trkpt lon="7.651811" lat="51.139979">
        <ele>717.26</ele>
        <time>2026-03-08T11:06:36.800Z</time>
      </trkpt>
      <trkpt lon="7.672277" lat="51.148126">
        <ele>708.564</ele>
        <time>2026-03-08T11:07:02.980Z</time>
      </trkpt>
      <trkpt lon="7.674387" lat="51.148830">
        <ele>736.818</ele>
        <time>2026-03-08T11:07:05.716Z</time>
      </trkpt>
      <trkpt lon="7.676338" lat="51.149394">
        <ele>769.875</ele>
        <time>2026-03-08T11:07:08.332Z</time>
      </trkpt>
      <trkpt lon="7.678219" lat="51.149887">
        <ele>804.044</ele>
        <time>2026-03-08T11:07:10.992Z</time>
      </trkpt>
      <trkpt lon="7.680016" lat="51.150340">
        <ele>838.996</ele>
        <time>2026-03-08T11:07:13.700Z</time>
      </trkpt>
      <trkpt lon="7.682073" lat="51.150829">
        <ele>878.443</ele>
        <time>2026-03-08T11:07:16.996Z</time>
      </trkpt>
      <trkpt lon="7.684422" lat="51.151327">
        <ele>916.201</ele>
        <time>2026-03-08T11:07:20.940Z</time>
      </trkpt>
      <trkpt lon="7.687922" lat="51.151963">
        <ele>958.812</ele>
        <time>2026-03-08T11:07:26.856Z</time>
      </trkpt>
      <trkpt lon="7.692404" lat="51.152530">
        <ele>1002.68</ele>
        <time>2026-03-08T11:07:34.208Z</time>
      </trkpt>
      <trkpt lon="7.698104" lat="51.153065">
        <ele>1044.93</ele>
        <time>2026-03-08T11:07:42.828Z</time>
      </trkpt>
      <trkpt lon="7.704925" lat="51.153509">
        <ele>1053.68</ele>
        <time>2026-03-08T11:07:52.060Z</time>
      </trkpt>
      <trkpt lon="7.708752" lat="51.153836">
        <ele>1025.02</ele>
        <time>2026-03-08T11:07:56.756Z</time>
      </trkpt>
      <trkpt lon="7.712804" lat="51.154329">
        <ele>988.056</ele>
        <time>2026-03-08T11:08:01.344Z</time>
      </trkpt>
      <trkpt lon="7.720820" lat="51.155726">
        <ele>962.953</ele>
        <time>2026-03-08T11:08:09.948Z</time>
      </trkpt>
      <trkpt lon="7.723964" lat="51.156474">
        <ele>961.051</ele>
        <time>2026-03-08T11:08:13.372Z</time>
      </trkpt>
      <trkpt lon="7.726349" lat="51.157208">
        <ele>961.337</ele>
        <time>2026-03-08T11:08:16.064Z</time>
      </trkpt>
      <trkpt lon="7.728587" lat="51.158056">
        <ele>962.11</ele>
        <time>2026-03-08T11:08:18.704Z</time>
      </trkpt>
      <trkpt lon="7.731219" lat="51.159288">
        <ele>962.786</ele>
        <time>2026-03-08T11:08:22.036Z</time>
      </trkpt>
      <trkpt lon="7.733739" lat="51.160741">
        <ele>960.091</ele>
        <time>2026-03-08T11:08:25.504Z</time>
      </trkpt>
      <trkpt lon="7.737372" lat="51.163261">
        <ele>946.754</ele>
        <time>2026-03-08T11:08:30.928Z</time>
      </trkpt>
      <trkpt lon="7.748150" lat="51.171866">
        <ele>933.707</ele>
        <time>2026-03-08T11:08:48.916Z</time>
      </trkpt>
      <trkpt lon="7.756929" lat="51.179921">
        <ele>911.86</ele>
        <time>2026-03-08T11:09:05.556Z</time>
      </trkpt>
      <trkpt lon="7.760455" lat="51.184032">
        <ele>878.235</ele>
        <time>2026-03-08T11:09:13.092Z</time>
      </trkpt>
      <trkpt lon="7.763052" lat="51.187494">
        <ele>841.681</ele>
        <time>2026-03-08T11:09:19.092Z</time>
      </trkpt>
      <trkpt lon="7.769938" lat="51.195915">
        <ele>851.892</ele>
        <time>2026-03-08T11:09:33.868Z</time>
      </trkpt>
      <trkpt lon="7.772350" lat="51.198641">
        <ele>891.264</ele>
        <time>2026-03-08T11:09:39.212Z</time>
      </trkpt>
      <trkpt lon="7.776236" lat="51.202454">
        <ele>934.136</ele>
        <time>2026-03-08T11:09:47.276Z</time>
      </trkpt>
      <trkpt lon="7.780197" lat="51.206018">
        <ele>973.207</ele>
        <time>2026-03-08T11:09:55.212Z</time>
      </trkpt>
      <trkpt lon="7.785397" lat="51.210082">
        <ele>1014.96</ele>
        <time>2026-03-08T11:10:04.704Z</time>
      </trkpt>
      <trkpt lon="7.789385" lat="51.212910">
        <ele>1057.55</ele>
        <time>2026-03-08T11:10:11.664Z</time>
      </trkpt>
      <trkpt lon="7.794184" lat="51.216157">
        <ele>1098.15</ele>
        <time>2026-03-08T11:10:20.228Z</time>
      </trkpt>
      <trkpt lon="7.803488" lat="51.222258">
        <ele>1078.94</ele>
        <time>2026-03-08T11:10:36.208Z</time>
      </trkpt>
      <trkpt lon="7.821680" lat="51.234855">
        <ele>1081.67</ele>
        <time>2026-03-08T11:11:06.272Z</time>
      </trkpt>
      <trkpt lon="7.831259" lat="51.242255">
        <ele>1077.34</ele>
        <time>2026-03-08T11:11:22.284Z</time>
      </trkpt>
      <trkpt lon="7.838900" lat="51.249098">
        <ele>1051.05</ele>
        <time>2026-03-08T11:11:35.736Z</time>
      </trkpt>
      <trkpt lon="7.848576" lat="51.258950">
        <ele>1035.61</ele>
        <time>2026-03-08T11:11:54.424Z</time>
      </trkpt>
      <trkpt lon="7.855877" lat="51.265322">
        <ele>1027.57</ele>
        <time>2026-03-08T11:12:07.020Z</time>
      </trkpt>
      <trkpt lon="7.863001" lat="51.270672">
        <ele>1021.98</ele>
        <time>2026-03-08T11:12:18.392Z</time>
      </trkpt>
      <trkpt lon="7.872912" lat="51.276771">
        <ele>1021.21</ele>
        <time>2026-03-08T11:12:32.548Z</time>
      </trkpt>
      <trkpt lon="7.894899" lat="51.288453">
        <ele>1041.62</ele>
        <time>2026-03-08T11:13:02.944Z</time>
      </trkpt>
      <trkpt lon="7.906678" lat="51.295012">
        <ele>1008.96</ele>
        <time>2026-03-08T11:13:19.820Z</time>
      </trkpt>
      <trkpt lon="7.911749" lat="51.298410">
        <ele>964.642</ele>
        <time>2026-03-08T11:13:27.188Z</time>
      </trkpt>
      <trkpt lon="7.925693" lat="51.308479">
        <ele>956.978</ele>
        <time>2026-03-08T11:13:47.896Z</time>
      </trkpt>
      <trkpt lon="7.944022" lat="51.320128">
        <ele>976.977</ele>
        <time>2026-03-08T11:14:15.900Z</time>
      </trkpt>
      <trkpt lon="7.963797" lat="51.332342">
        <ele>941.591</ele>
        <time>2026-03-08T11:14:45.456Z</time>
      </trkpt>
      <trkpt lon="7.979883" lat="51.343572">
        <ele>945.245</ele>
        <time>2026-03-08T11:15:10.268Z</time>
      </trkpt>
      <trkpt lon="7.993000" lat="51.351869">
        <ele>956.012</ele>
        <time>2026-03-08T11:15:30.820Z</time>
      </trkpt>
      <trkpt lon="7.996269" lat="51.353479">
        <ele>962.386</ele>
        <time>2026-03-08T11:15:35.356Z</time>
      </trkpt>
      <trkpt lon="7.999828" lat="51.354913">
        <ele>960.568</ele>
        <time>2026-03-08T11:15:39.980Z</time>
      </trkpt>
      <trkpt lon="8.002583" lat="51.355789">
        <ele>960.029</ele>
        <time>2026-03-08T11:15:43.380Z</time>
      </trkpt>
      <trkpt lon="8.004838" lat="51.356345">
        <ele>957.895</ele>
        <time>2026-03-08T11:15:46.032Z</time>
      </trkpt>
      <trkpt lon="8.007785" lat="51.356874">
        <ele>949.741</ele>
        <time>2026-03-08T11:15:49.352Z</time>
      </trkpt>
      <trkpt lon="8.010287" lat="51.357155">
        <ele>940.555</ele>
        <time>2026-03-08T11:15:52.072Z</time>
      </trkpt>
      <trkpt lon="8.012834" lat="51.357286">
        <ele>935.748</ele>
        <time>2026-03-08T11:15:54.776Z</time>
      </trkpt>
      <trkpt lon="8.015999" lat="51.357258">
        <ele>941.504</ele>
        <time>2026-03-08T11:15:58.124Z</time>
      </trkpt>
      <trkpt lon="8.019060" lat="51.357089">
        <ele>955.531</ele>
        <time>2026-03-08T11:16:01.468Z</time>
      </trkpt>
      <trkpt lon="8.024306" lat="51.356629">
        <ele>995.939</ele>
        <time>2026-03-08T11:16:07.612Z</time>
      </trkpt>
      <trkpt lon="8.029476" lat="51.356304">
        <ele>1042.08</ele>
        <time>2026-03-08T11:16:14.264Z</time>
      </trkpt>
      <trkpt lon="8.038102" lat="51.356117">
        <ele>1057.58</ele>
        <time>2026-03-08T11:16:25.488Z</time>
      </trkpt>
      <trkpt lon="8.041369" lat="51.356196">
        <ele>1052.86</ele>
        <time>2026-03-08T11:16:29.424Z</time>
      </trkpt>
      <trkpt lon="8.047740" lat="51.356591">
        <ele>1041.04</ele>
        <time>2026-03-08T11:16:36.840Z</time>
      </trkpt>
      <trkpt lon="8.053034" lat="51.357186">
        <ele>1032.98</ele>
        <time>2026-03-08T11:16:42.792Z</time>
      </trkpt>
      <trkpt lon="8.073181" lat="51.360641">
        <ele>1005.65</ele>
        <time>2026-03-08T11:17:04.956Z</time>
      </trkpt>
      <trkpt lon="8.100782" lat="51.366412">
        <ele>982.19</ele>
        <time>2026-03-08T11:17:35.612Z</time>
      </trkpt>
      <trkpt lon="8.120420" lat="51.370627">
        <ele>938.252</ele>
        <time>2026-03-08T11:17:57.452Z</time>
      </trkpt>
      <trkpt lon="8.131189" lat="51.372983">
        <ele>899.108</ele>
        <time>2026-03-08T11:18:08.736Z</time>
      </trkpt>
      <trkpt lon="8.141801" lat="51.375313">
        <ele>908.7</ele>
        <time>2026-03-08T11:18:20.112Z</time>
      </trkpt>
      <trkpt lon="8.155661" lat="51.377910">
        <ele>948.166</ele>
        <time>2026-03-08T11:18:36.172Z</time>
      </trkpt>
      <trkpt lon="8.180932" lat="51.382700">
        <ele>979.631</ele>
        <time>2026-03-08T11:19:06.416Z</time>
      </trkpt>
      <trkpt lon="8.195049" lat="51.386123">
        <ele>965.941</ele>
        <time>2026-03-08T11:19:23.060Z</time>
      </trkpt>
      <trkpt lon="8.203950" lat="51.388817">
        <ele>973.036</ele>
        <time>2026-03-08T11:19:33.796Z</time>
      </trkpt>
      <trkpt lon="8.211898" lat="51.391928">
        <ele>974.869</ele>
        <time>2026-03-08T11:19:43.904Z</time>
      </trkpt>
      <trkpt lon="8.236080" lat="51.402179">
        <ele>960.534</ele>
        <time>2026-03-08T11:20:14.236Z</time>
      </trkpt>
      <trkpt lon="8.242718" lat="51.404723">
        <ele>949.165</ele>
        <time>2026-03-08T11:20:22.180Z</time>
      </trkpt>
      <trkpt lon="8.246327" lat="51.405747">
        <ele>948.282</ele>
        <time>2026-03-08T11:20:26.260Z</time>
      </trkpt>
      <trkpt lon="8.271636" lat="51.412404">
        <ele>931.509</ele>
        <time>2026-03-08T11:20:54.928Z</time>
      </trkpt>
      <trkpt lon="8.297320" lat="51.420398">
        <ele>925.305</ele>
        <time>2026-03-08T11:21:24.960Z</time>
      </trkpt>
      <trkpt lon="8.320125" lat="51.426640">
        <ele>968.496</ele>
        <time>2026-03-08T11:21:52.324Z</time>
      </trkpt>
      <trkpt lon="8.345744" lat="51.433795">
        <ele>937.821</ele>
        <time>2026-03-08T11:22:22.688Z</time>
      </trkpt>
      <trkpt lon="8.373212" lat="51.439371">
        <ele>947.832</ele>
        <time>2026-03-08T11:22:52.756Z</time>
      </trkpt>
      <trkpt lon="8.379149" lat="51.440269">
        <ele>946.087</ele>
        <time>2026-03-08T11:22:58.792Z</time>
      </trkpt>
      <trkpt lon="8.408769" lat="51.443579">
        <ele>939.356</ele>
        <time>2026-03-08T11:23:29.132Z</time>
      </trkpt>
      <trkpt lon="8.436892" lat="51.446256">
        <ele>973.045</ele>
        <time>2026-03-08T11:23:59.640Z</time>
      </trkpt>
      <trkpt lon="8.464502" lat="51.449979">
        <ele>950.21</ele>
        <time>2026-03-08T11:24:29.824Z</time>
      </trkpt>
      <trkpt lon="8.490929" lat="51.453547">
        <ele>984.039</ele>
        <time>2026-03-08T11:25:00.396Z</time>
      </trkpt>
      <trkpt lon="8.518985" lat="51.456261">
        <ele>977.541</ele>
        <time>2026-03-08T11:25:30.912Z</time>
      </trkpt>
      <trkpt lon="8.546926" lat="51.459966">
        <ele>973.636</ele>
        <time>2026-03-08T11:26:01.052Z</time>
      </trkpt>
      <trkpt lon="8.574693" lat="51.462906">
        <ele>964.33</ele>
        <time>2026-03-08T11:26:31.260Z</time>
      </trkpt>
      <trkpt lon="8.587905" lat="51.463993">
        <ele>1008.87</ele>
        <time>2026-03-08T11:26:46.180Z</time>
      </trkpt>
      <trkpt lon="8.603181" lat="51.465490">
        <ele>1010.48</ele>
        <time>2026-03-08T11:27:03.592Z</time>
      </trkpt>
      <trkpt lon="8.607867" lat="51.466290">
        <ele>1015.14</ele>
        <time>2026-03-08T11:27:08.948Z</time>
      </trkpt>
      <trkpt lon="8.611813" lat="51.467218">
        <ele>1012.77</ele>
        <time>2026-03-08T11:27:13.540Z</time>
      </trkpt>
      <trkpt lon="8.614629" lat="51.468090">
        <ele>1009.76</ele>
        <time>2026-03-08T11:27:16.944Z</time>
      </trkpt>
      <trkpt lon="8.617262" lat="51.469116">
        <ele>1007.5</ele>
        <time>2026-03-08T11:27:20.240Z</time>
      </trkpt>
      <trkpt lon="8.619784" lat="51.470322">
        <ele>1003.76</ele>
        <time>2026-03-08T11:27:23.548Z</time>
      </trkpt>
      <trkpt lon="8.635159" lat="51.478685">
        <ele>987.264</ele>
        <time>2026-03-08T11:27:44.456Z</time>
      </trkpt>
      <trkpt lon="8.657065" lat="51.491323">
        <ele>1004.3</ele>
        <time>2026-03-08T11:28:14.716Z</time>
      </trkpt>
      <trkpt lon="8.672352" lat="51.500168">
        <ele>1013.81</ele>
        <time>2026-03-08T11:28:35.808Z</time>
      </trkpt>
      <trkpt lon="8.688696" lat="51.512548">
        <ele>1049.24</ele>
        <time>2026-03-08T11:29:02.448Z</time>
      </trkpt>
      <trkpt lon="8.705739" lat="51.525933">
        <ele>1063.2</ele>
        <time>2026-03-08T11:29:31.192Z</time>
      </trkpt>
      <trkpt lon="8.710776" lat="51.529348">
        <ele>1091.53</ele>
        <time>2026-03-08T11:29:39.192Z</time>
      </trkpt>
      <trkpt lon="8.716881" lat="51.532881">
        <ele>1143.37</ele>
        <time>2026-03-08T11:29:48.468Z</time>
      </trkpt>
      <trkpt lon="8.732009" lat="51.540113">
        <ele>1170.53</ele>
        <time>2026-03-08T11:30:09.404Z</time>
      </trkpt>
      <trkpt lon="8.743290" lat="51.545529">
        <ele>1146.16</ele>
        <time>2026-03-08T11:30:23.604Z</time>
      </trkpt>
      <trkpt lon="8.755528" lat="51.552032">
        <ele>1096.69</ele>
        <time>2026-03-08T11:30:38.880Z</time>
      </trkpt>
      <trkpt lon="8.780266" lat="51.565365">
        <ele>1069.38</ele>
        <time>2026-03-08T11:31:09.064Z</time>
      </trkpt>
      <trkpt lon="8.787954" lat="51.568748">
        <ele>1089.62</ele>
        <time>2026-03-08T11:31:18.364Z</time>
      </trkpt>
      <trkpt lon="8.792360" lat="51.570398">
        <ele>1106.46</ele>
        <time>2026-03-08T11:31:23.696Z</time>
      </trkpt>
      <trkpt lon="8.810213" lat="51.575868">
        <ele>1098.16</ele>
        <time>2026-03-08T11:31:44.368Z</time>
      </trkpt>
      <trkpt lon="8.822118" lat="51.578619">
        <ele>1093.69</ele>
        <time>2026-03-08T11:31:57.584Z</time>
      </trkpt>
      <trkpt lon="8.829827" lat="51.579959">
        <ele>1102.73</ele>
        <time>2026-03-08T11:32:06.192Z</time>
      </trkpt>
      <trkpt lon="8.834539" lat="51.580516">
        <ele>1112.49</ele>
        <time>2026-03-08T11:32:11.544Z</time>
      </trkpt>
      <trkpt lon="8.839832" lat="51.580882">
        <ele>1124.6</ele>
        <time>2026-03-08T11:32:17.620Z</time>
      </trkpt>
      <trkpt lon="8.846284" lat="51.580906">
        <ele>1137.98</ele>
        <time>2026-03-08T11:32:24.988Z</time>
      </trkpt>
      <trkpt lon="8.856083" lat="51.580306">
        <ele>1146.59</ele>
        <time>2026-03-08T11:32:36.228Z</time>
      </trkpt>
      <trkpt lon="8.863323" lat="51.579527">
        <ele>1173.21</ele>
        <time>2026-03-08T11:32:44.956Z</time>
      </trkpt>
      <trkpt lon="8.877144" lat="51.577739">
        <ele>1168.45</ele>
        <time>2026-03-08T11:33:01.744Z</time>
      </trkpt>
      <trkpt lon="8.880744" lat="51.577449">
        <ele>1150.73</ele>
        <time>2026-03-08T11:33:05.800Z</time>
      </trkpt>
      <trkpt lon="8.882608" lat="51.577413">
        <ele>1142.74</ele>
        <time>2026-03-08T11:33:07.836Z</time>
      </trkpt>
      <trkpt lon="8.885073" lat="51.577534">
        <ele>1136.79</ele>
        <time>2026-03-08T11:33:10.500Z</time>
      </trkpt>
      <trkpt lon="8.886963" lat="51.577762">
        <ele>1135</ele>
        <time>2026-03-08T11:33:12.540Z</time>
      </trkpt>
      <trkpt lon="8.888144" lat="51.577975">
        <ele>1135.5</ele>
        <time>2026-03-08T11:33:13.832Z</time>
      </trkpt>
      <trkpt lon="8.889327" lat="51.578252">
        <ele>1137.1</ele>
        <time>2026-03-08T11:33:15.164Z</time>
      </trkpt>
      <trkpt lon="8.891070" lat="51.578796">
        <ele>1138.96</ele>
        <time>2026-03-08T11:33:17.220Z</time>
      </trkpt>
      <trkpt lon="8.892655" lat="51.579449">
        <ele>1139.36</ele>
        <time>2026-03-08T11:33:19.200Z</time>
      </trkpt>
      <trkpt lon="8.894072" lat="51.580199">
        <ele>1139.65</ele>
        <time>2026-03-08T11:33:21.168Z</time>
      </trkpt>
      <trkpt lon="8.895383" lat="51.581063">
        <ele>1139.23</ele>
        <time>2026-03-08T11:33:23.152Z</time>
      </trkpt>
      <trkpt lon="8.896549" lat="51.582010">
        <ele>1137.13</ele>
        <time>2026-03-08T11:33:25.156Z</time>
      </trkpt>
      <trkpt lon="8.897565" lat="51.583007">
        <ele>1133.56</ele>
        <time>2026-03-08T11:33:27.136Z</time>
      </trkpt>
      <trkpt lon="8.898758" lat="51.584470">
        <ele>1125.53</ele>
        <time>2026-03-08T11:33:29.852Z</time>
      </trkpt>
      <trkpt lon="8.899509" lat="51.585667">
        <ele>1114.47</ele>
        <time>2026-03-08T11:33:31.924Z</time>
      </trkpt>
      <trkpt lon="8.900086" lat="51.586897">
        <ele>1101.93</ele>
        <time>2026-03-08T11:33:33.952Z</time>
      </trkpt>
      <trkpt lon="8.900492" lat="51.588179">
        <ele>1090.76</ele>
        <time>2026-03-08T11:33:35.988Z</time>
      </trkpt>
      <trkpt lon="8.900775" lat="51.589877">
        <ele>1077.02</ele>
        <time>2026-03-08T11:33:38.608Z</time>
      </trkpt>
      <trkpt lon="8.900799" lat="51.591696">
        <ele>1062.08</ele>
        <time>2026-03-08T11:33:41.364Z</time>
      </trkpt>
      <trkpt lon="8.900506" lat="51.593917">
        <ele>1041.56</ele>
        <time>2026-03-08T11:33:44.684Z</time>
      </trkpt>
      <trkpt lon="8.899714" lat="51.596669">
        <ele>1015.68</ele>
        <time>2026-03-08T11:33:48.744Z</time>
      </trkpt>
      <trkpt lon="8.897896" lat="51.600803">
        <ele>980.233</ele>
        <time>2026-03-08T11:33:54.768Z</time>
      </trkpt>
      <trkpt lon="8.895517" lat="51.604867">
        <ele>947.654</ele>
        <time>2026-03-08T11:34:00.740Z</time>
      </trkpt>
      <trkpt lon="8.890917" lat="51.610892">
        <ele>917.76</ele>
        <time>2026-03-08T11:34:10.176Z</time>
      </trkpt>
      <trkpt lon="8.887966" lat="51.614077">
        <ele>896.216</ele>
        <time>2026-03-08T11:34:15.584Z</time>
      </trkpt>
      <trkpt lon="8.885846" lat="51.615912">
        <ele>875.063</ele>
        <time>2026-03-08T11:34:18.860Z</time>
      </trkpt>
      <trkpt lon="8.884362" lat="51.616971">
        <ele>858.866</ele>
        <time>2026-03-08T11:34:20.872Z</time>
      </trkpt>
      <trkpt lon="8.882673" lat="51.617978">
        <ele>846.773</ele>
        <time>2026-03-08T11:34:22.936Z</time>
      </trkpt>
      <trkpt lon="8.880310" lat="51.619132">
        <ele>834.953</ele>
        <time>2026-03-08T11:34:25.592Z</time>
      </trkpt>
      <trkpt lon="8.873955" lat="51.621595">
        <ele>797.082</ele>
        <time>2026-03-08T11:34:32.228Z</time>
      </trkpt>
      <trkpt lon="8.863321" lat="51.625473">
        <ele>787.56</ele>
        <time>2026-03-08T11:34:43.460Z</time>
      </trkpt>
      <trkpt lon="8.857568" lat="51.627090">
        <ele>773.971</ele>
        <time>2026-03-08T11:34:49.536Z</time>
      </trkpt>
      <trkpt lon="8.851705" lat="51.628351">
        <ele>749.527</ele>
        <time>2026-03-08T11:34:55.524Z</time>
      </trkpt>
      <trkpt lon="8.847041" lat="51.629096">
        <ele>731.086</ele>
        <time>2026-03-08T11:35:00.188Z</time>
      </trkpt>
      <trkpt lon="8.841010" lat="51.629829">
        <ele>716.64</ele>
        <time>2026-03-08T11:35:06.156Z</time>
      </trkpt>
      <trkpt lon="8.831076" lat="51.631335">
        <ele>695.079</ele>
        <time>2026-03-08T11:35:16.172Z</time>
      </trkpt>
      <trkpt lon="8.825965" lat="51.632429">
        <ele>689.616</ele>
        <time>2026-03-08T11:35:21.540Z</time>
      </trkpt>
      <trkpt lon="8.821722" lat="51.633563">
        <ele>694.639</ele>
        <time>2026-03-08T11:35:26.268Z</time>
      </trkpt>
      <trkpt lon="8.819485" lat="51.634318">
        <ele>697.873</ele>
        <time>2026-03-08T11:35:28.952Z</time>
      </trkpt>
      <trkpt lon="8.816347" lat="51.635636">
        <ele>712.841</ele>
        <time>2026-03-08T11:35:32.916Z</time>
      </trkpt>
      <trkpt lon="8.813055" lat="51.637350">
        <ele>734.358</ele>
        <time>2026-03-08T11:35:37.548Z</time>
      </trkpt>
      <trkpt lon="8.810917" lat="51.638652">
        <ele>745.505</ele>
        <time>2026-03-08T11:35:40.824Z</time>
      </trkpt>
      <trkpt lon="8.806947" lat="51.641454">
        <ele>747.504</ele>
        <time>2026-03-08T11:35:47.568Z</time>
      </trkpt>
      <trkpt lon="8.805439" lat="51.642642">
        <ele>741.311</ele>
        <time>2026-03-08T11:35:50.224Z</time>
      </trkpt>
      <trkpt lon="8.800089" lat="51.646559">
        <ele>711.013</ele>
        <time>2026-03-08T11:35:58.944Z</time>
      </trkpt>
      <trkpt lon="8.792746" lat="51.652072">
        <ele>676.762</ele>
        <time>2026-03-08T11:36:10.208Z</time>
      </trkpt>
      <trkpt lon="8.788654" lat="51.655596">
        <ele>642.911</ele>
        <time>2026-03-08T11:36:16.780Z</time>
      </trkpt>
      <trkpt lon="8.781582" lat="51.661850">
        <ele>637.492</ele>
        <time>2026-03-08T11:36:28.284Z</time>
      </trkpt>
      <trkpt lon="8.779311" lat="51.663427">
        <ele>636.222</ele>
        <time>2026-03-08T11:36:31.588Z</time>
      </trkpt>
      <trkpt lon="8.776332" lat="51.665179">
        <ele>628.069</ele>
        <time>2026-03-08T11:36:35.528Z</time>
      </trkpt>
      <trkpt lon="8.773550" lat="51.666551">
        <ele>619.922</ele>
        <time>2026-03-08T11:36:38.956Z</time>
      </trkpt>
      <trkpt lon="8.771275" lat="51.667482">
        <ele>607.444</ele>
        <time>2026-03-08T11:36:41.608Z</time>
      </trkpt>
      <trkpt lon="8.768894" lat="51.668276">
        <ele>594.482</ele>
        <time>2026-03-08T11:36:44.252Z</time>
      </trkpt>
      <trkpt lon="8.766479" lat="51.668937">
        <ele>587.992</ele>
        <time>2026-03-08T11:36:46.904Z</time>
      </trkpt>
      <trkpt lon="8.762880" lat="51.669707">
        <ele>567.639</ele>
        <time>2026-03-08T11:36:50.952Z</time>
      </trkpt>
      <trkpt lon="8.759627" lat="51.670275">
        <ele>568.27</ele>
        <time>2026-03-08T11:36:54.932Z</time>
      </trkpt>
      <trkpt lon="8.756601" lat="51.670705">
        <ele>568.867</ele>
        <time>2026-03-08T11:36:58.976Z</time>
      </trkpt>
      <trkpt lon="8.752920" lat="51.671204">
        <ele>558.959</ele>
        <time>2026-03-08T11:37:04.280Z</time>
      </trkpt>
      <trkpt lon="8.748740" lat="51.671383">
        <ele>537.666</ele>
        <time>2026-03-08T11:37:10.264Z</time>
      </trkpt>
      <trkpt lon="8.738344" lat="51.671302">
        <ele>521.338</ele>
        <time>2026-03-08T11:37:24.144Z</time>
      </trkpt>
      <trkpt lon="8.732255" lat="51.671317">
        <ele>504.006</ele>
        <time>2026-03-08T11:37:31.484Z</time>
      </trkpt>
      <trkpt lon="8.730444" lat="51.671460">
        <ele>497.472</ele>
        <time>2026-03-08T11:37:33.532Z</time>
      </trkpt>
      <trkpt lon="8.728682" lat="51.671706">
        <ele>492.018</ele>
        <time>2026-03-08T11:37:35.552Z</time>
      </trkpt>
      <trkpt lon="8.726943" lat="51.672054">
        <ele>487.882</ele>
        <time>2026-03-08T11:37:37.584Z</time>
      </trkpt>
      <trkpt lon="8.724706" lat="51.672665">
        <ele>489.614</ele>
        <time>2026-03-08T11:37:40.244Z</time>
      </trkpt>
      <trkpt lon="8.720676" lat="51.674090">
        <ele>499.898</ele>
        <time>2026-03-08T11:37:45.556Z</time>
      </trkpt>
      <trkpt lon="8.717028" lat="51.675631">
        <ele>504.896</ele>
        <time>2026-03-08T11:37:51.012Z</time>
      </trkpt>
      <trkpt lon="8.714309" lat="51.676998">
        <ele>512.086</ele>
        <time>2026-03-08T11:37:55.648Z</time>
      </trkpt>
      <trkpt lon="8.713981" lat="51.677179">
        <ele>514.56</ele>
        <time>2026-03-08T11:37:56.280Z</time>
      </trkpt>
      <trkpt lon="8.713662" lat="51.677366">
        <ele>516.702</ele>
        <time>2026-03-08T11:37:56.916Z</time>
      </trkpt>
      <trkpt lon="8.713045" lat="51.677778">
        <ele>519.675</ele>
        <time>2026-03-08T11:37:58.260Z</time>
      </trkpt>
      <trkpt lon="8.712531" lat="51.678210">
        <ele>519.19</ele>
        <time>2026-03-08T11:37:59.552Z</time>
      </trkpt>
      <trkpt lon="8.712098" lat="51.678694">
        <ele>514.565</ele>
        <time>2026-03-08T11:38:00.892Z</time>
      </trkpt>
      <trkpt lon="8.711806" lat="51.679208">
        <ele>506.129</ele>
        <time>2026-03-08T11:38:02.204Z</time>
      </trkpt>
      <trkpt lon="8.711654" lat="51.679753">
        <ele>495.94</ele>
        <time>2026-03-08T11:38:03.540Z</time>
      </trkpt>
      <trkpt lon="8.711632" lat="51.680023">
        <ele>490.918</ele>
        <time>2026-03-08T11:38:04.200Z</time>
      </trkpt>
      <trkpt lon="8.711647" lat="51.680305">
        <ele>485.718</ele>
        <time>2026-03-08T11:38:04.884Z</time>
      </trkpt>
      <trkpt lon="8.711702" lat="51.680593">
        <ele>480.472</ele>
        <time>2026-03-08T11:38:05.564Z</time>
      </trkpt>
      <trkpt lon="8.711911" lat="51.681113">
        <ele>471.102</ele>
        <time>2026-03-08T11:38:06.880Z</time>
      </trkpt>
      <trkpt lon="8.712264" lat="51.681619">
        <ele>462.379</ele>
        <time>2026-03-08T11:38:08.232Z</time>
      </trkpt>
      <trkpt lon="8.712736" lat="51.682086">
        <ele>455.639</ele>
        <time>2026-03-08T11:38:09.560Z</time>
      </trkpt>
      <trkpt lon="8.713266" lat="51.682476">
        <ele>451.632</ele>
        <time>2026-03-08T11:38:10.876Z</time>
      </trkpt>
      <trkpt lon="8.713878" lat="51.682825">
        <ele>449.806</ele>
        <time>2026-03-08T11:38:12.220Z</time>
      </trkpt>
      <trkpt lon="8.714511" lat="51.683104">
        <ele>450.096</ele>
        <time>2026-03-08T11:38:13.568Z</time>
      </trkpt>
      <trkpt lon="8.715147" lat="51.683317">
        <ele>451.704</ele>
        <time>2026-03-08T11:38:14.888Z</time>
      </trkpt>
      <trkpt lon="8.715794" lat="51.683467">
        <ele>454.446</ele>
        <time>2026-03-08T11:38:16.228Z</time>
      </trkpt>
      <trkpt lon="8.716400" lat="51.683557">
        <ele>457.201</ele>
        <time>2026-03-08T11:38:17.544Z</time>
      </trkpt>
      <trkpt lon="8.717937" lat="51.683696">
        <ele>455.439</ele>
        <time>2026-03-08T11:38:20.932Z</time>
      </trkpt>
      <trkpt lon="8.722113" lat="51.684369">
        <ele>441.92</ele>
        <time>2026-03-08T11:38:30.880Z</time>
      </trkpt>
      <trkpt lon="8.724038" lat="51.684849">
        <ele>441.008</ele>
        <time>2026-03-08T11:38:36.264Z</time>
      </trkpt>
      <trkpt lon="8.724522" lat="51.684921">
        <ele>439.603</ele>
        <time>2026-03-08T11:38:37.596Z</time>
      </trkpt>
      <trkpt lon="8.725018" lat="51.684959">
        <ele>438.451</ele>
        <time>2026-03-08T11:38:38.928Z</time>
      </trkpt>
      <trkpt lon="8.725778" lat="51.684955">
        <ele>436.628</ele>
        <time>2026-03-08T11:38:40.924Z</time>
      </trkpt>
      <trkpt lon="8.726304" lat="51.684909">
        <ele>435.35</ele>
        <time>2026-03-08T11:38:42.312Z</time>
      </trkpt>
      <trkpt lon="8.726814" lat="51.684829">
        <ele>435.213</ele>
        <time>2026-03-08T11:38:43.640Z</time>
      </trkpt>
      <trkpt lon="8.727557" lat="51.684652">
        <ele>437.426</ele>
        <time>2026-03-08T11:38:45.616Z</time>
      </trkpt>
      <trkpt lon="8.728283" lat="51.684410">
        <ele>440.423</ele>
        <time>2026-03-08T11:38:47.624Z</time>
      </trkpt>
      <trkpt lon="8.728983" lat="51.684112">
        <ele>440.888</ele>
        <time>2026-03-08T11:38:49.576Z</time>
      </trkpt>
      <trkpt lon="8.731071" lat="51.683100">
        <ele>438.022</ele>
        <time>2026-03-08T11:38:54.936Z</time>
      </trkpt>
      <trkpt lon="8.732859" lat="51.682383">
        <ele>460.642</ele>
        <time>2026-03-08T11:38:58.904Z</time>
      </trkpt>
      <trkpt lon="8.735017" lat="51.681725">
        <ele>489.431</ele>
        <time>2026-03-08T11:39:03.616Z</time>
      </trkpt>
      <trkpt lon="8.737348" lat="51.681095">
        <ele>491.596</ele>
        <time>2026-03-08T11:39:08.424Z</time>
      </trkpt>
      <trkpt lon="8.739511" lat="51.680634">
        <ele>489.175</ele>
        <time>2026-03-08T11:39:12.544Z</time>
      </trkpt>
      <trkpt lon="8.741340" lat="51.680347">
        <ele>483.589</ele>
        <time>2026-03-08T11:39:15.904Z</time>
      </trkpt>
      <trkpt lon="8.743211" lat="51.680162">
        <ele>477.151</ele>
        <time>2026-03-08T11:39:19.252Z</time>
      </trkpt>
      <trkpt lon="8.744718" lat="51.680106">
        <ele>471.595</ele>
        <time>2026-03-08T11:39:21.932Z</time>
      </trkpt>
      <trkpt lon="8.746633" lat="51.680172">
        <ele>463.034</ele>
        <time>2026-03-08T11:39:25.300Z</time>
      </trkpt>
      <trkpt lon="8.748513" lat="51.680362">
        <ele>451.824</ele>
        <time>2026-03-08T11:39:28.580Z</time>
      </trkpt>
      <trkpt lon="8.750446" lat="51.680664">
        <ele>434.445</ele>
        <time>2026-03-08T11:39:31.916Z</time>
      </trkpt>
      <trkpt lon="8.753933" lat="51.681422">
        <ele>409.912</ele>
        <time>2026-03-08T11:39:37.956Z</time>
      </trkpt>
      <trkpt lon="8.758085" lat="51.682587">
        <ele>388.836</ele>
        <time>2026-03-08T11:39:46.076Z</time>
      </trkpt>
      <trkpt lon="8.761232" lat="51.683596">
        <ele>367.844</ele>
        <time>2026-03-08T11:39:53.360Z</time>
      </trkpt>
      <trkpt lon="8.763743" lat="51.684436">
        <ele>346.886</ele>
        <time>2026-03-08T11:40:00.208Z</time>
      </trkpt>
      <trkpt lon="8.765420" lat="51.685027">
        <ele>326.631</ele>
        <time>2026-03-08T11:40:05.572Z</time>
      </trkpt>
      <trkpt lon="8.766861" lat="51.685551">
        <ele>307.637</ele>
        <time>2026-03-08T11:40:10.972Z</time>
      </trkpt>
      <trkpt lon="8.768322" lat="51.686063">
        <ele>289.727</ele>
        <time>2026-03-08T11:40:17.584Z</time>
      </trkpt>
      <trkpt lon="8.770315" lat="51.686702">
        <ele>272.885</ele>
        <time>2026-03-08T11:40:27.684Z</time>
      </trkpt>
      <trkpt lon="8.771724" lat="51.687189">
        <ele>264.68</ele>
        <time>2026-03-08T11:40:34.372Z</time>
      </trkpt>
      <trkpt lon="8.773052" lat="51.687689">
        <ele>255.129</ele>
        <time>2026-03-08T11:40:41.000Z</time>
      </trkpt>
      <trkpt lon="8.773339" lat="51.687782">
        <ele>253.257</ele>
        <time>2026-03-08T11:40:43.608Z</time>
      </trkpt>
      <trkpt lon="8.773560" lat="51.687815">
        <ele>252.239</ele>
        <time>2026-03-08T11:40:46.280Z</time>
      </trkpt>
      <trkpt lon="8.773923" lat="51.687912">
        <ele>249.806</ele>
        <time>2026-03-08T11:40:51.544Z</time>
      </trkpt>
      <trkpt lon="8.773990" lat="51.687936">
        <ele>250.198</ele>
        <time>2026-03-08T11:40:52.852Z</time>
      </trkpt>
      <trkpt lon="8.774053" lat="51.687952">
        <ele>250.345</ele>
        <time>2026-03-08T11:40:54.168Z</time>
      </trkpt>
      <trkpt lon="8.774117" lat="51.687958">
        <ele>249.715</ele>
        <time>2026-03-08T11:40:55.504Z</time>
      </trkpt>
      <trkpt lon="8.774207" lat="51.687958">
        <ele>248.619</ele>
        <time>2026-03-08T11:40:57.528Z</time>
      </trkpt>
      <trkpt lon="8.774236" lat="51.687960">
        <ele>248.538</ele>
        <time>2026-03-08T11:40:58.244Z</time>
      </trkpt>
      <trkpt lon="8.774261" lat="51.687961">
        <ele>248.63</ele>
        <time>2026-03-08T11:40:58.924Z</time>
      </trkpt>
      <trkpt lon="8.774284" lat="51.687962">
        <ele>248.782</ele>
        <time>2026-03-08T11:40:59.568Z</time>
      </trkpt>
      <trkpt lon="8.774305" lat="51.687959">
        <ele>248.934</ele>
        <time>2026-03-08T11:41:00.216Z</time>
      </trkpt>
      <trkpt lon="8.774345" lat="51.687940">
        <ele>249.056</ele>
        <time>2026-03-08T11:41:01.536Z</time>
      </trkpt>
      <trkpt lon="8.774529" lat="51.687742">
        <ele>249.061</ele>
        <time>2026-03-08T11:41:05.720Z</time>
      </trkpt>
      <trkpt lon="8.774682" lat="51.687601">
        <ele>248.297</ele>
        <time>2026-03-08T11:41:07.780Z</time>
      </trkpt>
      <trkpt lon="8.774825" lat="51.687485">
        <ele>248.381</ele>
        <time>2026-03-08T11:41:09.800Z</time>
      </trkpt>
      <trkpt lon="8.774915" lat="51.687438">
        <ele>246.564</ele>
        <time>2026-03-08T11:41:11.808Z</time>
      </trkpt>
      <trkpt lon="8.774935" lat="51.687432">
        <ele>245.897</ele>
        <time>2026-03-08T11:41:12.444Z</time>
      </trkpt>
      <trkpt lon="8.774935" lat="51.687401">
        <ele>246.156</ele>
        <time>2026-03-08T11:41:13.812Z</time>
      </trkpt>
      <trkpt lon="8.774929" lat="51.687382">
        <ele>245.9</ele>
        <time>2026-03-08T11:41:14.456Z</time>
      </trkpt>
      <trkpt lon="8.774926" lat="51.687366">
        <ele>245.612</ele>
        <time>2026-03-08T11:41:15.140Z</time>
      </trkpt>
      <trkpt lon="8.774926" lat="51.687357">
        <ele>245.496</ele>
        <time>2026-03-08T11:41:15.804Z</time>
      </trkpt>
      <trkpt lon="8.774968" lat="51.687374">
        <ele>244.268</ele>
        <time>2026-03-08T11:41:19.868Z</time>
      </trkpt>
    </trkseg>
    <trkseg>
      <trkpt lon="7.909460" lat="53.787555">
        <ele>2.03376</ele>
        <time>2026-03-08T10:07:19.868Z</time>
      </trkpt>
      <trkpt lon="7.909448" lat="53.787558">
        <ele>2.97874</ele>
        <time>2026-03-08T10:11:25.592Z</time>
      </trkpt>
      <trkpt lon="7.909434" lat="53.787552">
        <ele>3.10839</ele>
        <time>2026-03-08T10:11:26.936Z</time>
      </trkpt>
      <trkpt lon="7.909418" lat="53.787533">
        <ele>3.73985</ele>
        <time>2026-03-08T10:11:28.248Z</time>
      </trkpt>
      <trkpt lon="7.909410" lat="53.787499">
        <ele>3.33594</ele>
        <time>2026-03-08T10:11:29.584Z</time>
      </trkpt>
      <trkpt lon="7.909412" lat="53.787451">
        <ele>4.08454</ele>
        <time>2026-03-08T10:11:30.928Z</time>
      </trkpt>
      <trkpt lon="7.909444" lat="53.787312">
        <ele>4.28623</ele>
        <time>2026-03-08T10:11:33.580Z</time>
      </trkpt>
      <trkpt lon="7.909489" lat="53.787183">
        <ele>4.95152</ele>
        <time>2026-03-08T10:11:35.540Z</time>
      </trkpt>
      <trkpt lon="7.909567" lat="53.786970">
        <ele>4.82579</ele>
        <time>2026-03-08T10:11:38.236Z</time>
      </trkpt>
      <trkpt lon="7.909671" lat="53.786793">
        <ele>4.89357</ele>
        <time>2026-03-08T10:11:40.300Z</time>
      </trkpt>
      <trkpt lon="7.909799" lat="53.786621">
        <ele>5.45088</ele>
        <time>2026-03-08T10:11:42.288Z</time>
      </trkpt>
      <trkpt lon="7.909920" lat="53.786444">
        <ele>5.61679</ele>
        <time>2026-03-08T10:11:44.284Z</time>
      </trkpt>
      <trkpt lon="7.910420" lat="53.785664">
        <ele>4.13276</ele>
        <time>2026-03-08T10:11:54.380Z</time>
      </trkpt>
      <trkpt lon="7.910634" lat="53.785303">
        <ele>4.97033</ele>
        <time>2026-03-08T10:11:59.764Z</time>
      </trkpt>
      <trkpt lon="7.910746" lat="53.785136">
        <ele>6.39481</ele>
        <time>2026-03-08T10:12:01.836Z</time>
      </trkpt>
      <trkpt lon="7.911535" lat="53.783898">
        <ele>4.27259</ele>
        <time>2026-03-08T10:12:14.708Z</time>
      </trkpt>
      <trkpt lon="7.911584" lat="53.783800">
        <ele>3.93168</ele>
        <time>2026-03-08T10:12:16.736Z</time>
      </trkpt>
      <trkpt lon="7.911628" lat="53.783745">
        <ele>3.59814</ele>
        <time>2026-03-08T10:12:18.088Z</time>
      </trkpt>
      <trkpt lon="7.911719" lat="53.783685">
        <ele>4.70451</ele>
        <time>2026-03-08T10:12:20.084Z</time>
      </trkpt>
      <trkpt lon="7.911760" lat="53.783664">
        <ele>5.03077</ele>
        <time>2026-03-08T10:12:20.764Z</time>
      </trkpt>
      <trkpt lon="7.911916" lat="53.783600">
        <ele>4.37777</ele>
        <time>2026-03-08T10:12:22.800Z</time>
      </trkpt>
      <trkpt lon="7.912044" lat="53.783558">
        <ele>4.47385</ele>
        <time>2026-03-08T10:12:24.152Z</time>
      </trkpt>
      <trkpt lon="7.912712" lat="53.783465">
        <ele>4.34518</ele>
        <time>2026-03-08T10:12:29.604Z</time>
      </trkpt>
      <trkpt lon="7.912891" lat="53.783435">
        <ele>4.1381</ele>
        <time>2026-03-08T10:12:30.908Z</time>
      </trkpt>
      <trkpt lon="7.912974" lat="53.783409">
        <ele>4.31564</ele>
        <time>2026-03-08T10:12:31.572Z</time>
      </trkpt>
      <trkpt lon="7.913048" lat="53.783377">
        <ele>4.26673</ele>
        <time>2026-03-08T10:12:32.224Z</time>
      </trkpt>
      <trkpt lon="7.913110" lat="53.783336">
        <ele>4.11489</ele>
        <time>2026-03-08T10:12:32.888Z</time>
      </trkpt>
      <trkpt lon="7.913157" lat="53.783287">
        <ele>4.07228</ele>
        <time>2026-03-08T10:12:33.556Z</time>
      </trkpt>
      <trkpt lon="7.913187" lat="53.783231">
        <ele>4.07311</ele>
        <time>2026-03-08T10:12:34.240Z</time>
      </trkpt>
      <trkpt lon="7.913199" lat="53.783171">
        <ele>4.05824</ele>
        <time>2026-03-08T10:12:34.920Z</time>
      </trkpt>
      <trkpt lon="7.913201" lat="53.783043">
        <ele>3.20901</ele>
        <time>2026-03-08T10:12:36.248Z</time>
      </trkpt>
      <trkpt lon="7.913211" lat="53.782982">
        <ele>2.78721</ele>
        <time>2026-03-08T10:12:36.876Z</time>
      </trkpt>
      <trkpt lon="7.913243" lat="53.782921">
        <ele>3.13384</ele>
        <time>2026-03-08T10:12:37.568Z</time>
      </trkpt>
      <trkpt lon="7.913302" lat="53.782872">
        <ele>3.6339</ele>
        <time>2026-03-08T10:12:38.252Z</time>
      </trkpt>
      <trkpt lon="7.913500" lat="53.782821">
        <ele>3.78726</ele>
        <time>2026-03-08T10:12:39.604Z</time>
      </trkpt>
      <trkpt lon="7.913639" lat="53.782816">
        <ele>3.73215</ele>
        <time>2026-03-08T10:12:40.292Z</time>
      </trkpt>
      <trkpt lon="7.913794" lat="53.782817">
        <ele>4.19836</ele>
        <time>2026-03-08T10:12:40.960Z</time>
      </trkpt>
      <trkpt lon="7.914151" lat="53.782822">
        <ele>5.02604</ele>
        <time>2026-03-08T10:12:42.264Z</time>
      </trkpt>
      <trkpt lon="7.915067" lat="53.782783">
        <ele>4.37947</ele>
        <time>2026-03-08T10:12:44.932Z</time>
      </trkpt>
      <trkpt lon="7.916496" lat="53.782689">
        <ele>2.66909</ele>
        <time>2026-03-08T10:12:48.244Z</time>
      </trkpt>
      <trkpt lon="7.918940" lat="53.782567">
        <ele>2.0655</ele>
        <time>2026-03-08T10:12:52.964Z</time>
      </trkpt>
      <trkpt lon="7.921315" lat="53.782481">
        <ele>1.62266</ele>
        <time>2026-03-08T10:12:56.960Z</time>
      </trkpt>
      <trkpt lon="7.926730" lat="53.782280">
        <ele>18.4213</ele>
        <time>2026-03-08T10:13:05.036Z</time>
      </trkpt>
      <trkpt lon="7.933216" lat="53.782073">
        <ele>33.3195</ele>
        <time>2026-03-08T10:13:13.784Z</time>
      </trkpt>
      <trkpt lon="7.936897" lat="53.782097">
        <ele>53.0806</ele>
        <time>2026-03-08T10:13:18.428Z</time>
      </trkpt>
      <trkpt lon="7.943483" lat="53.782104">
        <ele>62.6611</ele>
        <time>2026-03-08T10:13:26.384Z</time>
      </trkpt>
      <trkpt lon="7.945788" lat="53.781906">
        <ele>62.2446</ele>
        <time>2026-03-08T10:13:29.040Z</time>
      </trkpt>
      <trkpt lon="7.947513" lat="53.781622">
        <ele>61.6626</ele>
        <time>2026-03-08T10:13:31.040Z</time>
      </trkpt>
      <trkpt lon="7.948674" lat="53.781347">
        <ele>61.6478</ele>
        <time>2026-03-08T10:13:32.416Z</time>
      </trkpt>
      <trkpt lon="7.950312" lat="53.780858">
        <ele>62.3234</ele>
        <time>2026-03-08T10:13:34.420Z</time>
      </trkpt>
      <trkpt lon="7.952398" lat="53.780086">
        <ele>66.0427</ele>
        <time>2026-03-08T10:13:37.100Z</time>
      </trkpt>
      <trkpt lon="7.954800" lat="53.778997">
        <ele>72.5279</ele>
        <time>2026-03-08T10:13:40.404Z</time>
      </trkpt>
      <trkpt lon="7.962033" lat="53.775465">
        <ele>78.631</ele>
        <time>2026-03-08T10:13:51.080Z</time>
      </trkpt>
      <trkpt lon="7.963984" lat="53.774748">
        <ele>77.9942</ele>
        <time>2026-03-08T10:13:53.708Z</time>
      </trkpt>
      <trkpt lon="7.965531" lat="53.774299">
        <ele>77.5564</ele>
        <time>2026-03-08T10:13:55.704Z</time>
      </trkpt>
      <trkpt lon="7.966638" lat="53.774075">
        <ele>78.1444</ele>
        <time>2026-03-08T10:13:57.056Z</time>
      </trkpt>
      <trkpt lon="7.967730" lat="53.773951">
        <ele>81.8302</ele>
        <time>2026-03-08T10:13:58.404Z</time>
      </trkpt>
      <trkpt lon="7.969422" lat="53.773923">
        <ele>87.5322</ele>
        <time>2026-03-08T10:14:00.400Z</time>
      </trkpt>
      <trkpt lon="7.971055" lat="53.774015">
        <ele>87.5833</ele>
        <time>2026-03-08T10:14:02.380Z</time>
      </trkpt>
      <trkpt lon="7.972159" lat="53.774150">
        <ele>86.4141</ele>
        <time>2026-03-08T10:14:03.720Z</time>
      </trkpt>
      <trkpt lon="7.973195" lat="53.774357">
        <ele>85.2553</ele>
        <time>2026-03-08T10:14:05.008Z</time>
      </trkpt>
      <trkpt lon="7.974202" lat="53.774650">
        <ele>84.6485</ele>
        <time>2026-03-08T10:14:06.340Z</time>
      </trkpt>
      <trkpt lon="7.975137" lat="53.775027">
        <ele>84.4279</ele>
        <time>2026-03-08T10:14:07.676Z</time>
      </trkpt>
      <trkpt lon="7.975974" lat="53.775488">
        <ele>85.8817</ele>
        <time>2026-03-08T10:14:09.016Z</time>
      </trkpt>
      <trkpt lon="7.976667" lat="53.775997">
        <ele>88.3943</ele>
        <time>2026-03-08T10:14:10.328Z</time>
      </trkpt>
      <trkpt lon="7.977238" lat="53.776556">
        <ele>90.9832</ele>
        <time>2026-03-08T10:14:11.624Z</time>
      </trkpt>
      <trkpt lon="7.977662" lat="53.777156">
        <ele>93.1552</ele>
        <time>2026-03-08T10:14:12.936Z</time>
      </trkpt>
      <trkpt lon="7.977918" lat="53.777794">
        <ele>94.8032</ele>
        <time>2026-03-08T10:14:14.248Z</time>
      </trkpt>
      <trkpt lon="7.977978" lat="53.778134">
        <ele>95.3768</ele>
        <time>2026-03-08T10:14:14.936Z</time>
      </trkpt>
      <trkpt lon="7.977947" lat="53.778777">
        <ele>95.7738</ele>
        <time>2026-03-08T10:14:16.232Z</time>
      </trkpt>
      <trkpt lon="7.977856" lat="53.779108">
        <ele>95.5309</ele>
        <time>2026-03-08T10:14:16.900Z</time>
      </trkpt>
      <trkpt lon="7.977711" lat="53.779436">
        <ele>94.9961</ele>
        <time>2026-03-08T10:14:17.564Z</time>
      </trkpt>
      <trkpt lon="7.977261" lat="53.780073">
        <ele>93.1447</ele>
        <time>2026-03-08T10:14:18.928Z</time>
      </trkpt>
      <trkpt lon="7.976956" lat="53.780376">
        <ele>91.7697</ele>
        <time>2026-03-08T10:14:19.600Z</time>
      </trkpt>
      <trkpt lon="7.976608" lat="53.780656">
        <ele>90.2203</ele>
        <time>2026-03-08T10:14:20.268Z</time>
      </trkpt>
      <trkpt lon="7.976228" lat="53.780911">
        <ele>88.5547</ele>
        <time>2026-03-08T10:14:20.912Z</time>
      </trkpt>
      <trkpt lon="7.975792" lat="53.781153">
        <ele>86.6582</ele>
        <time>2026-03-08T10:14:21.580Z</time>
      </trkpt>
      <trkpt lon="7.975298" lat="53.781381">
        <ele>84.5332</ele>
        <time>2026-03-08T10:14:22.268Z</time>
      </trkpt>
      <trkpt lon="7.974766" lat="53.781584">
        <ele>82.1399</ele>
        <time>2026-03-08T10:14:22.964Z</time>
      </trkpt>
      <trkpt lon="7.973676" lat="53.781910">
        <ele>77.0856</ele>
        <time>2026-03-08T10:14:24.268Z</time>
      </trkpt>
      <trkpt lon="7.971933" lat="53.782308">
        <ele>68.0327</ele>
        <time>2026-03-08T10:14:26.244Z</time>
      </trkpt>
      <trkpt lon="7.966986" lat="53.783292">
        <ele>48.6955</ele>
        <time>2026-03-08T10:14:31.580Z</time>
      </trkpt>
      <trkpt lon="7.956253" lat="53.785570">
        <ele>31.4239</ele>
        <time>2026-03-08T10:14:43.512Z</time>
      </trkpt>
      <trkpt lon="7.953279" lat="53.786004">
        <ele>17.557</ele>
        <time>2026-03-08T10:14:46.812Z</time>
      </trkpt>
      <trkpt lon="7.942242" lat="53.787281">
        <ele>6.28352</ele>
        <time>2026-03-08T10:14:59.416Z</time>
      </trkpt>
      <trkpt lon="7.939649" lat="53.787705">
        <ele>5.93063</ele>
        <time>2026-03-08T10:15:02.768Z</time>
      </trkpt>
      <trkpt lon="7.938271" lat="53.787940">
        <ele>7.06679</ele>
        <time>2026-03-08T10:15:04.796Z</time>
      </trkpt>
      <trkpt lon="7.937871" lat="53.788001">
        <ele>8.52326</ele>
        <time>2026-03-08T10:15:05.452Z</time>
      </trkpt>
      <trkpt lon="7.937485" lat="53.788054">
        <ele>10.6191</ele>
        <time>2026-03-08T10:15:06.132Z</time>
      </trkpt>
      <trkpt lon="7.937141" lat="53.788100">
        <ele>12.8192</ele>
        <time>2026-03-08T10:15:06.800Z</time>
      </trkpt>
      <trkpt lon="7.936823" lat="53.788138">
        <ele>14.8252</ele>
        <time>2026-03-08T10:15:07.472Z</time>
      </trkpt>
      <trkpt lon="7.936543" lat="53.788168">
        <ele>16.4828</ele>
        <time>2026-03-08T10:15:08.132Z</time>
      </trkpt>
      <trkpt lon="7.936312" lat="53.788188">
        <ele>17.5813</ele>
        <time>2026-03-08T10:15:08.848Z</time>
      </trkpt>
      <trkpt lon="7.936084" lat="53.788205">
        <ele>19.8226</ele>
        <time>2026-03-08T10:15:09.496Z</time>
      </trkpt>
      <trkpt lon="7.935936" lat="53.788216">
        <ele>22.6688</ele>
        <time>2026-03-08T10:15:10.140Z</time>
      </trkpt>
      <trkpt lon="7.935832" lat="53.788227">
        <ele>25.9916</ele>
        <time>2026-03-08T10:15:10.788Z</time>
      </trkpt>
      <trkpt lon="7.935771" lat="53.788241">
        <ele>29.5968</ele>
        <time>2026-03-08T10:15:11.456Z</time>
      </trkpt>
      <trkpt lon="7.935747" lat="53.788256">
        <ele>32.409</ele>
        <time>2026-03-08T10:15:12.124Z</time>
      </trkpt>
      <trkpt lon="7.935731" lat="53.788290">
        <ele>28.1503</ele>
        <time>2026-03-08T10:15:13.484Z</time>
      </trkpt>
      <trkpt lon="7.935751" lat="53.788306">
        <ele>23.4326</ele>
        <time>2026-03-08T10:15:14.152Z</time>
      </trkpt>
      <trkpt lon="7.935805" lat="53.788322">
        <ele>19.8153</ele>
        <time>2026-03-08T10:15:14.816Z</time>
      </trkpt>
      <trkpt lon="7.935896" lat="53.788335">
        <ele>18.6114</ele>
        <time>2026-03-08T10:15:15.480Z</time>
      </trkpt>
      <trkpt lon="7.936146" lat="53.788344">
        <ele>18.4501</ele>
        <time>2026-03-08T10:15:16.812Z</time>
      </trkpt>
      <trkpt lon="7.936748" lat="53.788271">
        <ele>11.2768</ele>
        <time>2026-03-08T10:15:19.460Z</time>
      </trkpt>
      <trkpt lon="7.937295" lat="53.788144">
        <ele>8.91179</ele>
        <time>2026-03-08T10:15:22.128Z</time>
      </trkpt>
      <trkpt lon="7.937495" lat="53.788092">
        <ele>8.27474</ele>
        <time>2026-03-08T10:15:23.464Z</time>
      </trkpt>
      <trkpt lon="7.937732" lat="53.788051">
        <ele>7.12857</ele>
        <time>2026-03-08T10:15:26.144Z</time>
      </trkpt>
      <trkpt lon="7.937840" lat="53.788100">
        <ele>8.50008</ele>
        <time>2026-03-08T10:15:29.500Z</time>
      </trkpt>
      <trkpt lon="7.937864" lat="53.788128">
        <ele>8.87998</ele>
        <time>2026-03-08T10:15:30.832Z</time>
      </trkpt>
      <trkpt lon="7.937875" lat="53.788140">
        <ele>8.72284</ele>
        <time>2026-03-08T10:15:31.456Z</time>
      </trkpt>
      <trkpt lon="7.937921" lat="53.788151">
        <ele>7.78617</ele>
        <time>2026-03-08T10:15:34.128Z</time>
      </trkpt>
      <trkpt lon="7.937988" lat="53.788096">
        <ele>6.53545</ele>
        <time>2026-03-08T10:15:40.816Z</time>
      </trkpt>
      <trkpt lon="7.938017" lat="53.788101">
        <ele>26.3419</ele>
        <time>2026-03-08T10:15:52.176Z</time>
      </trkpt>
      <trkpt lon="7.938059" lat="53.788086">
        <ele>38.4225</ele>
        <time>2026-03-08T10:15:53.532Z</time>
      </trkpt>
      <trkpt lon="7.938079" lat="53.788078">
        <ele>44.0026</ele>
        <time>2026-03-08T10:15:54.192Z</time>
      </trkpt>
      <trkpt lon="7.938094" lat="53.788070">
        <ele>49.38</ele>
        <time>2026-03-08T10:15:54.872Z</time>
      </trkpt>
      <trkpt lon="7.938100" lat="53.788064">
        <ele>54.3565</ele>
        <time>2026-03-08T10:15:55.528Z</time>
      </trkpt>
      <trkpt lon="7.938095" lat="53.788060">
        <ele>59.3646</ele>
        <time>2026-03-08T10:15:56.216Z</time>
      </trkpt>
      <trkpt lon="7.938055" lat="53.788062">
        <ele>70.007</ele>
        <time>2026-03-08T10:15:57.548Z</time>
      </trkpt>
      <trkpt lon="7.938028" lat="53.788065">
        <ele>76.6363</ele>
        <time>2026-03-08T10:15:58.200Z</time>
      </trkpt>
      <trkpt lon="7.938000" lat="53.788068">
        <ele>84.4292</ele>
        <time>2026-03-08T10:15:58.884Z</time>
      </trkpt>
      <trkpt lon="7.937930" lat="53.788066">
        <ele>109.091</ele>
        <time>2026-03-08T10:16:00.884Z</time>
      </trkpt>
      <trkpt lon="7.937865" lat="53.788073">
        <ele>134.602</ele>
        <time>2026-03-08T10:16:02.896Z</time>
      </trkpt>
      <trkpt lon="7.937801" lat="53.788090">
        <ele>159.13</ele>
        <time>2026-03-08T10:16:04.876Z</time>
      </trkpt>
      <trkpt lon="7.937735" lat="53.788103">
        <ele>183.577</ele>
        <time>2026-03-08T10:16:06.872Z</time>
      </trkpt>
      <trkpt lon="7.937651" lat="53.788098">
        <ele>215.607</ele>
        <time>2026-03-08T10:16:09.540Z</time>
      </trkpt>
      <trkpt lon="7.937565" lat="53.788089">
        <ele>249.395</ele>
        <time>2026-03-08T10:16:12.232Z</time>
      </trkpt>
      <trkpt lon="7.937429" lat="53.788100">
        <ele>283.043</ele>
        <time>2026-03-08T10:16:14.900Z</time>
      </trkpt>
      <trkpt lon="7.937238" lat="53.788111">
        <ele>316.111</ele>
        <time>2026-03-08T10:16:17.564Z</time>
      </trkpt>
      <trkpt lon="7.937086" lat="53.788127">
        <ele>339.888</ele>
        <time>2026-03-08T10:16:19.540Z</time>
      </trkpt>
      <trkpt lon="7.936900" lat="53.788156">
        <ele>378.873</ele>
        <time>2026-03-08T10:16:22.828Z</time>
      </trkpt>
      <trkpt lon="7.936836" lat="53.788164">
        <ele>418.693</ele>
        <time>2026-03-08T10:16:26.164Z</time>
      </trkpt>
      <trkpt lon="7.936845" lat="53.788169">
        <ele>443.081</ele>
        <time>2026-03-08T10:16:28.172Z</time>
      </trkpt>
      <trkpt lon="7.936895" lat="53.788195">
        <ele>479.933</ele>
        <time>2026-03-08T10:16:31.476Z</time>
      </trkpt>
      <trkpt lon="7.936951" lat="53.788246">
        <ele>516.073</ele>
        <time>2026-03-08T10:16:34.816Z</time>
      </trkpt>
      <trkpt lon="7.937041" lat="53.788309">
        <ele>559.389</ele>
        <time>2026-03-08T10:16:38.772Z</time>
      </trkpt>
      <trkpt lon="7.937179" lat="53.788389">
        <ele>602.128</ele>
        <time>2026-03-08T10:16:43.400Z</time>
      </trkpt>
      <trkpt lon="7.938830" lat="53.789079">
        <ele>619.334</ele>
        <time>2026-03-08T10:17:09.948Z</time>
      </trkpt>
      <trkpt lon="7.939548" lat="53.788744">
        <ele>620.818</ele>
        <time>2026-03-08T10:17:15.992Z</time>
      </trkpt>
      <trkpt lon="7.939705" lat="53.788645">
        <ele>620.653</ele>
        <time>2026-03-08T10:17:17.328Z</time>
      </trkpt>
      <trkpt lon="7.940683" lat="53.787654">
        <ele>603.239</ele>
        <time>2026-03-08T10:17:29.304Z</time>
      </trkpt>
      <trkpt lon="7.941768" lat="53.788150">
        <ele>562.504</ele>
        <time>2026-03-08T10:17:44.712Z</time>
      </trkpt>
      <trkpt lon="7.941829" lat="53.788352">
        <ele>539.412</ele>
        <time>2026-03-08T10:17:47.320Z</time>
      </trkpt>
      <trkpt lon="7.941836" lat="53.788403">
        <ele>529.627</ele>
        <time>2026-03-08T10:17:48.064Z</time>
      </trkpt>
      <trkpt lon="7.941822" lat="53.788567">
        <ele>491.58</ele>
        <time>2026-03-08T10:17:50.724Z</time>
      </trkpt>
      <trkpt lon="7.941778" lat="53.788699">
        <ele>451.602</ele>
        <time>2026-03-08T10:17:53.368Z</time>
      </trkpt>
      <trkpt lon="7.941718" lat="53.788805">
        <ele>410.661</ele>
        <time>2026-03-08T10:17:56.036Z</time>
      </trkpt>
      <trkpt lon="7.941677" lat="53.788884">
        <ele>371.43</ele>
        <time>2026-03-08T10:17:58.684Z</time>
      </trkpt>
      <trkpt lon="7.941655" lat="53.788931">
        <ele>333.499</ele>
        <time>2026-03-08T10:18:01.324Z</time>
      </trkpt>
      <trkpt lon="7.941637" lat="53.788946">
        <ele>296.496</ele>
        <time>2026-03-08T10:18:04.016Z</time>
      </trkpt>
      <trkpt lon="7.941635" lat="53.788945">
        <ele>287.75</ele>
        <time>2026-03-08T10:18:04.660Z</time>
      </trkpt>
      <trkpt lon="7.941633" lat="53.788944">
        <ele>278.925</ele>
        <time>2026-03-08T10:18:05.328Z</time>
      </trkpt>
      <trkpt lon="7.941624" lat="53.788940">
        <ele>261.15</ele>
        <time>2026-03-08T10:18:06.660Z</time>
      </trkpt>
      <trkpt lon="7.941606" lat="53.788937">
        <ele>233.939</ele>
        <time>2026-03-08T10:18:08.684Z</time>
      </trkpt>
      <trkpt lon="7.941599" lat="53.788938">
        <ele>207.691</ele>
        <time>2026-03-08T10:18:10.668Z</time>
      </trkpt>
      <trkpt lon="7.941600" lat="53.788945">
        <ele>188.936</ele>
        <time>2026-03-08T10:18:12.004Z</time>
      </trkpt>
      <trkpt lon="7.941586" lat="53.788971">
        <ele>160.289</ele>
        <time>2026-03-08T10:18:13.968Z</time>
      </trkpt>
      <trkpt lon="7.941533" lat="53.788999">
        <ele>130.475</ele>
        <time>2026-03-08T10:18:15.968Z</time>
      </trkpt>
      <trkpt lon="7.941412" lat="53.788993">
        <ele>102.856</ele>
        <time>2026-03-08T10:18:17.944Z</time>
      </trkpt>
      <trkpt lon="7.941289" lat="53.788954">
        <ele>86.2814</ele>
        <time>2026-03-08T10:18:19.280Z</time>
      </trkpt>
      <trkpt lon="7.941215" lat="53.788922">
        <ele>79.0724</ele>
        <time>2026-03-08T10:18:19.944Z</time>
      </trkpt>
      <trkpt lon="7.941132" lat="53.788885">
        <ele>72.5571</ele>
        <time>2026-03-08T10:18:20.612Z</time>
      </trkpt>
      <trkpt lon="7.940620" lat="53.788600">
        <ele>53.7649</ele>
        <time>2026-03-08T10:18:23.876Z</time>
      </trkpt>
      <trkpt lon="7.940222" lat="53.788405">
        <ele>43.3857</ele>
        <time>2026-03-08T10:18:25.916Z</time>
      </trkpt>
      <trkpt lon="7.939946" lat="53.788279">
        <ele>38.3595</ele>
        <time>2026-03-08T10:18:27.268Z</time>
      </trkpt>
      <trkpt lon="7.939809" lat="53.788220">
        <ele>36.8065</ele>
        <time>2026-03-08T10:18:27.936Z</time>
      </trkpt>
      <trkpt lon="7.939410" lat="53.788065">
        <ele>36.8478</ele>
        <time>2026-03-08T10:18:29.960Z</time>
      </trkpt>
      <trkpt lon="7.938877" lat="53.787911">
        <ele>26.5093</ele>
        <time>2026-03-08T10:18:33.228Z</time>
      </trkpt>
      <trkpt lon="7.938729" lat="53.787879">
        <ele>22.2225</ele>
        <time>2026-03-08T10:18:34.584Z</time>
      </trkpt>
      <trkpt lon="7.938611" lat="53.787850">
        <ele>18.3992</ele>
        <time>2026-03-08T10:18:37.232Z</time>
      </trkpt>
      <trkpt lon="7.938646" lat="53.787886">
        <ele>18.0873</ele>
        <time>2026-03-08T10:18:41.252Z</time>
      </trkpt>
      <trkpt lon="7.938633" lat="53.787916">
        <ele>14.9507</ele>
        <time>2026-03-08T10:18:43.252Z</time>
      </trkpt>
      <trkpt lon="7.938603" lat="53.787930">
        <ele>13.4895</ele>
        <time>2026-03-08T10:18:44.612Z</time>
      </trkpt>
      <trkpt lon="7.938556" lat="53.787949">
        <ele>11.9511</ele>
        <time>2026-03-08T10:18:47.276Z</time>
      </trkpt>
      <trkpt lon="7.938628" lat="53.788038">
        <ele>7.65952</ele>
        <time>2026-03-08T10:18:56.648Z</time>
      </trkpt>
      <trkpt lon="7.938600" lat="53.788030">
        <ele>6.6989</ele>
        <time>2026-03-08T10:18:58.084Z</time>
      </trkpt>
      <trkpt lon="7.938514" lat="53.788007">
        <ele>6.42066</ele>
        <time>2026-03-08T10:19:00.736Z</time>
      </trkpt>
      <trkpt lon="7.938377" lat="53.787993">
        <ele>6.43074</ele>
        <time>2026-03-08T10:19:06.048Z</time>
      </trkpt>
      <trkpt lon="7.938322" lat="53.788009">
        <ele>7.8998</ele>
        <time>2026-03-08T10:19:10.036Z</time>
      </trkpt>
      <trkpt lon="7.938275" lat="53.787980">
        <ele>7.90203</ele>
        <time>2026-03-08T10:19:14.020Z</time>
      </trkpt>
      <trkpt lon="7.938102" lat="53.787921">
        <ele>6.2416</ele>
        <time>2026-03-08T10:19:25.352Z</time>
      </trkpt>
      <trkpt lon="7.938072" lat="53.787882">
        <ele>6.6877</ele>
        <time>2026-03-08T10:19:27.328Z</time>
      </trkpt>
      <trkpt lon="7.938061" lat="53.787867">
        <ele>6.93529</ele>
        <time>2026-03-08T10:19:27.996Z</time>
      </trkpt>
      <trkpt lon="7.938050" lat="53.787854">
        <ele>7.15978</ele>
        <time>2026-03-08T10:19:28.640Z</time>
      </trkpt>
      <trkpt lon="7.938036" lat="53.787840">
        <ele>7.37484</ele>
        <time>2026-03-08T10:19:29.308Z</time>
      </trkpt>
      <trkpt lon="7.938020" lat="53.787827">
        <ele>7.55776</ele>
        <time>2026-03-08T10:19:30.000Z</time>
      </trkpt>
      <trkpt lon="7.938004" lat="53.787817">
        <ele>7.70825</ele>
        <time>2026-03-08T10:19:30.640Z</time>
      </trkpt>
      <trkpt lon="7.937985" lat="53.787808">
        <ele>7.82663</ele>
        <time>2026-03-08T10:19:31.296Z</time>
      </trkpt>
      <trkpt lon="7.937965" lat="53.787801">
        <ele>7.89269</ele>
        <time>2026-03-08T10:19:31.956Z</time>
      </trkpt>
      <trkpt lon="7.937854" lat="53.787795">
        <ele>7.60975</ele>
        <time>2026-03-08T10:19:34.576Z</time>
      </trkpt>
      <trkpt lon="7.937818" lat="53.787794">
        <ele>7.39214</ele>
        <time>2026-03-08T10:19:35.264Z</time>
      </trkpt>
      <trkpt lon="7.937780" lat="53.787793">
        <ele>7.15081</ele>
        <time>2026-03-08T10:19:35.928Z</time>
      </trkpt>
      <trkpt lon="7.937742" lat="53.787788">
        <ele>6.90403</ele>
        <time>2026-03-08T10:19:36.596Z</time>
      </trkpt>
      <trkpt lon="7.937705" lat="53.787781">
        <ele>6.6593</ele>
        <time>2026-03-08T10:19:37.260Z</time>
      </trkpt>
      <trkpt lon="7.937671" lat="53.787771">
        <ele>6.39899</ele>
        <time>2026-03-08T10:19:37.928Z</time>
      </trkpt>
      <trkpt lon="7.937641" lat="53.787759">
        <ele>6.16319</ele>
        <time>2026-03-08T10:19:38.596Z</time>
      </trkpt>
      <trkpt lon="7.937619" lat="53.787748">
        <ele>6.02953</ele>
        <time>2026-03-08T10:19:39.264Z</time>
      </trkpt>
      <trkpt lon="7.937604" lat="53.787739">
        <ele>5.95941</ele>
        <time>2026-03-08T10:19:39.932Z</time>
      </trkpt>
      <trkpt lon="7.937631" lat="53.787757">
        <ele>5.21704</ele>
        <time>2026-03-08T10:19:43.288Z</time>
      </trkpt>
      <trkpt lon="7.937709" lat="53.787807">
        <ele>4.45999</ele>
        <time>2026-03-08T10:19:50.044Z</time>
      </trkpt>
      <trkpt lon="7.937688" lat="53.787788">
        <ele>4.00577</ele>
        <time>2026-03-08T10:19:52.712Z</time>
      </trkpt>
      <trkpt lon="7.937641" lat="53.787794">
        <ele>3.90798</ele>
        <time>2026-03-08T10:19:56.752Z</time>
      </trkpt>
      <trkpt lon="7.937548" lat="53.787844">
        <ele>3.70018</ele>
        <time>2026-03-08T10:20:02.696Z</time>
      </trkpt>
      <trkpt lon="7.937627" lat="53.787802">
        <ele>3.37954</ele>
        <time>2026-03-08T10:20:07.372Z</time>
      </trkpt>
      <trkpt lon="7.937644" lat="53.787766">
        <ele>3.4232</ele>
        <time>2026-03-08T10:20:08.704Z</time>
      </trkpt>
      <trkpt lon="7.937650" lat="53.787749">
        <ele>3.54186</ele>
        <time>2026-03-08T10:20:09.328Z</time>
      </trkpt>
      <trkpt lon="7.937658" lat="53.787718">
        <ele>3.62917</ele>
        <time>2026-03-08T10:20:10.644Z</time>
      </trkpt>
      <trkpt lon="7.937664" lat="53.787692">
        <ele>3.48573</ele>
        <time>2026-03-08T10:20:11.976Z</time>
      </trkpt>
      <trkpt lon="7.937671" lat="53.787672">
        <ele>3.16031</ele>
        <time>2026-03-08T10:20:13.308Z</time>
      </trkpt>
      <trkpt lon="7.937683" lat="53.787643">
        <ele>1.84224</ele>
        <time>2026-03-08T10:20:15.980Z</time>
      </trkpt>
      <trkpt lon="7.937689" lat="53.787668">
        <ele>4.079</ele>
        <time>2026-03-08T10:21:23.088Z</time>
      </trkpt>
      <trkpt lon="7.937726" lat="53.787754">
        <ele>6.09112</ele>
        <time>2026-03-08T10:21:25.104Z</time>
      </trkpt>
      <trkpt lon="7.937736" lat="53.787796">
        <ele>5.23666</ele>
        <time>2026-03-08T10:21:25.764Z</time>
      </trkpt>
      <trkpt lon="7.937735" lat="53.787846">
        <ele>4.64255</ele>
        <time>2026-03-08T10:21:26.468Z</time>
      </trkpt>
      <trkpt lon="7.937715" lat="53.787896">
        <ele>4.93451</ele>
        <time>2026-03-08T10:21:27.124Z</time>
      </trkpt>
      <trkpt lon="7.937679" lat="53.787943">
        <ele>5.61512</ele>
        <time>2026-03-08T10:21:27.748Z</time>
      </trkpt>
      <trkpt lon="7.937467" lat="53.788091">
        <ele>7.91668</ele>
        <time>2026-03-08T10:21:29.748Z</time>
      </trkpt>
      <trkpt lon="7.937375" lat="53.788134">
        <ele>7.61976</ele>
        <time>2026-03-08T10:21:30.400Z</time>
      </trkpt>
      <trkpt lon="7.937263" lat="53.788173">
        <ele>7.23614</ele>
        <time>2026-03-08T10:21:31.084Z</time>
      </trkpt>
      <trkpt lon="7.937141" lat="53.788203">
        <ele>6.81937</ele>
        <time>2026-03-08T10:21:31.780Z</time>
      </trkpt>
      <trkpt lon="7.937012" lat="53.788224">
        <ele>6.09724</ele>
        <time>2026-03-08T10:21:32.464Z</time>
      </trkpt>
      <trkpt lon="7.936884" lat="53.788235">
        <ele>5.05502</ele>
        <time>2026-03-08T10:21:33.136Z</time>
      </trkpt>
      <trkpt lon="7.936761" lat="53.788234">
        <ele>4.04844</ele>
        <time>2026-03-08T10:21:33.800Z</time>
      </trkpt>
      <trkpt lon="7.936639" lat="53.788221">
        <ele>3.29702</ele>
        <time>2026-03-08T10:21:34.464Z</time>
      </trkpt>
      <trkpt lon="7.936529" lat="53.788198">
        <ele>3.10014</ele>
        <time>2026-03-08T10:21:35.156Z</time>
      </trkpt>
      <trkpt lon="7.936440" lat="53.788167">
        <ele>3.21437</ele>
        <time>2026-03-08T10:21:35.796Z</time>
      </trkpt>
      <trkpt lon="7.936370" lat="53.788131">
        <ele>3.49766</ele>
        <time>2026-03-08T10:21:36.436Z</time>
      </trkpt>
      <trkpt lon="7.936322" lat="53.788089">
        <ele>3.84657</ele>
        <time>2026-03-08T10:21:37.104Z</time>
      </trkpt>
      <trkpt lon="7.936298" lat="53.788047">
        <ele>4.15829</ele>
        <time>2026-03-08T10:21:37.768Z</time>
      </trkpt>
      <trkpt lon="7.936300" lat="53.788008">
        <ele>4.41938</ele>
        <time>2026-03-08T10:21:38.448Z</time>
      </trkpt>
      <trkpt lon="7.936324" lat="53.787976">
        <ele>4.6868</ele>
        <time>2026-03-08T10:21:39.112Z</time>
      </trkpt>
      <trkpt lon="7.936367" lat="53.787952">
        <ele>5.00769</ele>
        <time>2026-03-08T10:21:39.756Z</time>
      </trkpt>
      <trkpt lon="7.936425" lat="53.787933">
        <ele>5.43603</ele>
        <time>2026-03-08T10:21:40.424Z</time>
      </trkpt>
      <trkpt lon="7.936496" lat="53.787922">
        <ele>5.64083</ele>
        <time>2026-03-08T10:21:41.092Z</time>
      </trkpt>
      <trkpt lon="7.937085" lat="53.787855">
        <ele>4.72247</ele>
        <time>2026-03-08T10:21:45.760Z</time>
      </trkpt>
      <trkpt lon="7.937293" lat="53.787799">
        <ele>3.17495</ele>
        <time>2026-03-08T10:21:48.416Z</time>
      </trkpt>
      <trkpt lon="7.937392" lat="53.787781">
        <ele>3.49325</ele>
        <time>2026-03-08T10:21:52.416Z</time>
      </trkpt>
      <trkpt lon="7.937518" lat="53.787752">
        <ele>4.23564</ele>
        <time>2026-03-08T10:21:59.772Z</time>
      </trkpt>
      <trkpt lon="7.937545" lat="53.787752">
        <ele>4.32669</ele>
        <time>2026-03-08T10:22:00.440Z</time>
      </trkpt>
      <trkpt lon="7.937573" lat="53.787751">
        <ele>4.33719</ele>
        <time>2026-03-08T10:22:01.104Z</time>
      </trkpt>
      <trkpt lon="7.937600" lat="53.787749">
        <ele>4.29215</ele>
        <time>2026-03-08T10:22:01.756Z</time>
      </trkpt>
      <trkpt lon="7.937627" lat="53.787747">
        <ele>4.28594</ele>
        <time>2026-03-08T10:22:02.420Z</time>
      </trkpt>
      <trkpt lon="7.937675" lat="53.787737">
        <ele>4.65</ele>
        <time>2026-03-08T10:22:03.756Z</time>
      </trkpt>
      <trkpt lon="7.937698" lat="53.787730">
        <ele>4.68203</ele>
        <time>2026-03-08T10:22:04.432Z</time>
      </trkpt>
      <trkpt lon="7.937717" lat="53.787721">
        <ele>4.58298</ele>
        <time>2026-03-08T10:22:05.096Z</time>
      </trkpt>
      <trkpt lon="7.937734" lat="53.787710">
        <ele>4.62471</ele>
        <time>2026-03-08T10:22:05.764Z</time>
      </trkpt>
      <trkpt lon="7.937750" lat="53.787698">
        <ele>4.65169</ele>
        <time>2026-03-08T10:22:06.456Z</time>
      </trkpt>
      <trkpt lon="7.937775" lat="53.787675">
        <ele>4.25406</ele>
        <time>2026-03-08T10:22:07.764Z</time>
      </trkpt>
      <trkpt lon="7.937839" lat="53.787629">
        <ele>5.25458</ele>
        <time>2026-03-08T10:22:11.784Z</time>
      </trkpt>
      <trkpt lon="7.937848" lat="53.787585">
        <ele>5.60761</ele>
        <time>2026-03-08T10:22:15.776Z</time>
      </trkpt>
      <trkpt lon="7.937851" lat="53.787572">
        <ele>5.81892</ele>
        <time>2026-03-08T10:22:16.416Z</time>
      </trkpt>
      <trkpt lon="7.937857" lat="53.787559">
        <ele>6.32131</ele>
        <time>2026-03-08T10:22:17.084Z</time>
      </trkpt>
      <trkpt lon="7.937866" lat="53.787547">
        <ele>7.02064</ele>
        <time>2026-03-08T10:22:17.772Z</time>
      </trkpt>
      <trkpt lon="7.937880" lat="53.787538">
        <ele>7.79597</ele>
        <time>2026-03-08T10:22:18.428Z</time>
      </trkpt>
      <trkpt lon="7.937897" lat="53.787532">
        <ele>8.70862</ele>
        <time>2026-03-08T10:22:19.084Z</time>
      </trkpt>
      <trkpt lon="7.937918" lat="53.787530">
        <ele>9.71628</ele>
        <time>2026-03-08T10:22:19.752Z</time>
      </trkpt>
      <trkpt lon="7.937941" lat="53.787534">
        <ele>10.7418</ele>
        <time>2026-03-08T10:22:20.420Z</time>
      </trkpt>
      <trkpt lon="7.937967" lat="53.787542">
        <ele>11.8143</ele>
        <time>2026-03-08T10:22:21.084Z</time>
      </trkpt>
      <trkpt lon="7.937991" lat="53.787553">
        <ele>13.0441</ele>
        <time>2026-03-08T10:22:21.752Z</time>
      </trkpt>
      <trkpt lon="7.938014" lat="53.787567">
        <ele>15.345</ele>
        <time>2026-03-08T10:22:22.420Z</time>
      </trkpt>
      <trkpt lon="7.938041" lat="53.787586">
        <ele>19.2591</ele>
        <time>2026-03-08T10:22:23.108Z</time>
      </trkpt>
      <trkpt lon="7.938074" lat="53.787611">
        <ele>23.9231</ele>
        <time>2026-03-08T10:22:23.776Z</time>
      </trkpt>
      <trkpt lon="7.938109" lat="53.787644">
        <ele>29.1564</ele>
        <time>2026-03-08T10:22:24.444Z</time>
      </trkpt>
      <trkpt lon="7.938144" lat="53.787686">
        <ele>34.8523</ele>
        <time>2026-03-08T10:22:25.112Z</time>
      </trkpt>
      <trkpt lon="7.938263" lat="53.787867">
        <ele>52.5717</ele>
        <time>2026-03-08T10:22:27.120Z</time>
      </trkpt>
      <trkpt lon="7.938349" lat="53.788030">
        <ele>66.0135</ele>
        <time>2026-03-08T10:22:28.408Z</time>
      </trkpt>
      <trkpt lon="7.938462" lat="53.788323">
        <ele>91.6403</ele>
        <time>2026-03-08T10:22:30.420Z</time>
      </trkpt>
      <trkpt lon="7.938554" lat="53.788633">
        <ele>119.561</ele>
        <time>2026-03-08T10:22:32.428Z</time>
      </trkpt>
      <trkpt lon="7.938583" lat="53.788740">
        <ele>128.818</ele>
        <time>2026-03-08T10:22:33.092Z</time>
      </trkpt>
      <trkpt lon="7.938612" lat="53.788851">
        <ele>138.069</ele>
        <time>2026-03-08T10:22:33.760Z</time>
      </trkpt>
      <trkpt lon="7.938629" lat="53.788960">
        <ele>147.076</ele>
        <time>2026-03-08T10:22:34.424Z</time>
      </trkpt>
      <trkpt lon="7.938632" lat="53.789066">
        <ele>156.342</ele>
        <time>2026-03-08T10:22:35.104Z</time>
      </trkpt>
      <trkpt lon="7.938621" lat="53.789166">
        <ele>165.91</ele>
        <time>2026-03-08T10:22:35.772Z</time>
      </trkpt>
      <trkpt lon="7.938593" lat="53.789257">
        <ele>176.038</ele>
        <time>2026-03-08T10:22:36.448Z</time>
      </trkpt>
      <trkpt lon="7.938559" lat="53.789329">
        <ele>184.743</ele>
        <time>2026-03-08T10:22:37.092Z</time>
      </trkpt>
      <trkpt lon="7.938517" lat="53.789394">
        <ele>193.601</ele>
        <time>2026-03-08T10:22:37.760Z</time>
      </trkpt>
      <trkpt lon="7.938470" lat="53.789447">
        <ele>202.263</ele>
        <time>2026-03-08T10:22:38.452Z</time>
      </trkpt>
      <trkpt lon="7.938367" lat="53.789506">
        <ele>217.799</ele>
        <time>2026-03-08T10:22:39.784Z</time>
      </trkpt>
      <trkpt lon="7.938235" lat="53.789513">
        <ele>231.805</ele>
        <time>2026-03-08T10:22:41.128Z</time>
      </trkpt>
      <trkpt lon="7.938152" lat="53.789499">
        <ele>238.218</ele>
        <time>2026-03-08T10:22:41.788Z</time>
      </trkpt>
      <trkpt lon="7.938056" lat="53.789476">
        <ele>244.331</ele>
        <time>2026-03-08T10:22:42.456Z</time>
      </trkpt>
      <trkpt lon="7.937944" lat="53.789441">
        <ele>250.458</ele>
        <time>2026-03-08T10:22:43.144Z</time>
      </trkpt>
      <trkpt lon="7.937831" lat="53.789396">
        <ele>255.819</ele>
        <time>2026-03-08T10:22:43.812Z</time>
      </trkpt>
      <trkpt lon="7.937729" lat="53.789342">
        <ele>259.749</ele>
        <time>2026-03-08T10:22:44.460Z</time>
      </trkpt>
      <trkpt lon="7.937544" lat="53.789200">
        <ele>269.581</ele>
        <time>2026-03-08T10:22:45.812Z</time>
      </trkpt>
      <trkpt lon="7.937315" lat="53.788851">
        <ele>290.94</ele>
        <time>2026-03-08T10:22:48.504Z</time>
      </trkpt>
      <trkpt lon="7.937286" lat="53.788756">
        <ele>296.529</ele>
        <time>2026-03-08T10:22:49.172Z</time>
      </trkpt>
      <trkpt lon="7.937274" lat="53.788661">
        <ele>302.566</ele>
        <time>2026-03-08T10:22:49.840Z</time>
      </trkpt>
      <trkpt lon="7.937283" lat="53.788574">
        <ele>309.204</ele>
        <time>2026-03-08T10:22:50.528Z</time>
      </trkpt>
      <trkpt lon="7.937362" lat="53.788439">
        <ele>324.4</ele>
        <time>2026-03-08T10:22:51.860Z</time>
      </trkpt>
      <trkpt lon="7.937428" lat="53.788396">
        <ele>333.065</ele>
        <time>2026-03-08T10:22:52.528Z</time>
      </trkpt>
      <trkpt lon="7.937507" lat="53.788366">
        <ele>341.913</ele>
        <time>2026-03-08T10:22:53.192Z</time>
      </trkpt>
      <trkpt lon="7.937967" lat="53.788317">
        <ele>374.189</ele>
        <time>2026-03-08T10:22:56.528Z</time>
      </trkpt>
      <trkpt lon="7.938053" lat="53.788312">
        <ele>378.618</ele>
        <time>2026-03-08T10:22:57.196Z</time>
      </trkpt>
      <trkpt lon="7.938133" lat="53.788309">
        <ele>383.403</ele>
        <time>2026-03-08T10:22:57.864Z</time>
      </trkpt>
      <trkpt lon="7.938207" lat="53.788309">
        <ele>388.92</ele>
        <time>2026-03-08T10:22:58.544Z</time>
      </trkpt>
      <trkpt lon="7.938392" lat="53.788333">
        <ele>403.051</ele>
        <time>2026-03-08T10:23:00.568Z</time>
      </trkpt>
      <trkpt lon="7.938510" lat="53.788350">
        <ele>406.969</ele>
        <time>2026-03-08T10:23:01.876Z</time>
      </trkpt>
      <trkpt lon="7.938578" lat="53.788358">
        <ele>407.873</ele>
        <time>2026-03-08T10:23:02.568Z</time>
      </trkpt>
      <trkpt lon="7.938716" lat="53.788379">
        <ele>409.012</ele>
        <time>2026-03-08T10:23:03.860Z</time>
      </trkpt>
      <trkpt lon="7.938786" lat="53.788394">
        <ele>409.834</ele>
        <time>2026-03-08T10:23:04.504Z</time>
      </trkpt>
      <trkpt lon="7.938858" lat="53.788416">
        <ele>411.122</ele>
        <time>2026-03-08T10:23:05.196Z</time>
      </trkpt>
      <trkpt lon="7.938917" lat="53.788445">
        <ele>412.727</ele>
        <time>2026-03-08T10:23:05.864Z</time>
      </trkpt>
      <trkpt lon="7.938961" lat="53.788481">
        <ele>414.586</ele>
        <time>2026-03-08T10:23:06.532Z</time>
      </trkpt>
      <trkpt lon="7.938987" lat="53.788523">
        <ele>416.454</ele>
        <time>2026-03-08T10:23:07.196Z</time>
      </trkpt>
      <trkpt lon="7.938997" lat="53.788569">
        <ele>418.21</ele>
        <time>2026-03-08T10:23:07.888Z</time>
      </trkpt>
      <trkpt lon="7.938987" lat="53.788617">
        <ele>419.698</ele>
        <time>2026-03-08T10:23:08.552Z</time>
      </trkpt>
      <trkpt lon="7.938962" lat="53.788667">
        <ele>420.828</ele>
        <time>2026-03-08T10:23:09.220Z</time>
      </trkpt>
      <trkpt lon="7.938924" lat="53.788723">
        <ele>421.61</ele>
        <time>2026-03-08T10:23:09.908Z</time>
      </trkpt>
      <trkpt lon="7.938878" lat="53.788780">
        <ele>422.204</ele>
        <time>2026-03-08T10:23:10.552Z</time>
      </trkpt>
      <trkpt lon="7.938812" lat="53.788847">
        <ele>423.581</ele>
        <time>2026-03-08T10:23:11.216Z</time>
      </trkpt>
      <trkpt lon="7.938732" lat="53.788918">
        <ele>425.125</ele>
        <time>2026-03-08T10:23:11.856Z</time>
      </trkpt>
      <trkpt lon="7.938628" lat="53.789000">
        <ele>426.977</ele>
        <time>2026-03-08T10:23:12.548Z</time>
      </trkpt>
      <trkpt lon="7.938507" lat="53.789084">
        <ele>429.608</ele>
        <time>2026-03-08T10:23:13.212Z</time>
      </trkpt>
      <trkpt lon="7.938372" lat="53.789166">
        <ele>432.949</ele>
        <time>2026-03-08T10:23:13.860Z</time>
      </trkpt>
      <trkpt lon="7.938215" lat="53.789249">
        <ele>437.324</ele>
        <time>2026-03-08T10:23:14.540Z</time>
      </trkpt>
      <trkpt lon="7.937904" lat="53.789408">
        <ele>448.546</ele>
        <time>2026-03-08T10:23:15.876Z</time>
      </trkpt>
      <trkpt lon="7.937751" lat="53.789487">
        <ele>455.088</ele>
        <time>2026-03-08T10:23:16.540Z</time>
      </trkpt>
      <trkpt lon="7.937607" lat="53.789561">
        <ele>461.78</ele>
        <time>2026-03-08T10:23:17.192Z</time>
      </trkpt>
      <trkpt lon="7.937464" lat="53.789640">
        <ele>468.859</ele>
        <time>2026-03-08T10:23:17.852Z</time>
      </trkpt>
      <trkpt lon="7.937326" lat="53.789717">
        <ele>475.832</ele>
        <time>2026-03-08T10:23:18.520Z</time>
      </trkpt>
      <trkpt lon="7.937196" lat="53.789788">
        <ele>482.497</ele>
        <time>2026-03-08T10:23:19.188Z</time>
      </trkpt>
      <trkpt lon="7.937074" lat="53.789854">
        <ele>488.884</ele>
        <time>2026-03-08T10:23:19.852Z</time>
      </trkpt>
      <trkpt lon="7.936960" lat="53.789915">
        <ele>495.115</ele>
        <time>2026-03-08T10:23:20.520Z</time>
      </trkpt>
      <trkpt lon="7.936855" lat="53.789970">
        <ele>501.242</ele>
        <time>2026-03-08T10:23:21.188Z</time>
      </trkpt>
      <trkpt lon="7.936756" lat="53.790019">
        <ele>506.816</ele>
        <time>2026-03-08T10:23:21.856Z</time>
      </trkpt>
      <trkpt lon="7.936661" lat="53.790062">
        <ele>511.352</ele>
        <time>2026-03-08T10:23:22.520Z</time>
      </trkpt>
      <trkpt lon="7.936567" lat="53.790096">
        <ele>515.176</ele>
        <time>2026-03-08T10:23:23.188Z</time>
      </trkpt>
      <trkpt lon="7.936473" lat="53.790121">
        <ele>518.063</ele>
        <time>2026-03-08T10:23:23.856Z</time>
      </trkpt>
      <trkpt lon="7.936129" lat="53.790151">
        <ele>513.011</ele>
        <time>2026-03-08T10:23:26.552Z</time>
      </trkpt>
      <trkpt lon="7.935988" lat="53.790128">
        <ele>497.553</ele>
        <time>2026-03-08T10:23:27.892Z</time>
      </trkpt>
      <trkpt lon="7.935820" lat="53.789997">
        <ele>461.014</ele>
        <time>2026-03-08T10:23:30.556Z</time>
      </trkpt>
      <trkpt lon="7.935801" lat="53.789957">
        <ele>452.419</ele>
        <time>2026-03-08T10:23:31.224Z</time>
      </trkpt>
      <trkpt lon="7.935792" lat="53.789917">
        <ele>443.803</ele>
        <time>2026-03-08T10:23:31.912Z</time>
      </trkpt>
      <trkpt lon="7.935826" lat="53.789833">
        <ele>420</ele>
        <time>2026-03-08T10:23:33.900Z</time>
      </trkpt>
      <trkpt lon="7.935885" lat="53.789799">
        <ele>395.568</ele>
        <time>2026-03-08T10:23:35.916Z</time>
      </trkpt>
      <trkpt lon="7.935922" lat="53.789842">
        <ele>375.061</ele>
        <time>2026-03-08T10:23:37.936Z</time>
      </trkpt>
      <trkpt lon="7.935956" lat="53.789947">
        <ele>357.551</ele>
        <time>2026-03-08T10:23:39.896Z</time>
      </trkpt>
      <trkpt lon="7.935969" lat="53.789988">
        <ele>351.205</ele>
        <time>2026-03-08T10:23:40.572Z</time>
      </trkpt>
      <trkpt lon="7.936030" lat="53.790157">
        <ele>319.433</ele>
        <time>2026-03-08T10:23:43.208Z</time>
      </trkpt>
      <trkpt lon="7.936070" lat="53.790246">
        <ele>302.47</ele>
        <time>2026-03-08T10:23:44.564Z</time>
      </trkpt>
      <trkpt lon="7.936106" lat="53.790331">
        <ele>285.654</ele>
        <time>2026-03-08T10:23:45.876Z</time>
      </trkpt>
      <trkpt lon="7.936141" lat="53.790411">
        <ele>268.733</ele>
        <time>2026-03-08T10:23:47.208Z</time>
      </trkpt>
      <trkpt lon="7.936174" lat="53.790474">
        <ele>252.056</ele>
        <time>2026-03-08T10:23:48.524Z</time>
      </trkpt>
      <trkpt lon="7.936218" lat="53.790503">
        <ele>234.372</ele>
        <time>2026-03-08T10:23:49.872Z</time>
      </trkpt>
      <trkpt lon="7.936316" lat="53.790442">
        <ele>207.683</ele>
        <time>2026-03-08T10:23:51.840Z</time>
      </trkpt>
      <trkpt lon="7.936465" lat="53.790257">
        <ele>179.244</ele>
        <time>2026-03-08T10:23:53.864Z</time>
      </trkpt>
      <trkpt lon="7.936638" lat="53.789978">
        <ele>152.19</ele>
        <time>2026-03-08T10:23:55.824Z</time>
      </trkpt>
      <trkpt lon="7.936825" lat="53.789614">
        <ele>126.361</ele>
        <time>2026-03-08T10:23:57.812Z</time>
      </trkpt>
      <trkpt lon="7.937016" lat="53.789200">
        <ele>103.988</ele>
        <time>2026-03-08T10:23:59.792Z</time>
      </trkpt>
      <trkpt lon="7.937215" lat="53.788765">
        <ele>85.4426</ele>
        <time>2026-03-08T10:24:01.792Z</time>
      </trkpt>
      <trkpt lon="7.937510" lat="53.788213">
        <ele>66.5175</ele>
        <time>2026-03-08T10:24:04.416Z</time>
      </trkpt>
      <trkpt lon="7.937593" lat="53.788079">
        <ele>62.6425</ele>
        <time>2026-03-08T10:24:05.108Z</time>
      </trkpt>
      <trkpt lon="7.937844" lat="53.787731">
        <ele>53.8063</ele>
        <time>2026-03-08T10:24:07.064Z</time>
      </trkpt>
      <trkpt lon="7.938187" lat="53.787422">
        <ele>44.2629</ele>
        <time>2026-03-08T10:24:09.068Z</time>
      </trkpt>
      <trkpt lon="7.938312" lat="53.787334">
        <ele>39.7401</ele>
        <time>2026-03-08T10:24:09.712Z</time>
      </trkpt>
      <trkpt lon="7.938451" lat="53.787252">
        <ele>34.9429</ele>
        <time>2026-03-08T10:24:10.380Z</time>
      </trkpt>
      <trkpt lon="7.938602" lat="53.787185">
        <ele>30.7298</ele>
        <time>2026-03-08T10:24:11.056Z</time>
      </trkpt>
      <trkpt lon="7.938762" lat="53.787140">
        <ele>28.0346</ele>
        <time>2026-03-08T10:24:11.720Z</time>
      </trkpt>
      <trkpt lon="7.938918" lat="53.787123">
        <ele>27.3366</ele>
        <time>2026-03-08T10:24:12.368Z</time>
      </trkpt>
      <trkpt lon="7.939059" lat="53.787128">
        <ele>27.6031</ele>
        <time>2026-03-08T10:24:12.996Z</time>
      </trkpt>
      <trkpt lon="7.939200" lat="53.787157">
        <ele>28.2728</ele>
        <time>2026-03-08T10:24:13.652Z</time>
      </trkpt>
      <trkpt lon="7.939320" lat="53.787202">
        <ele>28.5611</ele>
        <time>2026-03-08T10:24:14.316Z</time>
      </trkpt>
      <trkpt lon="7.939416" lat="53.787261">
        <ele>28.3205</ele>
        <time>2026-03-08T10:24:14.984Z</time>
      </trkpt>
      <trkpt lon="7.939484" lat="53.787332">
        <ele>27.5747</ele>
        <time>2026-03-08T10:24:15.652Z</time>
      </trkpt>
      <trkpt lon="7.939517" lat="53.787407">
        <ele>26.4699</ele>
        <time>2026-03-08T10:24:16.292Z</time>
      </trkpt>
      <trkpt lon="7.939521" lat="53.787486">
        <ele>25.0056</ele>
        <time>2026-03-08T10:24:16.940Z</time>
      </trkpt>
      <trkpt lon="7.939490" lat="53.787569">
        <ele>23.2252</ele>
        <time>2026-03-08T10:24:17.604Z</time>
      </trkpt>
      <trkpt lon="7.939428" lat="53.787647">
        <ele>21.6332</ele>
        <time>2026-03-08T10:24:18.252Z</time>
      </trkpt>
      <trkpt lon="7.939339" lat="53.787714">
        <ele>20.4151</ele>
        <time>2026-03-08T10:24:18.884Z</time>
      </trkpt>
      <trkpt lon="7.939065" lat="53.787821">
        <ele>18.8733</ele>
        <time>2026-03-08T10:24:20.248Z</time>
      </trkpt>
      <trkpt lon="7.938749" lat="53.787881">
        <ele>14.4514</ele>
        <time>2026-03-08T10:24:21.560Z</time>
      </trkpt>
      <trkpt lon="7.938582" lat="53.787901">
        <ele>11.4316</ele>
        <time>2026-03-08T10:24:22.224Z</time>
      </trkpt>
      <trkpt lon="7.938258" lat="53.787918">
        <ele>7.70877</ele>
        <time>2026-03-08T10:24:23.580Z</time>
      </trkpt>
      <trkpt lon="7.938114" lat="53.787919">
        <ele>7.49497</ele>
        <time>2026-03-08T10:24:24.268Z</time>
      </trkpt>
      <trkpt lon="7.937994" lat="53.787920">
        <ele>7.19128</ele>
        <time>2026-03-08T10:24:24.928Z</time>
      </trkpt>
      <trkpt lon="7.937889" lat="53.787923">
        <ele>6.14916</ele>
        <time>2026-03-08T10:24:25.600Z</time>
      </trkpt>
      <trkpt lon="7.937808" lat="53.787927">
        <ele>4.86564</ele>
        <time>2026-03-08T10:24:26.256Z</time>
      </trkpt>
      <trkpt lon="7.937748" lat="53.787936">
        <ele>4.00589</ele>
        <time>2026-03-08T10:24:26.912Z</time>
      </trkpt>
      <trkpt lon="7.937700" lat="53.787949">
        <ele>3.81151</ele>
        <time>2026-03-08T10:24:27.600Z</time>
      </trkpt>
      <trkpt lon="7.937660" lat="53.787964">
        <ele>4.25101</ele>
        <time>2026-03-08T10:24:28.264Z</time>
      </trkpt>
      <trkpt lon="7.937623" lat="53.787979">
        <ele>4.47481</ele>
        <time>2026-03-08T10:24:28.932Z</time>
      </trkpt>
      <trkpt lon="7.937585" lat="53.787994">
        <ele>4.06127</ele>
        <time>2026-03-08T10:24:29.600Z</time>
      </trkpt>
      <trkpt lon="7.937521" lat="53.788008">
        <ele>4.12918</ele>
        <time>2026-03-08T10:24:30.960Z</time>
      </trkpt>
      <trkpt lon="7.937506" lat="53.788006">
        <ele>4.72614</ele>
        <time>2026-03-08T10:24:31.624Z</time>
      </trkpt>
      <trkpt lon="7.937533" lat="53.787944">
        <ele>3.5156</ele>
        <time>2026-03-08T10:24:36.944Z</time>
      </trkpt>
      <trkpt lon="7.937521" lat="53.787939">
        <ele>5.02399</ele>
        <time>2026-03-08T10:24:38.300Z</time>
      </trkpt>
      <trkpt lon="7.937507" lat="53.787938">
        <ele>5.64147</ele>
        <time>2026-03-08T10:24:38.996Z</time>
      </trkpt>
      <trkpt lon="7.937491" lat="53.787936">
        <ele>6.10172</ele>
        <time>2026-03-08T10:24:39.664Z</time>
      </trkpt>
      <trkpt lon="7.937473" lat="53.787934">
        <ele>6.56546</ele>
        <time>2026-03-08T10:24:40.332Z</time>
      </trkpt>
      <trkpt lon="7.937374" lat="53.787875">
        <ele>11.4021</ele>
        <time>2026-03-08T10:24:45.688Z</time>
      </trkpt>
      <trkpt lon="7.937385" lat="53.787858">
        <ele>14.9445</ele>
        <time>2026-03-08T10:24:46.356Z</time>
      </trkpt>
      <trkpt lon="7.937569" lat="53.787799">
        <ele>27.1463</ele>
        <time>2026-03-08T10:24:48.380Z</time>
      </trkpt>
      <trkpt lon="7.937706" lat="53.787775">
        <ele>29.8341</ele>
        <time>2026-03-08T10:24:49.044Z</time>
      </trkpt>
      <trkpt lon="7.938101" lat="53.787722">
        <ele>28.2525</ele>
        <time>2026-03-08T10:24:50.380Z</time>
      </trkpt>
      <trkpt lon="7.938642" lat="53.787652">
        <ele>18.9215</ele>
        <time>2026-03-08T10:24:51.712Z</time>
      </trkpt>
      <trkpt lon="7.939326" lat="53.787566">
        <ele>11.9993</ele>
        <time>2026-03-08T10:24:53.048Z</time>
      </trkpt>
      <trkpt lon="7.940930" lat="53.787370">
        <ele>10.1689</ele>
        <time>2026-03-08T10:24:55.696Z</time>
      </trkpt>
      <trkpt lon="7.943252" lat="53.787110">
        <ele>9.32391</ele>
        <time>2026-03-08T10:24:59.032Z</time>
      </trkpt>
      <trkpt lon="7.946377" lat="53.786785">
        <ele>8.51972</ele>
        <time>2026-03-08T10:25:03.040Z</time>
      </trkpt>
      <trkpt lon="7.950185" lat="53.786417">
        <ele>27.4495</ele>
        <time>2026-03-08T10:25:07.716Z</time>
      </trkpt>
      <trkpt lon="7.952856" lat="53.786127">
        <ele>43.59</ele>
        <time>2026-03-08T10:25:11.072Z</time>
      </trkpt>
      <trkpt lon="7.960492" lat="53.785388">
        <ele>54.018</ele>
        <time>2026-03-08T10:25:20.388Z</time>
      </trkpt>
      <trkpt lon="7.968148" lat="53.784432">
        <ele>43.3111</ele>
        <time>2026-03-08T10:25:29.080Z</time>
      </trkpt>
      <trkpt lon="7.971084" lat="53.783831">
        <ele>40.1107</ele>
        <time>2026-03-08T10:25:32.416Z</time>
      </trkpt>
      <trkpt lon="7.973366" lat="53.783220">
        <ele>42.2146</ele>
        <time>2026-03-08T10:25:35.084Z</time>
      </trkpt>
      <trkpt lon="7.974985" lat="53.782669">
        <ele>46.548</ele>
        <time>2026-03-08T10:25:37.084Z</time>
      </trkpt>
      <trkpt lon="7.976016" lat="53.782235">
        <ele>50.3992</ele>
        <time>2026-03-08T10:25:38.436Z</time>
      </trkpt>
      <trkpt lon="7.976904" lat="53.781768">
        <ele>56.3926</ele>
        <time>2026-03-08T10:25:39.732Z</time>
      </trkpt>
      <trkpt lon="7.977686" lat="53.781240">
        <ele>63.0385</ele>
        <time>2026-03-08T10:25:41.040Z</time>
      </trkpt>
      <trkpt lon="7.978313" lat="53.780633">
        <ele>69.9068</ele>
        <time>2026-03-08T10:25:42.372Z</time>
      </trkpt>
      <trkpt lon="7.978523" lat="53.780319">
        <ele>74.5561</ele>
        <time>2026-03-08T10:25:43.020Z</time>
      </trkpt>
      <trkpt lon="7.978685" lat="53.779976">
        <ele>79.9498</ele>
        <time>2026-03-08T10:25:43.708Z</time>
      </trkpt>
      <trkpt lon="7.978789" lat="53.779637">
        <ele>84.9548</ele>
        <time>2026-03-08T10:25:44.376Z</time>
      </trkpt>
      <trkpt lon="7.978855" lat="53.778956">
        <ele>93.3987</ele>
        <time>2026-03-08T10:25:45.708Z</time>
      </trkpt>
      <trkpt lon="7.978755" lat="53.778278">
        <ele>100.266</ele>
        <time>2026-03-08T10:25:47.040Z</time>
      </trkpt>
      <trkpt lon="7.978496" lat="53.777613">
        <ele>106.969</ele>
        <time>2026-03-08T10:25:48.380Z</time>
      </trkpt>
      <trkpt lon="7.978097" lat="53.776976">
        <ele>113.019</ele>
        <time>2026-03-08T10:25:49.720Z</time>
      </trkpt>
      <trkpt lon="7.977589" lat="53.776388">
        <ele>118.923</ele>
        <time>2026-03-08T10:25:51.020Z</time>
      </trkpt>
      <trkpt lon="7.976963" lat="53.775814">
        <ele>123.405</ele>
        <time>2026-03-08T10:25:52.348Z</time>
      </trkpt>
      <trkpt lon="7.976226" lat="53.775262">
        <ele>126.42</ele>
        <time>2026-03-08T10:25:53.708Z</time>
      </trkpt>
      <trkpt lon="7.975409" lat="53.774755">
        <ele>128.545</ele>
        <time>2026-03-08T10:25:55.044Z</time>
      </trkpt>
      <trkpt lon="7.974028" lat="53.774069">
        <ele>129.321</ele>
        <time>2026-03-08T10:25:57.044Z</time>
      </trkpt>
      <trkpt lon="7.973003" lat="53.773677">
        <ele>130.998</ele>
        <time>2026-03-08T10:25:58.380Z</time>
      </trkpt>
      <trkpt lon="7.971887" lat="53.773351">
        <ele>135.663</ele>
        <time>2026-03-08T10:25:59.736Z</time>
      </trkpt>
      <trkpt lon="7.970174" lat="53.772998">
        <ele>142.458</ele>
        <time>2026-03-08T10:26:01.712Z</time>
      </trkpt>
      <trkpt lon="7.968988" lat="53.772828">
        <ele>143.353</ele>
        <time>2026-03-08T10:26:03.028Z</time>
      </trkpt>
      <trkpt lon="7.967156" lat="53.772670">
        <ele>140.306</ele>
        <time>2026-03-08T10:26:04.988Z</time>
      </trkpt>
      <trkpt lon="7.962004" lat="53.772482">
        <ele>140.101</ele>
        <time>2026-03-08T10:26:10.296Z</time>
      </trkpt>
      <trkpt lon="7.956979" lat="53.772503">
        <ele>162.424</ele>
        <time>2026-03-08T10:26:15.616Z</time>
      </trkpt>
      <trkpt lon="7.952022" lat="53.772825">
        <ele>180.721</ele>
        <time>2026-03-08T10:26:20.932Z</time>
      </trkpt>
      <trkpt lon="7.943786" lat="53.773765">
        <ele>207.226</ele>
        <time>2026-03-08T10:26:29.680Z</time>
      </trkpt>
      <trkpt lon="7.938973" lat="53.774431">
        <ele>233.435</ele>
        <time>2026-03-08T10:26:35.000Z</time>
      </trkpt>
      <trkpt lon="7.930507" lat="53.775742">
        <ele>234.678</ele>
        <time>2026-03-08T10:26:44.268Z</time>
      </trkpt>
      <trkpt lon="7.925528" lat="53.776686">
        <ele>246.207</ele>
        <time>2026-03-08T10:26:49.576Z</time>
      </trkpt>
      <trkpt lon="7.923030" lat="53.776941">
        <ele>252.514</ele>
        <time>2026-03-08T10:26:52.196Z</time>
      </trkpt>
      <trkpt lon="7.921178" lat="53.777005">
        <ele>258.783</ele>
        <time>2026-03-08T10:26:54.164Z</time>
      </trkpt>
      <trkpt lon="7.915127" lat="53.776907">
        <ele>262.647</ele>
        <time>2026-03-08T10:27:00.900Z</time>
      </trkpt>
      <trkpt lon="7.911808" lat="53.776818">
        <ele>256.526</ele>
        <time>2026-03-08T10:27:04.880Z</time>
      </trkpt>
      <trkpt lon="7.909630" lat="53.776817">
        <ele>244.284</ele>
        <time>2026-03-08T10:27:07.520Z</time>
      </trkpt>
      <trkpt lon="7.908562" lat="53.776860">
        <ele>239.449</ele>
        <time>2026-03-08T10:27:08.848Z</time>
      </trkpt>
      <trkpt lon="7.907520" lat="53.776952">
        <ele>237.873</ele>
        <time>2026-03-08T10:27:10.168Z</time>
      </trkpt>
      <trkpt lon="7.907039" lat="53.777016">
        <ele>237.607</ele>
        <time>2026-03-08T10:27:10.812Z</time>
      </trkpt>
      <trkpt lon="7.906544" lat="53.777101">
        <ele>237.215</ele>
        <time>2026-03-08T10:27:11.504Z</time>
      </trkpt>
      <trkpt lon="7.906115" lat="53.777190">
        <ele>236.406</ele>
        <time>2026-03-08T10:27:12.124Z</time>
      </trkpt>
      <trkpt lon="7.905676" lat="53.777302">
        <ele>235.019</ele>
        <time>2026-03-08T10:27:12.788Z</time>
      </trkpt>
      <trkpt lon="7.905266" lat="53.777429">
        <ele>233.321</ele>
        <time>2026-03-08T10:27:13.456Z</time>
      </trkpt>
      <trkpt lon="7.904885" lat="53.777569">
        <ele>231.22</ele>
        <time>2026-03-08T10:27:14.120Z</time>
      </trkpt>
      <trkpt lon="7.904517" lat="53.777727">
        <ele>228.43</ele>
        <time>2026-03-08T10:27:14.816Z</time>
      </trkpt>
      <trkpt lon="7.903898" lat="53.778060">
        <ele>221.484</ele>
        <time>2026-03-08T10:27:16.128Z</time>
      </trkpt>
      <trkpt lon="7.903619" lat="53.778243">
        <ele>217.396</ele>
        <time>2026-03-08T10:27:16.792Z</time>
      </trkpt>
      <trkpt lon="7.903140" lat="53.778627">
        <ele>208.862</ele>
        <time>2026-03-08T10:27:18.100Z</time>
      </trkpt>
      <trkpt lon="7.902934" lat="53.778827">
        <ele>204.2</ele>
        <time>2026-03-08T10:27:18.756Z</time>
      </trkpt>
      <trkpt lon="7.902589" lat="53.779239">
        <ele>194.23</ele>
        <time>2026-03-08T10:27:20.068Z</time>
      </trkpt>
      <trkpt lon="7.902216" lat="53.779883">
        <ele>179.136</ele>
        <time>2026-03-08T10:27:22.068Z</time>
      </trkpt>
      <trkpt lon="7.902065" lat="53.780318">
        <ele>169.618</ele>
        <time>2026-03-08T10:27:23.420Z</time>
      </trkpt>
      <trkpt lon="7.901997" lat="53.780726">
        <ele>161.02</ele>
        <time>2026-03-08T10:27:24.716Z</time>
      </trkpt>
      <trkpt lon="7.902006" lat="53.781139">
        <ele>152.766</ele>
        <time>2026-03-08T10:27:26.048Z</time>
      </trkpt>
      <trkpt lon="7.902090" lat="53.781531">
        <ele>145.011</ele>
        <time>2026-03-08T10:27:27.372Z</time>
      </trkpt>
      <trkpt lon="7.902245" lat="53.781910">
        <ele>137.013</ele>
        <time>2026-03-08T10:27:28.704Z</time>
      </trkpt>
      <trkpt lon="7.902479" lat="53.782269">
        <ele>128.489</ele>
        <time>2026-03-08T10:27:30.056Z</time>
      </trkpt>
      <trkpt lon="7.902764" lat="53.782578">
        <ele>120.227</ele>
        <time>2026-03-08T10:27:31.344Z</time>
      </trkpt>
      <trkpt lon="7.903127" lat="53.782860">
        <ele>111.47</ele>
        <time>2026-03-08T10:27:32.676Z</time>
      </trkpt>
      <trkpt lon="7.903546" lat="53.783088">
        <ele>102.559</ele>
        <time>2026-03-08T10:27:33.988Z</time>
      </trkpt>
      <trkpt lon="7.904043" lat="53.783269">
        <ele>92.254</ele>
        <time>2026-03-08T10:27:35.372Z</time>
      </trkpt>
      <trkpt lon="7.905099" lat="53.783437">
        <ele>69.9174</ele>
        <time>2026-03-08T10:27:37.956Z</time>
      </trkpt>
      <trkpt lon="7.906256" lat="53.783392">
        <ele>48.7993</ele>
        <time>2026-03-08T10:27:40.588Z</time>
      </trkpt>
      <trkpt lon="7.909994" lat="53.782945">
        <ele>31.2249</ele>
        <time>2026-03-08T10:27:49.184Z</time>
      </trkpt>
      <trkpt lon="7.913318" lat="53.782802">
        <ele>15.1659</ele>
        <time>2026-03-08T10:27:57.236Z</time>
      </trkpt>
      <trkpt lon="7.914758" lat="53.782735">
        <ele>9.01311</ele>
        <time>2026-03-08T10:28:01.268Z</time>
      </trkpt>
      <trkpt lon="7.915681" lat="53.782697">
        <ele>5.42448</ele>
        <time>2026-03-08T10:28:04.628Z</time>
      </trkpt>
      <trkpt lon="7.916261" lat="53.782681">
        <ele>4.585</ele>
        <time>2026-03-08T10:28:07.936Z</time>
      </trkpt>
      <trkpt lon="7.916574" lat="53.782664">
        <ele>3.43245</ele>
        <time>2026-03-08T10:28:10.636Z</time>
      </trkpt>
      <trkpt lon="7.916882" lat="53.782651">
        <ele>3.1274</ele>
        <time>2026-03-08T10:28:14.004Z</time>
      </trkpt>
      <trkpt lon="7.917005" lat="53.782668">
        <ele>2.73174</ele>
        <time>2026-03-08T10:28:15.364Z</time>
      </trkpt>
      <trkpt lon="7.917125" lat="53.782705">
        <ele>2.69319</ele>
        <time>2026-03-08T10:28:16.696Z</time>
      </trkpt>
      <trkpt lon="7.917181" lat="53.782729">
        <ele>2.14278</ele>
        <time>2026-03-08T10:28:17.348Z</time>
      </trkpt>
      <trkpt lon="7.917235" lat="53.782757">
        <ele>1.40334</ele>
        <time>2026-03-08T10:28:17.984Z</time>
      </trkpt>
      <trkpt lon="7.917284" lat="53.782787">
        <ele>1.25875</ele>
        <time>2026-03-08T10:28:18.616Z</time>
      </trkpt>
      <trkpt lon="7.917328" lat="53.782820">
        <ele>1.82662</ele>
        <time>2026-03-08T10:28:19.252Z</time>
      </trkpt>
      <trkpt lon="7.917405" lat="53.782901">
        <ele>3.16871</ele>
        <time>2026-03-08T10:28:20.600Z</time>
      </trkpt>
      <trkpt lon="7.917434" lat="53.782946">
        <ele>3.29019</ele>
        <time>2026-03-08T10:28:21.272Z</time>
      </trkpt>
      <trkpt lon="7.917453" lat="53.782992">
        <ele>3.16492</ele>
        <time>2026-03-08T10:28:21.908Z</time>
      </trkpt>
      <trkpt lon="7.917460" lat="53.783042">
        <ele>2.97193</ele>
        <time>2026-03-08T10:28:22.584Z</time>
      </trkpt>
      <trkpt lon="7.917449" lat="53.783092">
        <ele>3.01454</ele>
        <time>2026-03-08T10:28:23.248Z</time>
      </trkpt>
      <trkpt lon="7.917419" lat="53.783138">
        <ele>3.21673</ele>
        <time>2026-03-08T10:28:23.896Z</time>
      </trkpt>
      <trkpt lon="7.917371" lat="53.783177">
        <ele>3.40906</ele>
        <time>2026-03-08T10:28:24.540Z</time>
      </trkpt>
      <trkpt lon="7.917303" lat="53.783209">
        <ele>3.41945</ele>
        <time>2026-03-08T10:28:25.208Z</time>
      </trkpt>
      <trkpt lon="7.917225" lat="53.783231">
        <ele>3.20517</ele>
        <time>2026-03-08T10:28:25.832Z</time>
      </trkpt>
      <trkpt lon="7.916416" lat="53.783264">
        <ele>2.84021</ele>
        <time>2026-03-08T10:28:30.496Z</time>
      </trkpt>
      <trkpt lon="7.915463" lat="53.783297">
        <ele>2.77157</ele>
        <time>2026-03-08T10:28:35.212Z</time>
      </trkpt>
      <trkpt lon="7.915322" lat="53.783306">
        <ele>3.1087</ele>
        <time>2026-03-08T10:28:35.912Z</time>
      </trkpt>
      <trkpt lon="7.914929" lat="53.783368">
        <ele>4.10861</ele>
        <time>2026-03-08T10:28:37.944Z</time>
      </trkpt>
      <trkpt lon="7.914691" lat="53.783441">
        <ele>3.91407</ele>
        <time>2026-03-08T10:28:39.240Z</time>
      </trkpt>
      <trkpt lon="7.913029" lat="53.784138">
        <ele>4.15349</ele>
        <time>2026-03-08T10:28:49.172Z</time>
      </trkpt>
      <trkpt lon="7.912362" lat="53.784426">
        <ele>4.3685</ele>
        <time>2026-03-08T10:28:54.472Z</time>
      </trkpt>
      <trkpt lon="7.912149" lat="53.784513">
        <ele>3.53568</ele>
        <time>2026-03-08T10:28:56.448Z</time>
      </trkpt>
      <trkpt lon="7.911844" lat="53.784659">
        <ele>4.05139</ele>
        <time>2026-03-08T10:29:00.460Z</time>
      </trkpt>
      <trkpt lon="7.911701" lat="53.784721">
        <ele>5.08169</ele>
        <time>2026-03-08T10:29:02.448Z</time>
      </trkpt>
      <trkpt lon="7.911135" lat="53.784971">
        <ele>6.84696</ele>
        <time>2026-03-08T10:29:07.772Z</time>
      </trkpt>
      <trkpt lon="7.911049" lat="53.785014">
        <ele>6.6821</ele>
        <time>2026-03-08T10:29:08.460Z</time>
      </trkpt>
      <trkpt lon="7.910894" lat="53.785107">
        <ele>6.56574</ele>
        <time>2026-03-08T10:29:09.760Z</time>
      </trkpt>
      <trkpt lon="7.910747" lat="53.785217">
        <ele>6.61894</ele>
        <time>2026-03-08T10:29:11.108Z</time>
      </trkpt>
      <trkpt lon="7.910679" lat="53.785275">
        <ele>6.61244</ele>
        <time>2026-03-08T10:29:11.756Z</time>
      </trkpt>
      <trkpt lon="7.910340" lat="53.785694">
        <ele>7.12236</ele>
        <time>2026-03-08T10:29:15.772Z</time>
      </trkpt>
      <trkpt lon="7.910240" lat="53.785845">
        <ele>7.48576</ele>
        <time>2026-03-08T10:29:17.104Z</time>
      </trkpt>
      <trkpt lon="7.910194" lat="53.785921">
        <ele>7.38312</ele>
        <time>2026-03-08T10:29:17.768Z</time>
      </trkpt>
      <trkpt lon="7.910118" lat="53.786074">
        <ele>7.21325</ele>
        <time>2026-03-08T10:29:19.104Z</time>
      </trkpt>
      <trkpt lon="7.910076" lat="53.786218">
        <ele>7.5051</ele>
        <time>2026-03-08T10:29:20.420Z</time>
      </trkpt>
      <trkpt lon="7.910148" lat="53.786581">
        <ele>7.96906</ele>
        <time>2026-03-08T10:29:24.384Z</time>
      </trkpt>
      <trkpt lon="7.910214" lat="53.786732">
        <ele>7.06757</ele>
        <time>2026-03-08T10:29:26.352Z</time>
      </trkpt>
      <trkpt lon="7.910232" lat="53.786778">
        <ele>6.99019</ele>
        <time>2026-03-08T10:29:27.008Z</time>
      </trkpt>
      <trkpt lon="7.910245" lat="53.786822">
        <ele>6.87925</ele>
        <time>2026-03-08T10:29:27.680Z</time>
      </trkpt>
      <trkpt lon="7.910255" lat="53.786908">
        <ele>6.33139</ele>
        <time>2026-03-08T10:29:29.012Z</time>
      </trkpt>
      <trkpt lon="7.910242" lat="53.786987">
        <ele>5.42828</ele>
        <time>2026-03-08T10:29:30.344Z</time>
      </trkpt>
      <trkpt lon="7.910228" lat="53.787024">
        <ele>5.0502</ele>
        <time>2026-03-08T10:29:31.012Z</time>
      </trkpt>
      <trkpt lon="7.910209" lat="53.787060">
        <ele>4.88672</ele>
        <time>2026-03-08T10:29:31.692Z</time>
      </trkpt>
      <trkpt lon="7.910187" lat="53.787092">
        <ele>4.85888</ele>
        <time>2026-03-08T10:29:32.364Z</time>
      </trkpt>
      <trkpt lon="7.910163" lat="53.787122">
        <ele>4.8229</ele>
        <time>2026-03-08T10:29:33.032Z</time>
      </trkpt>
      <trkpt lon="7.910137" lat="53.787151">
        <ele>4.73374</ele>
        <time>2026-03-08T10:29:33.700Z</time>
      </trkpt>
      <trkpt lon="7.910110" lat="53.787178">
        <ele>4.60852</ele>
        <time>2026-03-08T10:29:34.368Z</time>
      </trkpt>
      <trkpt lon="7.910081" lat="53.787203">
        <ele>4.48196</ele>
        <time>2026-03-08T10:29:35.036Z</time>
      </trkpt>
      <trkpt lon="7.910053" lat="53.787227">
        <ele>4.36384</ele>
        <time>2026-03-08T10:29:35.720Z</time>
      </trkpt>
      <trkpt lon="7.910024" lat="53.787249">
        <ele>4.24825</ele>
        <time>2026-03-08T10:29:36.388Z</time>
      </trkpt>
      <trkpt lon="7.909974" lat="53.787285">
        <ele>4.02658</ele>
        <time>2026-03-08T10:29:37.700Z</time>
      </trkpt>
      <trkpt lon="7.909929" lat="53.787315">
        <ele>4.17584</ele>
        <time>2026-03-08T10:29:39.048Z</time>
      </trkpt>
      <trkpt lon="7.909772" lat="53.787351">
        <ele>4.0994</ele>
        <time>2026-03-08T10:29:44.388Z</time>
      </trkpt>
      <trkpt lon="7.909689" lat="53.787343">
        <ele>3.31655</ele>
        <time>2026-03-08T10:29:47.024Z</time>
      </trkpt>
      <trkpt lon="7.909668" lat="53.787340">
        <ele>2.94653</ele>
        <time>2026-03-08T10:29:48.332Z</time>
      </trkpt>
      <trkpt lon="7.909461" lat="53.787553">
        <ele>1.59291</ele>
        <time>2026-03-08T20:42:19.592Z</time>
      </trkpt>
    </trkseg>
    <trkseg>
      <trkpt lon="7.815271" lat="53.705766">
        <ele>2.81256</ele>
        <time>2026-03-19T18:49:28.936Z</time>
      </trkpt>
      <trkpt lon="7.815298" lat="53.705769">
        <ele>2.83427</ele>
        <time>2026-03-19T12:11:12.548Z</time>
      </trkpt>
      <trkpt lon="7.815406" lat="53.705780">
        <ele>2.8256</ele>
        <time>2026-03-19T12:11:22.588Z</time>
      </trkpt>
      <trkpt lon="7.815477" lat="53.705790">
        <ele>2.77007</ele>
        <time>2026-03-19T12:13:33.492Z</time>
      </trkpt>
      <trkpt lon="7.815761" lat="53.705828">
        <ele>2.59936</ele>
        <time>2026-03-19T12:13:37.576Z</time>
      </trkpt>
      <trkpt lon="7.815887" lat="53.705856">
        <ele>2.49076</ele>
        <time>2026-03-19T12:13:38.920Z</time>
      </trkpt>
      <trkpt lon="7.816121" lat="53.705914">
        <ele>2.28818</ele>
        <time>2026-03-19T12:13:40.956Z</time>
      </trkpt>
      <trkpt lon="7.816503" lat="53.705980">
        <ele>1.98934</ele>
        <time>2026-03-19T12:13:44.960Z</time>
      </trkpt>
      <trkpt lon="7.816549" lat="53.705996">
        <ele>1.96846</ele>
        <time>2026-03-19T12:13:46.288Z</time>
      </trkpt>
      <trkpt lon="7.816563" lat="53.706003">
        <ele>1.95713</ele>
        <time>2026-03-19T12:13:46.984Z</time>
      </trkpt>
      <trkpt lon="7.816579" lat="53.706015">
        <ele>1.93881</ele>
        <time>2026-03-19T12:13:47.636Z</time>
      </trkpt>
      <trkpt lon="7.816595" lat="53.706030">
        <ele>1.92289</ele>
        <time>2026-03-19T12:13:48.300Z</time>
      </trkpt>
      <trkpt lon="7.816608" lat="53.706049">
        <ele>1.89952</ele>
        <time>2026-03-19T12:13:48.964Z</time>
      </trkpt>
      <trkpt lon="7.816617" lat="53.706072">
        <ele>1.88188</ele>
        <time>2026-03-19T12:13:49.624Z</time>
      </trkpt>
      <trkpt lon="7.816621" lat="53.706097">
        <ele>1.86318</ele>
        <time>2026-03-19T12:13:50.256Z</time>
      </trkpt>
      <trkpt lon="7.816618" lat="53.706122">
        <ele>1.84329</ele>
        <time>2026-03-19T12:13:50.924Z</time>
      </trkpt>
      <trkpt lon="7.816615" lat="53.706133">
        <ele>1.85608</ele>
        <time>2026-03-19T12:13:51.568Z</time>
      </trkpt>
      <trkpt lon="7.816581" lat="53.706196">
        <ele>1.84199</ele>
        <time>2026-03-19T12:14:27.920Z</time>
      </trkpt>
      <trkpt lon="7.816546" lat="53.706301">
        <ele>1.88771</ele>
        <time>2026-03-19T12:14:31.288Z</time>
      </trkpt>
      <trkpt lon="7.816545" lat="53.706325">
        <ele>1.90253</ele>
        <time>2026-03-19T12:14:31.944Z</time>
      </trkpt>
      <trkpt lon="7.816548" lat="53.706345">
        <ele>1.91319</ele>
        <time>2026-03-19T12:14:32.600Z</time>
      </trkpt>
      <trkpt lon="7.816555" lat="53.706359">
        <ele>1.92107</ele>
        <time>2026-03-19T12:14:33.248Z</time>
      </trkpt>
      <trkpt lon="7.816586" lat="53.706381">
        <ele>1.9494</ele>
        <time>2026-03-19T12:14:35.264Z</time>
      </trkpt>
      <trkpt lon="7.816643" lat="53.706401">
        <ele>1.97257</ele>
        <time>2026-03-19T12:14:35.944Z</time>
      </trkpt>
      <trkpt lon="7.816741" lat="53.706420">
        <ele>2.00527</ele>
        <time>2026-03-19T12:14:36.604Z</time>
      </trkpt>
      <trkpt lon="7.817056" lat="53.706463">
        <ele>2.12901</ele>
        <time>2026-03-19T12:14:37.940Z</time>
      </trkpt>
      <trkpt lon="7.817254" lat="53.706495">
        <ele>2.24795</ele>
        <time>2026-03-19T12:14:38.588Z</time>
      </trkpt>
      <trkpt lon="7.817782" lat="53.706535">
        <ele>2.45106</ele>
        <time>2026-03-19T12:14:39.948Z</time>
      </trkpt>
      <trkpt lon="7.818439" lat="53.706555">
        <ele>2.73795</ele>
        <time>2026-03-19T12:14:41.296Z</time>
      </trkpt>
      <trkpt lon="7.819176" lat="53.706569">
        <ele>2.88428</ele>
        <time>2026-03-19T12:14:42.592Z</time>
      </trkpt>
      <trkpt lon="7.820449" lat="53.706569">
        <ele>3.98725</ele>
        <time>2026-03-19T12:14:44.536Z</time>
      </trkpt>
      <trkpt lon="7.823449" lat="53.706651">
        <ele>25.3569</ele>
        <time>2026-03-19T12:14:48.552Z</time>
      </trkpt>
      <trkpt lon="7.824960" lat="53.706748">
        <ele>50.7664</ele>
        <time>2026-03-19T12:14:50.556Z</time>
      </trkpt>
      <trkpt lon="7.825916" lat="53.706813">
        <ele>73.5362</ele>
        <time>2026-03-19T12:14:51.884Z</time>
      </trkpt>
      <trkpt lon="7.826807" lat="53.706876">
        <ele>99.8136</ele>
        <time>2026-03-19T12:14:53.200Z</time>
      </trkpt>
      <trkpt lon="7.827655" lat="53.706941">
        <ele>129.248</ele>
        <time>2026-03-19T12:14:54.548Z</time>
      </trkpt>
      <trkpt lon="7.828429" lat="53.707014">
        <ele>159.211</ele>
        <time>2026-03-19T12:14:55.876Z</time>
      </trkpt>
      <trkpt lon="7.829142" lat="53.707096">
        <ele>189.22</ele>
        <time>2026-03-19T12:14:57.204Z</time>
      </trkpt>
      <trkpt lon="7.829786" lat="53.707191">
        <ele>218.325</ele>
        <time>2026-03-19T12:14:58.520Z</time>
      </trkpt>
      <trkpt lon="7.830394" lat="53.707306">
        <ele>247.426</ele>
        <time>2026-03-19T12:14:59.876Z</time>
      </trkpt>
      <trkpt lon="7.831197" lat="53.707526">
        <ele>287.636</ele>
        <time>2026-03-19T12:15:01.916Z</time>
      </trkpt>
      <trkpt lon="7.831670" lat="53.707689">
        <ele>311.789</ele>
        <time>2026-03-19T12:15:03.252Z</time>
      </trkpt>
      <trkpt lon="7.832320" lat="53.707974">
        <ele>344.035</ele>
        <time>2026-03-19T12:15:05.280Z</time>
      </trkpt>
      <trkpt lon="7.832862" lat="53.708256">
        <ele>368.146</ele>
        <time>2026-03-19T12:15:59.344Z</time>
      </trkpt>
      <trkpt lon="7.833841" lat="53.708786">
        <ele>405.472</ele>
        <time>2026-03-19T12:16:01.968Z</time>
      </trkpt>
      <trkpt lon="7.834960" lat="53.709383">
        <ele>435.927</ele>
        <time>2026-03-19T12:18:09.144Z</time>
      </trkpt>
      <trkpt lon="7.835260" lat="53.709532">
        <ele>441.054</ele>
        <time>2026-03-19T12:18:09.816Z</time>
      </trkpt>
      <trkpt lon="7.835811" lat="53.709827">
        <ele>435.51</ele>
        <time>2026-03-19T12:18:11.120Z</time>
      </trkpt>
      <trkpt lon="7.836503" lat="53.710192">
        <ele>427.193</ele>
        <time>2026-03-19T12:18:12.552Z</time>
      </trkpt>
      <trkpt lon="7.837994" lat="53.710872">
        <ele>422.162</ele>
        <time>2026-03-19T12:18:20.532Z</time>
      </trkpt>
      <trkpt lon="7.841291" lat="53.712006">
        <ele>448.519</ele>
        <time>2026-03-19T12:18:25.232Z</time>
      </trkpt>
      <trkpt lon="7.845816" lat="53.713304">
        <ele>470.323</ele>
        <time>2026-03-19T12:18:31.168Z</time>
      </trkpt>
      <trkpt lon="7.853502" lat="53.714869">
        <ele>500.518</ele>
        <time>2026-03-19T12:18:40.432Z</time>
      </trkpt>
      <trkpt lon="7.868116" lat="53.717160">
        <ele>487.852</ele>
        <time>2026-03-19T12:18:57.720Z</time>
      </trkpt>
      <trkpt lon="7.882142" lat="53.718459">
        <ele>465.593</ele>
        <time>2026-03-19T12:19:14.308Z</time>
      </trkpt>
      <trkpt lon="7.907829" lat="53.720329">
        <ele>458.371</ele>
        <time>2026-03-19T12:19:44.912Z</time>
      </trkpt>
      <trkpt lon="7.930016" lat="53.721269">
        <ele>454.878</ele>
        <time>2026-03-19T12:20:11.512Z</time>
      </trkpt>
      <trkpt lon="7.945939" lat="53.721128">
        <ele>492.698</ele>
        <time>2026-03-19T12:20:30.756Z</time>
      </trkpt>
      <trkpt lon="7.954184" lat="53.721187">
        <ele>532.254</ele>
        <time>2026-03-19T12:20:41.500Z</time>
      </trkpt>
      <trkpt lon="7.965467" lat="53.721764">
        <ele>573.507</ele>
        <time>2026-03-19T12:20:56.748Z</time>
      </trkpt>
      <trkpt lon="7.973428" lat="53.722152">
        <ele>600.153</ele>
        <time>2026-03-19T12:21:07.416Z</time>
      </trkpt>
      <trkpt lon="7.978523" lat="53.722070">
        <ele>614.837</ele>
        <time>2026-03-19T12:21:14.072Z</time>
      </trkpt>
      <trkpt lon="7.989360" lat="53.721302">
        <ele>652.167</ele>
        <time>2026-03-19T12:21:28.132Z</time>
      </trkpt>
      <trkpt lon="7.993970" lat="53.720750">
        <ele>665.629</ele>
        <time>2026-03-19T12:21:34.136Z</time>
      </trkpt>
      <trkpt lon="8.017978" lat="53.716309">
        <ele>686.18</ele>
        <time>2026-03-19T12:22:04.696Z</time>
      </trkpt>
      <trkpt lon="8.020040" lat="53.715835">
        <ele>689.496</ele>
        <time>2026-03-19T12:22:07.312Z</time>
      </trkpt>
      <trkpt lon="8.023089" lat="53.714936">
        <ele>688.359</ele>
        <time>2026-03-19T12:22:11.288Z</time>
      </trkpt>
      <trkpt lon="8.026072" lat="53.713838">
        <ele>684.946</ele>
        <time>2026-03-19T12:22:15.300Z</time>
      </trkpt>
      <trkpt lon="8.029399" lat="53.712311">
        <ele>675.927</ele>
        <time>2026-03-19T12:22:19.952Z</time>
      </trkpt>
      <trkpt lon="8.032065" lat="53.710824">
        <ele>674.916</ele>
        <time>2026-03-19T12:22:23.916Z</time>
      </trkpt>
      <trkpt lon="8.041046" lat="53.704816">
        <ele>680.869</ele>
        <time>2026-03-19T12:22:38.652Z</time>
      </trkpt>
      <trkpt lon="8.047491" lat="53.699718">
        <ele>692.745</ele>
        <time>2026-03-19T12:22:50.536Z</time>
      </trkpt>
      <trkpt lon="8.055623" lat="53.693276">
        <ele>713.612</ele>
        <time>2026-03-19T12:23:05.840Z</time>
      </trkpt>
      <trkpt lon="8.060377" lat="53.690129">
        <ele>706.453</ele>
        <time>2026-03-19T12:23:13.800Z</time>
      </trkpt>
      <trkpt lon="8.073970" lat="53.682471">
        <ele>735.939</ele>
        <time>2026-03-19T12:23:35.096Z</time>
      </trkpt>
      <trkpt lon="8.088495" lat="53.674681">
        <ele>744.433</ele>
        <time>2026-03-19T12:23:56.932Z</time>
      </trkpt>
      <trkpt lon="8.091219" lat="53.672844">
        <ele>746.783</ele>
        <time>2026-03-19T12:24:01.560Z</time>
      </trkpt>
      <trkpt lon="8.102932" lat="53.663693">
        <ele>749.243</ele>
        <time>2026-03-19T12:24:22.972Z</time>
      </trkpt>
      <trkpt lon="8.112693" lat="53.655442">
        <ele>752.643</ele>
        <time>2026-03-19T12:24:41.772Z</time>
      </trkpt>
      <trkpt lon="8.123426" lat="53.647766">
        <ele>754.512</ele>
        <time>2026-03-19T12:25:00.412Z</time>
      </trkpt>
      <trkpt lon="8.127997" lat="53.643536">
        <ele>754.216</ele>
        <time>2026-03-19T12:25:09.716Z</time>
      </trkpt>
      <trkpt lon="8.132288" lat="53.638800">
        <ele>759.776</ele>
        <time>2026-03-19T12:25:19.652Z</time>
      </trkpt>
      <trkpt lon="8.143589" lat="53.623970">
        <ele>771.283</ele>
        <time>2026-03-19T12:25:49.736Z</time>
      </trkpt>
      <trkpt lon="8.154273" lat="53.608951">
        <ele>782.336</ele>
        <time>2026-03-19T12:26:19.744Z</time>
      </trkpt>
      <trkpt lon="8.155381" lat="53.607673">
        <ele>781.959</ele>
        <time>2026-03-19T12:26:22.404Z</time>
      </trkpt>
      <trkpt lon="8.156379" lat="53.606759">
        <ele>780.333</ele>
        <time>2026-03-19T12:26:24.424Z</time>
      </trkpt>
      <trkpt lon="8.157531" lat="53.605897">
        <ele>777.415</ele>
        <time>2026-03-19T12:26:26.472Z</time>
      </trkpt>
      <trkpt lon="8.158772" lat="53.605127">
        <ele>772.216</ele>
        <time>2026-03-19T12:26:28.508Z</time>
      </trkpt>
      <trkpt lon="8.160464" lat="53.604260">
        <ele>760.649</ele>
        <time>2026-03-19T12:26:31.096Z</time>
      </trkpt>
      <trkpt lon="8.162320" lat="53.603482">
        <ele>743.186</ele>
        <time>2026-03-19T12:26:33.752Z</time>
      </trkpt>
      <trkpt lon="8.164268" lat="53.602821">
        <ele>721.901</ele>
        <time>2026-03-19T12:26:36.380Z</time>
      </trkpt>
      <trkpt lon="8.166405" lat="53.602248">
        <ele>697.075</ele>
        <time>2026-03-19T12:26:39.104Z</time>
      </trkpt>
      <trkpt lon="8.169090" lat="53.601702">
        <ele>665.196</ele>
        <time>2026-03-19T12:26:42.428Z</time>
      </trkpt>
      <trkpt lon="8.170762" lat="53.601500">
        <ele>645.406</ele>
        <time>2026-03-19T12:26:44.416Z</time>
      </trkpt>
      <trkpt lon="8.171892" lat="53.601436">
        <ele>631.648</ele>
        <time>2026-03-19T12:26:45.756Z</time>
      </trkpt>
      <trkpt lon="8.173072" lat="53.601439">
        <ele>616.742</ele>
        <time>2026-03-19T12:26:47.148Z</time>
      </trkpt>
      <trkpt lon="8.174195" lat="53.601514">
        <ele>601.923</ele>
        <time>2026-03-19T12:26:48.488Z</time>
      </trkpt>
      <trkpt lon="8.175288" lat="53.601655">
        <ele>586.79</ele>
        <time>2026-03-19T12:26:49.824Z</time>
      </trkpt>
      <trkpt lon="8.176877" lat="53.601976">
        <ele>564.482</ele>
        <time>2026-03-19T12:26:51.824Z</time>
      </trkpt>
      <trkpt lon="8.178363" lat="53.602407">
        <ele>544.508</ele>
        <time>2026-03-19T12:26:53.804Z</time>
      </trkpt>
      <trkpt lon="8.179325" lat="53.602777">
        <ele>531.565</ele>
        <time>2026-03-19T12:26:55.196Z</time>
      </trkpt>
      <trkpt lon="8.180143" lat="53.603173">
        <ele>519.906</ele>
        <time>2026-03-19T12:26:56.492Z</time>
      </trkpt>
      <trkpt lon="8.180880" lat="53.603624">
        <ele>507.987</ele>
        <time>2026-03-19T12:26:57.816Z</time>
      </trkpt>
      <trkpt lon="8.181522" lat="53.604134">
        <ele>495.241</ele>
        <time>2026-03-19T12:26:59.176Z</time>
      </trkpt>
      <trkpt lon="8.182049" lat="53.604682">
        <ele>482.121</ele>
        <time>2026-03-19T12:27:00.544Z</time>
      </trkpt>
      <trkpt lon="8.183802" lat="53.606860">
        <ele>445.374</ele>
        <time>2026-03-19T12:27:05.848Z</time>
      </trkpt>
      <trkpt lon="8.186362" lat="53.609895">
        <ele>412.153</ele>
        <time>2026-03-19T12:27:13.784Z</time>
      </trkpt>
      <trkpt lon="8.186785" lat="53.610687">
        <ele>400.927</ele>
        <time>2026-03-19T12:27:15.812Z</time>
      </trkpt>
      <trkpt lon="8.187311" lat="53.612273">
        <ele>371.813</ele>
        <time>2026-03-19T12:27:19.780Z</time>
      </trkpt>
      <trkpt lon="8.187700" lat="53.613918">
        <ele>338.493</ele>
        <time>2026-03-19T12:27:23.776Z</time>
      </trkpt>
      <trkpt lon="8.187735" lat="53.614751">
        <ele>322.299</ele>
        <time>2026-03-19T12:27:25.760Z</time>
      </trkpt>
      <trkpt lon="8.187638" lat="53.615311">
        <ele>311.79</ele>
        <time>2026-03-19T12:27:27.092Z</time>
      </trkpt>
      <trkpt lon="8.187426" lat="53.615873">
        <ele>299.628</ele>
        <time>2026-03-19T12:27:28.448Z</time>
      </trkpt>
      <trkpt lon="8.187068" lat="53.616405">
        <ele>284.92</ele>
        <time>2026-03-19T12:27:29.772Z</time>
      </trkpt>
      <trkpt lon="8.186550" lat="53.616918">
        <ele>267.63</ele>
        <time>2026-03-19T12:27:31.108Z</time>
      </trkpt>
      <trkpt lon="8.185890" lat="53.617397">
        <ele>248.804</ele>
        <time>2026-03-19T12:27:32.444Z</time>
      </trkpt>
      <trkpt lon="8.185506" lat="53.617621">
        <ele>238.943</ele>
        <time>2026-03-19T12:27:33.104Z</time>
      </trkpt>
      <trkpt lon="8.185057" lat="53.617837">
        <ele>228.402</ele>
        <time>2026-03-19T12:27:33.800Z</time>
      </trkpt>
      <trkpt lon="8.184573" lat="53.618019">
        <ele>218.947</ele>
        <time>2026-03-19T12:27:34.468Z</time>
      </trkpt>
      <trkpt lon="8.184058" lat="53.618160">
        <ele>211.179</ele>
        <time>2026-03-19T12:27:35.120Z</time>
      </trkpt>
      <trkpt lon="8.183478" lat="53.618259">
        <ele>205.194</ele>
        <time>2026-03-19T12:27:35.800Z</time>
      </trkpt>
      <trkpt lon="8.182859" lat="53.618301">
        <ele>201.46</ele>
        <time>2026-03-19T12:27:36.480Z</time>
      </trkpt>
      <trkpt lon="8.182256" lat="53.618281">
        <ele>199.926</ele>
        <time>2026-03-19T12:27:37.136Z</time>
      </trkpt>
      <trkpt lon="8.181684" lat="53.618204">
        <ele>200.251</ele>
        <time>2026-03-19T12:27:37.780Z</time>
      </trkpt>
      <trkpt lon="8.181108" lat="53.618058">
        <ele>202.316</ele>
        <time>2026-03-19T12:27:38.476Z</time>
      </trkpt>
      <trkpt lon="8.180627" lat="53.617868">
        <ele>205.512</ele>
        <time>2026-03-19T12:27:39.124Z</time>
      </trkpt>
      <trkpt lon="8.180226" lat="53.617637">
        <ele>209.292</ele>
        <time>2026-03-19T12:27:39.764Z</time>
      </trkpt>
      <trkpt lon="8.179891" lat="53.617355">
        <ele>213.523</ele>
        <time>2026-03-19T12:27:40.452Z</time>
      </trkpt>
      <trkpt lon="8.179652" lat="53.617050">
        <ele>217.328</ele>
        <time>2026-03-19T12:27:41.132Z</time>
      </trkpt>
      <trkpt lon="8.179499" lat="53.616737">
        <ele>219.377</ele>
        <time>2026-03-19T12:27:41.812Z</time>
      </trkpt>
      <trkpt lon="8.179418" lat="53.616428">
        <ele>218.845</ele>
        <time>2026-03-19T12:27:42.452Z</time>
      </trkpt>
      <trkpt lon="8.179427" lat="53.615791">
        <ele>209.002</ele>
        <time>2026-03-19T12:27:43.796Z</time>
      </trkpt>
      <trkpt lon="8.179494" lat="53.615477">
        <ele>200.1</ele>
        <time>2026-03-19T12:27:44.460Z</time>
      </trkpt>
      <trkpt lon="8.179741" lat="53.614855">
        <ele>176.802</ele>
        <time>2026-03-19T12:27:45.792Z</time>
      </trkpt>
      <trkpt lon="8.179924" lat="53.614536">
        <ele>164.157</ele>
        <time>2026-03-19T12:27:46.468Z</time>
      </trkpt>
      <trkpt lon="8.180422" lat="53.613910">
        <ele>151.03</ele>
        <time>2026-03-19T12:27:47.780Z</time>
      </trkpt>
      <trkpt lon="8.181025" lat="53.613302">
        <ele>156.361</ele>
        <time>2026-03-19T12:27:49.128Z</time>
      </trkpt>
      <trkpt lon="8.181626" lat="53.612771">
        <ele>172.05</ele>
        <time>2026-03-19T12:27:50.460Z</time>
      </trkpt>
      <trkpt lon="8.182233" lat="53.612317">
        <ele>187.806</ele>
        <time>2026-03-19T12:27:51.772Z</time>
      </trkpt>
      <trkpt lon="8.183809" lat="53.611396">
        <ele>212.73</ele>
        <time>2026-03-19T12:27:55.128Z</time>
      </trkpt>
      <trkpt lon="8.184415" lat="53.611046">
        <ele>214.022</ele>
        <time>2026-03-19T12:27:56.472Z</time>
      </trkpt>
      <trkpt lon="8.184977" lat="53.610682">
        <ele>215.5</ele>
        <time>2026-03-19T12:27:57.736Z</time>
      </trkpt>
      <trkpt lon="8.185542" lat="53.610256">
        <ele>218.691</ele>
        <time>2026-03-19T12:27:59.084Z</time>
      </trkpt>
      <trkpt lon="8.186283" lat="53.609552">
        <ele>223.741</ele>
        <time>2026-03-19T12:28:01.072Z</time>
      </trkpt>
      <trkpt lon="8.186892" lat="53.608777">
        <ele>227.357</ele>
        <time>2026-03-19T12:28:03.088Z</time>
      </trkpt>
      <trkpt lon="8.187405" lat="53.607928">
        <ele>226.061</ele>
        <time>2026-03-19T12:28:05.068Z</time>
      </trkpt>
      <trkpt lon="8.188097" lat="53.606414">
        <ele>218.113</ele>
        <time>2026-03-19T12:28:08.364Z</time>
      </trkpt>
      <trkpt lon="8.188599" lat="53.604767">
        <ele>216.081</ele>
        <time>2026-03-19T12:28:11.688Z</time>
      </trkpt>
      <trkpt lon="8.188801" lat="53.603394">
        <ele>217.856</ele>
        <time>2026-03-19T12:28:14.384Z</time>
      </trkpt>
      <trkpt lon="8.188804" lat="53.601363">
        <ele>222.831</ele>
        <time>2026-03-19T12:28:18.352Z</time>
      </trkpt>
      <trkpt lon="8.187957" lat="53.593228">
        <ele>250.551</ele>
        <time>2026-03-19T12:28:34.300Z</time>
      </trkpt>
      <trkpt lon="8.187482" lat="53.588857">
        <ele>280.076</ele>
        <time>2026-03-19T12:28:43.064Z</time>
      </trkpt>
      <trkpt lon="8.187097" lat="53.585245">
        <ele>310.006</ele>
        <time>2026-03-19T12:28:50.476Z</time>
      </trkpt>
      <trkpt lon="8.186301" lat="53.579998">
        <ele>341.643</ele>
        <time>2026-03-19T12:29:01.156Z</time>
      </trkpt>
      <trkpt lon="8.185366" lat="53.574702">
        <ele>368.785</ele>
        <time>2026-03-19T12:29:11.928Z</time>
      </trkpt>
      <trkpt lon="8.185076" lat="53.568745">
        <ele>359.849</ele>
        <time>2026-03-19T12:29:23.256Z</time>
      </trkpt>
      <trkpt lon="8.184869" lat="53.557268">
        <ele>392.538</ele>
        <time>2026-03-19T12:29:44.692Z</time>
      </trkpt>
      <trkpt lon="8.185001" lat="53.545275">
        <ele>413.591</ele>
        <time>2026-03-19T12:30:06.896Z</time>
      </trkpt>
      <trkpt lon="8.184326" lat="53.536935">
        <ele>426.842</ele>
        <time>2026-03-19T12:30:22.264Z</time>
      </trkpt>
      <trkpt lon="8.182957" lat="53.531623">
        <ele>441.672</ele>
        <time>2026-03-19T12:30:32.232Z</time>
      </trkpt>
      <trkpt lon="8.181606" lat="53.528542">
        <ele>445.912</ele>
        <time>2026-03-19T12:30:38.212Z</time>
      </trkpt>
      <trkpt lon="8.180463" lat="53.526489">
        <ele>445.308</ele>
        <time>2026-03-19T12:30:42.244Z</time>
      </trkpt>
      <trkpt lon="8.179488" lat="53.525182">
        <ele>442.268</ele>
        <time>2026-03-19T12:30:44.884Z</time>
      </trkpt>
      <trkpt lon="8.178301" lat="53.523957">
        <ele>438.577</ele>
        <time>2026-03-19T12:30:47.484Z</time>
      </trkpt>
      <trkpt lon="8.164253" lat="53.510610">
        <ele>464.161</ele>
        <time>2026-03-19T12:31:17.028Z</time>
      </trkpt>
      <trkpt lon="8.162376" lat="53.509253">
        <ele>464.513</ele>
        <time>2026-03-19T12:31:20.336Z</time>
      </trkpt>
      <trkpt lon="8.154541" lat="53.504480">
        <ele>470.753</ele>
        <time>2026-03-19T12:31:32.944Z</time>
      </trkpt>
      <trkpt lon="8.151418" lat="53.502918">
        <ele>475.972</ele>
        <time>2026-03-19T12:31:37.636Z</time>
      </trkpt>
      <trkpt lon="8.140208" lat="53.497766">
        <ele>482.446</ele>
        <time>2026-03-19T12:31:54.160Z</time>
      </trkpt>
      <trkpt lon="8.139063" lat="53.496999">
        <ele>480.922</ele>
        <time>2026-03-19T12:31:56.204Z</time>
      </trkpt>
      <trkpt lon="8.137204" lat="53.495777">
        <ele>473.89</ele>
        <time>2026-03-19T12:31:59.492Z</time>
      </trkpt>
      <trkpt lon="8.135963" lat="53.495125">
        <ele>467.476</ele>
        <time>2026-03-19T12:32:01.460Z</time>
      </trkpt>
      <trkpt lon="8.134208" lat="53.494375">
        <ele>453.027</ele>
        <time>2026-03-19T12:32:04.020Z</time>
      </trkpt>
      <trkpt lon="8.131701" lat="53.493529">
        <ele>428.221</ele>
        <time>2026-03-19T12:32:07.336Z</time>
      </trkpt>
      <trkpt lon="8.129012" lat="53.492799">
        <ele>405.234</ele>
        <time>2026-03-19T12:32:10.660Z</time>
      </trkpt>
      <trkpt lon="8.125595" lat="53.492090">
        <ele>386.366</ele>
        <time>2026-03-19T12:32:14.680Z</time>
      </trkpt>
      <trkpt lon="8.122272" lat="53.491607">
        <ele>380.027</ele>
        <time>2026-03-19T12:32:18.600Z</time>
      </trkpt>
      <trkpt lon="8.111007" lat="53.490326">
        <ele>365.136</ele>
        <time>2026-03-19T12:32:32.536Z</time>
      </trkpt>
      <trkpt lon="8.107418" lat="53.490177">
        <ele>366.106</ele>
        <time>2026-03-19T12:32:37.136Z</time>
      </trkpt>
      <trkpt lon="8.101791" lat="53.489993">
        <ele>364.633</ele>
        <time>2026-03-19T12:32:44.620Z</time>
      </trkpt>
      <trkpt lon="8.100294" lat="53.489815">
        <ele>361.497</ele>
        <time>2026-03-19T12:32:46.616Z</time>
      </trkpt>
      <trkpt lon="8.098318" lat="53.489456">
        <ele>357.062</ele>
        <time>2026-03-19T12:32:49.240Z</time>
      </trkpt>
      <trkpt lon="8.096314" lat="53.488964">
        <ele>352.101</ele>
        <time>2026-03-19T12:32:51.944Z</time>
      </trkpt>
      <trkpt lon="8.094379" lat="53.488364">
        <ele>347.691</ele>
        <time>2026-03-19T12:32:54.616Z</time>
      </trkpt>
      <trkpt lon="8.092989" lat="53.487830">
        <ele>344.961</ele>
        <time>2026-03-19T12:32:56.616Z</time>
      </trkpt>
      <trkpt lon="8.091190" lat="53.486996">
        <ele>339.866</ele>
        <time>2026-03-19T12:32:59.308Z</time>
      </trkpt>
      <trkpt lon="8.089980" lat="53.486302">
        <ele>339.191</ele>
        <time>2026-03-19T12:33:01.264Z</time>
      </trkpt>
      <trkpt lon="8.089220" lat="53.485777">
        <ele>339.559</ele>
        <time>2026-03-19T12:33:02.624Z</time>
      </trkpt>
      <trkpt lon="8.088555" lat="53.485235">
        <ele>339.706</ele>
        <time>2026-03-19T12:33:03.928Z</time>
      </trkpt>
      <trkpt lon="8.087947" lat="53.484641">
        <ele>339.472</ele>
        <time>2026-03-19T12:33:05.284Z</time>
      </trkpt>
      <trkpt lon="8.087422" lat="53.484022">
        <ele>339.068</ele>
        <time>2026-03-19T12:33:06.628Z</time>
      </trkpt>
      <trkpt lon="8.086985" lat="53.483388">
        <ele>339.313</ele>
        <time>2026-03-19T12:33:07.952Z</time>
      </trkpt>
      <trkpt lon="8.086624" lat="53.482714">
        <ele>340.203</ele>
        <time>2026-03-19T12:33:09.328Z</time>
      </trkpt>
      <trkpt lon="8.086256" lat="53.481719">
        <ele>341.409</ele>
        <time>2026-03-19T12:33:11.316Z</time>
      </trkpt>
      <trkpt lon="8.085991" lat="53.480380">
        <ele>340.787</ele>
        <time>2026-03-19T12:33:13.960Z</time>
      </trkpt>
      <trkpt lon="8.085382" lat="53.476011">
        <ele>340.68</ele>
        <time>2026-03-19T12:33:22.588Z</time>
      </trkpt>
      <trkpt lon="8.085029" lat="53.475049">
        <ele>342.862</ele>
        <time>2026-03-19T12:33:24.552Z</time>
      </trkpt>
      <trkpt lon="8.084718" lat="53.474440">
        <ele>344.482</ele>
        <time>2026-03-19T12:33:25.836Z</time>
      </trkpt>
      <trkpt lon="8.084313" lat="53.473839">
        <ele>346.609</ele>
        <time>2026-03-19T12:33:27.164Z</time>
      </trkpt>
      <trkpt lon="8.083824" lat="53.473282">
        <ele>348.974</ele>
        <time>2026-03-19T12:33:28.464Z</time>
      </trkpt>
      <trkpt lon="8.083235" lat="53.472756">
        <ele>351.286</ele>
        <time>2026-03-19T12:33:29.792Z</time>
      </trkpt>
      <trkpt lon="8.082592" lat="53.472292">
        <ele>352.82</ele>
        <time>2026-03-19T12:33:31.080Z</time>
      </trkpt>
      <trkpt lon="8.081870" lat="53.471864">
        <ele>353.638</ele>
        <time>2026-03-19T12:33:32.408Z</time>
      </trkpt>
      <trkpt lon="8.081097" lat="53.471487">
        <ele>353.89</ele>
        <time>2026-03-19T12:33:33.696Z</time>
      </trkpt>
      <trkpt lon="8.080283" lat="53.471161">
        <ele>353.57</ele>
        <time>2026-03-19T12:33:34.984Z</time>
      </trkpt>
      <trkpt lon="8.079399" lat="53.470871">
        <ele>352.882</ele>
        <time>2026-03-19T12:33:36.328Z</time>
      </trkpt>
      <trkpt lon="8.078451" lat="53.470623">
        <ele>352.629</ele>
        <time>2026-03-19T12:33:37.700Z</time>
      </trkpt>
      <trkpt lon="8.077033" lat="53.470350">
        <ele>353.071</ele>
        <time>2026-03-19T12:33:39.720Z</time>
      </trkpt>
      <trkpt lon="8.075560" lat="53.470164">
        <ele>353.066</ele>
        <time>2026-03-19T12:33:41.792Z</time>
      </trkpt>
      <trkpt lon="8.074123" lat="53.470064">
        <ele>353.148</ele>
        <time>2026-03-19T12:33:43.808Z</time>
      </trkpt>
      <trkpt lon="8.072302" lat="53.470049">
        <ele>352.284</ele>
        <time>2026-03-19T12:33:46.404Z</time>
      </trkpt>
      <trkpt lon="8.069490" lat="53.470208">
        <ele>348.144</ele>
        <time>2026-03-19T12:33:50.420Z</time>
      </trkpt>
      <trkpt lon="8.052616" lat="53.471513">
        <ele>317.627</ele>
        <time>2026-03-19T12:34:14.540Z</time>
      </trkpt>
      <trkpt lon="8.049791" lat="53.471843">
        <ele>309.753</ele>
        <time>2026-03-19T12:34:18.544Z</time>
      </trkpt>
      <trkpt lon="8.047158" lat="53.472337">
        <ele>305.291</ele>
        <time>2026-03-19T12:34:22.484Z</time>
      </trkpt>
      <trkpt lon="8.045552" lat="53.472768">
        <ele>301.736</ele>
        <time>2026-03-19T12:34:25.088Z</time>
      </trkpt>
      <trkpt lon="8.044042" lat="53.473311">
        <ele>295.527</ele>
        <time>2026-03-19T12:34:27.748Z</time>
      </trkpt>
      <trkpt lon="8.043001" lat="53.473806">
        <ele>291.794</ele>
        <time>2026-03-19T12:34:29.760Z</time>
      </trkpt>
      <trkpt lon="8.042094" lat="53.474360">
        <ele>288.795</ele>
        <time>2026-03-19T12:34:31.748Z</time>
      </trkpt>
      <trkpt lon="8.041011" lat="53.475191">
        <ele>281.288</ele>
        <time>2026-03-19T12:34:34.468Z</time>
      </trkpt>
      <trkpt lon="8.040128" lat="53.476052">
        <ele>273.123</ele>
        <time>2026-03-19T12:34:37.136Z</time>
      </trkpt>
      <trkpt lon="8.039453" lat="53.476923">
        <ele>265.204</ele>
        <time>2026-03-19T12:34:39.756Z</time>
      </trkpt>
      <trkpt lon="8.039113" lat="53.477550">
        <ele>266.788</ele>
        <time>2026-03-19T12:34:41.784Z</time>
      </trkpt>
      <trkpt lon="8.038930" lat="53.478102">
        <ele>270.286</ele>
        <time>2026-03-19T12:34:43.764Z</time>
      </trkpt>
      <trkpt lon="8.038834" lat="53.478913">
        <ele>279.964</ele>
        <time>2026-03-19T12:34:47.196Z</time>
      </trkpt>
      <trkpt lon="8.038928" lat="53.480336">
        <ele>267.194</ele>
        <time>2026-03-19T12:34:53.964Z</time>
      </trkpt>
      <trkpt lon="8.039281" lat="53.481465">
        <ele>240.82</ele>
        <time>2026-03-19T12:34:58.700Z</time>
      </trkpt>
      <trkpt lon="8.039992" lat="53.483450">
        <ele>215.628</ele>
        <time>2026-03-19T12:35:06.636Z</time>
      </trkpt>
      <trkpt lon="8.040543" lat="53.485289">
        <ele>194.601</ele>
        <time>2026-03-19T12:35:14.084Z</time>
      </trkpt>
      <trkpt lon="8.040813" lat="53.485765">
        <ele>185.863</ele>
        <time>2026-03-19T12:35:16.068Z</time>
      </trkpt>
      <trkpt lon="8.041776" lat="53.487061">
        <ele>161.473</ele>
        <time>2026-03-19T12:35:21.468Z</time>
      </trkpt>
      <trkpt lon="8.042835" lat="53.488536">
        <ele>138.988</ele>
        <time>2026-03-19T12:35:27.452Z</time>
      </trkpt>
      <trkpt lon="8.043719" lat="53.489837">
        <ele>115.563</ele>
        <time>2026-03-19T12:35:32.800Z</time>
      </trkpt>
      <trkpt lon="8.044538" lat="53.490994">
        <ele>92.9949</ele>
        <time>2026-03-19T12:35:37.516Z</time>
      </trkpt>
      <trkpt lon="8.045255" lat="53.491969">
        <ele>74.1347</ele>
        <time>2026-03-19T12:35:41.484Z</time>
      </trkpt>
      <trkpt lon="8.045938" lat="53.493012">
        <ele>55.7861</ele>
        <time>2026-03-19T12:35:45.516Z</time>
      </trkpt>
      <trkpt lon="8.046667" lat="53.494025">
        <ele>45.5598</ele>
        <time>2026-03-19T12:35:49.516Z</time>
      </trkpt>
      <trkpt lon="8.048108" lat="53.496073">
        <ele>28.8916</ele>
        <time>2026-03-19T12:35:57.500Z</time>
      </trkpt>
      <trkpt lon="8.050169" lat="53.499088">
        <ele>13.1642</ele>
        <time>2026-03-19T12:36:09.424Z</time>
      </trkpt>
      <trkpt lon="8.050803" lat="53.499983">
        <ele>15.516</ele>
        <time>2026-03-19T12:36:13.440Z</time>
      </trkpt>
      <trkpt lon="8.052093" lat="53.501856">
        <ele>10.6209</ele>
        <time>2026-03-19T12:36:23.472Z</time>
      </trkpt>
      <trkpt lon="8.052191" lat="53.502104">
        <ele>10.452</ele>
        <time>2026-03-19T12:36:24.820Z</time>
      </trkpt>
      <trkpt lon="8.052207" lat="53.502356">
        <ele>9.60565</ele>
        <time>2026-03-19T12:36:26.164Z</time>
      </trkpt>
      <trkpt lon="8.052135" lat="53.502603">
        <ele>8.87571</ele>
        <time>2026-03-19T12:36:27.480Z</time>
      </trkpt>
      <trkpt lon="8.051989" lat="53.502840">
        <ele>9.09472</ele>
        <time>2026-03-19T12:36:28.788Z</time>
      </trkpt>
      <trkpt lon="8.050594" lat="53.504741">
        <ele>7.4121</ele>
        <time>2026-03-19T12:36:40.004Z</time>
      </trkpt>
      <trkpt lon="8.050352" lat="53.505073">
        <ele>6.88234</ele>
        <time>2026-03-19T12:36:42.640Z</time>
      </trkpt>
      <trkpt lon="8.050315" lat="53.505133">
        <ele>6.84894</ele>
        <time>2026-03-19T12:36:43.276Z</time>
      </trkpt>
      <trkpt lon="8.050294" lat="53.505197">
        <ele>6.81665</ele>
        <time>2026-03-19T12:36:43.944Z</time>
      </trkpt>
      <trkpt lon="8.050290" lat="53.505261">
        <ele>6.79615</ele>
        <time>2026-03-19T12:36:44.624Z</time>
      </trkpt>
      <trkpt lon="8.050296" lat="53.505320">
        <ele>6.79328</ele>
        <time>2026-03-19T12:36:45.260Z</time>
      </trkpt>
      <trkpt lon="8.050413" lat="53.505663">
        <ele>6.96014</ele>
        <time>2026-03-19T12:36:49.180Z</time>
      </trkpt>
      <trkpt lon="8.050703" lat="53.506365">
        <ele>6.97506</ele>
        <time>2026-03-19T12:36:58.524Z</time>
      </trkpt>
      <trkpt lon="8.050902" lat="53.506691">
        <ele>6.97023</ele>
        <time>2026-03-19T12:37:07.220Z</time>
      </trkpt>
      <trkpt lon="8.050924" lat="53.506715">
        <ele>6.97143</ele>
        <time>2026-03-19T12:37:07.876Z</time>
      </trkpt>
      <trkpt lon="8.050956" lat="53.506736">
        <ele>6.97032</ele>
        <time>2026-03-19T12:37:08.544Z</time>
      </trkpt>
      <trkpt lon="8.050994" lat="53.506751">
        <ele>6.96997</ele>
        <time>2026-03-19T12:37:09.212Z</time>
      </trkpt>
      <trkpt lon="8.051035" lat="53.506759">
        <ele>6.96859</ele>
        <time>2026-03-19T12:37:09.892Z</time>
      </trkpt>
      <trkpt lon="8.051077" lat="53.506761">
        <ele>6.96919</ele>
        <time>2026-03-19T12:37:10.568Z</time>
      </trkpt>
      <trkpt lon="8.051114" lat="53.506756">
        <ele>6.96708</ele>
        <time>2026-03-19T12:37:11.208Z</time>
      </trkpt>
      <trkpt lon="8.051149" lat="53.506746">
        <ele>6.96479</ele>
        <time>2026-03-19T12:37:11.856Z</time>
      </trkpt>
      <trkpt lon="8.051178" lat="53.506731">
        <ele>6.96688</ele>
        <time>2026-03-19T12:37:12.508Z</time>
      </trkpt>
      <trkpt lon="8.051199" lat="53.506713">
        <ele>6.96642</ele>
        <time>2026-03-19T12:37:13.156Z</time>
      </trkpt>
      <trkpt lon="8.051213" lat="53.506692">
        <ele>6.96551</ele>
        <time>2026-03-19T12:37:13.804Z</time>
      </trkpt>
      <trkpt lon="8.051217" lat="53.506668">
        <ele>6.96761</ele>
        <time>2026-03-19T12:37:14.520Z</time>
      </trkpt>
      <trkpt lon="8.051210" lat="53.506633">
        <ele>6.96513</ele>
        <time>2026-03-19T12:37:25.196Z</time>
      </trkpt>
    </trkseg>
    <trkseg>
      <trkpt lon="-84.771928" lat="37.580370">
        <ele>308.756</ele>
        <time>2026-03-20T16:14:29.924Z</time>
      </trkpt>
      <trkpt lon="-84.771912" lat="37.580376">
        <ele>308.808</ele>
        <time>2026-03-20T16:16:53.216Z</time>
      </trkpt>
      <trkpt lon="-84.771891" lat="37.580384">
        <ele>308.809</ele>
        <time>2026-03-20T16:23:49.640Z</time>
      </trkpt>
      <trkpt lon="-84.771876" lat="37.580392">
        <ele>308.809</ele>
        <time>2026-03-20T16:23:50.292Z</time>
      </trkpt>
      <trkpt lon="-84.771860" lat="37.580404">
        <ele>308.809</ele>
        <time>2026-03-20T16:23:50.928Z</time>
      </trkpt>
      <trkpt lon="-84.771845" lat="37.580419">
        <ele>308.812</ele>
        <time>2026-03-20T16:23:51.556Z</time>
      </trkpt>
      <trkpt lon="-84.771832" lat="37.580439">
        <ele>308.813</ele>
        <time>2026-03-20T16:23:52.188Z</time>
      </trkpt>
      <trkpt lon="-84.771822" lat="37.580463">
        <ele>308.809</ele>
        <time>2026-03-20T16:23:52.836Z</time>
      </trkpt>
      <trkpt lon="-84.771768" lat="37.580720">
        <ele>308.804</ele>
        <time>2026-03-20T16:23:57.284Z</time>
      </trkpt>
      <trkpt lon="-84.771729" lat="37.580808">
        <ele>308.805</ele>
        <time>2026-03-20T16:23:58.564Z</time>
      </trkpt>
      <trkpt lon="-84.771700" lat="37.580869">
        <ele>308.802</ele>
        <time>2026-03-20T16:23:59.832Z</time>
      </trkpt>
      <trkpt lon="-84.771693" lat="37.580893">
        <ele>308.797</ele>
        <time>2026-03-20T16:24:00.468Z</time>
      </trkpt>
      <trkpt lon="-84.771693" lat="37.580912">
        <ele>308.801</ele>
        <time>2026-03-20T16:24:01.104Z</time>
      </trkpt>
      <trkpt lon="-84.771698" lat="37.580929">
        <ele>308.798</ele>
        <time>2026-03-20T16:24:01.736Z</time>
      </trkpt>
      <trkpt lon="-84.771709" lat="37.580948">
        <ele>308.798</ele>
        <time>2026-03-20T16:24:02.376Z</time>
      </trkpt>
      <trkpt lon="-84.771727" lat="37.580966">
        <ele>308.803</ele>
        <time>2026-03-20T16:24:03.016Z</time>
      </trkpt>
      <trkpt lon="-84.771752" lat="37.580981">
        <ele>308.8</ele>
        <time>2026-03-20T16:24:03.652Z</time>
      </trkpt>
      <trkpt lon="-84.772120" lat="37.581160">
        <ele>308.794</ele>
        <time>2026-03-20T16:24:10.008Z</time>
      </trkpt>
      <trkpt lon="-84.772200" lat="37.581216">
        <ele>308.795</ele>
        <time>2026-03-20T16:24:11.296Z</time>
      </trkpt>
      <trkpt lon="-84.772276" lat="37.581281">
        <ele>308.79</ele>
        <time>2026-03-20T16:24:12.580Z</time>
      </trkpt>
      <trkpt lon="-84.772346" lat="37.581355">
        <ele>308.786</ele>
        <time>2026-03-20T16:24:13.852Z</time>
      </trkpt>
      <trkpt lon="-84.772409" lat="37.581441">
        <ele>308.783</ele>
        <time>2026-03-20T16:24:15.128Z</time>
      </trkpt>
      <trkpt lon="-84.772501" lat="37.581591">
        <ele>308.773</ele>
        <time>2026-03-20T16:24:17.664Z</time>
      </trkpt>
      <trkpt lon="-84.772582" lat="37.581741">
        <ele>308.773</ele>
        <time>2026-03-20T16:24:21.488Z</time>
      </trkpt>
      <trkpt lon="-84.772601" lat="37.581800">
        <ele>308.775</ele>
        <time>2026-03-20T16:24:22.756Z</time>
      </trkpt>
      <trkpt lon="-84.772611" lat="37.581897">
        <ele>308.767</ele>
        <time>2026-03-20T16:24:24.660Z</time>
      </trkpt>
      <trkpt lon="-84.772594" lat="37.582112">
        <ele>308.768</ele>
        <time>2026-03-20T16:24:27.832Z</time>
      </trkpt>
      <trkpt lon="-84.772574" lat="37.582399">
        <ele>308.752</ele>
        <time>2026-03-20T16:24:31.056Z</time>
      </trkpt>
      <trkpt lon="-84.772586" lat="37.582452">
        <ele>308.791</ele>
        <time>2026-03-20T16:24:31.684Z</time>
      </trkpt>
      <trkpt lon="-84.772608" lat="37.582498">
        <ele>308.805</ele>
        <time>2026-03-20T16:24:32.320Z</time>
      </trkpt>
      <trkpt lon="-84.772759" lat="37.582769">
        <ele>308.817</ele>
        <time>2026-03-20T16:24:36.776Z</time>
      </trkpt>
      <trkpt lon="-84.772954" lat="37.583267">
        <ele>308.79</ele>
        <time>2026-03-20T16:24:44.420Z</time>
      </trkpt>
      <trkpt lon="-84.772980" lat="37.583302">
        <ele>308.881</ele>
        <time>2026-03-20T16:24:45.060Z</time>
      </trkpt>
      <trkpt lon="-84.773014" lat="37.583334">
        <ele>308.869</ele>
        <time>2026-03-20T16:24:45.712Z</time>
      </trkpt>
      <trkpt lon="-84.773097" lat="37.583387">
        <ele>308.929</ele>
        <time>2026-03-20T16:24:47.008Z</time>
      </trkpt>
      <trkpt lon="-84.773131" lat="37.583406">
        <ele>308.938</ele>
        <time>2026-03-20T16:24:47.648Z</time>
      </trkpt>
      <trkpt lon="-84.773196" lat="37.583432">
        <ele>308.624</ele>
        <time>2026-03-20T16:24:48.936Z</time>
      </trkpt>
      <trkpt lon="-84.773261" lat="37.583447">
        <ele>308.776</ele>
        <time>2026-03-20T16:24:50.208Z</time>
      </trkpt>
      <trkpt lon="-84.773314" lat="37.583455">
        <ele>308.894</ele>
        <time>2026-03-20T16:24:51.484Z</time>
      </trkpt>
      <trkpt lon="-84.773391" lat="37.583462">
        <ele>309.04</ele>
        <time>2026-03-20T16:25:01.664Z</time>
      </trkpt>
      <trkpt lon="-84.773439" lat="37.583463">
        <ele>309.084</ele>
        <time>2026-03-20T16:25:03.576Z</time>
      </trkpt>
      <trkpt lon="-84.773461" lat="37.583461">
        <ele>309.111</ele>
        <time>2026-03-20T16:25:04.228Z</time>
      </trkpt>
      <trkpt lon="-84.773484" lat="37.583456">
        <ele>309.155</ele>
        <time>2026-03-20T16:25:04.876Z</time>
      </trkpt>
      <trkpt lon="-84.773508" lat="37.583447">
        <ele>309.172</ele>
        <time>2026-03-20T16:25:05.508Z</time>
      </trkpt>
      <trkpt lon="-84.773530" lat="37.583433">
        <ele>309.188</ele>
        <time>2026-03-20T16:25:06.144Z</time>
      </trkpt>
      <trkpt lon="-84.773549" lat="37.583414">
        <ele>309.193</ele>
        <time>2026-03-20T16:25:06.776Z</time>
      </trkpt>
      <trkpt lon="-84.773567" lat="37.583385">
        <ele>309.218</ele>
        <time>2026-03-20T16:25:07.424Z</time>
      </trkpt>
      <trkpt lon="-84.773611" lat="37.583275">
        <ele>309.283</ele>
        <time>2026-03-20T16:25:08.732Z</time>
      </trkpt>
      <trkpt lon="-84.773676" lat="37.583108">
        <ele>309.354</ele>
        <time>2026-03-20T16:25:10.004Z</time>
      </trkpt>
      <trkpt lon="-84.773749" lat="37.582747">
        <ele>310.635</ele>
        <time>2026-03-20T16:25:11.904Z</time>
      </trkpt>
      <trkpt lon="-84.773746" lat="37.582189">
        <ele>333.24</ele>
        <time>2026-03-20T16:25:14.460Z</time>
      </trkpt>
      <trkpt lon="-84.773717" lat="37.581947">
        <ele>351.674</ele>
        <time>2026-03-20T16:25:15.724Z</time>
      </trkpt>
      <trkpt lon="-84.773664" lat="37.581735">
        <ele>372.233</ele>
        <time>2026-03-20T16:25:17.000Z</time>
      </trkpt>
      <trkpt lon="-84.773588" lat="37.581563">
        <ele>393.256</ele>
        <time>2026-03-20T16:25:18.268Z</time>
      </trkpt>
      <trkpt lon="-84.773496" lat="37.581425">
        <ele>413.898</ele>
        <time>2026-03-20T16:25:19.544Z</time>
      </trkpt>
      <trkpt lon="-84.773345" lat="37.581263">
        <ele>441.467</ele>
        <time>2026-03-20T16:25:21.448Z</time>
      </trkpt>
      <trkpt lon="-84.773154" lat="37.581041">
        <ele>466.089</ele>
        <time>2026-03-20T16:25:23.988Z</time>
      </trkpt>
      <trkpt lon="-84.772977" lat="37.580599">
        <ele>480.817</ele>
        <time>2026-03-20T16:25:27.192Z</time>
      </trkpt>
      <trkpt lon="-84.772797" lat="37.579883">
        <ele>505.809</ele>
        <time>2026-03-20T16:25:31.004Z</time>
      </trkpt>
      <trkpt lon="-84.772639" lat="37.579394">
        <ele>534.348</ele>
        <time>2026-03-20T16:25:33.544Z</time>
      </trkpt>
      <trkpt lon="-84.772503" lat="37.579081">
        <ele>561.109</ele>
        <time>2026-03-20T16:25:35.456Z</time>
      </trkpt>
      <trkpt lon="-84.772332" lat="37.578736">
        <ele>596.243</ele>
        <time>2026-03-20T16:25:37.992Z</time>
      </trkpt>
      <trkpt lon="-84.772155" lat="37.578432">
        <ele>628.395</ele>
        <time>2026-03-20T16:25:40.532Z</time>
      </trkpt>
      <trkpt lon="-84.771830" lat="37.577913">
        <ele>658.814</ele>
        <time>2026-03-20T16:25:44.348Z</time>
      </trkpt>
      <trkpt lon="-84.771593" lat="37.577432">
        <ele>661.859</ele>
        <time>2026-03-20T16:25:46.888Z</time>
      </trkpt>
      <trkpt lon="-84.771317" lat="37.576827">
        <ele>659.065</ele>
        <time>2026-03-20T16:25:49.444Z</time>
      </trkpt>
      <trkpt lon="-84.771208" lat="37.576667">
        <ele>658.114</ele>
        <time>2026-03-20T16:25:50.072Z</time>
      </trkpt>
      <trkpt lon="-84.771061" lat="37.576507">
        <ele>657.053</ele>
        <time>2026-03-20T16:25:50.704Z</time>
      </trkpt>
      <trkpt lon="-84.770868" lat="37.576353">
        <ele>655.723</ele>
        <time>2026-03-20T16:25:51.352Z</time>
      </trkpt>
      <trkpt lon="-84.770631" lat="37.576216">
        <ele>654.406</ele>
        <time>2026-03-20T16:25:51.988Z</time>
      </trkpt>
      <trkpt lon="-84.770351" lat="37.576110">
        <ele>652.231</ele>
        <time>2026-03-20T16:25:52.616Z</time>
      </trkpt>
      <trkpt lon="-84.770027" lat="37.576038">
        <ele>649.113</ele>
        <time>2026-03-20T16:25:53.264Z</time>
      </trkpt>
      <trkpt lon="-84.769671" lat="37.576013">
        <ele>646.277</ele>
        <time>2026-03-20T16:25:53.904Z</time>
      </trkpt>
      <trkpt lon="-84.769295" lat="37.576035">
        <ele>644.418</ele>
        <time>2026-03-20T16:25:54.548Z</time>
      </trkpt>
      <trkpt lon="-84.768917" lat="37.576105">
        <ele>644.415</ele>
        <time>2026-03-20T16:25:55.176Z</time>
      </trkpt>
      <trkpt lon="-84.768551" lat="37.576222">
        <ele>646.041</ele>
        <time>2026-03-20T16:25:55.816Z</time>
      </trkpt>
      <trkpt lon="-84.768216" lat="37.576382">
        <ele>648.84</ele>
        <time>2026-03-20T16:25:56.444Z</time>
      </trkpt>
      <trkpt lon="-84.767916" lat="37.576581">
        <ele>652.591</ele>
        <time>2026-03-20T16:25:57.076Z</time>
      </trkpt>
      <trkpt lon="-84.767660" lat="37.576812">
        <ele>656.934</ele>
        <time>2026-03-20T16:25:57.712Z</time>
      </trkpt>
      <trkpt lon="-84.767454" lat="37.577068">
        <ele>661.477</ele>
        <time>2026-03-20T16:25:58.352Z</time>
      </trkpt>
      <trkpt lon="-84.767298" lat="37.577338">
        <ele>665.963</ele>
        <time>2026-03-20T16:25:58.980Z</time>
      </trkpt>
      <trkpt lon="-84.766953" lat="37.578172">
        <ele>676.485</ele>
        <time>2026-03-20T16:26:00.884Z</time>
      </trkpt>
      <trkpt lon="-84.766324" lat="37.579948">
        <ele>681.1</ele>
        <time>2026-03-20T16:26:04.688Z</time>
      </trkpt>
      <trkpt lon="-84.765228" lat="37.582599">
        <ele>676.383</ele>
        <time>2026-03-20T16:26:09.784Z</time>
      </trkpt>
      <trkpt lon="-84.762877" lat="37.588312">
        <ele>666.369</ele>
        <time>2026-03-20T16:26:19.948Z</time>
      </trkpt>
      <trkpt lon="-84.758055" lat="37.600492">
        <ele>634.786</ele>
        <time>2026-03-20T16:26:40.984Z</time>
      </trkpt>
      <trkpt lon="-84.753801" lat="37.611750">
        <ele>604.485</ele>
        <time>2026-03-20T16:27:01.304Z</time>
      </trkpt>
      <trkpt lon="-84.748294" lat="37.626686">
        <ele>584.054</ele>
        <time>2026-03-20T16:27:29.300Z</time>
      </trkpt>
      <trkpt lon="-84.744691" lat="37.637724">
        <ele>578.505</ele>
        <time>2026-03-20T16:27:50.972Z</time>
      </trkpt>
      <trkpt lon="-84.744123" lat="37.639021">
        <ele>577.479</ele>
        <time>2026-03-20T16:27:53.520Z</time>
      </trkpt>
      <trkpt lon="-84.742304" lat="37.642564">
        <ele>573.195</ele>
        <time>2026-03-20T16:28:00.536Z</time>
      </trkpt>
      <trkpt lon="-84.741860" lat="37.643911">
        <ele>570.924</ele>
        <time>2026-03-20T16:28:03.080Z</time>
      </trkpt>
      <trkpt lon="-84.737483" lat="37.660533">
        <ele>557.113</ele>
        <time>2026-03-20T16:28:33.676Z</time>
      </trkpt>
      <trkpt lon="-84.732630" lat="37.676230">
        <ele>540.889</ele>
        <time>2026-03-20T16:29:03.680Z</time>
      </trkpt>
      <trkpt lon="-84.730913" lat="37.680947">
        <ele>535.565</ele>
        <time>2026-03-20T16:29:13.236Z</time>
      </trkpt>
      <trkpt lon="-84.727690" lat="37.688350">
        <ele>531.331</ele>
        <time>2026-03-20T16:29:27.828Z</time>
      </trkpt>
      <trkpt lon="-84.722896" lat="37.697507">
        <ele>537.319</ele>
        <time>2026-03-20T16:29:46.272Z</time>
      </trkpt>
      <trkpt lon="-84.716401" lat="37.708967">
        <ele>524.5</ele>
        <time>2026-03-20T16:30:08.584Z</time>
      </trkpt>
      <trkpt lon="-84.715018" lat="37.711112">
        <ele>525.352</ele>
        <time>2026-03-20T16:30:13.048Z</time>
      </trkpt>
      <trkpt lon="-84.713324" lat="37.713339">
        <ele>523.294</ele>
        <time>2026-03-20T16:30:18.160Z</time>
      </trkpt>
      <trkpt lon="-84.708382" lat="37.719185">
        <ele>514.438</ele>
        <time>2026-03-20T16:30:31.552Z</time>
      </trkpt>
      <trkpt lon="-84.695871" lat="37.733335">
        <ele>500.059</ele>
        <time>2026-03-20T16:31:02.124Z</time>
      </trkpt>
      <trkpt lon="-84.690971" lat="37.738646">
        <ele>495.351</ele>
        <time>2026-03-20T16:31:13.588Z</time>
      </trkpt>
      <trkpt lon="-84.690296" lat="37.739563">
        <ele>492.546</ele>
        <time>2026-03-20T16:31:15.500Z</time>
      </trkpt>
      <trkpt lon="-84.689742" lat="37.740530">
        <ele>490.231</ele>
        <time>2026-03-20T16:31:17.400Z</time>
      </trkpt>
      <trkpt lon="-84.689167" lat="37.741874">
        <ele>488.855</ele>
        <time>2026-03-20T16:31:19.936Z</time>
      </trkpt>
      <trkpt lon="-84.683958" lat="37.756418">
        <ele>469.182</ele>
        <time>2026-03-20T16:31:46.752Z</time>
      </trkpt>
      <trkpt lon="-84.677707" lat="37.771429">
        <ele>462.83</ele>
        <time>2026-03-20T16:32:16.784Z</time>
      </trkpt>
      <trkpt lon="-84.672142" lat="37.784452">
        <ele>460.721</ele>
        <time>2026-03-20T16:32:41.560Z</time>
      </trkpt>
      <trkpt lon="-84.670883" lat="37.787411">
        <ele>473.679</ele>
        <time>2026-03-20T16:32:47.272Z</time>
      </trkpt>
      <trkpt lon="-84.668606" lat="37.792569">
        <ele>500.442</ele>
        <time>2026-03-20T16:32:57.528Z</time>
      </trkpt>
      <trkpt lon="-84.666916" lat="37.796226">
        <ele>527.428</ele>
        <time>2026-03-20T16:33:05.152Z</time>
      </trkpt>
      <trkpt lon="-84.664724" lat="37.801113">
        <ele>558.886</ele>
        <time>2026-03-20T16:33:15.320Z</time>
      </trkpt>
      <trkpt lon="-84.663763" lat="37.803229">
        <ele>575.624</ele>
        <time>2026-03-20T16:33:19.764Z</time>
      </trkpt>
      <trkpt lon="-84.661719" lat="37.807999">
        <ele>607.019</ele>
        <time>2026-03-20T16:33:29.320Z</time>
      </trkpt>
      <trkpt lon="-84.659718" lat="37.812896">
        <ele>629.753</ele>
        <time>2026-03-20T16:33:38.888Z</time>
      </trkpt>
      <trkpt lon="-84.656107" lat="37.820365">
        <ele>664.413</ele>
        <time>2026-03-20T16:33:53.532Z</time>
      </trkpt>
      <trkpt lon="-84.652859" lat="37.827621">
        <ele>705.477</ele>
        <time>2026-03-20T16:34:08.180Z</time>
      </trkpt>
      <trkpt lon="-84.650498" lat="37.833308">
        <ele>743.563</ele>
        <time>2026-03-20T16:34:19.648Z</time>
      </trkpt>
      <trkpt lon="-84.646899" lat="37.841419">
        <ele>785.695</ele>
        <time>2026-03-20T16:34:35.560Z</time>
      </trkpt>
      <trkpt lon="-84.643730" lat="37.848783">
        <ele>828.408</ele>
        <time>2026-03-20T16:34:50.228Z</time>
      </trkpt>
      <trkpt lon="-84.640489" lat="37.855561">
        <ele>862.663</ele>
        <time>2026-03-20T16:35:04.208Z</time>
      </trkpt>
      <trkpt lon="-84.639939" lat="37.856629">
        <ele>860.247</ele>
        <time>2026-03-20T16:35:06.760Z</time>
      </trkpt>
      <trkpt lon="-84.639354" lat="37.857903">
        <ele>841.567</ele>
        <time>2026-03-20T16:35:09.936Z</time>
      </trkpt>
      <trkpt lon="-84.638671" lat="37.859755">
        <ele>798.314</ele>
        <time>2026-03-20T16:35:14.380Z</time>
      </trkpt>
      <trkpt lon="-84.638180" lat="37.861196">
        <ele>768.053</ele>
        <time>2026-03-20T16:35:17.556Z</time>
      </trkpt>
      <trkpt lon="-84.637601" lat="37.862826">
        <ele>758.82</ele>
        <time>2026-03-20T16:35:20.752Z</time>
      </trkpt>
      <trkpt lon="-84.635392" lat="37.867638">
        <ele>797.923</ele>
        <time>2026-03-20T16:35:30.280Z</time>
      </trkpt>
      <trkpt lon="-84.632696" lat="37.873422">
        <ele>838.662</ele>
        <time>2026-03-20T16:35:42.308Z</time>
      </trkpt>
      <trkpt lon="-84.629880" lat="37.879781">
        <ele>881.222</ele>
        <time>2026-03-20T16:35:55.648Z</time>
      </trkpt>
      <trkpt lon="-84.626913" lat="37.886529">
        <ele>927.499</ele>
        <time>2026-03-20T16:36:09.692Z</time>
      </trkpt>
      <trkpt lon="-84.623893" lat="37.893386">
        <ele>974.945</ele>
        <time>2026-03-20T16:36:23.700Z</time>
      </trkpt>
      <trkpt lon="-84.620283" lat="37.901558">
        <ele>1024.28</ele>
        <time>2026-03-20T16:36:40.224Z</time>
      </trkpt>
      <trkpt lon="-84.614893" lat="37.913810">
        <ele>1050.19</ele>
        <time>2026-03-20T16:37:05.024Z</time>
      </trkpt>
      <trkpt lon="-84.607493" lat="37.930556">
        <ele>1050.65</ele>
        <time>2026-03-20T16:37:35.524Z</time>
      </trkpt>
      <trkpt lon="-84.599649" lat="37.947995">
        <ele>1049.34</ele>
        <time>2026-03-20T16:38:06.020Z</time>
      </trkpt>
      <trkpt lon="-84.592044" lat="37.965136">
        <ele>1049.04</ele>
        <time>2026-03-20T16:38:36.636Z</time>
      </trkpt>
      <trkpt lon="-84.584390" lat="37.982349">
        <ele>1046.88</ele>
        <time>2026-03-20T16:39:07.192Z</time>
      </trkpt>
      <trkpt lon="-84.576770" lat="37.999587">
        <ele>1048.99</ele>
        <time>2026-03-20T16:39:37.812Z</time>
      </trkpt>
      <trkpt lon="-84.568853" lat="38.017326">
        <ele>1048.06</ele>
        <time>2026-03-20T16:40:08.396Z</time>
      </trkpt>
      <trkpt lon="-84.560992" lat="38.035028">
        <ele>1047.84</ele>
        <time>2026-03-20T16:40:39.000Z</time>
      </trkpt>
      <trkpt lon="-84.553348" lat="38.052231">
        <ele>1046.93</ele>
        <time>2026-03-20T16:41:09.532Z</time>
      </trkpt>
      <trkpt lon="-84.545566" lat="38.069737">
        <ele>1045.8</ele>
        <time>2026-03-20T16:41:40.100Z</time>
      </trkpt>
      <trkpt lon="-84.537527" lat="38.087808">
        <ele>1045.89</ele>
        <time>2026-03-20T16:42:10.648Z</time>
      </trkpt>
      <trkpt lon="-84.529584" lat="38.105575">
        <ele>1043.67</ele>
        <time>2026-03-20T16:42:40.880Z</time>
      </trkpt>
      <trkpt lon="-84.522049" lat="38.122451">
        <ele>1041.38</ele>
        <time>2026-03-20T16:43:10.888Z</time>
      </trkpt>
      <trkpt lon="-84.514456" lat="38.139475">
        <ele>1041.8</ele>
        <time>2026-03-20T16:43:40.948Z</time>
      </trkpt>
      <trkpt lon="-84.506742" lat="38.156824">
        <ele>1043.77</ele>
        <time>2026-03-20T16:44:10.992Z</time>
      </trkpt>
      <trkpt lon="-84.499116" lat="38.173851">
        <ele>1043.23</ele>
        <time>2026-03-20T16:44:41.000Z</time>
      </trkpt>
      <trkpt lon="-84.491404" lat="38.191201">
        <ele>1043.06</ele>
        <time>2026-03-20T16:45:11.632Z</time>
      </trkpt>
      <trkpt lon="-84.483449" lat="38.208887">
        <ele>1044.81</ele>
        <time>2026-03-20T16:45:42.236Z</time>
      </trkpt>
      <trkpt lon="-84.475877" lat="38.225804">
        <ele>1043.45</ele>
        <time>2026-03-20T16:46:12.244Z</time>
      </trkpt>
      <trkpt lon="-84.468115" lat="38.243281">
        <ele>1044.56</ele>
        <time>2026-03-20T16:46:42.884Z</time>
      </trkpt>
      <trkpt lon="-84.460217" lat="38.260852">
        <ele>1045.26</ele>
        <time>2026-03-20T16:47:12.908Z</time>
      </trkpt>
      <trkpt lon="-84.452398" lat="38.278264">
        <ele>1044.18</ele>
        <time>2026-03-20T16:47:43.456Z</time>
      </trkpt>
      <trkpt lon="-84.444654" lat="38.295483">
        <ele>1043.27</ele>
        <time>2026-03-20T16:48:14.092Z</time>
      </trkpt>
      <trkpt lon="-84.437092" lat="38.312425">
        <ele>1040.62</ele>
        <time>2026-03-20T16:48:44.588Z</time>
      </trkpt>
      <trkpt lon="-84.429684" lat="38.328983">
        <ele>1043.44</ele>
        <time>2026-03-20T16:49:15.204Z</time>
      </trkpt>
      <trkpt lon="-84.421973" lat="38.346110">
        <ele>1043.78</ele>
        <time>2026-03-20T16:49:45.736Z</time>
      </trkpt>
      <trkpt lon="-84.414389" lat="38.363065">
        <ele>1041.82</ele>
        <time>2026-03-20T16:50:16.360Z</time>
      </trkpt>
      <trkpt lon="-84.406959" lat="38.379670">
        <ele>1044.28</ele>
        <time>2026-03-20T16:50:46.928Z</time>
      </trkpt>
      <trkpt lon="-84.399198" lat="38.396869">
        <ele>1042.45</ele>
        <time>2026-03-20T16:51:17.540Z</time>
      </trkpt>
      <trkpt lon="-84.391548" lat="38.413753">
        <ele>1043.82</ele>
        <time>2026-03-20T16:51:48.168Z</time>
      </trkpt>
      <trkpt lon="-84.383936" lat="38.430864">
        <ele>1045.03</ele>
        <time>2026-03-20T16:52:18.752Z</time>
      </trkpt>
      <trkpt lon="-84.376062" lat="38.448300">
        <ele>1044.05</ele>
        <time>2026-03-20T16:52:49.276Z</time>
      </trkpt>
      <trkpt lon="-84.368370" lat="38.465285">
        <ele>1041.76</ele>
        <time>2026-03-20T16:53:19.816Z</time>
      </trkpt>
      <trkpt lon="-84.360725" lat="38.482430">
        <ele>1044.96</ele>
        <time>2026-03-20T16:53:50.400Z</time>
      </trkpt>
      <trkpt lon="-84.352807" lat="38.499931">
        <ele>1044.63</ele>
        <time>2026-03-20T16:54:20.960Z</time>
      </trkpt>
      <trkpt lon="-84.344884" lat="38.517428">
        <ele>1043.24</ele>
        <time>2026-03-20T16:54:51.544Z</time>
      </trkpt>
      <trkpt lon="-84.337089" lat="38.534664">
        <ele>1039.54</ele>
        <time>2026-03-20T16:55:22.136Z</time>
      </trkpt>
      <trkpt lon="-84.330159" lat="38.549882">
        <ele>1039.24</ele>
        <time>2026-03-20T16:55:50.264Z</time>
      </trkpt>
      <trkpt lon="-84.322960" lat="38.566147">
        <ele>1041.44</ele>
        <time>2026-03-20T16:56:20.876Z</time>
      </trkpt>
      <trkpt lon="-84.316452" lat="38.580572">
        <ele>1038.06</ele>
        <time>2026-03-20T16:56:47.020Z</time>
      </trkpt>
      <trkpt lon="-84.308889" lat="38.597212">
        <ele>1041.63</ele>
        <time>2026-03-20T16:57:17.564Z</time>
      </trkpt>
      <trkpt lon="-84.301231" lat="38.614224">
        <ele>1041.08</ele>
        <time>2026-03-20T16:57:48.168Z</time>
      </trkpt>
      <trkpt lon="-84.293341" lat="38.631523">
        <ele>1039.43</ele>
        <time>2026-03-20T16:58:18.744Z</time>
      </trkpt>
      <trkpt lon="-84.285719" lat="38.648306">
        <ele>1044.05</ele>
        <time>2026-03-20T16:58:49.320Z</time>
      </trkpt>
      <trkpt lon="-84.281093" lat="38.658747">
        <ele>1043.44</ele>
        <time>2026-03-20T16:59:07.848Z</time>
      </trkpt>
      <trkpt lon="-84.273057" lat="38.676251">
        <ele>1042.47</ele>
        <time>2026-03-20T16:59:38.484Z</time>
      </trkpt>
      <trkpt lon="-84.265192" lat="38.693815">
        <ele>1041.1</ele>
        <time>2026-03-20T17:00:09.084Z</time>
      </trkpt>
      <trkpt lon="-84.257341" lat="38.710922">
        <ele>1040.5</ele>
        <time>2026-03-20T17:00:39.640Z</time>
      </trkpt>
      <trkpt lon="-84.249819" lat="38.727619">
        <ele>1043.28</ele>
        <time>2026-03-20T17:01:10.204Z</time>
      </trkpt>
      <trkpt lon="-84.242047" lat="38.744602">
        <ele>1042.05</ele>
        <time>2026-03-20T17:01:40.224Z</time>
      </trkpt>
      <trkpt lon="-84.234377" lat="38.761443">
        <ele>1039.4</ele>
        <time>2026-03-20T17:02:10.240Z</time>
      </trkpt>
      <trkpt lon="-84.226885" lat="38.778020">
        <ele>1032.31</ele>
        <time>2026-03-20T17:02:40.252Z</time>
      </trkpt>
      <trkpt lon="-84.222420" lat="38.787328">
        <ele>1026.93</ele>
        <time>2026-03-20T17:02:58.076Z</time>
      </trkpt>
      <trkpt lon="-84.221308" lat="38.789813">
        <ele>1024.91</ele>
        <time>2026-03-20T17:03:03.168Z</time>
      </trkpt>
      <trkpt lon="-84.218357" lat="38.797371">
        <ele>1030.97</ele>
        <time>2026-03-20T17:03:18.532Z</time>
      </trkpt>
      <trkpt lon="-84.212766" lat="38.809230">
        <ele>1038.5</ele>
        <time>2026-03-20T17:03:41.508Z</time>
      </trkpt>
      <trkpt lon="-84.205149" lat="38.825820">
        <ele>1038.12</ele>
        <time>2026-03-20T17:04:11.536Z</time>
      </trkpt>
      <trkpt lon="-84.197687" lat="38.842181">
        <ele>1033.92</ele>
        <time>2026-03-20T17:04:41.632Z</time>
      </trkpt>
      <trkpt lon="-84.190023" lat="38.859052">
        <ele>1036.9</ele>
        <time>2026-03-20T17:05:12.188Z</time>
      </trkpt>
      <trkpt lon="-84.182216" lat="38.876137">
        <ele>1036.13</ele>
        <time>2026-03-20T17:05:42.720Z</time>
      </trkpt>
      <trkpt lon="-84.174200" lat="38.893733">
        <ele>1034.16</ele>
        <time>2026-03-20T17:06:13.352Z</time>
      </trkpt>
      <trkpt lon="-84.166325" lat="38.911026">
        <ele>1036.13</ele>
        <time>2026-03-20T17:06:43.376Z</time>
      </trkpt>
      <trkpt lon="-84.158265" lat="38.928542">
        <ele>1031.58</ele>
        <time>2026-03-20T17:07:13.948Z</time>
      </trkpt>
      <trkpt lon="-84.150601" lat="38.945366">
        <ele>1032.88</ele>
        <time>2026-03-20T17:07:43.996Z</time>
      </trkpt>
      <trkpt lon="-84.142775" lat="38.962535">
        <ele>1034.97</ele>
        <time>2026-03-20T17:08:14.616Z</time>
      </trkpt>
      <trkpt lon="-84.134967" lat="38.979595">
        <ele>1028.76</ele>
        <time>2026-03-20T17:08:44.668Z</time>
      </trkpt>
      <trkpt lon="-84.127376" lat="38.996192">
        <ele>1029.46</ele>
        <time>2026-03-20T17:09:14.708Z</time>
      </trkpt>
      <trkpt lon="-84.119775" lat="39.012782">
        <ele>1028.6</ele>
        <time>2026-03-20T17:09:44.900Z</time>
      </trkpt>
      <trkpt lon="-84.112254" lat="39.029092">
        <ele>1028.96</ele>
        <time>2026-03-20T17:10:14.960Z</time>
      </trkpt>
      <trkpt lon="-84.104871" lat="39.045306">
        <ele>1028.59</ele>
        <time>2026-03-20T17:10:44.980Z</time>
      </trkpt>
      <trkpt lon="-84.097250" lat="39.061959">
        <ele>1029.07</ele>
        <time>2026-03-20T17:11:15.256Z</time>
      </trkpt>
      <trkpt lon="-84.089529" lat="39.078864">
        <ele>1027.33</ele>
        <time>2026-03-20T17:11:45.428Z</time>
      </trkpt>
      <trkpt lon="-84.081769" lat="39.095737">
        <ele>1030.17</ele>
        <time>2026-03-20T17:12:15.540Z</time>
      </trkpt>
      <trkpt lon="-84.073878" lat="39.112816">
        <ele>1028.41</ele>
        <time>2026-03-20T17:12:45.544Z</time>
      </trkpt>
      <trkpt lon="-84.066099" lat="39.129771">
        <ele>1030.79</ele>
        <time>2026-03-20T17:13:15.560Z</time>
      </trkpt>
      <trkpt lon="-84.058242" lat="39.146929">
        <ele>1028.32</ele>
        <time>2026-03-20T17:13:45.580Z</time>
      </trkpt>
      <trkpt lon="-84.050521" lat="39.163696">
        <ele>1026.87</ele>
        <time>2026-03-20T17:14:15.656Z</time>
      </trkpt>
      <trkpt lon="-84.042869" lat="39.180393">
        <ele>1027.97</ele>
        <time>2026-03-20T17:14:45.760Z</time>
      </trkpt>
      <trkpt lon="-84.035115" lat="39.197263">
        <ele>1026.89</ele>
        <time>2026-03-20T17:15:15.780Z</time>
      </trkpt>
      <trkpt lon="-84.027448" lat="39.213945">
        <ele>1026.73</ele>
        <time>2026-03-20T17:15:45.820Z</time>
      </trkpt>
      <trkpt lon="-84.019628" lat="39.230749">
        <ele>1026.15</ele>
        <time>2026-03-20T17:16:15.916Z</time>
      </trkpt>
      <trkpt lon="-84.012013" lat="39.247327">
        <ele>1025.74</ele>
        <time>2026-03-20T17:16:45.928Z</time>
      </trkpt>
      <trkpt lon="-84.004380" lat="39.263949">
        <ele>1025.79</ele>
        <time>2026-03-20T17:17:15.936Z</time>
      </trkpt>
      <trkpt lon="-83.996561" lat="39.280871">
        <ele>1024.13</ele>
        <time>2026-03-20T17:17:45.968Z</time>
      </trkpt>
      <trkpt lon="-83.988844" lat="39.297496">
        <ele>1021.9</ele>
        <time>2026-03-20T17:18:16.200Z</time>
      </trkpt>
      <trkpt lon="-83.981178" lat="39.314203">
        <ele>1023.92</ele>
        <time>2026-03-20T17:18:46.784Z</time>
      </trkpt>
      <trkpt lon="-83.973355" lat="39.331067">
        <ele>1024.35</ele>
        <time>2026-03-20T17:19:16.808Z</time>
      </trkpt>
      <trkpt lon="-83.965714" lat="39.347623">
        <ele>1023.59</ele>
        <time>2026-03-20T17:19:46.824Z</time>
      </trkpt>
      <trkpt lon="-83.958010" lat="39.364260">
        <ele>1024.65</ele>
        <time>2026-03-20T17:20:16.832Z</time>
      </trkpt>
      <trkpt lon="-83.950098" lat="39.381356">
        <ele>1024.8</ele>
        <time>2026-03-20T17:20:47.456Z</time>
      </trkpt>
      <trkpt lon="-83.942117" lat="39.398495">
        <ele>1021.56</ele>
        <time>2026-03-20T17:21:18.084Z</time>
      </trkpt>
      <trkpt lon="-83.934508" lat="39.414999">
        <ele>1023.99</ele>
        <time>2026-03-20T17:21:48.100Z</time>
      </trkpt>
      <trkpt lon="-83.926905" lat="39.431363">
        <ele>1020.47</ele>
        <time>2026-03-20T17:22:18.740Z</time>
      </trkpt>
      <trkpt lon="-83.919448" lat="39.447510">
        <ele>1015.11</ele>
        <time>2026-03-20T17:22:48.864Z</time>
      </trkpt>
      <trkpt lon="-83.912106" lat="39.463312">
        <ele>1014.19</ele>
        <time>2026-03-20T17:23:18.876Z</time>
      </trkpt>
      <trkpt lon="-83.904762" lat="39.479109">
        <ele>1014.04</ele>
        <time>2026-03-20T17:23:48.912Z</time>
      </trkpt>
      <trkpt lon="-83.897310" lat="39.495227">
        <ele>1017.36</ele>
        <time>2026-03-20T17:24:19.108Z</time>
      </trkpt>
      <trkpt lon="-83.889610" lat="39.511759">
        <ele>1019.71</ele>
        <time>2026-03-20T17:24:49.204Z</time>
      </trkpt>
      <trkpt lon="-83.881839" lat="39.528427">
        <ele>1016.34</ele>
        <time>2026-03-20T17:25:19.268Z</time>
      </trkpt>
      <trkpt lon="-83.874329" lat="39.544528">
        <ele>1014.41</ele>
        <time>2026-03-20T17:25:49.356Z</time>
      </trkpt>
      <trkpt lon="-83.866905" lat="39.560604">
        <ele>1015.22</ele>
        <time>2026-03-20T17:26:19.920Z</time>
      </trkpt>
      <trkpt lon="-83.859190" lat="39.577167">
        <ele>1014.39</ele>
        <time>2026-03-20T17:26:50.488Z</time>
      </trkpt>
      <trkpt lon="-83.851664" lat="39.593215">
        <ele>1014.33</ele>
        <time>2026-03-20T17:27:20.496Z</time>
      </trkpt>
      <trkpt lon="-83.844379" lat="39.608821">
        <ele>1013.29</ele>
        <time>2026-03-20T17:27:50.636Z</time>
      </trkpt>
      <trkpt lon="-83.837087" lat="39.624554">
        <ele>1013.22</ele>
        <time>2026-03-20T17:28:20.788Z</time>
      </trkpt>
      <trkpt lon="-83.829710" lat="39.640387">
        <ele>1015.28</ele>
        <time>2026-03-20T17:28:51.056Z</time>
      </trkpt>
      <trkpt lon="-83.822393" lat="39.656044">
        <ele>1013.08</ele>
        <time>2026-03-20T17:29:21.328Z</time>
      </trkpt>
      <trkpt lon="-83.815184" lat="39.671482">
        <ele>1011.09</ele>
        <time>2026-03-20T17:29:51.436Z</time>
      </trkpt>
      <trkpt lon="-83.808004" lat="39.686944">
        <ele>1011.64</ele>
        <time>2026-03-20T17:30:21.516Z</time>
      </trkpt>
      <trkpt lon="-83.800501" lat="39.702813">
        <ele>1010.9</ele>
        <time>2026-03-20T17:30:52.180Z</time>
      </trkpt>
      <trkpt lon="-83.793230" lat="39.718385">
        <ele>1011.29</ele>
        <time>2026-03-20T17:31:22.584Z</time>
      </trkpt>
      <trkpt lon="-83.786000" lat="39.733898">
        <ele>1011.47</ele>
        <time>2026-03-20T17:31:52.720Z</time>
      </trkpt>
      <trkpt lon="-83.778764" lat="39.749269">
        <ele>1011.42</ele>
        <time>2026-03-20T17:32:22.876Z</time>
      </trkpt>
      <trkpt lon="-83.771540" lat="39.764773">
        <ele>1009.79</ele>
        <time>2026-03-20T17:32:52.948Z</time>
      </trkpt>
      <trkpt lon="-83.764280" lat="39.780225">
        <ele>1009.75</ele>
        <time>2026-03-20T17:33:23.108Z</time>
      </trkpt>
      <trkpt lon="-83.757017" lat="39.795819">
        <ele>1010.61</ele>
        <time>2026-03-20T17:33:53.464Z</time>
      </trkpt>
      <trkpt lon="-83.749591" lat="39.811590">
        <ele>1009.85</ele>
        <time>2026-03-20T17:34:24.060Z</time>
      </trkpt>
      <trkpt lon="-83.742131" lat="39.827427">
        <ele>1009.26</ele>
        <time>2026-03-20T17:34:54.428Z</time>
      </trkpt>
      <trkpt lon="-83.734753" lat="39.843130">
        <ele>1007.07</ele>
        <time>2026-03-20T17:35:24.908Z</time>
      </trkpt>
      <trkpt lon="-83.727721" lat="39.858160">
        <ele>1009.28</ele>
        <time>2026-03-20T17:35:55.176Z</time>
      </trkpt>
      <trkpt lon="-83.720591" lat="39.873385">
        <ele>1004.94</ele>
        <time>2026-03-20T17:36:25.652Z</time>
      </trkpt>
      <trkpt lon="-83.713840" lat="39.887676">
        <ele>1004.86</ele>
        <time>2026-03-20T17:36:55.744Z</time>
      </trkpt>
      <trkpt lon="-83.707051" lat="39.902210">
        <ele>1005.11</ele>
        <time>2026-03-20T17:37:25.792Z</time>
      </trkpt>
      <trkpt lon="-83.700103" lat="39.916967">
        <ele>1005.72</ele>
        <time>2026-03-20T17:37:55.804Z</time>
      </trkpt>
      <trkpt lon="-83.693144" lat="39.931684">
        <ele>1005.84</ele>
        <time>2026-03-20T17:38:26.432Z</time>
      </trkpt>
      <trkpt lon="-83.686067" lat="39.946764">
        <ele>1006.95</ele>
        <time>2026-03-20T17:38:56.964Z</time>
      </trkpt>
      <trkpt lon="-83.679028" lat="39.961569">
        <ele>1006.53</ele>
        <time>2026-03-20T17:39:27.552Z</time>
      </trkpt>
      <trkpt lon="-83.672061" lat="39.976421">
        <ele>1006.02</ele>
        <time>2026-03-20T17:39:58.168Z</time>
      </trkpt>
      <trkpt lon="-83.665079" lat="39.991031">
        <ele>1003.84</ele>
        <time>2026-03-20T17:40:28.184Z</time>
      </trkpt>
      <trkpt lon="-83.658045" lat="40.006245">
        <ele>1007.57</ele>
        <time>2026-03-20T17:40:58.768Z</time>
      </trkpt>
      <trkpt lon="-83.650876" lat="40.021332">
        <ele>1003.34</ele>
        <time>2026-03-20T17:41:28.776Z</time>
      </trkpt>
      <trkpt lon="-83.643709" lat="40.036490">
        <ele>1001.62</ele>
        <time>2026-03-20T17:41:58.820Z</time>
      </trkpt>
      <trkpt lon="-83.636458" lat="40.051850">
        <ele>1001.95</ele>
        <time>2026-03-20T17:42:29.456Z</time>
      </trkpt>
      <trkpt lon="-83.629221" lat="40.067144">
        <ele>1001.47</ele>
        <time>2026-03-20T17:43:00.048Z</time>
      </trkpt>
      <trkpt lon="-83.622019" lat="40.082392">
        <ele>1001.9</ele>
        <time>2026-03-20T17:43:30.288Z</time>
      </trkpt>
      <trkpt lon="-83.614913" lat="40.097359">
        <ele>1001.12</ele>
        <time>2026-03-20T17:44:00.508Z</time>
      </trkpt>
      <trkpt lon="-83.607780" lat="40.112526">
        <ele>997.384</ele>
        <time>2026-03-20T17:44:31.140Z</time>
      </trkpt>
      <trkpt lon="-83.600754" lat="40.127287">
        <ele>997.809</ele>
        <time>2026-03-20T17:45:01.196Z</time>
      </trkpt>
      <trkpt lon="-83.593590" lat="40.142380">
        <ele>1001.87</ele>
        <time>2026-03-20T17:45:31.804Z</time>
      </trkpt>
      <trkpt lon="-83.586415" lat="40.157517">
        <ele>997.287</ele>
        <time>2026-03-20T17:46:02.420Z</time>
      </trkpt>
      <trkpt lon="-83.579299" lat="40.172539">
        <ele>997.117</ele>
        <time>2026-03-20T17:46:33.044Z</time>
      </trkpt>
      <trkpt lon="-83.572055" lat="40.187864">
        <ele>1000.1</ele>
        <time>2026-03-20T17:47:03.664Z</time>
      </trkpt>
      <trkpt lon="-83.564751" lat="40.203208">
        <ele>999.897</ele>
        <time>2026-03-20T17:47:34.296Z</time>
      </trkpt>
      <trkpt lon="-83.557520" lat="40.218469">
        <ele>998.578</ele>
        <time>2026-03-20T17:48:04.836Z</time>
      </trkpt>
      <trkpt lon="-83.550254" lat="40.233725">
        <ele>999.409</ele>
        <time>2026-03-20T17:48:35.460Z</time>
      </trkpt>
      <trkpt lon="-83.543009" lat="40.248948">
        <ele>998.156</ele>
        <time>2026-03-20T17:49:05.472Z</time>
      </trkpt>
      <trkpt lon="-83.535606" lat="40.264522">
        <ele>996.463</ele>
        <time>2026-03-20T17:49:36.040Z</time>
      </trkpt>
      <trkpt lon="-83.528359" lat="40.279683">
        <ele>995.137</ele>
        <time>2026-03-20T17:50:06.580Z</time>
      </trkpt>
      <trkpt lon="-83.521427" lat="40.294190">
        <ele>995.563</ele>
        <time>2026-03-20T17:50:37.152Z</time>
      </trkpt>
      <trkpt lon="-83.514735" lat="40.308341">
        <ele>997.72</ele>
        <time>2026-03-20T17:51:07.172Z</time>
      </trkpt>
      <trkpt lon="-83.507716" lat="40.323057">
        <ele>995.206</ele>
        <time>2026-03-20T17:51:37.316Z</time>
      </trkpt>
      <trkpt lon="-83.500624" lat="40.337947">
        <ele>995.7</ele>
        <time>2026-03-20T17:52:07.848Z</time>
      </trkpt>
      <trkpt lon="-83.493492" lat="40.352872">
        <ele>995.384</ele>
        <time>2026-03-20T17:52:38.436Z</time>
      </trkpt>
      <trkpt lon="-83.486317" lat="40.367952">
        <ele>996.921</ele>
        <time>2026-03-20T17:53:08.952Z</time>
      </trkpt>
      <trkpt lon="-83.479119" lat="40.382978">
        <ele>992.993</ele>
        <time>2026-03-20T17:53:39.584Z</time>
      </trkpt>
      <trkpt lon="-83.472066" lat="40.397750">
        <ele>993.558</ele>
        <time>2026-03-20T17:54:10.200Z</time>
      </trkpt>
      <trkpt lon="-83.465157" lat="40.412240">
        <ele>990.698</ele>
        <time>2026-03-20T17:54:40.792Z</time>
      </trkpt>
      <trkpt lon="-83.458439" lat="40.426322">
        <ele>992.143</ele>
        <time>2026-03-20T17:55:10.796Z</time>
      </trkpt>
      <trkpt lon="-83.451685" lat="40.440379">
        <ele>992.331</ele>
        <time>2026-03-20T17:55:40.860Z</time>
      </trkpt>
      <trkpt lon="-83.445087" lat="40.454154">
        <ele>990.991</ele>
        <time>2026-03-20T17:56:10.992Z</time>
      </trkpt>
      <trkpt lon="-83.438385" lat="40.468198">
        <ele>990.135</ele>
        <time>2026-03-20T17:56:41.020Z</time>
      </trkpt>
      <trkpt lon="-83.431462" lat="40.482648">
        <ele>990.565</ele>
        <time>2026-03-20T17:57:11.636Z</time>
      </trkpt>
      <trkpt lon="-83.424580" lat="40.496996">
        <ele>990.22</ele>
        <time>2026-03-20T17:57:42.000Z</time>
      </trkpt>
      <trkpt lon="-83.417886" lat="40.510941">
        <ele>992.601</ele>
        <time>2026-03-20T17:58:12.348Z</time>
      </trkpt>
      <trkpt lon="-83.411074" lat="40.525168">
        <ele>994.424</ele>
        <time>2026-03-20T17:58:42.404Z</time>
      </trkpt>
      <trkpt lon="-83.404122" lat="40.539593">
        <ele>994.47</ele>
        <time>2026-03-20T17:59:13.032Z</time>
      </trkpt>
      <trkpt lon="-83.397252" lat="40.553896">
        <ele>993.497</ele>
        <time>2026-03-20T17:59:43.624Z</time>
      </trkpt>
      <trkpt lon="-83.390425" lat="40.568169">
        <ele>992.234</ele>
        <time>2026-03-20T18:00:14.228Z</time>
      </trkpt>
      <trkpt lon="-83.383698" lat="40.582186">
        <ele>992.401</ele>
        <time>2026-03-20T18:00:44.452Z</time>
      </trkpt>
      <trkpt lon="-83.376829" lat="40.596450">
        <ele>991.306</ele>
        <time>2026-03-20T18:01:14.812Z</time>
      </trkpt>
      <trkpt lon="-83.370112" lat="40.610395">
        <ele>992.56</ele>
        <time>2026-03-20T18:01:44.852Z</time>
      </trkpt>
      <trkpt lon="-83.363309" lat="40.624586">
        <ele>994.315</ele>
        <time>2026-03-20T18:02:15.440Z</time>
      </trkpt>
      <trkpt lon="-83.356390" lat="40.638928">
        <ele>993.613</ele>
        <time>2026-03-20T18:02:45.968Z</time>
      </trkpt>
      <trkpt lon="-83.349611" lat="40.652974">
        <ele>995.403</ele>
        <time>2026-03-20T18:03:16.056Z</time>
      </trkpt>
      <trkpt lon="-83.342755" lat="40.667295">
        <ele>995.398</ele>
        <time>2026-03-20T18:03:46.624Z</time>
      </trkpt>
      <trkpt lon="-83.336025" lat="40.681161">
        <ele>992.783</ele>
        <time>2026-03-20T18:04:16.736Z</time>
      </trkpt>
      <trkpt lon="-83.329253" lat="40.695225">
        <ele>993.005</ele>
        <time>2026-03-20T18:04:47.356Z</time>
      </trkpt>
      <trkpt lon="-83.322661" lat="40.708867">
        <ele>990.738</ele>
        <time>2026-03-20T18:05:17.368Z</time>
      </trkpt>
      <trkpt lon="-83.316095" lat="40.722544">
        <ele>988.254</ele>
        <time>2026-03-20T18:05:48.000Z</time>
      </trkpt>
      <trkpt lon="-83.309222" lat="40.736771">
        <ele>986.707</ele>
        <time>2026-03-20T18:06:18.076Z</time>
      </trkpt>
      <trkpt lon="-83.302323" lat="40.751029">
        <ele>986.647</ele>
        <time>2026-03-20T18:06:48.252Z</time>
      </trkpt>
      <trkpt lon="-83.295524" lat="40.765045">
        <ele>985.639</ele>
        <time>2026-03-20T18:07:18.264Z</time>
      </trkpt>
      <trkpt lon="-83.288713" lat="40.779197">
        <ele>985.122</ele>
        <time>2026-03-20T18:07:48.880Z</time>
      </trkpt>
      <trkpt lon="-83.281757" lat="40.793601">
        <ele>987.1</ele>
        <time>2026-03-20T18:08:19.064Z</time>
      </trkpt>
      <trkpt lon="-83.274777" lat="40.807940">
        <ele>987.976</ele>
        <time>2026-03-20T18:08:49.112Z</time>
      </trkpt>
      <trkpt lon="-83.267899" lat="40.822175">
        <ele>986.171</ele>
        <time>2026-03-20T18:09:19.700Z</time>
      </trkpt>
      <trkpt lon="-83.261063" lat="40.836243">
        <ele>987.175</ele>
        <time>2026-03-20T18:09:49.756Z</time>
      </trkpt>
      <trkpt lon="-83.253997" lat="40.850953">
        <ele>988.53</ele>
        <time>2026-03-20T18:10:20.324Z</time>
      </trkpt>
      <trkpt lon="-83.246840" lat="40.865572">
        <ele>986.264</ele>
        <time>2026-03-20T18:10:50.924Z</time>
      </trkpt>
      <trkpt lon="-83.240067" lat="40.879586">
        <ele>984.672</ele>
        <time>2026-03-20T18:11:21.500Z</time>
      </trkpt>
      <trkpt lon="-83.233232" lat="40.893642">
        <ele>985.715</ele>
        <time>2026-03-20T18:11:52.028Z</time>
      </trkpt>
      <trkpt lon="-83.226375" lat="40.907745">
        <ele>985.285</ele>
        <time>2026-03-20T18:12:22.632Z</time>
      </trkpt>
      <trkpt lon="-83.219713" lat="40.921494">
        <ele>985.635</ele>
        <time>2026-03-20T18:12:53.236Z</time>
      </trkpt>
      <trkpt lon="-83.212811" lat="40.935761">
        <ele>982.783</ele>
        <time>2026-03-20T18:13:23.796Z</time>
      </trkpt>
      <trkpt lon="-83.205672" lat="40.950421">
        <ele>983.194</ele>
        <time>2026-03-20T18:13:54.304Z</time>
      </trkpt>
      <trkpt lon="-83.198517" lat="40.965140">
        <ele>982.589</ele>
        <time>2026-03-20T18:14:24.828Z</time>
      </trkpt>
      <trkpt lon="-83.191214" lat="40.980137">
        <ele>981.667</ele>
        <time>2026-03-20T18:14:55.360Z</time>
      </trkpt>
      <trkpt lon="-83.183921" lat="40.995084">
        <ele>982.632</ele>
        <time>2026-03-20T18:15:25.920Z</time>
      </trkpt>
      <trkpt lon="-83.176488" lat="41.010297">
        <ele>979.828</ele>
        <time>2026-03-20T18:15:56.460Z</time>
      </trkpt>
      <trkpt lon="-83.169298" lat="41.025113">
        <ele>980.609</ele>
        <time>2026-03-20T18:16:27.024Z</time>
      </trkpt>
      <trkpt lon="-83.161776" lat="41.040541">
        <ele>982.515</ele>
        <time>2026-03-20T18:16:57.664Z</time>
      </trkpt>
      <trkpt lon="-83.154430" lat="41.055703">
        <ele>980.535</ele>
        <time>2026-03-20T18:17:27.720Z</time>
      </trkpt>
      <trkpt lon="-83.146893" lat="41.071034">
        <ele>979.074</ele>
        <time>2026-03-20T18:17:57.736Z</time>
      </trkpt>
      <trkpt lon="-83.139383" lat="41.086449">
        <ele>978.97</ele>
        <time>2026-03-20T18:18:28.280Z</time>
      </trkpt>
      <trkpt lon="-83.131859" lat="41.101786">
        <ele>979.81</ele>
        <time>2026-03-20T18:18:58.296Z</time>
      </trkpt>
      <trkpt lon="-83.124342" lat="41.117219">
        <ele>979.224</ele>
        <time>2026-03-20T18:19:28.368Z</time>
      </trkpt>
      <trkpt lon="-83.116595" lat="41.132942">
        <ele>977.422</ele>
        <time>2026-03-20T18:19:58.968Z</time>
      </trkpt>
      <trkpt lon="-83.109044" lat="41.148389">
        <ele>974.745</ele>
        <time>2026-03-20T18:20:29.600Z</time>
      </trkpt>
      <trkpt lon="-83.101664" lat="41.163451">
        <ele>972.669</ele>
        <time>2026-03-20T18:21:00.228Z</time>
      </trkpt>
      <trkpt lon="-83.094479" lat="41.178158">
        <ele>972.362</ele>
        <time>2026-03-20T18:21:30.756Z</time>
      </trkpt>
      <trkpt lon="-83.087321" lat="41.192812">
        <ele>972.489</ele>
        <time>2026-03-20T18:22:01.328Z</time>
      </trkpt>
      <trkpt lon="-83.080093" lat="41.207756">
        <ele>972.684</ele>
        <time>2026-03-20T18:22:31.860Z</time>
      </trkpt>
      <trkpt lon="-83.073095" lat="41.221832">
        <ele>970.953</ele>
        <time>2026-03-20T18:23:02.228Z</time>
      </trkpt>
      <trkpt lon="-83.065763" lat="41.236801">
        <ele>971.257</ele>
        <time>2026-03-20T18:23:33.084Z</time>
      </trkpt>
      <trkpt lon="-83.058437" lat="41.251765">
        <ele>972.24</ele>
        <time>2026-03-20T18:24:03.600Z</time>
      </trkpt>
      <trkpt lon="-83.051133" lat="41.266503">
        <ele>970.993</ele>
        <time>2026-03-20T18:24:34.084Z</time>
      </trkpt>
      <trkpt lon="-83.043866" lat="41.281243">
        <ele>971.016</ele>
        <time>2026-03-20T18:25:04.736Z</time>
      </trkpt>
      <trkpt lon="-83.036663" lat="41.295946">
        <ele>973.635</ele>
        <time>2026-03-20T18:25:34.752Z</time>
      </trkpt>
      <trkpt lon="-83.029255" lat="41.310981">
        <ele>970.908</ele>
        <time>2026-03-20T18:26:05.220Z</time>
      </trkpt>
      <trkpt lon="-83.022047" lat="41.325594">
        <ele>969.484</ele>
        <time>2026-03-20T18:26:35.820Z</time>
      </trkpt>
      <trkpt lon="-83.014862" lat="41.340214">
        <ele>971.032</ele>
        <time>2026-03-20T18:27:06.460Z</time>
      </trkpt>
      <trkpt lon="-83.007551" lat="41.354974">
        <ele>968.869</ele>
        <time>2026-03-20T18:27:37.080Z</time>
      </trkpt>
      <trkpt lon="-83.001587" lat="41.367083">
        <ele>968.804</ele>
        <time>2026-03-20T18:28:07.548Z</time>
      </trkpt>
      <trkpt lon="-82.994685" lat="41.381167">
        <ele>969.045</ele>
        <time>2026-03-20T18:28:37.920Z</time>
      </trkpt>
      <trkpt lon="-82.987531" lat="41.395649">
        <ele>967.666</ele>
        <time>2026-03-20T18:29:08.564Z</time>
      </trkpt>
      <trkpt lon="-82.980526" lat="41.409759">
        <ele>965.721</ele>
        <time>2026-03-20T18:29:39.180Z</time>
      </trkpt>
      <trkpt lon="-82.973675" lat="41.423685">
        <ele>965.288</ele>
        <time>2026-03-20T18:30:09.812Z</time>
      </trkpt>
      <trkpt lon="-82.966760" lat="41.437756">
        <ele>965.954</ele>
        <time>2026-03-20T18:30:40.304Z</time>
      </trkpt>
      <trkpt lon="-82.959669" lat="41.452112">
        <ele>966.531</ele>
        <time>2026-03-20T18:31:10.884Z</time>
      </trkpt>
      <trkpt lon="-82.952612" lat="41.466318">
        <ele>965.861</ele>
        <time>2026-03-20T18:31:41.532Z</time>
      </trkpt>
      <trkpt lon="-82.945707" lat="41.480288">
        <ele>965.227</ele>
        <time>2026-03-20T18:32:12.056Z</time>
      </trkpt>
      <trkpt lon="-82.938710" lat="41.494474">
        <ele>965.226</ele>
        <time>2026-03-20T18:32:42.624Z</time>
      </trkpt>
      <trkpt lon="-82.931572" lat="41.508862">
        <ele>966.217</ele>
        <time>2026-03-20T18:33:13.228Z</time>
      </trkpt>
      <trkpt lon="-82.924290" lat="41.522994">
        <ele>964.296</ele>
        <time>2026-03-20T18:33:43.828Z</time>
      </trkpt>
      <trkpt lon="-82.915756" lat="41.537015">
        <ele>964.197</ele>
        <time>2026-03-20T18:34:14.392Z</time>
      </trkpt>
      <trkpt lon="-82.905814" lat="41.550940">
        <ele>963.804</ele>
        <time>2026-03-20T18:34:44.892Z</time>
      </trkpt>
      <trkpt lon="-82.894460" lat="41.564441">
        <ele>964.106</ele>
        <time>2026-03-20T18:35:15.556Z</time>
      </trkpt>
      <trkpt lon="-82.881927" lat="41.577393">
        <ele>964.152</ele>
        <time>2026-03-20T18:35:46.248Z</time>
      </trkpt>
      <trkpt lon="-82.868119" lat="41.590132">
        <ele>964.262</ele>
        <time>2026-03-20T18:36:16.868Z</time>
      </trkpt>
      <trkpt lon="-82.853219" lat="41.602439">
        <ele>964.57</ele>
        <time>2026-03-20T18:36:47.392Z</time>
      </trkpt>
      <trkpt lon="-82.836864" lat="41.614543">
        <ele>963.966</ele>
        <time>2026-03-20T18:37:18.024Z</time>
      </trkpt>
      <trkpt lon="-82.824497" lat="41.622831">
        <ele>991.894</ele>
        <time>2026-03-20T18:37:39.876Z</time>
      </trkpt>
      <trkpt lon="-82.822945" lat="41.623997">
        <ele>1015.78</ele>
        <time>2026-03-20T18:37:43.172Z</time>
      </trkpt>
      <trkpt lon="-82.820724" lat="41.625754">
        <ele>1051.86</ele>
        <time>2026-03-20T18:37:48.516Z</time>
      </trkpt>
      <trkpt lon="-82.820046" lat="41.626446">
        <ele>1049.78</ele>
        <time>2026-03-20T18:37:50.500Z</time>
      </trkpt>
      <trkpt lon="-82.818261" lat="41.628830">
        <ele>1021.59</ele>
        <time>2026-03-20T18:37:56.508Z</time>
      </trkpt>
      <trkpt lon="-82.814652" lat="41.634268">
        <ele>968.72</ele>
        <time>2026-03-20T18:38:08.476Z</time>
      </trkpt>
      <trkpt lon="-82.810140" lat="41.642257">
        <ele>924.672</ele>
        <time>2026-03-20T18:38:25.868Z</time>
      </trkpt>
      <trkpt lon="-82.807739" lat="41.648236">
        <ele>907.733</ele>
        <time>2026-03-20T18:38:38.528Z</time>
      </trkpt>
      <trkpt lon="-82.807373" lat="41.649774">
        <ele>907.037</ele>
        <time>2026-03-20T18:38:41.856Z</time>
      </trkpt>
      <trkpt lon="-82.807245" lat="41.651259">
        <ele>904.79</ele>
        <time>2026-03-20T18:38:45.152Z</time>
      </trkpt>
      <trkpt lon="-82.807323" lat="41.652974">
        <ele>901.825</ele>
        <time>2026-03-20T18:38:49.104Z</time>
      </trkpt>
      <trkpt lon="-82.807630" lat="41.654661">
        <ele>898.482</ele>
        <time>2026-03-20T18:38:53.152Z</time>
      </trkpt>
      <trkpt lon="-82.808147" lat="41.656206">
        <ele>896.245</ele>
        <time>2026-03-20T18:38:57.104Z</time>
      </trkpt>
      <trkpt lon="-82.809391" lat="41.658889">
        <ele>892.63</ele>
        <time>2026-03-20T18:39:04.488Z</time>
      </trkpt>
      <trkpt lon="-82.810499" lat="41.660808">
        <ele>863.017</ele>
        <time>2026-03-20T18:39:10.448Z</time>
      </trkpt>
      <trkpt lon="-82.811601" lat="41.662208">
        <ele>817.9</ele>
        <time>2026-03-20T18:39:15.080Z</time>
      </trkpt>
      <trkpt lon="-82.812801" lat="41.663371">
        <ele>773.815</ele>
        <time>2026-03-20T18:39:19.048Z</time>
      </trkpt>
      <trkpt lon="-82.814330" lat="41.664726">
        <ele>729.445</ele>
        <time>2026-03-20T18:39:23.632Z</time>
      </trkpt>
      <trkpt lon="-82.816298" lat="41.666626">
        <ele>687.697</ele>
        <time>2026-03-20T18:39:29.632Z</time>
      </trkpt>
      <trkpt lon="-82.818731" lat="41.668781">
        <ele>646.951</ele>
        <time>2026-03-20T18:39:36.968Z</time>
      </trkpt>
      <trkpt lon="-82.818932" lat="41.668960">
        <ele>642.902</ele>
        <time>2026-03-20T18:39:37.592Z</time>
      </trkpt>
      <trkpt lon="-82.819151" lat="41.669167">
        <ele>638.24</ele>
        <time>2026-03-20T18:39:38.280Z</time>
      </trkpt>
      <trkpt lon="-82.819364" lat="41.669353">
        <ele>634.875</ele>
        <time>2026-03-20T18:39:38.928Z</time>
      </trkpt>
      <trkpt lon="-82.819822" lat="41.669680">
        <ele>625.83</ele>
        <time>2026-03-20T18:39:40.280Z</time>
      </trkpt>
      <trkpt lon="-82.820289" lat="41.669942">
        <ele>611.9</ele>
        <time>2026-03-20T18:39:41.600Z</time>
      </trkpt>
      <trkpt lon="-82.820805" lat="41.670163">
        <ele>593.572</ele>
        <time>2026-03-20T18:39:42.984Z</time>
      </trkpt>
      <trkpt lon="-82.821321" lat="41.670317">
        <ele>572.541</ele>
        <time>2026-03-20T18:39:44.304Z</time>
      </trkpt>
      <trkpt lon="-82.822060" lat="41.670443">
        <ele>538.196</ele>
        <time>2026-03-20T18:39:46.304Z</time>
      </trkpt>
      <trkpt lon="-82.822912" lat="41.670486">
        <ele>495.157</ele>
        <time>2026-03-20T18:39:48.296Z</time>
      </trkpt>
      <trkpt lon="-82.823524" lat="41.670490">
        <ele>465.041</ele>
        <time>2026-03-20T18:39:49.632Z</time>
      </trkpt>
      <trkpt lon="-82.824204" lat="41.670515">
        <ele>436.693</ele>
        <time>2026-03-20T18:39:50.960Z</time>
      </trkpt>
      <trkpt lon="-82.825290" lat="41.670645">
        <ele>398.062</ele>
        <time>2026-03-20T18:39:52.912Z</time>
      </trkpt>
      <trkpt lon="-82.826082" lat="41.670818">
        <ele>372.2</ele>
        <time>2026-03-20T18:39:54.272Z</time>
      </trkpt>
      <trkpt lon="-82.826887" lat="41.671069">
        <ele>348.778</ele>
        <time>2026-03-20T18:39:55.632Z</time>
      </trkpt>
      <trkpt lon="-82.828095" lat="41.671612">
        <ele>323.141</ele>
        <time>2026-03-20T18:39:57.592Z</time>
      </trkpt>
      <trkpt lon="-82.829280" lat="41.672293">
        <ele>310.67</ele>
        <time>2026-03-20T18:39:59.608Z</time>
      </trkpt>
      <trkpt lon="-82.832584" lat="41.674415">
        <ele>307.397</ele>
        <time>2026-03-20T18:40:05.704Z</time>
      </trkpt>
      <trkpt lon="-82.834566" lat="41.675733">
        <ele>314.072</ele>
        <time>2026-03-20T18:40:09.760Z</time>
      </trkpt>
      <trkpt lon="-82.835437" lat="41.676311">
        <ele>318.383</ele>
        <time>2026-03-20T18:40:11.736Z</time>
      </trkpt>
      <trkpt lon="-82.836478" lat="41.676972">
        <ele>320.077</ele>
        <time>2026-03-20T18:40:14.368Z</time>
      </trkpt>
      <trkpt lon="-82.837640" lat="41.677662">
        <ele>317.29</ele>
        <time>2026-03-20T18:40:17.672Z</time>
      </trkpt>
      <trkpt lon="-82.838965" lat="41.678344">
        <ele>303.326</ele>
        <time>2026-03-20T18:40:21.736Z</time>
      </trkpt>
      <trkpt lon="-82.839181" lat="41.678439">
        <ele>299.389</ele>
        <time>2026-03-20T18:40:22.376Z</time>
      </trkpt>
      <trkpt lon="-82.839401" lat="41.678530">
        <ele>295.261</ele>
        <time>2026-03-20T18:40:23.040Z</time>
      </trkpt>
      <trkpt lon="-82.840300" lat="41.678845">
        <ele>282.365</ele>
        <time>2026-03-20T18:40:25.744Z</time>
      </trkpt>
      <trkpt lon="-82.841191" lat="41.679089">
        <ele>267.987</ele>
        <time>2026-03-20T18:40:28.480Z</time>
      </trkpt>
      <trkpt lon="-82.841613" lat="41.679165">
        <ele>260.933</ele>
        <time>2026-03-20T18:40:29.784Z</time>
      </trkpt>
      <trkpt lon="-82.842021" lat="41.679201">
        <ele>253.759</ele>
        <time>2026-03-20T18:40:31.032Z</time>
      </trkpt>
      <trkpt lon="-82.842672" lat="41.679194">
        <ele>240.376</ele>
        <time>2026-03-20T18:40:33.040Z</time>
      </trkpt>
      <trkpt lon="-82.843541" lat="41.679115">
        <ele>220.808</ele>
        <time>2026-03-20T18:40:35.680Z</time>
      </trkpt>
      <trkpt lon="-82.844736" lat="41.679001">
        <ele>206.941</ele>
        <time>2026-03-20T18:40:39.680Z</time>
      </trkpt>
      <trkpt lon="-82.845466" lat="41.678954">
        <ele>197.441</ele>
        <time>2026-03-20T18:40:42.352Z</time>
      </trkpt>
      <trkpt lon="-82.847460" lat="41.678738">
        <ele>185.568</ele>
        <time>2026-03-20T18:40:50.416Z</time>
      </trkpt>
      <trkpt lon="-82.847732" lat="41.678710">
        <ele>185.055</ele>
        <time>2026-03-20T18:40:51.712Z</time>
      </trkpt>
      <trkpt lon="-82.849523" lat="41.678466">
        <ele>178.894</ele>
        <time>2026-03-20T18:41:01.088Z</time>
      </trkpt>
      <trkpt lon="-82.849635" lat="41.678453">
        <ele>178.922</ele>
        <time>2026-03-20T18:41:02.456Z</time>
      </trkpt>
      <trkpt lon="-82.849669" lat="41.678448">
        <ele>178.929</ele>
        <time>2026-03-20T18:41:03.080Z</time>
      </trkpt>
      <trkpt lon="-82.849699" lat="41.678438">
        <ele>178.938</ele>
        <time>2026-03-20T18:41:03.768Z</time>
      </trkpt>
      <trkpt lon="-82.849723" lat="41.678422">
        <ele>178.948</ele>
        <time>2026-03-20T18:41:04.416Z</time>
      </trkpt>
      <trkpt lon="-82.849743" lat="41.678398">
        <ele>178.947</ele>
        <time>2026-03-20T18:41:05.088Z</time>
      </trkpt>
      <trkpt lon="-82.849753" lat="41.678366">
        <ele>178.949</ele>
        <time>2026-03-20T18:41:05.768Z</time>
      </trkpt>
      <trkpt lon="-82.849748" lat="41.678331">
        <ele>178.935</ele>
        <time>2026-03-20T18:41:06.448Z</time>
      </trkpt>
      <trkpt lon="-82.849721" lat="41.678291">
        <ele>178.92</ele>
        <time>2026-03-20T18:41:07.112Z</time>
      </trkpt>
      <trkpt lon="-82.849675" lat="41.678260">
        <ele>178.926</ele>
        <time>2026-03-20T18:41:07.760Z</time>
      </trkpt>
      <trkpt lon="-82.849611" lat="41.678240">
        <ele>178.886</ele>
        <time>2026-03-20T18:41:08.408Z</time>
      </trkpt>
      <trkpt lon="-82.849532" lat="41.678238">
        <ele>178.842</ele>
        <time>2026-03-20T18:41:09.080Z</time>
      </trkpt>
      <trkpt lon="-82.848852" lat="41.678355">
        <ele>178.731</ele>
        <time>2026-03-20T18:41:13.656Z</time>
      </trkpt>
      <trkpt lon="-82.848762" lat="41.678362">
        <ele>178.744</ele>
        <time>2026-03-20T18:41:14.328Z</time>
      </trkpt>
      <trkpt lon="-82.848696" lat="41.678362">
        <ele>178.764</ele>
        <time>2026-03-20T18:41:14.976Z</time>
      </trkpt>
      <trkpt lon="-82.848589" lat="41.678347">
        <ele>178.817</ele>
        <time>2026-03-20T18:41:16.288Z</time>
      </trkpt>
      <trkpt lon="-82.848538" lat="41.678333">
        <ele>178.837</ele>
        <time>2026-03-20T18:41:16.952Z</time>
      </trkpt>
      <trkpt lon="-82.848491" lat="41.678311">
        <ele>178.837</ele>
        <time>2026-03-20T18:41:17.592Z</time>
      </trkpt>
      <trkpt lon="-82.848452" lat="41.678284">
        <ele>178.833</ele>
        <time>2026-03-20T18:41:18.232Z</time>
      </trkpt>
      <trkpt lon="-82.848420" lat="41.678251">
        <ele>178.823</ele>
        <time>2026-03-20T18:41:18.904Z</time>
      </trkpt>
      <trkpt lon="-82.848400" lat="41.678220">
        <ele>178.686</ele>
        <time>2026-03-20T18:41:19.544Z</time>
      </trkpt>
      <trkpt lon="-82.848382" lat="41.678178">
        <ele>178.433</ele>
        <time>2026-03-20T18:41:20.840Z</time>
      </trkpt>
      <trkpt lon="-82.845593" lat="41.679006">
        <ele>179.171</ele>
        <time>2026-03-22T10:15:48.308Z</time>
      </trkpt>
      <trkpt lon="-82.845462" lat="41.679019">
        <ele>179.305</ele>
        <time>2026-03-22T10:16:08.984Z</time>
      </trkpt>
    </trkseg>
    <trkseg>
      <trkpt lon="7.909792" lat="53.787056">
        <ele>2.12656</ele>
        <time>2026-07-06T15:24:55.944Z</time>
      </trkpt>
      <trkpt lon="7.909774" lat="53.787051">
        <ele>2.15679</ele>
        <time>2026-07-06T15:33:46.260Z</time>
      </trkpt>
      <trkpt lon="7.909760" lat="53.787047">
        <ele>2.15949</ele>
        <time>2026-07-06T15:33:46.944Z</time>
      </trkpt>
      <trkpt lon="7.909744" lat="53.787041">
        <ele>2.17058</ele>
        <time>2026-07-06T15:33:47.652Z</time>
      </trkpt>
      <trkpt lon="7.909729" lat="53.787034">
        <ele>2.17219</ele>
        <time>2026-07-06T15:33:48.356Z</time>
      </trkpt>
      <trkpt lon="7.909712" lat="53.787024">
        <ele>2.17953</ele>
        <time>2026-07-06T15:33:49.072Z</time>
      </trkpt>
      <trkpt lon="7.909697" lat="53.787012">
        <ele>2.18932</ele>
        <time>2026-07-06T15:33:49.752Z</time>
      </trkpt>
      <trkpt lon="7.909682" lat="53.786998">
        <ele>2.19703</ele>
        <time>2026-07-06T15:33:50.460Z</time>
      </trkpt>
      <trkpt lon="7.909669" lat="53.786980">
        <ele>2.20117</ele>
        <time>2026-07-06T15:33:51.224Z</time>
      </trkpt>
      <trkpt lon="7.909660" lat="53.786960">
        <ele>2.20925</ele>
        <time>2026-07-06T15:33:51.936Z</time>
      </trkpt>
      <trkpt lon="7.909656" lat="53.786938">
        <ele>2.22745</ele>
        <time>2026-07-06T15:33:52.792Z</time>
      </trkpt>
      <trkpt lon="7.909654" lat="53.786915">
        <ele>2.25545</ele>
        <time>2026-07-06T15:34:02.884Z</time>
      </trkpt>
      <trkpt lon="7.909660" lat="53.786874">
        <ele>2.3088</ele>
        <time>2026-07-06T15:34:05.084Z</time>
      </trkpt>
      <trkpt lon="7.909692" lat="53.786777">
        <ele>2.42158</ele>
        <time>2026-07-06T15:34:08.808Z</time>
      </trkpt>
      <trkpt lon="7.909764" lat="53.786648">
        <ele>2.55558</ele>
        <time>2026-07-06T15:34:11.856Z</time>
      </trkpt>
      <trkpt lon="7.909834" lat="53.786544">
        <ele>2.65578</ele>
        <time>2026-07-06T15:34:14.816Z</time>
      </trkpt>
      <trkpt lon="7.909880" lat="53.786462">
        <ele>2.69906</ele>
        <time>2026-07-06T15:36:05.992Z</time>
      </trkpt>
      <trkpt lon="7.909996" lat="53.786259">
        <ele>2.03227</ele>
        <time>2026-07-06T15:36:08.612Z</time>
      </trkpt>
      <trkpt lon="7.910191" lat="53.785921">
        <ele>1.48439</ele>
        <time>2026-07-06T15:36:11.296Z</time>
      </trkpt>
      <trkpt lon="7.910242" lat="53.785824">
        <ele>1.60214</ele>
        <time>2026-07-06T15:36:11.936Z</time>
      </trkpt>
      <trkpt lon="7.910276" lat="53.785714">
        <ele>1.74993</ele>
        <time>2026-07-06T15:36:12.604Z</time>
      </trkpt>
      <trkpt lon="7.910290" lat="53.785483">
        <ele>1.81286</ele>
        <time>2026-07-06T15:36:13.892Z</time>
      </trkpt>
      <trkpt lon="7.910308" lat="53.785363">
        <ele>2.51481</ele>
        <time>2026-07-06T15:36:14.528Z</time>
      </trkpt>
      <trkpt lon="7.910428" lat="53.785116">
        <ele>4.18472</ele>
        <time>2026-07-06T15:36:15.880Z</time>
      </trkpt>
      <trkpt lon="7.910529" lat="53.785004">
        <ele>3.77714</ele>
        <time>2026-07-06T15:36:16.536Z</time>
      </trkpt>
      <trkpt lon="7.910899" lat="53.784504">
        <ele>3.06378</ele>
        <time>2026-07-06T15:36:19.204Z</time>
      </trkpt>
      <trkpt lon="7.911001" lat="53.784386">
        <ele>3.02135</ele>
        <time>2026-07-06T15:36:19.840Z</time>
      </trkpt>
      <trkpt lon="7.911130" lat="53.784273">
        <ele>3.02505</ele>
        <time>2026-07-06T15:36:20.492Z</time>
      </trkpt>
      <trkpt lon="7.911445" lat="53.784066">
        <ele>3.15745</ele>
        <time>2026-07-06T15:36:21.808Z</time>
      </trkpt>
      <trkpt lon="7.911575" lat="53.783965">
        <ele>3.03849</ele>
        <time>2026-07-06T15:36:22.436Z</time>
      </trkpt>
      <trkpt lon="7.911689" lat="53.783858">
        <ele>3.06936</ele>
        <time>2026-07-06T15:36:23.104Z</time>
      </trkpt>
      <trkpt lon="7.911871" lat="53.783700">
        <ele>3.09036</ele>
        <time>2026-07-06T15:36:24.372Z</time>
      </trkpt>
      <trkpt lon="7.911986" lat="53.783617">
        <ele>3.07227</ele>
        <time>2026-07-06T15:36:25.716Z</time>
      </trkpt>
      <trkpt lon="7.912035" lat="53.783582">
        <ele>3.06565</ele>
        <time>2026-07-06T15:36:35.752Z</time>
      </trkpt>
      <trkpt lon="7.912052" lat="53.783573">
        <ele>3.06467</ele>
        <time>2026-07-06T15:36:36.400Z</time>
      </trkpt>
      <trkpt lon="7.912110" lat="53.783551">
        <ele>3.05065</ele>
        <time>2026-07-06T15:36:37.708Z</time>
      </trkpt>
      <trkpt lon="7.912209" lat="53.783524">
        <ele>3.03614</ele>
        <time>2026-07-06T15:36:39.016Z</time>
      </trkpt>
      <trkpt lon="7.912459" lat="53.783484">
        <ele>2.90495</ele>
        <time>2026-07-06T15:36:40.964Z</time>
      </trkpt>
      <trkpt lon="7.912701" lat="53.783460">
        <ele>2.72621</ele>
        <time>2026-07-06T15:36:42.256Z</time>
      </trkpt>
      <trkpt lon="7.913053" lat="53.783438">
        <ele>2.45421</ele>
        <time>2026-07-06T15:36:43.560Z</time>
      </trkpt>
      <trkpt lon="7.913272" lat="53.783411">
        <ele>2.24849</ele>
        <time>2026-07-06T15:36:44.208Z</time>
      </trkpt>
      <trkpt lon="7.913515" lat="53.783371">
        <ele>2.01306</ele>
        <time>2026-07-06T15:36:44.856Z</time>
      </trkpt>
      <trkpt lon="7.913788" lat="53.783338">
        <ele>1.80055</ele>
        <time>2026-07-06T15:36:45.508Z</time>
      </trkpt>
      <trkpt lon="7.914436" lat="53.783312">
        <ele>1.46435</ele>
        <time>2026-07-06T15:36:46.816Z</time>
      </trkpt>
      <trkpt lon="7.915202" lat="53.783321">
        <ele>1.36685</ele>
        <time>2026-07-06T15:36:48.128Z</time>
      </trkpt>
      <trkpt lon="7.916531" lat="53.783345">
        <ele>4.65623</ele>
        <time>2026-07-06T15:36:50.088Z</time>
      </trkpt>
      <trkpt lon="7.918621" lat="53.783335">
        <ele>21.9231</ele>
        <time>2026-07-06T15:36:52.912Z</time>
      </trkpt>
      <trkpt lon="7.920211" lat="53.783279">
        <ele>39.954</ele>
        <time>2026-07-06T15:36:54.916Z</time>
      </trkpt>
      <trkpt lon="7.921814" lat="53.783169">
        <ele>64.7434</ele>
        <time>2026-07-06T15:36:56.956Z</time>
      </trkpt>
      <trkpt lon="7.923286" lat="53.783019">
        <ele>92.9319</ele>
        <time>2026-07-06T15:36:58.920Z</time>
      </trkpt>
      <trkpt lon="7.924716" lat="53.782829">
        <ele>122.6</ele>
        <time>2026-07-06T15:37:00.860Z</time>
      </trkpt>
      <trkpt lon="7.926144" lat="53.782623">
        <ele>153.103</ele>
        <time>2026-07-06T15:37:02.864Z</time>
      </trkpt>
      <trkpt lon="7.927547" lat="53.782421">
        <ele>180.165</ele>
        <time>2026-07-06T15:37:04.796Z</time>
      </trkpt>
      <trkpt lon="7.929014" lat="53.782213">
        <ele>206.105</ele>
        <time>2026-07-06T15:37:06.760Z</time>
      </trkpt>
      <trkpt lon="7.931117" lat="53.781875">
        <ele>233.194</ele>
        <time>2026-07-06T15:37:09.428Z</time>
      </trkpt>
      <trkpt lon="7.933292" lat="53.781426">
        <ele>257.508</ele>
        <time>2026-07-06T15:37:12.064Z</time>
      </trkpt>
      <trkpt lon="7.935432" lat="53.780872">
        <ele>284.564</ele>
        <time>2026-07-06T15:37:14.664Z</time>
      </trkpt>
      <trkpt lon="7.937999" lat="53.780049">
        <ele>316.109</ele>
        <time>2026-07-06T15:37:17.868Z</time>
      </trkpt>
      <trkpt lon="7.940027" lat="53.779252">
        <ele>346.661</ele>
        <time>2026-07-06T15:37:20.532Z</time>
      </trkpt>
      <trkpt lon="7.941418" lat="53.778594">
        <ele>370.713</ele>
        <time>2026-07-06T15:37:22.512Z</time>
      </trkpt>
      <trkpt lon="7.942697" lat="53.777868">
        <ele>395.115</ele>
        <time>2026-07-06T15:37:24.512Z</time>
      </trkpt>
      <trkpt lon="7.943465" lat="53.777346">
        <ele>410.882</ele>
        <time>2026-07-06T15:37:25.844Z</time>
      </trkpt>
      <trkpt lon="7.944148" lat="53.776795">
        <ele>425.696</ele>
        <time>2026-07-06T15:37:27.176Z</time>
      </trkpt>
      <trkpt lon="7.944718" lat="53.776232">
        <ele>439.111</ele>
        <time>2026-07-06T15:37:28.476Z</time>
      </trkpt>
      <trkpt lon="7.945203" lat="53.775631">
        <ele>451.958</ele>
        <time>2026-07-06T15:37:29.812Z</time>
      </trkpt>
      <trkpt lon="7.945579" lat="53.775031">
        <ele>463.693</ele>
        <time>2026-07-06T15:37:31.108Z</time>
      </trkpt>
      <trkpt lon="7.946022" lat="53.774059">
        <ele>481.845</ele>
        <time>2026-07-06T15:37:33.176Z</time>
      </trkpt>
      <trkpt lon="7.946585" lat="53.772234">
        <ele>522.796</ele>
        <time>2026-07-06T15:37:37.044Z</time>
      </trkpt>
      <trkpt lon="7.947161" lat="53.770481">
        <ele>564.476</ele>
        <time>2026-07-06T15:37:41.008Z</time>
      </trkpt>
      <trkpt lon="7.947516" lat="53.769366">
        <ele>582.089</ele>
        <time>2026-07-06T15:37:43.644Z</time>
      </trkpt>
      <trkpt lon="7.947552" lat="53.769093">
        <ele>585.151</ele>
        <time>2026-07-06T15:37:44.308Z</time>
      </trkpt>
      <trkpt lon="7.947525" lat="53.768852">
        <ele>587.98</ele>
        <time>2026-07-06T15:37:44.940Z</time>
      </trkpt>
      <trkpt lon="7.947179" lat="53.768239">
        <ele>598.573</ele>
        <time>2026-07-06T15:37:46.912Z</time>
      </trkpt>
      <trkpt lon="7.947029" lat="53.768048">
        <ele>601.058</ele>
        <time>2026-07-06T15:37:47.576Z</time>
      </trkpt>
      <trkpt lon="7.946710" lat="53.767704">
        <ele>606.177</ele>
        <time>2026-07-06T15:37:48.844Z</time>
      </trkpt>
      <trkpt lon="7.946331" lat="53.767375">
        <ele>612.463</ele>
        <time>2026-07-06T15:37:50.176Z</time>
      </trkpt>
      <trkpt lon="7.945913" lat="53.767093">
        <ele>618.232</ele>
        <time>2026-07-06T15:37:51.476Z</time>
      </trkpt>
      <trkpt lon="7.945432" lat="53.766852">
        <ele>623.236</ele>
        <time>2026-07-06T15:37:52.844Z</time>
      </trkpt>
      <trkpt lon="7.943854" lat="53.766384">
        <ele>631.448</ele>
        <time>2026-07-06T15:37:56.776Z</time>
      </trkpt>
      <trkpt lon="7.943593" lat="53.766278">
        <ele>631.124</ele>
        <time>2026-07-06T15:37:57.444Z</time>
      </trkpt>
      <trkpt lon="7.943338" lat="53.766143">
        <ele>631.074</ele>
        <time>2026-07-06T15:37:58.112Z</time>
      </trkpt>
      <trkpt lon="7.943109" lat="53.765981">
        <ele>631.616</ele>
        <time>2026-07-06T15:37:58.776Z</time>
      </trkpt>
      <trkpt lon="7.942732" lat="53.765601">
        <ele>633.707</ele>
        <time>2026-07-06T15:38:00.052Z</time>
      </trkpt>
      <trkpt lon="7.942416" lat="53.765147">
        <ele>634.375</ele>
        <time>2026-07-06T15:38:01.388Z</time>
      </trkpt>
      <trkpt lon="7.941915" lat="53.764163">
        <ele>627.774</ele>
        <time>2026-07-06T15:38:04.020Z</time>
      </trkpt>
      <trkpt lon="7.941394" lat="53.762767">
        <ele>612.385</ele>
        <time>2026-07-06T15:38:07.320Z</time>
      </trkpt>
      <trkpt lon="7.939430" lat="53.757468">
        <ele>624.888</ele>
        <time>2026-07-06T15:38:19.228Z</time>
      </trkpt>
      <trkpt lon="7.936107" lat="53.751503">
        <ele>634.683</ele>
        <time>2026-07-06T15:38:35.064Z</time>
      </trkpt>
      <trkpt lon="7.933012" lat="53.746599">
        <ele>621.42</ele>
        <time>2026-07-06T15:38:46.972Z</time>
      </trkpt>
      <trkpt lon="7.931953" lat="53.744035">
        <ele>626.482</ele>
        <time>2026-07-06T15:38:52.876Z</time>
      </trkpt>
      <trkpt lon="7.929354" lat="53.735701">
        <ele>613.431</ele>
        <time>2026-07-06T15:39:11.296Z</time>
      </trkpt>
      <trkpt lon="7.923875" lat="53.725663">
        <ele>614.237</ele>
        <time>2026-07-06T15:39:35.564Z</time>
      </trkpt>
      <trkpt lon="7.923244" lat="53.724984">
        <ele>612.964</ele>
        <time>2026-07-06T15:39:37.496Z</time>
      </trkpt>
      <trkpt lon="7.922471" lat="53.724375">
        <ele>605.919</ele>
        <time>2026-07-06T15:39:39.460Z</time>
      </trkpt>
      <trkpt lon="7.921272" lat="53.723670">
        <ele>590.118</ele>
        <time>2026-07-06T15:39:42.092Z</time>
      </trkpt>
      <trkpt lon="7.916784" lat="53.721658">
        <ele>549.007</ele>
        <time>2026-07-06T15:39:50.660Z</time>
      </trkpt>
      <trkpt lon="7.910412" lat="53.718152">
        <ele>530.38</ele>
        <time>2026-07-06T15:40:04.288Z</time>
      </trkpt>
      <trkpt lon="7.905761" lat="53.715461">
        <ele>506.999</ele>
        <time>2026-07-06T15:40:14.844Z</time>
      </trkpt>
      <trkpt lon="7.901565" lat="53.713632">
        <ele>469.812</ele>
        <time>2026-07-06T15:40:23.344Z</time>
      </trkpt>
      <trkpt lon="7.898664" lat="53.712678">
        <ele>448.226</ele>
        <time>2026-07-06T15:40:28.644Z</time>
      </trkpt>
      <trkpt lon="7.895625" lat="53.712026">
        <ele>431.443</ele>
        <time>2026-07-06T15:40:33.776Z</time>
      </trkpt>
      <trkpt lon="7.889005" lat="53.711185">
        <ele>411.481</ele>
        <time>2026-07-06T15:40:44.844Z</time>
      </trkpt>
      <trkpt lon="7.880312" lat="53.710528">
        <ele>378.416</ele>
        <time>2026-07-06T15:41:00.508Z</time>
      </trkpt>
      <trkpt lon="7.873720" lat="53.710032">
        <ele>347.035</ele>
        <time>2026-07-06T15:41:12.244Z</time>
      </trkpt>
      <trkpt lon="7.865963" lat="53.709568">
        <ele>316.535</ele>
        <time>2026-07-06T15:41:25.956Z</time>
      </trkpt>
      <trkpt lon="7.861866" lat="53.709517">
        <ele>295.594</ele>
        <time>2026-07-06T15:41:33.124Z</time>
      </trkpt>
      <trkpt lon="7.857324" lat="53.709829">
        <ele>267.946</ele>
        <time>2026-07-06T15:41:40.992Z</time>
      </trkpt>
      <trkpt lon="7.853853" lat="53.710153">
        <ele>244.218</ele>
        <time>2026-07-06T15:41:46.860Z</time>
      </trkpt>
      <trkpt lon="7.850675" lat="53.710122">
        <ele>220.294</ele>
        <time>2026-07-06T15:41:52.092Z</time>
      </trkpt>
      <trkpt lon="7.846976" lat="53.709688">
        <ele>196.239</ele>
        <time>2026-07-06T15:41:58.532Z</time>
      </trkpt>
      <trkpt lon="7.844169" lat="53.709243">
        <ele>169.517</ele>
        <time>2026-07-06T15:42:03.664Z</time>
      </trkpt>
      <trkpt lon="7.841968" lat="53.708890">
        <ele>143.587</ele>
        <time>2026-07-06T15:42:07.596Z</time>
      </trkpt>
      <trkpt lon="7.840066" lat="53.708606">
        <ele>119.281</ele>
        <time>2026-07-06T15:42:10.832Z</time>
      </trkpt>
      <trkpt lon="7.837626" lat="53.708296">
        <ele>96.9063</ele>
        <time>2026-07-06T15:42:14.800Z</time>
      </trkpt>
      <trkpt lon="7.834386" lat="53.707903">
        <ele>77.9716</ele>
        <time>2026-07-06T15:42:20.068Z</time>
      </trkpt>
      <trkpt lon="7.829988" lat="53.707292">
        <ele>61.8338</ele>
        <time>2026-07-06T15:42:27.900Z</time>
      </trkpt>
      <trkpt lon="7.828364" lat="53.707126">
        <ele>44.3697</ele>
        <time>2026-07-06T15:42:31.100Z</time>
      </trkpt>
      <trkpt lon="7.826760" lat="53.706989">
        <ele>26.8834</ele>
        <time>2026-07-06T15:42:34.400Z</time>
      </trkpt>
      <trkpt lon="7.824768" lat="53.706866">
        <ele>14.1276</ele>
        <time>2026-07-06T15:42:39.000Z</time>
      </trkpt>
      <trkpt lon="7.822708" lat="53.706770">
        <ele>5.26093</ele>
        <time>2026-07-06T15:42:44.932Z</time>
      </trkpt>
      <trkpt lon="7.822014" lat="53.706730">
        <ele>8.57573</ele>
        <time>2026-07-06T15:42:47.600Z</time>
      </trkpt>
      <trkpt lon="7.820407" lat="53.706607">
        <ele>2.4044</ele>
        <time>2026-07-06T15:42:56.136Z</time>
      </trkpt>
      <trkpt lon="7.820237" lat="53.706593">
        <ele>2.40059</ele>
        <time>2026-07-06T15:42:58.768Z</time>
      </trkpt>
      <trkpt lon="7.820127" lat="53.706584">
        <ele>2.44453</ele>
        <time>2026-07-06T15:43:56.540Z</time>
      </trkpt>
      <trkpt lon="7.819718" lat="53.706561">
        <ele>2.54074</ele>
        <time>2026-07-06T15:43:59.212Z</time>
      </trkpt>
      <trkpt lon="7.818569" lat="53.706518">
        <ele>10.0402</ele>
        <time>2026-07-06T15:44:03.780Z</time>
      </trkpt>
      <trkpt lon="7.818387" lat="53.706534">
        <ele>12.7914</ele>
        <time>2026-07-06T15:44:04.444Z</time>
      </trkpt>
      <trkpt lon="7.818205" lat="53.706564">
        <ele>15.4104</ele>
        <time>2026-07-06T15:44:05.112Z</time>
      </trkpt>
      <trkpt lon="7.817818" lat="53.706661">
        <ele>17.0465</ele>
        <time>2026-07-06T15:44:06.444Z</time>
      </trkpt>
      <trkpt lon="7.817610" lat="53.706733">
        <ele>16.3167</ele>
        <time>2026-07-06T15:44:07.112Z</time>
      </trkpt>
      <trkpt lon="7.817399" lat="53.706823">
        <ele>15.542</ele>
        <time>2026-07-06T15:44:07.780Z</time>
      </trkpt>
      <trkpt lon="7.817017" lat="53.707056">
        <ele>15.8161</ele>
        <time>2026-07-06T15:44:09.048Z</time>
      </trkpt>
      <trkpt lon="7.816686" lat="53.707374">
        <ele>19.5562</ele>
        <time>2026-07-06T15:44:10.372Z</time>
      </trkpt>
      <trkpt lon="7.816449" lat="53.707748">
        <ele>25.9484</ele>
        <time>2026-07-06T15:44:11.672Z</time>
      </trkpt>
      <trkpt lon="7.816316" lat="53.708155">
        <ele>34.1066</ele>
        <time>2026-07-06T15:44:12.972Z</time>
      </trkpt>
      <trkpt lon="7.816280" lat="53.708603">
        <ele>42.7551</ele>
        <time>2026-07-06T15:44:14.304Z</time>
      </trkpt>
      <trkpt lon="7.816351" lat="53.709070">
        <ele>51.6081</ele>
        <time>2026-07-06T15:44:15.640Z</time>
      </trkpt>
      <trkpt lon="7.816525" lat="53.709529">
        <ele>61.1701</ele>
        <time>2026-07-06T15:44:16.940Z</time>
      </trkpt>
      <trkpt lon="7.816799" lat="53.709985">
        <ele>71.9701</ele>
        <time>2026-07-06T15:44:18.240Z</time>
      </trkpt>
      <trkpt lon="7.817167" lat="53.710425">
        <ele>83.6427</ele>
        <time>2026-07-06T15:44:19.540Z</time>
      </trkpt>
      <trkpt lon="7.817630" lat="53.710854">
        <ele>96.2908</ele>
        <time>2026-07-06T15:44:20.872Z</time>
      </trkpt>
      <trkpt lon="7.818382" lat="53.711433">
        <ele>111.598</ele>
        <time>2026-07-06T15:44:22.772Z</time>
      </trkpt>
      <trkpt lon="7.820370" lat="53.712836">
        <ele>134.588</ele>
        <time>2026-07-06T15:44:27.308Z</time>
      </trkpt>
      <trkpt lon="7.822533" lat="53.714309">
        <ele>158.411</ele>
        <time>2026-07-06T15:44:31.868Z</time>
      </trkpt>
      <trkpt lon="7.825217" lat="53.716029">
        <ele>184.805</ele>
        <time>2026-07-06T15:44:37.104Z</time>
      </trkpt>
      <trkpt lon="7.828908" lat="53.718142">
        <ele>211.466</ele>
        <time>2026-07-06T15:44:43.508Z</time>
      </trkpt>
      <trkpt lon="7.832802" lat="53.719997">
        <ele>238.259</ele>
        <time>2026-07-06T15:44:49.372Z</time>
      </trkpt>
      <trkpt lon="7.836156" lat="53.721638">
        <ele>266.743</ele>
        <time>2026-07-06T15:44:54.508Z</time>
      </trkpt>
      <trkpt lon="7.841089" lat="53.723894">
        <ele>296.796</ele>
        <time>2026-07-06T15:45:01.648Z</time>
      </trkpt>
      <trkpt lon="7.844885" lat="53.725512">
        <ele>327.492</ele>
        <time>2026-07-06T15:45:06.916Z</time>
      </trkpt>
      <trkpt lon="7.848704" lat="53.727019">
        <ele>359.849</ele>
        <time>2026-07-06T15:45:12.084Z</time>
      </trkpt>
      <trkpt lon="7.853612" lat="53.728871">
        <ele>396.039</ele>
        <time>2026-07-06T15:45:18.584Z</time>
      </trkpt>
      <trkpt lon="7.856658" lat="53.729940">
        <ele>414.494</ele>
        <time>2026-07-06T15:45:22.444Z</time>
      </trkpt>
      <trkpt lon="7.858338" lat="53.730428">
        <ele>424.142</ele>
        <time>2026-07-06T15:45:24.444Z</time>
      </trkpt>
      <trkpt lon="7.863256" lat="53.731726">
        <ele>464.11</ele>
        <time>2026-07-06T15:45:30.280Z</time>
      </trkpt>
      <trkpt lon="7.868140" lat="53.732899">
        <ele>502.802</ele>
        <time>2026-07-06T15:45:36.112Z</time>
      </trkpt>
      <trkpt lon="7.872071" lat="53.733710">
        <ele>528.54</ele>
        <time>2026-07-06T15:45:40.648Z</time>
      </trkpt>
      <trkpt lon="7.876167" lat="53.734439">
        <ele>549.103</ele>
        <time>2026-07-06T15:45:45.216Z</time>
      </trkpt>
      <trkpt lon="7.878390" lat="53.734985">
        <ele>557.917</ele>
        <time>2026-07-06T15:45:47.780Z</time>
      </trkpt>
      <trkpt lon="7.884473" lat="53.736766">
        <ele>585.419</ele>
        <time>2026-07-06T15:45:54.916Z</time>
      </trkpt>
      <trkpt lon="7.893159" lat="53.739784">
        <ele>623.738</ele>
        <time>2026-07-06T15:46:05.960Z</time>
      </trkpt>
      <trkpt lon="7.907656" lat="53.745727">
        <ele>610.756</ele>
        <time>2026-07-06T15:46:24.196Z</time>
      </trkpt>
      <trkpt lon="7.916188" lat="53.749024">
        <ele>586.168</ele>
        <time>2026-07-06T15:46:34.064Z</time>
      </trkpt>
      <trkpt lon="7.926904" lat="53.753929">
        <ele>578.606</ele>
        <time>2026-07-06T15:46:47.092Z</time>
      </trkpt>
      <trkpt lon="7.931609" lat="53.756550">
        <ele>578.102</ele>
        <time>2026-07-06T15:46:53.592Z</time>
      </trkpt>
      <trkpt lon="7.938505" lat="53.760720">
        <ele>535.141</ele>
        <time>2026-07-06T15:47:03.928Z</time>
      </trkpt>
      <trkpt lon="7.940067" lat="53.761850">
        <ele>515.426</ele>
        <time>2026-07-06T15:47:06.564Z</time>
      </trkpt>
      <trkpt lon="7.941405" lat="53.763050">
        <ele>492.006</ele>
        <time>2026-07-06T15:47:09.196Z</time>
      </trkpt>
      <trkpt lon="7.942466" lat="53.764280">
        <ele>469.9</ele>
        <time>2026-07-06T15:47:11.728Z</time>
      </trkpt>
      <trkpt lon="7.943993" lat="53.766518">
        <ele>430.494</ele>
        <time>2026-07-06T15:47:16.292Z</time>
      </trkpt>
      <trkpt lon="7.945005" lat="53.768374">
        <ele>395.611</ele>
        <time>2026-07-06T15:47:20.128Z</time>
      </trkpt>
      <trkpt lon="7.945658" lat="53.769938">
        <ele>361.641</ele>
        <time>2026-07-06T15:47:23.404Z</time>
      </trkpt>
      <trkpt lon="7.946035" lat="53.771476">
        <ele>324.834</ele>
        <time>2026-07-06T15:47:26.636Z</time>
      </trkpt>
      <trkpt lon="7.946079" lat="53.772385">
        <ele>300.064</ele>
        <time>2026-07-06T15:47:28.572Z</time>
      </trkpt>
      <trkpt lon="7.945990" lat="53.773297">
        <ele>271.583</ele>
        <time>2026-07-06T15:47:30.548Z</time>
      </trkpt>
      <trkpt lon="7.945761" lat="53.774195">
        <ele>243.675</ele>
        <time>2026-07-06T15:47:32.516Z</time>
      </trkpt>
      <trkpt lon="7.945375" lat="53.775057">
        <ele>221.229</ele>
        <time>2026-07-06T15:47:34.448Z</time>
      </trkpt>
      <trkpt lon="7.944858" lat="53.775887">
        <ele>199.866</ele>
        <time>2026-07-06T15:47:36.384Z</time>
      </trkpt>
      <trkpt lon="7.944210" lat="53.776681">
        <ele>179.301</ele>
        <time>2026-07-06T15:47:38.348Z</time>
      </trkpt>
      <trkpt lon="7.943185" lat="53.777648">
        <ele>153.549</ele>
        <time>2026-07-06T15:47:40.980Z</time>
      </trkpt>
      <trkpt lon="7.942045" lat="53.778484">
        <ele>129.326</ele>
        <time>2026-07-06T15:47:43.548Z</time>
      </trkpt>
      <trkpt lon="7.940419" lat="53.779397">
        <ele>108.819</ele>
        <time>2026-07-06T15:47:46.820Z</time>
      </trkpt>
      <trkpt lon="7.939008" lat="53.779993">
        <ele>96.6109</ele>
        <time>2026-07-06T15:47:49.396Z</time>
      </trkpt>
      <trkpt lon="7.937902" lat="53.780347">
        <ele>89.8675</ele>
        <time>2026-07-06T15:47:51.296Z</time>
      </trkpt>
      <trkpt lon="7.934718" lat="53.781116">
        <ele>69.3138</ele>
        <time>2026-07-06T15:47:56.564Z</time>
      </trkpt>
      <trkpt lon="7.931563" lat="53.781791">
        <ele>49.7298</ele>
        <time>2026-07-06T15:48:01.820Z</time>
      </trkpt>
      <trkpt lon="7.929705" lat="53.782034">
        <ele>35.7919</ele>
        <time>2026-07-06T15:48:05.120Z</time>
      </trkpt>
      <trkpt lon="7.927636" lat="53.782207">
        <ele>23.7156</ele>
        <time>2026-07-06T15:48:09.020Z</time>
      </trkpt>
      <trkpt lon="7.926842" lat="53.782268">
        <ele>21.3518</ele>
        <time>2026-07-06T15:48:10.988Z</time>
      </trkpt>
      <trkpt lon="7.925592" lat="53.782318">
        <ele>5.56447</ele>
        <time>2026-07-06T15:48:14.948Z</time>
      </trkpt>
      <trkpt lon="7.924833" lat="53.782331">
        <ele>2.5445</ele>
        <time>2026-07-06T15:48:18.208Z</time>
      </trkpt>
      <trkpt lon="7.924385" lat="53.782350">
        <ele>2.13182</ele>
        <time>2026-07-06T15:48:21.472Z</time>
      </trkpt>
      <trkpt lon="7.924329" lat="53.782351">
        <ele>2.08697</ele>
        <time>2026-07-06T15:48:22.808Z</time>
      </trkpt>
      <trkpt lon="7.924349" lat="53.782351">
        <ele>2.10235</ele>
        <time>2026-07-06T15:48:33.272Z</time>
      </trkpt>
      <trkpt lon="7.924274" lat="53.782353">
        <ele>2.06842</ele>
        <time>2026-07-06T15:50:59.716Z</time>
      </trkpt>
      <trkpt lon="7.923709" lat="53.782379">
        <ele>1.65398</ele>
        <time>2026-07-06T15:51:10.148Z</time>
      </trkpt>
      <trkpt lon="7.923052" lat="53.782414">
        <ele>0.996335</ele>
        <time>2026-07-06T15:51:20.716Z</time>
      </trkpt>
      <trkpt lon="7.922345" lat="53.782422">
        <ele>0.326005</ele>
        <time>2026-07-06T15:51:31.148Z</time>
      </trkpt>
      <trkpt lon="7.922199" lat="53.782426">
        <ele>0.224256</ele>
        <time>2026-07-06T15:51:41.648Z</time>
      </trkpt>
      <trkpt lon="7.922040" lat="53.782438">
        <ele>0.172843</ele>
        <time>2026-07-06T15:52:02.584Z</time>
      </trkpt>
      <trkpt lon="7.922004" lat="53.782443">
        <ele>0.154613</ele>
        <time>2026-07-06T15:52:03.216Z</time>
      </trkpt>
      <trkpt lon="7.921853" lat="53.782475">
        <ele>0.105218</ele>
        <time>2026-07-06T15:52:05.812Z</time>
      </trkpt>
      <trkpt lon="7.921816" lat="53.782485">
        <ele>0.0923099</ele>
        <time>2026-07-06T15:52:06.444Z</time>
      </trkpt>
      <trkpt lon="7.921782" lat="53.782500">
        <ele>0.0797268</ele>
        <time>2026-07-06T15:52:07.112Z</time>
      </trkpt>
      <trkpt lon="7.921751" lat="53.782518">
        <ele>0.0783511</ele>
        <time>2026-07-06T15:52:07.780Z</time>
      </trkpt>
      <trkpt lon="7.921729" lat="53.782539">
        <ele>0.0834271</ele>
        <time>2026-07-06T15:52:08.416Z</time>
      </trkpt>
      <trkpt lon="7.921713" lat="53.782565">
        <ele>0.0984653</ele>
        <time>2026-07-06T15:52:09.084Z</time>
      </trkpt>
      <trkpt lon="7.921705" lat="53.782595">
        <ele>0.119639</ele>
        <time>2026-07-06T15:52:09.748Z</time>
      </trkpt>
      <trkpt lon="7.921706" lat="53.782626">
        <ele>0.15734</ele>
        <time>2026-07-06T15:52:10.416Z</time>
      </trkpt>
      <trkpt lon="7.921771" lat="53.782893">
        <ele>0.744751</ele>
        <time>2026-07-06T15:52:15.680Z</time>
      </trkpt>
      <trkpt lon="7.921784" lat="53.782922">
        <ele>0.828291</ele>
        <time>2026-07-06T15:52:16.348Z</time>
      </trkpt>
      <trkpt lon="7.921804" lat="53.782949">
        <ele>0.900678</ele>
        <time>2026-07-06T15:52:17.016Z</time>
      </trkpt>
      <trkpt lon="7.921831" lat="53.782973">
        <ele>0.975536</ele>
        <time>2026-07-06T15:52:17.680Z</time>
      </trkpt>
      <trkpt lon="7.921865" lat="53.782992">
        <ele>1.03697</ele>
        <time>2026-07-06T15:52:18.312Z</time>
      </trkpt>
      <trkpt lon="7.921906" lat="53.783007">
        <ele>1.09187</ele>
        <time>2026-07-06T15:52:18.980Z</time>
      </trkpt>
      <trkpt lon="7.921952" lat="53.783018">
        <ele>1.14701</ele>
        <time>2026-07-06T15:52:19.648Z</time>
      </trkpt>
      <trkpt lon="7.922003" lat="53.783025">
        <ele>1.17902</ele>
        <time>2026-07-06T15:52:20.296Z</time>
      </trkpt>
      <trkpt lon="7.922190" lat="53.783033">
        <ele>1.26026</ele>
        <time>2026-07-06T15:52:22.232Z</time>
      </trkpt>
      <trkpt lon="7.922421" lat="53.783033">
        <ele>1.32039</ele>
        <time>2026-07-06T15:52:24.232Z</time>
      </trkpt>
      <trkpt lon="7.923749" lat="53.782971">
        <ele>1.55752</ele>
        <time>2026-07-06T15:52:34.668Z</time>
      </trkpt>
      <trkpt lon="7.925245" lat="53.782903">
        <ele>2.24574</ele>
        <time>2026-07-06T15:52:45.100Z</time>
      </trkpt>
      <trkpt lon="7.925667" lat="53.782887">
        <ele>2.44443</ele>
        <time>2026-07-06T15:52:49.000Z</time>
      </trkpt>
      <trkpt lon="7.925733" lat="53.782882">
        <ele>2.47992</ele>
        <time>2026-07-06T15:52:50.288Z</time>
      </trkpt>
      <trkpt lon="7.925765" lat="53.782877">
        <ele>2.48878</ele>
        <time>2026-07-06T15:52:50.920Z</time>
      </trkpt>
      <trkpt lon="7.925862" lat="53.782848">
        <ele>2.4833</ele>
        <time>2026-07-06T15:52:52.856Z</time>
      </trkpt>
      <trkpt lon="7.925896" lat="53.782835">
        <ele>2.48743</ele>
        <time>2026-07-06T15:52:53.524Z</time>
      </trkpt>
      <trkpt lon="7.925928" lat="53.782819">
        <ele>2.49145</ele>
        <time>2026-07-06T15:52:54.192Z</time>
      </trkpt>
      <trkpt lon="7.925958" lat="53.782801">
        <ele>2.48208</ele>
        <time>2026-07-06T15:52:54.856Z</time>
      </trkpt>
      <trkpt lon="7.925981" lat="53.782780">
        <ele>2.46827</ele>
        <time>2026-07-06T15:52:55.488Z</time>
      </trkpt>
      <trkpt lon="7.926000" lat="53.782758">
        <ele>2.46598</ele>
        <time>2026-07-06T15:52:56.124Z</time>
      </trkpt>
      <trkpt lon="7.926013" lat="53.782739">
        <ele>2.44362</ele>
        <time>2026-07-06T15:52:57.456Z</time>
      </trkpt>
      <trkpt lon="7.926023" lat="53.782716">
        <ele>2.42999</ele>
        <time>2026-07-06T15:53:49.824Z</time>
      </trkpt>
      <trkpt lon="7.926036" lat="53.782673">
        <ele>2.39535</ele>
        <time>2026-07-06T15:56:19.124Z</time>
      </trkpt>
      <trkpt lon="7.926051" lat="53.782593">
        <ele>2.31314</ele>
        <time>2026-07-06T15:56:20.456Z</time>
      </trkpt>
      <trkpt lon="7.926050" lat="53.782549">
        <ele>2.27631</ele>
        <time>2026-07-06T15:56:21.124Z</time>
      </trkpt>
      <trkpt lon="7.926040" lat="53.782506">
        <ele>2.24148</ele>
        <time>2026-07-06T15:56:21.788Z</time>
      </trkpt>
      <trkpt lon="7.926018" lat="53.782468">
        <ele>2.2127</ele>
        <time>2026-07-06T15:56:22.420Z</time>
      </trkpt>
      <trkpt lon="7.925984" lat="53.782431">
        <ele>2.19206</ele>
        <time>2026-07-06T15:56:23.088Z</time>
      </trkpt>
      <trkpt lon="7.925928" lat="53.782398">
        <ele>2.2237</ele>
        <time>2026-07-06T15:56:23.856Z</time>
      </trkpt>
      <trkpt lon="7.925848" lat="53.782373">
        <ele>2.19898</ele>
        <time>2026-07-06T15:56:24.512Z</time>
      </trkpt>
      <trkpt lon="7.925648" lat="53.782345">
        <ele>2.24926</ele>
        <time>2026-07-06T15:56:25.812Z</time>
      </trkpt>
      <trkpt lon="7.925063" lat="53.782322">
        <ele>2.7106</ele>
        <time>2026-07-06T15:56:28.444Z</time>
      </trkpt>
      <trkpt lon="7.924324" lat="53.782353">
        <ele>7.57968</ele>
        <time>2026-07-06T15:56:31.080Z</time>
      </trkpt>
      <trkpt lon="7.923805" lat="53.782435">
        <ele>12.7911</ele>
        <time>2026-07-06T15:56:33.048Z</time>
      </trkpt>
      <trkpt lon="7.922528" lat="53.782737">
        <ele>20.0952</ele>
        <time>2026-07-06T15:56:38.276Z</time>
      </trkpt>
      <trkpt lon="7.922012" lat="53.782778">
        <ele>20.0075</ele>
        <time>2026-07-06T15:56:40.248Z</time>
      </trkpt>
      <trkpt lon="7.920788" lat="53.782767">
        <ele>19.451</ele>
        <time>2026-07-06T15:56:44.144Z</time>
      </trkpt>
      <trkpt lon="7.918570" lat="53.782727">
        <ele>37.1184</ele>
        <time>2026-07-06T15:56:49.916Z</time>
      </trkpt>
      <trkpt lon="7.916149" lat="53.782732">
        <ele>53.8276</ele>
        <time>2026-07-06T15:56:55.220Z</time>
      </trkpt>
      <trkpt lon="7.913787" lat="53.782707">
        <ele>73.4479</ele>
        <time>2026-07-06T15:56:59.784Z</time>
      </trkpt>
      <trkpt lon="7.911634" lat="53.782702">
        <ele>95.3059</ele>
        <time>2026-07-06T15:57:03.752Z</time>
      </trkpt>
      <trkpt lon="7.909035" lat="53.782723">
        <ele>117.947</ele>
        <time>2026-07-06T15:57:08.388Z</time>
      </trkpt>
      <trkpt lon="7.906778" lat="53.782652">
        <ele>141.934</ele>
        <time>2026-07-06T15:57:12.320Z</time>
      </trkpt>
      <trkpt lon="7.904952" lat="53.782573">
        <ele>169.23</ele>
        <time>2026-07-06T15:57:15.544Z</time>
      </trkpt>
      <trkpt lon="7.902731" lat="53.782536">
        <ele>196.31</ele>
        <time>2026-07-06T15:57:19.520Z</time>
      </trkpt>
      <trkpt lon="7.900506" lat="53.782518">
        <ele>221.933</ele>
        <time>2026-07-06T15:57:23.484Z</time>
      </trkpt>
      <trkpt lon="7.898382" lat="53.782575">
        <ele>248.748</ele>
        <time>2026-07-06T15:57:27.388Z</time>
      </trkpt>
      <trkpt lon="7.893459" lat="53.782883">
        <ele>276.821</ele>
        <time>2026-07-06T15:57:36.520Z</time>
      </trkpt>
      <trkpt lon="7.887126" lat="53.782874">
        <ele>283.821</ele>
        <time>2026-07-06T15:57:46.956Z</time>
      </trkpt>
      <trkpt lon="7.882109" lat="53.782539">
        <ele>305.903</ele>
        <time>2026-07-06T15:57:54.792Z</time>
      </trkpt>
      <trkpt lon="7.879754" lat="53.782214">
        <ele>336.93</ele>
        <time>2026-07-06T15:57:58.728Z</time>
      </trkpt>
      <trkpt lon="7.876745" lat="53.781752">
        <ele>369.744</ele>
        <time>2026-07-06T15:58:03.992Z</time>
      </trkpt>
      <trkpt lon="7.873847" lat="53.781160">
        <ele>400.275</ele>
        <time>2026-07-06T15:58:09.192Z</time>
      </trkpt>
      <trkpt lon="7.866698" lat="53.779574">
        <ele>435.258</ele>
        <time>2026-07-06T15:58:21.460Z</time>
      </trkpt>
      <trkpt lon="7.858889" lat="53.778128">
        <ele>474.026</ele>
        <time>2026-07-06T15:58:33.892Z</time>
      </trkpt>
      <trkpt lon="7.844171" lat="53.775147">
        <ele>504.545</ele>
        <time>2026-07-06T15:58:58.496Z</time>
      </trkpt>
      <trkpt lon="7.824772" lat="53.773703">
        <ele>471.54</ele>
        <time>2026-07-06T15:59:28.960Z</time>
      </trkpt>
      <trkpt lon="7.811953" lat="53.772714">
        <ele>457.247</ele>
        <time>2026-07-06T15:59:49.208Z</time>
      </trkpt>
      <trkpt lon="7.799035" lat="53.772642">
        <ele>472.789</ele>
        <time>2026-07-06T16:00:10.272Z</time>
      </trkpt>
      <trkpt lon="7.781007" lat="53.771320">
        <ele>484.342</ele>
        <time>2026-07-06T16:00:40.376Z</time>
      </trkpt>
      <trkpt lon="7.762495" lat="53.770866">
        <ele>483.227</ele>
        <time>2026-07-06T16:01:10.440Z</time>
      </trkpt>
      <trkpt lon="7.743918" lat="53.771444">
        <ele>484.427</ele>
        <time>2026-07-06T16:01:40.608Z</time>
      </trkpt>
      <trkpt lon="7.725074" lat="53.773203">
        <ele>483.633</ele>
        <time>2026-07-06T16:02:10.720Z</time>
      </trkpt>
      <trkpt lon="7.716625" lat="53.774278">
        <ele>501.25</ele>
        <time>2026-07-06T16:02:24.428Z</time>
      </trkpt>
      <trkpt lon="7.715177" lat="53.774252">
        <ele>521.773</ele>
        <time>2026-07-06T16:02:27.008Z</time>
      </trkpt>
      <trkpt lon="7.713779" lat="53.774085">
        <ele>532.99</ele>
        <time>2026-07-06T16:02:29.640Z</time>
      </trkpt>
      <trkpt lon="7.712005" lat="53.773730">
        <ele>532.959</ele>
        <time>2026-07-06T16:02:32.940Z</time>
      </trkpt>
      <trkpt lon="7.705196" lat="53.771698">
        <ele>511.435</ele>
        <time>2026-07-06T16:02:45.228Z</time>
      </trkpt>
      <trkpt lon="7.686853" lat="53.767024">
        <ele>482.77</ele>
        <time>2026-07-06T16:03:15.452Z</time>
      </trkpt>
      <trkpt lon="7.668527" lat="53.763518">
        <ele>484.676</ele>
        <time>2026-07-06T16:03:45.908Z</time>
      </trkpt>
      <trkpt lon="7.659194" lat="53.762192">
        <ele>482.803</ele>
        <time>2026-07-06T16:04:15.976Z</time>
      </trkpt>
      <trkpt lon="7.640162" lat="53.760334">
        <ele>481.525</ele>
        <time>2026-07-06T16:04:46.496Z</time>
      </trkpt>
      <trkpt lon="7.621121" lat="53.759641">
        <ele>482.463</ele>
        <time>2026-07-06T16:05:16.568Z</time>
      </trkpt>
      <trkpt lon="7.602766" lat="53.759856">
        <ele>500.153</ele>
        <time>2026-07-06T16:05:44.916Z</time>
      </trkpt>
      <trkpt lon="7.600333" lat="53.759527">
        <ele>511.657</ele>
        <time>2026-07-06T16:05:48.984Z</time>
      </trkpt>
      <trkpt lon="7.592710" lat="53.758020">
        <ele>488.237</ele>
        <time>2026-07-06T16:06:01.460Z</time>
      </trkpt>
      <trkpt lon="7.585359" lat="53.756484">
        <ele>451.793</ele>
        <time>2026-07-06T16:06:12.228Z</time>
      </trkpt>
      <trkpt lon="7.579779" lat="53.755376">
        <ele>414.172</ele>
        <time>2026-07-06T16:06:20.112Z</time>
      </trkpt>
      <trkpt lon="7.575448" lat="53.754657">
        <ele>380.221</ele>
        <time>2026-07-06T16:06:25.976Z</time>
      </trkpt>
      <trkpt lon="7.571050" lat="53.753865">
        <ele>347.581</ele>
        <time>2026-07-06T16:06:31.848Z</time>
      </trkpt>
      <trkpt lon="7.563314" lat="53.752372">
        <ele>347.411</ele>
        <time>2026-07-06T16:06:42.436Z</time>
      </trkpt>
      <trkpt lon="7.560327" lat="53.751845">
        <ele>358.415</ele>
        <time>2026-07-06T16:06:47.124Z</time>
      </trkpt>
      <trkpt lon="7.556189" lat="53.751357">
        <ele>328.007</ele>
        <time>2026-07-06T16:06:53.752Z</time>
      </trkpt>
      <trkpt lon="7.550774" lat="53.750833">
        <ele>297.998</ele>
        <time>2026-07-06T16:07:01.912Z</time>
      </trkpt>
      <trkpt lon="7.545363" lat="53.750643">
        <ele>269.965</ele>
        <time>2026-07-06T16:07:09.856Z</time>
      </trkpt>
      <trkpt lon="7.537595" lat="53.750662">
        <ele>242.421</ele>
        <time>2026-07-06T16:07:21.620Z</time>
      </trkpt>
      <trkpt lon="7.531187" lat="53.750656">
        <ele>216.921</ele>
        <time>2026-07-06T16:07:31.468Z</time>
      </trkpt>
      <trkpt lon="7.521597" lat="53.750504">
        <ele>200.622</ele>
        <time>2026-07-06T16:07:46.644Z</time>
      </trkpt>
      <trkpt lon="7.520442" lat="53.750312">
        <ele>204.045</ele>
        <time>2026-07-06T16:07:48.616Z</time>
      </trkpt>
      <trkpt lon="7.518232" lat="53.749756">
        <ele>201.752</ele>
        <time>2026-07-06T16:07:52.592Z</time>
      </trkpt>
      <trkpt lon="7.514240" lat="53.748516">
        <ele>177.115</ele>
        <time>2026-07-06T16:08:00.664Z</time>
      </trkpt>
      <trkpt lon="7.512961" lat="53.748140">
        <ele>154.293</ele>
        <time>2026-07-06T16:08:03.372Z</time>
      </trkpt>
      <trkpt lon="7.511390" lat="53.747746">
        <ele>132.173</ele>
        <time>2026-07-06T16:08:06.640Z</time>
      </trkpt>
      <trkpt lon="7.510214" lat="53.747407">
        <ele>108.583</ele>
        <time>2026-07-06T16:08:09.276Z</time>
      </trkpt>
      <trkpt lon="7.508818" lat="53.746887">
        <ele>85.0705</ele>
        <time>2026-07-06T16:08:12.560Z</time>
      </trkpt>
      <trkpt lon="7.507422" lat="53.746308">
        <ele>64.4514</ele>
        <time>2026-07-06T16:08:15.860Z</time>
      </trkpt>
      <trkpt lon="7.506728" lat="53.746012">
        <ele>64.2748</ele>
        <time>2026-07-06T16:08:17.828Z</time>
      </trkpt>
      <trkpt lon="7.505859" lat="53.745597">
        <ele>54.4931</ele>
        <time>2026-07-06T16:08:21.128Z</time>
      </trkpt>
      <trkpt lon="7.505027" lat="53.745162">
        <ele>37.1635</ele>
        <time>2026-07-06T16:08:25.016Z</time>
      </trkpt>
      <trkpt lon="7.504604" lat="53.744991">
        <ele>28.5281</ele>
        <time>2026-07-06T16:08:26.980Z</time>
      </trkpt>
      <trkpt lon="7.502279" lat="53.744185">
        <ele>12.8118</ele>
        <time>2026-07-06T16:08:36.928Z</time>
      </trkpt>
      <trkpt lon="7.501252" lat="53.743839">
        <ele>5.697</ele>
        <time>2026-07-06T16:08:41.444Z</time>
      </trkpt>
      <trkpt lon="7.500751" lat="53.743682">
        <ele>2.45557</ele>
        <time>2026-07-06T16:08:44.096Z</time>
      </trkpt>
      <trkpt lon="7.500501" lat="53.743560">
        <ele>2.34115</ele>
        <time>2026-07-06T16:08:46.084Z</time>
      </trkpt>
      <trkpt lon="7.500396" lat="53.743517">
        <ele>2.29977</ele>
        <time>2026-07-06T16:08:47.444Z</time>
      </trkpt>
      <trkpt lon="7.500370" lat="53.743506">
        <ele>2.29958</ele>
        <time>2026-07-06T16:08:48.084Z</time>
      </trkpt>
      <trkpt lon="7.500342" lat="53.743497">
        <ele>2.30321</ele>
        <time>2026-07-06T16:08:48.780Z</time>
      </trkpt>
      <trkpt lon="7.500306" lat="53.743491">
        <ele>2.30297</ele>
        <time>2026-07-06T16:08:49.452Z</time>
      </trkpt>
      <trkpt lon="7.500252" lat="53.743492">
        <ele>2.30193</ele>
        <time>2026-07-06T16:08:50.140Z</time>
      </trkpt>
      <trkpt lon="7.500194" lat="53.743502">
        <ele>2.28356</ele>
        <time>2026-07-06T16:08:50.788Z</time>
      </trkpt>
      <trkpt lon="7.499941" lat="53.743570">
        <ele>2.20954</ele>
        <time>2026-07-06T16:08:54.804Z</time>
      </trkpt>
    </trkseg>
    <trkseg>
      <trkpt lon="7.926035" lat="53.782774">
        <ele>2.46889</ele>
        <time>2026-07-06T16:15:26.512Z</time>
      </trkpt>
      <trkpt lon="7.925933" lat="53.782268">
        <ele>2.08931</ele>
        <time>2026-07-06T16:16:02.736Z</time>
      </trkpt>
      <trkpt lon="7.925980" lat="53.782266">
        <ele>2.08229</ele>
        <time>2026-07-06T16:16:13.248Z</time>
      </trkpt>
      <trkpt lon="7.925915" lat="53.782269">
        <ele>2.11921</ele>
        <time>2026-07-06T16:17:19.676Z</time>
      </trkpt>
      <trkpt lon="7.925677" lat="53.782289">
        <ele>2.20699</ele>
        <time>2026-07-06T16:17:21.604Z</time>
      </trkpt>
      <trkpt lon="7.925262" lat="53.782321">
        <ele>2.36627</ele>
        <time>2026-07-06T16:17:23.604Z</time>
      </trkpt>
      <trkpt lon="7.924199" lat="53.782388">
        <ele>2.92431</ele>
        <time>2026-07-06T16:17:27.508Z</time>
      </trkpt>
      <trkpt lon="7.923793" lat="53.782449">
        <ele>1.65269</ele>
        <time>2026-07-06T16:17:29.440Z</time>
      </trkpt>
      <trkpt lon="7.923680" lat="53.782461">
        <ele>1.55098</ele>
        <time>2026-07-06T16:17:30.076Z</time>
      </trkpt>
      <trkpt lon="7.923506" lat="53.782466">
        <ele>1.38259</ele>
        <time>2026-07-06T16:17:31.408Z</time>
      </trkpt>
      <trkpt lon="7.923461" lat="53.782465">
        <ele>1.33776</ele>
        <time>2026-07-06T16:17:32.708Z</time>
      </trkpt>
      <trkpt lon="7.923394" lat="53.782463">
        <ele>1.3037</ele>
        <time>2026-07-06T16:19:31.308Z</time>
      </trkpt>
      <trkpt lon="7.923125" lat="53.782462">
        <ele>1.08174</ele>
        <time>2026-07-06T16:19:33.272Z</time>
      </trkpt>
      <trkpt lon="7.922675" lat="53.782475">
        <ele>0.73457</ele>
        <time>2026-07-06T16:19:35.208Z</time>
      </trkpt>
      <trkpt lon="7.921628" lat="53.782499">
        <ele>5.0614</ele>
        <time>2026-07-06T16:19:38.416Z</time>
      </trkpt>
      <trkpt lon="7.920023" lat="53.782591">
        <ele>24.8958</ele>
        <time>2026-07-06T16:19:43.016Z</time>
      </trkpt>
      <trkpt lon="7.918586" lat="53.782751">
        <ele>38.0555</ele>
        <time>2026-07-06T16:19:46.948Z</time>
      </trkpt>
      <trkpt lon="7.916235" lat="53.782920">
        <ele>57.5987</ele>
        <time>2026-07-06T16:19:52.152Z</time>
      </trkpt>
      <trkpt lon="7.915014" lat="53.782940">
        <ele>79.1147</ele>
        <time>2026-07-06T16:19:54.784Z</time>
      </trkpt>
      <trkpt lon="7.913778" lat="53.782948">
        <ele>99.1626</ele>
        <time>2026-07-06T16:19:57.428Z</time>
      </trkpt>
      <trkpt lon="7.912245" lat="53.783001">
        <ele>121.759</ele>
        <time>2026-07-06T16:20:00.732Z</time>
      </trkpt>
      <trkpt lon="7.910039" lat="53.783091">
        <ele>146.071</ele>
        <time>2026-07-06T16:20:05.328Z</time>
      </trkpt>
      <trkpt lon="7.907311" lat="53.783082">
        <ele>168.987</ele>
        <time>2026-07-06T16:20:10.560Z</time>
      </trkpt>
      <trkpt lon="7.906605" lat="53.782982">
        <ele>173.862</ele>
        <time>2026-07-06T16:20:11.896Z</time>
      </trkpt>
      <trkpt lon="7.905923" lat="53.782825">
        <ele>177.712</ele>
        <time>2026-07-06T16:20:13.192Z</time>
      </trkpt>
      <trkpt lon="7.904910" lat="53.782496">
        <ele>182.811</ele>
        <time>2026-07-06T16:20:15.160Z</time>
      </trkpt>
      <trkpt lon="7.903922" lat="53.782069">
        <ele>189.822</ele>
        <time>2026-07-06T16:20:17.160Z</time>
      </trkpt>
      <trkpt lon="7.902465" lat="53.781257">
        <ele>206.878</ele>
        <time>2026-07-06T16:20:20.428Z</time>
      </trkpt>
      <trkpt lon="7.900767" lat="53.780022">
        <ele>235.832</ele>
        <time>2026-07-06T16:20:25.064Z</time>
      </trkpt>
      <trkpt lon="7.898493" lat="53.778032">
        <ele>263.225</ele>
        <time>2026-07-06T16:20:32.292Z</time>
      </trkpt>
      <trkpt lon="7.896845" lat="53.776601">
        <ele>264.223</ele>
        <time>2026-07-06T16:20:36.860Z</time>
      </trkpt>
      <trkpt lon="7.893730" lat="53.773835">
        <ele>293.623</ele>
        <time>2026-07-06T16:20:44.792Z</time>
      </trkpt>
      <trkpt lon="7.892585" lat="53.772701">
        <ele>326.236</ele>
        <time>2026-07-06T16:20:48.064Z</time>
      </trkpt>
      <trkpt lon="7.891706" lat="53.771883">
        <ele>360.343</ele>
        <time>2026-07-06T16:20:50.696Z</time>
      </trkpt>
      <trkpt lon="7.890723" lat="53.770985">
        <ele>399.031</ele>
        <time>2026-07-06T16:20:53.928Z</time>
      </trkpt>
      <trkpt lon="7.888655" lat="53.768536">
        <ele>433.496</ele>
        <time>2026-07-06T16:21:02.424Z</time>
      </trkpt>
      <trkpt lon="7.885808" lat="53.765107">
        <ele>437.145</ele>
        <time>2026-07-06T16:21:12.128Z</time>
      </trkpt>
      <trkpt lon="7.878819" lat="53.755162">
        <ele>443.919</ele>
        <time>2026-07-06T16:21:38.728Z</time>
      </trkpt>
      <trkpt lon="7.878377" lat="53.754743">
        <ele>442.762</ele>
        <time>2026-07-06T16:21:40.028Z</time>
      </trkpt>
      <trkpt lon="7.877870" lat="53.754376">
        <ele>444.573</ele>
        <time>2026-07-06T16:21:41.328Z</time>
      </trkpt>
      <trkpt lon="7.877313" lat="53.754072">
        <ele>453.777</ele>
        <time>2026-07-06T16:21:42.660Z</time>
      </trkpt>
      <trkpt lon="7.876502" lat="53.753727">
        <ele>468.968</ele>
        <time>2026-07-06T16:21:44.628Z</time>
      </trkpt>
      <trkpt lon="7.875177" lat="53.753283">
        <ele>481.89</ele>
        <time>2026-07-06T16:21:47.860Z</time>
      </trkpt>
      <trkpt lon="7.871274" lat="53.752168">
        <ele>491.649</ele>
        <time>2026-07-06T16:21:56.960Z</time>
      </trkpt>
      <trkpt lon="7.869474" lat="53.751417">
        <ele>483.696</ele>
        <time>2026-07-06T16:22:01.024Z</time>
      </trkpt>
      <trkpt lon="7.865871" lat="53.749520">
        <ele>468.559</ele>
        <time>2026-07-06T16:22:08.872Z</time>
      </trkpt>
      <trkpt lon="7.858529" lat="53.744805">
        <ele>432.699</ele>
        <time>2026-07-06T16:22:24.700Z</time>
      </trkpt>
      <trkpt lon="7.848456" lat="53.738151">
        <ele>387.134</ele>
        <time>2026-07-06T16:22:45.952Z</time>
      </trkpt>
      <trkpt lon="7.832034" lat="53.726529">
        <ele>361.784</ele>
        <time>2026-07-06T16:23:22.592Z</time>
      </trkpt>
      <trkpt lon="7.816464" lat="53.714819">
        <ele>343.239</ele>
        <time>2026-07-06T16:23:58.112Z</time>
      </trkpt>
      <trkpt lon="7.801250" lat="53.704009">
        <ele>356.222</ele>
        <time>2026-07-06T16:24:35.284Z</time>
      </trkpt>
      <trkpt lon="7.792013" lat="53.697432">
        <ele>415.687</ele>
        <time>2026-07-06T16:24:57.912Z</time>
      </trkpt>
      <trkpt lon="7.783810" lat="53.690926">
        <ele>458.369</ele>
        <time>2026-07-06T16:25:20.084Z</time>
      </trkpt>
      <trkpt lon="7.770454" lat="53.680846">
        <ele>488.868</ele>
        <time>2026-07-06T16:25:53.504Z</time>
      </trkpt>
      <trkpt lon="7.756775" lat="53.670959">
        <ele>523.717</ele>
        <time>2026-07-06T16:26:26.628Z</time>
      </trkpt>
      <trkpt lon="7.742809" lat="53.660174">
        <ele>554.623</ele>
        <time>2026-07-06T16:27:01.328Z</time>
      </trkpt>
      <trkpt lon="7.739322" lat="53.656541">
        <ele>576.277</ele>
        <time>2026-07-06T16:27:11.748Z</time>
      </trkpt>
      <trkpt lon="7.733009" lat="53.649227">
        <ele>598.725</ele>
        <time>2026-07-06T16:27:32.272Z</time>
      </trkpt>
      <trkpt lon="7.726813" lat="53.644183">
        <ele>587.721</ele>
        <time>2026-07-06T16:27:48.332Z</time>
      </trkpt>
      <trkpt lon="7.713734" lat="53.635257">
        <ele>594.579</ele>
        <time>2026-07-06T16:28:19.696Z</time>
      </trkpt>
      <trkpt lon="7.701916" lat="53.625810">
        <ele>609.858</ele>
        <time>2026-07-06T16:28:50.944Z</time>
      </trkpt>
      <trkpt lon="7.692555" lat="53.617028">
        <ele>618.894</ele>
        <time>2026-07-06T16:29:17.472Z</time>
      </trkpt>
      <trkpt lon="7.689694" lat="53.613041">
        <ele>628.438</ele>
        <time>2026-07-06T16:29:27.916Z</time>
      </trkpt>
      <trkpt lon="7.684330" lat="53.602451">
        <ele>650.236</ele>
        <time>2026-07-06T16:29:54.180Z</time>
      </trkpt>
      <trkpt lon="7.682460" lat="53.600667">
        <ele>636.757</ele>
        <time>2026-07-06T16:29:59.496Z</time>
      </trkpt>
      <trkpt lon="7.678052" lat="53.597493">
        <ele>619.145</ele>
        <time>2026-07-06T16:30:09.844Z</time>
      </trkpt>
      <trkpt lon="7.668982" lat="53.591702">
        <ele>641.269</ele>
        <time>2026-07-06T16:30:30.596Z</time>
      </trkpt>
      <trkpt lon="7.654460" lat="53.583985">
        <ele>656.642</ele>
        <time>2026-07-06T16:31:02.156Z</time>
      </trkpt>
      <trkpt lon="7.640471" lat="53.575921">
        <ele>668.772</ele>
        <time>2026-07-06T16:31:33.316Z</time>
      </trkpt>
      <trkpt lon="7.634016" lat="53.571621">
        <ele>672.817</ele>
        <time>2026-07-06T16:31:48.640Z</time>
      </trkpt>
      <trkpt lon="7.631487" lat="53.570411">
        <ele>666.392</ele>
        <time>2026-07-06T16:31:53.972Z</time>
      </trkpt>
      <trkpt lon="7.628660" lat="53.569457">
        <ele>656.085</ele>
        <time>2026-07-06T16:31:59.384Z</time>
      </trkpt>
      <trkpt lon="7.625663" lat="53.568833">
        <ele>646.068</ele>
        <time>2026-07-06T16:32:04.724Z</time>
      </trkpt>
      <trkpt lon="7.619629" lat="53.568282">
        <ele>638.011</ele>
        <time>2026-07-06T16:32:15.152Z</time>
      </trkpt>
      <trkpt lon="7.602514" lat="53.567423">
        <ele>654.298</ele>
        <time>2026-07-06T16:32:46.332Z</time>
      </trkpt>
      <trkpt lon="7.583560" lat="53.564473">
        <ele>669.515</ele>
        <time>2026-07-06T16:33:21.188Z</time>
      </trkpt>
      <trkpt lon="7.566192" lat="53.561356">
        <ele>667.459</ele>
        <time>2026-07-06T16:33:53.176Z</time>
      </trkpt>
      <trkpt lon="7.554312" lat="53.560389">
        <ele>646.148</ele>
        <time>2026-07-06T16:34:14.356Z</time>
      </trkpt>
      <trkpt lon="7.536469" lat="53.560436">
        <ele>648.746</ele>
        <time>2026-07-06T16:34:46.524Z</time>
      </trkpt>
      <trkpt lon="7.530480" lat="53.561168">
        <ele>646.419</ele>
        <time>2026-07-06T16:34:57.732Z</time>
      </trkpt>
      <trkpt lon="7.524935" lat="53.562545">
        <ele>641.559</ele>
        <time>2026-07-06T16:35:08.512Z</time>
      </trkpt>
      <trkpt lon="7.519813" lat="53.564551">
        <ele>640.013</ele>
        <time>2026-07-06T16:35:19.220Z</time>
      </trkpt>
      <trkpt lon="7.515151" lat="53.567111">
        <ele>647.615</ele>
        <time>2026-07-06T16:35:30.084Z</time>
      </trkpt>
      <trkpt lon="7.507373" lat="53.573352">
        <ele>675.588</ele>
        <time>2026-07-06T16:35:52.616Z</time>
      </trkpt>
      <trkpt lon="7.497203" lat="53.582934">
        <ele>695.461</ele>
        <time>2026-07-06T16:36:26.080Z</time>
      </trkpt>
      <trkpt lon="7.487081" lat="53.592532">
        <ele>717.62</ele>
        <time>2026-07-06T16:36:58.996Z</time>
      </trkpt>
      <trkpt lon="7.476890" lat="53.602151">
        <ele>751.053</ele>
        <time>2026-07-06T16:37:32.408Z</time>
      </trkpt>
      <trkpt lon="7.465527" lat="53.611454">
        <ele>778.737</ele>
        <time>2026-07-06T16:38:06.300Z</time>
      </trkpt>
      <trkpt lon="7.457234" lat="53.616509">
        <ele>785.23</ele>
        <time>2026-07-06T16:38:27.592Z</time>
      </trkpt>
      <trkpt lon="7.447196" lat="53.620578">
        <ele>789.873</ele>
        <time>2026-07-06T16:38:49.788Z</time>
      </trkpt>
      <trkpt lon="7.435950" lat="53.623070">
        <ele>798.325</ele>
        <time>2026-07-06T16:39:11.980Z</time>
      </trkpt>
      <trkpt lon="7.430045" lat="53.623628">
        <ele>803.814</ele>
        <time>2026-07-06T16:39:23.148Z</time>
      </trkpt>
      <trkpt lon="7.418244" lat="53.623624">
        <ele>822.868</ele>
        <time>2026-07-06T16:39:44.904Z</time>
      </trkpt>
      <trkpt lon="7.400729" lat="53.623714">
        <ele>857.986</ele>
        <time>2026-07-06T16:40:17.780Z</time>
      </trkpt>
      <trkpt lon="7.388563" lat="53.623800">
        <ele>879.313</ele>
        <time>2026-07-06T16:40:40.184Z</time>
      </trkpt>
      <trkpt lon="7.376677" lat="53.622477">
        <ele>910.038</ele>
        <time>2026-07-06T16:41:01.916Z</time>
      </trkpt>
      <trkpt lon="7.358864" lat="53.618255">
        <ele>955.78</ele>
        <time>2026-07-06T16:41:35.076Z</time>
      </trkpt>
      <trkpt lon="7.340084" lat="53.614700">
        <ele>974.876</ele>
        <time>2026-07-06T16:42:08.520Z</time>
      </trkpt>
      <trkpt lon="7.320501" lat="53.611558">
        <ele>993.647</ele>
        <time>2026-07-06T16:42:43.536Z</time>
      </trkpt>
      <trkpt lon="7.308007" lat="53.609468">
        <ele>1001.27</ele>
        <time>2026-07-06T16:43:06.552Z</time>
      </trkpt>
      <trkpt lon="7.301547" lat="53.607601">
        <ele>1004.87</ele>
        <time>2026-07-06T16:43:18.228Z</time>
      </trkpt>
      <trkpt lon="7.295221" lat="53.605097">
        <ele>1017.27</ele>
        <time>2026-07-06T16:43:29.888Z</time>
      </trkpt>
    </trkseg>
    <trkseg>
      <trkpt lon="7.909907" lat="53.786912">
        <ele>2.16549</ele>
        <time>2026-07-06T16:25:01.508Z</time>
      </trkpt>
      <trkpt lon="7.909896" lat="53.786910">
        <ele>2.29007</ele>
        <time>2026-07-06T16:30:10.380Z</time>
      </trkpt>
      <trkpt lon="7.909873" lat="53.786902">
        <ele>2.3056</ele>
        <time>2026-07-06T16:30:11.012Z</time>
      </trkpt>
      <trkpt lon="7.909843" lat="53.786887">
        <ele>2.31489</ele>
        <time>2026-07-06T16:30:11.680Z</time>
      </trkpt>
      <trkpt lon="7.909818" lat="53.786864">
        <ele>2.32116</ele>
        <time>2026-07-06T16:30:12.348Z</time>
      </trkpt>
      <trkpt lon="7.909799" lat="53.786836">
        <ele>2.34679</ele>
        <time>2026-07-06T16:30:13.012Z</time>
      </trkpt>
      <trkpt lon="7.909783" lat="53.786806">
        <ele>2.38125</ele>
        <time>2026-07-06T16:30:13.644Z</time>
      </trkpt>
      <trkpt lon="7.909779" lat="53.786772">
        <ele>2.4016</ele>
        <time>2026-07-06T16:30:14.280Z</time>
      </trkpt>
      <trkpt lon="7.909787" lat="53.786734">
        <ele>2.45024</ele>
        <time>2026-07-06T16:30:14.944Z</time>
      </trkpt>
      <trkpt lon="7.909834" lat="53.786652">
        <ele>2.49914</ele>
        <time>2026-07-06T16:30:16.284Z</time>
      </trkpt>
      <trkpt lon="7.910091" lat="53.786348">
        <ele>1.47019</ele>
        <time>2026-07-06T16:30:20.252Z</time>
      </trkpt>
      <trkpt lon="7.910147" lat="53.786250">
        <ele>1.42613</ele>
        <time>2026-07-06T16:30:21.564Z</time>
      </trkpt>
      <trkpt lon="7.910154" lat="53.786207">
        <ele>1.42186</ele>
        <time>2026-07-06T16:30:22.232Z</time>
      </trkpt>
      <trkpt lon="7.910152" lat="53.786140">
        <ele>1.4203</ele>
        <time>2026-07-06T16:30:24.196Z</time>
      </trkpt>
      <trkpt lon="7.910163" lat="53.786088">
        <ele>1.45265</ele>
        <time>2026-07-06T16:32:15.832Z</time>
      </trkpt>
      <trkpt lon="7.910186" lat="53.786036">
        <ele>1.45968</ele>
        <time>2026-07-06T16:32:16.464Z</time>
      </trkpt>
      <trkpt lon="7.910302" lat="53.785867">
        <ele>1.91448</ele>
        <time>2026-07-06T16:32:17.796Z</time>
      </trkpt>
      <trkpt lon="7.910361" lat="53.785756">
        <ele>2.41875</ele>
        <time>2026-07-06T16:32:18.428Z</time>
      </trkpt>
      <trkpt lon="7.910401" lat="53.785630">
        <ele>2.91968</ele>
        <time>2026-07-06T16:32:19.068Z</time>
      </trkpt>
      <trkpt lon="7.910522" lat="53.785318">
        <ele>4.09579</ele>
        <time>2026-07-06T16:32:20.364Z</time>
      </trkpt>
      <trkpt lon="7.910784" lat="53.784940">
        <ele>5.52477</ele>
        <time>2026-07-06T16:32:21.700Z</time>
      </trkpt>
      <trkpt lon="7.911523" lat="53.784123">
        <ele>16.4861</ele>
        <time>2026-07-06T16:32:24.264Z</time>
      </trkpt>
      <trkpt lon="7.912349" lat="53.783174">
        <ele>26.7357</ele>
        <time>2026-07-06T16:32:26.900Z</time>
      </trkpt>
      <trkpt lon="7.912516" lat="53.782907">
        <ele>28.5206</ele>
        <time>2026-07-06T16:32:27.564Z</time>
      </trkpt>
      <trkpt lon="7.912639" lat="53.782635">
        <ele>31.1228</ele>
        <time>2026-07-06T16:32:28.232Z</time>
      </trkpt>
      <trkpt lon="7.912713" lat="53.782372">
        <ele>34.6737</ele>
        <time>2026-07-06T16:32:28.864Z</time>
      </trkpt>
      <trkpt lon="7.912748" lat="53.782096">
        <ele>38.889</ele>
        <time>2026-07-06T16:32:29.532Z</time>
      </trkpt>
      <trkpt lon="7.912738" lat="53.781825">
        <ele>43.645</ele>
        <time>2026-07-06T16:32:30.200Z</time>
      </trkpt>
      <trkpt lon="7.912598" lat="53.781301">
        <ele>53.7357</ele>
        <time>2026-07-06T16:32:31.532Z</time>
      </trkpt>
      <trkpt lon="7.912328" lat="53.780830">
        <ele>63.9954</ele>
        <time>2026-07-06T16:32:32.832Z</time>
      </trkpt>
      <trkpt lon="7.911749" lat="53.780189">
        <ele>80.5595</ele>
        <time>2026-07-06T16:32:34.784Z</time>
      </trkpt>
      <trkpt lon="7.910832" lat="53.779443">
        <ele>107.091</ele>
        <time>2026-07-06T16:32:37.416Z</time>
      </trkpt>
      <trkpt lon="7.910141" lat="53.778935">
        <ele>130.258</ele>
        <time>2026-07-06T16:32:39.416Z</time>
      </trkpt>
      <trkpt lon="7.909523" lat="53.778470">
        <ele>152.645</ele>
        <time>2026-07-06T16:32:41.352Z</time>
      </trkpt>
      <trkpt lon="7.908757" lat="53.777873">
        <ele>179.463</ele>
        <time>2026-07-06T16:32:43.916Z</time>
      </trkpt>
      <trkpt lon="7.907850" lat="53.777115">
        <ele>206.305</ele>
        <time>2026-07-06T16:32:47.164Z</time>
      </trkpt>
      <trkpt lon="7.906478" lat="53.775765">
        <ele>234.14</ele>
        <time>2026-07-06T16:32:52.364Z</time>
      </trkpt>
      <trkpt lon="7.905722" lat="53.774736">
        <ele>243.767</ele>
        <time>2026-07-06T16:32:55.596Z</time>
      </trkpt>
      <trkpt lon="7.904776" lat="53.773080">
        <ele>258.176</ele>
        <time>2026-07-06T16:33:00.164Z</time>
      </trkpt>
      <trkpt lon="7.902679" lat="53.769142">
        <ele>284.818</ele>
        <time>2026-07-06T16:33:09.932Z</time>
      </trkpt>
      <trkpt lon="7.901402" lat="53.766645">
        <ele>319.101</ele>
        <time>2026-07-06T16:33:15.796Z</time>
      </trkpt>
      <trkpt lon="7.900581" lat="53.765076">
        <ele>353.738</ele>
        <time>2026-07-06T16:33:19.700Z</time>
      </trkpt>
      <trkpt lon="7.899775" lat="53.763236">
        <ele>389.271</ele>
        <time>2026-07-06T16:33:24.296Z</time>
      </trkpt>
      <trkpt lon="7.899185" lat="53.761061">
        <ele>428.684</ele>
        <time>2026-07-06T16:33:29.532Z</time>
      </trkpt>
      <trkpt lon="7.898929" lat="53.759165">
        <ele>464.992</ele>
        <time>2026-07-06T16:33:34.032Z</time>
      </trkpt>
      <trkpt lon="7.898807" lat="53.756957">
        <ele>504.099</ele>
        <time>2026-07-06T16:33:39.264Z</time>
      </trkpt>
      <trkpt lon="7.898465" lat="53.753340">
        <ele>545.043</ele>
        <time>2026-07-06T16:33:47.736Z</time>
      </trkpt>
      <trkpt lon="7.898251" lat="53.750708">
        <ele>567.498</ele>
        <time>2026-07-06T16:33:53.572Z</time>
      </trkpt>
      <trkpt lon="7.898382" lat="53.747048">
        <ele>610.41</ele>
        <time>2026-07-06T16:34:01.404Z</time>
      </trkpt>
      <trkpt lon="7.898447" lat="53.744028">
        <ele>653.037</ele>
        <time>2026-07-06T16:34:08.000Z</time>
      </trkpt>
      <trkpt lon="7.898330" lat="53.743178">
        <ele>664.009</ele>
        <time>2026-07-06T16:34:09.932Z</time>
      </trkpt>
      <trkpt lon="7.898069" lat="53.742334">
        <ele>672.926</ele>
        <time>2026-07-06T16:34:11.932Z</time>
      </trkpt>
      <trkpt lon="7.896409" lat="53.738592">
        <ele>625.569</ele>
        <time>2026-07-06T16:34:21.100Z</time>
      </trkpt>
      <trkpt lon="7.895610" lat="53.736754">
        <ele>579.019</ele>
        <time>2026-07-06T16:34:25.068Z</time>
      </trkpt>
      <trkpt lon="7.894784" lat="53.734822">
        <ele>537.306</ele>
        <time>2026-07-06T16:34:29.036Z</time>
      </trkpt>
      <trkpt lon="7.893741" lat="53.732609">
        <ele>495.088</ele>
        <time>2026-07-06T16:34:33.608Z</time>
      </trkpt>
      <trkpt lon="7.892821" lat="53.731066">
        <ele>457.219</ele>
        <time>2026-07-06T16:34:36.876Z</time>
      </trkpt>
      <trkpt lon="7.891676" lat="53.729551">
        <ele>417.165</ele>
        <time>2026-07-06T16:34:40.176Z</time>
      </trkpt>
      <trkpt lon="7.890170" lat="53.727750">
        <ele>381.941</ele>
        <time>2026-07-06T16:34:44.104Z</time>
      </trkpt>
      <trkpt lon="7.888220" lat="53.725424">
        <ele>347.623</ele>
        <time>2026-07-06T16:34:49.296Z</time>
      </trkpt>
      <trkpt lon="7.886261" lat="53.723176">
        <ele>316.205</ele>
        <time>2026-07-06T16:34:54.496Z</time>
      </trkpt>
      <trkpt lon="7.884438" lat="53.721305">
        <ele>284.376</ele>
        <time>2026-07-06T16:34:59.096Z</time>
      </trkpt>
      <trkpt lon="7.882658" lat="53.719816">
        <ele>256.658</ele>
        <time>2026-07-06T16:35:03.032Z</time>
      </trkpt>
      <trkpt lon="7.880870" lat="53.718644">
        <ele>244.537</ele>
        <time>2026-07-06T16:35:06.260Z</time>
      </trkpt>
      <trkpt lon="7.876203" lat="53.716205">
        <ele>227.528</ele>
        <time>2026-07-06T16:35:13.428Z</time>
      </trkpt>
      <trkpt lon="7.873310" lat="53.715006">
        <ele>214.178</ele>
        <time>2026-07-06T16:35:17.400Z</time>
      </trkpt>
      <trkpt lon="7.869730" lat="53.713879">
        <ele>196.224</ele>
        <time>2026-07-06T16:35:21.928Z</time>
      </trkpt>
      <trkpt lon="7.865374" lat="53.712781">
        <ele>172.139</ele>
        <time>2026-07-06T16:35:27.196Z</time>
      </trkpt>
      <trkpt lon="7.861518" lat="53.711865">
        <ele>148.566</ele>
        <time>2026-07-06T16:35:31.732Z</time>
      </trkpt>
      <trkpt lon="7.857475" lat="53.711026">
        <ele>125.095</ele>
        <time>2026-07-06T16:35:36.296Z</time>
      </trkpt>
      <trkpt lon="7.854511" lat="53.710611">
        <ele>121.478</ele>
        <time>2026-07-06T16:35:39.532Z</time>
      </trkpt>
      <trkpt lon="7.846930" lat="53.709752">
        <ele>99.3463</ele>
        <time>2026-07-06T16:35:47.968Z</time>
      </trkpt>
      <trkpt lon="7.841647" lat="53.708838">
        <ele>79.2439</ele>
        <time>2026-07-06T16:35:53.904Z</time>
      </trkpt>
      <trkpt lon="7.837543" lat="53.708241">
        <ele>59.0352</ele>
        <time>2026-07-06T16:35:58.468Z</time>
      </trkpt>
      <trkpt lon="7.832855" lat="53.707660">
        <ele>41.5539</ele>
        <time>2026-07-06T16:36:03.636Z</time>
      </trkpt>
      <trkpt lon="7.831165" lat="53.707443">
        <ele>37.0976</ele>
        <time>2026-07-06T16:36:05.604Z</time>
      </trkpt>
      <trkpt lon="7.829645" lat="53.707240">
        <ele>34.305</ele>
        <time>2026-07-06T16:36:07.604Z</time>
      </trkpt>
      <trkpt lon="7.828318" lat="53.707079">
        <ele>26.7622</ele>
        <time>2026-07-06T16:36:09.572Z</time>
      </trkpt>
      <trkpt lon="7.826770" lat="53.706924">
        <ele>19.7083</ele>
        <time>2026-07-06T16:36:12.172Z</time>
      </trkpt>
      <trkpt lon="7.826182" lat="53.706890">
        <ele>22.6292</ele>
        <time>2026-07-06T16:36:13.436Z</time>
      </trkpt>
      <trkpt lon="7.825687" lat="53.706876">
        <ele>21.7419</ele>
        <time>2026-07-06T16:36:14.704Z</time>
      </trkpt>
      <trkpt lon="7.824667" lat="53.706889">
        <ele>14.2242</ele>
        <time>2026-07-06T16:36:18.004Z</time>
      </trkpt>
      <trkpt lon="7.823640" lat="53.706796">
        <ele>2.17385</ele>
        <time>2026-07-06T16:36:22.572Z</time>
      </trkpt>
      <trkpt lon="7.823358" lat="53.706769">
        <ele>2.13221</ele>
        <time>2026-07-06T16:36:24.544Z</time>
      </trkpt>
      <trkpt lon="7.823302" lat="53.706764">
        <ele>2.14925</ele>
        <time>2026-07-06T16:36:25.844Z</time>
      </trkpt>
      <trkpt lon="7.823248" lat="53.706761">
        <ele>2.20711</ele>
        <time>2026-07-06T16:38:23.820Z</time>
      </trkpt>
      <trkpt lon="7.823083" lat="53.706757">
        <ele>2.32812</ele>
        <time>2026-07-06T16:38:25.116Z</time>
      </trkpt>
      <trkpt lon="7.822679" lat="53.706750">
        <ele>3.89958</ele>
        <time>2026-07-06T16:38:27.020Z</time>
      </trkpt>
      <trkpt lon="7.821804" lat="53.706691">
        <ele>22.4887</ele>
        <time>2026-07-06T16:38:30.256Z</time>
      </trkpt>
      <trkpt lon="7.820956" lat="53.706605">
        <ele>39.3427</ele>
        <time>2026-07-06T16:38:32.924Z</time>
      </trkpt>
      <trkpt lon="7.819885" lat="53.706513">
        <ele>49.3275</ele>
        <time>2026-07-06T16:38:35.560Z</time>
      </trkpt>
      <trkpt lon="7.819592" lat="53.706523">
        <ele>51.1216</ele>
        <time>2026-07-06T16:38:36.200Z</time>
      </trkpt>
      <trkpt lon="7.819280" lat="53.706561">
        <ele>52.5321</ele>
        <time>2026-07-06T16:38:36.868Z</time>
      </trkpt>
      <trkpt lon="7.818965" lat="53.706632">
        <ele>54.2001</ele>
        <time>2026-07-06T16:38:37.536Z</time>
      </trkpt>
      <trkpt lon="7.818376" lat="53.706851">
        <ele>56.8648</ele>
        <time>2026-07-06T16:38:38.836Z</time>
      </trkpt>
      <trkpt lon="7.818090" lat="53.707000">
        <ele>58.4585</ele>
        <time>2026-07-06T16:38:39.500Z</time>
      </trkpt>
      <trkpt lon="7.817820" lat="53.707176">
        <ele>60.5705</ele>
        <time>2026-07-06T16:38:40.168Z</time>
      </trkpt>
      <trkpt lon="7.817591" lat="53.707364">
        <ele>63.2435</ele>
        <time>2026-07-06T16:38:40.800Z</time>
      </trkpt>
      <trkpt lon="7.817215" lat="53.707833">
        <ele>71.9406</ele>
        <time>2026-07-06T16:38:42.152Z</time>
      </trkpt>
      <trkpt lon="7.817006" lat="53.708344">
        <ele>82.5138</ele>
        <time>2026-07-06T16:38:43.448Z</time>
      </trkpt>
      <trkpt lon="7.816960" lat="53.708911">
        <ele>94.4007</ele>
        <time>2026-07-06T16:38:44.784Z</time>
      </trkpt>
      <trkpt lon="7.817003" lat="53.709193">
        <ele>100.384</ele>
        <time>2026-07-06T16:38:45.436Z</time>
      </trkpt>
      <trkpt lon="7.817092" lat="53.709482">
        <ele>106.566</ele>
        <time>2026-07-06T16:38:46.072Z</time>
      </trkpt>
      <trkpt lon="7.817227" lat="53.709774">
        <ele>112.706</ele>
        <time>2026-07-06T16:38:46.740Z</time>
      </trkpt>
      <trkpt lon="7.817411" lat="53.710068">
        <ele>118.563</ele>
        <time>2026-07-06T16:38:47.404Z</time>
      </trkpt>
      <trkpt lon="7.817637" lat="53.710341">
        <ele>124.474</ele>
        <time>2026-07-06T16:38:48.040Z</time>
      </trkpt>
      <trkpt lon="7.817930" lat="53.710615">
        <ele>131.482</ele>
        <time>2026-07-06T16:38:48.704Z</time>
      </trkpt>
      <trkpt lon="7.818280" lat="53.710873">
        <ele>139.466</ele>
        <time>2026-07-06T16:38:49.372Z</time>
      </trkpt>
      <trkpt lon="7.818673" lat="53.711109">
        <ele>148.033</ele>
        <time>2026-07-06T16:38:50.040Z</time>
      </trkpt>
      <trkpt lon="7.819510" lat="53.711504">
        <ele>165.315</ele>
        <time>2026-07-06T16:38:51.304Z</time>
      </trkpt>
      <trkpt lon="7.820424" lat="53.711851">
        <ele>184.376</ele>
        <time>2026-07-06T16:38:52.604Z</time>
      </trkpt>
      <trkpt lon="7.821817" lat="53.712306">
        <ele>215.699</ele>
        <time>2026-07-06T16:38:54.576Z</time>
      </trkpt>
      <trkpt lon="7.823144" lat="53.712746">
        <ele>246.802</ele>
        <time>2026-07-06T16:38:56.544Z</time>
      </trkpt>
      <trkpt lon="7.824770" lat="53.713360">
        <ele>282.272</ele>
        <time>2026-07-06T16:38:59.108Z</time>
      </trkpt>
      <trkpt lon="7.826413" lat="53.714033">
        <ele>312.347</ele>
        <time>2026-07-06T16:39:01.744Z</time>
      </trkpt>
      <trkpt lon="7.828998" lat="53.715111">
        <ele>343.76</ele>
        <time>2026-07-06T16:39:05.640Z</time>
      </trkpt>
      <trkpt lon="7.832732" lat="53.716726">
        <ele>378.019</ele>
        <time>2026-07-06T16:39:10.840Z</time>
      </trkpt>
      <trkpt lon="7.837185" lat="53.718803">
        <ele>415.709</ele>
        <time>2026-07-06T16:39:16.808Z</time>
      </trkpt>
      <trkpt lon="7.841985" lat="53.721225">
        <ele>453.56</ele>
        <time>2026-07-06T16:39:23.244Z</time>
      </trkpt>
      <trkpt lon="7.848332" lat="53.724748">
        <ele>494.705</ele>
        <time>2026-07-06T16:39:31.772Z</time>
      </trkpt>
      <trkpt lon="7.852749" lat="53.727191">
        <ele>537.894</ele>
        <time>2026-07-06T16:39:37.640Z</time>
      </trkpt>
      <trkpt lon="7.857500" lat="53.729507">
        <ele>573.884</ele>
        <time>2026-07-06T16:39:43.544Z</time>
      </trkpt>
      <trkpt lon="7.864910" lat="53.732583">
        <ele>619.124</ele>
        <time>2026-07-06T16:39:52.040Z</time>
      </trkpt>
      <trkpt lon="7.872734" lat="53.736016">
        <ele>667.455</ele>
        <time>2026-07-06T16:40:01.208Z</time>
      </trkpt>
      <trkpt lon="7.880879" lat="53.739818">
        <ele>715.392</ele>
        <time>2026-07-06T16:40:10.940Z</time>
      </trkpt>
      <trkpt lon="7.889770" lat="53.744713">
        <ele>696.893</ele>
        <time>2026-07-06T16:40:21.972Z</time>
      </trkpt>
      <trkpt lon="7.893119" lat="53.746987">
        <ele>676.82</ele>
        <time>2026-07-06T16:40:26.472Z</time>
      </trkpt>
      <trkpt lon="7.896558" lat="53.749839">
        <ele>643.213</ele>
        <time>2026-07-06T16:40:31.640Z</time>
      </trkpt>
      <trkpt lon="7.900400" lat="53.753714">
        <ele>601.562</ele>
        <time>2026-07-06T16:40:38.208Z</time>
      </trkpt>
      <trkpt lon="7.902857" lat="53.756515">
        <ele>557.897</ele>
        <time>2026-07-06T16:40:42.776Z</time>
      </trkpt>
      <trkpt lon="7.904643" lat="53.758584">
        <ele>517.238</ele>
        <time>2026-07-06T16:40:46.056Z</time>
      </trkpt>
      <trkpt lon="7.906476" lat="53.760651">
        <ele>476.801</ele>
        <time>2026-07-06T16:40:49.288Z</time>
      </trkpt>
      <trkpt lon="7.908354" lat="53.762799">
        <ele>437.645</ele>
        <time>2026-07-06T16:40:52.600Z</time>
      </trkpt>
      <trkpt lon="7.910129" lat="53.764925">
        <ele>396.619</ele>
        <time>2026-07-06T16:40:55.836Z</time>
      </trkpt>
      <trkpt lon="7.911517" lat="53.766681">
        <ele>357.896</ele>
        <time>2026-07-06T16:40:58.500Z</time>
      </trkpt>
      <trkpt lon="7.912757" lat="53.768330">
        <ele>320.902</ele>
        <time>2026-07-06T16:41:01.168Z</time>
      </trkpt>
      <trkpt lon="7.913818" lat="53.769793">
        <ele>283.987</ele>
        <time>2026-07-06T16:41:03.728Z</time>
      </trkpt>
      <trkpt lon="7.914561" lat="53.770857">
        <ele>253.349</ele>
        <time>2026-07-06T16:41:05.708Z</time>
      </trkpt>
      <trkpt lon="7.915252" lat="53.771881">
        <ele>223.94</ele>
        <time>2026-07-06T16:41:07.660Z</time>
      </trkpt>
      <trkpt lon="7.915899" lat="53.772880">
        <ele>193.681</ele>
        <time>2026-07-06T16:41:09.624Z</time>
      </trkpt>
      <trkpt lon="7.916485" lat="53.773852">
        <ele>167.275</ele>
        <time>2026-07-06T16:41:11.564Z</time>
      </trkpt>
      <trkpt lon="7.917005" lat="53.774827">
        <ele>149.141</ele>
        <time>2026-07-06T16:41:13.564Z</time>
      </trkpt>
      <trkpt lon="7.917557" lat="53.776305">
        <ele>125.072</ele>
        <time>2026-07-06T16:41:16.792Z</time>
      </trkpt>
      <trkpt lon="7.917797" lat="53.777802">
        <ele>103.957</ele>
        <time>2026-07-06T16:41:20.064Z</time>
      </trkpt>
      <trkpt lon="7.917844" lat="53.778689">
        <ele>101.429</ele>
        <time>2026-07-06T16:41:22.028Z</time>
      </trkpt>
      <trkpt lon="7.917925" lat="53.779423">
        <ele>96.854</ele>
        <time>2026-07-06T16:41:23.960Z</time>
      </trkpt>
      <trkpt lon="7.918047" lat="53.780293">
        <ele>85.0435</ele>
        <time>2026-07-06T16:41:26.636Z</time>
      </trkpt>
      <trkpt lon="7.918061" lat="53.780493">
        <ele>81.2042</ele>
        <time>2026-07-06T16:41:27.300Z</time>
      </trkpt>
      <trkpt lon="7.918054" lat="53.780864">
        <ele>73.6552</ele>
        <time>2026-07-06T16:41:28.600Z</time>
      </trkpt>
      <trkpt lon="7.918001" lat="53.781202">
        <ele>66.1593</ele>
        <time>2026-07-06T16:41:29.868Z</time>
      </trkpt>
      <trkpt lon="7.917886" lat="53.781536">
        <ele>58.234</ele>
        <time>2026-07-06T16:41:31.204Z</time>
      </trkpt>
      <trkpt lon="7.917707" lat="53.781829">
        <ele>50.2531</ele>
        <time>2026-07-06T16:41:32.536Z</time>
      </trkpt>
      <trkpt lon="7.917476" lat="53.782066">
        <ele>41.4654</ele>
        <time>2026-07-06T16:41:33.836Z</time>
      </trkpt>
      <trkpt lon="7.917192" lat="53.782252">
        <ele>31.543</ele>
        <time>2026-07-06T16:41:35.100Z</time>
      </trkpt>
      <trkpt lon="7.916838" lat="53.782405">
        <ele>22.0912</ele>
        <time>2026-07-06T16:41:36.436Z</time>
      </trkpt>
      <trkpt lon="7.916457" lat="53.782512">
        <ele>16.0567</ele>
        <time>2026-07-06T16:41:37.768Z</time>
      </trkpt>
      <trkpt lon="7.915749" lat="53.782640">
        <ele>7.13635</ele>
        <time>2026-07-06T16:41:40.404Z</time>
      </trkpt>
      <trkpt lon="7.914803" lat="53.782724">
        <ele>1.64662</ele>
        <time>2026-07-06T16:41:45.004Z</time>
      </trkpt>
      <trkpt lon="7.914401" lat="53.782736">
        <ele>1.58997</ele>
        <time>2026-07-06T16:41:47.656Z</time>
      </trkpt>
      <trkpt lon="7.914336" lat="53.782737">
        <ele>1.61345</ele>
        <time>2026-07-06T16:41:48.988Z</time>
      </trkpt>
      <trkpt lon="7.913920" lat="53.782745">
        <ele>1.85851</ele>
        <time>2026-07-06T16:41:56.856Z</time>
      </trkpt>
      <trkpt lon="7.913578" lat="53.782768">
        <ele>2.00101</ele>
        <time>2026-07-06T16:42:01.420Z</time>
      </trkpt>
      <trkpt lon="7.913488" lat="53.782785">
        <ele>2.02821</ele>
        <time>2026-07-06T16:42:02.692Z</time>
      </trkpt>
      <trkpt lon="7.913442" lat="53.782798">
        <ele>2.04514</ele>
        <time>2026-07-06T16:42:03.356Z</time>
      </trkpt>
      <trkpt lon="7.913401" lat="53.782814">
        <ele>2.05595</ele>
        <time>2026-07-06T16:42:03.988Z</time>
      </trkpt>
      <trkpt lon="7.913363" lat="53.782833">
        <ele>2.06678</ele>
        <time>2026-07-06T16:42:04.624Z</time>
      </trkpt>
      <trkpt lon="7.913328" lat="53.782856">
        <ele>2.07643</ele>
        <time>2026-07-06T16:42:05.256Z</time>
      </trkpt>
      <trkpt lon="7.913298" lat="53.782884">
        <ele>2.08595</ele>
        <time>2026-07-06T16:42:05.920Z</time>
      </trkpt>
      <trkpt lon="7.913274" lat="53.782914">
        <ele>2.09039</ele>
        <time>2026-07-06T16:42:06.556Z</time>
      </trkpt>
      <trkpt lon="7.913256" lat="53.782948">
        <ele>2.0962</ele>
        <time>2026-07-06T16:42:07.224Z</time>
      </trkpt>
      <trkpt lon="7.913209" lat="53.783107">
        <ele>2.1422</ele>
        <time>2026-07-06T16:42:09.856Z</time>
      </trkpt>
      <trkpt lon="7.913198" lat="53.783232">
        <ele>2.17467</ele>
        <time>2026-07-06T16:42:12.392Z</time>
      </trkpt>
      <trkpt lon="7.913198" lat="53.783268">
        <ele>2.20445</ele>
        <time>2026-07-06T16:43:45.088Z</time>
      </trkpt>
      <trkpt lon="7.913202" lat="53.783296">
        <ele>2.21103</ele>
        <time>2026-07-06T16:43:45.756Z</time>
      </trkpt>
      <trkpt lon="7.913215" lat="53.783325">
        <ele>2.21694</ele>
        <time>2026-07-06T16:43:46.420Z</time>
      </trkpt>
      <trkpt lon="7.913238" lat="53.783350">
        <ele>2.20465</ele>
        <time>2026-07-06T16:43:47.056Z</time>
      </trkpt>
      <trkpt lon="7.913273" lat="53.783373">
        <ele>2.19095</ele>
        <time>2026-07-06T16:43:47.724Z</time>
      </trkpt>
      <trkpt lon="7.913324" lat="53.783392">
        <ele>2.17117</ele>
        <time>2026-07-06T16:43:48.392Z</time>
      </trkpt>
      <trkpt lon="7.913396" lat="53.783406">
        <ele>2.12901</ele>
        <time>2026-07-06T16:43:49.056Z</time>
      </trkpt>
      <trkpt lon="7.913478" lat="53.783414">
        <ele>2.07366</ele>
        <time>2026-07-06T16:43:49.692Z</time>
      </trkpt>
      <trkpt lon="7.913663" lat="53.783419">
        <ele>1.93351</ele>
        <time>2026-07-06T16:43:50.956Z</time>
      </trkpt>
      <trkpt lon="7.915491" lat="53.783335">
        <ele>1.32152</ele>
        <time>2026-07-06T16:44:01.392Z</time>
      </trkpt>
      <trkpt lon="7.917071" lat="53.783260">
        <ele>1.16037</ele>
        <time>2026-07-06T16:44:09.928Z</time>
      </trkpt>
      <trkpt lon="7.917204" lat="53.783251">
        <ele>1.10803</ele>
        <time>2026-07-06T16:44:11.232Z</time>
      </trkpt>
      <trkpt lon="7.917270" lat="53.783242">
        <ele>1.06411</ele>
        <time>2026-07-06T16:44:11.872Z</time>
      </trkpt>
      <trkpt lon="7.917338" lat="53.783228">
        <ele>1.01096</ele>
        <time>2026-07-06T16:44:12.544Z</time>
      </trkpt>
      <trkpt lon="7.917397" lat="53.783207">
        <ele>0.939747</ele>
        <time>2026-07-06T16:44:13.176Z</time>
      </trkpt>
      <trkpt lon="7.917448" lat="53.783177">
        <ele>0.850886</ele>
        <time>2026-07-06T16:44:13.808Z</time>
      </trkpt>
      <trkpt lon="7.917488" lat="53.783138">
        <ele>0.744176</ele>
        <time>2026-07-06T16:44:14.476Z</time>
      </trkpt>
      <trkpt lon="7.917511" lat="53.783094">
        <ele>0.629582</ele>
        <time>2026-07-06T16:44:15.128Z</time>
      </trkpt>
      <trkpt lon="7.917524" lat="53.783046">
        <ele>0.520202</ele>
        <time>2026-07-06T16:44:15.796Z</time>
      </trkpt>
      <trkpt lon="7.917528" lat="53.782890">
        <ele>0.226937</ele>
        <time>2026-07-06T16:44:17.764Z</time>
      </trkpt>
      <trkpt lon="7.917517" lat="53.782841">
        <ele>0.159501</ele>
        <time>2026-07-06T16:44:18.428Z</time>
      </trkpt>
      <trkpt lon="7.917493" lat="53.782799">
        <ele>0.115924</ele>
        <time>2026-07-06T16:44:19.064Z</time>
      </trkpt>
      <trkpt lon="7.917457" lat="53.782763">
        <ele>0.0884252</ele>
        <time>2026-07-06T16:44:19.732Z</time>
      </trkpt>
      <trkpt lon="7.917417" lat="53.782736">
        <ele>0.070778</ele>
        <time>2026-07-06T16:44:20.364Z</time>
      </trkpt>
      <trkpt lon="7.917330" lat="53.782695">
        <ele>0.047438</ele>
        <time>2026-07-06T16:44:21.696Z</time>
      </trkpt>
      <trkpt lon="7.917255" lat="53.782667">
        <ele>0.0374874</ele>
        <time>2026-07-06T16:44:22.996Z</time>
      </trkpt>
      <trkpt lon="7.917218" lat="53.782657">
        <ele>0.0361719</ele>
        <time>2026-07-06T16:44:23.664Z</time>
      </trkpt>
      <trkpt lon="7.917185" lat="53.782651">
        <ele>0.0359807</ele>
        <time>2026-07-06T16:44:24.328Z</time>
      </trkpt>
      <trkpt lon="7.917156" lat="53.782648">
        <ele>0.0392504</ele>
        <time>2026-07-06T16:44:24.960Z</time>
      </trkpt>
      <trkpt lon="7.917119" lat="53.782646">
        <ele>0.0440727</ele>
        <time>2026-07-06T16:44:26.272Z</time>
      </trkpt>
      <trkpt lon="7.917033" lat="53.782649">
        <ele>0.108751</ele>
        <time>2026-07-06T16:44:30.172Z</time>
      </trkpt>
      <trkpt lon="7.916641" lat="53.782689">
        <ele>6.00078</ele>
        <time>2026-07-06T16:44:32.772Z</time>
      </trkpt>
      <trkpt lon="7.916147" lat="53.782763">
        <ele>23.2181</ele>
        <time>2026-07-06T16:44:35.412Z</time>
      </trkpt>
      <trkpt lon="7.915658" lat="53.782819">
        <ele>46.1762</ele>
        <time>2026-07-06T16:44:38.044Z</time>
      </trkpt>
      <trkpt lon="7.915335" lat="53.782853">
        <ele>66.2819</ele>
        <time>2026-07-06T16:44:40.012Z</time>
      </trkpt>
      <trkpt lon="7.915065" lat="53.782885">
        <ele>86.9629</ele>
        <time>2026-07-06T16:44:41.944Z</time>
      </trkpt>
      <trkpt lon="7.914713" lat="53.782936">
        <ele>108.387</ele>
        <time>2026-07-06T16:44:44.476Z</time>
      </trkpt>
      <trkpt lon="7.913928" lat="53.783064">
        <ele>126.975</ele>
        <time>2026-07-06T16:44:48.380Z</time>
      </trkpt>
      <trkpt lon="7.913388" lat="53.783155">
        <ele>134.717</ele>
        <time>2026-07-06T16:44:50.380Z</time>
      </trkpt>
      <trkpt lon="7.912000" lat="53.783366">
        <ele>156.651</ele>
        <time>2026-07-06T16:44:54.248Z</time>
      </trkpt>
      <trkpt lon="7.910936" lat="53.783481">
        <ele>180.768</ele>
        <time>2026-07-06T16:44:56.844Z</time>
      </trkpt>
      <trkpt lon="7.909785" lat="53.783559">
        <ele>206.79</ele>
        <time>2026-07-06T16:44:59.444Z</time>
      </trkpt>
      <trkpt lon="7.908558" lat="53.783605">
        <ele>234.069</ele>
        <time>2026-07-06T16:45:02.080Z</time>
      </trkpt>
      <trkpt lon="7.907301" lat="53.783606">
        <ele>262.661</ele>
        <time>2026-07-06T16:45:04.712Z</time>
      </trkpt>
      <trkpt lon="7.904866" lat="53.783539">
        <ele>286.901</ele>
        <time>2026-07-06T16:45:09.344Z</time>
      </trkpt>
      <trkpt lon="7.901764" lat="53.783361">
        <ele>303.228</ele>
        <time>2026-07-06T16:45:14.520Z</time>
      </trkpt>
      <trkpt lon="7.900943" lat="53.783233">
        <ele>303.991</ele>
        <time>2026-07-06T16:45:15.820Z</time>
      </trkpt>
      <trkpt lon="7.900107" lat="53.783029">
        <ele>302.214</ele>
        <time>2026-07-06T16:45:17.124Z</time>
      </trkpt>
      <trkpt lon="7.899262" lat="53.782724">
        <ele>301.305</ele>
        <time>2026-07-06T16:45:18.452Z</time>
      </trkpt>
      <trkpt lon="7.898484" lat="53.782331">
        <ele>303.056</ele>
        <time>2026-07-06T16:45:19.752Z</time>
      </trkpt>
      <trkpt lon="7.897771" lat="53.781838">
        <ele>307.265</ele>
        <time>2026-07-06T16:45:21.088Z</time>
      </trkpt>
      <trkpt lon="7.897193" lat="53.781294">
        <ele>311.737</ele>
        <time>2026-07-06T16:45:22.356Z</time>
      </trkpt>
      <trkpt lon="7.896701" lat="53.780677">
        <ele>315.659</ele>
        <time>2026-07-06T16:45:23.656Z</time>
      </trkpt>
      <trkpt lon="7.895532" lat="53.778654">
        <ele>323.741</ele>
        <time>2026-07-06T16:45:27.588Z</time>
      </trkpt>
      <trkpt lon="7.894092" lat="53.775880">
        <ele>360.26</ele>
        <time>2026-07-06T16:45:32.856Z</time>
      </trkpt>
      <trkpt lon="7.893292" lat="53.774280">
        <ele>398.383</ele>
        <time>2026-07-06T16:45:36.120Z</time>
      </trkpt>
      <trkpt lon="7.891145" lat="53.770366">
        <ele>407.033</ele>
        <time>2026-07-06T16:45:43.952Z</time>
      </trkpt>
      <trkpt lon="7.885494" lat="53.761919">
        <ele>373.675</ele>
        <time>2026-07-06T16:45:59.488Z</time>
      </trkpt>
      <trkpt lon="7.872737" lat="53.745560">
        <ele>343.605</ele>
        <time>2026-07-06T16:46:30.128Z</time>
      </trkpt>
      <trkpt lon="7.858562" lat="53.730335">
        <ele>344.4</ele>
        <time>2026-07-06T16:47:00.796Z</time>
      </trkpt>
      <trkpt lon="7.845605" lat="53.718386">
        <ele>355.698</ele>
        <time>2026-07-06T16:47:26.164Z</time>
      </trkpt>
      <trkpt lon="7.843015" lat="53.716339">
        <ele>322.312</ele>
        <time>2026-07-06T16:47:30.796Z</time>
      </trkpt>
      <trkpt lon="7.841427" lat="53.715127">
        <ele>284.669</ele>
        <time>2026-07-06T16:47:33.440Z</time>
      </trkpt>
      <trkpt lon="7.840170" lat="53.714181">
        <ele>249.69</ele>
        <time>2026-07-06T16:47:35.440Z</time>
      </trkpt>
      <trkpt lon="7.839304" lat="53.713545">
        <ele>222.166</ele>
        <time>2026-07-06T16:47:36.776Z</time>
      </trkpt>
      <trkpt lon="7.838417" lat="53.712910">
        <ele>191.75</ele>
        <time>2026-07-06T16:47:38.108Z</time>
      </trkpt>
      <trkpt lon="7.837516" lat="53.712285">
        <ele>161.949</ele>
        <time>2026-07-06T16:47:39.412Z</time>
      </trkpt>
      <trkpt lon="7.836554" lat="53.711641">
        <ele>132.787</ele>
        <time>2026-07-06T16:47:40.744Z</time>
      </trkpt>
      <trkpt lon="7.835564" lat="53.711019">
        <ele>112.378</ele>
        <time>2026-07-06T16:47:42.044Z</time>
      </trkpt>
      <trkpt lon="7.834592" lat="53.710438">
        <ele>102.986</ele>
        <time>2026-07-06T16:47:43.316Z</time>
      </trkpt>
      <trkpt lon="7.834172" lat="53.710198">
        <ele>110.504</ele>
        <time>2026-07-06T16:47:43.948Z</time>
      </trkpt>
      <trkpt lon="7.833773" lat="53.709966">
        <ele>118.022</ele>
        <time>2026-07-06T16:47:44.652Z</time>
      </trkpt>
      <trkpt lon="7.833447" lat="53.709763">
        <ele>114.363</ele>
        <time>2026-07-06T16:47:45.324Z</time>
      </trkpt>
      <trkpt lon="7.832881" lat="53.709398">
        <ele>103.847</ele>
        <time>2026-07-06T16:47:46.660Z</time>
      </trkpt>
      <trkpt lon="7.831962" lat="53.708789">
        <ele>82.7808</ele>
        <time>2026-07-06T16:47:49.304Z</time>
      </trkpt>
      <trkpt lon="7.830844" lat="53.708178">
        <ele>61.9341</ele>
        <time>2026-07-06T16:47:52.536Z</time>
      </trkpt>
      <trkpt lon="7.829870" lat="53.707769">
        <ele>46.5438</ele>
        <time>2026-07-06T16:47:55.240Z</time>
      </trkpt>
      <trkpt lon="7.828948" lat="53.707476">
        <ele>36.012</ele>
        <time>2026-07-06T16:47:57.836Z</time>
      </trkpt>
      <trkpt lon="7.827857" lat="53.707214">
        <ele>25.0086</ele>
        <time>2026-07-06T16:48:01.100Z</time>
      </trkpt>
      <trkpt lon="7.826029" lat="53.706979">
        <ele>9.41387</ele>
        <time>2026-07-06T16:48:06.304Z</time>
      </trkpt>
      <trkpt lon="7.824467" lat="53.706867">
        <ele>2.06801</ele>
        <time>2026-07-06T16:48:11.536Z</time>
      </trkpt>
      <trkpt lon="7.823896" lat="53.706863">
        <ele>3.18401</ele>
        <time>2026-07-06T16:48:14.180Z</time>
      </trkpt>
      <trkpt lon="7.823559" lat="53.706846">
        <ele>2.01717</ele>
        <time>2026-07-06T16:48:16.712Z</time>
      </trkpt>
      <trkpt lon="7.823534" lat="53.706845">
        <ele>2.03473</ele>
        <time>2026-07-06T16:48:27.084Z</time>
      </trkpt>
      <trkpt lon="7.823475" lat="53.706843">
        <ele>2.10846</ele>
        <time>2026-07-06T16:50:46.336Z</time>
      </trkpt>
      <trkpt lon="7.823306" lat="53.706839">
        <ele>2.26955</ele>
        <time>2026-07-06T16:50:47.656Z</time>
      </trkpt>
      <trkpt lon="7.822869" lat="53.706814">
        <ele>2.57619</ele>
        <time>2026-07-06T16:50:49.632Z</time>
      </trkpt>
      <trkpt lon="7.822032" lat="53.706765">
        <ele>5.98556</ele>
        <time>2026-07-06T16:50:52.224Z</time>
      </trkpt>
      <trkpt lon="7.821561" lat="53.706780">
        <ele>11.6632</ele>
        <time>2026-07-06T16:50:53.528Z</time>
      </trkpt>
      <trkpt lon="7.821326" lat="53.706820">
        <ele>14.8555</ele>
        <time>2026-07-06T16:50:54.180Z</time>
      </trkpt>
      <trkpt lon="7.821089" lat="53.706889">
        <ele>17.9433</ele>
        <time>2026-07-06T16:50:54.860Z</time>
      </trkpt>
      <trkpt lon="7.820876" lat="53.706981">
        <ele>20.4564</ele>
        <time>2026-07-06T16:50:55.528Z</time>
      </trkpt>
      <trkpt lon="7.820679" lat="53.707106">
        <ele>22.8482</ele>
        <time>2026-07-06T16:50:56.192Z</time>
      </trkpt>
      <trkpt lon="7.820524" lat="53.707252">
        <ele>25.1823</ele>
        <time>2026-07-06T16:50:56.844Z</time>
      </trkpt>
      <trkpt lon="7.820406" lat="53.707423">
        <ele>27.141</ele>
        <time>2026-07-06T16:50:57.500Z</time>
      </trkpt>
      <trkpt lon="7.820331" lat="53.707615">
        <ele>28.4056</ele>
        <time>2026-07-06T16:50:58.164Z</time>
      </trkpt>
      <trkpt lon="7.820312" lat="53.707819">
        <ele>29.2751</ele>
        <time>2026-07-06T16:50:58.808Z</time>
      </trkpt>
      <trkpt lon="7.820348" lat="53.708030">
        <ele>29.9602</ele>
        <time>2026-07-06T16:50:59.460Z</time>
      </trkpt>
      <trkpt lon="7.820447" lat="53.708264">
        <ele>30.7982</ele>
        <time>2026-07-06T16:51:00.132Z</time>
      </trkpt>
      <trkpt lon="7.820591" lat="53.708482">
        <ele>32.1072</ele>
        <time>2026-07-06T16:51:00.784Z</time>
      </trkpt>
      <trkpt lon="7.820784" lat="53.708697">
        <ele>34.3758</ele>
        <time>2026-07-06T16:51:01.440Z</time>
      </trkpt>
      <trkpt lon="7.820998" lat="53.708890">
        <ele>37.4491</ele>
        <time>2026-07-06T16:51:02.060Z</time>
      </trkpt>
      <trkpt lon="7.821798" lat="53.709448">
        <ele>55.4463</ele>
        <time>2026-07-06T16:51:04.056Z</time>
      </trkpt>
      <trkpt lon="7.822551" lat="53.709926">
        <ele>83.497</ele>
        <time>2026-07-06T16:51:06.092Z</time>
      </trkpt>
      <trkpt lon="7.823172" lat="53.710314">
        <ele>113.041</ele>
        <time>2026-07-06T16:51:08.068Z</time>
      </trkpt>
      <trkpt lon="7.823713" lat="53.710626">
        <ele>139.891</ele>
        <time>2026-07-06T16:51:10.004Z</time>
      </trkpt>
      <trkpt lon="7.824049" lat="53.710818">
        <ele>154.874</ele>
        <time>2026-07-06T16:51:11.312Z</time>
      </trkpt>
      <trkpt lon="7.824924" lat="53.711316">
        <ele>182.492</ele>
        <time>2026-07-06T16:51:14.668Z</time>
      </trkpt>
      <trkpt lon="7.825974" lat="53.711905">
        <ele>200.281</ele>
        <time>2026-07-06T16:51:18.032Z</time>
      </trkpt>
      <trkpt lon="7.827642" lat="53.712908">
        <ele>227.983</ele>
        <time>2026-07-06T16:51:22.672Z</time>
      </trkpt>
      <trkpt lon="7.828775" lat="53.713534">
        <ele>242.331</ele>
        <time>2026-07-06T16:51:25.368Z</time>
      </trkpt>
      <trkpt lon="7.829434" lat="53.713909">
        <ele>237.474</ele>
        <time>2026-07-06T16:51:26.712Z</time>
      </trkpt>
      <trkpt lon="7.830154" lat="53.714323">
        <ele>223.068</ele>
        <time>2026-07-06T16:51:28.032Z</time>
      </trkpt>
      <trkpt lon="7.830968" lat="53.714792">
        <ele>203.289</ele>
        <time>2026-07-06T16:51:29.372Z</time>
      </trkpt>
      <trkpt lon="7.832382" lat="53.715594">
        <ele>191.24</ele>
        <time>2026-07-06T16:51:31.400Z</time>
      </trkpt>
      <trkpt lon="7.837704" lat="53.718765">
        <ele>199.488</ele>
        <time>2026-07-06T16:51:38.744Z</time>
      </trkpt>
      <trkpt lon="7.839903" lat="53.720354">
        <ele>215.768</ele>
        <time>2026-07-06T16:51:42.144Z</time>
      </trkpt>
      <trkpt lon="7.844769" lat="53.724310">
        <ele>242.818</ele>
        <time>2026-07-06T16:51:50.264Z</time>
      </trkpt>
      <trkpt lon="7.852019" lat="53.730084">
        <ele>271.001</ele>
        <time>2026-07-06T16:52:01.684Z</time>
      </trkpt>
      <trkpt lon="7.859163" lat="53.735504">
        <ele>299.743</ele>
        <time>2026-07-06T16:52:12.444Z</time>
      </trkpt>
      <trkpt lon="7.868151" lat="53.741870">
        <ele>330.481</ele>
        <time>2026-07-06T16:52:25.348Z</time>
      </trkpt>
      <trkpt lon="7.888978" lat="53.755291">
        <ele>342.835</ele>
        <time>2026-07-06T16:52:52.776Z</time>
      </trkpt>
      <trkpt lon="7.908992" lat="53.767090">
        <ele>354.155</ele>
        <time>2026-07-06T16:53:17.080Z</time>
      </trkpt>
      <trkpt lon="7.913015" lat="53.769158">
        <ele>319.766</ele>
        <time>2026-07-06T16:53:21.584Z</time>
      </trkpt>
      <trkpt lon="7.914806" lat="53.770066">
        <ele>284.316</ele>
        <time>2026-07-06T16:53:23.528Z</time>
      </trkpt>
      <trkpt lon="7.916556" lat="53.770974">
        <ele>251.011</ele>
        <time>2026-07-06T16:53:25.492Z</time>
      </trkpt>
      <trkpt lon="7.918204" lat="53.771889">
        <ele>218.041</ele>
        <time>2026-07-06T16:53:27.492Z</time>
      </trkpt>
      <trkpt lon="7.919632" lat="53.772817">
        <ele>189.359</ele>
        <time>2026-07-06T16:53:29.460Z</time>
      </trkpt>
      <trkpt lon="7.920441" lat="53.773452">
        <ele>172.676</ele>
        <time>2026-07-06T16:53:30.756Z</time>
      </trkpt>
      <trkpt lon="7.921412" lat="53.774435">
        <ele>149.414</ele>
        <time>2026-07-06T16:53:32.728Z</time>
      </trkpt>
      <trkpt lon="7.921903" lat="53.775105">
        <ele>133.65</ele>
        <time>2026-07-06T16:53:34.060Z</time>
      </trkpt>
      <trkpt lon="7.922283" lat="53.775768">
        <ele>116.841</ele>
        <time>2026-07-06T16:53:35.396Z</time>
      </trkpt>
      <trkpt lon="7.922546" lat="53.776402">
        <ele>101.556</ele>
        <time>2026-07-06T16:53:36.692Z</time>
      </trkpt>
      <trkpt lon="7.922729" lat="53.777074">
        <ele>85.671</ele>
        <time>2026-07-06T16:53:38.128Z</time>
      </trkpt>
      <trkpt lon="7.922845" lat="53.777980">
        <ele>63.0453</ele>
        <time>2026-07-06T16:53:40.072Z</time>
      </trkpt>
      <trkpt lon="7.922823" lat="53.778563">
        <ele>53.7345</ele>
        <time>2026-07-06T16:53:41.408Z</time>
      </trkpt>
      <trkpt lon="7.922718" lat="53.779104">
        <ele>48.2682</ele>
        <time>2026-07-06T16:53:42.740Z</time>
      </trkpt>
      <trkpt lon="7.922545" lat="53.779597">
        <ele>42.9611</ele>
        <time>2026-07-06T16:53:44.072Z</time>
      </trkpt>
      <trkpt lon="7.922315" lat="53.780034">
        <ele>38.909</ele>
        <time>2026-07-06T16:53:45.372Z</time>
      </trkpt>
      <trkpt lon="7.922041" lat="53.780420">
        <ele>35.8784</ele>
        <time>2026-07-06T16:53:46.672Z</time>
      </trkpt>
      <trkpt lon="7.921717" lat="53.780769">
        <ele>32.586</ele>
        <time>2026-07-06T16:53:48.004Z</time>
      </trkpt>
      <trkpt lon="7.921187" lat="53.781203">
        <ele>27.1621</ele>
        <time>2026-07-06T16:53:49.976Z</time>
      </trkpt>
      <trkpt lon="7.920611" lat="53.781556">
        <ele>23.4017</ele>
        <time>2026-07-06T16:53:51.928Z</time>
      </trkpt>
      <trkpt lon="7.919548" lat="53.782046">
        <ele>19.0785</ele>
        <time>2026-07-06T16:53:55.160Z</time>
      </trkpt>
      <trkpt lon="7.918833" lat="53.782284">
        <ele>15.3345</ele>
        <time>2026-07-06T16:53:57.128Z</time>
      </trkpt>
      <trkpt lon="7.918157" lat="53.782439">
        <ele>18.4462</ele>
        <time>2026-07-06T16:53:59.092Z</time>
      </trkpt>
      <trkpt lon="7.917607" lat="53.782527">
        <ele>16.505</ele>
        <time>2026-07-06T16:54:01.064Z</time>
      </trkpt>
      <trkpt lon="7.914496" lat="53.782746">
        <ele>1.64475</ele>
        <time>2026-07-06T16:54:14.132Z</time>
      </trkpt>
      <trkpt lon="7.913798" lat="53.782766">
        <ele>1.89557</ele>
        <time>2026-07-06T16:54:19.312Z</time>
      </trkpt>
      <trkpt lon="7.913679" lat="53.782771">
        <ele>1.94904</ele>
        <time>2026-07-06T16:54:20.612Z</time>
      </trkpt>
      <trkpt lon="7.913576" lat="53.782784">
        <ele>1.9814</ele>
        <time>2026-07-06T16:54:21.944Z</time>
      </trkpt>
      <trkpt lon="7.913532" lat="53.782794">
        <ele>1.99401</ele>
        <time>2026-07-06T16:54:22.612Z</time>
      </trkpt>
      <trkpt lon="7.913413" lat="53.782830">
        <ele>2.03585</ele>
        <time>2026-07-06T16:54:24.580Z</time>
      </trkpt>
      <trkpt lon="7.913372" lat="53.782846">
        <ele>2.05306</ele>
        <time>2026-07-06T16:54:25.248Z</time>
      </trkpt>
      <trkpt lon="7.913332" lat="53.782865">
        <ele>2.06791</ele>
        <time>2026-07-06T16:54:25.916Z</time>
      </trkpt>
      <trkpt lon="7.913297" lat="53.782887">
        <ele>2.08112</ele>
        <time>2026-07-06T16:54:26.548Z</time>
      </trkpt>
      <trkpt lon="7.913264" lat="53.782914">
        <ele>2.09523</ele>
        <time>2026-07-06T16:54:27.216Z</time>
      </trkpt>
      <trkpt lon="7.913236" lat="53.782944">
        <ele>2.10894</ele>
        <time>2026-07-06T16:54:27.880Z</time>
      </trkpt>
      <trkpt lon="7.913214" lat="53.782974">
        <ele>2.12291</ele>
        <time>2026-07-06T16:54:28.516Z</time>
      </trkpt>
      <trkpt lon="7.913197" lat="53.783007">
        <ele>2.13612</ele>
        <time>2026-07-06T16:54:29.144Z</time>
      </trkpt>
      <trkpt lon="7.913185" lat="53.783044">
        <ele>2.14868</ele>
        <time>2026-07-06T16:54:29.812Z</time>
      </trkpt>
      <trkpt lon="7.913182" lat="53.783082">
        <ele>2.15626</ele>
        <time>2026-07-06T16:54:30.444Z</time>
      </trkpt>
      <trkpt lon="7.913189" lat="53.783208">
        <ele>2.18973</ele>
        <time>2026-07-06T16:54:32.380Z</time>
      </trkpt>
      <trkpt lon="7.913175" lat="53.783252">
        <ele>2.2133</ele>
        <time>2026-07-06T16:54:33.048Z</time>
      </trkpt>
      <trkpt lon="7.913147" lat="53.783293">
        <ele>2.27384</ele>
        <time>2026-07-06T16:54:33.716Z</time>
      </trkpt>
      <trkpt lon="7.913106" lat="53.783328">
        <ele>2.33445</ele>
        <time>2026-07-06T16:54:34.380Z</time>
      </trkpt>
      <trkpt lon="7.913055" lat="53.783357">
        <ele>2.40611</ele>
        <time>2026-07-06T16:54:35.048Z</time>
      </trkpt>
      <trkpt lon="7.912939" lat="53.783396">
        <ele>2.53514</ele>
        <time>2026-07-06T16:54:36.380Z</time>
      </trkpt>
      <trkpt lon="7.912821" lat="53.783418">
        <ele>2.65765</ele>
        <time>2026-07-06T16:54:37.680Z</time>
      </trkpt>
      <trkpt lon="7.912026" lat="53.783532">
        <ele>3.13319</ele>
        <time>2026-07-06T16:54:48.148Z</time>
      </trkpt>
      <trkpt lon="7.911904" lat="53.783560">
        <ele>3.15947</ele>
        <time>2026-07-06T16:54:49.480Z</time>
      </trkpt>
      <trkpt lon="7.911846" lat="53.783578">
        <ele>3.1584</ele>
        <time>2026-07-06T16:54:50.148Z</time>
      </trkpt>
      <trkpt lon="7.911795" lat="53.783599">
        <ele>3.16229</ele>
        <time>2026-07-06T16:54:50.780Z</time>
      </trkpt>
      <trkpt lon="7.911748" lat="53.783626">
        <ele>3.16575</ele>
        <time>2026-07-06T16:54:51.444Z</time>
      </trkpt>
      <trkpt lon="7.911707" lat="53.783656">
        <ele>3.16306</ele>
        <time>2026-07-06T16:54:52.112Z</time>
      </trkpt>
      <trkpt lon="7.911640" lat="53.783728">
        <ele>3.16799</ele>
        <time>2026-07-06T16:54:53.448Z</time>
      </trkpt>
      <trkpt lon="7.911576" lat="53.783814">
        <ele>3.1626</ele>
        <time>2026-07-06T16:54:54.748Z</time>
      </trkpt>
      <trkpt lon="7.911400" lat="53.784151">
        <ele>3.06092</ele>
        <time>2026-07-06T16:54:58.680Z</time>
      </trkpt>
      <trkpt lon="7.911244" lat="53.784369">
        <ele>3.0058</ele>
        <time>2026-07-06T16:55:01.280Z</time>
      </trkpt>
      <trkpt lon="7.911099" lat="53.784589">
        <ele>3.0586</ele>
        <time>2026-07-06T16:55:03.848Z</time>
      </trkpt>
      <trkpt lon="7.910532" lat="53.785415">
        <ele>3.14362</ele>
        <time>2026-07-06T16:55:14.248Z</time>
      </trkpt>
      <trkpt lon="7.910141" lat="53.786070">
        <ele>1.47532</ele>
        <time>2026-07-06T16:55:24.636Z</time>
      </trkpt>
      <trkpt lon="7.910088" lat="53.786149">
        <ele>1.52217</ele>
        <time>2026-07-06T16:55:25.968Z</time>
      </trkpt>
      <trkpt lon="7.910070" lat="53.786186">
        <ele>1.56906</ele>
        <time>2026-07-06T16:55:26.636Z</time>
      </trkpt>
      <trkpt lon="7.910063" lat="53.786220">
        <ele>1.58744</ele>
        <time>2026-07-06T16:55:27.304Z</time>
      </trkpt>
      <trkpt lon="7.910063" lat="53.786252">
        <ele>1.56862</ele>
        <time>2026-07-06T16:55:27.940Z</time>
      </trkpt>
      <trkpt lon="7.910070" lat="53.786283">
        <ele>1.54286</ele>
        <time>2026-07-06T16:55:28.576Z</time>
      </trkpt>
      <trkpt lon="7.910098" lat="53.786343">
        <ele>1.45446</ele>
        <time>2026-07-06T16:55:29.908Z</time>
      </trkpt>
      <trkpt lon="7.910137" lat="53.786400">
        <ele>1.42138</ele>
        <time>2026-07-06T16:55:31.208Z</time>
      </trkpt>
      <trkpt lon="7.910190" lat="53.786455">
        <ele>1.42613</ele>
        <time>2026-07-06T16:55:32.508Z</time>
      </trkpt>
      <trkpt lon="7.910221" lat="53.786478">
        <ele>1.46662</ele>
        <time>2026-07-06T16:55:33.172Z</time>
      </trkpt>
      <trkpt lon="7.910244" lat="53.786493">
        <ele>1.54847</ele>
        <time>2026-07-06T16:55:33.840Z</time>
      </trkpt>
      <trkpt lon="7.910826" lat="53.786750">
        <ele>2.70075</ele>
        <time>2026-07-06T17:49:06.024Z</time>
      </trkpt>
      <trkpt lon="7.910761" lat="53.786732">
        <ele>2.68226</ele>
        <time>2026-07-06T18:11:07.700Z</time>
      </trkpt>
      <trkpt lon="7.910685" lat="53.786705">
        <ele>2.684</ele>
        <time>2026-07-06T18:11:09.000Z</time>
      </trkpt>
      <trkpt lon="7.910115" lat="53.786461">
        <ele>1.44675</ele>
        <time>2026-07-06T18:11:16.180Z</time>
      </trkpt>
      <trkpt lon="7.910067" lat="53.786434">
        <ele>1.56426</ele>
        <time>2026-07-06T18:11:16.832Z</time>
      </trkpt>
      <trkpt lon="7.910034" lat="53.786410">
        <ele>1.72573</ele>
        <time>2026-07-06T18:11:17.464Z</time>
      </trkpt>
      <trkpt lon="7.910011" lat="53.786385">
        <ele>1.87001</ele>
        <time>2026-07-06T18:11:18.084Z</time>
      </trkpt>
      <trkpt lon="7.909997" lat="53.786360">
        <ele>1.97999</ele>
        <time>2026-07-06T18:11:18.764Z</time>
      </trkpt>
      <trkpt lon="7.909990" lat="53.786333">
        <ele>2.03459</ele>
        <time>2026-07-06T18:11:19.428Z</time>
      </trkpt>
      <trkpt lon="7.909990" lat="53.786306">
        <ele>2.06089</ele>
        <time>2026-07-06T18:11:20.064Z</time>
      </trkpt>
      <trkpt lon="7.909998" lat="53.786274">
        <ele>2.0101</ele>
        <time>2026-07-06T18:11:20.732Z</time>
      </trkpt>
      <trkpt lon="7.910078" lat="53.786113">
        <ele>1.54636</ele>
        <time>2026-07-06T18:11:23.280Z</time>
      </trkpt>
      <trkpt lon="7.910418" lat="53.785593">
        <ele>2.74245</ele>
        <time>2026-07-06T18:11:29.776Z</time>
      </trkpt>
      <trkpt lon="7.910498" lat="53.785439">
        <ele>3.06521</ele>
        <time>2026-07-06T18:11:31.732Z</time>
      </trkpt>
      <trkpt lon="7.910534" lat="53.785390">
        <ele>3.15156</ele>
        <time>2026-07-06T18:11:32.364Z</time>
      </trkpt>
      <trkpt lon="7.910630" lat="53.785296">
        <ele>3.16798</ele>
        <time>2026-07-06T18:11:33.628Z</time>
      </trkpt>
      <trkpt lon="7.910876" lat="53.785111">
        <ele>3.19238</ele>
        <time>2026-07-06T18:11:36.164Z</time>
      </trkpt>
      <trkpt lon="7.911123" lat="53.784976">
        <ele>3.16244</ele>
        <time>2026-07-06T18:11:38.128Z</time>
      </trkpt>
      <trkpt lon="7.911660" lat="53.784738">
        <ele>2.83982</ele>
        <time>2026-07-06T18:11:42.664Z</time>
      </trkpt>
      <trkpt lon="7.912790" lat="53.784262">
        <ele>2.5952</ele>
        <time>2026-07-06T18:11:52.964Z</time>
      </trkpt>
      <trkpt lon="7.914326" lat="53.783589">
        <ele>1.952</ele>
        <time>2026-07-06T18:12:03.340Z</time>
      </trkpt>
      <trkpt lon="7.914646" lat="53.783459">
        <ele>1.61315</ele>
        <time>2026-07-06T18:12:05.292Z</time>
      </trkpt>
      <trkpt lon="7.914759" lat="53.783423">
        <ele>1.52042</ele>
        <time>2026-07-06T18:12:05.940Z</time>
      </trkpt>
      <trkpt lon="7.915002" lat="53.783368">
        <ele>1.37421</ele>
        <time>2026-07-06T18:12:07.188Z</time>
      </trkpt>
      <trkpt lon="7.915261" lat="53.783332">
        <ele>1.3052</ele>
        <time>2026-07-06T18:12:08.476Z</time>
      </trkpt>
      <trkpt lon="7.917544" lat="53.783231">
        <ele>0.943589</ele>
        <time>2026-07-06T18:12:18.876Z</time>
      </trkpt>
      <trkpt lon="7.920095" lat="53.783121">
        <ele>0.421184</ele>
        <time>2026-07-06T18:12:29.344Z</time>
      </trkpt>
      <trkpt lon="7.921893" lat="53.783044">
        <ele>1.2015</ele>
        <time>2026-07-06T18:12:39.672Z</time>
      </trkpt>
      <trkpt lon="7.923661" lat="53.782966">
        <ele>1.52078</ele>
        <time>2026-07-06T18:12:49.976Z</time>
      </trkpt>
      <trkpt lon="7.925151" lat="53.782907">
        <ele>2.19581</ele>
        <time>2026-07-06T18:13:00.392Z</time>
      </trkpt>
      <trkpt lon="7.925550" lat="53.782898">
        <ele>2.39687</ele>
        <time>2026-07-06T18:13:04.304Z</time>
      </trkpt>
      <trkpt lon="7.925803" lat="53.782889">
        <ele>2.51462</ele>
        <time>2026-07-06T18:13:08.172Z</time>
      </trkpt>
      <trkpt lon="7.925895" lat="53.782875">
        <ele>2.54572</ele>
        <time>2026-07-06T18:13:09.476Z</time>
      </trkpt>
      <trkpt lon="7.925940" lat="53.782865">
        <ele>2.55446</ele>
        <time>2026-07-06T18:13:10.084Z</time>
      </trkpt>
      <trkpt lon="7.925984" lat="53.782849">
        <ele>2.56055</ele>
        <time>2026-07-06T18:13:10.772Z</time>
      </trkpt>
      <trkpt lon="7.926020" lat="53.782829">
        <ele>2.54891</ele>
        <time>2026-07-06T18:13:11.392Z</time>
      </trkpt>
      <trkpt lon="7.926044" lat="53.782809">
        <ele>2.53408</ele>
        <time>2026-07-06T18:13:12.080Z</time>
      </trkpt>
      <trkpt lon="7.926056" lat="53.782779">
        <ele>2.50333</ele>
        <time>2026-07-06T18:13:31.476Z</time>
      </trkpt>
      <trkpt lon="7.926053" lat="53.782650">
        <ele>2.36573</ele>
        <time>2026-07-06T18:13:34.032Z</time>
      </trkpt>
      <trkpt lon="7.926023" lat="53.782416">
        <ele>2.15815</ele>
        <time>2026-07-06T18:13:37.312Z</time>
      </trkpt>
      <trkpt lon="7.926009" lat="53.782367">
        <ele>2.12907</ele>
        <time>2026-07-06T18:13:37.928Z</time>
      </trkpt>
      <trkpt lon="7.925982" lat="53.782322">
        <ele>2.10747</ele>
        <time>2026-07-06T18:13:38.580Z</time>
      </trkpt>
      <trkpt lon="7.925939" lat="53.782283">
        <ele>2.09447</ele>
        <time>2026-07-06T18:13:39.212Z</time>
      </trkpt>
      <trkpt lon="7.925884" lat="53.782250">
        <ele>2.09288</ele>
        <time>2026-07-06T18:13:39.884Z</time>
      </trkpt>
      <trkpt lon="7.925831" lat="53.782230">
        <ele>2.09544</ele>
        <time>2026-07-06T18:13:40.548Z</time>
      </trkpt>
      <trkpt lon="7.925784" lat="53.782220">
        <ele>2.10243</ele>
        <time>2026-07-06T18:13:41.180Z</time>
      </trkpt>
      <trkpt lon="7.925743" lat="53.782218">
        <ele>2.11098</ele>
        <time>2026-07-06T18:13:41.828Z</time>
      </trkpt>
      <trkpt lon="7.925607" lat="53.782233">
        <ele>2.16775</ele>
        <time>2026-07-06T18:13:44.452Z</time>
      </trkpt>
      <trkpt lon="7.925380" lat="53.782248">
        <ele>2.28648</ele>
        <time>2026-07-06T18:13:45.764Z</time>
      </trkpt>
      <trkpt lon="7.925042" lat="53.782265">
        <ele>2.37405</ele>
        <time>2026-07-06T18:13:47.048Z</time>
      </trkpt>
      <trkpt lon="7.924348" lat="53.782294">
        <ele>2.99369</ele>
        <time>2026-07-06T18:13:49.000Z</time>
      </trkpt>
      <trkpt lon="7.923460" lat="53.782345">
        <ele>7.58677</ele>
        <time>2026-07-06T18:13:50.952Z</time>
      </trkpt>
      <trkpt lon="7.921732" lat="53.782457">
        <ele>20.3398</ele>
        <time>2026-07-06T18:13:54.204Z</time>
      </trkpt>
      <trkpt lon="7.919791" lat="53.782564">
        <ele>39.8914</ele>
        <time>2026-07-06T18:13:57.436Z</time>
      </trkpt>
      <trkpt lon="7.918599" lat="53.782634">
        <ele>58.3571</ele>
        <time>2026-07-06T18:13:59.352Z</time>
      </trkpt>
      <trkpt lon="7.917423" lat="53.782723">
        <ele>83.1287</ele>
        <time>2026-07-06T18:14:01.336Z</time>
      </trkpt>
      <trkpt lon="7.916328" lat="53.782818">
        <ele>112.554</ele>
        <time>2026-07-06T18:14:03.248Z</time>
      </trkpt>
      <trkpt lon="7.915247" lat="53.782912">
        <ele>143.063</ele>
        <time>2026-07-06T18:14:05.248Z</time>
      </trkpt>
      <trkpt lon="7.914270" lat="53.782985">
        <ele>172.749</ele>
        <time>2026-07-06T18:14:07.148Z</time>
      </trkpt>
      <trkpt lon="7.913303" lat="53.783045">
        <ele>204.976</ele>
        <time>2026-07-06T18:14:09.148Z</time>
      </trkpt>
      <trkpt lon="7.912421" lat="53.783085">
        <ele>237.569</ele>
        <time>2026-07-06T18:14:11.132Z</time>
      </trkpt>
      <trkpt lon="7.911604" lat="53.783106">
        <ele>270.858</ele>
        <time>2026-07-06T18:14:13.100Z</time>
      </trkpt>
      <trkpt lon="7.910849" lat="53.783114">
        <ele>302.044</ele>
        <time>2026-07-06T18:14:15.032Z</time>
      </trkpt>
      <trkpt lon="7.909698" lat="53.783128">
        <ele>299.497</ele>
        <time>2026-07-06T18:14:17.632Z</time>
      </trkpt>
      <trkpt lon="7.908975" lat="53.783139">
        <ele>286.319</ele>
        <time>2026-07-06T18:14:18.952Z</time>
      </trkpt>
      <trkpt lon="7.907765" lat="53.783153">
        <ele>273.786</ele>
        <time>2026-07-06T18:14:20.900Z</time>
      </trkpt>
      <trkpt lon="7.901322" lat="53.783277">
        <ele>285.907</ele>
        <time>2026-07-06T18:14:30.032Z</time>
      </trkpt>
      <trkpt lon="7.900383" lat="53.783201">
        <ele>291.366</ele>
        <time>2026-07-06T18:14:31.336Z</time>
      </trkpt>
      <trkpt lon="7.899920" lat="53.783108">
        <ele>294.881</ele>
        <time>2026-07-06T18:14:32.000Z</time>
      </trkpt>
      <trkpt lon="7.899504" lat="53.782977">
        <ele>299.025</ele>
        <time>2026-07-06T18:14:32.632Z</time>
      </trkpt>
      <trkpt lon="7.899098" lat="53.782795">
        <ele>303.679</ele>
        <time>2026-07-06T18:14:33.304Z</time>
      </trkpt>
      <trkpt lon="7.898756" lat="53.782584">
        <ele>307.941</ele>
        <time>2026-07-06T18:14:33.936Z</time>
      </trkpt>
      <trkpt lon="7.898184" lat="53.782043">
        <ele>315.351</ele>
        <time>2026-07-06T18:14:35.248Z</time>
      </trkpt>
      <trkpt lon="7.897773" lat="53.781432">
        <ele>317.094</ele>
        <time>2026-07-06T18:14:36.548Z</time>
      </trkpt>
      <trkpt lon="7.897623" lat="53.781094">
        <ele>316.359</ele>
        <time>2026-07-06T18:14:37.236Z</time>
      </trkpt>
      <trkpt lon="7.897521" lat="53.780757">
        <ele>315.212</ele>
        <time>2026-07-06T18:14:37.852Z</time>
      </trkpt>
      <trkpt lon="7.897442" lat="53.780048">
        <ele>312.926</ele>
        <time>2026-07-06T18:14:39.132Z</time>
      </trkpt>
      <trkpt lon="7.897697" lat="53.778113">
        <ele>300.485</ele>
        <time>2026-07-06T18:14:42.376Z</time>
      </trkpt>
      <trkpt lon="7.900115" lat="53.767690">
        <ele>298.997</ele>
        <time>2026-07-06T18:14:58.984Z</time>
      </trkpt>
      <trkpt lon="7.900064" lat="53.766089">
        <ele>307.716</ele>
        <time>2026-07-06T18:15:01.632Z</time>
      </trkpt>
      <trkpt lon="7.899852" lat="53.764969">
        <ele>313.502</ele>
        <time>2026-07-06T18:15:03.532Z</time>
      </trkpt>
      <trkpt lon="7.899593" lat="53.764250">
        <ele>317.787</ele>
        <time>2026-07-06T18:15:04.780Z</time>
      </trkpt>
      <trkpt lon="7.899233" lat="53.763565">
        <ele>323.188</ele>
        <time>2026-07-06T18:15:06.064Z</time>
      </trkpt>
      <trkpt lon="7.898773" lat="53.762908">
        <ele>329.118</ele>
        <time>2026-07-06T18:15:07.368Z</time>
      </trkpt>
      <trkpt lon="7.898251" lat="53.762314">
        <ele>334.3</ele>
        <time>2026-07-06T18:15:08.632Z</time>
      </trkpt>
      <trkpt lon="7.897651" lat="53.761758">
        <ele>339.607</ele>
        <time>2026-07-06T18:15:09.928Z</time>
      </trkpt>
      <trkpt lon="7.896660" lat="53.761031">
        <ele>347.997</ele>
        <time>2026-07-06T18:15:11.868Z</time>
      </trkpt>
      <trkpt lon="7.895573" lat="53.760407">
        <ele>355.802</ele>
        <time>2026-07-06T18:15:13.828Z</time>
      </trkpt>
      <trkpt lon="7.893762" lat="53.759574">
        <ele>362.8</ele>
        <time>2026-07-06T18:15:17.064Z</time>
      </trkpt>
      <trkpt lon="7.891311" lat="53.758646">
        <ele>363.828</ele>
        <time>2026-07-06T18:15:21.580Z</time>
      </trkpt>
      <trkpt lon="7.880001" lat="53.755468">
        <ele>367.954</ele>
        <time>2026-07-06T18:15:42.264Z</time>
      </trkpt>
      <trkpt lon="7.877135" lat="53.754915">
        <ele>380.165</ele>
        <time>2026-07-06T18:15:47.436Z</time>
      </trkpt>
      <trkpt lon="7.874973" lat="53.754672">
        <ele>386.854</ele>
        <time>2026-07-06T18:15:51.336Z</time>
      </trkpt>
      <trkpt lon="7.873154" lat="53.754614">
        <ele>390.1</ele>
        <time>2026-07-06T18:15:54.592Z</time>
      </trkpt>
      <trkpt lon="7.869617" lat="53.754647">
        <ele>406.533</ele>
        <time>2026-07-06T18:16:00.992Z</time>
      </trkpt>
      <trkpt lon="7.863075" lat="53.753948">
        <ele>442.268</ele>
        <time>2026-07-06T18:16:13.256Z</time>
      </trkpt>
      <trkpt lon="7.853241" lat="53.753030">
        <ele>480.038</ele>
        <time>2026-07-06T18:16:31.868Z</time>
      </trkpt>
      <trkpt lon="7.846544" lat="53.752561">
        <ele>494.74</ele>
        <time>2026-07-06T18:16:45.928Z</time>
      </trkpt>
      <trkpt lon="7.839692" lat="53.752012">
        <ele>530.087</ele>
        <time>2026-07-06T18:17:03.132Z</time>
      </trkpt>
      <trkpt lon="7.834252" lat="53.751324">
        <ele>571.351</ele>
        <time>2026-07-06T18:17:19.092Z</time>
      </trkpt>
      <trkpt lon="7.828012" lat="53.750537">
        <ele>615.173</ele>
        <time>2026-07-06T18:17:37.548Z</time>
      </trkpt>
      <trkpt lon="7.821639" lat="53.750020">
        <ele>661.676</ele>
        <time>2026-07-06T18:17:55.920Z</time>
      </trkpt>
      <trkpt lon="7.813797" lat="53.749760">
        <ele>709.273</ele>
        <time>2026-07-06T18:18:18.508Z</time>
      </trkpt>
      <trkpt lon="7.806840" lat="53.749505">
        <ele>730.609</ele>
        <time>2026-07-06T18:18:37.624Z</time>
      </trkpt>
      <trkpt lon="7.801232" lat="53.748771">
        <ele>748.113</ele>
        <time>2026-07-06T18:18:52.328Z</time>
      </trkpt>
      <trkpt lon="7.789020" lat="53.746720">
        <ele>775.554</ele>
        <time>2026-07-06T18:19:22.892Z</time>
      </trkpt>
      <trkpt lon="7.779761" lat="53.745729">
        <ele>780.825</ele>
        <time>2026-07-06T18:19:42.624Z</time>
      </trkpt>
      <trkpt lon="7.772822" lat="53.745345">
        <ele>785.474</ele>
        <time>2026-07-06T18:19:54.772Z</time>
      </trkpt>
      <trkpt lon="7.753316" lat="53.744791">
        <ele>778.063</ele>
        <time>2026-07-06T18:20:25.384Z</time>
      </trkpt>
      <trkpt lon="7.733571" lat="53.744338">
        <ele>771.355</ele>
        <time>2026-07-06T18:20:56.000Z</time>
      </trkpt>
      <trkpt lon="7.714487" lat="53.744456">
        <ele>783.794</ele>
        <time>2026-07-06T18:21:26.048Z</time>
      </trkpt>
      <trkpt lon="7.694884" lat="53.744345">
        <ele>791.753</ele>
        <time>2026-07-06T18:21:56.672Z</time>
      </trkpt>
      <trkpt lon="7.674878" lat="53.742894">
        <ele>783.94</ele>
        <time>2026-07-06T18:22:27.256Z</time>
      </trkpt>
      <trkpt lon="7.655928" lat="53.740297">
        <ele>794.295</ele>
        <time>2026-07-06T18:22:56.516Z</time>
      </trkpt>
      <trkpt lon="7.636538" lat="53.736239">
        <ele>817.384</ele>
        <time>2026-07-06T18:23:27.000Z</time>
      </trkpt>
      <trkpt lon="7.619292" lat="53.731278">
        <ele>824.426</ele>
        <time>2026-07-06T18:23:54.796Z</time>
      </trkpt>
      <trkpt lon="7.601021" lat="53.724834">
        <ele>841.962</ele>
        <time>2026-07-06T18:24:25.336Z</time>
      </trkpt>
      <trkpt lon="7.582964" lat="53.719143">
        <ele>842.614</ele>
        <time>2026-07-06T18:24:55.500Z</time>
      </trkpt>
      <trkpt lon="7.564160" lat="53.714501">
        <ele>837.002</ele>
        <time>2026-07-06T18:25:26.024Z</time>
      </trkpt>
      <trkpt lon="7.544861" lat="53.711051">
        <ele>829.408</ele>
        <time>2026-07-06T18:25:56.572Z</time>
      </trkpt>
      <trkpt lon="7.524961" lat="53.708791">
        <ele>811.419</ele>
        <time>2026-07-06T18:26:27.196Z</time>
      </trkpt>
      <trkpt lon="7.504879" lat="53.707192">
        <ele>804.489</ele>
        <time>2026-07-06T18:26:57.616Z</time>
      </trkpt>
      <trkpt lon="7.484425" lat="53.705371">
        <ele>777.692</ele>
        <time>2026-07-06T18:27:27.656Z</time>
      </trkpt>
      <trkpt lon="7.463574" lat="53.703341">
        <ele>759.305</ele>
        <time>2026-07-06T18:27:57.672Z</time>
      </trkpt>
      <trkpt lon="7.442898" lat="53.701057">
        <ele>732.723</ele>
        <time>2026-07-06T18:28:27.844Z</time>
      </trkpt>
      <trkpt lon="7.422355" lat="53.699048">
        <ele>704.944</ele>
        <time>2026-07-06T18:28:57.900Z</time>
      </trkpt>
      <trkpt lon="7.413319" lat="53.698351">
        <ele>693.105</ele>
        <time>2026-07-06T18:29:11.188Z</time>
      </trkpt>
      <trkpt lon="7.412254" lat="53.698309">
        <ele>679.669</ele>
        <time>2026-07-06T18:29:13.108Z</time>
      </trkpt>
      <trkpt lon="7.411256" lat="53.698355">
        <ele>656.165</ele>
        <time>2026-07-06T18:29:15.072Z</time>
      </trkpt>
      <trkpt lon="7.409978" lat="53.698539">
        <ele>618.293</ele>
        <time>2026-07-06T18:29:17.648Z</time>
      </trkpt>
      <trkpt lon="7.408681" lat="53.698795">
        <ele>574.101</ele>
        <time>2026-07-06T18:29:20.296Z</time>
      </trkpt>
      <trkpt lon="7.407348" lat="53.699061">
        <ele>524.003</ele>
        <time>2026-07-06T18:29:22.916Z</time>
      </trkpt>
      <trkpt lon="7.406272" lat="53.699292">
        <ele>485.07</ele>
        <time>2026-07-06T18:29:24.944Z</time>
      </trkpt>
      <trkpt lon="7.405193" lat="53.699534">
        <ele>443.565</ele>
        <time>2026-07-06T18:29:26.900Z</time>
      </trkpt>
      <trkpt lon="7.404051" lat="53.699786">
        <ele>399.301</ele>
        <time>2026-07-06T18:29:28.892Z</time>
      </trkpt>
      <trkpt lon="7.402825" lat="53.700045">
        <ele>354.725</ele>
        <time>2026-07-06T18:29:30.928Z</time>
      </trkpt>
      <trkpt lon="7.401623" lat="53.700323">
        <ele>316.479</ele>
        <time>2026-07-06T18:29:32.860Z</time>
      </trkpt>
      <trkpt lon="7.400410" lat="53.700656">
        <ele>280.146</ele>
        <time>2026-07-06T18:29:34.836Z</time>
      </trkpt>
      <trkpt lon="7.398871" lat="53.701219">
        <ele>246.482</ele>
        <time>2026-07-06T18:29:37.484Z</time>
      </trkpt>
      <trkpt lon="7.397841" lat="53.701715">
        <ele>225.721</ele>
        <time>2026-07-06T18:29:39.484Z</time>
      </trkpt>
      <trkpt lon="7.396943" lat="53.702257">
        <ele>207.473</ele>
        <time>2026-07-06T18:29:41.492Z</time>
      </trkpt>
      <trkpt lon="7.395936" lat="53.703042">
        <ele>185.547</ele>
        <time>2026-07-06T18:29:44.212Z</time>
      </trkpt>
      <trkpt lon="7.395338" lat="53.703679">
        <ele>174.787</ele>
        <time>2026-07-06T18:29:46.212Z</time>
      </trkpt>
      <trkpt lon="7.394688" lat="53.704613">
        <ele>157.901</ele>
        <time>2026-07-06T18:29:48.900Z</time>
      </trkpt>
      <trkpt lon="7.394225" lat="53.705609">
        <ele>144.592</ele>
        <time>2026-07-06T18:29:51.572Z</time>
      </trkpt>
      <trkpt lon="7.394054" lat="53.706635">
        <ele>147.647</ele>
        <time>2026-07-06T18:29:54.236Z</time>
      </trkpt>
      <trkpt lon="7.394066" lat="53.707384">
        <ele>149.558</ele>
        <time>2026-07-06T18:29:56.188Z</time>
      </trkpt>
      <trkpt lon="7.394220" lat="53.708175">
        <ele>154.44</ele>
        <time>2026-07-06T18:29:58.180Z</time>
      </trkpt>
      <trkpt lon="7.394584" lat="53.709225">
        <ele>163.859</ele>
        <time>2026-07-06T18:30:00.820Z</time>
      </trkpt>
      <trkpt lon="7.395947" lat="53.712564">
        <ele>164.836</ele>
        <time>2026-07-06T18:30:08.772Z</time>
      </trkpt>
      <trkpt lon="7.396360" lat="53.713150">
        <ele>167.676</ele>
        <time>2026-07-06T18:30:10.124Z</time>
      </trkpt>
      <trkpt lon="7.396673" lat="53.713434">
        <ele>170.987</ele>
        <time>2026-07-06T18:30:10.836Z</time>
      </trkpt>
      <trkpt lon="7.397030" lat="53.713681">
        <ele>174.581</ele>
        <time>2026-07-06T18:30:11.500Z</time>
      </trkpt>
      <trkpt lon="7.397435" lat="53.713897">
        <ele>178.084</ele>
        <time>2026-07-06T18:30:12.164Z</time>
      </trkpt>
      <trkpt lon="7.397901" lat="53.714087">
        <ele>181.303</ele>
        <time>2026-07-06T18:30:12.828Z</time>
      </trkpt>
      <trkpt lon="7.399425" lat="53.714502">
        <ele>187.414</ele>
        <time>2026-07-06T18:30:14.828Z</time>
      </trkpt>
      <trkpt lon="7.400487" lat="53.714699">
        <ele>187.939</ele>
        <time>2026-07-06T18:30:16.156Z</time>
      </trkpt>
      <trkpt lon="7.402137" lat="53.714910">
        <ele>188.091</ele>
        <time>2026-07-06T18:30:18.196Z</time>
      </trkpt>
      <trkpt lon="7.404250" lat="53.715147">
        <ele>191.9</ele>
        <time>2026-07-06T18:30:20.876Z</time>
      </trkpt>
      <trkpt lon="7.404750" lat="53.715225">
        <ele>193.554</ele>
        <time>2026-07-06T18:30:21.556Z</time>
      </trkpt>
      <trkpt lon="7.405242" lat="53.715319">
        <ele>194.995</ele>
        <time>2026-07-06T18:30:22.236Z</time>
      </trkpt>
      <trkpt lon="7.405692" lat="53.715427">
        <ele>195.987</ele>
        <time>2026-07-06T18:30:22.900Z</time>
      </trkpt>
      <trkpt lon="7.406519" lat="53.715694">
        <ele>196.325</ele>
        <time>2026-07-06T18:30:24.204Z</time>
      </trkpt>
      <trkpt lon="7.406884" lat="53.715850">
        <ele>196.143</ele>
        <time>2026-07-06T18:30:24.876Z</time>
      </trkpt>
      <trkpt lon="7.407237" lat="53.716030">
        <ele>195.751</ele>
        <time>2026-07-06T18:30:25.524Z</time>
      </trkpt>
      <trkpt lon="7.407548" lat="53.716220">
        <ele>195.15</ele>
        <time>2026-07-06T18:30:26.180Z</time>
      </trkpt>
      <trkpt lon="7.407831" lat="53.716424">
        <ele>194.402</ele>
        <time>2026-07-06T18:30:26.852Z</time>
      </trkpt>
      <trkpt lon="7.408287" lat="53.716848">
        <ele>192.972</ele>
        <time>2026-07-06T18:30:28.148Z</time>
      </trkpt>
      <trkpt lon="7.408944" lat="53.717758">
        <ele>190.315</ele>
        <time>2026-07-06T18:30:30.820Z</time>
      </trkpt>
      <trkpt lon="7.409388" lat="53.718704">
        <ele>186.793</ele>
        <time>2026-07-06T18:30:33.516Z</time>
      </trkpt>
      <trkpt lon="7.409545" lat="53.719182">
        <ele>185.34</ele>
        <time>2026-07-06T18:30:34.876Z</time>
      </trkpt>
      <trkpt lon="7.409610" lat="53.719651">
        <ele>184.375</ele>
        <time>2026-07-06T18:30:36.220Z</time>
      </trkpt>
      <trkpt lon="7.409596" lat="53.719879">
        <ele>183.949</ele>
        <time>2026-07-06T18:30:36.900Z</time>
      </trkpt>
      <trkpt lon="7.409551" lat="53.720096">
        <ele>183.442</ele>
        <time>2026-07-06T18:30:37.548Z</time>
      </trkpt>
      <trkpt lon="7.409473" lat="53.720303">
        <ele>182.745</ele>
        <time>2026-07-06T18:30:38.204Z</time>
      </trkpt>
      <trkpt lon="7.409359" lat="53.720503">
        <ele>181.733</ele>
        <time>2026-07-06T18:30:38.868Z</time>
      </trkpt>
      <trkpt lon="7.409211" lat="53.720690">
        <ele>180.392</ele>
        <time>2026-07-06T18:30:39.532Z</time>
      </trkpt>
      <trkpt lon="7.409044" lat="53.720852">
        <ele>178.817</ele>
        <time>2026-07-06T18:30:40.172Z</time>
      </trkpt>
      <trkpt lon="7.408831" lat="53.721016">
        <ele>176.806</ele>
        <time>2026-07-06T18:30:40.852Z</time>
      </trkpt>
      <trkpt lon="7.408592" lat="53.721163">
        <ele>174.764</ele>
        <time>2026-07-06T18:30:41.532Z</time>
      </trkpt>
      <trkpt lon="7.408061" lat="53.721406">
        <ele>170.428</ele>
        <time>2026-07-06T18:30:42.884Z</time>
      </trkpt>
      <trkpt lon="7.407204" lat="53.721688">
        <ele>163.278</ele>
        <time>2026-07-06T18:30:44.852Z</time>
      </trkpt>
      <trkpt lon="7.405626" lat="53.722063">
        <ele>140.856</ele>
        <time>2026-07-06T18:30:48.124Z</time>
      </trkpt>
      <trkpt lon="7.404065" lat="53.722316">
        <ele>121.993</ele>
        <time>2026-07-06T18:30:50.812Z</time>
      </trkpt>
      <trkpt lon="7.393286" lat="53.723452">
        <ele>102.029</ele>
        <time>2026-07-06T18:31:06.764Z</time>
      </trkpt>
      <trkpt lon="7.386524" lat="53.724026">
        <ele>82.8297</ele>
        <time>2026-07-06T18:31:16.772Z</time>
      </trkpt>
      <trkpt lon="7.382024" lat="53.724397">
        <ele>61.9954</ele>
        <time>2026-07-06T18:31:23.580Z</time>
      </trkpt>
      <trkpt lon="7.379984" lat="53.724543">
        <ele>42.5743</ele>
        <time>2026-07-06T18:31:26.936Z</time>
      </trkpt>
      <trkpt lon="7.378461" lat="53.724646">
        <ele>28.8757</ele>
        <time>2026-07-06T18:31:29.664Z</time>
      </trkpt>
      <trkpt lon="7.377554" lat="53.724701">
        <ele>24.5656</ele>
        <time>2026-07-06T18:31:31.712Z</time>
      </trkpt>
      <trkpt lon="7.375658" lat="53.724814">
        <ele>7.88661</ele>
        <time>2026-07-06T18:31:36.992Z</time>
      </trkpt>
      <trkpt lon="7.373423" lat="53.724888">
        <ele>2.58314</ele>
        <time>2026-07-06T18:31:44.984Z</time>
      </trkpt>
      <trkpt lon="7.372180" lat="53.724933">
        <ele>1.21307</ele>
        <time>2026-07-06T18:31:51.048Z</time>
      </trkpt>
      <trkpt lon="7.371034" lat="53.724967">
        <ele>0.810458</ele>
        <time>2026-07-06T18:32:01.172Z</time>
      </trkpt>
      <trkpt lon="7.370919" lat="53.724969">
        <ele>0.732929</ele>
        <time>2026-07-06T18:32:02.524Z</time>
      </trkpt>
      <trkpt lon="7.370817" lat="53.724962">
        <ele>0.662032</ele>
        <time>2026-07-06T18:32:03.876Z</time>
      </trkpt>
      <trkpt lon="7.370773" lat="53.724956">
        <ele>0.630123</ele>
        <time>2026-07-06T18:32:04.508Z</time>
      </trkpt>
      <trkpt lon="7.370692" lat="53.724938">
        <ele>0.564991</ele>
        <time>2026-07-06T18:32:05.788Z</time>
      </trkpt>
      <trkpt lon="7.370654" lat="53.724924">
        <ele>0.532412</ele>
        <time>2026-07-06T18:32:06.452Z</time>
      </trkpt>
      <trkpt lon="7.370618" lat="53.724908">
        <ele>0.485716</ele>
        <time>2026-07-06T18:32:07.132Z</time>
      </trkpt>
      <trkpt lon="7.370588" lat="53.724891">
        <ele>0.485876</ele>
        <time>2026-07-06T18:32:07.788Z</time>
      </trkpt>
      <trkpt lon="7.370444" lat="53.724784">
        <ele>0.655025</ele>
        <time>2026-07-06T18:32:11.780Z</time>
      </trkpt>
      <trkpt lon="7.370396" lat="53.724760">
        <ele>0.776784</ele>
        <time>2026-07-06T18:32:13.132Z</time>
      </trkpt>
      <trkpt lon="7.370351" lat="53.724744">
        <ele>0.892148</ele>
        <time>2026-07-06T18:32:14.392Z</time>
      </trkpt>
      <trkpt lon="7.370308" lat="53.724731">
        <ele>1.01116</ele>
        <time>2026-07-06T18:32:15.756Z</time>
      </trkpt>
      <trkpt lon="7.370276" lat="53.724724">
        <ele>1.1012</ele>
        <time>2026-07-06T18:32:17.100Z</time>
      </trkpt>
      <trkpt lon="7.370093" lat="53.724696">
        <ele>1.76439</ele>
        <time>2026-07-06T18:32:27.156Z</time>
      </trkpt>
      <trkpt lon="7.370072" lat="53.724692">
        <ele>1.85776</ele>
        <time>2026-07-06T18:32:27.820Z</time>
      </trkpt>
      <trkpt lon="7.370055" lat="53.724687">
        <ele>1.94832</ele>
        <time>2026-07-06T18:32:28.476Z</time>
      </trkpt>
      <trkpt lon="7.370040" lat="53.724682">
        <ele>2.03497</ele>
        <time>2026-07-06T18:32:29.164Z</time>
      </trkpt>
      <trkpt lon="7.370030" lat="53.724677">
        <ele>2.10931</ele>
        <time>2026-07-06T18:32:29.820Z</time>
      </trkpt>
      <trkpt lon="7.370009" lat="53.724661">
        <ele>2.29109</ele>
        <time>2026-07-06T18:32:31.868Z</time>
      </trkpt>
      <trkpt lon="7.369999" lat="53.724649">
        <ele>2.41121</ele>
        <time>2026-07-06T18:32:32.508Z</time>
      </trkpt>
      <trkpt lon="7.369992" lat="53.724630">
        <ele>2.56603</ele>
        <time>2026-07-06T18:32:33.188Z</time>
      </trkpt>
      <trkpt lon="7.369992" lat="53.724618">
        <ele>2.65703</ele>
        <time>2026-07-06T18:32:33.852Z</time>
      </trkpt>
    </trkseg>
    <trkseg>
      <trkpt lon="7.909805" lat="53.787621">
        <ele>1.56542</ele>
        <time>2026-07-06T18:40:40.416Z</time>
      </trkpt>
      <trkpt lon="7.909773" lat="53.787612">
        <ele>1.63418</ele>
        <time>2026-07-06T18:43:46.600Z</time>
      </trkpt>
      <trkpt lon="7.909597" lat="53.787551">
        <ele>1.77726</ele>
        <time>2026-07-06T18:43:55.056Z</time>
      </trkpt>
      <trkpt lon="7.909467" lat="53.787499">
        <ele>1.79474</ele>
        <time>2026-07-06T18:44:02.096Z</time>
      </trkpt>
      <trkpt lon="7.909424" lat="53.787477">
        <ele>1.79733</ele>
        <time>2026-07-06T18:44:04.024Z</time>
      </trkpt>
      <trkpt lon="7.909395" lat="53.787456">
        <ele>1.80294</ele>
        <time>2026-07-06T18:44:05.344Z</time>
      </trkpt>
      <trkpt lon="7.909382" lat="53.787445">
        <ele>1.80493</ele>
        <time>2026-07-06T18:44:06.008Z</time>
      </trkpt>
      <trkpt lon="7.909370" lat="53.787431">
        <ele>1.81281</ele>
        <time>2026-07-06T18:44:06.672Z</time>
      </trkpt>
      <trkpt lon="7.909360" lat="53.787417">
        <ele>1.81937</ele>
        <time>2026-07-06T18:44:07.312Z</time>
      </trkpt>
      <trkpt lon="7.909352" lat="53.787401">
        <ele>1.82669</ele>
        <time>2026-07-06T18:44:07.976Z</time>
      </trkpt>
      <trkpt lon="7.909346" lat="53.787384">
        <ele>1.8373</ele>
        <time>2026-07-06T18:44:08.640Z</time>
      </trkpt>
      <trkpt lon="7.909344" lat="53.787366">
        <ele>1.85882</ele>
        <time>2026-07-06T18:44:09.296Z</time>
      </trkpt>
      <trkpt lon="7.909345" lat="53.787347">
        <ele>1.86767</ele>
        <time>2026-07-06T18:44:09.968Z</time>
      </trkpt>
      <trkpt lon="7.909355" lat="53.787306">
        <ele>1.89329</ele>
        <time>2026-07-06T18:44:11.296Z</time>
      </trkpt>
      <trkpt lon="7.909388" lat="53.787234">
        <ele>1.95881</ele>
        <time>2026-07-06T18:44:13.256Z</time>
      </trkpt>
      <trkpt lon="7.909695" lat="53.786715">
        <ele>2.49676</ele>
        <time>2026-07-06T18:44:23.560Z</time>
      </trkpt>
      <trkpt lon="7.910092" lat="53.786078">
        <ele>1.50575</ele>
        <time>2026-07-06T18:44:32.728Z</time>
      </trkpt>
      <trkpt lon="7.910170" lat="53.785966">
        <ele>1.46357</ele>
        <time>2026-07-06T18:44:34.016Z</time>
      </trkpt>
      <trkpt lon="7.910269" lat="53.785807">
        <ele>1.69995</ele>
        <time>2026-07-06T18:44:35.976Z</time>
      </trkpt>
      <trkpt lon="7.910437" lat="53.785577">
        <ele>2.82828</ele>
        <time>2026-07-06T18:44:40.496Z</time>
      </trkpt>
      <trkpt lon="7.910527" lat="53.785430">
        <ele>3.12113</ele>
        <time>2026-07-06T18:44:43.736Z</time>
      </trkpt>
      <trkpt lon="7.910608" lat="53.785336">
        <ele>3.1729</ele>
        <time>2026-07-06T18:44:45.680Z</time>
      </trkpt>
      <trkpt lon="7.910711" lat="53.785238">
        <ele>3.18889</ele>
        <time>2026-07-06T18:44:47.616Z</time>
      </trkpt>
      <trkpt lon="7.910848" lat="53.785137">
        <ele>3.18411</ele>
        <time>2026-07-06T18:44:49.560Z</time>
      </trkpt>
      <trkpt lon="7.910959" lat="53.785072">
        <ele>3.17279</ele>
        <time>2026-07-06T18:44:50.848Z</time>
      </trkpt>
      <trkpt lon="7.911599" lat="53.784783">
        <ele>2.88665</ele>
        <time>2026-07-06T18:44:56.600Z</time>
      </trkpt>
      <trkpt lon="7.912960" lat="53.784179">
        <ele>2.61629</ele>
        <time>2026-07-06T18:45:06.992Z</time>
      </trkpt>
      <trkpt lon="7.914359" lat="53.783588">
        <ele>1.93762</ele>
        <time>2026-07-06T18:45:17.232Z</time>
      </trkpt>
      <trkpt lon="7.914782" lat="53.783428">
        <ele>1.51651</ele>
        <time>2026-07-06T18:45:21.080Z</time>
      </trkpt>
      <trkpt lon="7.914941" lat="53.783383">
        <ele>1.41039</ele>
        <time>2026-07-06T18:45:22.360Z</time>
      </trkpt>
      <trkpt lon="7.915115" lat="53.783347">
        <ele>1.32904</ele>
        <time>2026-07-06T18:45:23.672Z</time>
      </trkpt>
      <trkpt lon="7.915295" lat="53.783322">
        <ele>1.28637</ele>
        <time>2026-07-06T18:45:24.952Z</time>
      </trkpt>
      <trkpt lon="7.915874" lat="53.783290">
        <ele>1.32212</ele>
        <time>2026-07-06T18:45:28.832Z</time>
      </trkpt>
      <trkpt lon="7.917464" lat="53.783222">
        <ele>0.952403</ele>
        <time>2026-07-06T18:45:39.168Z</time>
      </trkpt>
      <trkpt lon="7.919268" lat="53.783146">
        <ele>0.225101</ele>
        <time>2026-07-06T18:45:49.600Z</time>
      </trkpt>
      <trkpt lon="7.921087" lat="53.783071">
        <ele>0.905107</ele>
        <time>2026-07-06T18:45:59.920Z</time>
      </trkpt>
      <trkpt lon="7.922610" lat="53.783010">
        <ele>1.31458</ele>
        <time>2026-07-06T18:46:10.224Z</time>
      </trkpt>
      <trkpt lon="7.924177" lat="53.782954">
        <ele>1.74024</ele>
        <time>2026-07-06T18:46:20.528Z</time>
      </trkpt>
      <trkpt lon="7.924371" lat="53.782945">
        <ele>1.82872</ele>
        <time>2026-07-06T18:46:21.832Z</time>
      </trkpt>
      <trkpt lon="7.924943" lat="53.782911">
        <ele>2.09426</ele>
        <time>2026-07-06T18:46:25.712Z</time>
      </trkpt>
      <trkpt lon="7.925864" lat="53.782882">
        <ele>2.53503</ele>
        <time>2026-07-06T18:46:34.696Z</time>
      </trkpt>
      <trkpt lon="7.925939" lat="53.782871">
        <ele>2.56076</ele>
        <time>2026-07-06T18:46:36.000Z</time>
      </trkpt>
      <trkpt lon="7.925975" lat="53.782862">
        <ele>2.56481</ele>
        <time>2026-07-06T18:46:36.640Z</time>
      </trkpt>
      <trkpt lon="7.926007" lat="53.782850">
        <ele>2.56852</ele>
        <time>2026-07-06T18:46:37.264Z</time>
      </trkpt>
      <trkpt lon="7.926034" lat="53.782835">
        <ele>2.56038</ele>
        <time>2026-07-06T18:46:37.904Z</time>
      </trkpt>
      <trkpt lon="7.926051" lat="53.782822">
        <ele>2.54652</ele>
        <time>2026-07-06T18:46:38.576Z</time>
      </trkpt>
      <trkpt lon="7.926059" lat="53.782812">
        <ele>2.53791</ele>
        <time>2026-07-06T18:46:39.840Z</time>
      </trkpt>
      <trkpt lon="7.926060" lat="53.782798">
        <ele>2.52203</ele>
        <time>2026-07-06T18:46:50.216Z</time>
      </trkpt>
      <trkpt lon="7.926040" lat="53.782609">
        <ele>2.32289</ele>
        <time>2026-07-06T18:47:29.632Z</time>
      </trkpt>
      <trkpt lon="7.926015" lat="53.782367">
        <ele>2.13201</ele>
        <time>2026-07-06T18:47:34.240Z</time>
      </trkpt>
      <trkpt lon="7.925997" lat="53.782338">
        <ele>2.12096</ele>
        <time>2026-07-06T18:47:34.880Z</time>
      </trkpt>
      <trkpt lon="7.925973" lat="53.782317">
        <ele>2.11802</ele>
        <time>2026-07-06T18:47:35.536Z</time>
      </trkpt>
      <trkpt lon="7.925945" lat="53.782307">
        <ele>2.11305</ele>
        <time>2026-07-06T18:47:36.184Z</time>
      </trkpt>
      <trkpt lon="7.925931" lat="53.782305">
        <ele>2.10937</ele>
        <time>2026-07-06T18:47:36.856Z</time>
      </trkpt>
      <trkpt lon="7.925881" lat="53.782309">
        <ele>2.12826</ele>
        <time>2026-07-06T18:47:40.736Z</time>
      </trkpt>
      <trkpt lon="7.925718" lat="53.782318">
        <ele>2.20378</ele>
        <time>2026-07-06T18:47:42.056Z</time>
      </trkpt>
      <trkpt lon="7.925151" lat="53.782351">
        <ele>10.5089</ele>
        <time>2026-07-06T18:47:44.704Z</time>
      </trkpt>
      <trkpt lon="7.924794" lat="53.782370">
        <ele>31.0472</ele>
        <time>2026-07-06T18:47:46.616Z</time>
      </trkpt>
      <trkpt lon="7.924599" lat="53.782352">
        <ele>56.2808</ele>
        <time>2026-07-06T18:47:48.512Z</time>
      </trkpt>
      <trkpt lon="7.924350" lat="53.782331">
        <ele>78.1781</ele>
        <time>2026-07-06T18:47:51.056Z</time>
      </trkpt>
      <trkpt lon="7.924079" lat="53.782347">
        <ele>88.7243</ele>
        <time>2026-07-06T18:47:52.976Z</time>
      </trkpt>
      <trkpt lon="7.923332" lat="53.782423">
        <ele>113.006</ele>
        <time>2026-07-06T18:47:56.784Z</time>
      </trkpt>
      <trkpt lon="7.922838" lat="53.782419">
        <ele>137.507</ele>
        <time>2026-07-06T18:47:59.360Z</time>
      </trkpt>
      <trkpt lon="7.922252" lat="53.782419">
        <ele>164.88</ele>
        <time>2026-07-06T18:48:02.560Z</time>
      </trkpt>
      <trkpt lon="7.921920" lat="53.782466">
        <ele>182.316</ele>
        <time>2026-07-06T18:48:04.496Z</time>
      </trkpt>
      <trkpt lon="7.921542" lat="53.782556">
        <ele>208.088</ele>
        <time>2026-07-06T18:48:07.056Z</time>
      </trkpt>
      <trkpt lon="7.920970" lat="53.782669">
        <ele>225.135</ele>
        <time>2026-07-06T18:48:10.232Z</time>
      </trkpt>
      <trkpt lon="7.919879" lat="53.782829">
        <ele>234.899</ele>
        <time>2026-07-06T18:48:14.048Z</time>
      </trkpt>
      <trkpt lon="7.916477" lat="53.783232">
        <ele>236.813</ele>
        <time>2026-07-06T18:48:22.992Z</time>
      </trkpt>
      <trkpt lon="7.914430" lat="53.783324">
        <ele>227.055</ele>
        <time>2026-07-06T18:48:28.096Z</time>
      </trkpt>
      <trkpt lon="7.912113" lat="53.783418">
        <ele>223.063</ele>
        <time>2026-07-06T18:48:32.552Z</time>
      </trkpt>
      <trkpt lon="7.903962" lat="53.783852">
        <ele>231.149</ele>
        <time>2026-07-06T18:48:46.168Z</time>
      </trkpt>
      <trkpt lon="7.900694" lat="53.784155">
        <ele>241.722</ele>
        <time>2026-07-06T18:48:51.384Z</time>
      </trkpt>
      <trkpt lon="7.900298" lat="53.784161">
        <ele>243.428</ele>
        <time>2026-07-06T18:48:52.032Z</time>
      </trkpt>
      <trkpt lon="7.899906" lat="53.784140">
        <ele>245.469</ele>
        <time>2026-07-06T18:48:52.664Z</time>
      </trkpt>
      <trkpt lon="7.899146" lat="53.783979">
        <ele>254.839</ele>
        <time>2026-07-06T18:48:53.984Z</time>
      </trkpt>
      <trkpt lon="7.898815" lat="53.783842">
        <ele>261.308</ele>
        <time>2026-07-06T18:48:54.664Z</time>
      </trkpt>
      <trkpt lon="7.897699" lat="53.783158">
        <ele>265.687</ele>
        <time>2026-07-06T18:48:57.232Z</time>
      </trkpt>
      <trkpt lon="7.897179" lat="53.782737">
        <ele>255.437</ele>
        <time>2026-07-06T18:48:58.528Z</time>
      </trkpt>
      <trkpt lon="7.896739" lat="53.782235">
        <ele>251.635</ele>
        <time>2026-07-06T18:48:59.832Z</time>
      </trkpt>
      <trkpt lon="7.896433" lat="53.781687">
        <ele>252.756</ele>
        <time>2026-07-06T18:49:01.080Z</time>
      </trkpt>
      <trkpt lon="7.896258" lat="53.781084">
        <ele>255.844</ele>
        <time>2026-07-06T18:49:02.384Z</time>
      </trkpt>
      <trkpt lon="7.896192" lat="53.780458">
        <ele>257.132</ele>
        <time>2026-07-06T18:49:03.688Z</time>
      </trkpt>
      <trkpt lon="7.896281" lat="53.779485">
        <ele>259.573</ele>
        <time>2026-07-06T18:49:05.664Z</time>
      </trkpt>
      <trkpt lon="7.896454" lat="53.778824">
        <ele>259.135</ele>
        <time>2026-07-06T18:49:06.968Z</time>
      </trkpt>
      <trkpt lon="7.897176" lat="53.777159">
        <ele>260.875</ele>
        <time>2026-07-06T18:49:10.232Z</time>
      </trkpt>
      <trkpt lon="7.898212" lat="53.775132">
        <ele>260.585</ele>
        <time>2026-07-06T18:49:14.168Z</time>
      </trkpt>
      <trkpt lon="7.899979" lat="53.770991">
        <ele>266.264</ele>
        <time>2026-07-06T18:49:22.064Z</time>
      </trkpt>
      <trkpt lon="7.900421" lat="53.769323">
        <ele>273.646</ele>
        <time>2026-07-06T18:49:25.280Z</time>
      </trkpt>
      <trkpt lon="7.900522" lat="53.768366">
        <ele>276.108</ele>
        <time>2026-07-06T18:49:27.176Z</time>
      </trkpt>
      <trkpt lon="7.900391" lat="53.763379">
        <ele>289.868</ele>
        <time>2026-07-06T18:49:37.472Z</time>
      </trkpt>
      <trkpt lon="7.900133" lat="53.762498">
        <ele>289.419</ele>
        <time>2026-07-06T18:49:39.384Z</time>
      </trkpt>
      <trkpt lon="7.899857" lat="53.761934">
        <ele>288.562</ele>
        <time>2026-07-06T18:49:40.680Z</time>
      </trkpt>
      <trkpt lon="7.899491" lat="53.761405">
        <ele>289.788</ele>
        <time>2026-07-06T18:49:41.976Z</time>
      </trkpt>
      <trkpt lon="7.899049" lat="53.760932">
        <ele>292.67</ele>
        <time>2026-07-06T18:49:43.264Z</time>
      </trkpt>
      <trkpt lon="7.898232" lat="53.760286">
        <ele>296.891</ele>
        <time>2026-07-06T18:49:45.176Z</time>
      </trkpt>
      <trkpt lon="7.896639" lat="53.759348">
        <ele>299.911</ele>
        <time>2026-07-06T18:49:48.376Z</time>
      </trkpt>
      <trkpt lon="7.895267" lat="53.758703">
        <ele>304.299</ele>
        <time>2026-07-06T18:49:50.984Z</time>
      </trkpt>
      <trkpt lon="7.893493" lat="53.758049">
        <ele>315.862</ele>
        <time>2026-07-06T18:49:54.168Z</time>
      </trkpt>
      <trkpt lon="7.891616" lat="53.757523">
        <ele>333.935</ele>
        <time>2026-07-06T18:49:57.384Z</time>
      </trkpt>
      <trkpt lon="7.889007" lat="53.756999">
        <ele>365.657</ele>
        <time>2026-07-06T18:50:01.872Z</time>
      </trkpt>
      <trkpt lon="7.886505" lat="53.756597">
        <ele>402.173</ele>
        <time>2026-07-06T18:50:06.432Z</time>
      </trkpt>
      <trkpt lon="7.884080" lat="53.756244">
        <ele>437.482</ele>
        <time>2026-07-06T18:50:10.976Z</time>
      </trkpt>
      <trkpt lon="7.881407" lat="53.755843">
        <ele>475.696</ele>
        <time>2026-07-06T18:50:16.192Z</time>
      </trkpt>
      <trkpt lon="7.878497" lat="53.755414">
        <ele>516.756</ele>
        <time>2026-07-06T18:50:21.992Z</time>
      </trkpt>
      <trkpt lon="7.874938" lat="53.754869">
        <ele>559.312</ele>
        <time>2026-07-06T18:50:29.168Z</time>
      </trkpt>
      <trkpt lon="7.871059" lat="53.754260">
        <ele>602.408</ele>
        <time>2026-07-06T18:50:36.808Z</time>
      </trkpt>
      <trkpt lon="7.867125" lat="53.753695">
        <ele>648.995</ele>
        <time>2026-07-06T18:50:44.592Z</time>
      </trkpt>
      <trkpt lon="7.863191" lat="53.753085">
        <ele>696.247</ele>
        <time>2026-07-06T18:50:52.408Z</time>
      </trkpt>
      <trkpt lon="7.859064" lat="53.752492">
        <ele>709.375</ele>
        <time>2026-07-06T18:51:00.072Z</time>
      </trkpt>
      <trkpt lon="7.854988" lat="53.752041">
        <ele>695.973</ele>
        <time>2026-07-06T18:51:06.432Z</time>
      </trkpt>
      <trkpt lon="7.833269" lat="53.750574">
        <ele>685.439</ele>
        <time>2026-07-06T18:51:36.896Z</time>
      </trkpt>
      <trkpt lon="7.810850" lat="53.749060">
        <ele>684.959</ele>
        <time>2026-07-06T18:52:07.528Z</time>
      </trkpt>
      <trkpt lon="7.788467" lat="53.747522">
        <ele>682.778</ele>
        <time>2026-07-06T18:52:37.824Z</time>
      </trkpt>
      <trkpt lon="7.766261" lat="53.745978">
        <ele>681.306</ele>
        <time>2026-07-06T18:53:08.320Z</time>
      </trkpt>
      <trkpt lon="7.744196" lat="53.744436">
        <ele>687.338</ele>
        <time>2026-07-06T18:53:38.832Z</time>
      </trkpt>
      <trkpt lon="7.721223" lat="53.742818">
        <ele>688.837</ele>
        <time>2026-07-06T18:54:09.448Z</time>
      </trkpt>
      <trkpt lon="7.698536" lat="53.741216">
        <ele>688.307</ele>
        <time>2026-07-06T18:54:39.848Z</time>
      </trkpt>
      <trkpt lon="7.675260" lat="53.739568">
        <ele>687.6</ele>
        <time>2026-07-06T18:55:10.304Z</time>
      </trkpt>
      <trkpt lon="7.652289" lat="53.737939">
        <ele>686.171</ele>
        <time>2026-07-06T18:55:40.848Z</time>
      </trkpt>
      <trkpt lon="7.629783" lat="53.736352">
        <ele>687.105</ele>
        <time>2026-07-06T18:56:11.448Z</time>
      </trkpt>
      <trkpt lon="7.607282" lat="53.734749">
        <ele>687.521</ele>
        <time>2026-07-06T18:56:41.912Z</time>
      </trkpt>
      <trkpt lon="7.584940" lat="53.733158">
        <ele>687.92</ele>
        <time>2026-07-06T18:57:12.504Z</time>
      </trkpt>
      <trkpt lon="7.562393" lat="53.731541">
        <ele>687.446</ele>
        <time>2026-07-06T18:57:43.048Z</time>
      </trkpt>
      <trkpt lon="7.540159" lat="53.729948">
        <ele>686.668</ele>
        <time>2026-07-06T18:58:13.504Z</time>
      </trkpt>
      <trkpt lon="7.517375" lat="53.728319">
        <ele>687.696</ele>
        <time>2026-07-06T18:58:44.120Z</time>
      </trkpt>
      <trkpt lon="7.494558" lat="53.726666">
        <ele>686.597</ele>
        <time>2026-07-06T18:59:14.168Z</time>
      </trkpt>
      <trkpt lon="7.471140" lat="53.724969">
        <ele>688.14</ele>
        <time>2026-07-06T18:59:44.696Z</time>
      </trkpt>
      <trkpt lon="7.447766" lat="53.723248">
        <ele>687.048</ele>
        <time>2026-07-06T19:00:15.232Z</time>
      </trkpt>
      <trkpt lon="7.425100" lat="53.721616">
        <ele>688.175</ele>
        <time>2026-07-06T19:00:45.672Z</time>
      </trkpt>
      <trkpt lon="7.402480" lat="53.719964">
        <ele>687.422</ele>
        <time>2026-07-06T19:01:15.736Z</time>
      </trkpt>
      <trkpt lon="7.379857" lat="53.718315">
        <ele>686.258</ele>
        <time>2026-07-06T19:01:46.328Z</time>
      </trkpt>
      <trkpt lon="7.374726" lat="53.717868">
        <ele>688.955</ele>
        <time>2026-07-06T19:01:53.472Z</time>
      </trkpt>
      <trkpt lon="7.371912" lat="53.717367">
        <ele>668.966</ele>
        <time>2026-07-06T19:01:57.368Z</time>
      </trkpt>
      <trkpt lon="7.368583" lat="53.716571">
        <ele>633.359</ele>
        <time>2026-07-06T19:02:01.800Z</time>
      </trkpt>
      <trkpt lon="7.366143" lat="53.715789">
        <ele>606.637</ele>
        <time>2026-07-06T19:02:05.040Z</time>
      </trkpt>
      <trkpt lon="7.361806" lat="53.714093">
        <ele>572.789</ele>
        <time>2026-07-06T19:02:10.800Z</time>
      </trkpt>
      <trkpt lon="7.358589" lat="53.712528">
        <ele>554.354</ele>
        <time>2026-07-06T19:02:15.368Z</time>
      </trkpt>
      <trkpt lon="7.353325" lat="53.709618">
        <ele>515.779</ele>
        <time>2026-07-06T19:02:23.176Z</time>
      </trkpt>
      <trkpt lon="7.348346" lat="53.707124">
        <ele>491.809</ele>
        <time>2026-07-06T19:02:30.416Z</time>
      </trkpt>
      <trkpt lon="7.343527" lat="53.705197">
        <ele>453.588</ele>
        <time>2026-07-06T19:02:36.984Z</time>
      </trkpt>
      <trkpt lon="7.340586" lat="53.704050">
        <ele>419.199</ele>
        <time>2026-07-06T19:02:40.864Z</time>
      </trkpt>
      <trkpt lon="7.337130" lat="53.702687">
        <ele>384.322</ele>
        <time>2026-07-06T19:02:45.416Z</time>
      </trkpt>
      <trkpt lon="7.332685" lat="53.701098">
        <ele>352.107</ele>
        <time>2026-07-06T19:02:51.208Z</time>
      </trkpt>
      <trkpt lon="7.326292" lat="53.698960">
        <ele>321.768</ele>
        <time>2026-07-06T19:02:59.616Z</time>
      </trkpt>
      <trkpt lon="7.318372" lat="53.696662">
        <ele>292.156</ele>
        <time>2026-07-06T19:03:10.016Z</time>
      </trkpt>
      <trkpt lon="7.304153" lat="53.693333">
        <ele>306.854</ele>
        <time>2026-07-06T19:03:28.728Z</time>
      </trkpt>
      <trkpt lon="7.298986" lat="53.692181">
        <ele>326.588</ele>
        <time>2026-07-06T19:03:35.880Z</time>
      </trkpt>
      <trkpt lon="7.294601" lat="53.690726">
        <ele>342.142</ele>
        <time>2026-07-06T19:03:42.520Z</time>
      </trkpt>
      <trkpt lon="7.282276" lat="53.685815">
        <ele>375.129</ele>
        <time>2026-07-06T19:04:01.552Z</time>
      </trkpt>
      <trkpt lon="7.276512" lat="53.684226">
        <ele>391.346</ele>
        <time>2026-07-06T19:04:10.056Z</time>
      </trkpt>
      <trkpt lon="7.267731" lat="53.682371">
        <ele>425.919</ele>
        <time>2026-07-06T19:04:23.648Z</time>
      </trkpt>
      <trkpt lon="7.255598" lat="53.680239">
        <ele>432.489</ele>
        <time>2026-07-06T19:04:42.016Z</time>
      </trkpt>
      <trkpt lon="7.253757" lat="53.680133">
        <ele>431.052</ele>
        <time>2026-07-06T19:04:44.648Z</time>
      </trkpt>
      <trkpt lon="7.245595" lat="53.680224">
        <ele>399.761</ele>
        <time>2026-07-06T19:04:55.712Z</time>
      </trkpt>
      <trkpt lon="7.243662" lat="53.680403">
        <ele>397.294</ele>
        <time>2026-07-06T19:04:58.312Z</time>
      </trkpt>
      <trkpt lon="7.241767" lat="53.680716">
        <ele>396.418</ele>
        <time>2026-07-06T19:05:00.984Z</time>
      </trkpt>
      <trkpt lon="7.240031" lat="53.681139">
        <ele>396.204</ele>
        <time>2026-07-06T19:05:03.584Z</time>
      </trkpt>
      <trkpt lon="7.238812" lat="53.681529">
        <ele>395.35</ele>
        <time>2026-07-06T19:05:05.512Z</time>
      </trkpt>
      <trkpt lon="7.237696" lat="53.681991">
        <ele>394.153</ele>
        <time>2026-07-06T19:05:07.416Z</time>
      </trkpt>
      <trkpt lon="7.237011" lat="53.682369">
        <ele>396.11</ele>
        <time>2026-07-06T19:05:08.712Z</time>
      </trkpt>
      <trkpt lon="7.236429" lat="53.682796">
        <ele>401.871</ele>
        <time>2026-07-06T19:05:10.032Z</time>
      </trkpt>
      <trkpt lon="7.235935" lat="53.683292">
        <ele>407.757</ele>
        <time>2026-07-06T19:05:11.400Z</time>
      </trkpt>
      <trkpt lon="7.235572" lat="53.683806">
        <ele>408.881</ele>
        <time>2026-07-06T19:05:12.736Z</time>
      </trkpt>
      <trkpt lon="7.235342" lat="53.684351">
        <ele>408.088</ele>
        <time>2026-07-06T19:05:14.048Z</time>
      </trkpt>
      <trkpt lon="7.235283" lat="53.684918">
        <ele>408.686</ele>
        <time>2026-07-06T19:05:15.336Z</time>
      </trkpt>
      <trkpt lon="7.235386" lat="53.685496">
        <ele>409.626</ele>
        <time>2026-07-06T19:05:16.616Z</time>
      </trkpt>
      <trkpt lon="7.235494" lat="53.685783">
        <ele>409.815</ele>
        <time>2026-07-06T19:05:17.248Z</time>
      </trkpt>
      <trkpt lon="7.235857" lat="53.686364">
        <ele>410.538</ele>
        <time>2026-07-06T19:05:18.544Z</time>
      </trkpt>
      <trkpt lon="7.236104" lat="53.686636">
        <ele>411.356</ele>
        <time>2026-07-06T19:05:19.168Z</time>
      </trkpt>
      <trkpt lon="7.236411" lat="53.686910">
        <ele>412.527</ele>
        <time>2026-07-06T19:05:19.840Z</time>
      </trkpt>
      <trkpt lon="7.236771" lat="53.687174">
        <ele>413.915</ele>
        <time>2026-07-06T19:05:20.504Z</time>
      </trkpt>
      <trkpt lon="7.237150" lat="53.687405">
        <ele>415.339</ele>
        <time>2026-07-06T19:05:21.144Z</time>
      </trkpt>
      <trkpt lon="7.237593" lat="53.687628">
        <ele>416.989</ele>
        <time>2026-07-06T19:05:21.808Z</time>
      </trkpt>
      <trkpt lon="7.238549" lat="53.688002">
        <ele>418.962</ele>
        <time>2026-07-06T19:05:23.112Z</time>
      </trkpt>
      <trkpt lon="7.239558" lat="53.688299">
        <ele>417.674</ele>
        <time>2026-07-06T19:05:24.376Z</time>
      </trkpt>
      <trkpt lon="7.240670" lat="53.688565">
        <ele>412.965</ele>
        <time>2026-07-06T19:05:25.712Z</time>
      </trkpt>
      <trkpt lon="7.244842" lat="53.689316">
        <ele>382.972</ele>
        <time>2026-07-06T19:05:30.344Z</time>
      </trkpt>
      <trkpt lon="7.248048" lat="53.689753">
        <ele>357.558</ele>
        <time>2026-07-06T19:05:33.640Z</time>
      </trkpt>
      <trkpt lon="7.253284" lat="53.690170">
        <ele>322.169</ele>
        <time>2026-07-06T19:05:38.904Z</time>
      </trkpt>
      <trkpt lon="7.256392" lat="53.690385">
        <ele>299.416</ele>
        <time>2026-07-06T19:05:42.168Z</time>
      </trkpt>
      <trkpt lon="7.256999" lat="53.690449">
        <ele>298.738</ele>
        <time>2026-07-06T19:05:42.840Z</time>
      </trkpt>
      <trkpt lon="7.257589" lat="53.690539">
        <ele>298.573</ele>
        <time>2026-07-06T19:05:43.504Z</time>
      </trkpt>
      <trkpt lon="7.258650" lat="53.690791">
        <ele>299.471</ele>
        <time>2026-07-06T19:05:44.808Z</time>
      </trkpt>
      <trkpt lon="7.259148" lat="53.690954">
        <ele>299.775</ele>
        <time>2026-07-06T19:05:45.480Z</time>
      </trkpt>
      <trkpt lon="7.259618" lat="53.691134">
        <ele>299.327</ele>
        <time>2026-07-06T19:05:46.144Z</time>
      </trkpt>
      <trkpt lon="7.260423" lat="53.691521">
        <ele>296.852</ele>
        <time>2026-07-06T19:05:47.408Z</time>
      </trkpt>
      <trkpt lon="7.261130" lat="53.691986">
        <ele>293.008</ele>
        <time>2026-07-06T19:05:48.744Z</time>
      </trkpt>
      <trkpt lon="7.261428" lat="53.692236">
        <ele>291.086</ele>
        <time>2026-07-06T19:05:49.408Z</time>
      </trkpt>
      <trkpt lon="7.261687" lat="53.692494">
        <ele>289.382</ele>
        <time>2026-07-06T19:05:50.072Z</time>
      </trkpt>
      <trkpt lon="7.262081" lat="53.693009">
        <ele>286.132</ele>
        <time>2026-07-06T19:05:51.376Z</time>
      </trkpt>
      <trkpt lon="7.262345" lat="53.693535">
        <ele>281.378</ele>
        <time>2026-07-06T19:05:52.672Z</time>
      </trkpt>
      <trkpt lon="7.262496" lat="53.694047">
        <ele>276.121</ele>
        <time>2026-07-06T19:05:53.944Z</time>
      </trkpt>
      <trkpt lon="7.262544" lat="53.694593">
        <ele>270.683</ele>
        <time>2026-07-06T19:05:55.312Z</time>
      </trkpt>
      <trkpt lon="7.262385" lat="53.695639">
        <ele>264.743</ele>
        <time>2026-07-06T19:05:58.008Z</time>
      </trkpt>
      <trkpt lon="7.259636" lat="53.704356">
        <ele>240.604</ele>
        <time>2026-07-06T19:06:20.488Z</time>
      </trkpt>
      <trkpt lon="7.259519" lat="53.704616">
        <ele>240.124</ele>
        <time>2026-07-06T19:06:21.192Z</time>
      </trkpt>
      <trkpt lon="7.259359" lat="53.704868">
        <ele>239.796</ele>
        <time>2026-07-06T19:06:21.888Z</time>
      </trkpt>
      <trkpt lon="7.259178" lat="53.705078">
        <ele>239.689</ele>
        <time>2026-07-06T19:06:22.528Z</time>
      </trkpt>
      <trkpt lon="7.258948" lat="53.705282">
        <ele>239.779</ele>
        <time>2026-07-06T19:06:23.192Z</time>
      </trkpt>
      <trkpt lon="7.258679" lat="53.705465">
        <ele>240.101</ele>
        <time>2026-07-06T19:06:23.856Z</time>
      </trkpt>
      <trkpt lon="7.256721" lat="53.706274">
        <ele>222.24</ele>
        <time>2026-07-06T19:06:27.800Z</time>
      </trkpt>
      <trkpt lon="7.255159" lat="53.706702">
        <ele>197.692</ele>
        <time>2026-07-06T19:06:30.432Z</time>
      </trkpt>
      <trkpt lon="7.253504" lat="53.707057">
        <ele>169.357</ele>
        <time>2026-07-06T19:06:32.992Z</time>
      </trkpt>
      <trkpt lon="7.252104" lat="53.707270">
        <ele>146.253</ele>
        <time>2026-07-06T19:06:34.992Z</time>
      </trkpt>
      <trkpt lon="7.250593" lat="53.707431">
        <ele>120.471</ele>
        <time>2026-07-06T19:06:36.992Z</time>
      </trkpt>
      <trkpt lon="7.248935" lat="53.707530">
        <ele>95.461</ele>
        <time>2026-07-06T19:06:39.064Z</time>
      </trkpt>
      <trkpt lon="7.247232" lat="53.707560">
        <ele>73.5333</ele>
        <time>2026-07-06T19:06:41.088Z</time>
      </trkpt>
      <trkpt lon="7.244947" lat="53.707516">
        <ele>52.2907</ele>
        <time>2026-07-06T19:06:43.768Z</time>
      </trkpt>
      <trkpt lon="7.242174" lat="53.707402">
        <ele>34.2459</ele>
        <time>2026-07-06T19:06:47.096Z</time>
      </trkpt>
      <trkpt lon="7.239137" lat="53.707256">
        <ele>16.4473</ele>
        <time>2026-07-06T19:06:51.032Z</time>
      </trkpt>
      <trkpt lon="7.236344" lat="53.707149">
        <ele>10.7631</ele>
        <time>2026-07-06T19:06:54.984Z</time>
      </trkpt>
      <trkpt lon="7.235535" lat="53.707113">
        <ele>14.9885</ele>
        <time>2026-07-06T19:06:56.312Z</time>
      </trkpt>
      <trkpt lon="7.234553" lat="53.707061">
        <ele>16.0083</ele>
        <time>2026-07-06T19:06:58.280Z</time>
      </trkpt>
      <trkpt lon="7.233481" lat="53.707005">
        <ele>13.553</ele>
        <time>2026-07-06T19:07:00.912Z</time>
      </trkpt>
      <trkpt lon="7.231342" lat="53.706934">
        <ele>5.33755</ele>
        <time>2026-07-06T19:07:07.504Z</time>
      </trkpt>
      <trkpt lon="7.229434" lat="53.706857">
        <ele>2.37651</ele>
        <time>2026-07-06T19:07:14.888Z</time>
      </trkpt>
      <trkpt lon="7.229195" lat="53.706858">
        <ele>2.49046</ele>
        <time>2026-07-06T19:07:16.216Z</time>
      </trkpt>
      <trkpt lon="7.229102" lat="53.706869">
        <ele>2.54027</ele>
        <time>2026-07-06T19:07:16.848Z</time>
      </trkpt>
      <trkpt lon="7.229015" lat="53.706892">
        <ele>2.57919</ele>
        <time>2026-07-06T19:07:17.520Z</time>
      </trkpt>
      <trkpt lon="7.228948" lat="53.706923">
        <ele>2.60788</ele>
        <time>2026-07-06T19:07:18.168Z</time>
      </trkpt>
      <trkpt lon="7.228897" lat="53.706962">
        <ele>2.62369</ele>
        <time>2026-07-06T19:07:18.840Z</time>
      </trkpt>
      <trkpt lon="7.228869" lat="53.707001">
        <ele>2.62641</ele>
        <time>2026-07-06T19:07:19.480Z</time>
      </trkpt>
      <trkpt lon="7.228856" lat="53.707042">
        <ele>2.60834</ele>
        <time>2026-07-06T19:07:20.160Z</time>
      </trkpt>
      <trkpt lon="7.228852" lat="53.707083">
        <ele>2.60851</ele>
        <time>2026-07-06T19:07:20.808Z</time>
      </trkpt>
      <trkpt lon="7.228870" lat="53.707317">
        <ele>2.56086</ele>
        <time>2026-07-06T19:07:24.152Z</time>
      </trkpt>
      <trkpt lon="7.228867" lat="53.707387">
        <ele>2.57262</ele>
        <time>2026-07-06T19:07:26.152Z</time>
      </trkpt>
      <trkpt lon="7.228859" lat="53.707459">
        <ele>2.59752</ele>
        <time>2026-07-06T19:07:30.712Z</time>
      </trkpt>
      <trkpt lon="7.228839" lat="53.707553">
        <ele>2.64256</ele>
        <time>2026-07-06T19:07:32.712Z</time>
      </trkpt>
      <trkpt lon="7.228765" lat="53.707799">
        <ele>2.88679</ele>
        <time>2026-07-06T19:07:38.048Z</time>
      </trkpt>
      <trkpt lon="7.228741" lat="53.707828">
        <ele>2.9216</ele>
        <time>2026-07-06T19:07:38.672Z</time>
      </trkpt>
      <trkpt lon="7.228708" lat="53.707852">
        <ele>2.96099</ele>
        <time>2026-07-06T19:07:39.320Z</time>
      </trkpt>
      <trkpt lon="7.228669" lat="53.707870">
        <ele>2.99065</ele>
        <time>2026-07-06T19:07:39.984Z</time>
      </trkpt>
      <trkpt lon="7.228626" lat="53.707881">
        <ele>3.00997</ele>
        <time>2026-07-06T19:07:40.648Z</time>
      </trkpt>
      <trkpt lon="7.228538" lat="53.707896">
        <ele>3.06694</ele>
        <time>2026-07-06T19:07:42.016Z</time>
      </trkpt>
      <trkpt lon="7.228316" lat="53.707900">
        <ele>3.18316</ele>
        <time>2026-07-06T19:07:44.648Z</time>
      </trkpt>
      <trkpt lon="7.227993" lat="53.707893">
        <ele>3.30477</ele>
        <time>2026-07-06T19:07:47.872Z</time>
      </trkpt>
      <trkpt lon="7.227936" lat="53.707899">
        <ele>3.3315</ele>
        <time>2026-07-06T19:07:48.544Z</time>
      </trkpt>
      <trkpt lon="7.227888" lat="53.707908">
        <ele>3.35713</ele>
        <time>2026-07-06T19:07:49.216Z</time>
      </trkpt>
      <trkpt lon="7.227845" lat="53.707921">
        <ele>3.38047</ele>
        <time>2026-07-06T19:07:49.912Z</time>
      </trkpt>
      <trkpt lon="7.227819" lat="53.707932">
        <ele>3.39778</ele>
        <time>2026-07-06T19:07:50.616Z</time>
      </trkpt>
      <trkpt lon="7.227785" lat="53.707951">
        <ele>3.43631</ele>
        <time>2026-07-06T19:07:51.952Z</time>
      </trkpt>
      <trkpt lon="7.227768" lat="53.707957">
        <ele>3.45517</ele>
        <time>2026-07-06T19:07:52.576Z</time>
      </trkpt>
      <trkpt lon="7.227749" lat="53.707961">
        <ele>3.45852</ele>
        <time>2026-07-06T19:07:53.216Z</time>
      </trkpt>
      <trkpt lon="7.227723" lat="53.707963">
        <ele>3.45396</ele>
        <time>2026-07-06T19:07:53.920Z</time>
      </trkpt>
      <trkpt lon="7.227693" lat="53.707962">
        <ele>3.45372</ele>
        <time>2026-07-06T19:07:54.584Z</time>
      </trkpt>
      <trkpt lon="7.227669" lat="53.707957">
        <ele>3.45213</ele>
        <time>2026-07-06T19:07:55.216Z</time>
      </trkpt>
      <trkpt lon="7.227653" lat="53.707952">
        <ele>3.46281</ele>
        <time>2026-07-06T19:07:55.872Z</time>
      </trkpt>
      <trkpt lon="7.227638" lat="53.707945">
        <ele>3.46704</ele>
        <time>2026-07-06T19:07:57.872Z</time>
      </trkpt>
      <trkpt lon="7.227625" lat="53.707934">
        <ele>3.47827</ele>
        <time>2026-07-06T19:15:06.400Z</time>
      </trkpt>
      <trkpt lon="7.227612" lat="53.707920">
        <ele>3.46768</ele>
        <time>2026-07-06T19:15:07.032Z</time>
      </trkpt>
      <trkpt lon="7.227603" lat="53.707901">
        <ele>3.45632</ele>
        <time>2026-07-06T19:15:07.696Z</time>
      </trkpt>
      <trkpt lon="7.227600" lat="53.707879">
        <ele>3.4606</ele>
        <time>2026-07-06T19:15:08.400Z</time>
      </trkpt>
      <trkpt lon="7.227614" lat="53.707791">
        <ele>3.46921</ele>
        <time>2026-07-06T19:15:10.952Z</time>
      </trkpt>
      <trkpt lon="7.227627" lat="53.707747">
        <ele>3.48053</ele>
        <time>2026-07-06T19:15:12.224Z</time>
      </trkpt>
      <trkpt lon="7.227637" lat="53.707724">
        <ele>3.4863</ele>
        <time>2026-07-06T19:15:12.888Z</time>
      </trkpt>
      <trkpt lon="7.227653" lat="53.707703">
        <ele>3.48951</ele>
        <time>2026-07-06T19:15:13.536Z</time>
      </trkpt>
      <trkpt lon="7.227678" lat="53.707684">
        <ele>3.48414</ele>
        <time>2026-07-06T19:15:14.184Z</time>
      </trkpt>
      <trkpt lon="7.227710" lat="53.707668">
        <ele>3.47737</ele>
        <time>2026-07-06T19:15:14.848Z</time>
      </trkpt>
      <trkpt lon="7.227747" lat="53.707656">
        <ele>3.45595</ele>
        <time>2026-07-06T19:15:15.504Z</time>
      </trkpt>
      <trkpt lon="7.227788" lat="53.707650">
        <ele>3.42425</ele>
        <time>2026-07-06T19:15:16.136Z</time>
      </trkpt>
      <trkpt lon="7.227835" lat="53.707649">
        <ele>3.41031</ele>
        <time>2026-07-06T19:15:16.800Z</time>
      </trkpt>
      <trkpt lon="7.228025" lat="53.707662">
        <ele>3.2797</ele>
        <time>2026-07-06T19:15:19.432Z</time>
      </trkpt>
      <trkpt lon="7.228466" lat="53.707688">
        <ele>2.97905</ele>
        <time>2026-07-06T19:15:30.000Z</time>
      </trkpt>
      <trkpt lon="7.229382" lat="53.707752">
        <ele>2.55212</ele>
        <time>2026-07-06T19:15:40.656Z</time>
      </trkpt>
      <trkpt lon="7.230576" lat="53.707837">
        <ele>2.43295</ele>
        <time>2026-07-06T19:15:51.296Z</time>
      </trkpt>
      <trkpt lon="7.230929" lat="53.707866">
        <ele>2.46178</ele>
        <time>2026-07-06T19:15:54.656Z</time>
      </trkpt>
      <trkpt lon="7.231005" lat="53.707872">
        <ele>2.45262</ele>
        <time>2026-07-06T19:16:32.928Z</time>
      </trkpt>
      <trkpt lon="7.232027" lat="53.707945">
        <ele>2.46</ele>
        <time>2026-07-06T19:16:43.456Z</time>
      </trkpt>
      <trkpt lon="7.233350" lat="53.708052">
        <ele>2.50022</ele>
        <time>2026-07-06T19:16:53.824Z</time>
      </trkpt>
      <trkpt lon="7.233941" lat="53.708087">
        <ele>2.62455</ele>
        <time>2026-07-06T19:16:58.424Z</time>
      </trkpt>
      <trkpt lon="7.234019" lat="53.708084">
        <ele>2.61334</ele>
        <time>2026-07-06T19:16:59.088Z</time>
      </trkpt>
      <trkpt lon="7.234163" lat="53.708064">
        <ele>2.63098</ele>
        <time>2026-07-06T19:17:00.352Z</time>
      </trkpt>
      <trkpt lon="7.234520" lat="53.707983">
        <ele>2.68811</ele>
        <time>2026-07-06T19:17:03.656Z</time>
      </trkpt>
      <trkpt lon="7.234655" lat="53.707947">
        <ele>2.68493</ele>
        <time>2026-07-06T19:17:04.920Z</time>
      </trkpt>
      <trkpt lon="7.235382" lat="53.707812">
        <ele>2.84169</ele>
        <time>2026-07-06T19:17:11.424Z</time>
      </trkpt>
      <trkpt lon="7.236388" lat="53.707657">
        <ele>3.66957</ele>
        <time>2026-07-06T19:17:21.928Z</time>
      </trkpt>
      <trkpt lon="7.236408" lat="53.707653">
        <ele>3.68651</ele>
        <time>2026-07-06T19:17:32.328Z</time>
      </trkpt>
      <trkpt lon="7.236601" lat="53.707626">
        <ele>3.88641</ele>
        <time>2026-07-06T19:18:00.536Z</time>
      </trkpt>
      <trkpt lon="7.236869" lat="53.707586">
        <ele>4.1322</ele>
        <time>2026-07-06T19:18:03.768Z</time>
      </trkpt>
      <trkpt lon="7.236988" lat="53.707560">
        <ele>4.24013</ele>
        <time>2026-07-06T19:18:05.136Z</time>
      </trkpt>
      <trkpt lon="7.237046" lat="53.707541">
        <ele>4.29507</ele>
        <time>2026-07-06T19:18:05.808Z</time>
      </trkpt>
      <trkpt lon="7.237098" lat="53.707520">
        <ele>4.3513</ele>
        <time>2026-07-06T19:18:06.432Z</time>
      </trkpt>
      <trkpt lon="7.237148" lat="53.707492">
        <ele>4.40568</ele>
        <time>2026-07-06T19:18:07.104Z</time>
      </trkpt>
      <trkpt lon="7.237185" lat="53.707463">
        <ele>4.44374</ele>
        <time>2026-07-06T19:18:07.768Z</time>
      </trkpt>
      <trkpt lon="7.237211" lat="53.707435">
        <ele>4.47484</ele>
        <time>2026-07-06T19:18:08.408Z</time>
      </trkpt>
      <trkpt lon="7.237231" lat="53.707405">
        <ele>4.5008</ele>
        <time>2026-07-06T19:18:09.072Z</time>
      </trkpt>
      <trkpt lon="7.237246" lat="53.707372">
        <ele>4.52366</ele>
        <time>2026-07-06T19:18:09.768Z</time>
      </trkpt>
      <trkpt lon="7.237252" lat="53.707338">
        <ele>4.53239</ele>
        <time>2026-07-06T19:18:10.432Z</time>
      </trkpt>
      <trkpt lon="7.237247" lat="53.707304">
        <ele>4.53516</ele>
        <time>2026-07-06T19:18:11.104Z</time>
      </trkpt>
      <trkpt lon="7.237234" lat="53.707276">
        <ele>4.52809</ele>
        <time>2026-07-06T19:18:11.744Z</time>
      </trkpt>
      <trkpt lon="7.237214" lat="53.707252">
        <ele>4.51772</ele>
        <time>2026-07-06T19:18:12.376Z</time>
      </trkpt>
      <trkpt lon="7.237185" lat="53.707230">
        <ele>4.50117</ele>
        <time>2026-07-06T19:18:13.072Z</time>
      </trkpt>
      <trkpt lon="7.237149" lat="53.707210">
        <ele>4.4878</ele>
        <time>2026-07-06T19:18:13.776Z</time>
      </trkpt>
      <trkpt lon="7.237100" lat="53.707194">
        <ele>4.49494</ele>
        <time>2026-07-06T19:18:14.408Z</time>
      </trkpt>
      <trkpt lon="7.237013" lat="53.707179">
        <ele>4.44823</ele>
        <time>2026-07-06T19:18:15.112Z</time>
      </trkpt>
      <trkpt lon="7.236773" lat="53.707165">
        <ele>4.31767</ele>
        <time>2026-07-06T19:18:16.392Z</time>
      </trkpt>
      <trkpt lon="7.236243" lat="53.707137">
        <ele>6.85241</ele>
        <time>2026-07-06T19:18:18.320Z</time>
      </trkpt>
      <trkpt lon="7.235151" lat="53.707107">
        <ele>23.8211</ele>
        <time>2026-07-06T19:18:21.624Z</time>
      </trkpt>
      <trkpt lon="7.233979" lat="53.707062">
        <ele>42.0878</ele>
        <time>2026-07-06T19:18:24.792Z</time>
      </trkpt>
      <trkpt lon="7.232367" lat="53.706957">
        <ele>61.2704</ele>
        <time>2026-07-06T19:18:28.792Z</time>
      </trkpt>
      <trkpt lon="7.231042" lat="53.706850">
        <ele>84.174</ele>
        <time>2026-07-06T19:18:32.024Z</time>
      </trkpt>
      <trkpt lon="7.230020" lat="53.706766">
        <ele>104.661</ele>
        <time>2026-07-06T19:18:34.616Z</time>
      </trkpt>
      <trkpt lon="7.229365" lat="53.706715">
        <ele>127.233</ele>
        <time>2026-07-06T19:18:36.552Z</time>
      </trkpt>
      <trkpt lon="7.229072" lat="53.706697">
        <ele>148.483</ele>
        <time>2026-07-06T19:18:37.824Z</time>
      </trkpt>
      <trkpt lon="7.228900" lat="53.706694">
        <ele>170.854</ele>
        <time>2026-07-06T19:18:39.080Z</time>
      </trkpt>
      <trkpt lon="7.228817" lat="53.706708">
        <ele>200.803</ele>
        <time>2026-07-06T19:18:41.056Z</time>
      </trkpt>
      <trkpt lon="7.228683" lat="53.706723">
        <ele>217.97</ele>
        <time>2026-07-06T19:18:43.720Z</time>
      </trkpt>
      <trkpt lon="7.228393" lat="53.706745">
        <ele>219.344</ele>
        <time>2026-07-06T19:18:45.616Z</time>
      </trkpt>
      <trkpt lon="7.228106" lat="53.706739">
        <ele>221.57</ele>
        <time>2026-07-06T19:18:46.952Z</time>
      </trkpt>
      <trkpt lon="7.226711" lat="53.706648">
        <ele>251.196</ele>
        <time>2026-07-06T19:18:52.120Z</time>
      </trkpt>
      <trkpt lon="7.226379" lat="53.706594">
        <ele>263.951</ele>
        <time>2026-07-06T19:18:53.424Z</time>
      </trkpt>
      <trkpt lon="7.226094" lat="53.706514">
        <ele>277.922</ele>
        <time>2026-07-06T19:18:54.720Z</time>
      </trkpt>
      <trkpt lon="7.225555" lat="53.706310">
        <ele>312.747</ele>
        <time>2026-07-06T19:18:57.872Z</time>
      </trkpt>
      <trkpt lon="7.225232" lat="53.706262">
        <ele>328.786</ele>
        <time>2026-07-06T19:18:59.848Z</time>
      </trkpt>
      <trkpt lon="7.224343" lat="53.706165">
        <ele>348.972</ele>
        <time>2026-07-06T19:19:03.752Z</time>
      </trkpt>
      <trkpt lon="7.223207" lat="53.706029">
        <ele>384.024</ele>
        <time>2026-07-06T19:19:08.280Z</time>
      </trkpt>
      <trkpt lon="7.221884" lat="53.705896">
        <ele>418.228</ele>
        <time>2026-07-06T19:19:13.584Z</time>
      </trkpt>
      <trkpt lon="7.219667" lat="53.705661">
        <ele>431.502</ele>
        <time>2026-07-06T19:19:20.080Z</time>
      </trkpt>
      <trkpt lon="7.215712" lat="53.705571">
        <ele>442.457</ele>
        <time>2026-07-06T19:19:29.848Z</time>
      </trkpt>
      <trkpt lon="7.213832" lat="53.705576">
        <ele>449.188</ele>
        <time>2026-07-06T19:19:34.360Z</time>
      </trkpt>
      <trkpt lon="7.213029" lat="53.705477">
        <ele>449.047</ele>
        <time>2026-07-06T19:19:36.256Z</time>
      </trkpt>
      <trkpt lon="7.212496" lat="53.705353">
        <ele>447.446</ele>
        <time>2026-07-06T19:19:37.512Z</time>
      </trkpt>
      <trkpt lon="7.211949" lat="53.705147">
        <ele>446.677</ele>
        <time>2026-07-06T19:19:38.888Z</time>
      </trkpt>
      <trkpt lon="7.211473" lat="53.704892">
        <ele>445.432</ele>
        <time>2026-07-06T19:19:40.184Z</time>
      </trkpt>
      <trkpt lon="7.211019" lat="53.704600">
        <ele>438.252</ele>
        <time>2026-07-06T19:19:41.456Z</time>
      </trkpt>
      <trkpt lon="7.210540" lat="53.704247">
        <ele>427.298</ele>
        <time>2026-07-06T19:19:42.712Z</time>
      </trkpt>
      <trkpt lon="7.210039" lat="53.703765">
        <ele>418.019</ele>
        <time>2026-07-06T19:19:44.088Z</time>
      </trkpt>
      <trkpt lon="7.209644" lat="53.703237">
        <ele>412.815</ele>
        <time>2026-07-06T19:19:45.352Z</time>
      </trkpt>
      <trkpt lon="7.209329" lat="53.702629">
        <ele>408.327</ele>
        <time>2026-07-06T19:19:46.656Z</time>
      </trkpt>
      <trkpt lon="7.209123" lat="53.701964">
        <ele>404.909</ele>
        <time>2026-07-06T19:19:47.952Z</time>
      </trkpt>
      <trkpt lon="7.209027" lat="53.701235">
        <ele>403.349</ele>
        <time>2026-07-06T19:19:49.288Z</time>
      </trkpt>
      <trkpt lon="7.209076" lat="53.699762">
        <ele>399.37</ele>
        <time>2026-07-06T19:19:51.848Z</time>
      </trkpt>
      <trkpt lon="7.209943" lat="53.693169">
        <ele>409.276</ele>
        <time>2026-07-06T19:20:02.856Z</time>
      </trkpt>
      <trkpt lon="7.210679" lat="53.690778">
        <ele>413.886</ele>
        <time>2026-07-06T19:20:06.832Z</time>
      </trkpt>
      <trkpt lon="7.211086" lat="53.690008">
        <ele>417.084</ele>
        <time>2026-07-06T19:20:08.128Z</time>
      </trkpt>
      <trkpt lon="7.211662" lat="53.689243">
        <ele>421.374</ele>
        <time>2026-07-06T19:20:09.464Z</time>
      </trkpt>
      <trkpt lon="7.212400" lat="53.688512">
        <ele>427.824</ele>
        <time>2026-07-06T19:20:10.800Z</time>
      </trkpt>
      <trkpt lon="7.213271" lat="53.687831">
        <ele>436.715</ele>
        <time>2026-07-06T19:20:12.128Z</time>
      </trkpt>
      <trkpt lon="7.214295" lat="53.687195">
        <ele>447.661</ele>
        <time>2026-07-06T19:20:13.496Z</time>
      </trkpt>
      <trkpt lon="7.215430" lat="53.686638">
        <ele>460.207</ele>
        <time>2026-07-06T19:20:14.856Z</time>
      </trkpt>
      <trkpt lon="7.216595" lat="53.686176">
        <ele>473.234</ele>
        <time>2026-07-06T19:20:16.184Z</time>
      </trkpt>
      <trkpt lon="7.217810" lat="53.685773">
        <ele>483.98</ele>
        <time>2026-07-06T19:20:17.504Z</time>
      </trkpt>
      <trkpt lon="7.219145" lat="53.685413">
        <ele>492.436</ele>
        <time>2026-07-06T19:20:18.864Z</time>
      </trkpt>
      <trkpt lon="7.220479" lat="53.685129">
        <ele>498.054</ele>
        <time>2026-07-06T19:20:20.192Z</time>
      </trkpt>
      <trkpt lon="7.222527" lat="53.684820">
        <ele>502.662</ele>
        <time>2026-07-06T19:20:22.152Z</time>
      </trkpt>
      <trkpt lon="7.225463" lat="53.684529">
        <ele>498.373</ele>
        <time>2026-07-06T19:20:24.824Z</time>
      </trkpt>
      <trkpt lon="7.236674" lat="53.683965">
        <ele>543.958</ele>
        <time>2026-07-06T19:20:34.760Z</time>
      </trkpt>
      <trkpt lon="7.241660" lat="53.683807">
        <ele>587.68</ele>
        <time>2026-07-06T19:20:39.432Z</time>
      </trkpt>
      <trkpt lon="7.251287" lat="53.683479">
        <ele>632.982</ele>
        <time>2026-07-06T19:20:48.664Z</time>
      </trkpt>
      <trkpt lon="7.257094" lat="53.683304">
        <ele>645.913</ele>
        <time>2026-07-06T19:20:53.992Z</time>
      </trkpt>
      <trkpt lon="7.259335" lat="53.683384">
        <ele>649.663</ele>
        <time>2026-07-06T19:20:56.008Z</time>
      </trkpt>
      <trkpt lon="7.261448" lat="53.683595">
        <ele>653.59</ele>
        <time>2026-07-06T19:20:57.936Z</time>
      </trkpt>
      <trkpt lon="7.262882" lat="53.683822">
        <ele>656.178</ele>
        <time>2026-07-06T19:20:59.296Z</time>
      </trkpt>
      <trkpt lon="7.264236" lat="53.684105">
        <ele>658.644</ele>
        <time>2026-07-06T19:21:00.624Z</time>
      </trkpt>
      <trkpt lon="7.265523" lat="53.684443">
        <ele>660.963</ele>
        <time>2026-07-06T19:21:01.928Z</time>
      </trkpt>
      <trkpt lon="7.266759" lat="53.684838">
        <ele>663.463</ele>
        <time>2026-07-06T19:21:03.224Z</time>
      </trkpt>
      <trkpt lon="7.268537" lat="53.685539">
        <ele>667.776</ele>
        <time>2026-07-06T19:21:05.224Z</time>
      </trkpt>
      <trkpt lon="7.271219" lat="53.686830">
        <ele>676.14</ele>
        <time>2026-07-06T19:21:08.496Z</time>
      </trkpt>
      <trkpt lon="7.276573" lat="53.689444">
        <ele>688.469</ele>
        <time>2026-07-06T19:21:15.032Z</time>
      </trkpt>
      <trkpt lon="7.278376" lat="53.690109">
        <ele>689.661</ele>
        <time>2026-07-06T19:21:16.952Z</time>
      </trkpt>
      <trkpt lon="7.280334" lat="53.690703">
        <ele>690.096</ele>
        <time>2026-07-06T19:21:18.928Z</time>
      </trkpt>
      <trkpt lon="7.283036" lat="53.691361">
        <ele>691.085</ele>
        <time>2026-07-06T19:21:21.496Z</time>
      </trkpt>
      <trkpt lon="7.288066" lat="53.692311">
        <ele>692.509</ele>
        <time>2026-07-06T19:21:26.080Z</time>
      </trkpt>
      <trkpt lon="7.322417" lat="53.697536">
        <ele>691.856</ele>
        <time>2026-07-06T19:21:56.144Z</time>
      </trkpt>
      <trkpt lon="7.357562" lat="53.702942">
        <ele>691.848</ele>
        <time>2026-07-06T19:22:26.632Z</time>
      </trkpt>
      <trkpt lon="7.392716" lat="53.708335">
        <ele>692.544</ele>
        <time>2026-07-06T19:22:56.752Z</time>
      </trkpt>
      <trkpt lon="7.428501" lat="53.713801">
        <ele>689.054</ele>
        <time>2026-07-06T19:23:27.352Z</time>
      </trkpt>
      <trkpt lon="7.463610" lat="53.719174">
        <ele>688.649</ele>
        <time>2026-07-06T19:23:57.600Z</time>
      </trkpt>
      <trkpt lon="7.498719" lat="53.724514">
        <ele>689.494</ele>
        <time>2026-07-06T19:24:27.632Z</time>
      </trkpt>
      <trkpt lon="7.533961" lat="53.729868">
        <ele>687.642</ele>
        <time>2026-07-06T19:24:57.848Z</time>
      </trkpt>
      <trkpt lon="7.569086" lat="53.735210">
        <ele>688.328</ele>
        <time>2026-07-06T19:25:28.176Z</time>
      </trkpt>
      <trkpt lon="7.580960" lat="53.736902">
        <ele>688.78</ele>
        <time>2026-07-06T19:25:38.232Z</time>
      </trkpt>
      <trkpt lon="7.583452" lat="53.737054">
        <ele>688.853</ele>
        <time>2026-07-06T19:25:40.264Z</time>
      </trkpt>
      <trkpt lon="7.586801" lat="53.737074">
        <ele>689.067</ele>
        <time>2026-07-06T19:25:42.968Z</time>
      </trkpt>
      <trkpt lon="7.592710" lat="53.736803">
        <ele>689.691</ele>
        <time>2026-07-06T19:25:47.752Z</time>
      </trkpt>
      <trkpt lon="7.629753" lat="53.734860">
        <ele>688.663</ele>
        <time>2026-07-06T19:26:17.760Z</time>
      </trkpt>
      <trkpt lon="7.661863" lat="53.733285">
        <ele>701.688</ele>
        <time>2026-07-06T19:26:44.000Z</time>
      </trkpt>
      <trkpt lon="7.666117" lat="53.733091">
        <ele>655.804</ele>
        <time>2026-07-06T19:26:47.824Z</time>
      </trkpt>
      <trkpt lon="7.669390" lat="53.733112">
        <ele>608.047</ele>
        <time>2026-07-06T19:26:50.512Z</time>
      </trkpt>
      <trkpt lon="7.671951" lat="53.733270">
        <ele>575.797</ele>
        <time>2026-07-06T19:26:52.512Z</time>
      </trkpt>
      <trkpt lon="7.675389" lat="53.733653">
        <ele>540.253</ele>
        <time>2026-07-06T19:26:55.168Z</time>
      </trkpt>
      <trkpt lon="7.679542" lat="53.734332">
        <ele>492.801</ele>
        <time>2026-07-06T19:26:58.408Z</time>
      </trkpt>
      <trkpt lon="7.682827" lat="53.735060">
        <ele>452.749</ele>
        <time>2026-07-06T19:27:01.008Z</time>
      </trkpt>
      <trkpt lon="7.685197" lat="53.735727">
        <ele>424.215</ele>
        <time>2026-07-06T19:27:02.952Z</time>
      </trkpt>
      <trkpt lon="7.688980" lat="53.737080">
        <ele>392.431</ele>
        <time>2026-07-06T19:27:06.216Z</time>
      </trkpt>
      <trkpt lon="7.692626" lat="53.738483">
        <ele>357.23</ele>
        <time>2026-07-06T19:27:09.488Z</time>
      </trkpt>
      <trkpt lon="7.696111" lat="53.739975">
        <ele>325.721</ele>
        <time>2026-07-06T19:27:12.760Z</time>
      </trkpt>
      <trkpt lon="7.700637" lat="53.742145">
        <ele>295.499</ele>
        <time>2026-07-06T19:27:17.288Z</time>
      </trkpt>
      <trkpt lon="7.703312" lat="53.743400">
        <ele>261.362</ele>
        <time>2026-07-06T19:27:19.952Z</time>
      </trkpt>
      <trkpt lon="7.709125" lat="53.746120">
        <ele>252.455</ele>
        <time>2026-07-06T19:27:25.792Z</time>
      </trkpt>
      <trkpt lon="7.711992" lat="53.747658">
        <ele>252.344</ele>
        <time>2026-07-06T19:27:29.056Z</time>
      </trkpt>
      <trkpt lon="7.715593" lat="53.749942">
        <ele>270.074</ele>
        <time>2026-07-06T19:27:33.752Z</time>
      </trkpt>
      <trkpt lon="7.716701" lat="53.750432">
        <ele>285.341</ele>
        <time>2026-07-06T19:27:35.032Z</time>
      </trkpt>
      <trkpt lon="7.717879" lat="53.750827">
        <ele>302.085</ele>
        <time>2026-07-06T19:27:36.296Z</time>
      </trkpt>
      <trkpt lon="7.719753" lat="53.751293">
        <ele>323.615</ele>
        <time>2026-07-06T19:27:38.232Z</time>
      </trkpt>
      <trkpt lon="7.722324" lat="53.751773">
        <ele>346.849</ele>
        <time>2026-07-06T19:27:40.808Z</time>
      </trkpt>
      <trkpt lon="7.725067" lat="53.752139">
        <ele>362.331</ele>
        <time>2026-07-06T19:27:43.440Z</time>
      </trkpt>
      <trkpt lon="7.728566" lat="53.752394">
        <ele>379.308</ele>
        <time>2026-07-06T19:27:46.664Z</time>
      </trkpt>
      <trkpt lon="7.735064" lat="53.752609">
        <ele>416.721</ele>
        <time>2026-07-06T19:27:52.568Z</time>
      </trkpt>
      <trkpt lon="7.748428" lat="53.752873">
        <ele>446.513</ele>
        <time>2026-07-06T19:28:04.264Z</time>
      </trkpt>
      <trkpt lon="7.786146" lat="53.753815">
        <ele>455.208</ele>
        <time>2026-07-06T19:28:34.872Z</time>
      </trkpt>
      <trkpt lon="7.823365" lat="53.755262">
        <ele>443.108</ele>
        <time>2026-07-06T19:29:04.904Z</time>
      </trkpt>
      <trkpt lon="7.833051" lat="53.755772">
        <ele>431.31</ele>
        <time>2026-07-06T19:29:12.680Z</time>
      </trkpt>
      <trkpt lon="7.838713" lat="53.756387">
        <ele>421.003</ele>
        <time>2026-07-06T19:29:17.240Z</time>
      </trkpt>
      <trkpt lon="7.845817" lat="53.757530">
        <ele>404.613</ele>
        <time>2026-07-06T19:29:23.112Z</time>
      </trkpt>
      <trkpt lon="7.851842" lat="53.758837">
        <ele>389.776</ele>
        <time>2026-07-06T19:29:28.272Z</time>
      </trkpt>
      <trkpt lon="7.860685" lat="53.761245">
        <ele>355.295</ele>
        <time>2026-07-06T19:29:36.040Z</time>
      </trkpt>
      <trkpt lon="7.869614" lat="53.763922">
        <ele>322.511</ele>
        <time>2026-07-06T19:29:43.840Z</time>
      </trkpt>
      <trkpt lon="7.880712" lat="53.767359">
        <ele>292.579</ele>
        <time>2026-07-06T19:29:53.640Z</time>
      </trkpt>
      <trkpt lon="7.885932" lat="53.768803">
        <ele>275.415</ele>
        <time>2026-07-06T19:29:58.128Z</time>
      </trkpt>
      <trkpt lon="7.887543" lat="53.769170">
        <ele>271.985</ele>
        <time>2026-07-06T19:29:59.480Z</time>
      </trkpt>
      <trkpt lon="7.890717" lat="53.769730">
        <ele>266.53</ele>
        <time>2026-07-06T19:30:02.040Z</time>
      </trkpt>
      <trkpt lon="7.893987" lat="53.770112">
        <ele>261.246</ele>
        <time>2026-07-06T19:30:04.640Z</time>
      </trkpt>
      <trkpt lon="7.897311" lat="53.770306">
        <ele>260.925</ele>
        <time>2026-07-06T19:30:07.256Z</time>
      </trkpt>
      <trkpt lon="7.900616" lat="53.770301">
        <ele>261.582</ele>
        <time>2026-07-06T19:30:09.856Z</time>
      </trkpt>
      <trkpt lon="7.904679" lat="53.770079">
        <ele>264.202</ele>
        <time>2026-07-06T19:30:13.112Z</time>
      </trkpt>
      <trkpt lon="7.924783" lat="53.768423">
        <ele>270.549</ele>
        <time>2026-07-06T19:30:29.464Z</time>
      </trkpt>
      <trkpt lon="7.930408" lat="53.767778">
        <ele>258.512</ele>
        <time>2026-07-06T19:30:33.992Z</time>
      </trkpt>
      <trkpt lon="7.931204" lat="53.767753">
        <ele>260.284</ele>
        <time>2026-07-06T19:30:34.624Z</time>
      </trkpt>
      <trkpt lon="7.931976" lat="53.767766">
        <ele>263.201</ele>
        <time>2026-07-06T19:30:35.256Z</time>
      </trkpt>
      <trkpt lon="7.932786" lat="53.767825">
        <ele>267.035</ele>
        <time>2026-07-06T19:30:35.928Z</time>
      </trkpt>
      <trkpt lon="7.933524" lat="53.767922">
        <ele>270.53</ele>
        <time>2026-07-06T19:30:36.552Z</time>
      </trkpt>
      <trkpt lon="7.934273" lat="53.768072">
        <ele>273.47</ele>
        <time>2026-07-06T19:30:37.224Z</time>
      </trkpt>
      <trkpt lon="7.934945" lat="53.768260">
        <ele>275.445</ele>
        <time>2026-07-06T19:30:37.856Z</time>
      </trkpt>
      <trkpt lon="7.935575" lat="53.768486">
        <ele>276.112</ele>
        <time>2026-07-06T19:30:38.496Z</time>
      </trkpt>
      <trkpt lon="7.936717" lat="53.769021">
        <ele>275.146</ele>
        <time>2026-07-06T19:30:39.752Z</time>
      </trkpt>
      <trkpt lon="7.938781" lat="53.770272">
        <ele>264.485</ele>
        <time>2026-07-06T19:30:42.296Z</time>
      </trkpt>
      <trkpt lon="7.942933" lat="53.773035">
        <ele>237.607</ele>
        <time>2026-07-06T19:30:47.464Z</time>
      </trkpt>
      <trkpt lon="7.944278" lat="53.774140">
        <ele>235.813</ele>
        <time>2026-07-06T19:30:49.392Z</time>
      </trkpt>
      <trkpt lon="7.944633" lat="53.774539">
        <ele>238.296</ele>
        <time>2026-07-06T19:30:50.064Z</time>
      </trkpt>
      <trkpt lon="7.944921" lat="53.774947">
        <ele>240.927</ele>
        <time>2026-07-06T19:30:50.728Z</time>
      </trkpt>
      <trkpt lon="7.945312" lat="53.775746">
        <ele>242.836</ele>
        <time>2026-07-06T19:30:52.032Z</time>
      </trkpt>
      <trkpt lon="7.945435" lat="53.776161">
        <ele>241.246</ele>
        <time>2026-07-06T19:30:52.696Z</time>
      </trkpt>
      <trkpt lon="7.945508" lat="53.776960">
        <ele>234.167</ele>
        <time>2026-07-06T19:30:53.992Z</time>
      </trkpt>
      <trkpt lon="7.945406" lat="53.777744">
        <ele>221.083</ele>
        <time>2026-07-06T19:30:55.296Z</time>
      </trkpt>
      <trkpt lon="7.945112" lat="53.778495">
        <ele>206.197</ele>
        <time>2026-07-06T19:30:56.576Z</time>
      </trkpt>
      <trkpt lon="7.944659" lat="53.779206">
        <ele>190.775</ele>
        <time>2026-07-06T19:30:57.840Z</time>
      </trkpt>
      <trkpt lon="7.944020" lat="53.779865">
        <ele>177.712</ele>
        <time>2026-07-06T19:30:59.112Z</time>
      </trkpt>
      <trkpt lon="7.943216" lat="53.780455">
        <ele>165.304</ele>
        <time>2026-07-06T19:31:00.376Z</time>
      </trkpt>
      <trkpt lon="7.942727" lat="53.780727">
        <ele>159.723</ele>
        <time>2026-07-06T19:31:01.048Z</time>
      </trkpt>
      <trkpt lon="7.941659" lat="53.781167">
        <ele>150.164</ele>
        <time>2026-07-06T19:31:02.344Z</time>
      </trkpt>
      <trkpt lon="7.940473" lat="53.781483">
        <ele>140.459</ele>
        <time>2026-07-06T19:31:03.648Z</time>
      </trkpt>
      <trkpt lon="7.938634" lat="53.781774">
        <ele>118.899</ele>
        <time>2026-07-06T19:31:05.576Z</time>
      </trkpt>
      <trkpt lon="7.936727" lat="53.781941">
        <ele>91.8836</ele>
        <time>2026-07-06T19:31:07.520Z</time>
      </trkpt>
      <trkpt lon="7.934137" lat="53.782020">
        <ele>69.0028</ele>
        <time>2026-07-06T19:31:10.096Z</time>
      </trkpt>
      <trkpt lon="7.931531" lat="53.782058">
        <ele>48.0415</ele>
        <time>2026-07-06T19:31:12.648Z</time>
      </trkpt>
      <trkpt lon="7.927756" lat="53.782173">
        <ele>34.4684</ele>
        <time>2026-07-06T19:31:16.496Z</time>
      </trkpt>
      <trkpt lon="7.925446" lat="53.782278">
        <ele>22.3325</ele>
        <time>2026-07-06T19:31:19.096Z</time>
      </trkpt>
      <trkpt lon="7.922835" lat="53.782404">
        <ele>11.3844</ele>
        <time>2026-07-06T19:31:22.360Z</time>
      </trkpt>
      <trkpt lon="7.920494" lat="53.782502">
        <ele>6.77128</ele>
        <time>2026-07-06T19:31:25.592Z</time>
      </trkpt>
      <trkpt lon="7.919234" lat="53.782551">
        <ele>7.81812</ele>
        <time>2026-07-06T19:31:27.552Z</time>
      </trkpt>
      <trkpt lon="7.918569" lat="53.782583">
        <ele>12.2461</ele>
        <time>2026-07-06T19:31:28.856Z</time>
      </trkpt>
      <trkpt lon="7.917735" lat="53.782633">
        <ele>7.41744</ele>
        <time>2026-07-06T19:31:30.856Z</time>
      </trkpt>
      <trkpt lon="7.917080" lat="53.782667">
        <ele>9.31875</ele>
        <time>2026-07-06T19:31:32.832Z</time>
      </trkpt>
      <trkpt lon="7.913946" lat="53.782771">
        <ele>2.55036</ele>
        <time>2026-07-06T19:31:45.096Z</time>
      </trkpt>
      <trkpt lon="7.913478" lat="53.782797">
        <ele>2.02572</ele>
        <time>2026-07-06T19:31:47.696Z</time>
      </trkpt>
      <trkpt lon="7.913396" lat="53.782815">
        <ele>2.05586</ele>
        <time>2026-07-06T19:31:48.328Z</time>
      </trkpt>
      <trkpt lon="7.913326" lat="53.782841">
        <ele>2.0803</ele>
        <time>2026-07-06T19:31:48.992Z</time>
      </trkpt>
      <trkpt lon="7.913274" lat="53.782874">
        <ele>2.09567</ele>
        <time>2026-07-06T19:31:49.664Z</time>
      </trkpt>
      <trkpt lon="7.913241" lat="53.782907">
        <ele>2.10699</ele>
        <time>2026-07-06T19:31:50.296Z</time>
      </trkpt>
      <trkpt lon="7.913222" lat="53.782944">
        <ele>2.11584</ele>
        <time>2026-07-06T19:31:50.944Z</time>
      </trkpt>
      <trkpt lon="7.913213" lat="53.782981">
        <ele>2.12291</ele>
        <time>2026-07-06T19:31:51.592Z</time>
      </trkpt>
      <trkpt lon="7.913208" lat="53.783242">
        <ele>2.18517</ele>
        <time>2026-07-06T19:31:54.800Z</time>
      </trkpt>
      <trkpt lon="7.913188" lat="53.783287">
        <ele>2.23812</ele>
        <time>2026-07-06T19:31:55.432Z</time>
      </trkpt>
      <trkpt lon="7.913154" lat="53.783326">
        <ele>2.29666</ele>
        <time>2026-07-06T19:31:56.064Z</time>
      </trkpt>
      <trkpt lon="7.913105" lat="53.783356">
        <ele>2.3617</ele>
        <time>2026-07-06T19:31:56.728Z</time>
      </trkpt>
      <trkpt lon="7.913043" lat="53.783378">
        <ele>2.44531</ele>
        <time>2026-07-06T19:31:57.400Z</time>
      </trkpt>
      <trkpt lon="7.912876" lat="53.783410">
        <ele>2.60886</ele>
        <time>2026-07-06T19:31:58.728Z</time>
      </trkpt>
      <trkpt lon="7.912672" lat="53.783442">
        <ele>2.79079</ele>
        <time>2026-07-06T19:32:00.016Z</time>
      </trkpt>
      <trkpt lon="7.912075" lat="53.783501">
        <ele>3.08826</ele>
        <time>2026-07-06T19:32:03.856Z</time>
      </trkpt>
      <trkpt lon="7.911991" lat="53.783520">
        <ele>3.13228</ele>
        <time>2026-07-06T19:32:04.528Z</time>
      </trkpt>
      <trkpt lon="7.911918" lat="53.783544">
        <ele>3.15238</ele>
        <time>2026-07-06T19:32:05.152Z</time>
      </trkpt>
      <trkpt lon="7.911849" lat="53.783573">
        <ele>3.1616</ele>
        <time>2026-07-06T19:32:05.800Z</time>
      </trkpt>
      <trkpt lon="7.911784" lat="53.783607">
        <ele>3.15934</ele>
        <time>2026-07-06T19:32:06.432Z</time>
      </trkpt>
      <trkpt lon="7.911724" lat="53.783651">
        <ele>3.16216</ele>
        <time>2026-07-06T19:32:07.096Z</time>
      </trkpt>
      <trkpt lon="7.911675" lat="53.783699">
        <ele>3.1589</ele>
        <time>2026-07-06T19:32:07.728Z</time>
      </trkpt>
      <trkpt lon="7.911504" lat="53.783954">
        <ele>3.13084</ele>
        <time>2026-07-06T19:32:10.328Z</time>
      </trkpt>
      <trkpt lon="7.911184" lat="53.784460">
        <ele>3.06933</ele>
        <time>2026-07-06T19:32:14.296Z</time>
      </trkpt>
      <trkpt lon="7.910919" lat="53.784843">
        <ele>3.14493</ele>
        <time>2026-07-06T19:32:18.192Z</time>
      </trkpt>
      <trkpt lon="7.910473" lat="53.785532">
        <ele>2.98904</ele>
        <time>2026-07-06T19:32:27.896Z</time>
      </trkpt>
      <trkpt lon="7.910458" lat="53.785582">
        <ele>2.92534</ele>
        <time>2026-07-06T19:32:28.528Z</time>
      </trkpt>
      <trkpt lon="7.910459" lat="53.785636">
        <ele>2.87322</ele>
        <time>2026-07-06T19:32:29.192Z</time>
      </trkpt>
      <trkpt lon="7.910479" lat="53.785692">
        <ele>2.92243</ele>
        <time>2026-07-06T19:32:29.864Z</time>
      </trkpt>
      <trkpt lon="7.910515" lat="53.785743">
        <ele>2.99971</ele>
        <time>2026-07-06T19:32:30.496Z</time>
      </trkpt>
      <trkpt lon="7.910866" lat="53.786153">
        <ele>3.0277</ele>
        <time>2026-07-06T19:32:35.000Z</time>
      </trkpt>
      <trkpt lon="7.910891" lat="53.786222">
        <ele>3.00677</ele>
        <time>2026-07-06T19:32:35.664Z</time>
      </trkpt>
      <trkpt lon="7.910892" lat="53.786291">
        <ele>2.96288</ele>
        <time>2026-07-06T19:32:36.328Z</time>
      </trkpt>
      <trkpt lon="7.910873" lat="53.786353">
        <ele>2.93216</ele>
        <time>2026-07-06T19:32:36.944Z</time>
      </trkpt>
      <trkpt lon="7.910806" lat="53.786463">
        <ele>2.8738</ele>
        <time>2026-07-06T19:32:38.224Z</time>
      </trkpt>
      <trkpt lon="7.910613" lat="53.786709">
        <ele>2.66693</ele>
        <time>2026-07-06T19:32:42.152Z</time>
      </trkpt>
      <trkpt lon="7.910608" lat="53.786735">
        <ele>2.66119</ele>
        <time>2026-07-06T19:32:42.832Z</time>
      </trkpt>
      <trkpt lon="7.910611" lat="53.786758">
        <ele>2.63185</ele>
        <time>2026-07-06T19:32:43.464Z</time>
      </trkpt>
      <trkpt lon="7.910620" lat="53.786780">
        <ele>2.6241</ele>
        <time>2026-07-06T19:32:44.096Z</time>
      </trkpt>
      <trkpt lon="7.910637" lat="53.786802">
        <ele>2.59189</ele>
        <time>2026-07-06T19:32:44.728Z</time>
      </trkpt>
      <trkpt lon="7.910664" lat="53.786824">
        <ele>2.58872</ele>
        <time>2026-07-06T19:32:45.352Z</time>
      </trkpt>
      <trkpt lon="7.910700" lat="53.786843">
        <ele>2.57113</ele>
        <time>2026-07-06T19:32:46.032Z</time>
      </trkpt>
      <trkpt lon="7.910735" lat="53.786856">
        <ele>2.57236</ele>
        <time>2026-07-06T19:32:46.664Z</time>
      </trkpt>
      <trkpt lon="7.910763" lat="53.786864">
        <ele>2.57125</ele>
        <time>2026-07-06T19:32:57.096Z</time>
      </trkpt>
    </trkseg>
    <trkseg>
      <trkpt lon="-122.294505" lat="47.518932">
        <ele>37.8553</ele>
        <time>2026-07-09T16:29:11.784Z</time>
      </trkpt>
    </trkseg>
    <trkseg>
      <trkpt lon="7.824074" lat="53.706853">
        <ele>1.1878</ele>
        <time>2026-07-09T16:29:32.560Z</time>
      </trkpt>
      <trkpt lon="7.824240" lat="53.706856">
        <ele>0.919454</ele>
        <time>2026-07-09T16:30:44.468Z</time>
      </trkpt>
      <trkpt lon="7.824138" lat="53.706850">
        <ele>1.01129</ele>
        <time>2026-07-09T16:35:05.924Z</time>
      </trkpt>
      <trkpt lon="7.823833" lat="53.706833">
        <ele>1.31496</ele>
        <time>2026-07-09T16:35:07.860Z</time>
      </trkpt>
      <trkpt lon="7.823335" lat="53.706801">
        <ele>1.72565</ele>
        <time>2026-07-09T16:35:09.824Z</time>
      </trkpt>
      <trkpt lon="7.822680" lat="53.706765">
        <ele>2.02478</ele>
        <time>2026-07-09T16:35:11.756Z</time>
      </trkpt>
      <trkpt lon="7.821589" lat="53.706712">
        <ele>2.07894</ele>
        <time>2026-07-09T16:35:14.324Z</time>
      </trkpt>
      <trkpt lon="7.820218" lat="53.706655">
        <ele>1.96037</ele>
        <time>2026-07-09T16:35:16.964Z</time>
      </trkpt>
      <trkpt lon="7.817832" lat="53.706530">
        <ele>1.98454</ele>
        <time>2026-07-09T16:35:20.992Z</time>
      </trkpt>
      <trkpt lon="7.813191" lat="53.706156">
        <ele>19.6635</ele>
        <time>2026-07-09T16:35:28.100Z</time>
      </trkpt>
      <trkpt lon="7.810207" lat="53.705969">
        <ele>37.8429</ele>
        <time>2026-07-09T16:35:32.568Z</time>
      </trkpt>
      <trkpt lon="7.808065" lat="53.705897">
        <ele>55.7043</ele>
        <time>2026-07-09T16:35:35.756Z</time>
      </trkpt>
      <trkpt lon="7.805892" lat="53.705855">
        <ele>74.363</ele>
        <time>2026-07-09T16:35:38.960Z</time>
      </trkpt>
      <trkpt lon="7.803292" lat="53.705849">
        <ele>96.9435</ele>
        <time>2026-07-09T16:35:42.772Z</time>
      </trkpt>
      <trkpt lon="7.800633" lat="53.705882">
        <ele>120.415</ele>
        <time>2026-07-09T16:35:46.584Z</time>
      </trkpt>
      <trkpt lon="7.798374" lat="53.705925">
        <ele>142.545</ele>
        <time>2026-07-09T16:35:49.764Z</time>
      </trkpt>
      <trkpt lon="7.796111" lat="53.705995">
        <ele>167.918</ele>
        <time>2026-07-09T16:35:52.968Z</time>
      </trkpt>
      <trkpt lon="7.793189" lat="53.706088">
        <ele>181.629</ele>
        <time>2026-07-09T16:35:56.812Z</time>
      </trkpt>
      <trkpt lon="7.790490" lat="53.706156">
        <ele>178.21</ele>
        <time>2026-07-09T16:36:00.016Z</time>
      </trkpt>
      <trkpt lon="7.787396" lat="53.706259">
        <ele>165.826</ele>
        <time>2026-07-09T16:36:03.280Z</time>
      </trkpt>
      <trkpt lon="7.784074" lat="53.706395">
        <ele>155.262</ele>
        <time>2026-07-09T16:36:06.484Z</time>
      </trkpt>
      <trkpt lon="7.775306" lat="53.706900">
        <ele>183.325</ele>
        <time>2026-07-09T16:36:14.348Z</time>
      </trkpt>
      <trkpt lon="7.772411" lat="53.707157">
        <ele>208.322</ele>
        <time>2026-07-09T16:36:16.980Z</time>
      </trkpt>
      <trkpt lon="7.769584" lat="53.707471">
        <ele>238.589</ele>
        <time>2026-07-09T16:36:19.616Z</time>
      </trkpt>
      <trkpt lon="7.767606" lat="53.707858">
        <ele>259.494</ele>
        <time>2026-07-09T16:36:21.552Z</time>
      </trkpt>
      <trkpt lon="7.765730" lat="53.708395">
        <ele>276.891</ele>
        <time>2026-07-09T16:36:23.480Z</time>
      </trkpt>
      <trkpt lon="7.763997" lat="53.709068">
        <ele>290.697</ele>
        <time>2026-07-09T16:36:25.416Z</time>
      </trkpt>
      <trkpt lon="7.762376" lat="53.709889">
        <ele>301.575</ele>
        <time>2026-07-09T16:36:27.384Z</time>
      </trkpt>
      <trkpt lon="7.760939" lat="53.710830">
        <ele>310.009</ele>
        <time>2026-07-09T16:36:29.276Z</time>
      </trkpt>
      <trkpt lon="7.759721" lat="53.711855">
        <ele>317.624</ele>
        <time>2026-07-09T16:36:31.176Z</time>
      </trkpt>
      <trkpt lon="7.758676" lat="53.712984">
        <ele>325.36</ele>
        <time>2026-07-09T16:36:33.116Z</time>
      </trkpt>
      <trkpt lon="7.757841" lat="53.714164">
        <ele>334.269</ele>
        <time>2026-07-09T16:36:35.020Z</time>
      </trkpt>
      <trkpt lon="7.757224" lat="53.715396">
        <ele>345.519</ele>
        <time>2026-07-09T16:36:36.936Z</time>
      </trkpt>
      <trkpt lon="7.756748" lat="53.717073">
        <ele>364.152</ele>
        <time>2026-07-09T16:36:39.456Z</time>
      </trkpt>
      <trkpt lon="7.756634" lat="53.718776">
        <ele>388.053</ele>
        <time>2026-07-09T16:36:42.056Z</time>
      </trkpt>
      <trkpt lon="7.756863" lat="53.720475">
        <ele>416.522</ele>
        <time>2026-07-09T16:36:44.620Z</time>
      </trkpt>
      <trkpt lon="7.757265" lat="53.721694">
        <ele>438.819</ele>
        <time>2026-07-09T16:36:46.524Z</time>
      </trkpt>
      <trkpt lon="7.757878" lat="53.722887">
        <ele>461.19</ele>
        <time>2026-07-09T16:36:48.456Z</time>
      </trkpt>
      <trkpt lon="7.758673" lat="53.724010">
        <ele>481.883</ele>
        <time>2026-07-09T16:36:50.356Z</time>
      </trkpt>
      <trkpt lon="7.759691" lat="53.725104">
        <ele>501.091</ele>
        <time>2026-07-09T16:36:52.324Z</time>
      </trkpt>
      <trkpt lon="7.761303" lat="53.726458">
        <ele>523.412</ele>
        <time>2026-07-09T16:36:54.920Z</time>
      </trkpt>
      <trkpt lon="7.766388" lat="53.729991">
        <ele>560.958</ele>
        <time>2026-07-09T16:37:01.988Z</time>
      </trkpt>
      <trkpt lon="7.768951" lat="53.731756">
        <ele>538.065</ele>
        <time>2026-07-09T16:37:05.252Z</time>
      </trkpt>
      <trkpt lon="7.771777" lat="53.733550">
        <ele>503.54</ele>
        <time>2026-07-09T16:37:08.456Z</time>
      </trkpt>
      <trkpt lon="7.775706" lat="53.735761">
        <ele>473.219</ele>
        <time>2026-07-09T16:37:12.392Z</time>
      </trkpt>
      <trkpt lon="7.781618" lat="53.738597">
        <ele>445.18</ele>
        <time>2026-07-09T16:37:17.588Z</time>
      </trkpt>
      <trkpt lon="7.794910" lat="53.743953">
        <ele>444.634</ele>
        <time>2026-07-09T16:37:27.956Z</time>
      </trkpt>
      <trkpt lon="7.804612" lat="53.747643">
        <ele>408.999</ele>
        <time>2026-07-09T16:37:35.056Z</time>
      </trkpt>
      <trkpt lon="7.829618" lat="53.757131">
        <ele>376.197</ele>
        <time>2026-07-09T16:37:52.388Z</time>
      </trkpt>
      <trkpt lon="7.839078" lat="53.760827">
        <ele>344.62</ele>
        <time>2026-07-09T16:37:58.856Z</time>
      </trkpt>
      <trkpt lon="7.846021" lat="53.763362">
        <ele>312.419</ele>
        <time>2026-07-09T16:38:03.420Z</time>
      </trkpt>
      <trkpt lon="7.852275" lat="53.765293">
        <ele>282.587</ele>
        <time>2026-07-09T16:38:07.288Z</time>
      </trkpt>
      <trkpt lon="7.860080" lat="53.767167">
        <ele>275.648</ele>
        <time>2026-07-09T16:38:11.820Z</time>
      </trkpt>
      <trkpt lon="7.864585" lat="53.768025">
        <ele>287.05</ele>
        <time>2026-07-09T16:38:14.420Z</time>
      </trkpt>
      <trkpt lon="7.868825" lat="53.768706">
        <ele>300.042</ele>
        <time>2026-07-09T16:38:16.956Z</time>
      </trkpt>
      <trkpt lon="7.872957" lat="53.769264">
        <ele>310.003</ele>
        <time>2026-07-09T16:38:19.524Z</time>
      </trkpt>
      <trkpt lon="7.876910" lat="53.769701">
        <ele>315.916</ele>
        <time>2026-07-09T16:38:22.088Z</time>
      </trkpt>
      <trkpt lon="7.881603" lat="53.770119">
        <ele>318.379</ele>
        <time>2026-07-09T16:38:25.288Z</time>
      </trkpt>
      <trkpt lon="7.894706" lat="53.770904">
        <ele>292.14</ele>
        <time>2026-07-09T16:38:34.320Z</time>
      </trkpt>
      <trkpt lon="7.902703" lat="53.771013">
        <ele>277.873</ele>
        <time>2026-07-09T16:38:39.488Z</time>
      </trkpt>
      <trkpt lon="7.909573" lat="53.770781">
        <ele>270.328</ele>
        <time>2026-07-09T16:38:43.988Z</time>
      </trkpt>
      <trkpt lon="7.917089" lat="53.770230">
        <ele>255.413</ele>
        <time>2026-07-09T16:38:49.224Z</time>
      </trkpt>
      <trkpt lon="7.926633" lat="53.769334">
        <ele>255.808</ele>
        <time>2026-07-09T16:38:56.320Z</time>
      </trkpt>
      <trkpt lon="7.929953" lat="53.769058">
        <ele>271.231</ele>
        <time>2026-07-09T16:38:58.952Z</time>
      </trkpt>
      <trkpt lon="7.933913" lat="53.768917">
        <ele>287.383</ele>
        <time>2026-07-09T16:39:02.288Z</time>
      </trkpt>
      <trkpt lon="7.936855" lat="53.769046">
        <ele>293.141</ele>
        <time>2026-07-09T16:39:04.920Z</time>
      </trkpt>
      <trkpt lon="7.938165" lat="53.769190">
        <ele>295.581</ele>
        <time>2026-07-09T16:39:06.188Z</time>
      </trkpt>
      <trkpt lon="7.939999" lat="53.769501">
        <ele>298.885</ele>
        <time>2026-07-09T16:39:08.120Z</time>
      </trkpt>
      <trkpt lon="7.941651" lat="53.769891">
        <ele>298.974</ele>
        <time>2026-07-09T16:39:10.056Z</time>
      </trkpt>
      <trkpt lon="7.942716" lat="53.770201">
        <ele>295.492</ele>
        <time>2026-07-09T16:39:11.392Z</time>
      </trkpt>
      <trkpt lon="7.944145" lat="53.770707">
        <ele>289.838</ele>
        <time>2026-07-09T16:39:13.288Z</time>
      </trkpt>
      <trkpt lon="7.945026" lat="53.771084">
        <ele>286.078</ele>
        <time>2026-07-09T16:39:14.556Z</time>
      </trkpt>
      <trkpt lon="7.945843" lat="53.771498">
        <ele>280.438</ele>
        <time>2026-07-09T16:39:15.824Z</time>
      </trkpt>
      <trkpt lon="7.947321" lat="53.772421">
        <ele>267.782</ele>
        <time>2026-07-09T16:39:18.392Z</time>
      </trkpt>
      <trkpt lon="7.948269" lat="53.773151">
        <ele>256.96</ele>
        <time>2026-07-09T16:39:20.288Z</time>
      </trkpt>
      <trkpt lon="7.949575" lat="53.774421">
        <ele>242.928</ele>
        <time>2026-07-09T16:39:23.488Z</time>
      </trkpt>
      <trkpt lon="7.950833" lat="53.775981">
        <ele>218.769</ele>
        <time>2026-07-09T16:39:27.356Z</time>
      </trkpt>
      <trkpt lon="7.951138" lat="53.776520">
        <ele>210.602</ele>
        <time>2026-07-09T16:39:28.656Z</time>
      </trkpt>
      <trkpt lon="7.951354" lat="53.777068">
        <ele>202.356</ele>
        <time>2026-07-09T16:39:29.956Z</time>
      </trkpt>
      <trkpt lon="7.951468" lat="53.777608">
        <ele>194.156</ele>
        <time>2026-07-09T16:39:31.224Z</time>
      </trkpt>
      <trkpt lon="7.951493" lat="53.778145">
        <ele>185.272</ele>
        <time>2026-07-09T16:39:32.488Z</time>
      </trkpt>
      <trkpt lon="7.951420" lat="53.778685">
        <ele>175.485</ele>
        <time>2026-07-09T16:39:33.788Z</time>
      </trkpt>
      <trkpt lon="7.951239" lat="53.779210">
        <ele>165.625</ele>
        <time>2026-07-09T16:39:35.088Z</time>
      </trkpt>
      <trkpt lon="7.950948" lat="53.779698">
        <ele>156.837</ele>
        <time>2026-07-09T16:39:36.356Z</time>
      </trkpt>
      <trkpt lon="7.950531" lat="53.780162">
        <ele>148.613</ele>
        <time>2026-07-09T16:39:37.656Z</time>
      </trkpt>
      <trkpt lon="7.950004" lat="53.780575">
        <ele>140.892</ele>
        <time>2026-07-09T16:39:38.956Z</time>
      </trkpt>
      <trkpt lon="7.949377" lat="53.780931">
        <ele>133.093</ele>
        <time>2026-07-09T16:39:40.256Z</time>
      </trkpt>
      <trkpt lon="7.948684" lat="53.781212">
        <ele>125.146</ele>
        <time>2026-07-09T16:39:41.524Z</time>
      </trkpt>
      <trkpt lon="7.947907" lat="53.781427">
        <ele>116.815</ele>
        <time>2026-07-09T16:39:42.824Z</time>
      </trkpt>
      <trkpt lon="7.947101" lat="53.781573">
        <ele>109.031</ele>
        <time>2026-07-09T16:39:44.088Z</time>
      </trkpt>
      <trkpt lon="7.945839" lat="53.781690">
        <ele>97.998</ele>
        <time>2026-07-09T16:39:45.988Z</time>
      </trkpt>
      <trkpt lon="7.944108" lat="53.781711">
        <ele>82.8073</ele>
        <time>2026-07-09T16:39:48.524Z</time>
      </trkpt>
      <trkpt lon="7.940540" lat="53.781610">
        <ele>65.1305</ele>
        <time>2026-07-09T16:39:53.696Z</time>
      </trkpt>
      <trkpt lon="7.936540" lat="53.781604">
        <ele>55.4866</ele>
        <time>2026-07-09T16:40:00.028Z</time>
      </trkpt>
      <trkpt lon="7.933017" lat="53.781799">
        <ele>37.1215</ele>
        <time>2026-07-09T16:40:05.928Z</time>
      </trkpt>
      <trkpt lon="7.928480" lat="53.782113">
        <ele>20.968</ele>
        <time>2026-07-09T16:40:13.664Z</time>
      </trkpt>
      <trkpt lon="7.925263" lat="53.782282">
        <ele>5.4131</ele>
        <time>2026-07-09T16:40:19.428Z</time>
      </trkpt>
      <trkpt lon="7.922676" lat="53.782370">
        <ele>0.18794</ele>
        <time>2026-07-09T16:40:24.696Z</time>
      </trkpt>
      <trkpt lon="7.921862" lat="53.782433">
        <ele>-0.368717</ele>
        <time>2026-07-09T16:40:26.696Z</time>
      </trkpt>
      <trkpt lon="7.918944" lat="53.782587">
        <ele>-0.33087</ele>
        <time>2026-07-09T16:40:36.460Z</time>
      </trkpt>
      <trkpt lon="7.917834" lat="53.782592">
        <ele>-0.484116</ele>
        <time>2026-07-09T16:40:40.928Z</time>
      </trkpt>
      <trkpt lon="7.917547" lat="53.782615">
        <ele>-0.488054</ele>
        <time>2026-07-09T16:40:42.828Z</time>
      </trkpt>
      <trkpt lon="7.917485" lat="53.782622">
        <ele>-0.475622</ele>
        <time>2026-07-09T16:40:43.460Z</time>
      </trkpt>
      <trkpt lon="7.917436" lat="53.782631">
        <ele>-0.46521</ele>
        <time>2026-07-09T16:40:44.092Z</time>
      </trkpt>
      <trkpt lon="7.917377" lat="53.782647">
        <ele>-0.446225</ele>
        <time>2026-07-09T16:40:45.364Z</time>
      </trkpt>
      <trkpt lon="7.917356" lat="53.782655">
        <ele>-0.435518</ele>
        <time>2026-07-09T16:40:46.028Z</time>
      </trkpt>
      <trkpt lon="7.917341" lat="53.782662">
        <ele>-0.428185</ele>
        <time>2026-07-09T16:40:46.660Z</time>
      </trkpt>
      <trkpt lon="7.917323" lat="53.782674">
        <ele>-0.415662</ele>
        <time>2026-07-09T16:40:47.296Z</time>
      </trkpt>
      <trkpt lon="7.917305" lat="53.782688">
        <ele>-0.398709</ele>
        <time>2026-07-09T16:40:47.928Z</time>
      </trkpt>
      <trkpt lon="7.917292" lat="53.782705">
        <ele>-0.385891</ele>
        <time>2026-07-09T16:40:48.596Z</time>
      </trkpt>
      <trkpt lon="7.917283" lat="53.782727">
        <ele>-0.362179</ele>
        <time>2026-07-09T16:40:49.232Z</time>
      </trkpt>
      <trkpt lon="7.917281" lat="53.782755">
        <ele>-0.374039</ele>
        <time>2026-07-09T16:40:49.864Z</time>
      </trkpt>
      <trkpt lon="7.917287" lat="53.782792">
        <ele>-0.322315</ele>
        <time>2026-07-09T16:40:50.528Z</time>
      </trkpt>
      <trkpt lon="7.917304" lat="53.782833">
        <ele>-0.272356</ele>
        <time>2026-07-09T16:40:51.196Z</time>
      </trkpt>
      <trkpt lon="7.917435" lat="53.783071">
        <ele>0.134261</ele>
        <time>2026-07-09T16:40:56.296Z</time>
      </trkpt>
      <trkpt lon="7.917462" lat="53.783102">
        <ele>0.22326</ele>
        <time>2026-07-09T16:40:57.592Z</time>
      </trkpt>
      <trkpt lon="7.917476" lat="53.783115">
        <ele>0.255305</ele>
        <time>2026-07-09T16:40:58.864Z</time>
      </trkpt>
      <trkpt lon="7.917531" lat="53.783156">
        <ele>0.335781</ele>
        <time>2026-07-09T16:41:02.696Z</time>
      </trkpt>
      <trkpt lon="7.917580" lat="53.783180">
        <ele>0.37231</ele>
        <time>2026-07-09T16:41:05.228Z</time>
      </trkpt>
      <trkpt lon="7.917605" lat="53.783190">
        <ele>0.382235</ele>
        <time>2026-07-09T16:41:05.864Z</time>
      </trkpt>
      <trkpt lon="7.917639" lat="53.783199">
        <ele>0.387673</ele>
        <time>2026-07-09T16:41:06.528Z</time>
      </trkpt>
      <trkpt lon="7.917680" lat="53.783208">
        <ele>0.389695</ele>
        <time>2026-07-09T16:41:07.196Z</time>
      </trkpt>
      <trkpt lon="7.917726" lat="53.783214">
        <ele>0.3871</ele>
        <time>2026-07-09T16:41:07.828Z</time>
      </trkpt>
      <trkpt lon="7.917842" lat="53.783223">
        <ele>0.361388</ele>
        <time>2026-07-09T16:41:09.128Z</time>
      </trkpt>
      <trkpt lon="7.917967" lat="53.783228">
        <ele>0.29419</ele>
        <time>2026-07-09T16:41:10.460Z</time>
      </trkpt>
      <trkpt lon="7.918151" lat="53.783221">
        <ele>0.170562</ele>
        <time>2026-07-09T16:41:13.740Z</time>
      </trkpt>
      <trkpt lon="7.918228" lat="53.783219">
        <ele>0.138839</ele>
        <time>2026-07-09T16:42:01.136Z</time>
      </trkpt>
      <trkpt lon="7.918611" lat="53.783201">
        <ele>-0.0373707</ele>
        <time>2026-07-09T16:42:03.704Z</time>
      </trkpt>
      <trkpt lon="7.919634" lat="53.783159">
        <ele>-0.105686</ele>
        <time>2026-07-09T16:42:08.236Z</time>
      </trkpt>
      <trkpt lon="7.922450" lat="53.783035">
        <ele>0.902123</ele>
        <time>2026-07-09T16:42:18.572Z</time>
      </trkpt>
      <trkpt lon="7.925221" lat="53.782910">
        <ele>1.81085</ele>
        <time>2026-07-09T16:42:28.300Z</time>
      </trkpt>
      <trkpt lon="7.925757" lat="53.782870">
        <ele>2.05559</ele>
        <time>2026-07-09T16:42:32.136Z</time>
      </trkpt>
      <trkpt lon="7.925851" lat="53.782855">
        <ele>2.07582</ele>
        <time>2026-07-09T16:42:33.404Z</time>
      </trkpt>
      <trkpt lon="7.925962" lat="53.782828">
        <ele>2.10172</ele>
        <time>2026-07-09T16:42:36.000Z</time>
      </trkpt>
      <trkpt lon="7.925982" lat="53.782823">
        <ele>2.10488</ele>
        <time>2026-07-09T16:42:37.336Z</time>
      </trkpt>
      <trkpt lon="7.926036" lat="53.782803">
        <ele>2.0982</ele>
        <time>2026-07-09T16:42:41.904Z</time>
      </trkpt>
      <trkpt lon="7.926064" lat="53.782789">
        <ele>2.08257</ele>
        <time>2026-07-09T16:42:44.536Z</time>
      </trkpt>
      <trkpt lon="7.926078" lat="53.782781">
        <ele>2.07635</ele>
        <time>2026-07-09T16:42:45.168Z</time>
      </trkpt>
      <trkpt lon="7.926090" lat="53.782773">
        <ele>2.06999</ele>
        <time>2026-07-09T16:42:45.800Z</time>
      </trkpt>
      <trkpt lon="7.926101" lat="53.782763">
        <ele>2.05583</ele>
        <time>2026-07-09T16:42:46.432Z</time>
      </trkpt>
      <trkpt lon="7.926115" lat="53.782747">
        <ele>2.03002</ele>
        <time>2026-07-09T16:42:47.100Z</time>
      </trkpt>
      <trkpt lon="7.926128" lat="53.782726">
        <ele>1.99463</ele>
        <time>2026-07-09T16:42:47.768Z</time>
      </trkpt>
      <trkpt lon="7.926136" lat="53.782703">
        <ele>1.97133</ele>
        <time>2026-07-09T16:42:48.432Z</time>
      </trkpt>
      <trkpt lon="7.926138" lat="53.782679">
        <ele>1.93381</ele>
        <time>2026-07-09T16:42:49.072Z</time>
      </trkpt>
      <trkpt lon="7.926123" lat="53.782610">
        <ele>1.85118</ele>
        <time>2026-07-09T16:42:50.368Z</time>
      </trkpt>
      <trkpt lon="7.926091" lat="53.782536">
        <ele>1.80049</ele>
        <time>2026-07-09T16:42:51.668Z</time>
      </trkpt>
      <trkpt lon="7.926053" lat="53.782484">
        <ele>1.77723</ele>
        <time>2026-07-09T16:42:52.932Z</time>
      </trkpt>
      <trkpt lon="7.925993" lat="53.782428">
        <ele>1.73526</ele>
        <time>2026-07-09T16:42:54.940Z</time>
      </trkpt>
      <trkpt lon="7.925968" lat="53.782409">
        <ele>1.72165</ele>
        <time>2026-07-09T16:42:55.580Z</time>
      </trkpt>
      <trkpt lon="7.925940" lat="53.782392">
        <ele>1.71361</ele>
        <time>2026-07-09T16:42:56.244Z</time>
      </trkpt>
      <trkpt lon="7.925911" lat="53.782378">
        <ele>1.7102</ele>
        <time>2026-07-09T16:42:56.876Z</time>
      </trkpt>
      <trkpt lon="7.925876" lat="53.782365">
        <ele>1.70871</ele>
        <time>2026-07-09T16:42:57.544Z</time>
      </trkpt>
      <trkpt lon="7.925757" lat="53.782335">
        <ele>1.71603</ele>
        <time>2026-07-09T16:42:58.876Z</time>
      </trkpt>
      <trkpt lon="7.925670" lat="53.782319">
        <ele>1.72903</ele>
        <time>2026-07-09T16:42:59.544Z</time>
      </trkpt>
      <trkpt lon="7.925572" lat="53.782309">
        <ele>1.74534</ele>
        <time>2026-07-09T16:43:00.176Z</time>
      </trkpt>
      <trkpt lon="7.925119" lat="53.782306">
        <ele>1.84134</ele>
        <time>2026-07-09T16:43:02.144Z</time>
      </trkpt>
      <trkpt lon="7.924494" lat="53.782324">
        <ele>1.74189</ele>
        <time>2026-07-09T16:43:04.044Z</time>
      </trkpt>
      <trkpt lon="7.923679" lat="53.782358">
        <ele>1.19666</ele>
        <time>2026-07-09T16:43:06.008Z</time>
      </trkpt>
      <trkpt lon="7.922396" lat="53.782408">
        <ele>-0.0769176</ele>
        <time>2026-07-09T16:43:08.576Z</time>
      </trkpt>
      <trkpt lon="7.920501" lat="53.782475">
        <ele>-0.355331</ele>
        <time>2026-07-09T16:43:11.808Z</time>
      </trkpt>
      <trkpt lon="7.917032" lat="53.782598">
        <ele>-0.29895</ele>
        <time>2026-07-09T16:43:17.008Z</time>
      </trkpt>
      <trkpt lon="7.916137" lat="53.782614">
        <ele>1.8758</ele>
        <time>2026-07-09T16:43:18.276Z</time>
      </trkpt>
      <trkpt lon="7.911176" lat="53.782888">
        <ele>18.5874</ele>
        <time>2026-07-09T16:43:25.308Z</time>
      </trkpt>
      <trkpt lon="7.908502" lat="53.783135">
        <ele>36.2913</ele>
        <time>2026-07-09T16:43:29.212Z</time>
      </trkpt>
      <trkpt lon="7.905910" lat="53.783322">
        <ele>55.8006</ele>
        <time>2026-07-09T16:43:33.076Z</time>
      </trkpt>
      <trkpt lon="7.903238" lat="53.783374">
        <ele>72.1564</ele>
        <time>2026-07-09T16:43:36.948Z</time>
      </trkpt>
      <trkpt lon="7.900501" lat="53.783284">
        <ele>85.8676</ele>
        <time>2026-07-09T16:43:40.816Z</time>
      </trkpt>
      <trkpt lon="7.899588" lat="53.783159">
        <ele>88.9759</ele>
        <time>2026-07-09T16:43:42.116Z</time>
      </trkpt>
      <trkpt lon="7.898693" lat="53.782956">
        <ele>92.1045</ele>
        <time>2026-07-09T16:43:43.416Z</time>
      </trkpt>
      <trkpt lon="7.897846" lat="53.782669">
        <ele>94.5177</ele>
        <time>2026-07-09T16:43:44.716Z</time>
      </trkpt>
      <trkpt lon="7.897060" lat="53.782302">
        <ele>97.1576</ele>
        <time>2026-07-09T16:43:46.016Z</time>
      </trkpt>
      <trkpt lon="7.896353" lat="53.781858">
        <ele>98.8447</ele>
        <time>2026-07-09T16:43:47.316Z</time>
      </trkpt>
      <trkpt lon="7.895741" lat="53.781344">
        <ele>98.3428</ele>
        <time>2026-07-09T16:43:48.616Z</time>
      </trkpt>
      <trkpt lon="7.895230" lat="53.780761">
        <ele>96.9506</ele>
        <time>2026-07-09T16:43:49.916Z</time>
      </trkpt>
      <trkpt lon="7.894830" lat="53.780097">
        <ele>95.6325</ele>
        <time>2026-07-09T16:43:51.248Z</time>
      </trkpt>
      <trkpt lon="7.894591" lat="53.779416">
        <ele>95.5961</ele>
        <time>2026-07-09T16:43:52.516Z</time>
      </trkpt>
      <trkpt lon="7.894502" lat="53.778697">
        <ele>98.7094</ele>
        <time>2026-07-09T16:43:53.780Z</time>
      </trkpt>
      <trkpt lon="7.894630" lat="53.777193">
        <ele>118.048</ele>
        <time>2026-07-09T16:43:56.348Z</time>
      </trkpt>
      <trkpt lon="7.894821" lat="53.776416">
        <ele>132.565</ele>
        <time>2026-07-09T16:43:57.684Z</time>
      </trkpt>
      <trkpt lon="7.895155" lat="53.775651">
        <ele>143.965</ele>
        <time>2026-07-09T16:43:59.016Z</time>
      </trkpt>
      <trkpt lon="7.895640" lat="53.774928">
        <ele>153.828</ele>
        <time>2026-07-09T16:44:00.316Z</time>
      </trkpt>
      <trkpt lon="7.896248" lat="53.774251">
        <ele>161.614</ele>
        <time>2026-07-09T16:44:01.584Z</time>
      </trkpt>
      <trkpt lon="7.897036" lat="53.773586">
        <ele>168.586</ele>
        <time>2026-07-09T16:44:02.916Z</time>
      </trkpt>
      <trkpt lon="7.897925" lat="53.772980">
        <ele>175.257</ele>
        <time>2026-07-09T16:44:04.216Z</time>
      </trkpt>
      <trkpt lon="7.898897" lat="53.772435">
        <ele>181.954</ele>
        <time>2026-07-09T16:44:05.484Z</time>
      </trkpt>
      <trkpt lon="7.899995" lat="53.771934">
        <ele>189.281</ele>
        <time>2026-07-09T16:44:06.780Z</time>
      </trkpt>
      <trkpt lon="7.901209" lat="53.771478">
        <ele>198.074</ele>
        <time>2026-07-09T16:44:08.116Z</time>
      </trkpt>
      <trkpt lon="7.902426" lat="53.771110">
        <ele>207.38</ele>
        <time>2026-07-09T16:44:09.384Z</time>
      </trkpt>
      <trkpt lon="7.904385" lat="53.770669">
        <ele>224.553</ele>
        <time>2026-07-09T16:44:11.316Z</time>
      </trkpt>
      <trkpt lon="7.905743" lat="53.770455">
        <ele>238.344</ele>
        <time>2026-07-09T16:44:12.616Z</time>
      </trkpt>
      <trkpt lon="7.907084" lat="53.770313">
        <ele>253.222</ele>
        <time>2026-07-09T16:44:13.884Z</time>
      </trkpt>
      <trkpt lon="7.908461" lat="53.770238">
        <ele>269.677</ele>
        <time>2026-07-09T16:44:15.184Z</time>
      </trkpt>
      <trkpt lon="7.909826" lat="53.770237">
        <ele>287.097</ele>
        <time>2026-07-09T16:44:16.484Z</time>
      </trkpt>
      <trkpt lon="7.911197" lat="53.770313">
        <ele>305.059</ele>
        <time>2026-07-09T16:44:17.816Z</time>
      </trkpt>
      <trkpt lon="7.912467" lat="53.770454">
        <ele>322.314</ele>
        <time>2026-07-09T16:44:19.084Z</time>
      </trkpt>
      <trkpt lon="7.913730" lat="53.770668">
        <ele>339.934</ele>
        <time>2026-07-09T16:44:20.384Z</time>
      </trkpt>
      <trkpt lon="7.914898" lat="53.770945">
        <ele>356.361</ele>
        <time>2026-07-09T16:44:21.648Z</time>
      </trkpt>
      <trkpt lon="7.916028" lat="53.771297">
        <ele>372.292</ele>
        <time>2026-07-09T16:44:22.948Z</time>
      </trkpt>
      <trkpt lon="7.917114" lat="53.771724">
        <ele>387.216</ele>
        <time>2026-07-09T16:44:24.280Z</time>
      </trkpt>
      <trkpt lon="7.918565" lat="53.772443">
        <ele>407.72</ele>
        <time>2026-07-09T16:44:26.248Z</time>
      </trkpt>
      <trkpt lon="7.919402" lat="53.772951">
        <ele>420.991</ele>
        <time>2026-07-09T16:44:27.516Z</time>
      </trkpt>
      <trkpt lon="7.920531" lat="53.773792">
        <ele>440.982</ele>
        <time>2026-07-09T16:44:29.448Z</time>
      </trkpt>
      <trkpt lon="7.921482" lat="53.774699">
        <ele>461.336</ele>
        <time>2026-07-09T16:44:31.416Z</time>
      </trkpt>
      <trkpt lon="7.922481" lat="53.775946">
        <ele>489.348</ele>
        <time>2026-07-09T16:44:34.016Z</time>
      </trkpt>
      <trkpt lon="7.923487" lat="53.777430">
        <ele>532.544</ele>
        <time>2026-07-09T16:44:37.216Z</time>
      </trkpt>
      <trkpt lon="7.924160" lat="53.778465">
        <ele>581.804</ele>
        <time>2026-07-09T16:44:39.780Z</time>
      </trkpt>
      <trkpt lon="7.924765" lat="53.779395">
        <ele>625.485</ele>
        <time>2026-07-09T16:44:42.316Z</time>
      </trkpt>
      <trkpt lon="7.925637" lat="53.780761">
        <ele>671.677</ele>
        <time>2026-07-09T16:44:46.216Z</time>
      </trkpt>
      <trkpt lon="7.926705" lat="53.782725">
        <ele>690.465</ele>
        <time>2026-07-09T16:44:51.416Z</time>
      </trkpt>
      <trkpt lon="7.927345" lat="53.784138">
        <ele>687.979</ele>
        <time>2026-07-09T16:44:54.588Z</time>
      </trkpt>
      <trkpt lon="7.928187" lat="53.786330">
        <ele>688.324</ele>
        <time>2026-07-09T16:44:59.036Z</time>
      </trkpt>
      <trkpt lon="7.929831" lat="53.791050">
        <ele>738.375</ele>
        <time>2026-07-09T16:45:07.944Z</time>
      </trkpt>
      <trkpt lon="7.930442" lat="53.793234">
        <ele>732.844</ele>
        <time>2026-07-09T16:45:11.736Z</time>
      </trkpt>
      <trkpt lon="7.930922" lat="53.795253">
        <ele>712.09</ele>
        <time>2026-07-09T16:45:14.920Z</time>
      </trkpt>
      <trkpt lon="7.931468" lat="53.797887">
        <ele>695.751</ele>
        <time>2026-07-09T16:45:18.740Z</time>
      </trkpt>
      <trkpt lon="7.933608" lat="53.808471">
        <ele>722.686</ele>
        <time>2026-07-09T16:45:33.360Z</time>
      </trkpt>
      <trkpt lon="7.934789" lat="53.815350">
        <ele>716.465</ele>
        <time>2026-07-09T16:45:42.244Z</time>
      </trkpt>
      <trkpt lon="7.934714" lat="53.817378">
        <ele>714.404</ele>
        <time>2026-07-09T16:45:44.800Z</time>
      </trkpt>
      <trkpt lon="7.932925" lat="53.842085">
        <ele>710.878</ele>
        <time>2026-07-09T16:46:15.268Z</time>
      </trkpt>
      <trkpt lon="7.932433" lat="53.854311">
        <ele>710.855</ele>
        <time>2026-07-09T16:46:57.624Z</time>
      </trkpt>
      <trkpt lon="7.931255" lat="53.879764">
        <ele>710.028</ele>
        <time>2026-07-09T16:47:28.124Z</time>
      </trkpt>
      <trkpt lon="7.929908" lat="53.904887">
        <ele>704.564</ele>
        <time>2026-07-09T16:47:58.176Z</time>
      </trkpt>
      <trkpt lon="7.928633" lat="53.930025">
        <ele>709.091</ele>
        <time>2026-07-09T16:48:28.252Z</time>
      </trkpt>
      <trkpt lon="7.927453" lat="53.955620">
        <ele>710.463</ele>
        <time>2026-07-09T16:48:58.600Z</time>
      </trkpt>
      <trkpt lon="7.926069" lat="53.981150">
        <ele>708.42</ele>
        <time>2026-07-09T16:49:29.028Z</time>
      </trkpt>
      <trkpt lon="7.924704" lat="54.006524">
        <ele>710.592</ele>
        <time>2026-07-09T16:49:59.404Z</time>
      </trkpt>
      <trkpt lon="7.923291" lat="54.031982">
        <ele>707.701</ele>
        <time>2026-07-09T16:50:29.812Z</time>
      </trkpt>
      <trkpt lon="7.921715" lat="54.057468">
        <ele>710.395</ele>
        <time>2026-07-09T16:51:00.112Z</time>
      </trkpt>
      <trkpt lon="7.919892" lat="54.082725">
        <ele>713.445</ele>
        <time>2026-07-09T16:51:30.312Z</time>
      </trkpt>
      <trkpt lon="7.919009" lat="54.094545">
        <ele>712.893</ele>
        <time>2026-07-09T16:51:44.512Z</time>
      </trkpt>
      <trkpt lon="7.918799" lat="54.097442">
        <ele>708.417</ele>
        <time>2026-07-09T16:51:48.316Z</time>
      </trkpt>
      <trkpt lon="7.918547" lat="54.102881">
        <ele>658.68</ele>
        <time>2026-07-09T16:51:55.964Z</time>
      </trkpt>
      <trkpt lon="7.918477" lat="54.105085">
        <ele>615.1</ele>
        <time>2026-07-09T16:51:59.172Z</time>
      </trkpt>
      <trkpt lon="7.918481" lat="54.106802">
        <ele>567.548</ele>
        <time>2026-07-09T16:52:01.736Z</time>
      </trkpt>
      <trkpt lon="7.918584" lat="54.108074">
        <ele>523.513</ele>
        <time>2026-07-09T16:52:03.652Z</time>
      </trkpt>
      <trkpt lon="7.918807" lat="54.109352">
        <ele>471.448</ele>
        <time>2026-07-09T16:52:05.600Z</time>
      </trkpt>
      <trkpt lon="7.919020" lat="54.110182">
        <ele>434.087</ele>
        <time>2026-07-09T16:52:06.864Z</time>
      </trkpt>
      <trkpt lon="7.919451" lat="54.111466">
        <ele>389.204</ele>
        <time>2026-07-09T16:52:08.760Z</time>
      </trkpt>
      <trkpt lon="7.919929" lat="54.112781">
        <ele>352.756</ele>
        <time>2026-07-09T16:52:10.688Z</time>
      </trkpt>
      <trkpt lon="7.920552" lat="54.114533">
        <ele>317.939</ele>
        <time>2026-07-09T16:52:13.256Z</time>
      </trkpt>
      <trkpt lon="7.921136" lat="54.116296">
        <ele>287.583</ele>
        <time>2026-07-09T16:52:15.840Z</time>
      </trkpt>
      <trkpt lon="7.921691" lat="54.118012">
        <ele>259.653</ele>
        <time>2026-07-09T16:52:18.368Z</time>
      </trkpt>
      <trkpt lon="7.922364" lat="54.120210">
        <ele>228.7</ele>
        <time>2026-07-09T16:52:21.572Z</time>
      </trkpt>
      <trkpt lon="7.923144" lat="54.122876">
        <ele>202.681</ele>
        <time>2026-07-09T16:52:25.404Z</time>
      </trkpt>
      <trkpt lon="7.924165" lat="54.126336">
        <ele>190.325</ele>
        <time>2026-07-09T16:52:30.576Z</time>
      </trkpt>
      <trkpt lon="7.926497" lat="54.133378">
        <ele>178.589</ele>
        <time>2026-07-09T16:52:42.124Z</time>
      </trkpt>
      <trkpt lon="7.927508" lat="54.138598">
        <ele>172.519</ele>
        <time>2026-07-09T16:52:51.088Z</time>
      </trkpt>
      <trkpt lon="7.928049" lat="54.156167">
        <ele>162.544</ele>
        <time>2026-07-09T16:53:21.288Z</time>
      </trkpt>
      <trkpt lon="7.928053" lat="54.161115">
        <ele>166.032</ele>
        <time>2026-07-09T16:53:30.324Z</time>
      </trkpt>
      <trkpt lon="7.928099" lat="54.164722">
        <ele>171.436</ele>
        <time>2026-07-09T16:53:37.388Z</time>
      </trkpt>
      <trkpt lon="7.927925" lat="54.166828">
        <ele>171.213</ele>
        <time>2026-07-09T16:53:41.940Z</time>
      </trkpt>
      <trkpt lon="7.926832" lat="54.170938">
        <ele>148.486</ele>
        <time>2026-07-09T16:53:51.576Z</time>
      </trkpt>
      <trkpt lon="7.926043" lat="54.173291">
        <ele>127.475</ele>
        <time>2026-07-09T16:53:57.332Z</time>
      </trkpt>
      <trkpt lon="7.925146" lat="54.175116">
        <ele>106.023</ele>
        <time>2026-07-09T16:54:01.916Z</time>
      </trkpt>
      <trkpt lon="7.924130" lat="54.176556">
        <ele>86.5033</ele>
        <time>2026-07-09T16:54:05.748Z</time>
      </trkpt>
      <trkpt lon="7.922932" lat="54.177937">
        <ele>65.9813</ele>
        <time>2026-07-09T16:54:09.668Z</time>
      </trkpt>
      <trkpt lon="7.921682" lat="54.179176">
        <ele>48.1716</ele>
        <time>2026-07-09T16:54:13.464Z</time>
      </trkpt>
      <trkpt lon="7.919457" lat="54.181056">
        <ele>29.3987</ele>
        <time>2026-07-09T16:54:19.992Z</time>
      </trkpt>
      <trkpt lon="7.917531" lat="54.182616">
        <ele>12.3988</ele>
        <time>2026-07-09T16:54:25.860Z</time>
      </trkpt>
      <trkpt lon="7.916387" lat="54.183563">
        <ele>3.98861</ele>
        <time>2026-07-09T16:54:29.804Z</time>
      </trkpt>
      <trkpt lon="7.915753" lat="54.184089">
        <ele>3.2105</ele>
        <time>2026-07-09T16:54:32.468Z</time>
      </trkpt>
      <trkpt lon="7.915314" lat="54.184449">
        <ele>3.28055</ele>
        <time>2026-07-09T16:54:35.116Z</time>
      </trkpt>
      <trkpt lon="7.914993" lat="54.184761">
        <ele>3.32983</ele>
        <time>2026-07-09T16:54:37.692Z</time>
      </trkpt>
      <trkpt lon="7.914869" lat="54.184910">
        <ele>3.29914</ele>
        <time>2026-07-09T16:54:38.976Z</time>
      </trkpt>
      <trkpt lon="7.914825" lat="54.184977">
        <ele>3.26468</ele>
        <time>2026-07-09T16:54:39.624Z</time>
      </trkpt>
      <trkpt lon="7.914777" lat="54.185106">
        <ele>3.15618</ele>
        <time>2026-07-09T16:54:40.908Z</time>
      </trkpt>
      <trkpt lon="7.914758" lat="54.185237">
        <ele>3.00174</ele>
        <time>2026-07-09T16:54:42.216Z</time>
      </trkpt>
      <trkpt lon="7.914766" lat="54.185442">
        <ele>2.72144</ele>
        <time>2026-07-09T16:54:44.176Z</time>
      </trkpt>
      <trkpt lon="7.914875" lat="54.186204">
        <ele>2.09991</ele>
        <time>2026-07-09T16:54:50.672Z</time>
      </trkpt>
      <trkpt lon="7.914849" lat="54.186609">
        <ele>2.14866</ele>
        <time>2026-07-09T16:54:57.912Z</time>
      </trkpt>
      <trkpt lon="7.914857" lat="54.186638">
        <ele>2.14826</ele>
        <time>2026-07-09T16:54:58.584Z</time>
      </trkpt>
      <trkpt lon="7.914869" lat="54.186666">
        <ele>2.14216</ele>
        <time>2026-07-09T16:54:59.252Z</time>
      </trkpt>
      <trkpt lon="7.914886" lat="54.186692">
        <ele>2.14442</ele>
        <time>2026-07-09T16:54:59.916Z</time>
      </trkpt>
      <trkpt lon="7.914905" lat="54.186712">
        <ele>2.14586</ele>
        <time>2026-07-09T16:55:00.588Z</time>
      </trkpt>
      <trkpt lon="7.914919" lat="54.186722">
        <ele>2.14847</ele>
        <time>2026-07-09T16:55:01.248Z</time>
      </trkpt>
      <trkpt lon="7.914977" lat="54.186750">
        <ele>2.14462</ele>
        <time>2026-07-09T17:06:02.720Z</time>
      </trkpt>
      <trkpt lon="7.914998" lat="54.186758">
        <ele>2.1416</ele>
        <time>2026-07-09T17:06:03.388Z</time>
      </trkpt>
      <trkpt lon="7.915016" lat="54.186764">
        <ele>2.12181</ele>
        <time>2026-07-09T17:06:04.020Z</time>
      </trkpt>
      <trkpt lon="7.915035" lat="54.186767">
        <ele>2.12221</ele>
        <time>2026-07-09T17:06:04.688Z</time>
      </trkpt>
      <trkpt lon="7.915047" lat="54.186769">
        <ele>2.14283</ele>
        <time>2026-07-09T17:06:05.340Z</time>
      </trkpt>
      <trkpt lon="7.915073" lat="54.186770">
        <ele>2.21534</ele>
        <time>2026-07-09T17:06:06.620Z</time>
      </trkpt>
      <trkpt lon="7.915099" lat="54.186770">
        <ele>2.32407</ele>
        <time>2026-07-09T17:06:07.948Z</time>
      </trkpt>
      <trkpt lon="7.915139" lat="54.186764">
        <ele>2.52267</ele>
        <time>2026-07-09T17:06:09.260Z</time>
      </trkpt>
      <trkpt lon="7.915194" lat="54.186753">
        <ele>2.78303</ele>
        <time>2026-07-09T17:06:10.556Z</time>
      </trkpt>
      <trkpt lon="7.915221" lat="54.186745">
        <ele>2.72845</ele>
        <time>2026-07-09T17:06:11.228Z</time>
      </trkpt>
      <trkpt lon="7.915251" lat="54.186729">
        <ele>2.56173</ele>
        <time>2026-07-09T17:06:11.864Z</time>
      </trkpt>
      <trkpt lon="7.915286" lat="54.186703">
        <ele>2.32098</ele>
        <time>2026-07-09T17:06:12.528Z</time>
      </trkpt>
      <trkpt lon="7.915316" lat="54.186669">
        <ele>2.15625</ele>
        <time>2026-07-09T17:06:13.152Z</time>
      </trkpt>
      <trkpt lon="7.915344" lat="54.186626">
        <ele>2.04894</ele>
        <time>2026-07-09T17:06:13.796Z</time>
      </trkpt>
      <trkpt lon="7.915365" lat="54.186571">
        <ele>2.02975</ele>
        <time>2026-07-09T17:06:14.460Z</time>
      </trkpt>
      <trkpt lon="7.915373" lat="54.186507">
        <ele>2.02005</ele>
        <time>2026-07-09T17:06:15.128Z</time>
      </trkpt>
      <trkpt lon="7.915359" lat="54.186441">
        <ele>2.06607</ele>
        <time>2026-07-09T17:06:15.760Z</time>
      </trkpt>
      <trkpt lon="7.915105" lat="54.185778">
        <ele>2.36914</ele>
        <time>2026-07-09T17:06:21.592Z</time>
      </trkpt>
      <trkpt lon="7.914925" lat="54.185450">
        <ele>2.69829</ele>
        <time>2026-07-09T17:06:24.232Z</time>
      </trkpt>
      <trkpt lon="7.914866" lat="54.185216">
        <ele>2.99715</ele>
        <time>2026-07-09T17:06:26.196Z</time>
      </trkpt>
      <trkpt lon="7.914871" lat="54.185146">
        <ele>3.08432</ele>
        <time>2026-07-09T17:06:26.864Z</time>
      </trkpt>
      <trkpt lon="7.914889" lat="54.185083">
        <ele>3.11138</ele>
        <time>2026-07-09T17:06:27.496Z</time>
      </trkpt>
      <trkpt lon="7.914954" lat="54.184961">
        <ele>3.23014</ele>
        <time>2026-07-09T17:06:28.828Z</time>
      </trkpt>
      <trkpt lon="7.915264" lat="54.184617">
        <ele>3.25604</ele>
        <time>2026-07-09T17:06:32.064Z</time>
      </trkpt>
      <trkpt lon="7.915583" lat="54.184264">
        <ele>3.18459</ele>
        <time>2026-07-09T17:06:34.664Z</time>
      </trkpt>
      <trkpt lon="7.916160" lat="54.183704">
        <ele>3.6245</ele>
        <time>2026-07-09T17:06:38.596Z</time>
      </trkpt>
      <trkpt lon="7.916269" lat="54.183534">
        <ele>3.86571</ele>
        <time>2026-07-09T17:06:39.900Z</time>
      </trkpt>
      <trkpt lon="7.916330" lat="54.183409">
        <ele>4.01252</ele>
        <time>2026-07-09T17:06:41.200Z</time>
      </trkpt>
      <trkpt lon="7.916364" lat="54.183315">
        <ele>4.0562</ele>
        <time>2026-07-09T17:06:42.496Z</time>
      </trkpt>
      <trkpt lon="7.916392" lat="54.183282">
        <ele>4.07515</ele>
        <time>2026-07-09T17:06:43.128Z</time>
      </trkpt>
      <trkpt lon="7.916433" lat="54.183251">
        <ele>4.10804</ele>
        <time>2026-07-09T17:06:43.796Z</time>
      </trkpt>
      <trkpt lon="7.916477" lat="54.183229">
        <ele>4.16638</ele>
        <time>2026-07-09T17:06:44.428Z</time>
      </trkpt>
      <trkpt lon="7.916519" lat="54.183217">
        <ele>4.22417</ele>
        <time>2026-07-09T17:06:45.052Z</time>
      </trkpt>
      <trkpt lon="7.916557" lat="54.183214">
        <ele>4.27348</ele>
        <time>2026-07-09T17:06:45.732Z</time>
      </trkpt>
      <trkpt lon="7.916595" lat="54.183216">
        <ele>4.30015</ele>
        <time>2026-07-09T17:06:46.400Z</time>
      </trkpt>
      <trkpt lon="7.916630" lat="54.183223">
        <ele>4.31811</ele>
        <time>2026-07-09T17:06:47.032Z</time>
      </trkpt>
      <trkpt lon="7.916662" lat="54.183236">
        <ele>4.31896</ele>
        <time>2026-07-09T17:06:47.696Z</time>
      </trkpt>
      <trkpt lon="7.916686" lat="54.183253">
        <ele>4.32516</ele>
        <time>2026-07-09T17:06:48.332Z</time>
      </trkpt>
      <trkpt lon="7.916700" lat="54.183273">
        <ele>4.31149</ele>
        <time>2026-07-09T17:06:48.952Z</time>
      </trkpt>
      <trkpt lon="7.916702" lat="54.183297">
        <ele>4.2958</ele>
        <time>2026-07-09T17:06:49.628Z</time>
      </trkpt>
      <trkpt lon="7.916695" lat="54.183313">
        <ele>4.28005</ele>
        <time>2026-07-09T17:06:50.296Z</time>
      </trkpt>
      <trkpt lon="7.916665" lat="54.183341">
        <ele>4.24525</ele>
        <time>2026-07-09T17:06:59.364Z</time>
      </trkpt>
      <trkpt lon="7.916641" lat="54.183357">
        <ele>4.22272</ele>
        <time>2026-07-09T17:07:00.044Z</time>
      </trkpt>
      <trkpt lon="7.916572" lat="54.183394">
        <ele>4.15809</ele>
        <time>2026-07-09T17:07:01.344Z</time>
      </trkpt>
      <trkpt lon="7.916356" lat="54.183493">
        <ele>3.96006</ele>
        <time>2026-07-09T17:07:03.912Z</time>
      </trkpt>
      <trkpt lon="7.916293" lat="54.183533">
        <ele>3.88559</ele>
        <time>2026-07-09T17:07:04.544Z</time>
      </trkpt>
      <trkpt lon="7.916157" lat="54.183649">
        <ele>3.68493</ele>
        <time>2026-07-09T17:07:05.844Z</time>
      </trkpt>
      <trkpt lon="7.915818" lat="54.183978">
        <ele>3.27124</ele>
        <time>2026-07-09T17:07:08.368Z</time>
      </trkpt>
      <trkpt lon="7.915206" lat="54.184524">
        <ele>3.33218</ele>
        <time>2026-07-09T17:07:11.544Z</time>
      </trkpt>
      <trkpt lon="7.914385" lat="54.185201">
        <ele>3.09623</ele>
        <time>2026-07-09T17:07:14.760Z</time>
      </trkpt>
      <trkpt lon="7.913012" lat="54.186331">
        <ele>3.62168</ele>
        <time>2026-07-09T17:07:19.308Z</time>
      </trkpt>
      <trkpt lon="7.912181" lat="54.187025">
        <ele>8.99512</ele>
        <time>2026-07-09T17:07:21.876Z</time>
      </trkpt>
      <trkpt lon="7.911774" lat="54.187366">
        <ele>13.9861</ele>
        <time>2026-07-09T17:07:23.164Z</time>
      </trkpt>
      <trkpt lon="7.911344" lat="54.187716">
        <ele>17.1477</ele>
        <time>2026-07-09T17:07:24.512Z</time>
      </trkpt>
      <trkpt lon="7.910743" lat="54.188242">
        <ele>23.5401</ele>
        <time>2026-07-09T17:07:26.476Z</time>
      </trkpt>
      <trkpt lon="7.909185" lat="54.189575">
        <ele>41.2647</ele>
        <time>2026-07-09T17:07:31.676Z</time>
      </trkpt>
      <trkpt lon="7.907029" lat="54.191268">
        <ele>49.0733</ele>
        <time>2026-07-09T17:07:38.172Z</time>
      </trkpt>
      <trkpt lon="7.906638" lat="54.191688">
        <ele>47.8437</ele>
        <time>2026-07-09T17:07:39.476Z</time>
      </trkpt>
      <trkpt lon="7.906308" lat="54.192163">
        <ele>47.9064</ele>
        <time>2026-07-09T17:07:40.808Z</time>
      </trkpt>
      <trkpt lon="7.906075" lat="54.192660">
        <ele>49.7831</ele>
        <time>2026-07-09T17:07:42.108Z</time>
      </trkpt>
      <trkpt lon="7.905867" lat="54.193481">
        <ele>54.5829</ele>
        <time>2026-07-09T17:07:44.144Z</time>
      </trkpt>
      <trkpt lon="7.905773" lat="54.195679">
        <ele>74.5841</ele>
        <time>2026-07-09T17:07:49.344Z</time>
      </trkpt>
      <trkpt lon="7.905761" lat="54.197586">
        <ele>94.6626</ele>
        <time>2026-07-09T17:07:53.764Z</time>
      </trkpt>
      <trkpt lon="7.905683" lat="54.198141">
        <ele>101.094</ele>
        <time>2026-07-09T17:07:55.076Z</time>
      </trkpt>
      <trkpt lon="7.905412" lat="54.198950">
        <ele>111.119</ele>
        <time>2026-07-09T17:07:57.008Z</time>
      </trkpt>
      <trkpt lon="7.904986" lat="54.199713">
        <ele>120.99</ele>
        <time>2026-07-09T17:07:58.912Z</time>
      </trkpt>
      <trkpt lon="7.903811" lat="54.201202">
        <ele>142.286</ele>
        <time>2026-07-09T17:08:02.760Z</time>
      </trkpt>
      <trkpt lon="7.903042" lat="54.201928">
        <ele>152.743</ele>
        <time>2026-07-09T17:08:04.712Z</time>
      </trkpt>
      <trkpt lon="7.902394" lat="54.202413">
        <ele>160.027</ele>
        <time>2026-07-09T17:08:06.032Z</time>
      </trkpt>
      <trkpt lon="7.901319" lat="54.203059">
        <ele>169.512</ele>
        <time>2026-07-09T17:08:07.968Z</time>
      </trkpt>
      <trkpt lon="7.898793" lat="54.204228">
        <ele>187.959</ele>
        <time>2026-07-09T17:08:11.832Z</time>
      </trkpt>
      <trkpt lon="7.895536" lat="54.205520">
        <ele>215.238</ele>
        <time>2026-07-09T17:08:16.296Z</time>
      </trkpt>
      <trkpt lon="7.892005" lat="54.206868">
        <ele>244.356</ele>
        <time>2026-07-09T17:08:20.868Z</time>
      </trkpt>
      <trkpt lon="7.888493" lat="54.208261">
        <ele>276.208</ele>
        <time>2026-07-09T17:08:25.392Z</time>
      </trkpt>
      <trkpt lon="7.886161" lat="54.209410">
        <ele>299.948</ele>
        <time>2026-07-09T17:08:28.624Z</time>
      </trkpt>
      <trkpt lon="7.884042" lat="54.210714">
        <ele>324.558</ele>
        <time>2026-07-09T17:08:31.872Z</time>
      </trkpt>
      <trkpt lon="7.882157" lat="54.212165">
        <ele>349.852</ele>
        <time>2026-07-09T17:08:35.120Z</time>
      </trkpt>
      <trkpt lon="7.880534" lat="54.213740">
        <ele>375.749</ele>
        <time>2026-07-09T17:08:38.388Z</time>
      </trkpt>
      <trkpt lon="7.879211" lat="54.215395">
        <ele>400.944</ele>
        <time>2026-07-09T17:08:41.608Z</time>
      </trkpt>
      <trkpt lon="7.878187" lat="54.217115">
        <ele>426.32</ele>
        <time>2026-07-09T17:08:44.788Z</time>
      </trkpt>
      <trkpt lon="7.877459" lat="54.218904">
        <ele>452.205</ele>
        <time>2026-07-09T17:08:47.984Z</time>
      </trkpt>
      <trkpt lon="7.877006" lat="54.220795">
        <ele>479.067</ele>
        <time>2026-07-09T17:08:51.292Z</time>
      </trkpt>
      <trkpt lon="7.876854" lat="54.222672">
        <ele>504.825</ele>
        <time>2026-07-09T17:08:54.536Z</time>
      </trkpt>
      <trkpt lon="7.877006" lat="54.224560">
        <ele>530.228</ele>
        <time>2026-07-09T17:08:57.784Z</time>
      </trkpt>
      <trkpt lon="7.877480" lat="54.226468">
        <ele>555.449</ele>
        <time>2026-07-09T17:09:01.056Z</time>
      </trkpt>
      <trkpt lon="7.878254" lat="54.228296">
        <ele>579.914</ele>
        <time>2026-07-09T17:09:04.236Z</time>
      </trkpt>
      <trkpt lon="7.879618" lat="54.230475">
        <ele>610.136</ele>
        <time>2026-07-09T17:09:08.132Z</time>
      </trkpt>
      <trkpt lon="7.881123" lat="54.232238">
        <ele>635.305</ele>
        <time>2026-07-09T17:09:11.412Z</time>
      </trkpt>
      <trkpt lon="7.883298" lat="54.234203">
        <ele>664.674</ele>
        <time>2026-07-09T17:09:15.260Z</time>
      </trkpt>
      <trkpt lon="7.885428" lat="54.235740">
        <ele>689.093</ele>
        <time>2026-07-09T17:09:18.476Z</time>
      </trkpt>
      <trkpt lon="7.890316" lat="54.238546">
        <ele>741.402</ele>
        <time>2026-07-09T17:09:24.936Z</time>
      </trkpt>
      <trkpt lon="7.895284" lat="54.241310">
        <ele>796.977</ele>
        <time>2026-07-09T17:09:31.392Z</time>
      </trkpt>
      <trkpt lon="7.900235" lat="54.244037">
        <ele>852.383</ele>
        <time>2026-07-09T17:09:37.772Z</time>
      </trkpt>
      <trkpt lon="7.902590" lat="54.245431">
        <ele>882.771</ele>
        <time>2026-07-09T17:09:40.940Z</time>
      </trkpt>
      <trkpt lon="7.903847" lat="54.246356">
        <ele>900.571</ele>
        <time>2026-07-09T17:09:42.856Z</time>
      </trkpt>
      <trkpt lon="7.904938" lat="54.247341">
        <ele>916.481</ele>
        <time>2026-07-09T17:09:44.768Z</time>
      </trkpt>
      <trkpt lon="7.906138" lat="54.248742">
        <ele>932.727</ele>
        <time>2026-07-09T17:09:47.316Z</time>
      </trkpt>
      <trkpt lon="7.907054" lat="54.250260">
        <ele>941.501</ele>
        <time>2026-07-09T17:09:49.904Z</time>
      </trkpt>
      <trkpt lon="7.907644" lat="54.251867">
        <ele>944.165</ele>
        <time>2026-07-09T17:09:52.480Z</time>
      </trkpt>
      <trkpt lon="7.907877" lat="54.253535">
        <ele>943.953</ele>
        <time>2026-07-09T17:09:55.028Z</time>
      </trkpt>
      <trkpt lon="7.907739" lat="54.255242">
        <ele>942.241</ele>
        <time>2026-07-09T17:09:57.564Z</time>
      </trkpt>
      <trkpt lon="7.907226" lat="54.256989">
        <ele>939.121</ele>
        <time>2026-07-09T17:10:00.112Z</time>
      </trkpt>
      <trkpt lon="7.906312" lat="54.258777">
        <ele>935.042</ele>
        <time>2026-07-09T17:10:02.724Z</time>
      </trkpt>
      <trkpt lon="7.905004" lat="54.260547">
        <ele>929.884</ele>
        <time>2026-07-09T17:10:05.380Z</time>
      </trkpt>
      <trkpt lon="7.903297" lat="54.262273">
        <ele>924.434</ele>
        <time>2026-07-09T17:10:08.024Z</time>
      </trkpt>
      <trkpt lon="7.901215" lat="54.263923">
        <ele>918.242</ele>
        <time>2026-07-09T17:10:10.644Z</time>
      </trkpt>
      <trkpt lon="7.898780" lat="54.265465">
        <ele>912.717</ele>
        <time>2026-07-09T17:10:13.288Z</time>
      </trkpt>
      <trkpt lon="7.896047" lat="54.266873">
        <ele>906.968</ele>
        <time>2026-07-09T17:10:15.892Z</time>
      </trkpt>
      <trkpt lon="7.893031" lat="54.268144">
        <ele>900.547</ele>
        <time>2026-07-09T17:10:18.488Z</time>
      </trkpt>
      <trkpt lon="7.889678" lat="54.269283">
        <ele>895.062</ele>
        <time>2026-07-09T17:10:21.128Z</time>
      </trkpt>
      <trkpt lon="7.885214" lat="54.270444">
        <ele>889.84</ele>
        <time>2026-07-09T17:10:24.416Z</time>
      </trkpt>
      <trkpt lon="7.880490" lat="54.271312">
        <ele>884.329</ele>
        <time>2026-07-09T17:10:27.680Z</time>
      </trkpt>
      <trkpt lon="7.875512" lat="54.271873">
        <ele>879.839</ele>
        <time>2026-07-09T17:10:30.968Z</time>
      </trkpt>
      <trkpt lon="7.870486" lat="54.272098">
        <ele>876.777</ele>
        <time>2026-07-09T17:10:34.196Z</time>
      </trkpt>
      <trkpt lon="7.865253" lat="54.271987">
        <ele>874.887</ele>
        <time>2026-07-09T17:10:37.492Z</time>
      </trkpt>
      <trkpt lon="7.860080" lat="54.271540">
        <ele>874.054</ele>
        <time>2026-07-09T17:10:40.740Z</time>
      </trkpt>
      <trkpt lon="7.854983" lat="54.270773">
        <ele>874.212</ele>
        <time>2026-07-09T17:10:43.952Z</time>
      </trkpt>
      <trkpt lon="7.849977" lat="54.269684">
        <ele>874.343</ele>
        <time>2026-07-09T17:10:47.204Z</time>
      </trkpt>
      <trkpt lon="7.845067" lat="54.268272">
        <ele>873.002</ele>
        <time>2026-07-09T17:10:50.472Z</time>
      </trkpt>
      <trkpt lon="7.840420" lat="54.266572">
        <ele>871.657</ele>
        <time>2026-07-09T17:10:53.692Z</time>
      </trkpt>
      <trkpt lon="7.836040" lat="54.264578">
        <ele>871.977</ele>
        <time>2026-07-09T17:10:56.936Z</time>
      </trkpt>
      <trkpt lon="7.831995" lat="54.262312">
        <ele>873.148</ele>
        <time>2026-07-09T17:11:00.160Z</time>
      </trkpt>
      <trkpt lon="7.828237" lat="54.259745">
        <ele>875.129</ele>
        <time>2026-07-09T17:11:03.472Z</time>
      </trkpt>
      <trkpt lon="7.824909" lat="54.256975">
        <ele>877.487</ele>
        <time>2026-07-09T17:11:06.740Z</time>
      </trkpt>
      <trkpt lon="7.822048" lat="54.254034">
        <ele>880.15</ele>
        <time>2026-07-09T17:11:09.956Z</time>
      </trkpt>
      <trkpt lon="7.819680" lat="54.250961">
        <ele>882.976</ele>
        <time>2026-07-09T17:11:13.156Z</time>
      </trkpt>
      <trkpt lon="7.817777" lat="54.247713">
        <ele>885.437</ele>
        <time>2026-07-09T17:11:16.404Z</time>
      </trkpt>
      <trkpt lon="7.816387" lat="54.244346">
        <ele>887.028</ele>
        <time>2026-07-09T17:11:19.636Z</time>
      </trkpt>
      <trkpt lon="7.815005" lat="54.238798">
        <ele>891.079</ele>
        <time>2026-07-09T17:11:24.836Z</time>
      </trkpt>
      <trkpt lon="7.810824" lat="54.205053">
        <ele>886.846</ele>
        <time>2026-07-09T17:11:55.424Z</time>
      </trkpt>
      <trkpt lon="7.808317" lat="54.184691">
        <ele>884.297</ele>
        <time>2026-07-09T17:12:13.492Z</time>
      </trkpt>
      <trkpt lon="7.806102" lat="54.178299">
        <ele>883.131</ele>
        <time>2026-07-09T17:12:19.228Z</time>
      </trkpt>
      <trkpt lon="7.789477" lat="54.145319">
        <ele>878.041</ele>
        <time>2026-07-09T17:12:49.436Z</time>
      </trkpt>
      <trkpt lon="7.775690" lat="54.120432">
        <ele>880.622</ele>
        <time>2026-07-09T17:13:12.556Z</time>
      </trkpt>
      <trkpt lon="7.765490" lat="54.107273">
        <ele>880.455</ele>
        <time>2026-07-09T17:13:25.348Z</time>
      </trkpt>
      <trkpt lon="7.739420" lat="54.077034">
        <ele>879.958</ele>
        <time>2026-07-09T17:13:55.500Z</time>
      </trkpt>
      <trkpt lon="7.713287" lat="54.046981">
        <ele>881.839</ele>
        <time>2026-07-09T17:14:25.724Z</time>
      </trkpt>
      <trkpt lon="7.687289" lat="54.016817">
        <ele>881.117</ele>
        <time>2026-07-09T17:14:55.924Z</time>
      </trkpt>
      <trkpt lon="7.661010" lat="53.986833">
        <ele>884.258</ele>
        <time>2026-07-09T17:15:26.244Z</time>
      </trkpt>
      <trkpt lon="7.632088" lat="53.957480">
        <ele>882.439</ele>
        <time>2026-07-09T17:15:56.676Z</time>
      </trkpt>
      <trkpt lon="7.601603" lat="53.929105">
        <ele>883.304</ele>
        <time>2026-07-09T17:16:26.980Z</time>
      </trkpt>
      <trkpt lon="7.571326" lat="53.900585">
        <ele>883.758</ele>
        <time>2026-07-09T17:16:57.388Z</time>
      </trkpt>
      <trkpt lon="7.541008" lat="53.872073">
        <ele>884.994</ele>
        <time>2026-07-09T17:17:27.744Z</time>
      </trkpt>
      <trkpt lon="7.510726" lat="53.843469">
        <ele>884.943</ele>
        <time>2026-07-09T17:17:58.216Z</time>
      </trkpt>
      <trkpt lon="7.480208" lat="53.814664">
        <ele>884.128</ele>
        <time>2026-07-09T17:18:28.868Z</time>
      </trkpt>
      <trkpt lon="7.466130" lat="53.801456">
        <ele>884.99</ele>
        <time>2026-07-09T17:18:43.076Z</time>
      </trkpt>
      <trkpt lon="7.460145" lat="53.795805">
        <ele>873.357</ele>
        <time>2026-07-09T17:18:49.540Z</time>
      </trkpt>
      <trkpt lon="7.453955" lat="53.789810">
        <ele>817.633</ele>
        <time>2026-07-09T17:18:56.616Z</time>
      </trkpt>
      <trkpt lon="7.450751" lat="53.786540">
        <ele>766.843</ele>
        <time>2026-07-09T17:19:00.448Z</time>
      </trkpt>
      <trkpt lon="7.448093" lat="53.783738">
        <ele>715.05</ele>
        <time>2026-07-09T17:19:03.680Z</time>
      </trkpt>
      <trkpt lon="7.445942" lat="53.781416">
        <ele>667.921</ele>
        <time>2026-07-09T17:19:06.316Z</time>
      </trkpt>
      <trkpt lon="7.443847" lat="53.779108">
        <ele>618.817</ele>
        <time>2026-07-09T17:19:08.876Z</time>
      </trkpt>
      <trkpt lon="7.441730" lat="53.776730">
        <ele>567.447</ele>
        <time>2026-07-09T17:19:11.472Z</time>
      </trkpt>
      <trkpt lon="7.440132" lat="53.774901">
        <ele>528.208</ele>
        <time>2026-07-09T17:19:13.448Z</time>
      </trkpt>
      <trkpt lon="7.438549" lat="53.773056">
        <ele>489.409</ele>
        <time>2026-07-09T17:19:15.416Z</time>
      </trkpt>
      <trkpt lon="7.436976" lat="53.771186">
        <ele>451.295</ele>
        <time>2026-07-09T17:19:17.384Z</time>
      </trkpt>
      <trkpt lon="7.435477" lat="53.769365">
        <ele>416.105</ele>
        <time>2026-07-09T17:19:19.276Z</time>
      </trkpt>
      <trkpt lon="7.433993" lat="53.767526">
        <ele>383.126</ele>
        <time>2026-07-09T17:19:21.184Z</time>
      </trkpt>
      <trkpt lon="7.432028" lat="53.765023">
        <ele>342.758</ele>
        <time>2026-07-09T17:19:23.752Z</time>
      </trkpt>
      <trkpt lon="7.430133" lat="53.762548">
        <ele>307.664</ele>
        <time>2026-07-09T17:19:26.276Z</time>
      </trkpt>
      <trkpt lon="7.428216" lat="53.759988">
        <ele>276.571</ele>
        <time>2026-07-09T17:19:28.908Z</time>
      </trkpt>
      <trkpt lon="7.426386" lat="53.757440">
        <ele>250.057</ele>
        <time>2026-07-09T17:19:31.548Z</time>
      </trkpt>
      <trkpt lon="7.424246" lat="53.754314">
        <ele>220.967</ele>
        <time>2026-07-09T17:19:34.768Z</time>
      </trkpt>
      <trkpt lon="7.422208" lat="53.751225">
        <ele>196.644</ele>
        <time>2026-07-09T17:19:38.012Z</time>
      </trkpt>
      <trkpt lon="7.420259" lat="53.748172">
        <ele>172.829</ele>
        <time>2026-07-09T17:19:41.248Z</time>
      </trkpt>
      <trkpt lon="7.418345" lat="53.745088">
        <ele>147.568</ele>
        <time>2026-07-09T17:19:44.548Z</time>
      </trkpt>
      <trkpt lon="7.416106" lat="53.741470">
        <ele>126.243</ele>
        <time>2026-07-09T17:19:48.440Z</time>
      </trkpt>
      <trkpt lon="7.411463" lat="53.733828">
        <ele>120.552</ele>
        <time>2026-07-09T17:19:56.844Z</time>
      </trkpt>
      <trkpt lon="7.410280" lat="53.732213">
        <ele>131.152</ele>
        <time>2026-07-09T17:19:58.812Z</time>
      </trkpt>
      <trkpt lon="7.409385" lat="53.731261">
        <ele>142.151</ele>
        <time>2026-07-09T17:20:00.104Z</time>
      </trkpt>
      <trkpt lon="7.408890" lat="53.730819">
        <ele>148.858</ele>
        <time>2026-07-09T17:20:00.768Z</time>
      </trkpt>
      <trkpt lon="7.408391" lat="53.730428">
        <ele>155.491</ele>
        <time>2026-07-09T17:20:01.412Z</time>
      </trkpt>
      <trkpt lon="7.407340" lat="53.729769">
        <ele>166.601</ele>
        <time>2026-07-09T17:20:02.680Z</time>
      </trkpt>
      <trkpt lon="7.406236" lat="53.729202">
        <ele>174.573</ele>
        <time>2026-07-09T17:20:03.972Z</time>
      </trkpt>
      <trkpt lon="7.404614" lat="53.728498">
        <ele>172.976</ele>
        <time>2026-07-09T17:20:05.912Z</time>
      </trkpt>
      <trkpt lon="7.403572" lat="53.728087">
        <ele>165.863</ele>
        <time>2026-07-09T17:20:07.180Z</time>
      </trkpt>
      <trkpt lon="7.400980" lat="53.727226">
        <ele>147.601</ele>
        <time>2026-07-09T17:20:10.344Z</time>
      </trkpt>
      <trkpt lon="7.397927" lat="53.726372">
        <ele>124.196</ele>
        <time>2026-07-09T17:20:14.172Z</time>
      </trkpt>
      <trkpt lon="7.394835" lat="53.725655">
        <ele>105.062</ele>
        <time>2026-07-09T17:20:18.144Z</time>
      </trkpt>
      <trkpt lon="7.390947" lat="53.725036">
        <ele>84.1064</ele>
        <time>2026-07-09T17:20:23.248Z</time>
      </trkpt>
      <trkpt lon="7.387501" lat="53.724686">
        <ele>64.2429</ele>
        <time>2026-07-09T17:20:27.748Z</time>
      </trkpt>
      <trkpt lon="7.383988" lat="53.724514">
        <ele>46.4413</ele>
        <time>2026-07-09T17:20:32.368Z</time>
      </trkpt>
      <trkpt lon="7.380660" lat="53.724523">
        <ele>30.9152</ele>
        <time>2026-07-09T17:20:36.964Z</time>
      </trkpt>
      <trkpt lon="7.377480" lat="53.724671">
        <ele>14.6642</ele>
        <time>2026-07-09T17:20:41.628Z</time>
      </trkpt>
      <trkpt lon="7.374670" lat="53.724806">
        <ele>2.79562</ele>
        <time>2026-07-09T17:20:46.136Z</time>
      </trkpt>
      <trkpt lon="7.373271" lat="53.724860">
        <ele>0.686966</ele>
        <time>2026-07-09T17:20:48.692Z</time>
      </trkpt>
      <trkpt lon="7.372696" lat="53.724887">
        <ele>0.681503</ele>
        <time>2026-07-09T17:20:50.000Z</time>
      </trkpt>
      <trkpt lon="7.372236" lat="53.724908">
        <ele>0.752091</ele>
        <time>2026-07-09T17:20:51.296Z</time>
      </trkpt>
      <trkpt lon="7.371896" lat="53.724923">
        <ele>0.725536</ele>
        <time>2026-07-09T17:20:52.636Z</time>
      </trkpt>
      <trkpt lon="7.371696" lat="53.724932">
        <ele>0.676196</ele>
        <time>2026-07-09T17:20:53.904Z</time>
      </trkpt>
      <trkpt lon="7.371284" lat="53.724947">
        <ele>0.512997</ele>
        <time>2026-07-09T17:20:58.596Z</time>
      </trkpt>
      <trkpt lon="7.371229" lat="53.724945">
        <ele>0.485186</ele>
        <time>2026-07-09T17:20:59.252Z</time>
      </trkpt>
      <trkpt lon="7.371166" lat="53.724939">
        <ele>0.447129</ele>
        <time>2026-07-09T17:21:00.524Z</time>
      </trkpt>
      <trkpt lon="7.371097" lat="53.724926">
        <ele>0.412099</ele>
        <time>2026-07-09T17:21:02.524Z</time>
      </trkpt>
      <trkpt lon="7.371072" lat="53.724920">
        <ele>0.394972</ele>
        <time>2026-07-09T17:21:03.164Z</time>
      </trkpt>
      <trkpt lon="7.371039" lat="53.724908">
        <ele>0.373627</ele>
        <time>2026-07-09T17:21:03.832Z</time>
      </trkpt>
      <trkpt lon="7.371011" lat="53.724891">
        <ele>0.346815</ele>
        <time>2026-07-09T17:21:04.456Z</time>
      </trkpt>
      <trkpt lon="7.370990" lat="53.724869">
        <ele>0.315393</ele>
        <time>2026-07-09T17:21:05.096Z</time>
      </trkpt>
      <trkpt lon="7.370984" lat="53.724840">
        <ele>0.34611</ele>
        <time>2026-07-09T17:21:05.764Z</time>
      </trkpt>
      <trkpt lon="7.370999" lat="53.724813">
        <ele>0.413397</ele>
        <time>2026-07-09T17:21:06.404Z</time>
      </trkpt>
      <trkpt lon="7.371029" lat="53.724792">
        <ele>0.474732</ele>
        <time>2026-07-09T17:21:07.036Z</time>
      </trkpt>
      <trkpt lon="7.371061" lat="53.724784">
        <ele>0.516478</ele>
        <time>2026-07-09T17:21:07.664Z</time>
      </trkpt>
      <trkpt lon="7.371083" lat="53.724780">
        <ele>0.537711</ele>
        <time>2026-07-09T17:21:08.304Z</time>
      </trkpt>
      <trkpt lon="7.371116" lat="53.724776">
        <ele>0.561491</ele>
        <time>2026-07-09T17:21:18.708Z</time>
      </trkpt>
      <trkpt lon="7.371214" lat="53.724766">
        <ele>0.635033</ele>
        <time>2026-07-09T17:28:54.940Z</time>
      </trkpt>
      <trkpt lon="7.371481" lat="53.724741">
        <ele>0.796175</ele>
        <time>2026-07-09T17:28:56.844Z</time>
      </trkpt>
      <trkpt lon="7.372103" lat="53.724696">
        <ele>1.02209</ele>
        <time>2026-07-09T17:28:59.512Z</time>
      </trkpt>
      <trkpt lon="7.375356" lat="53.724495">
        <ele>2.1817</ele>
        <time>2026-07-09T17:29:10.156Z</time>
      </trkpt>
      <trkpt lon="7.375787" lat="53.724460">
        <ele>2.30534</ele>
        <time>2026-07-09T17:29:12.116Z</time>
      </trkpt>
      <trkpt lon="7.375906" lat="53.724463">
        <ele>2.31925</ele>
        <time>2026-07-09T17:29:12.756Z</time>
      </trkpt>
      <trkpt lon="7.376020" lat="53.724479">
        <ele>2.31199</ele>
        <time>2026-07-09T17:29:13.404Z</time>
      </trkpt>
      <trkpt lon="7.376124" lat="53.724510">
        <ele>2.35301</ele>
        <time>2026-07-09T17:29:14.064Z</time>
      </trkpt>
      <trkpt lon="7.376206" lat="53.724555">
        <ele>2.46659</ele>
        <time>2026-07-09T17:29:14.724Z</time>
      </trkpt>
      <trkpt lon="7.376255" lat="53.724607">
        <ele>2.50386</ele>
        <time>2026-07-09T17:29:15.340Z</time>
      </trkpt>
      <trkpt lon="7.376273" lat="53.724665">
        <ele>2.42376</ele>
        <time>2026-07-09T17:29:15.980Z</time>
      </trkpt>
      <trkpt lon="7.376256" lat="53.724728">
        <ele>2.34742</ele>
        <time>2026-07-09T17:29:16.668Z</time>
      </trkpt>
      <trkpt lon="7.376211" lat="53.724779">
        <ele>2.32354</ele>
        <time>2026-07-09T17:29:17.320Z</time>
      </trkpt>
      <trkpt lon="7.376144" lat="53.724821">
        <ele>2.29771</ele>
        <time>2026-07-09T17:29:17.992Z</time>
      </trkpt>
      <trkpt lon="7.376067" lat="53.724849">
        <ele>2.27488</ele>
        <time>2026-07-09T17:29:18.680Z</time>
      </trkpt>
      <trkpt lon="7.375992" lat="53.724867">
        <ele>2.24815</ele>
        <time>2026-07-09T17:29:19.340Z</time>
      </trkpt>
      <trkpt lon="7.375913" lat="53.724878">
        <ele>2.2246</ele>
        <time>2026-07-09T17:29:19.992Z</time>
      </trkpt>
      <trkpt lon="7.375693" lat="53.724894">
        <ele>2.15022</ele>
        <time>2026-07-09T17:29:21.316Z</time>
      </trkpt>
      <trkpt lon="7.375384" lat="53.724894">
        <ele>1.98809</ele>
        <time>2026-07-09T17:29:22.652Z</time>
      </trkpt>
      <trkpt lon="7.374767" lat="53.724859">
        <ele>1.49142</ele>
        <time>2026-07-09T17:29:24.672Z</time>
      </trkpt>
      <trkpt lon="7.374271" lat="53.724852">
        <ele>1.10988</ele>
        <time>2026-07-09T17:29:25.976Z</time>
      </trkpt>
      <trkpt lon="7.373078" lat="53.724886">
        <ele>0.668015</ele>
        <time>2026-07-09T17:29:28.620Z</time>
      </trkpt>
      <trkpt lon="7.371297" lat="53.724943">
        <ele>0.55015</ele>
        <time>2026-07-09T17:29:31.916Z</time>
      </trkpt>
      <trkpt lon="7.367192" lat="53.725034">
        <ele>16.6963</ele>
        <time>2026-07-09T17:29:38.536Z</time>
      </trkpt>
      <trkpt lon="7.363651" lat="53.724964">
        <ele>35.8796</ele>
        <time>2026-07-09T17:29:43.916Z</time>
      </trkpt>
      <trkpt lon="7.361408" lat="53.724813">
        <ele>44.478</ele>
        <time>2026-07-09T17:29:47.228Z</time>
      </trkpt>
      <trkpt lon="7.360441" lat="53.724669">
        <ele>45.2712</ele>
        <time>2026-07-09T17:29:48.600Z</time>
      </trkpt>
      <trkpt lon="7.359494" lat="53.724455">
        <ele>47.1553</ele>
        <time>2026-07-09T17:29:49.952Z</time>
      </trkpt>
      <trkpt lon="7.358598" lat="53.724180">
        <ele>50.3938</ele>
        <time>2026-07-09T17:29:51.264Z</time>
      </trkpt>
      <trkpt lon="7.357739" lat="53.723842">
        <ele>54.5464</ele>
        <time>2026-07-09T17:29:52.600Z</time>
      </trkpt>
      <trkpt lon="7.356513" lat="53.723215">
        <ele>61.2946</ele>
        <time>2026-07-09T17:29:54.604Z</time>
      </trkpt>
      <trkpt lon="7.355792" lat="53.722757">
        <ele>65.6042</ele>
        <time>2026-07-09T17:29:55.976Z</time>
      </trkpt>
      <trkpt lon="7.354714" lat="53.721913">
        <ele>76.0253</ele>
        <time>2026-07-09T17:29:58.016Z</time>
      </trkpt>
      <trkpt lon="7.353160" lat="53.720465">
        <ele>96.2555</ele>
        <time>2026-07-09T17:30:01.356Z</time>
      </trkpt>
      <trkpt lon="7.351348" lat="53.718649">
        <ele>117.139</ele>
        <time>2026-07-09T17:30:05.188Z</time>
      </trkpt>
      <trkpt lon="7.349281" lat="53.716753">
        <ele>140.07</ele>
        <time>2026-07-09T17:30:09.080Z</time>
      </trkpt>
      <trkpt lon="7.347294" lat="53.715176">
        <ele>164.044</ele>
        <time>2026-07-09T17:30:12.356Z</time>
      </trkpt>
      <trkpt lon="7.345146" lat="53.713643">
        <ele>188.712</ele>
        <time>2026-07-09T17:30:15.556Z</time>
      </trkpt>
      <trkpt lon="7.342833" lat="53.712073">
        <ele>214.649</ele>
        <time>2026-07-09T17:30:18.820Z</time>
      </trkpt>
      <trkpt lon="7.340049" lat="53.710204">
        <ele>245.361</ele>
        <time>2026-07-09T17:30:22.656Z</time>
      </trkpt>
      <trkpt lon="7.337629" lat="53.708587">
        <ele>272.914</ele>
        <time>2026-07-09T17:30:25.920Z</time>
      </trkpt>
      <trkpt lon="7.334690" lat="53.706617">
        <ele>306.578</ele>
        <time>2026-07-09T17:30:29.816Z</time>
      </trkpt>
      <trkpt lon="7.331757" lat="53.704643">
        <ele>340.448</ele>
        <time>2026-07-09T17:30:33.656Z</time>
      </trkpt>
      <trkpt lon="7.328770" lat="53.702632">
        <ele>375.602</ele>
        <time>2026-07-09T17:30:37.480Z</time>
      </trkpt>
      <trkpt lon="7.325741" lat="53.700582">
        <ele>412.184</ele>
        <time>2026-07-09T17:30:41.300Z</time>
      </trkpt>
      <trkpt lon="7.322587" lat="53.698466">
        <ele>450.727</ele>
        <time>2026-07-09T17:30:45.248Z</time>
      </trkpt>
      <trkpt lon="7.319411" lat="53.696406">
        <ele>487.934</ele>
        <time>2026-07-09T17:30:49.112Z</time>
      </trkpt>
      <trkpt lon="7.315508" lat="53.694039">
        <ele>528.498</ele>
        <time>2026-07-09T17:30:53.688Z</time>
      </trkpt>
      <trkpt lon="7.307654" lat="53.689688">
        <ele>561.945</ele>
        <time>2026-07-09T17:31:02.084Z</time>
      </trkpt>
      <trkpt lon="7.301045" lat="53.686112">
        <ele>570.811</ele>
        <time>2026-07-09T17:31:08.664Z</time>
      </trkpt>
      <trkpt lon="7.294106" lat="53.682394">
        <ele>571.655</ele>
        <time>2026-07-09T17:31:15.156Z</time>
      </trkpt>
      <trkpt lon="7.288075" lat="53.679237">
        <ele>567.646</ele>
        <time>2026-07-09T17:31:20.428Z</time>
      </trkpt>
      <trkpt lon="7.278739" lat="53.674362">
        <ele>558.478</ele>
        <time>2026-07-09T17:31:28.156Z</time>
      </trkpt>
      <trkpt lon="7.274273" lat="53.671728">
        <ele>553.938</ele>
        <time>2026-07-09T17:31:31.960Z</time>
      </trkpt>
      <trkpt lon="7.270833" lat="53.669280">
        <ele>549.841</ele>
        <time>2026-07-09T17:31:35.164Z</time>
      </trkpt>
      <trkpt lon="7.268268" lat="53.667062">
        <ele>546.65</ele>
        <time>2026-07-09T17:31:37.824Z</time>
      </trkpt>
      <trkpt lon="7.266082" lat="53.664763">
        <ele>543.928</ele>
        <time>2026-07-09T17:31:40.492Z</time>
      </trkpt>
      <trkpt lon="7.264160" lat="53.662257">
        <ele>541.699</ele>
        <time>2026-07-09T17:31:43.108Z</time>
      </trkpt>
      <trkpt lon="7.262629" lat="53.659718">
        <ele>542.113</ele>
        <time>2026-07-09T17:31:45.712Z</time>
      </trkpt>
      <trkpt lon="7.260995" lat="53.655807">
        <ele>548.973</ele>
        <time>2026-07-09T17:31:49.576Z</time>
      </trkpt>
      <trkpt lon="7.258720" lat="53.649110">
        <ele>591.207</ele>
        <time>2026-07-09T17:31:56.144Z</time>
      </trkpt>
      <trkpt lon="7.256160" lat="53.641970">
        <ele>545.757</ele>
        <time>2026-07-09T17:32:03.348Z</time>
      </trkpt>
      <trkpt lon="7.253872" lat="53.635110">
        <ele>502.494</ele>
        <time>2026-07-09T17:32:09.944Z</time>
      </trkpt>
      <trkpt lon="7.251343" lat="53.628179">
        <ele>490.053</ele>
        <time>2026-07-09T17:32:16.544Z</time>
      </trkpt>
      <trkpt lon="7.249889" lat="53.624996">
        <ele>490.614</ele>
        <time>2026-07-09T17:32:19.852Z</time>
      </trkpt>
      <trkpt lon="7.247909" lat="53.621463">
        <ele>486.979</ele>
        <time>2026-07-09T17:32:23.784Z</time>
      </trkpt>
      <trkpt lon="7.245645" lat="53.618202">
        <ele>479.002</ele>
        <time>2026-07-09T17:32:27.688Z</time>
      </trkpt>
      <trkpt lon="7.244048" lat="53.616235">
        <ele>472.44</ele>
        <time>2026-07-09T17:32:30.264Z</time>
      </trkpt>
      <trkpt lon="7.243239" lat="53.615329">
        <ele>466.704</ele>
        <time>2026-07-09T17:32:31.532Z</time>
      </trkpt>
      <trkpt lon="7.241825" lat="53.614094">
        <ele>466.693</ele>
        <time>2026-07-09T17:32:33.492Z</time>
      </trkpt>
      <trkpt lon="7.240408" lat="53.613032">
        <ele>454.307</ele>
        <time>2026-07-09T17:32:35.400Z</time>
      </trkpt>
      <trkpt lon="7.238851" lat="53.612068">
        <ele>430.198</ele>
        <time>2026-07-09T17:32:37.368Z</time>
      </trkpt>
      <trkpt lon="7.237764" lat="53.611520">
        <ele>411.13</ele>
        <time>2026-07-09T17:32:38.672Z</time>
      </trkpt>
      <trkpt lon="7.236033" lat="53.610823">
        <ele>377.244</ele>
        <time>2026-07-09T17:32:40.656Z</time>
      </trkpt>
      <trkpt lon="7.234326" lat="53.610224">
        <ele>337.256</ele>
        <time>2026-07-09T17:32:42.620Z</time>
      </trkpt>
      <trkpt lon="7.232702" lat="53.609665">
        <ele>303.043</ele>
        <time>2026-07-09T17:32:44.524Z</time>
      </trkpt>
      <trkpt lon="7.230531" lat="53.608954">
        <ele>268.399</ele>
        <time>2026-07-09T17:32:47.084Z</time>
      </trkpt>
      <trkpt lon="7.227865" lat="53.608131">
        <ele>238.779</ele>
        <time>2026-07-09T17:32:50.340Z</time>
      </trkpt>
      <trkpt lon="7.226797" lat="53.607866">
        <ele>229.761</ele>
        <time>2026-07-09T17:32:51.628Z</time>
      </trkpt>
      <trkpt lon="7.225639" lat="53.607658">
        <ele>218.427</ele>
        <time>2026-07-09T17:32:52.972Z</time>
      </trkpt>
      <trkpt lon="7.223913" lat="53.607490">
        <ele>199.277</ele>
        <time>2026-07-09T17:32:54.872Z</time>
      </trkpt>
      <trkpt lon="7.222727" lat="53.607457">
        <ele>185.869</ele>
        <time>2026-07-09T17:32:56.140Z</time>
      </trkpt>
      <trkpt lon="7.220908" lat="53.607510">
        <ele>166.873</ele>
        <time>2026-07-09T17:32:58.076Z</time>
      </trkpt>
      <trkpt lon="7.219118" lat="53.607682">
        <ele>151.255</ele>
        <time>2026-07-09T17:33:00.008Z</time>
      </trkpt>
      <trkpt lon="7.217378" lat="53.607984">
        <ele>137.985</ele>
        <time>2026-07-09T17:33:01.940Z</time>
      </trkpt>
      <trkpt lon="7.215125" lat="53.608559">
        <ele>123.248</ele>
        <time>2026-07-09T17:33:04.612Z</time>
      </trkpt>
      <trkpt lon="7.212593" lat="53.609369">
        <ele>110.279</ele>
        <time>2026-07-09T17:33:07.844Z</time>
      </trkpt>
      <trkpt lon="7.210694" lat="53.610145">
        <ele>105.041</ele>
        <time>2026-07-09T17:33:10.480Z</time>
      </trkpt>
      <trkpt lon="7.208560" lat="53.611224">
        <ele>92.1604</ele>
        <time>2026-07-09T17:33:13.708Z</time>
      </trkpt>
      <trkpt lon="7.205619" lat="53.613174">
        <ele>79.88</ele>
        <time>2026-07-09T17:33:18.816Z</time>
      </trkpt>
      <trkpt lon="7.204000" lat="53.614416">
        <ele>89.6331</ele>
        <time>2026-07-09T17:33:22.028Z</time>
      </trkpt>
      <trkpt lon="7.202842" lat="53.615373">
        <ele>99.2862</ele>
        <time>2026-07-09T17:33:24.760Z</time>
      </trkpt>
      <trkpt lon="7.200818" lat="53.617244">
        <ele>97.7264</ele>
        <time>2026-07-09T17:33:30.656Z</time>
      </trkpt>
      <trkpt lon="7.198546" lat="53.619999">
        <ele>76.9784</ele>
        <time>2026-07-09T17:33:39.160Z</time>
      </trkpt>
      <trkpt lon="7.196096" lat="53.623739">
        <ele>60.0619</ele>
        <time>2026-07-09T17:33:49.608Z</time>
      </trkpt>
      <trkpt lon="7.194492" lat="53.626524">
        <ele>41.0574</ele>
        <time>2026-07-09T17:33:57.308Z</time>
      </trkpt>
      <trkpt lon="7.193338" lat="53.628333">
        <ele>23.6249</ele>
        <time>2026-07-09T17:34:02.556Z</time>
      </trkpt>
      <trkpt lon="7.192382" lat="53.629799">
        <ele>6.61819</ele>
        <time>2026-07-09T17:34:07.092Z</time>
      </trkpt>
      <trkpt lon="7.191679" lat="53.630896">
        <ele>2.55231</ele>
        <time>2026-07-09T17:34:10.992Z</time>
      </trkpt>
      <trkpt lon="7.191173" lat="53.631667">
        <ele>1.88216</ele>
        <time>2026-07-09T17:34:14.252Z</time>
      </trkpt>
      <trkpt lon="7.191031" lat="53.631897">
        <ele>2.08186</ele>
        <time>2026-07-09T17:34:15.560Z</time>
      </trkpt>
      <trkpt lon="7.190845" lat="53.632206">
        <ele>2.35424</ele>
        <time>2026-07-09T17:34:18.228Z</time>
      </trkpt>
      <trkpt lon="7.190746" lat="53.632408">
        <ele>2.46395</ele>
        <time>2026-07-09T17:34:20.184Z</time>
      </trkpt>
      <trkpt lon="7.190736" lat="53.632471">
        <ele>2.46352</ele>
        <time>2026-07-09T17:34:20.840Z</time>
      </trkpt>
      <trkpt lon="7.190749" lat="53.632527">
        <ele>2.4386</ele>
        <time>2026-07-09T17:34:21.472Z</time>
      </trkpt>
      <trkpt lon="7.190785" lat="53.632580">
        <ele>2.37426</ele>
        <time>2026-07-09T17:34:22.140Z</time>
      </trkpt>
      <trkpt lon="7.190837" lat="53.632623">
        <ele>2.27719</ele>
        <time>2026-07-09T17:34:22.772Z</time>
      </trkpt>
      <trkpt lon="7.190904" lat="53.632655">
        <ele>2.14266</ele>
        <time>2026-07-09T17:34:23.412Z</time>
      </trkpt>
      <trkpt lon="7.190985" lat="53.632671">
        <ele>2.07904</ele>
        <time>2026-07-09T17:34:24.076Z</time>
      </trkpt>
      <trkpt lon="7.191063" lat="53.632668">
        <ele>2.03356</ele>
        <time>2026-07-09T17:34:24.724Z</time>
      </trkpt>
      <trkpt lon="7.191125" lat="53.632649">
        <ele>1.97934</ele>
        <time>2026-07-09T17:34:25.372Z</time>
      </trkpt>
      <trkpt lon="7.191156" lat="53.632625">
        <ele>1.94251</ele>
        <time>2026-07-09T17:34:26.040Z</time>
      </trkpt>
      <trkpt lon="7.191170" lat="53.632608">
        <ele>1.92825</ele>
        <time>2026-07-09T17:34:26.708Z</time>
      </trkpt>
      <trkpt lon="7.191185" lat="53.632584">
        <ele>1.9117</ele>
        <time>2026-07-09T17:34:33.796Z</time>
      </trkpt>
      <trkpt lon="7.191197" lat="53.632559">
        <ele>1.90206</ele>
        <time>2026-07-09T17:34:44.228Z</time>
      </trkpt>
      <trkpt lon="7.191203" lat="53.632547">
        <ele>1.89901</ele>
        <time>2026-07-09T17:34:54.648Z</time>
      </trkpt>
      <trkpt lon="7.191220" lat="53.632514">
        <ele>1.88927</ele>
        <time>2026-07-09T17:39:46.068Z</time>
      </trkpt>
      <trkpt lon="7.191358" lat="53.632299">
        <ele>1.73892</ele>
        <time>2026-07-09T17:39:50.576Z</time>
      </trkpt>
      <trkpt lon="7.191974" lat="53.631488">
        <ele>1.65754</ele>
        <time>2026-07-09T17:40:00.924Z</time>
      </trkpt>
      <trkpt lon="7.192272" lat="53.631086">
        <ele>2.01279</ele>
        <time>2026-07-09T17:40:05.424Z</time>
      </trkpt>
      <trkpt lon="7.192288" lat="53.631057">
        <ele>2.03497</ele>
        <time>2026-07-09T17:40:07.352Z</time>
      </trkpt>
      <trkpt lon="7.192671" lat="53.630355">
        <ele>2.36319</ele>
        <time>2026-07-09T17:40:35.840Z</time>
      </trkpt>
    </trkseg>
    <trkseg>
      <trkpt lon="7.497357" lat="53.742674">
        <ele>1.84366</ele>
        <time>2026-07-09T17:40:52.348Z</time>
      </trkpt>
      <trkpt lon="7.501207" lat="53.743905">
        <ele>2.47226</ele>
        <time>2026-07-09T17:41:36.000Z</time>
      </trkpt>
      <trkpt lon="7.501165" lat="53.743887">
        <ele>2.35294</ele>
        <time>2026-07-09T17:41:56.408Z</time>
      </trkpt>
      <trkpt lon="7.501111" lat="53.743863">
        <ele>2.29585</ele>
        <time>2026-07-09T17:48:13.620Z</time>
      </trkpt>
      <trkpt lon="7.500892" lat="53.743759">
        <ele>2.10174</ele>
        <time>2026-07-09T17:48:15.556Z</time>
      </trkpt>
      <trkpt lon="7.500520" lat="53.743577">
        <ele>1.90024</ele>
        <time>2026-07-09T17:48:17.488Z</time>
      </trkpt>
      <trkpt lon="7.499997" lat="53.743355">
        <ele>1.87537</ele>
        <time>2026-07-09T17:48:19.388Z</time>
      </trkpt>
      <trkpt lon="7.499087" lat="53.742985">
        <ele>1.92129</ele>
        <time>2026-07-09T17:48:21.952Z</time>
      </trkpt>
      <trkpt lon="7.497982" lat="53.742528">
        <ele>1.51071</ele>
        <time>2026-07-09T17:48:24.552Z</time>
      </trkpt>
      <trkpt lon="7.496101" lat="53.741744">
        <ele>2.73736</ele>
        <time>2026-07-09T17:48:28.356Z</time>
      </trkpt>
      <trkpt lon="7.493927" lat="53.740842">
        <ele>5.86959</ele>
        <time>2026-07-09T17:48:32.248Z</time>
      </trkpt>
      <trkpt lon="7.491740" lat="53.739914">
        <ele>23.7894</ele>
        <time>2026-07-09T17:48:36.156Z</time>
      </trkpt>
      <trkpt lon="7.489642" lat="53.738961">
        <ele>42.4177</ele>
        <time>2026-07-09T17:48:40.064Z</time>
      </trkpt>
      <trkpt lon="7.486693" lat="53.737603">
        <ele>54.6854</ele>
        <time>2026-07-09T17:48:45.264Z</time>
      </trkpt>
      <trkpt lon="7.484188" lat="53.736453">
        <ele>61.9165</ele>
        <time>2026-07-09T17:48:49.168Z</time>
      </trkpt>
      <trkpt lon="7.483376" lat="53.735994">
        <ele>65.4095</ele>
        <time>2026-07-09T17:48:50.468Z</time>
      </trkpt>
      <trkpt lon="7.482645" lat="53.735471">
        <ele>70.6932</ele>
        <time>2026-07-09T17:48:51.764Z</time>
      </trkpt>
      <trkpt lon="7.482043" lat="53.734906">
        <ele>77.3016</ele>
        <time>2026-07-09T17:48:53.036Z</time>
      </trkpt>
      <trkpt lon="7.481547" lat="53.734290">
        <ele>83.4135</ele>
        <time>2026-07-09T17:48:54.300Z</time>
      </trkpt>
      <trkpt lon="7.481175" lat="53.733643">
        <ele>88.9781</ele>
        <time>2026-07-09T17:48:55.568Z</time>
      </trkpt>
      <trkpt lon="7.480932" lat="53.732954">
        <ele>94.6815</ele>
        <time>2026-07-09T17:48:56.860Z</time>
      </trkpt>
      <trkpt lon="7.480835" lat="53.732253">
        <ele>101.227</ele>
        <time>2026-07-09T17:48:58.168Z</time>
      </trkpt>
      <trkpt lon="7.480871" lat="53.731567">
        <ele>109.281</ele>
        <time>2026-07-09T17:48:59.460Z</time>
      </trkpt>
      <trkpt lon="7.481027" lat="53.730883">
        <ele>117.595</ele>
        <time>2026-07-09T17:49:00.748Z</time>
      </trkpt>
      <trkpt lon="7.481291" lat="53.730254">
        <ele>125.701</ele>
        <time>2026-07-09T17:49:02.028Z</time>
      </trkpt>
      <trkpt lon="7.481659" lat="53.729660">
        <ele>134.564</ele>
        <time>2026-07-09T17:49:03.276Z</time>
      </trkpt>
      <trkpt lon="7.482120" lat="53.729098">
        <ele>143.645</ele>
        <time>2026-07-09T17:49:04.592Z</time>
      </trkpt>
      <trkpt lon="7.482644" lat="53.728592">
        <ele>151.109</ele>
        <time>2026-07-09T17:49:05.860Z</time>
      </trkpt>
      <trkpt lon="7.483238" lat="53.728127">
        <ele>156.194</ele>
        <time>2026-07-09T17:49:07.124Z</time>
      </trkpt>
      <trkpt lon="7.484266" lat="53.727485">
        <ele>158.805</ele>
        <time>2026-07-09T17:49:09.064Z</time>
      </trkpt>
      <trkpt lon="7.485412" lat="53.726916">
        <ele>157.043</ele>
        <time>2026-07-09T17:49:10.964Z</time>
      </trkpt>
      <trkpt lon="7.487941" lat="53.725874">
        <ele>152.394</ele>
        <time>2026-07-09T17:49:14.784Z</time>
      </trkpt>
      <trkpt lon="7.489277" lat="53.725427">
        <ele>154.652</ele>
        <time>2026-07-09T17:49:16.700Z</time>
      </trkpt>
      <trkpt lon="7.490658" lat="53.725074">
        <ele>160.769</ele>
        <time>2026-07-09T17:49:18.584Z</time>
      </trkpt>
      <trkpt lon="7.492551" lat="53.724727">
        <ele>168.883</ele>
        <time>2026-07-09T17:49:21.164Z</time>
      </trkpt>
      <trkpt lon="7.495469" lat="53.724398">
        <ele>173.846</ele>
        <time>2026-07-09T17:49:25.068Z</time>
      </trkpt>
      <trkpt lon="7.498004" lat="53.724232">
        <ele>170.38</ele>
        <time>2026-07-09T17:49:28.332Z</time>
      </trkpt>
      <trkpt lon="7.499521" lat="53.724216">
        <ele>170.042</ele>
        <time>2026-07-09T17:49:30.232Z</time>
      </trkpt>
      <trkpt lon="7.500554" lat="53.724275">
        <ele>171.995</ele>
        <time>2026-07-09T17:49:31.516Z</time>
      </trkpt>
      <trkpt lon="7.501540" lat="53.724387">
        <ele>175.623</ele>
        <time>2026-07-09T17:49:32.792Z</time>
      </trkpt>
      <trkpt lon="7.502485" lat="53.724550">
        <ele>181.082</ele>
        <time>2026-07-09T17:49:34.064Z</time>
      </trkpt>
      <trkpt lon="7.503408" lat="53.724765">
        <ele>188.113</ele>
        <time>2026-07-09T17:49:35.364Z</time>
      </trkpt>
      <trkpt lon="7.504251" lat="53.725013">
        <ele>195.694</ele>
        <time>2026-07-09T17:49:36.628Z</time>
      </trkpt>
      <trkpt lon="7.505412" lat="53.725440">
        <ele>206.532</ele>
        <time>2026-07-09T17:49:38.520Z</time>
      </trkpt>
      <trkpt lon="7.521413" lat="53.733426">
        <ele>212.525</ele>
        <time>2026-07-09T17:50:06.500Z</time>
      </trkpt>
      <trkpt lon="7.523026" lat="53.734391">
        <ele>218.463</ele>
        <time>2026-07-09T17:50:09.732Z</time>
      </trkpt>
      <trkpt lon="7.524162" lat="53.735203">
        <ele>221.594</ele>
        <time>2026-07-09T17:50:12.264Z</time>
      </trkpt>
      <trkpt lon="7.525949" lat="53.736778">
        <ele>223.045</ele>
        <time>2026-07-09T17:50:16.764Z</time>
      </trkpt>
      <trkpt lon="7.526787" lat="53.737769">
        <ele>226.011</ele>
        <time>2026-07-09T17:50:19.364Z</time>
      </trkpt>
      <trkpt lon="7.527224" lat="53.738531">
        <ele>230.299</ele>
        <time>2026-07-09T17:50:21.248Z</time>
      </trkpt>
      <trkpt lon="7.527416" lat="53.739072">
        <ele>230.266</ele>
        <time>2026-07-09T17:50:22.568Z</time>
      </trkpt>
      <trkpt lon="7.527534" lat="53.739883">
        <ele>226.031</ele>
        <time>2026-07-09T17:50:24.456Z</time>
      </trkpt>
      <trkpt lon="7.527494" lat="53.740430">
        <ele>222.521</ele>
        <time>2026-07-09T17:50:25.732Z</time>
      </trkpt>
      <trkpt lon="7.527261" lat="53.741246">
        <ele>215.654</ele>
        <time>2026-07-09T17:50:27.668Z</time>
      </trkpt>
      <trkpt lon="7.526862" lat="53.742025">
        <ele>205.813</ele>
        <time>2026-07-09T17:50:29.616Z</time>
      </trkpt>
      <trkpt lon="7.526344" lat="53.742743">
        <ele>193.991</ele>
        <time>2026-07-09T17:50:31.564Z</time>
      </trkpt>
      <trkpt lon="7.525292" lat="53.743819">
        <ele>175.282</ele>
        <time>2026-07-09T17:50:34.732Z</time>
      </trkpt>
      <trkpt lon="7.524796" lat="53.744211">
        <ele>168.219</ele>
        <time>2026-07-09T17:50:35.996Z</time>
      </trkpt>
      <trkpt lon="7.524226" lat="53.744586">
        <ele>161.589</ele>
        <time>2026-07-09T17:50:37.320Z</time>
      </trkpt>
      <trkpt lon="7.522656" lat="53.745395">
        <ele>146.679</ele>
        <time>2026-07-09T17:50:40.600Z</time>
      </trkpt>
      <trkpt lon="7.521964" lat="53.745668">
        <ele>139.1</ele>
        <time>2026-07-09T17:50:41.904Z</time>
      </trkpt>
      <trkpt lon="7.520850" lat="53.745986">
        <ele>132.02</ele>
        <time>2026-07-09T17:50:43.824Z</time>
      </trkpt>
      <trkpt lon="7.519665" lat="53.746205">
        <ele>125.054</ele>
        <time>2026-07-09T17:50:45.764Z</time>
      </trkpt>
      <trkpt lon="7.518840" lat="53.746296">
        <ele>119.102</ele>
        <time>2026-07-09T17:50:47.068Z</time>
      </trkpt>
      <trkpt lon="7.517553" lat="53.746343">
        <ele>110.875</ele>
        <time>2026-07-09T17:50:49.020Z</time>
      </trkpt>
      <trkpt lon="7.514474" lat="53.746323">
        <ele>89.1605</ele>
        <time>2026-07-09T17:50:53.568Z</time>
      </trkpt>
      <trkpt lon="7.511354" lat="53.746251">
        <ele>69.2843</ele>
        <time>2026-07-09T17:50:58.020Z</time>
      </trkpt>
      <trkpt lon="7.509988" lat="53.746133">
        <ele>63.4154</ele>
        <time>2026-07-09T17:51:00.020Z</time>
      </trkpt>
      <trkpt lon="7.507353" lat="53.745692">
        <ele>50.8588</ele>
        <time>2026-07-09T17:51:04.020Z</time>
      </trkpt>
      <trkpt lon="7.505733" lat="53.745316">
        <ele>35.4296</ele>
        <time>2026-07-09T17:51:06.556Z</time>
      </trkpt>
      <trkpt lon="7.503345" lat="53.744602">
        <ele>18.0977</ele>
        <time>2026-07-09T17:51:10.420Z</time>
      </trkpt>
      <trkpt lon="7.500169" lat="53.743418">
        <ele>2.16804</ele>
        <time>2026-07-09T17:51:16.288Z</time>
      </trkpt>
      <trkpt lon="7.499246" lat="53.743048">
        <ele>1.94882</ele>
        <time>2026-07-09T17:51:18.244Z</time>
      </trkpt>
      <trkpt lon="7.498195" lat="53.742619">
        <ele>1.51839</ele>
        <time>2026-07-09T17:51:20.784Z</time>
      </trkpt>
      <trkpt lon="7.497608" lat="53.742370">
        <ele>1.5957</ele>
        <time>2026-07-09T17:51:22.688Z</time>
      </trkpt>
      <trkpt lon="7.496658" lat="53.741971">
        <ele>2.39122</ele>
        <time>2026-07-09T17:51:26.528Z</time>
      </trkpt>
      <trkpt lon="7.496482" lat="53.741897">
        <ele>2.53225</ele>
        <time>2026-07-09T17:51:27.828Z</time>
      </trkpt>
      <trkpt lon="7.496367" lat="53.741855">
        <ele>2.60508</ele>
        <time>2026-07-09T17:51:29.092Z</time>
      </trkpt>
      <trkpt lon="7.496249" lat="53.741828">
        <ele>2.66383</ele>
        <time>2026-07-09T17:51:30.396Z</time>
      </trkpt>
      <trkpt lon="7.496178" lat="53.741819">
        <ele>2.69101</ele>
        <time>2026-07-09T17:51:31.052Z</time>
      </trkpt>
      <trkpt lon="7.496106" lat="53.741818">
        <ele>2.71729</ele>
        <time>2026-07-09T17:51:31.692Z</time>
      </trkpt>
      <trkpt lon="7.496027" lat="53.741827">
        <ele>2.70296</ele>
        <time>2026-07-09T17:51:32.364Z</time>
      </trkpt>
      <trkpt lon="7.495956" lat="53.741846">
        <ele>2.74203</ele>
        <time>2026-07-09T17:51:32.992Z</time>
      </trkpt>
      <trkpt lon="7.495896" lat="53.741873">
        <ele>2.77358</ele>
        <time>2026-07-09T17:51:33.624Z</time>
      </trkpt>
      <trkpt lon="7.495849" lat="53.741905">
        <ele>2.80364</ele>
        <time>2026-07-09T17:51:34.272Z</time>
      </trkpt>
      <trkpt lon="7.495814" lat="53.741939">
        <ele>2.82509</ele>
        <time>2026-07-09T17:51:34.940Z</time>
      </trkpt>
      <trkpt lon="7.495766" lat="53.742003">
        <ele>2.86471</ele>
        <time>2026-07-09T17:51:36.244Z</time>
      </trkpt>
      <trkpt lon="7.495753" lat="53.742031">
        <ele>2.86419</ele>
        <time>2026-07-09T17:51:36.908Z</time>
      </trkpt>
      <trkpt lon="7.495741" lat="53.742072">
        <ele>2.83633</ele>
        <time>2026-07-09T17:51:38.176Z</time>
      </trkpt>
      <trkpt lon="7.495740" lat="53.742090">
        <ele>2.83003</ele>
        <time>2026-07-09T17:51:39.440Z</time>
      </trkpt>
      <trkpt lon="7.495743" lat="53.742104">
        <ele>2.82783</ele>
        <time>2026-07-09T17:51:41.376Z</time>
      </trkpt>
      <trkpt lon="7.495756" lat="53.742134">
        <ele>2.81719</ele>
        <time>2026-07-09T17:51:42.628Z</time>
      </trkpt>
      <trkpt lon="7.495765" lat="53.742151">
        <ele>2.82502</ele>
        <time>2026-07-09T17:51:43.292Z</time>
      </trkpt>
      <trkpt lon="7.495791" lat="53.742181">
        <ele>2.83427</ele>
        <time>2026-07-09T17:51:44.576Z</time>
      </trkpt>
      <trkpt lon="7.495840" lat="53.742220">
        <ele>2.82571</ele>
        <time>2026-07-09T17:51:45.828Z</time>
      </trkpt>
      <trkpt lon="7.495941" lat="53.742282">
        <ele>2.75642</ele>
        <time>2026-07-09T17:51:47.092Z</time>
      </trkpt>
      <trkpt lon="7.496022" lat="53.742316">
        <ele>2.70117</ele>
        <time>2026-07-09T17:51:47.772Z</time>
      </trkpt>
      <trkpt lon="7.496380" lat="53.742450">
        <ele>2.43212</ele>
        <time>2026-07-09T17:51:49.708Z</time>
      </trkpt>
      <trkpt lon="7.498841" lat="53.743422">
        <ele>2.10119</ele>
        <time>2026-07-09T17:51:59.900Z</time>
      </trkpt>
      <trkpt lon="7.499421" lat="53.743661">
        <ele>1.97429</ele>
        <time>2026-07-09T17:52:03.100Z</time>
      </trkpt>
      <trkpt lon="7.499517" lat="53.743699">
        <ele>1.97496</ele>
        <time>2026-07-09T17:52:04.380Z</time>
      </trkpt>
      <trkpt lon="7.499531" lat="53.743705">
        <ele>1.96693</ele>
        <time>2026-07-09T17:52:14.676Z</time>
      </trkpt>
      <trkpt lon="7.499647" lat="53.743752">
        <ele>1.97568</ele>
        <time>2026-07-09T17:54:30.404Z</time>
      </trkpt>
      <trkpt lon="7.500214" lat="53.743964">
        <ele>2.04467</ele>
        <time>2026-07-09T17:54:34.884Z</time>
      </trkpt>
      <trkpt lon="7.500899" lat="53.744196">
        <ele>2.40207</ele>
        <time>2026-07-09T17:54:39.392Z</time>
      </trkpt>
      <trkpt lon="7.501261" lat="53.744276">
        <ele>2.67737</ele>
        <time>2026-07-09T17:54:43.324Z</time>
      </trkpt>
      <trkpt lon="7.501308" lat="53.744282">
        <ele>2.71947</ele>
        <time>2026-07-09T17:54:43.956Z</time>
      </trkpt>
      <trkpt lon="7.501356" lat="53.744284">
        <ele>2.75349</ele>
        <time>2026-07-09T17:54:44.624Z</time>
      </trkpt>
      <trkpt lon="7.501402" lat="53.744281">
        <ele>2.77803</ele>
        <time>2026-07-09T17:54:45.292Z</time>
      </trkpt>
      <trkpt lon="7.501445" lat="53.744275">
        <ele>2.80089</ele>
        <time>2026-07-09T17:54:45.960Z</time>
      </trkpt>
      <trkpt lon="7.501483" lat="53.744265">
        <ele>2.82331</ele>
        <time>2026-07-09T17:54:46.624Z</time>
      </trkpt>
      <trkpt lon="7.501515" lat="53.744252">
        <ele>2.84444</ele>
        <time>2026-07-09T17:54:47.248Z</time>
      </trkpt>
      <trkpt lon="7.501545" lat="53.744236">
        <ele>2.85183</ele>
        <time>2026-07-09T17:54:47.924Z</time>
      </trkpt>
      <trkpt lon="7.501570" lat="53.744218">
        <ele>2.84816</ele>
        <time>2026-07-09T17:54:48.580Z</time>
      </trkpt>
      <trkpt lon="7.501593" lat="53.744200">
        <ele>2.85747</ele>
        <time>2026-07-09T17:54:49.228Z</time>
      </trkpt>
      <trkpt lon="7.501612" lat="53.744183">
        <ele>2.88778</ele>
        <time>2026-07-09T17:54:49.844Z</time>
      </trkpt>
      <trkpt lon="7.501623" lat="53.744169">
        <ele>2.90857</ele>
        <time>2026-07-09T17:54:50.492Z</time>
      </trkpt>
      <trkpt lon="7.501638" lat="53.744144">
        <ele>2.91559</ele>
        <time>2026-07-09T17:54:51.756Z</time>
      </trkpt>
      <trkpt lon="7.501646" lat="53.744128">
        <ele>2.91392</ele>
        <time>2026-07-09T17:54:52.424Z</time>
      </trkpt>
      <trkpt lon="7.501650" lat="53.744112">
        <ele>2.91986</ele>
        <time>2026-07-09T17:54:53.048Z</time>
      </trkpt>
      <trkpt lon="7.501651" lat="53.744095">
        <ele>2.91303</ele>
        <time>2026-07-09T17:54:53.756Z</time>
      </trkpt>
      <trkpt lon="7.501650" lat="53.744080">
        <ele>2.90883</ele>
        <time>2026-07-09T17:54:54.424Z</time>
      </trkpt>
      <trkpt lon="7.501645" lat="53.744066">
        <ele>2.89624</ele>
        <time>2026-07-09T17:54:55.092Z</time>
      </trkpt>
      <trkpt lon="7.501637" lat="53.744053">
        <ele>2.88558</ele>
        <time>2026-07-09T17:54:55.728Z</time>
      </trkpt>
      <trkpt lon="7.501626" lat="53.744041">
        <ele>2.86924</ele>
        <time>2026-07-09T17:54:56.392Z</time>
      </trkpt>
      <trkpt lon="7.501615" lat="53.744032">
        <ele>2.85334</ele>
        <time>2026-07-09T17:54:57.052Z</time>
      </trkpt>
      <trkpt lon="7.501597" lat="53.744021">
        <ele>2.8295</ele>
        <time>2026-07-09T17:55:07.360Z</time>
      </trkpt>
      <trkpt lon="7.501569" lat="53.744006">
        <ele>2.79343</ele>
        <time>2026-07-09T17:57:11.120Z</time>
      </trkpt>
      <trkpt lon="7.501378" lat="53.743914">
        <ele>2.55297</ele>
        <time>2026-07-09T17:57:13.056Z</time>
      </trkpt>
      <trkpt lon="7.500996" lat="53.743762">
        <ele>2.17038</ele>
        <time>2026-07-09T17:57:14.948Z</time>
      </trkpt>
      <trkpt lon="7.500426" lat="53.743542">
        <ele>1.8796</ele>
        <time>2026-07-09T17:57:16.924Z</time>
      </trkpt>
      <trkpt lon="7.499728" lat="53.743261">
        <ele>1.92437</ele>
        <time>2026-07-09T17:57:18.860Z</time>
      </trkpt>
      <trkpt lon="7.498621" lat="53.742800">
        <ele>1.68803</ele>
        <time>2026-07-09T17:57:21.460Z</time>
      </trkpt>
      <trkpt lon="7.496982" lat="53.742115">
        <ele>2.08639</ele>
        <time>2026-07-09T17:57:24.728Z</time>
      </trkpt>
      <trkpt lon="7.495535" lat="53.741534">
        <ele>3.78832</ele>
        <time>2026-07-09T17:57:27.288Z</time>
      </trkpt>
      <trkpt lon="7.492523" lat="53.740268">
        <ele>22.6249</ele>
        <time>2026-07-09T17:57:32.496Z</time>
      </trkpt>
      <trkpt lon="7.490283" lat="53.739297">
        <ele>38.6849</ele>
        <time>2026-07-09T17:57:36.428Z</time>
      </trkpt>
      <trkpt lon="7.488595" lat="53.738751">
        <ele>45.6308</ele>
        <time>2026-07-09T17:57:39.064Z</time>
      </trkpt>
      <trkpt lon="7.487254" lat="53.738434">
        <ele>51.1394</ele>
        <time>2026-07-09T17:57:40.996Z</time>
      </trkpt>
      <trkpt lon="7.485778" lat="53.738190">
        <ele>58.8787</ele>
        <time>2026-07-09T17:57:42.996Z</time>
      </trkpt>
      <trkpt lon="7.483115" lat="53.737851">
        <ele>56.72</ele>
        <time>2026-07-09T17:57:46.260Z</time>
      </trkpt>
      <trkpt lon="7.480201" lat="53.737468">
        <ele>53.5265</ele>
        <time>2026-07-09T17:57:49.460Z</time>
      </trkpt>
      <trkpt lon="7.475844" lat="53.736748">
        <ele>63.287</ele>
        <time>2026-07-09T17:57:53.928Z</time>
      </trkpt>
      <trkpt lon="7.471803" lat="53.735987">
        <ele>59.3102</ele>
        <time>2026-07-09T17:57:57.756Z</time>
      </trkpt>
      <trkpt lon="7.466825" lat="53.734962">
        <ele>79.6152</ele>
        <time>2026-07-09T17:58:02.268Z</time>
      </trkpt>
      <trkpt lon="7.462416" lat="53.734046">
        <ele>102.085</ele>
        <time>2026-07-09T17:58:06.136Z</time>
      </trkpt>
      <trkpt lon="7.457185" lat="53.733004">
        <ele>126.06</ele>
        <time>2026-07-09T17:58:10.556Z</time>
      </trkpt>
      <trkpt lon="7.452602" lat="53.732119">
        <ele>150.688</ele>
        <time>2026-07-09T17:58:14.372Z</time>
      </trkpt>
      <trkpt lon="7.447019" lat="53.731082">
        <ele>174.66</ele>
        <time>2026-07-09T17:58:18.880Z</time>
      </trkpt>
      <trkpt lon="7.438924" lat="53.729599">
        <ele>199.463</ele>
        <time>2026-07-09T17:58:25.248Z</time>
      </trkpt>
      <trkpt lon="7.434203" lat="53.728727">
        <ele>206.898</ele>
        <time>2026-07-09T17:58:29.112Z</time>
      </trkpt>
      <trkpt lon="7.430617" lat="53.728057">
        <ele>198.234</ele>
        <time>2026-07-09T17:58:32.276Z</time>
      </trkpt>
      <trkpt lon="7.427243" lat="53.727416">
        <ele>187.921</ele>
        <time>2026-07-09T17:58:35.480Z</time>
      </trkpt>
      <trkpt lon="7.423451" lat="53.726613">
        <ele>167.834</ele>
        <time>2026-07-09T17:58:39.400Z</time>
      </trkpt>
      <trkpt lon="7.418116" lat="53.725485">
        <ele>145.671</ele>
        <time>2026-07-09T17:58:45.180Z</time>
      </trkpt>
      <trkpt lon="7.413906" lat="53.724851">
        <ele>136.641</ele>
        <time>2026-07-09T17:58:49.644Z</time>
      </trkpt>
      <trkpt lon="7.409458" lat="53.724467">
        <ele>119.829</ele>
        <time>2026-07-09T17:58:54.276Z</time>
      </trkpt>
      <trkpt lon="7.404501" lat="53.724254">
        <ele>99.5166</ele>
        <time>2026-07-09T17:58:59.348Z</time>
      </trkpt>
      <trkpt lon="7.398917" lat="53.724113">
        <ele>79.5508</ele>
        <time>2026-07-09T17:59:05.084Z</time>
      </trkpt>
      <trkpt lon="7.389118" lat="53.724224">
        <ele>60.1698</ele>
        <time>2026-07-09T17:59:15.384Z</time>
      </trkpt>
      <trkpt lon="7.383738" lat="53.724456">
        <ele>43.0616</ele>
        <time>2026-07-09T17:59:21.184Z</time>
      </trkpt>
      <trkpt lon="7.381524" lat="53.724548">
        <ele>35.1718</ele>
        <time>2026-07-09T17:59:23.752Z</time>
      </trkpt>
      <trkpt lon="7.378993" lat="53.724634">
        <ele>22.578</ele>
        <time>2026-07-09T17:59:27.004Z</time>
      </trkpt>
      <trkpt lon="7.376691" lat="53.724714">
        <ele>6.75514</ele>
        <time>2026-07-09T17:59:30.280Z</time>
      </trkpt>
      <trkpt lon="7.374688" lat="53.724809">
        <ele>2.60569</ele>
        <time>2026-07-09T17:59:33.448Z</time>
      </trkpt>
      <trkpt lon="7.373616" lat="53.724860">
        <ele>0.778342</ele>
        <time>2026-07-09T17:59:35.384Z</time>
      </trkpt>
      <trkpt lon="7.373006" lat="53.724881">
        <ele>0.662909</ele>
        <time>2026-07-09T17:59:36.716Z</time>
      </trkpt>
      <trkpt lon="7.372525" lat="53.724895">
        <ele>0.702857</ele>
        <time>2026-07-09T17:59:38.008Z</time>
      </trkpt>
      <trkpt lon="7.372168" lat="53.724904">
        <ele>0.756353</ele>
        <time>2026-07-09T17:59:39.316Z</time>
      </trkpt>
      <trkpt lon="7.371938" lat="53.724909">
        <ele>0.738598</ele>
        <time>2026-07-09T17:59:40.584Z</time>
      </trkpt>
      <trkpt lon="7.371696" lat="53.724911">
        <ele>0.674112</ele>
        <time>2026-07-09T17:59:43.752Z</time>
      </trkpt>
      <trkpt lon="7.371659" lat="53.724911">
        <ele>0.665232</ele>
        <time>2026-07-09T17:59:45.052Z</time>
      </trkpt>
      <trkpt lon="7.371640" lat="53.724909">
        <ele>0.660806</ele>
        <time>2026-07-09T17:59:46.316Z</time>
      </trkpt>
      <trkpt lon="7.371625" lat="53.724908">
        <ele>0.655619</ele>
        <time>2026-07-09T17:59:46.980Z</time>
      </trkpt>
      <trkpt lon="7.371575" lat="53.724897">
        <ele>0.6378</ele>
        <time>2026-07-09T17:59:48.248Z</time>
      </trkpt>
      <trkpt lon="7.371547" lat="53.724888">
        <ele>0.626119</ele>
        <time>2026-07-09T17:59:48.884Z</time>
      </trkpt>
      <trkpt lon="7.371521" lat="53.724877">
        <ele>0.609784</ele>
        <time>2026-07-09T17:59:49.516Z</time>
      </trkpt>
      <trkpt lon="7.371497" lat="53.724862">
        <ele>0.579466</ele>
        <time>2026-07-09T17:59:50.148Z</time>
      </trkpt>
      <trkpt lon="7.371477" lat="53.724847">
        <ele>0.572393</ele>
        <time>2026-07-09T17:59:50.780Z</time>
      </trkpt>
      <trkpt lon="7.371464" lat="53.724832">
        <ele>0.584373</ele>
        <time>2026-07-09T17:59:51.404Z</time>
      </trkpt>
      <trkpt lon="7.371457" lat="53.724816">
        <ele>0.609795</ele>
        <time>2026-07-09T17:59:52.084Z</time>
      </trkpt>
      <trkpt lon="7.371455" lat="53.724803">
        <ele>0.635882</ele>
        <time>2026-07-09T17:59:52.716Z</time>
      </trkpt>
      <trkpt lon="7.371456" lat="53.724791">
        <ele>0.653546</ele>
        <time>2026-07-09T17:59:53.348Z</time>
      </trkpt>
      <trkpt lon="7.371464" lat="53.724765">
        <ele>0.717866</ele>
        <time>2026-07-09T18:00:03.696Z</time>
      </trkpt>
    </trkseg>
    <trkseg>
      <trkpt lon="7.916239" lat="54.187408">
        <ele>2.18401</ele>
        <time>2026-07-09T18:01:46.164Z</time>
      </trkpt>
      <trkpt lon="7.916610" lat="54.183395">
        <ele>4.17477</ele>
        <time>2026-07-09T18:02:07.184Z</time>
      </trkpt>
      <trkpt lon="7.916577" lat="54.183422">
        <ele>4.13299</ele>
        <time>2026-07-09T18:05:05.584Z</time>
      </trkpt>
      <trkpt lon="7.916425" lat="54.183546">
        <ele>3.92884</ele>
        <time>2026-07-09T18:05:07.500Z</time>
      </trkpt>
      <trkpt lon="7.916158" lat="54.183762">
        <ele>3.55468</ele>
        <time>2026-07-09T18:05:09.416Z</time>
      </trkpt>
      <trkpt lon="7.915786" lat="54.184060">
        <ele>3.22386</ele>
        <time>2026-07-09T18:05:11.344Z</time>
      </trkpt>
      <trkpt lon="7.915174" lat="54.184567">
        <ele>3.3452</ele>
        <time>2026-07-09T18:05:13.912Z</time>
      </trkpt>
      <trkpt lon="7.914445" lat="54.185158">
        <ele>3.17562</ele>
        <time>2026-07-09T18:05:16.420Z</time>
      </trkpt>
      <trkpt lon="7.913349" lat="54.186059">
        <ele>2.88475</ele>
        <time>2026-07-09T18:05:19.644Z</time>
      </trkpt>
      <trkpt lon="7.911662" lat="54.187403">
        <ele>22.9625</ele>
        <time>2026-07-09T18:05:24.104Z</time>
      </trkpt>
      <trkpt lon="7.910699" lat="54.188116">
        <ele>45.206</ele>
        <time>2026-07-09T18:05:26.660Z</time>
      </trkpt>
      <trkpt lon="7.909743" lat="54.188780">
        <ele>67.2167</ele>
        <time>2026-07-09T18:05:29.204Z</time>
      </trkpt>
      <trkpt lon="7.908479" lat="54.189627">
        <ele>90.048</ele>
        <time>2026-07-09T18:05:32.380Z</time>
      </trkpt>
      <trkpt lon="7.907146" lat="54.190472">
        <ele>113.512</ele>
        <time>2026-07-09T18:05:35.564Z</time>
      </trkpt>
      <trkpt lon="7.905712" lat="54.191280">
        <ele>138.153</ele>
        <time>2026-07-09T18:05:38.740Z</time>
      </trkpt>
      <trkpt lon="7.903772" lat="54.192223">
        <ele>161.211</ele>
        <time>2026-07-09T18:05:42.572Z</time>
      </trkpt>
      <trkpt lon="7.902750" lat="54.192785">
        <ele>165.282</ele>
        <time>2026-07-09T18:05:44.496Z</time>
      </trkpt>
      <trkpt lon="7.901808" lat="54.193432">
        <ele>167.817</ele>
        <time>2026-07-09T18:05:46.380Z</time>
      </trkpt>
      <trkpt lon="7.900966" lat="54.194190">
        <ele>172.519</ele>
        <time>2026-07-09T18:05:48.300Z</time>
      </trkpt>
      <trkpt lon="7.900493" lat="54.194743">
        <ele>178.376</ele>
        <time>2026-07-09T18:05:49.572Z</time>
      </trkpt>
      <trkpt lon="7.900112" lat="54.195325">
        <ele>187.881</ele>
        <time>2026-07-09T18:05:50.836Z</time>
      </trkpt>
      <trkpt lon="7.899833" lat="54.195924">
        <ele>200.643</ele>
        <time>2026-07-09T18:05:52.100Z</time>
      </trkpt>
      <trkpt lon="7.899571" lat="54.196858">
        <ele>222.04</ele>
        <time>2026-07-09T18:05:54.028Z</time>
      </trkpt>
      <trkpt lon="7.899332" lat="54.198102">
        <ele>251.488</ele>
        <time>2026-07-09T18:05:56.608Z</time>
      </trkpt>
      <trkpt lon="7.899137" lat="54.198710">
        <ele>265.504</ele>
        <time>2026-07-09T18:05:57.876Z</time>
      </trkpt>
      <trkpt lon="7.898850" lat="54.199317">
        <ele>279.939</ele>
        <time>2026-07-09T18:05:59.160Z</time>
      </trkpt>
      <trkpt lon="7.898265" lat="54.200184">
        <ele>300.894</ele>
        <time>2026-07-09T18:06:01.108Z</time>
      </trkpt>
      <trkpt lon="7.897484" lat="54.201006">
        <ele>321.983</ele>
        <time>2026-07-09T18:06:03.080Z</time>
      </trkpt>
      <trkpt lon="7.896547" lat="54.201741">
        <ele>342.631</ele>
        <time>2026-07-09T18:06:05.012Z</time>
      </trkpt>
      <trkpt lon="7.895481" lat="54.202380">
        <ele>362.455</ele>
        <time>2026-07-09T18:06:06.912Z</time>
      </trkpt>
      <trkpt lon="7.894263" lat="54.202941">
        <ele>382.252</ele>
        <time>2026-07-09T18:06:08.832Z</time>
      </trkpt>
      <trkpt lon="7.892912" lat="54.203406">
        <ele>402.061</ele>
        <time>2026-07-09T18:06:10.808Z</time>
      </trkpt>
      <trkpt lon="7.891467" lat="54.203757">
        <ele>421.673</ele>
        <time>2026-07-09T18:06:12.760Z</time>
      </trkpt>
      <trkpt lon="7.889999" lat="54.203984">
        <ele>440.24</ele>
        <time>2026-07-09T18:06:14.676Z</time>
      </trkpt>
      <trkpt lon="7.887978" lat="54.204128">
        <ele>465.365</ele>
        <time>2026-07-09T18:06:17.212Z</time>
      </trkpt>
      <trkpt lon="7.884819" lat="54.204147">
        <ele>505.044</ele>
        <time>2026-07-09T18:06:21.080Z</time>
      </trkpt>
      <trkpt lon="7.881053" lat="54.204076">
        <ele>551.055</ele>
        <time>2026-07-09T18:06:25.608Z</time>
      </trkpt>
      <trkpt lon="7.877243" lat="54.203994">
        <ele>596.47</ele>
        <time>2026-07-09T18:06:30.176Z</time>
      </trkpt>
      <trkpt lon="7.872963" lat="54.203939">
        <ele>646.128</ele>
        <time>2026-07-09T18:06:35.308Z</time>
      </trkpt>
      <trkpt lon="7.868686" lat="54.203936">
        <ele>695.019</ele>
        <time>2026-07-09T18:06:40.424Z</time>
      </trkpt>
      <trkpt lon="7.864362" lat="54.203969">
        <ele>744.421</ele>
        <time>2026-07-09T18:06:45.628Z</time>
      </trkpt>
      <trkpt lon="7.859521" lat="54.204034">
        <ele>797.217</ele>
        <time>2026-07-09T18:06:51.508Z</time>
      </trkpt>
      <trkpt lon="7.852744" lat="54.204251">
        <ele>841.251</ele>
        <time>2026-07-09T18:06:59.276Z</time>
      </trkpt>
      <trkpt lon="7.847230" lat="54.204589">
        <ele>860.308</ele>
        <time>2026-07-09T18:07:05.024Z</time>
      </trkpt>
      <trkpt lon="7.841310" lat="54.205103">
        <ele>872.17</ele>
        <time>2026-07-09T18:07:10.744Z</time>
      </trkpt>
      <trkpt lon="7.834862" lat="54.205806">
        <ele>878.242</ele>
        <time>2026-07-09T18:07:16.508Z</time>
      </trkpt>
      <trkpt lon="7.827934" lat="54.206703">
        <ele>880.044</ele>
        <time>2026-07-09T18:07:22.308Z</time>
      </trkpt>
      <trkpt lon="7.819761" lat="54.207931">
        <ele>878.045</ele>
        <time>2026-07-09T18:07:28.776Z</time>
      </trkpt>
      <trkpt lon="7.809598" lat="54.209695">
        <ele>871.387</ele>
        <time>2026-07-09T18:07:36.412Z</time>
      </trkpt>
      <trkpt lon="7.797100" lat="54.212198">
        <ele>861.277</ele>
        <time>2026-07-09T18:07:45.376Z</time>
      </trkpt>
      <trkpt lon="7.916239" lat="54.187408">
        <ele>2.18663</ele>
        <time>2026-07-09T18:07:57.908Z</time>
      </trkpt>
      <trkpt lon="7.916608" lat="54.183396">
        <ele>4.1774</ele>
        <time>2026-07-09T18:08:10.196Z</time>
      </trkpt>
      <trkpt lon="7.916571" lat="54.183428">
        <ele>4.12512</ele>
        <time>2026-07-09T18:09:14.456Z</time>
      </trkpt>
      <trkpt lon="7.916477" lat="54.183507">
        <ele>3.99984</ele>
        <time>2026-07-09T18:09:15.756Z</time>
      </trkpt>
      <trkpt lon="7.916230" lat="54.183707">
        <ele>3.64463</ele>
        <time>2026-07-09T18:09:17.668Z</time>
      </trkpt>
      <trkpt lon="7.915853" lat="54.184000">
        <ele>3.25387</ele>
        <time>2026-07-09T18:09:19.616Z</time>
      </trkpt>
      <trkpt lon="7.915375" lat="54.184379">
        <ele>3.27793</ele>
        <time>2026-07-09T18:09:21.572Z</time>
      </trkpt>
      <trkpt lon="7.914604" lat="54.185005">
        <ele>3.31406</ele>
        <time>2026-07-09T18:09:24.188Z</time>
      </trkpt>
      <trkpt lon="7.913714" lat="54.185739">
        <ele>2.43132</ele>
        <time>2026-07-09T18:09:26.764Z</time>
      </trkpt>
      <trkpt lon="7.911750" lat="54.187364">
        <ele>18.6978</ele>
        <time>2026-07-09T18:09:31.872Z</time>
      </trkpt>
      <trkpt lon="7.910807" lat="54.188161">
        <ele>38.7204</ele>
        <time>2026-07-09T18:09:34.432Z</time>
      </trkpt>
      <trkpt lon="7.909638" lat="54.189137">
        <ele>56.8174</ele>
        <time>2026-07-09T18:09:37.588Z</time>
      </trkpt>
      <trkpt lon="7.908940" lat="54.189783">
        <ele>63.339</ele>
        <time>2026-07-09T18:09:39.508Z</time>
      </trkpt>
      <trkpt lon="7.907431" lat="54.191447">
        <ele>85.6636</ele>
        <time>2026-07-09T18:09:43.952Z</time>
      </trkpt>
      <trkpt lon="7.906913" lat="54.191925">
        <ele>94.7508</ele>
        <time>2026-07-09T18:09:45.248Z</time>
      </trkpt>
      <trkpt lon="7.905985" lat="54.192590">
        <ele>110.607</ele>
        <time>2026-07-09T18:09:47.200Z</time>
      </trkpt>
      <trkpt lon="7.905282" lat="54.192988">
        <ele>121.777</ele>
        <time>2026-07-09T18:09:48.496Z</time>
      </trkpt>
      <trkpt lon="7.904521" lat="54.193343">
        <ele>133.164</ele>
        <time>2026-07-09T18:09:49.772Z</time>
      </trkpt>
      <trkpt lon="7.903286" lat="54.193791">
        <ele>150.646</ele>
        <time>2026-07-09T18:09:51.668Z</time>
      </trkpt>
      <trkpt lon="7.901936" lat="54.194138">
        <ele>168.789</ele>
        <time>2026-07-09T18:09:53.592Z</time>
      </trkpt>
      <trkpt lon="7.900499" lat="54.194373">
        <ele>187.597</ele>
        <time>2026-07-09T18:09:55.524Z</time>
      </trkpt>
      <trkpt lon="7.899008" lat="54.194494">
        <ele>206.952</ele>
        <time>2026-07-09T18:09:57.444Z</time>
      </trkpt>
      <trkpt lon="7.897508" lat="54.194498">
        <ele>225.94</ele>
        <time>2026-07-09T18:09:59.348Z</time>
      </trkpt>
      <trkpt lon="7.895477" lat="54.194374">
        <ele>253.648</ele>
        <time>2026-07-09T18:10:01.900Z</time>
      </trkpt>
      <trkpt lon="7.894462" lat="54.194328">
        <ele>268.187</ele>
        <time>2026-07-09T18:10:03.160Z</time>
      </trkpt>
      <trkpt lon="7.893404" lat="54.194328">
        <ele>282.522</ele>
        <time>2026-07-09T18:10:04.452Z</time>
      </trkpt>
      <trkpt lon="7.890853" lat="54.194492">
        <ele>314.226</ele>
        <time>2026-07-09T18:10:07.612Z</time>
      </trkpt>
      <trkpt lon="7.888298" lat="54.194677">
        <ele>348.132</ele>
        <time>2026-07-09T18:10:10.832Z</time>
      </trkpt>
      <trkpt lon="7.885790" lat="54.194833">
        <ele>380.782</ele>
        <time>2026-07-09T18:10:13.984Z</time>
      </trkpt>
      <trkpt lon="7.882749" lat="54.195025">
        <ele>418.777</ele>
        <time>2026-07-09T18:10:17.828Z</time>
      </trkpt>
      <trkpt lon="7.879724" lat="54.195233">
        <ele>455.967</ele>
        <time>2026-07-09T18:10:21.632Z</time>
      </trkpt>
      <trkpt lon="7.876237" lat="54.195509">
        <ele>499.2</ele>
        <time>2026-07-09T18:10:26.052Z</time>
      </trkpt>
      <trkpt lon="7.872709" lat="54.195821">
        <ele>541.981</ele>
        <time>2026-07-09T18:10:30.528Z</time>
      </trkpt>
      <trkpt lon="7.869197" lat="54.196158">
        <ele>583.635</ele>
        <time>2026-07-09T18:10:34.956Z</time>
      </trkpt>
      <trkpt lon="7.865176" lat="54.196579">
        <ele>630.616</ele>
        <time>2026-07-09T18:10:40.016Z</time>
      </trkpt>
      <trkpt lon="7.861053" lat="54.197054">
        <ele>678.623</ele>
        <time>2026-07-09T18:10:45.192Z</time>
      </trkpt>
      <trkpt lon="7.856460" lat="54.197636">
        <ele>729.482</ele>
        <time>2026-07-09T18:10:50.944Z</time>
      </trkpt>
      <trkpt lon="7.851627" lat="54.198359">
        <ele>749.991</ele>
        <time>2026-07-09T18:10:56.684Z</time>
      </trkpt>
      <trkpt lon="7.847507" lat="54.199078">
        <ele>751.462</ele>
        <time>2026-07-09T18:11:01.124Z</time>
      </trkpt>
      <trkpt lon="7.843090" lat="54.199939">
        <ele>748.273</ele>
        <time>2026-07-09T18:11:05.536Z</time>
      </trkpt>
      <trkpt lon="7.838321" lat="54.200959">
        <ele>743.691</ele>
        <time>2026-07-09T18:11:09.984Z</time>
      </trkpt>
      <trkpt lon="7.832522" lat="54.202308">
        <ele>736.216</ele>
        <time>2026-07-09T18:11:15.080Z</time>
      </trkpt>
      <trkpt lon="7.825684" lat="54.204041">
        <ele>728.136</ele>
        <time>2026-07-09T18:11:20.776Z</time>
      </trkpt>
      <trkpt lon="7.816915" lat="54.206470">
        <ele>716.042</ele>
        <time>2026-07-09T18:11:27.760Z</time>
      </trkpt>
      <trkpt lon="7.804556" lat="54.210244">
        <ele>699.086</ele>
        <time>2026-07-09T18:11:37.284Z</time>
      </trkpt>
      <trkpt lon="7.786284" lat="54.216131">
        <ele>676.871</ele>
        <time>2026-07-09T18:11:50.628Z</time>
      </trkpt>
      <trkpt lon="7.743693" lat="54.230206">
        <ele>677.327</ele>
        <time>2026-07-09T18:12:20.720Z</time>
      </trkpt>
      <trkpt lon="7.699905" lat="54.244680">
        <ele>680.187</ele>
        <time>2026-07-09T18:12:50.752Z</time>
      </trkpt>
    </trkseg>
    <trkseg>
      <trkpt lon="7.916239" lat="54.187408">
        <ele>2.18663</ele>
        <time>2026-07-09T18:13:04.188Z</time>
      </trkpt>
      <trkpt lon="7.916610" lat="54.183395">
        <ele>4.25365</ele>
        <time>2026-07-09T18:13:15.288Z</time>
      </trkpt>
      <trkpt lon="7.916569" lat="54.183426">
        <ele>4.12464</ele>
        <time>2026-07-09T18:13:27.944Z</time>
      </trkpt>
      <trkpt lon="7.916495" lat="54.183468">
        <ele>4.04243</ele>
        <time>2026-07-09T18:13:29.244Z</time>
      </trkpt>
      <trkpt lon="7.916334" lat="54.183541">
        <ele>3.89498</ele>
        <time>2026-07-09T18:13:32.444Z</time>
      </trkpt>
      <trkpt lon="7.916427" lat="54.183463">
        <ele>4.19065</ele>
        <time>2026-07-09T18:13:43.436Z</time>
      </trkpt>
      <trkpt lon="7.916498" lat="54.183402">
        <ele>4.28804</ele>
        <time>2026-07-09T18:13:44.704Z</time>
      </trkpt>
      <trkpt lon="7.916521" lat="54.183383">
        <ele>4.31977</ele>
        <time>2026-07-09T18:13:45.336Z</time>
      </trkpt>
      <trkpt lon="7.916560" lat="54.183358">
        <ele>4.36037</ele>
        <time>2026-07-09T18:13:45.976Z</time>
      </trkpt>
      <trkpt lon="7.916603" lat="54.183324">
        <ele>4.40464</ele>
        <time>2026-07-09T18:13:46.608Z</time>
      </trkpt>
      <trkpt lon="7.916647" lat="54.183287">
        <ele>4.45257</ele>
        <time>2026-07-09T18:13:47.256Z</time>
      </trkpt>
      <trkpt lon="7.916721" lat="54.183224">
        <ele>4.52993</ele>
        <time>2026-07-09T18:13:48.532Z</time>
      </trkpt>
      <trkpt lon="7.916853" lat="54.183112">
        <ele>4.63562</ele>
        <time>2026-07-09T18:13:49.796Z</time>
      </trkpt>
      <trkpt lon="7.916872" lat="54.183097">
        <ele>4.64518</ele>
        <time>2026-07-09T18:13:50.444Z</time>
      </trkpt>
      <trkpt lon="7.916881" lat="54.183089">
        <ele>4.64229</ele>
        <time>2026-07-09T18:13:51.744Z</time>
      </trkpt>
      <trkpt lon="7.916912" lat="54.183064">
        <ele>4.49884</ele>
        <time>2026-07-09T18:13:53.032Z</time>
      </trkpt>
      <trkpt lon="7.916900" lat="54.183074">
        <ele>4.61721</ele>
        <time>2026-07-09T18:13:59.368Z</time>
      </trkpt>
      <trkpt lon="7.916873" lat="54.183097">
        <ele>4.65042</ele>
        <time>2026-07-09T18:13:59.992Z</time>
      </trkpt>
      <trkpt lon="7.916903" lat="54.183071">
        <ele>4.61721</ele>
        <time>2026-07-09T18:14:03.196Z</time>
      </trkpt>
      <trkpt lon="7.916770" lat="54.183183">
        <ele>4.57367</ele>
        <time>2026-07-09T18:14:03.836Z</time>
      </trkpt>
      <trkpt lon="7.916808" lat="54.183151">
        <ele>4.49022</ele>
        <time>2026-07-09T18:14:05.772Z</time>
      </trkpt>
      <trkpt lon="7.916824" lat="54.183138">
        <ele>4.44086</ele>
        <time>2026-07-09T18:14:15.992Z</time>
      </trkpt>
      <trkpt lon="7.916736" lat="54.183212">
        <ele>4.36681</ele>
        <time>2026-07-09T18:14:26.280Z</time>
      </trkpt>
    </trkseg>
    <trkseg>
      <trkpt lon="7.909601" lat="53.787373">
        <ele>1.59943</ele>
        <time>2026-07-13T17:40:05.808Z</time>
      </trkpt>
    </trkseg>
    <trkseg>
      <trkpt lon="-122.294505" lat="47.518932">
        <ele>37.5963</ele>
        <time>2026-07-20T16:48:55.636Z</time>
      </trkpt>
    </trkseg>
    <trkseg>
      <trkpt lon="7.916097" lat="54.187679">
        <ele>2.97581</ele>
        <time>2026-07-20T16:52:52.556Z</time>
      </trkpt>
    </trkseg>
    <trkseg>
      <trkpt lon="-122.294505" lat="47.518932">
        <ele>38.2211</ele>
        <time>2026-07-20T17:06:07.920Z</time>
      </trkpt>
    </trkseg>
    <trkseg>
      <trkpt lon="7.916097" lat="54.187679">
        <ele>2.97581</ele>
        <time>2026-07-20T17:06:38.428Z</time>
      </trkpt>
      <trkpt lon="7.916125" lat="54.187656">
        <ele>2.65793</ele>
        <time>2026-07-20T17:39:39.416Z</time>
      </trkpt>
      <trkpt lon="7.916204" lat="54.187595">
        <ele>2.64817</ele>
        <time>2026-07-20T17:42:05.812Z</time>
      </trkpt>
      <trkpt lon="7.916263" lat="54.187548">
        <ele>2.62559</ele>
        <time>2026-07-20T17:42:07.816Z</time>
      </trkpt>
      <trkpt lon="7.916302" lat="54.187507">
        <ele>2.58561</ele>
        <time>2026-07-20T17:42:09.132Z</time>
      </trkpt>
      <trkpt lon="7.916378" lat="54.187396">
        <ele>1.85914</ele>
        <time>2026-07-20T17:42:11.820Z</time>
      </trkpt>
      <trkpt lon="7.916411" lat="54.187321">
        <ele>1.69618</ele>
        <time>2026-07-20T17:42:13.192Z</time>
      </trkpt>
      <trkpt lon="7.916418" lat="54.187280">
        <ele>1.67914</ele>
        <time>2026-07-20T17:42:13.860Z</time>
      </trkpt>
      <trkpt lon="7.916417" lat="54.187238">
        <ele>1.67357</ele>
        <time>2026-07-20T17:42:14.520Z</time>
      </trkpt>
      <trkpt lon="7.916405" lat="54.187193">
        <ele>1.69083</ele>
        <time>2026-07-20T17:42:15.196Z</time>
      </trkpt>
      <trkpt lon="7.916249" lat="54.186899">
        <ele>1.9178</ele>
        <time>2026-07-20T17:42:19.212Z</time>
      </trkpt>
      <trkpt lon="7.916216" lat="54.186846">
        <ele>1.98941</ele>
        <time>2026-07-20T17:42:19.888Z</time>
      </trkpt>
      <trkpt lon="7.915500" lat="54.185960">
        <ele>2.7611</ele>
        <time>2026-07-20T17:42:29.956Z</time>
      </trkpt>
      <trkpt lon="7.914933" lat="54.185300">
        <ele>3.30084</ele>
        <time>2026-07-20T17:42:36.708Z</time>
      </trkpt>
      <trkpt lon="7.914866" lat="54.185248">
        <ele>3.38902</ele>
        <time>2026-07-20T17:42:37.380Z</time>
      </trkpt>
      <trkpt lon="7.914788" lat="54.185209">
        <ele>3.46603</ele>
        <time>2026-07-20T17:42:38.036Z</time>
      </trkpt>
      <trkpt lon="7.914702" lat="54.185187">
        <ele>3.51857</ele>
        <time>2026-07-20T17:42:38.688Z</time>
      </trkpt>
      <trkpt lon="7.914605" lat="54.185182">
        <ele>3.56302</ele>
        <time>2026-07-20T17:42:39.364Z</time>
      </trkpt>
      <trkpt lon="7.914485" lat="54.185192">
        <ele>3.56366</ele>
        <time>2026-07-20T17:42:40.060Z</time>
      </trkpt>
      <trkpt lon="7.914188" lat="54.185239">
        <ele>3.66436</ele>
        <time>2026-07-20T17:42:41.404Z</time>
      </trkpt>
      <trkpt lon="7.914012" lat="54.185279">
        <ele>4.71228</ele>
        <time>2026-07-20T17:42:42.092Z</time>
      </trkpt>
      <trkpt lon="7.913851" lat="54.185330">
        <ele>6.17858</ele>
        <time>2026-07-20T17:42:42.740Z</time>
      </trkpt>
      <trkpt lon="7.913198" lat="54.185680">
        <ele>11.2841</ele>
        <time>2026-07-20T17:42:45.380Z</time>
      </trkpt>
      <trkpt lon="7.912565" lat="54.186172">
        <ele>21.1523</ele>
        <time>2026-07-20T17:42:48.068Z</time>
      </trkpt>
      <trkpt lon="7.911923" lat="54.186666">
        <ele>44.6312</ele>
        <time>2026-07-20T17:42:50.748Z</time>
      </trkpt>
      <trkpt lon="7.911478" lat="54.187017">
        <ele>66.2444</ele>
        <time>2026-07-20T17:42:52.732Z</time>
      </trkpt>
      <trkpt lon="7.910828" lat="54.187544">
        <ele>87.8346</ele>
        <time>2026-07-20T17:42:55.392Z</time>
      </trkpt>
      <trkpt lon="7.909980" lat="54.188309">
        <ele>111.315</ele>
        <time>2026-07-20T17:42:58.656Z</time>
      </trkpt>
      <trkpt lon="7.909169" lat="54.189207">
        <ele>133.183</ele>
        <time>2026-07-20T17:43:02.016Z</time>
      </trkpt>
      <trkpt lon="7.908309" lat="54.190401">
        <ele>156.96</ele>
        <time>2026-07-20T17:43:06.012Z</time>
      </trkpt>
      <trkpt lon="7.908047" lat="54.191065">
        <ele>166.405</ele>
        <time>2026-07-20T17:43:07.976Z</time>
      </trkpt>
      <trkpt lon="7.907933" lat="54.191784">
        <ele>176.268</ele>
        <time>2026-07-20T17:43:09.952Z</time>
      </trkpt>
      <trkpt lon="7.907989" lat="54.192542">
        <ele>187.824</ele>
        <time>2026-07-20T17:43:11.956Z</time>
      </trkpt>
      <trkpt lon="7.908218" lat="54.193287">
        <ele>200.139</ele>
        <time>2026-07-20T17:43:13.892Z</time>
      </trkpt>
      <trkpt lon="7.908650" lat="54.194029">
        <ele>214.195</ele>
        <time>2026-07-20T17:43:15.848Z</time>
      </trkpt>
      <trkpt lon="7.909071" lat="54.194510">
        <ele>224.064</ele>
        <time>2026-07-20T17:43:17.160Z</time>
      </trkpt>
      <trkpt lon="7.909588" lat="54.194965">
        <ele>234.361</ele>
        <time>2026-07-20T17:43:18.468Z</time>
      </trkpt>
      <trkpt lon="7.910204" lat="54.195397">
        <ele>244.153</ele>
        <time>2026-07-20T17:43:19.804Z</time>
      </trkpt>
      <trkpt lon="7.910905" lat="54.195783">
        <ele>253.888</ele>
        <time>2026-07-20T17:43:21.112Z</time>
      </trkpt>
      <trkpt lon="7.911694" lat="54.196123">
        <ele>263.642</ele>
        <time>2026-07-20T17:43:22.428Z</time>
      </trkpt>
      <trkpt lon="7.912578" lat="54.196416">
        <ele>273.201</ele>
        <time>2026-07-20T17:43:23.760Z</time>
      </trkpt>
      <trkpt lon="7.913533" lat="54.196653">
        <ele>281.826</ele>
        <time>2026-07-20T17:43:25.092Z</time>
      </trkpt>
      <trkpt lon="7.914549" lat="54.196828">
        <ele>289.976</ele>
        <time>2026-07-20T17:43:26.428Z</time>
      </trkpt>
      <trkpt lon="7.915595" lat="54.196936">
        <ele>297.408</ele>
        <time>2026-07-20T17:43:27.740Z</time>
      </trkpt>
      <trkpt lon="7.916678" lat="54.196974">
        <ele>304.402</ele>
        <time>2026-07-20T17:43:29.048Z</time>
      </trkpt>
      <trkpt lon="7.917805" lat="54.196938">
        <ele>311.301</ele>
        <time>2026-07-20T17:43:30.384Z</time>
      </trkpt>
      <trkpt lon="7.918922" lat="54.196828">
        <ele>318.127</ele>
        <time>2026-07-20T17:43:31.696Z</time>
      </trkpt>
      <trkpt lon="7.920073" lat="54.196637">
        <ele>325.368</ele>
        <time>2026-07-20T17:43:33.052Z</time>
      </trkpt>
      <trkpt lon="7.921175" lat="54.196374">
        <ele>332.423</ele>
        <time>2026-07-20T17:43:34.384Z</time>
      </trkpt>
      <trkpt lon="7.922216" lat="54.196044">
        <ele>339.26</ele>
        <time>2026-07-20T17:43:35.704Z</time>
      </trkpt>
      <trkpt lon="7.923203" lat="54.195646">
        <ele>346.214</ele>
        <time>2026-07-20T17:43:36.988Z</time>
      </trkpt>
      <trkpt lon="7.924100" lat="54.195203">
        <ele>353.528</ele>
        <time>2026-07-20T17:43:38.264Z</time>
      </trkpt>
      <trkpt lon="7.924988" lat="54.194676">
        <ele>362.098</ele>
        <time>2026-07-20T17:43:39.612Z</time>
      </trkpt>
      <trkpt lon="7.925765" lat="54.194122">
        <ele>370.935</ele>
        <time>2026-07-20T17:43:40.924Z</time>
      </trkpt>
      <trkpt lon="7.926453" lat="54.193526">
        <ele>379.911</ele>
        <time>2026-07-20T17:43:42.240Z</time>
      </trkpt>
      <trkpt lon="7.927045" lat="54.192876">
        <ele>388.751</ele>
        <time>2026-07-20T17:43:43.572Z</time>
      </trkpt>
      <trkpt lon="7.927513" lat="54.192198">
        <ele>397.256</ele>
        <time>2026-07-20T17:43:44.904Z</time>
      </trkpt>
      <trkpt lon="7.927872" lat="54.191500">
        <ele>406.483</ele>
        <time>2026-07-20T17:43:46.236Z</time>
      </trkpt>
      <trkpt lon="7.928124" lat="54.190801">
        <ele>416.129</ele>
        <time>2026-07-20T17:43:47.560Z</time>
      </trkpt>
      <trkpt lon="7.928275" lat="54.190078">
        <ele>426.673</ele>
        <time>2026-07-20T17:43:48.912Z</time>
      </trkpt>
      <trkpt lon="7.928321" lat="54.189362">
        <ele>437.43</ele>
        <time>2026-07-20T17:43:50.260Z</time>
      </trkpt>
      <trkpt lon="7.928224" lat="54.188334">
        <ele>453.119</ele>
        <time>2026-07-20T17:43:52.260Z</time>
      </trkpt>
      <trkpt lon="7.927756" lat="54.186431">
        <ele>484.603</ele>
        <time>2026-07-20T17:43:56.156Z</time>
      </trkpt>
      <trkpt lon="7.927306" lat="54.185208">
        <ele>504.435</ele>
        <time>2026-07-20T17:43:58.772Z</time>
      </trkpt>
      <trkpt lon="7.926056" lat="54.182760">
        <ele>487.366</ele>
        <time>2026-07-20T17:44:04.064Z</time>
      </trkpt>
      <trkpt lon="7.925502" lat="54.181719">
        <ele>465.333</ele>
        <time>2026-07-20T17:44:05.988Z</time>
      </trkpt>
      <trkpt lon="7.921892" lat="54.175614">
        <ele>444.656</ele>
        <time>2026-07-20T17:44:16.528Z</time>
      </trkpt>
      <trkpt lon="7.920557" lat="54.173924">
        <ele>474.129</ele>
        <time>2026-07-20T17:44:19.840Z</time>
      </trkpt>
      <trkpt lon="7.917945" lat="54.170794">
        <ele>500.509</ele>
        <time>2026-07-20T17:44:26.352Z</time>
      </trkpt>
      <trkpt lon="7.917357" lat="54.169752">
        <ele>505.406</ele>
        <time>2026-07-20T17:44:28.348Z</time>
      </trkpt>
      <trkpt lon="7.916925" lat="54.168637">
        <ele>510.039</ele>
        <time>2026-07-20T17:44:30.396Z</time>
      </trkpt>
      <trkpt lon="7.916565" lat="54.167036">
        <ele>516.886</ele>
        <time>2026-07-20T17:44:33.232Z</time>
      </trkpt>
      <trkpt lon="7.915989" lat="54.157391">
        <ele>558.221</ele>
        <time>2026-07-20T17:44:49.812Z</time>
      </trkpt>
      <trkpt lon="7.915718" lat="54.147723">
        <ele>601.223</ele>
        <time>2026-07-20T17:45:06.244Z</time>
      </trkpt>
      <trkpt lon="7.915655" lat="54.136979">
        <ele>646.017</ele>
        <time>2026-07-20T17:45:24.672Z</time>
      </trkpt>
      <trkpt lon="7.915638" lat="54.125970">
        <ele>693.867</ele>
        <time>2026-07-20T17:45:43.840Z</time>
      </trkpt>
      <trkpt lon="7.915614" lat="54.114912">
        <ele>743.202</ele>
        <time>2026-07-20T17:46:02.936Z</time>
      </trkpt>
      <trkpt lon="7.915580" lat="54.096937">
        <ele>782.566</ele>
        <time>2026-07-20T17:46:33.124Z</time>
      </trkpt>
      <trkpt lon="7.915605" lat="54.078342">
        <ele>783.61</ele>
        <time>2026-07-20T17:47:03.508Z</time>
      </trkpt>
      <trkpt lon="7.915611" lat="54.059448">
        <ele>784.096</ele>
        <time>2026-07-20T17:47:33.940Z</time>
      </trkpt>
      <trkpt lon="7.915602" lat="54.040748">
        <ele>782.311</ele>
        <time>2026-07-20T17:48:04.400Z</time>
      </trkpt>
      <trkpt lon="7.915619" lat="54.022149">
        <ele>783.38</ele>
        <time>2026-07-20T17:48:34.964Z</time>
      </trkpt>
      <trkpt lon="7.915563" lat="54.003476">
        <ele>782.528</ele>
        <time>2026-07-20T17:49:05.448Z</time>
      </trkpt>
      <trkpt lon="7.915560" lat="53.984804">
        <ele>781.471</ele>
        <time>2026-07-20T17:49:36.036Z</time>
      </trkpt>
      <trkpt lon="7.915618" lat="53.966261">
        <ele>781.371</ele>
        <time>2026-07-20T17:50:06.344Z</time>
      </trkpt>
      <trkpt lon="7.915604" lat="53.947835">
        <ele>779.409</ele>
        <time>2026-07-20T17:50:36.812Z</time>
      </trkpt>
      <trkpt lon="7.915580" lat="53.929291">
        <ele>780.18</ele>
        <time>2026-07-20T17:51:07.064Z</time>
      </trkpt>
      <trkpt lon="7.915506" lat="53.910719">
        <ele>779.608</ele>
        <time>2026-07-20T17:51:37.372Z</time>
      </trkpt>
      <trkpt lon="7.915472" lat="53.892254">
        <ele>779.67</ele>
        <time>2026-07-20T17:52:07.656Z</time>
      </trkpt>
      <trkpt lon="7.915514" lat="53.873504">
        <ele>781.296</ele>
        <time>2026-07-20T17:52:38.216Z</time>
      </trkpt>
      <trkpt lon="7.915549" lat="53.854455">
        <ele>781.609</ele>
        <time>2026-07-20T17:53:08.736Z</time>
      </trkpt>
      <trkpt lon="7.915488" lat="53.835735">
        <ele>780.666</ele>
        <time>2026-07-20T17:53:39.084Z</time>
      </trkpt>
      <trkpt lon="7.915339" lat="53.819649">
        <ele>790.73</ele>
        <time>2026-07-20T17:54:05.504Z</time>
      </trkpt>
      <trkpt lon="7.915542" lat="53.818555">
        <ele>802.956</ele>
        <time>2026-07-20T17:54:07.452Z</time>
      </trkpt>
      <trkpt lon="7.916525" lat="53.814897">
        <ele>825.739</ele>
        <time>2026-07-20T17:54:14.472Z</time>
      </trkpt>
      <trkpt lon="7.917068" lat="53.806919">
        <ele>873.874</ele>
        <time>2026-07-20T17:54:30.572Z</time>
      </trkpt>
      <trkpt lon="7.916216" lat="53.797201">
        <ele>880.992</ele>
        <time>2026-07-20T17:54:49.388Z</time>
      </trkpt>
      <trkpt lon="7.915319" lat="53.788292">
        <ele>887.527</ele>
        <time>2026-07-20T17:55:06.268Z</time>
      </trkpt>
      <trkpt lon="7.915368" lat="53.785956">
        <ele>889.476</ele>
        <time>2026-07-20T17:55:10.792Z</time>
      </trkpt>
      <trkpt lon="7.915701" lat="53.783304">
        <ele>834.355</ele>
        <time>2026-07-20T17:55:16.688Z</time>
      </trkpt>
      <trkpt lon="7.915935" lat="53.781835">
        <ele>772.493</ele>
        <time>2026-07-20T17:55:19.932Z</time>
      </trkpt>
      <trkpt lon="7.916158" lat="53.780561">
        <ele>712.975</ele>
        <time>2026-07-20T17:55:22.552Z</time>
      </trkpt>
      <trkpt lon="7.916449" lat="53.779226">
        <ele>655.409</ele>
        <time>2026-07-20T17:55:25.136Z</time>
      </trkpt>
      <trkpt lon="7.916832" lat="53.777800">
        <ele>604.2</ele>
        <time>2026-07-20T17:55:27.736Z</time>
      </trkpt>
      <trkpt lon="7.917335" lat="53.776306">
        <ele>561.251</ele>
        <time>2026-07-20T17:55:30.388Z</time>
      </trkpt>
      <trkpt lon="7.917675" lat="53.775612">
        <ele>542.805</ele>
        <time>2026-07-20T17:55:31.668Z</time>
      </trkpt>
      <trkpt lon="7.918127" lat="53.774939">
        <ele>523.72</ele>
        <time>2026-07-20T17:55:32.932Z</time>
      </trkpt>
      <trkpt lon="7.918721" lat="53.774266">
        <ele>502.658</ele>
        <time>2026-07-20T17:55:34.268Z</time>
      </trkpt>
      <trkpt lon="7.919431" lat="53.773633">
        <ele>480.608</ele>
        <time>2026-07-20T17:55:35.588Z</time>
      </trkpt>
      <trkpt lon="7.920221" lat="53.773057">
        <ele>458.692</ele>
        <time>2026-07-20T17:55:36.888Z</time>
      </trkpt>
      <trkpt lon="7.921103" lat="53.772526">
        <ele>436.641</ele>
        <time>2026-07-20T17:55:38.188Z</time>
      </trkpt>
      <trkpt lon="7.922066" lat="53.772057">
        <ele>414.597</ele>
        <time>2026-07-20T17:55:39.484Z</time>
      </trkpt>
      <trkpt lon="7.923112" lat="53.771661">
        <ele>391.897</ele>
        <time>2026-07-20T17:55:40.792Z</time>
      </trkpt>
      <trkpt lon="7.924190" lat="53.771359">
        <ele>369.129</ele>
        <time>2026-07-20T17:55:42.072Z</time>
      </trkpt>
      <trkpt lon="7.925317" lat="53.771143">
        <ele>344.965</ele>
        <time>2026-07-20T17:55:43.336Z</time>
      </trkpt>
      <trkpt lon="7.927064" lat="53.770921">
        <ele>309.239</ele>
        <time>2026-07-20T17:55:45.268Z</time>
      </trkpt>
      <trkpt lon="7.928856" lat="53.770737">
        <ele>279.878</ele>
        <time>2026-07-20T17:55:47.192Z</time>
      </trkpt>
      <trkpt lon="7.933044" lat="53.770398">
        <ele>265.493</ele>
        <time>2026-07-20T17:55:51.688Z</time>
      </trkpt>
      <trkpt lon="7.934570" lat="53.770278">
        <ele>276.487</ele>
        <time>2026-07-20T17:55:53.636Z</time>
      </trkpt>
      <trkpt lon="7.938202" lat="53.769983">
        <ele>280.163</ele>
        <time>2026-07-20T17:55:58.868Z</time>
      </trkpt>
      <trkpt lon="7.939073" lat="53.769939">
        <ele>278.031</ele>
        <time>2026-07-20T17:56:00.168Z</time>
      </trkpt>
      <trkpt lon="7.939943" lat="53.769955">
        <ele>274.122</ele>
        <time>2026-07-20T17:56:01.488Z</time>
      </trkpt>
      <trkpt lon="7.940746" lat="53.770039">
        <ele>268.684</ele>
        <time>2026-07-20T17:56:02.768Z</time>
      </trkpt>
      <trkpt lon="7.941529" lat="53.770189">
        <ele>262.16</ele>
        <time>2026-07-20T17:56:04.072Z</time>
      </trkpt>
      <trkpt lon="7.941914" lat="53.770289">
        <ele>258.202</ele>
        <time>2026-07-20T17:56:04.736Z</time>
      </trkpt>
      <trkpt lon="7.942580" lat="53.770514">
        <ele>251.07</ele>
        <time>2026-07-20T17:56:05.968Z</time>
      </trkpt>
      <trkpt lon="7.943228" lat="53.770804">
        <ele>244.909</ele>
        <time>2026-07-20T17:56:07.288Z</time>
      </trkpt>
      <trkpt lon="7.944047" lat="53.771274">
        <ele>237.612</ele>
        <time>2026-07-20T17:56:09.236Z</time>
      </trkpt>
      <trkpt lon="7.944741" lat="53.771772">
        <ele>229.756</ele>
        <time>2026-07-20T17:56:11.136Z</time>
      </trkpt>
      <trkpt lon="7.946080" lat="53.773066">
        <ele>211.883</ele>
        <time>2026-07-20T17:56:15.696Z</time>
      </trkpt>
      <trkpt lon="7.946873" lat="53.774276">
        <ele>200.817</ele>
        <time>2026-07-20T17:56:19.592Z</time>
      </trkpt>
      <trkpt lon="7.947295" lat="53.775128">
        <ele>192.339</ele>
        <time>2026-07-20T17:56:22.196Z</time>
      </trkpt>
      <trkpt lon="7.947555" lat="53.776259">
        <ele>182.954</ele>
        <time>2026-07-20T17:56:25.496Z</time>
      </trkpt>
      <trkpt lon="7.947552" lat="53.777446">
        <ele>173.103</ele>
        <time>2026-07-20T17:56:28.716Z</time>
      </trkpt>
      <trkpt lon="7.947463" lat="53.777955">
        <ele>171.436</ele>
        <time>2026-07-20T17:56:30.064Z</time>
      </trkpt>
      <trkpt lon="7.947156" lat="53.778701">
        <ele>169.319</ele>
        <time>2026-07-20T17:56:32.016Z</time>
      </trkpt>
      <trkpt lon="7.946817" lat="53.779182">
        <ele>166.675</ele>
        <time>2026-07-20T17:56:33.312Z</time>
      </trkpt>
      <trkpt lon="7.946375" lat="53.779630">
        <ele>163.447</ele>
        <time>2026-07-20T17:56:34.592Z</time>
      </trkpt>
      <trkpt lon="7.945805" lat="53.780055">
        <ele>159.88</ele>
        <time>2026-07-20T17:56:35.896Z</time>
      </trkpt>
      <trkpt lon="7.945113" lat="53.780431">
        <ele>156.204</ele>
        <time>2026-07-20T17:56:37.196Z</time>
      </trkpt>
      <trkpt lon="7.944320" lat="53.780747">
        <ele>152.37</ele>
        <time>2026-07-20T17:56:38.496Z</time>
      </trkpt>
      <trkpt lon="7.943477" lat="53.780998">
        <ele>148.849</ele>
        <time>2026-07-20T17:56:39.760Z</time>
      </trkpt>
      <trkpt lon="7.942571" lat="53.781198">
        <ele>145.918</ele>
        <time>2026-07-20T17:56:41.064Z</time>
      </trkpt>
      <trkpt lon="7.940793" lat="53.781458">
        <ele>140.69</ele>
        <time>2026-07-20T17:56:43.612Z</time>
      </trkpt>
      <trkpt lon="7.937859" lat="53.781709">
        <ele>119.323</ele>
        <time>2026-07-20T17:56:48.120Z</time>
      </trkpt>
      <trkpt lon="7.935748" lat="53.781825">
        <ele>96.2745</ele>
        <time>2026-07-20T17:56:51.424Z</time>
      </trkpt>
      <trkpt lon="7.933677" lat="53.781890">
        <ele>77.4843</ele>
        <time>2026-07-20T17:56:54.672Z</time>
      </trkpt>
      <trkpt lon="7.930970" lat="53.781942">
        <ele>57.1691</ele>
        <time>2026-07-20T17:56:59.124Z</time>
      </trkpt>
      <trkpt lon="7.927140" lat="53.782072">
        <ele>40.0566</ele>
        <time>2026-07-20T17:57:06.268Z</time>
      </trkpt>
      <trkpt lon="7.923117" lat="53.782308">
        <ele>23.3995</ele>
        <time>2026-07-20T17:57:14.676Z</time>
      </trkpt>
      <trkpt lon="7.920091" lat="53.782509">
        <ele>15.3189</ele>
        <time>2026-07-20T17:57:21.156Z</time>
      </trkpt>
      <trkpt lon="7.915498" lat="53.782689">
        <ele>2.59753</ele>
        <time>2026-07-20T17:57:31.456Z</time>
      </trkpt>
      <trkpt lon="7.914128" lat="53.782753">
        <ele>1.90385</ele>
        <time>2026-07-20T17:57:35.376Z</time>
      </trkpt>
      <trkpt lon="7.913470" lat="53.782791">
        <ele>2.0252</ele>
        <time>2026-07-20T17:57:37.972Z</time>
      </trkpt>
      <trkpt lon="7.913364" lat="53.782804">
        <ele>2.07247</ele>
        <time>2026-07-20T17:57:38.656Z</time>
      </trkpt>
      <trkpt lon="7.913281" lat="53.782825">
        <ele>2.1078</ele>
        <time>2026-07-20T17:57:39.272Z</time>
      </trkpt>
      <trkpt lon="7.913217" lat="53.782856">
        <ele>2.13647</ele>
        <time>2026-07-20T17:57:39.920Z</time>
      </trkpt>
      <trkpt lon="7.913175" lat="53.782895">
        <ele>2.15795</ele>
        <time>2026-07-20T17:57:40.576Z</time>
      </trkpt>
      <trkpt lon="7.913159" lat="53.782935">
        <ele>2.16193</ele>
        <time>2026-07-20T17:57:41.224Z</time>
      </trkpt>
      <trkpt lon="7.913161" lat="53.783015">
        <ele>2.14768</ele>
        <time>2026-07-20T17:57:42.556Z</time>
      </trkpt>
      <trkpt lon="7.913169" lat="53.783051">
        <ele>2.16154</ele>
        <time>2026-07-20T17:57:43.176Z</time>
      </trkpt>
      <trkpt lon="7.913203" lat="53.783170">
        <ele>2.16698</ele>
        <time>2026-07-20T17:57:45.156Z</time>
      </trkpt>
      <trkpt lon="7.913199" lat="53.783211">
        <ele>2.18194</ele>
        <time>2026-07-20T17:57:45.772Z</time>
      </trkpt>
      <trkpt lon="7.913183" lat="53.783253">
        <ele>2.21725</ele>
        <time>2026-07-20T17:57:46.456Z</time>
      </trkpt>
      <trkpt lon="7.913151" lat="53.783292">
        <ele>2.27293</ele>
        <time>2026-07-20T17:57:47.120Z</time>
      </trkpt>
      <trkpt lon="7.913108" lat="53.783325">
        <ele>2.32255</ele>
        <time>2026-07-20T17:57:47.752Z</time>
      </trkpt>
      <trkpt lon="7.913055" lat="53.783352">
        <ele>2.38547</ele>
        <time>2026-07-20T17:57:48.376Z</time>
      </trkpt>
      <trkpt lon="7.912995" lat="53.783373">
        <ele>2.45898</ele>
        <time>2026-07-20T17:57:49.024Z</time>
      </trkpt>
      <trkpt lon="7.912928" lat="53.783389">
        <ele>2.52919</ele>
        <time>2026-07-20T17:57:49.672Z</time>
      </trkpt>
      <trkpt lon="7.911884" lat="53.783562">
        <ele>3.14218</ele>
        <time>2026-07-20T17:58:00.120Z</time>
      </trkpt>
      <trkpt lon="7.911827" lat="53.783580">
        <ele>3.14348</ele>
        <time>2026-07-20T17:58:00.752Z</time>
      </trkpt>
      <trkpt lon="7.911772" lat="53.783603">
        <ele>3.15018</ele>
        <time>2026-07-20T17:58:01.420Z</time>
      </trkpt>
      <trkpt lon="7.911727" lat="53.783630">
        <ele>3.15793</ele>
        <time>2026-07-20T17:58:02.056Z</time>
      </trkpt>
      <trkpt lon="7.911689" lat="53.783660">
        <ele>3.15293</ele>
        <time>2026-07-20T17:58:02.676Z</time>
      </trkpt>
      <trkpt lon="7.911659" lat="53.783695">
        <ele>3.15014</ele>
        <time>2026-07-20T17:58:03.356Z</time>
      </trkpt>
      <trkpt lon="7.911303" lat="53.784287">
        <ele>3.01221</ele>
        <time>2026-07-20T17:58:13.676Z</time>
      </trkpt>
      <trkpt lon="7.910941" lat="53.784823">
        <ele>3.12763</ele>
        <time>2026-07-20T17:58:24.056Z</time>
      </trkpt>
      <trkpt lon="7.910677" lat="53.785248">
        <ele>3.17964</ele>
        <time>2026-07-20T17:58:34.376Z</time>
      </trkpt>
      <trkpt lon="7.910625" lat="53.785331">
        <ele>3.21358</ele>
        <time>2026-07-20T17:58:35.676Z</time>
      </trkpt>
      <trkpt lon="7.910169" lat="53.785992">
        <ele>1.50415</ele>
        <time>2026-07-20T17:58:42.176Z</time>
      </trkpt>
      <trkpt lon="7.909976" lat="53.786278">
        <ele>2.22039</ele>
        <time>2026-07-20T17:58:44.156Z</time>
      </trkpt>
      <trkpt lon="7.909852" lat="53.786451">
        <ele>2.75987</ele>
        <time>2026-07-20T17:58:45.420Z</time>
      </trkpt>
      <trkpt lon="7.909700" lat="53.786710">
        <ele>2.5303</ele>
        <time>2026-07-20T17:58:47.420Z</time>
      </trkpt>
      <trkpt lon="7.909033" lat="53.787721">
        <ele>1.77014</ele>
        <time>2026-07-20T17:58:57.676Z</time>
      </trkpt>
      <trkpt lon="7.908931" lat="53.787872">
        <ele>1.76955</ele>
        <time>2026-07-20T17:59:00.272Z</time>
      </trkpt>
      <trkpt lon="7.908920" lat="53.787903">
        <ele>1.76751</ele>
        <time>2026-07-20T17:59:00.956Z</time>
      </trkpt>
      <trkpt lon="7.908919" lat="53.787928">
        <ele>1.76639</ele>
        <time>2026-07-20T17:59:01.580Z</time>
      </trkpt>
      <trkpt lon="7.908922" lat="53.787945">
        <ele>1.76004</ele>
        <time>2026-07-20T17:59:02.252Z</time>
      </trkpt>
    </trkseg>
    <trkseg>
      <trkpt lon="7.161804" lat="50.767225">
        <ele>62.754</ele>
        <time>2026-07-21T17:31:35.044Z</time>
      </trkpt>
      <trkpt lon="7.161727" lat="50.767277">
        <ele>62.6946</ele>
        <time>2026-07-21T18:10:09.752Z</time>
      </trkpt>
      <trkpt lon="7.161700" lat="50.767303">
        <ele>62.6731</ele>
        <time>2026-07-21T18:12:16.908Z</time>
      </trkpt>
      <trkpt lon="7.161686" lat="50.767323">
        <ele>62.6519</ele>
        <time>2026-07-21T18:12:18.204Z</time>
      </trkpt>
      <trkpt lon="7.161665" lat="50.767365">
        <ele>62.6111</ele>
        <time>2026-07-21T18:12:20.108Z</time>
      </trkpt>
      <trkpt lon="7.161652" lat="50.767421">
        <ele>62.5673</ele>
        <time>2026-07-21T18:12:22.016Z</time>
      </trkpt>
      <trkpt lon="7.161646" lat="50.767513">
        <ele>62.5671</ele>
        <time>2026-07-21T18:12:24.572Z</time>
      </trkpt>
      <trkpt lon="7.161654" lat="50.767736">
        <ele>62.6619</ele>
        <time>2026-07-21T18:12:30.384Z</time>
      </trkpt>
      <trkpt lon="7.161688" lat="50.767885">
        <ele>62.769</ele>
        <time>2026-07-21T18:12:34.884Z</time>
      </trkpt>
      <trkpt lon="7.161742" lat="50.768052">
        <ele>62.9744</ele>
        <time>2026-07-21T18:12:41.304Z</time>
      </trkpt>
      <trkpt lon="7.161757" lat="50.768079">
        <ele>63.0122</ele>
        <time>2026-07-21T18:12:42.600Z</time>
      </trkpt>
      <trkpt lon="7.161775" lat="50.768104">
        <ele>63.0448</ele>
        <time>2026-07-21T18:12:43.868Z</time>
      </trkpt>
      <trkpt lon="7.161817" lat="50.768147">
        <ele>63.1067</ele>
        <time>2026-07-21T18:12:46.428Z</time>
      </trkpt>
      <trkpt lon="7.161841" lat="50.768166">
        <ele>63.1272</ele>
        <time>2026-07-21T18:12:47.788Z</time>
      </trkpt>
      <trkpt lon="7.161868" lat="50.768183">
        <ele>63.1413</ele>
        <time>2026-07-21T18:12:49.100Z</time>
      </trkpt>
      <trkpt lon="7.161899" lat="50.768197">
        <ele>63.1517</ele>
        <time>2026-07-21T18:12:50.428Z</time>
      </trkpt>
      <trkpt lon="7.161932" lat="50.768209">
        <ele>63.1521</ele>
        <time>2026-07-21T18:12:51.744Z</time>
      </trkpt>
      <trkpt lon="7.161970" lat="50.768218">
        <ele>63.1485</ele>
        <time>2026-07-21T18:12:53.080Z</time>
      </trkpt>
      <trkpt lon="7.161991" lat="50.768221">
        <ele>63.147</ele>
        <time>2026-07-21T18:12:53.720Z</time>
      </trkpt>
      <trkpt lon="7.162014" lat="50.768223">
        <ele>63.142</ele>
        <time>2026-07-21T18:12:54.376Z</time>
      </trkpt>
      <trkpt lon="7.162040" lat="50.768223">
        <ele>63.1323</ele>
        <time>2026-07-21T18:12:55.016Z</time>
      </trkpt>
      <trkpt lon="7.162069" lat="50.768221">
        <ele>63.1254</ele>
        <time>2026-07-21T18:12:55.656Z</time>
      </trkpt>
      <trkpt lon="7.162100" lat="50.768215">
        <ele>63.1168</ele>
        <time>2026-07-21T18:12:56.320Z</time>
      </trkpt>
      <trkpt lon="7.162288" lat="50.768164">
        <ele>63.0623</ele>
        <time>2026-07-21T18:12:59.532Z</time>
      </trkpt>
      <trkpt lon="7.162483" lat="50.768104">
        <ele>63.1056</ele>
        <time>2026-07-21T18:13:02.164Z</time>
      </trkpt>
      <trkpt lon="7.163614" lat="50.767867">
        <ele>62.8316</ele>
        <time>2026-07-21T18:13:12.468Z</time>
      </trkpt>
      <trkpt lon="7.165170" lat="50.767546">
        <ele>62.2163</ele>
        <time>2026-07-21T18:13:22.968Z</time>
      </trkpt>
      <trkpt lon="7.166610" lat="50.767218">
        <ele>62.0658</ele>
        <time>2026-07-21T18:13:33.416Z</time>
      </trkpt>
      <trkpt lon="7.167299" lat="50.767064">
        <ele>61.8911</ele>
        <time>2026-07-21T18:13:39.196Z</time>
      </trkpt>
      <trkpt lon="7.167372" lat="50.767055">
        <ele>61.8726</ele>
        <time>2026-07-21T18:13:39.868Z</time>
      </trkpt>
      <trkpt lon="7.167437" lat="50.767055">
        <ele>61.8638</ele>
        <time>2026-07-21T18:13:40.540Z</time>
      </trkpt>
      <trkpt lon="7.167494" lat="50.767064">
        <ele>61.7895</ele>
        <time>2026-07-21T18:13:41.212Z</time>
      </trkpt>
      <trkpt lon="7.167549" lat="50.767078">
        <ele>61.7556</ele>
        <time>2026-07-21T18:13:41.900Z</time>
      </trkpt>
      <trkpt lon="7.167598" lat="50.767094">
        <ele>61.7204</ele>
        <time>2026-07-21T18:13:42.564Z</time>
      </trkpt>
      <trkpt lon="7.167643" lat="50.767116">
        <ele>61.6692</ele>
        <time>2026-07-21T18:13:43.248Z</time>
      </trkpt>
      <trkpt lon="7.167678" lat="50.767139">
        <ele>61.6174</ele>
        <time>2026-07-21T18:13:43.884Z</time>
      </trkpt>
      <trkpt lon="7.167709" lat="50.767168">
        <ele>61.5594</ele>
        <time>2026-07-21T18:13:44.580Z</time>
      </trkpt>
      <trkpt lon="7.167749" lat="50.767228">
        <ele>61.4404</ele>
        <time>2026-07-21T18:13:45.916Z</time>
      </trkpt>
      <trkpt lon="7.167780" lat="50.767286">
        <ele>61.3234</ele>
        <time>2026-07-21T18:13:48.540Z</time>
      </trkpt>
      <trkpt lon="7.167811" lat="50.767361">
        <ele>61.2679</ele>
        <time>2026-07-21T18:15:14.248Z</time>
      </trkpt>
      <trkpt lon="7.167849" lat="50.767477">
        <ele>61.2182</ele>
        <time>2026-07-21T18:15:16.204Z</time>
      </trkpt>
      <trkpt lon="7.167857" lat="50.767570">
        <ele>61.2549</ele>
        <time>2026-07-21T18:15:17.484Z</time>
      </trkpt>
      <trkpt lon="7.167853" lat="50.767622">
        <ele>61.2916</ele>
        <time>2026-07-21T18:15:18.100Z</time>
      </trkpt>
      <trkpt lon="7.167839" lat="50.767675">
        <ele>61.3379</ele>
        <time>2026-07-21T18:15:18.752Z</time>
      </trkpt>
      <trkpt lon="7.167811" lat="50.767732">
        <ele>61.3784</ele>
        <time>2026-07-21T18:15:19.408Z</time>
      </trkpt>
      <trkpt lon="7.167768" lat="50.767784">
        <ele>61.4297</ele>
        <time>2026-07-21T18:15:20.048Z</time>
      </trkpt>
      <trkpt lon="7.167706" lat="50.767835">
        <ele>61.4705</ele>
        <time>2026-07-21T18:15:20.704Z</time>
      </trkpt>
      <trkpt lon="7.167626" lat="50.767880">
        <ele>61.5149</ele>
        <time>2026-07-21T18:15:21.384Z</time>
      </trkpt>
      <trkpt lon="7.167524" lat="50.767920">
        <ele>61.5442</ele>
        <time>2026-07-21T18:15:22.000Z</time>
      </trkpt>
      <trkpt lon="7.167238" lat="50.768015">
        <ele>61.615</ele>
        <time>2026-07-21T18:15:23.280Z</time>
      </trkpt>
      <trkpt lon="7.167046" lat="50.768074">
        <ele>61.6272</ele>
        <time>2026-07-21T18:15:23.952Z</time>
      </trkpt>
      <trkpt lon="7.166582" lat="50.768184">
        <ele>61.5012</ele>
        <time>2026-07-21T18:15:25.248Z</time>
      </trkpt>
      <trkpt lon="7.165738" lat="50.768406">
        <ele>61.566</ele>
        <time>2026-07-21T18:15:27.180Z</time>
      </trkpt>
      <trkpt lon="7.164347" lat="50.768715">
        <ele>69.2651</ele>
        <time>2026-07-21T18:15:29.752Z</time>
      </trkpt>
      <trkpt lon="7.162333" lat="50.769086">
        <ele>87.2517</ele>
        <time>2026-07-21T18:15:32.992Z</time>
      </trkpt>
      <trkpt lon="7.160583" lat="50.769378">
        <ele>105.751</ele>
        <time>2026-07-21T18:15:35.564Z</time>
      </trkpt>
      <trkpt lon="7.158766" lat="50.769664">
        <ele>123.853</ele>
        <time>2026-07-21T18:15:38.188Z</time>
      </trkpt>
      <trkpt lon="7.156894" lat="50.769946">
        <ele>144.895</ele>
        <time>2026-07-21T18:15:40.780Z</time>
      </trkpt>
      <trkpt lon="7.155049" lat="50.770212">
        <ele>165.647</ele>
        <time>2026-07-21T18:15:43.344Z</time>
      </trkpt>
      <trkpt lon="7.152744" lat="50.770491">
        <ele>191.317</ele>
        <time>2026-07-21T18:15:46.548Z</time>
      </trkpt>
      <trkpt lon="7.150977" lat="50.770641">
        <ele>217.731</ele>
        <time>2026-07-21T18:15:49.140Z</time>
      </trkpt>
      <trkpt lon="7.149334" lat="50.770738">
        <ele>244.476</ele>
        <time>2026-07-21T18:15:51.720Z</time>
      </trkpt>
      <trkpt lon="7.147018" lat="50.770793">
        <ele>271.213</ele>
        <time>2026-07-21T18:15:55.600Z</time>
      </trkpt>
      <trkpt lon="7.145977" lat="50.770747">
        <ele>273.847</ele>
        <time>2026-07-21T18:15:57.564Z</time>
      </trkpt>
      <trkpt lon="7.144920" lat="50.770624">
        <ele>274.906</ele>
        <time>2026-07-21T18:15:59.580Z</time>
      </trkpt>
      <trkpt lon="7.139900" lat="50.769675">
        <ele>280.858</ele>
        <time>2026-07-21T18:16:08.616Z</time>
      </trkpt>
      <trkpt lon="7.137699" lat="50.769127">
        <ele>294.555</ele>
        <time>2026-07-21T18:16:12.476Z</time>
      </trkpt>
      <trkpt lon="7.135619" lat="50.768438">
        <ele>302.801</ele>
        <time>2026-07-21T18:16:16.320Z</time>
      </trkpt>
      <trkpt lon="7.128575" lat="50.765638">
        <ele>330.666</ele>
        <time>2026-07-21T18:16:29.084Z</time>
      </trkpt>
      <trkpt lon="7.123298" lat="50.763212">
        <ele>359.69</ele>
        <time>2026-07-21T18:16:38.720Z</time>
      </trkpt>
      <trkpt lon="7.116019" lat="50.759617">
        <ele>381.453</ele>
        <time>2026-07-21T18:16:52.788Z</time>
      </trkpt>
      <trkpt lon="7.111675" lat="50.756942">
        <ele>409.153</ele>
        <time>2026-07-21T18:17:02.420Z</time>
      </trkpt>
      <trkpt lon="7.110676" lat="50.756468">
        <ele>416.731</ele>
        <time>2026-07-21T18:17:04.344Z</time>
      </trkpt>
      <trkpt lon="7.109635" lat="50.756079">
        <ele>425.668</ele>
        <time>2026-07-21T18:17:06.288Z</time>
      </trkpt>
      <trkpt lon="7.108557" lat="50.755774">
        <ele>433.612</ele>
        <time>2026-07-21T18:17:08.220Z</time>
      </trkpt>
      <trkpt lon="7.107087" lat="50.755505">
        <ele>443.791</ele>
        <time>2026-07-21T18:17:10.744Z</time>
      </trkpt>
      <trkpt lon="7.105926" lat="50.755400">
        <ele>449.927</ele>
        <time>2026-07-21T18:17:12.688Z</time>
      </trkpt>
      <trkpt lon="7.105135" lat="50.755380">
        <ele>453.759</ele>
        <time>2026-07-21T18:17:13.984Z</time>
      </trkpt>
      <trkpt lon="7.103962" lat="50.755436">
        <ele>459.556</ele>
        <time>2026-07-21T18:17:15.920Z</time>
      </trkpt>
      <trkpt lon="7.102793" lat="50.755583">
        <ele>461.456</ele>
        <time>2026-07-21T18:17:17.844Z</time>
      </trkpt>
      <trkpt lon="7.101281" lat="50.755901">
        <ele>465.703</ele>
        <time>2026-07-21T18:17:20.420Z</time>
      </trkpt>
      <trkpt lon="7.099115" lat="50.756527">
        <ele>475.18</ele>
        <time>2026-07-21T18:17:24.320Z</time>
      </trkpt>
      <trkpt lon="7.092897" lat="50.758921">
        <ele>475.099</ele>
        <time>2026-07-21T18:17:36.624Z</time>
      </trkpt>
      <trkpt lon="7.084691" lat="50.762527">
        <ele>467.316</ele>
        <time>2026-07-21T18:17:52.656Z</time>
      </trkpt>
      <trkpt lon="7.073971" lat="50.768434">
        <ele>460.777</ele>
        <time>2026-07-21T18:18:15.876Z</time>
      </trkpt>
      <trkpt lon="7.068875" lat="50.771787">
        <ele>471.188</ele>
        <time>2026-07-21T18:18:28.072Z</time>
      </trkpt>
      <trkpt lon="7.057487" lat="50.780686">
        <ele>480.143</ele>
        <time>2026-07-21T18:18:58.320Z</time>
      </trkpt>
      <trkpt lon="7.045259" lat="50.790436">
        <ele>457.533</ele>
        <time>2026-07-21T18:19:28.752Z</time>
      </trkpt>
      <trkpt lon="7.033127" lat="50.799760">
        <ele>459.69</ele>
        <time>2026-07-21T18:19:58.952Z</time>
      </trkpt>
      <trkpt lon="7.022268" lat="50.808433">
        <ele>446.525</ele>
        <time>2026-07-21T18:20:26.280Z</time>
      </trkpt>
      <trkpt lon="7.018822" lat="50.812198">
        <ele>442.703</ele>
        <time>2026-07-21T18:20:37.244Z</time>
      </trkpt>
      <trkpt lon="7.016403" lat="50.815611">
        <ele>439.761</ele>
        <time>2026-07-21T18:20:46.876Z</time>
      </trkpt>
      <trkpt lon="7.010901" lat="50.826793">
        <ele>439.726</ele>
        <time>2026-07-21T18:21:17.164Z</time>
      </trkpt>
      <trkpt lon="7.007422" lat="50.837046">
        <ele>472.803</ele>
        <time>2026-07-21T18:21:44.040Z</time>
      </trkpt>
      <trkpt lon="7.004883" lat="50.848899">
        <ele>449.863</ele>
        <time>2026-07-21T18:22:14.180Z</time>
      </trkpt>
      <trkpt lon="7.003766" lat="50.858500">
        <ele>440.913</ele>
        <time>2026-07-21T18:22:37.928Z</time>
      </trkpt>
      <trkpt lon="7.003986" lat="50.870910">
        <ele>442.047</ele>
        <time>2026-07-21T18:23:08.248Z</time>
      </trkpt>
      <trkpt lon="7.003818" lat="50.878780">
        <ele>437.496</ele>
        <time>2026-07-21T18:23:27.616Z</time>
      </trkpt>
      <trkpt lon="7.002870" lat="50.883618">
        <ele>441.763</ele>
        <time>2026-07-21T18:23:39.820Z</time>
      </trkpt>
      <trkpt lon="7.001679" lat="50.886575">
        <ele>441.168</ele>
        <time>2026-07-21T18:23:47.572Z</time>
      </trkpt>
      <trkpt lon="6.999120" lat="50.890880">
        <ele>443.924</ele>
        <time>2026-07-21T18:23:59.092Z</time>
      </trkpt>
      <trkpt lon="6.993795" lat="50.897679">
        <ele>432.179</ele>
        <time>2026-07-21T18:24:18.392Z</time>
      </trkpt>
      <trkpt lon="6.987863" lat="50.903768">
        <ele>419.704</ele>
        <time>2026-07-21T18:24:36.468Z</time>
      </trkpt>
      <trkpt lon="6.980325" lat="50.910098">
        <ele>426.504</ele>
        <time>2026-07-21T18:24:55.908Z</time>
      </trkpt>
      <trkpt lon="6.967105" lat="50.919172">
        <ele>436.33</ele>
        <time>2026-07-21T18:25:26.212Z</time>
      </trkpt>
      <trkpt lon="6.953656" lat="50.928010">
        <ele>427.703</ele>
        <time>2026-07-21T18:25:56.444Z</time>
      </trkpt>
      <trkpt lon="6.944128" lat="50.935366">
        <ele>424.267</ele>
        <time>2026-07-21T18:26:20.244Z</time>
      </trkpt>
      <trkpt lon="6.938918" lat="50.940437">
        <ele>437.619</ele>
        <time>2026-07-21T18:26:35.220Z</time>
      </trkpt>
      <trkpt lon="6.934574" lat="50.945770">
        <ele>451.257</ele>
        <time>2026-07-21T18:26:50.056Z</time>
      </trkpt>
      <trkpt lon="6.931252" lat="50.951024">
        <ele>459.339</ele>
        <time>2026-07-21T18:27:03.640Z</time>
      </trkpt>
      <trkpt lon="6.930354" lat="50.952860">
        <ele>463.623</ele>
        <time>2026-07-21T18:27:08.172Z</time>
      </trkpt>
      <trkpt lon="6.928592" lat="50.959011">
        <ele>485.308</ele>
        <time>2026-07-21T18:27:23.084Z</time>
      </trkpt>
      <trkpt lon="6.928485" lat="50.960644">
        <ele>480.818</ele>
        <time>2026-07-21T18:27:26.952Z</time>
      </trkpt>
      <trkpt lon="6.928725" lat="50.962868">
        <ele>470.219</ele>
        <time>2026-07-21T18:27:32.172Z</time>
      </trkpt>
      <trkpt lon="6.932126" lat="50.975341">
        <ele>445.8</ele>
        <time>2026-07-21T18:28:02.492Z</time>
      </trkpt>
      <trkpt lon="6.934722" lat="50.987865">
        <ele>471.542</ele>
        <time>2026-07-21T18:28:32.712Z</time>
      </trkpt>
      <trkpt lon="6.935183" lat="50.988948">
        <ele>470.004</ele>
        <time>2026-07-21T18:28:35.312Z</time>
      </trkpt>
      <trkpt lon="6.936118" lat="50.990529">
        <ele>464.823</ele>
        <time>2026-07-21T18:28:39.108Z</time>
      </trkpt>
      <trkpt lon="6.937121" lat="50.991829">
        <ele>460.124</ele>
        <time>2026-07-21T18:28:42.288Z</time>
      </trkpt>
      <trkpt lon="6.938339" lat="50.993095">
        <ele>457.406</ele>
        <time>2026-07-21T18:28:45.508Z</time>
      </trkpt>
      <trkpt lon="6.940039" lat="50.994526">
        <ele>458.796</ele>
        <time>2026-07-21T18:28:49.416Z</time>
      </trkpt>
      <trkpt lon="6.942223" lat="50.996039">
        <ele>462.863</ele>
        <time>2026-07-21T18:28:53.892Z</time>
      </trkpt>
      <trkpt lon="6.954931" lat="51.003199">
        <ele>488.744</ele>
        <time>2026-07-21T18:29:17.600Z</time>
      </trkpt>
      <trkpt lon="6.961884" lat="51.006291">
        <ele>501.063</ele>
        <time>2026-07-21T18:29:29.756Z</time>
      </trkpt>
      <trkpt lon="6.965047" lat="51.007520">
        <ele>498.792</ele>
        <time>2026-07-21T18:29:34.860Z</time>
      </trkpt>
      <trkpt lon="6.966169" lat="51.008091">
        <ele>497.201</ele>
        <time>2026-07-21T18:29:36.836Z</time>
      </trkpt>
      <trkpt lon="6.967509" lat="51.008947">
        <ele>494.328</ele>
        <time>2026-07-21T18:29:39.436Z</time>
      </trkpt>
      <trkpt lon="6.968963" lat="51.010156">
        <ele>489.421</ele>
        <time>2026-07-21T18:29:42.704Z</time>
      </trkpt>
      <trkpt lon="6.971276" lat="51.012735">
        <ele>482.176</ele>
        <time>2026-07-21T18:29:49.140Z</time>
      </trkpt>
      <trkpt lon="6.981302" lat="51.024545">
        <ele>480.421</ele>
        <time>2026-07-21T18:30:19.436Z</time>
      </trkpt>
      <trkpt lon="6.984670" lat="51.028174">
        <ele>494.793</ele>
        <time>2026-07-21T18:30:29.140Z</time>
      </trkpt>
      <trkpt lon="6.989713" lat="51.035284">
        <ele>491.892</ele>
        <time>2026-07-21T18:30:46.532Z</time>
      </trkpt>
      <trkpt lon="6.990488" lat="51.036023">
        <ele>494.46</ele>
        <time>2026-07-21T18:30:48.428Z</time>
      </trkpt>
      <trkpt lon="6.991378" lat="51.036708">
        <ele>494.372</ele>
        <time>2026-07-21T18:30:50.328Z</time>
      </trkpt>
      <trkpt lon="6.992803" lat="51.037535">
        <ele>491.513</ele>
        <time>2026-07-21T18:30:52.928Z</time>
      </trkpt>
      <trkpt lon="6.994003" lat="51.038060">
        <ele>488.233</ele>
        <time>2026-07-21T18:30:54.868Z</time>
      </trkpt>
      <trkpt lon="6.995299" lat="51.038511">
        <ele>484.414</ele>
        <time>2026-07-21T18:30:56.788Z</time>
      </trkpt>
      <trkpt lon="6.996663" lat="51.038884">
        <ele>480.3</ele>
        <time>2026-07-21T18:30:58.712Z</time>
      </trkpt>
      <trkpt lon="6.998584" lat="51.039276">
        <ele>473.755</ele>
        <time>2026-07-21T18:31:01.368Z</time>
      </trkpt>
      <trkpt lon="7.005930" lat="51.040376">
        <ele>440.756</ele>
        <time>2026-07-21T18:31:11.084Z</time>
      </trkpt>
      <trkpt lon="7.008944" lat="51.040848">
        <ele>442.112</ele>
        <time>2026-07-21T18:31:14.992Z</time>
      </trkpt>
      <trkpt lon="7.009973" lat="51.040903">
        <ele>446.811</ele>
        <time>2026-07-21T18:31:16.336Z</time>
      </trkpt>
      <trkpt lon="7.010975" lat="51.040878">
        <ele>450.128</ele>
        <time>2026-07-21T18:31:17.632Z</time>
      </trkpt>
      <trkpt lon="7.011963" lat="51.040767">
        <ele>451.61</ele>
        <time>2026-07-21T18:31:18.936Z</time>
      </trkpt>
      <trkpt lon="7.012454" lat="51.040672">
        <ele>451.366</ele>
        <time>2026-07-21T18:31:19.592Z</time>
      </trkpt>
      <trkpt lon="7.012934" lat="51.040549">
        <ele>450.266</ele>
        <time>2026-07-21T18:31:20.264Z</time>
      </trkpt>
      <trkpt lon="7.013802" lat="51.040243">
        <ele>446.695</ele>
        <time>2026-07-21T18:31:21.532Z</time>
      </trkpt>
      <trkpt lon="7.014617" lat="51.039846">
        <ele>441.917</ele>
        <time>2026-07-21T18:31:22.836Z</time>
      </trkpt>
      <trkpt lon="7.015332" lat="51.039388">
        <ele>436.074</ele>
        <time>2026-07-21T18:31:24.092Z</time>
      </trkpt>
      <trkpt lon="7.015971" lat="51.038855">
        <ele>430.003</ele>
        <time>2026-07-21T18:31:25.392Z</time>
      </trkpt>
      <trkpt lon="7.017288" lat="51.037406">
        <ele>420.37</ele>
        <time>2026-07-21T18:31:28.584Z</time>
      </trkpt>
      <trkpt lon="7.020172" lat="51.033460">
        <ele>426.552</ele>
        <time>2026-07-21T18:31:36.928Z</time>
      </trkpt>
      <trkpt lon="7.021443" lat="51.031407">
        <ele>440.192</ele>
        <time>2026-07-21T18:31:41.516Z</time>
      </trkpt>
      <trkpt lon="7.023854" lat="51.026878">
        <ele>413.887</ele>
        <time>2026-07-21T18:31:51.876Z</time>
      </trkpt>
      <trkpt lon="7.025707" lat="51.022557">
        <ele>382.627</ele>
        <time>2026-07-21T18:32:00.828Z</time>
      </trkpt>
      <trkpt lon="7.027089" lat="51.018448">
        <ele>354.225</ele>
        <time>2026-07-21T18:32:09.236Z</time>
      </trkpt>
      <trkpt lon="7.027863" lat="51.015741">
        <ele>347.385</ele>
        <time>2026-07-21T18:32:15.016Z</time>
      </trkpt>
      <trkpt lon="7.028006" lat="51.015459">
        <ele>346.571</ele>
        <time>2026-07-21T18:32:15.632Z</time>
      </trkpt>
      <trkpt lon="7.028184" lat="51.015188">
        <ele>346.791</ele>
        <time>2026-07-21T18:32:16.280Z</time>
      </trkpt>
      <trkpt lon="7.028410" lat="51.014918">
        <ele>347.868</ele>
        <time>2026-07-21T18:32:16.936Z</time>
      </trkpt>
      <trkpt lon="7.031854" lat="51.011911">
        <ele>343.362</ele>
        <time>2026-07-21T18:32:25.376Z</time>
      </trkpt>
      <trkpt lon="7.032245" lat="51.011399">
        <ele>343.078</ele>
        <time>2026-07-21T18:32:26.680Z</time>
      </trkpt>
      <trkpt lon="7.032521" lat="51.010865">
        <ele>341.867</ele>
        <time>2026-07-21T18:32:27.976Z</time>
      </trkpt>
      <trkpt lon="7.032608" lat="51.010598">
        <ele>341.42</ele>
        <time>2026-07-21T18:32:28.608Z</time>
      </trkpt>
      <trkpt lon="7.032679" lat="51.010065">
        <ele>340.62</ele>
        <time>2026-07-21T18:32:29.876Z</time>
      </trkpt>
      <trkpt lon="7.032660" lat="51.009788">
        <ele>340.327</ele>
        <time>2026-07-21T18:32:30.532Z</time>
      </trkpt>
      <trkpt lon="7.032517" lat="51.009262">
        <ele>339.784</ele>
        <time>2026-07-21T18:32:31.828Z</time>
      </trkpt>
      <trkpt lon="7.032391" lat="51.009004">
        <ele>339.59</ele>
        <time>2026-07-21T18:32:32.516Z</time>
      </trkpt>
      <trkpt lon="7.032232" lat="51.008756">
        <ele>339.475</ele>
        <time>2026-07-21T18:32:33.180Z</time>
      </trkpt>
      <trkpt lon="7.031841" lat="51.008322">
        <ele>340.11</ele>
        <time>2026-07-21T18:32:34.460Z</time>
      </trkpt>
      <trkpt lon="7.031346" lat="51.007935">
        <ele>342.363</ele>
        <time>2026-07-21T18:32:35.752Z</time>
      </trkpt>
      <trkpt lon="7.030515" lat="51.007457">
        <ele>345.348</ele>
        <time>2026-07-21T18:32:37.648Z</time>
      </trkpt>
      <trkpt lon="7.028297" lat="51.006484">
        <ele>341.389</ele>
        <time>2026-07-21T18:32:42.148Z</time>
      </trkpt>
      <trkpt lon="7.026205" lat="51.005674">
        <ele>328.447</ele>
        <time>2026-07-21T18:32:46.000Z</time>
      </trkpt>
      <trkpt lon="7.024634" lat="51.005224">
        <ele>319.585</ele>
        <time>2026-07-21T18:32:48.648Z</time>
      </trkpt>
      <trkpt lon="7.023434" lat="51.004985">
        <ele>312.819</ele>
        <time>2026-07-21T18:32:50.548Z</time>
      </trkpt>
      <trkpt lon="7.022591" lat="51.004880">
        <ele>307.887</ele>
        <time>2026-07-21T18:32:51.852Z</time>
      </trkpt>
      <trkpt lon="7.021752" lat="51.004829">
        <ele>302.801</ele>
        <time>2026-07-21T18:32:53.100Z</time>
      </trkpt>
      <trkpt lon="7.020858" lat="51.004833">
        <ele>298.547</ele>
        <time>2026-07-21T18:32:54.452Z</time>
      </trkpt>
      <trkpt lon="7.020020" lat="51.004894">
        <ele>295.225</ele>
        <time>2026-07-21T18:32:55.704Z</time>
      </trkpt>
      <trkpt lon="7.019213" lat="51.005007">
        <ele>292.074</ele>
        <time>2026-07-21T18:32:56.984Z</time>
      </trkpt>
      <trkpt lon="7.018466" lat="51.005177">
        <ele>293.056</ele>
        <time>2026-07-21T18:32:58.280Z</time>
      </trkpt>
      <trkpt lon="7.017827" lat="51.005391">
        <ele>296.328</ele>
        <time>2026-07-21T18:32:59.584Z</time>
      </trkpt>
      <trkpt lon="7.017320" lat="51.005628">
        <ele>300.581</ele>
        <time>2026-07-21T18:33:00.852Z</time>
      </trkpt>
      <trkpt lon="7.016909" lat="51.005875">
        <ele>303.287</ele>
        <time>2026-07-21T18:33:02.100Z</time>
      </trkpt>
      <trkpt lon="7.015232" lat="51.007043">
        <ele>277.575</ele>
        <time>2026-07-21T18:33:08.600Z</time>
      </trkpt>
      <trkpt lon="7.014499" lat="51.007514">
        <ele>249.626</ele>
        <time>2026-07-21T18:33:11.204Z</time>
      </trkpt>
      <trkpt lon="7.013679" lat="51.007996">
        <ele>223.964</ele>
        <time>2026-07-21T18:33:13.780Z</time>
      </trkpt>
      <trkpt lon="7.012565" lat="51.008667">
        <ele>210.558</ele>
        <time>2026-07-21T18:33:17.648Z</time>
      </trkpt>
      <trkpt lon="7.011865" lat="51.009185">
        <ele>193.169</ele>
        <time>2026-07-21T18:33:20.884Z</time>
      </trkpt>
      <trkpt lon="7.011342" lat="51.009603">
        <ele>168.137</ele>
        <time>2026-07-21T18:33:23.408Z</time>
      </trkpt>
      <trkpt lon="7.010920" lat="51.009964">
        <ele>142.184</ele>
        <time>2026-07-21T18:33:25.304Z</time>
      </trkpt>
      <trkpt lon="7.010476" lat="51.010390">
        <ele>115.23</ele>
        <time>2026-07-21T18:33:27.248Z</time>
      </trkpt>
      <trkpt lon="7.010020" lat="51.010857">
        <ele>91.4036</ele>
        <time>2026-07-21T18:33:29.180Z</time>
      </trkpt>
      <trkpt lon="7.009566" lat="51.011335">
        <ele>73.6642</ele>
        <time>2026-07-21T18:33:31.100Z</time>
      </trkpt>
      <trkpt lon="7.008861" lat="51.012080">
        <ele>56.0023</ele>
        <time>2026-07-21T18:33:34.312Z</time>
      </trkpt>
      <trkpt lon="7.008394" lat="51.012601">
        <ele>54.5672</ele>
        <time>2026-07-21T18:33:36.916Z</time>
      </trkpt>
      <trkpt lon="7.007857" lat="51.013222">
        <ele>50.3892</ele>
        <time>2026-07-21T18:33:40.820Z</time>
      </trkpt>
      <trkpt lon="7.007452" lat="51.013771">
        <ele>50.9064</ele>
        <time>2026-07-21T18:33:45.392Z</time>
      </trkpt>
      <trkpt lon="7.007300" lat="51.013957">
        <ele>51.0376</ele>
        <time>2026-07-21T18:33:47.920Z</time>
      </trkpt>
      <trkpt lon="7.007264" lat="51.014015">
        <ele>51.0767</ele>
        <time>2026-07-21T18:33:49.228Z</time>
      </trkpt>
      <trkpt lon="7.007255" lat="51.014042">
        <ele>51.0749</ele>
        <time>2026-07-21T18:33:49.892Z</time>
      </trkpt>
      <trkpt lon="7.007253" lat="51.014067">
        <ele>51.0796</ele>
        <time>2026-07-21T18:33:50.508Z</time>
      </trkpt>
      <trkpt lon="7.007257" lat="51.014091">
        <ele>51.0776</ele>
        <time>2026-07-21T18:33:51.156Z</time>
      </trkpt>
      <trkpt lon="7.007268" lat="51.014115">
        <ele>51.0581</ele>
        <time>2026-07-21T18:33:51.788Z</time>
      </trkpt>
      <trkpt lon="7.007287" lat="51.014138">
        <ele>51.0405</ele>
        <time>2026-07-21T18:33:52.420Z</time>
      </trkpt>
      <trkpt lon="7.007314" lat="51.014160">
        <ele>51.0178</ele>
        <time>2026-07-21T18:33:53.056Z</time>
      </trkpt>
      <trkpt lon="7.007351" lat="51.014179">
        <ele>50.9884</ele>
        <time>2026-07-21T18:33:53.712Z</time>
      </trkpt>
      <trkpt lon="7.007435" lat="51.014212">
        <ele>50.8999</ele>
        <time>2026-07-21T18:33:55.024Z</time>
      </trkpt>
      <trkpt lon="7.007570" lat="51.014261">
        <ele>50.7576</ele>
        <time>2026-07-21T18:33:56.908Z</time>
      </trkpt>
      <trkpt lon="7.007654" lat="51.014305">
        <ele>50.6501</ele>
        <time>2026-07-21T18:33:58.180Z</time>
      </trkpt>
      <trkpt lon="7.007734" lat="51.014357">
        <ele>50.5715</ele>
        <time>2026-07-21T18:33:59.492Z</time>
      </trkpt>
      <trkpt lon="7.007767" lat="51.014386">
        <ele>50.539</ele>
        <time>2026-07-21T18:34:00.108Z</time>
      </trkpt>
      <trkpt lon="7.007793" lat="51.014417">
        <ele>50.5254</ele>
        <time>2026-07-21T18:34:00.756Z</time>
      </trkpt>
      <trkpt lon="7.007808" lat="51.014451">
        <ele>50.5068</ele>
        <time>2026-07-21T18:34:01.392Z</time>
      </trkpt>
      <trkpt lon="7.007813" lat="51.014485">
        <ele>50.4768</ele>
        <time>2026-07-21T18:34:02.024Z</time>
      </trkpt>
      <trkpt lon="7.007806" lat="51.014517">
        <ele>50.4126</ele>
        <time>2026-07-21T18:34:02.656Z</time>
      </trkpt>
      <trkpt lon="7.007788" lat="51.014545">
        <ele>50.395</ele>
        <time>2026-07-21T18:34:03.320Z</time>
      </trkpt>
      <trkpt lon="7.007765" lat="51.014563">
        <ele>50.3936</ele>
        <time>2026-07-21T18:34:03.960Z</time>
      </trkpt>
      <trkpt lon="7.007747" lat="51.014572">
        <ele>50.4169</ele>
        <time>2026-07-21T18:34:04.624Z</time>
      </trkpt>
      <trkpt lon="7.007646" lat="51.014577">
        <ele>50.5398</ele>
        <time>2026-07-21T18:35:00.696Z</time>
      </trkpt>
      <trkpt lon="7.007037" lat="51.014539">
        <ele>51.0547</ele>
        <time>2026-07-21T18:35:05.780Z</time>
      </trkpt>
      <trkpt lon="7.006948" lat="51.014544">
        <ele>50.9721</ele>
        <time>2026-07-21T18:35:06.460Z</time>
      </trkpt>
      <trkpt lon="7.006868" lat="51.014560">
        <ele>50.9833</ele>
        <time>2026-07-21T18:35:07.080Z</time>
      </trkpt>
      <trkpt lon="7.006783" lat="51.014592">
        <ele>50.9843</ele>
        <time>2026-07-21T18:35:07.756Z</time>
      </trkpt>
      <trkpt lon="7.006702" lat="51.014647">
        <ele>50.9332</ele>
        <time>2026-07-21T18:35:08.428Z</time>
      </trkpt>
      <trkpt lon="7.006449" lat="51.014911">
        <ele>50.6369</ele>
        <time>2026-07-21T18:35:10.384Z</time>
      </trkpt>
      <trkpt lon="7.006044" lat="51.015257">
        <ele>50.4401</ele>
        <time>2026-07-21T18:35:12.352Z</time>
      </trkpt>
      <trkpt lon="7.005548" lat="51.015677">
        <ele>50.6757</ele>
        <time>2026-07-21T18:35:14.280Z</time>
      </trkpt>
      <trkpt lon="7.004733" lat="51.016319">
        <ele>52.9378</ele>
        <time>2026-07-21T18:35:16.852Z</time>
      </trkpt>
      <trkpt lon="7.003875" lat="51.017094">
        <ele>64.2671</ele>
        <time>2026-07-21T18:35:19.516Z</time>
      </trkpt>
      <trkpt lon="7.003529" lat="51.017496">
        <ele>73.0787</ele>
        <time>2026-07-21T18:35:20.788Z</time>
      </trkpt>
      <trkpt lon="7.003160" lat="51.018130">
        <ele>90.2678</ele>
        <time>2026-07-21T18:35:22.688Z</time>
      </trkpt>
      <trkpt lon="7.002790" lat="51.018732">
        <ele>113.669</ele>
        <time>2026-07-21T18:35:24.608Z</time>
      </trkpt>
      <trkpt lon="7.002354" lat="51.019286">
        <ele>136.015</ele>
        <time>2026-07-21T18:35:26.516Z</time>
      </trkpt>
      <trkpt lon="7.001675" lat="51.020044">
        <ele>160.734</ele>
        <time>2026-07-21T18:35:29.116Z</time>
      </trkpt>
      <trkpt lon="7.000941" lat="51.020818">
        <ele>184.188</ele>
        <time>2026-07-21T18:35:31.720Z</time>
      </trkpt>
      <trkpt lon="7.000203" lat="51.021548">
        <ele>211.339</ele>
        <time>2026-07-21T18:35:34.264Z</time>
      </trkpt>
      <trkpt lon="6.999830" lat="51.021896">
        <ele>225.769</ele>
        <time>2026-07-21T18:35:35.540Z</time>
      </trkpt>
      <trkpt lon="6.999053" lat="51.022589">
        <ele>251.31</ele>
        <time>2026-07-21T18:35:38.072Z</time>
      </trkpt>
      <trkpt lon="6.997698" lat="51.023756">
        <ele>273.078</ele>
        <time>2026-07-21T18:35:42.000Z</time>
      </trkpt>
      <trkpt lon="6.996431" lat="51.024836">
        <ele>279.504</ele>
        <time>2026-07-21T18:35:45.172Z</time>
      </trkpt>
      <trkpt lon="6.994148" lat="51.026777">
        <ele>307.453</ele>
        <time>2026-07-21T18:35:50.400Z</time>
      </trkpt>
      <trkpt lon="6.992389" lat="51.028255">
        <ele>341.132</ele>
        <time>2026-07-21T18:35:54.320Z</time>
      </trkpt>
      <trkpt lon="6.990962" lat="51.029441">
        <ele>375.677</ele>
        <time>2026-07-21T18:35:57.584Z</time>
      </trkpt>
      <trkpt lon="6.989549" lat="51.030592">
        <ele>412.827</ele>
        <time>2026-07-21T18:36:00.908Z</time>
      </trkpt>
      <trkpt lon="6.988177" lat="51.031673">
        <ele>449.376</ele>
        <time>2026-07-21T18:36:04.196Z</time>
      </trkpt>
      <trkpt lon="6.985683" lat="51.033616">
        <ele>484.939</ele>
        <time>2026-07-21T18:36:10.064Z</time>
      </trkpt>
      <trkpt lon="6.983051" lat="51.035772">
        <ele>498.531</ele>
        <time>2026-07-21T18:36:15.952Z</time>
      </trkpt>
      <trkpt lon="6.982566" lat="51.036316">
        <ele>510.011</ele>
        <time>2026-07-21T18:36:17.304Z</time>
      </trkpt>
      <trkpt lon="6.982213" lat="51.036859">
        <ele>522.388</ele>
        <time>2026-07-21T18:36:18.584Z</time>
      </trkpt>
      <trkpt lon="6.981982" lat="51.037419">
        <ele>535.123</ele>
        <time>2026-07-21T18:36:19.868Z</time>
      </trkpt>
      <trkpt lon="6.981874" lat="51.038006">
        <ele>547.958</ele>
        <time>2026-07-21T18:36:21.180Z</time>
      </trkpt>
      <trkpt lon="6.981903" lat="51.038585">
        <ele>560.019</ele>
        <time>2026-07-21T18:36:22.468Z</time>
      </trkpt>
      <trkpt lon="6.982068" lat="51.039163">
        <ele>571.1</ele>
        <time>2026-07-21T18:36:23.756Z</time>
      </trkpt>
      <trkpt lon="6.982370" lat="51.039723">
        <ele>580.637</ele>
        <time>2026-07-21T18:36:25.048Z</time>
      </trkpt>
      <trkpt lon="6.982582" lat="51.040006">
        <ele>584.809</ele>
        <time>2026-07-21T18:36:25.728Z</time>
      </trkpt>
      <trkpt lon="6.983086" lat="51.040526">
        <ele>590.89</ele>
        <time>2026-07-21T18:36:27.008Z</time>
      </trkpt>
      <trkpt lon="6.983722" lat="51.041007">
        <ele>595.193</ele>
        <time>2026-07-21T18:36:28.296Z</time>
      </trkpt>
      <trkpt lon="6.984479" lat="51.041435">
        <ele>598.595</ele>
        <time>2026-07-21T18:36:29.592Z</time>
      </trkpt>
      <trkpt lon="6.985326" lat="51.041796">
        <ele>601.385</ele>
        <time>2026-07-21T18:36:30.876Z</time>
      </trkpt>
      <trkpt lon="6.986265" lat="51.042088">
        <ele>604.617</ele>
        <time>2026-07-21T18:36:32.156Z</time>
      </trkpt>
      <trkpt lon="6.987299" lat="51.042307">
        <ele>609.235</ele>
        <time>2026-07-21T18:36:33.476Z</time>
      </trkpt>
      <trkpt lon="6.988377" lat="51.042442">
        <ele>615.208</ele>
        <time>2026-07-21T18:36:34.812Z</time>
      </trkpt>
      <trkpt lon="6.989499" lat="51.042491">
        <ele>622.315</ele>
        <time>2026-07-21T18:36:36.140Z</time>
      </trkpt>
      <trkpt lon="6.990620" lat="51.042449">
        <ele>630.646</ele>
        <time>2026-07-21T18:36:37.444Z</time>
      </trkpt>
      <trkpt lon="6.991716" lat="51.042321">
        <ele>640.007</ele>
        <time>2026-07-21T18:36:38.764Z</time>
      </trkpt>
      <trkpt lon="6.993293" lat="51.042015">
        <ele>651.846</ele>
        <time>2026-07-21T18:36:40.720Z</time>
      </trkpt>
      <trkpt lon="6.999100" lat="51.040525">
        <ele>653.067</ele>
        <time>2026-07-21T18:36:47.868Z</time>
      </trkpt>
      <trkpt lon="7.008168" lat="51.038064">
        <ele>632.451</ele>
        <time>2026-07-21T18:36:58.108Z</time>
      </trkpt>
      <trkpt lon="7.033420" lat="51.030569">
        <ele>675.583</ele>
        <time>2026-07-21T18:37:26.624Z</time>
      </trkpt>
      <trkpt lon="7.046204" lat="51.026168">
        <ele>714.662</ele>
        <time>2026-07-21T18:37:42.008Z</time>
      </trkpt>
      <trkpt lon="7.049102" lat="51.024886">
        <ele>724.307</ele>
        <time>2026-07-21T18:37:45.804Z</time>
      </trkpt>
      <trkpt lon="7.055798" lat="51.021773">
        <ele>745.645</ele>
        <time>2026-07-21T18:37:54.836Z</time>
      </trkpt>
      <trkpt lon="7.058446" lat="51.020817">
        <ele>751.913</ele>
        <time>2026-07-21T18:37:58.164Z</time>
      </trkpt>
      <trkpt lon="7.061156" lat="51.020031">
        <ele>758.297</ele>
        <time>2026-07-21T18:38:01.428Z</time>
      </trkpt>
      <trkpt lon="7.062819" lat="51.019660">
        <ele>760.511</ele>
        <time>2026-07-21T18:38:03.352Z</time>
      </trkpt>
      <trkpt lon="7.064548" lat="51.019392">
        <ele>761.474</ele>
        <time>2026-07-21T18:38:05.288Z</time>
      </trkpt>
      <trkpt lon="7.066334" lat="51.019227">
        <ele>762.15</ele>
        <time>2026-07-21T18:38:07.256Z</time>
      </trkpt>
      <trkpt lon="7.069297" lat="51.019136">
        <ele>763.26</ele>
        <time>2026-07-21T18:38:10.452Z</time>
      </trkpt>
      <trkpt lon="7.088740" lat="51.019820">
        <ele>765.386</ele>
        <time>2026-07-21T18:38:31.104Z</time>
      </trkpt>
      <trkpt lon="7.117553" lat="51.021261">
        <ele>742.958</ele>
        <time>2026-07-21T18:39:01.320Z</time>
      </trkpt>
      <trkpt lon="7.146898" lat="51.022827">
        <ele>735.414</ele>
        <time>2026-07-21T18:39:31.480Z</time>
      </trkpt>
      <trkpt lon="7.176268" lat="51.024443">
        <ele>735.662</ele>
        <time>2026-07-21T18:40:01.896Z</time>
      </trkpt>
      <trkpt lon="7.205795" lat="51.025983">
        <ele>731.778</ele>
        <time>2026-07-21T18:40:32.232Z</time>
      </trkpt>
      <trkpt lon="7.234652" lat="51.027517">
        <ele>732.058</ele>
        <time>2026-07-21T18:41:02.528Z</time>
      </trkpt>
      <trkpt lon="7.263798" lat="51.029081">
        <ele>731.32</ele>
        <time>2026-07-21T18:41:32.768Z</time>
      </trkpt>
      <trkpt lon="7.293065" lat="51.030626">
        <ele>730.813</ele>
        <time>2026-07-21T18:42:03.000Z</time>
      </trkpt>
      <trkpt lon="7.322566" lat="51.032167">
        <ele>731.373</ele>
        <time>2026-07-21T18:42:33.400Z</time>
      </trkpt>
      <trkpt lon="7.351695" lat="51.033705">
        <ele>731.583</ele>
        <time>2026-07-21T18:43:03.616Z</time>
      </trkpt>
      <trkpt lon="7.379332" lat="51.035125">
        <ele>774.331</ele>
        <time>2026-07-21T18:43:32.712Z</time>
      </trkpt>
      <trkpt lon="7.383337" lat="51.035317">
        <ele>815.493</ele>
        <time>2026-07-21T18:43:37.288Z</time>
      </trkpt>
      <trkpt lon="7.387095" lat="51.035498">
        <ele>856.794</ele>
        <time>2026-07-21T18:43:41.824Z</time>
      </trkpt>
      <trkpt lon="7.391267" lat="51.035708">
        <ele>904.422</ele>
        <time>2026-07-21T18:43:47.032Z</time>
      </trkpt>
      <trkpt lon="7.395279" lat="51.035911">
        <ele>951.223</ele>
        <time>2026-07-21T18:43:52.184Z</time>
      </trkpt>
      <trkpt lon="7.399198" lat="51.036109">
        <ele>997.079</ele>
        <time>2026-07-21T18:43:57.360Z</time>
      </trkpt>
      <trkpt lon="7.404020" lat="51.036349">
        <ele>1050.64</ele>
        <time>2026-07-21T18:44:03.872Z</time>
      </trkpt>
      <trkpt lon="7.408546" lat="51.036599">
        <ele>1065.89</ele>
        <time>2026-07-21T18:44:09.648Z</time>
      </trkpt>
      <trkpt lon="7.414695" lat="51.036955">
        <ele>1067.9</ele>
        <time>2026-07-21T18:44:16.760Z</time>
      </trkpt>
      <trkpt lon="7.443310" lat="51.038451">
        <ele>1069.82</ele>
        <time>2026-07-21T18:44:46.984Z</time>
      </trkpt>
      <trkpt lon="7.472798" lat="51.039957">
        <ele>1068.71</ele>
        <time>2026-07-21T18:45:17.432Z</time>
      </trkpt>
      <trkpt lon="7.501858" lat="51.041435">
        <ele>1067.57</ele>
        <time>2026-07-21T18:45:47.704Z</time>
      </trkpt>
      <trkpt lon="7.531243" lat="51.042894">
        <ele>1067.43</ele>
        <time>2026-07-21T18:46:18.040Z</time>
      </trkpt>
      <trkpt lon="7.560281" lat="51.044393">
        <ele>1067.49</ele>
        <time>2026-07-21T18:46:48.200Z</time>
      </trkpt>
      <trkpt lon="7.589819" lat="51.045856">
        <ele>1066.63</ele>
        <time>2026-07-21T18:47:18.640Z</time>
      </trkpt>
      <trkpt lon="7.618679" lat="51.047291">
        <ele>1065.89</ele>
        <time>2026-07-21T18:47:48.928Z</time>
      </trkpt>
      <trkpt lon="7.629413" lat="51.047702">
        <ele>1066.9</ele>
        <time>2026-07-21T18:47:59.856Z</time>
      </trkpt>
      <trkpt lon="7.632473" lat="51.047512">
        <ele>1091.1</ele>
        <time>2026-07-21T18:48:03.080Z</time>
      </trkpt>
      <trkpt lon="7.633506" lat="51.047423">
        <ele>1104.78</ele>
        <time>2026-07-21T18:48:04.320Z</time>
      </trkpt>
      <trkpt lon="7.634435" lat="51.047337">
        <ele>1117.28</ele>
        <time>2026-07-21T18:48:05.584Z</time>
      </trkpt>
      <trkpt lon="7.639570" lat="51.046980">
        <ele>1149.63</ele>
        <time>2026-07-21T18:48:13.288Z</time>
      </trkpt>
      <trkpt lon="7.643602" lat="51.046892">
        <ele>1100.37</ele>
        <time>2026-07-21T18:48:19.632Z</time>
      </trkpt>
      <trkpt lon="7.645865" lat="51.046875">
        <ele>1052.23</ele>
        <time>2026-07-21T18:48:22.824Z</time>
      </trkpt>
      <trkpt lon="7.648367" lat="51.046831">
        <ele>1007.5</ele>
        <time>2026-07-21T18:48:26.040Z</time>
      </trkpt>
      <trkpt lon="7.651906" lat="51.046754">
        <ele>962.748</ele>
        <time>2026-07-21T18:48:30.592Z</time>
      </trkpt>
      <trkpt lon="7.655731" lat="51.046718">
        <ele>916.336</ele>
        <time>2026-07-21T18:48:35.704Z</time>
      </trkpt>
      <trkpt lon="7.659107" lat="51.046691">
        <ele>872.268</ele>
        <time>2026-07-21T18:48:40.200Z</time>
      </trkpt>
      <trkpt lon="7.662924" lat="51.046723">
        <ele>828.921</ele>
        <time>2026-07-21T18:48:45.328Z</time>
      </trkpt>
      <trkpt lon="7.668362" lat="51.046984">
        <ele>793.967</ele>
        <time>2026-07-21T18:48:52.392Z</time>
      </trkpt>
      <trkpt lon="7.673139" lat="51.047338">
        <ele>764.862</ele>
        <time>2026-07-21T18:48:58.864Z</time>
      </trkpt>
      <trkpt lon="7.675947" lat="51.047762">
        <ele>752.73</ele>
        <time>2026-07-21T18:49:02.656Z</time>
      </trkpt>
      <trkpt lon="7.677371" lat="51.048078">
        <ele>754.134</ele>
        <time>2026-07-21T18:49:04.584Z</time>
      </trkpt>
      <trkpt lon="7.679153" lat="51.048607">
        <ele>762.733</ele>
        <time>2026-07-21T18:49:07.144Z</time>
      </trkpt>
      <trkpt lon="7.680806" lat="51.049236">
        <ele>768.515</ele>
        <time>2026-07-21T18:49:09.688Z</time>
      </trkpt>
      <trkpt lon="7.683885" lat="51.050660">
        <ele>779.867</ele>
        <time>2026-07-21T18:49:14.808Z</time>
      </trkpt>
      <trkpt lon="7.688675" lat="51.053407">
        <ele>792.428</ele>
        <time>2026-07-21T18:49:23.808Z</time>
      </trkpt>
      <trkpt lon="7.691617" lat="51.055510">
        <ele>790.054</ele>
        <time>2026-07-21T18:49:30.176Z</time>
      </trkpt>
      <trkpt lon="7.698304" lat="51.061208">
        <ele>823.781</ele>
        <time>2026-07-21T18:49:46.168Z</time>
      </trkpt>
      <trkpt lon="7.699421" lat="51.062117">
        <ele>832.947</ele>
        <time>2026-07-21T18:49:49.336Z</time>
      </trkpt>
      <trkpt lon="7.702388" lat="51.064531">
        <ele>836.871</ele>
        <time>2026-07-21T18:49:58.984Z</time>
      </trkpt>
      <trkpt lon="7.704615" lat="51.066157">
        <ele>826.587</ele>
        <time>2026-07-21T18:50:06.584Z</time>
      </trkpt>
      <trkpt lon="7.704864" lat="51.066268">
        <ele>824.211</ele>
        <time>2026-07-21T18:50:07.240Z</time>
      </trkpt>
      <trkpt lon="7.705134" lat="51.066361">
        <ele>822.018</ele>
        <time>2026-07-21T18:50:07.896Z</time>
      </trkpt>
      <trkpt lon="7.705430" lat="51.066436">
        <ele>819.812</ele>
        <time>2026-07-21T18:50:08.544Z</time>
      </trkpt>
      <trkpt lon="7.705741" lat="51.066488">
        <ele>817.655</ele>
        <time>2026-07-21T18:50:09.184Z</time>
      </trkpt>
      <trkpt lon="7.706070" lat="51.066517">
        <ele>815.692</ele>
        <time>2026-07-21T18:50:09.832Z</time>
      </trkpt>
      <trkpt lon="7.706405" lat="51.066522">
        <ele>813.919</ele>
        <time>2026-07-21T18:50:10.488Z</time>
      </trkpt>
      <trkpt lon="7.706743" lat="51.066503">
        <ele>812.434</ele>
        <time>2026-07-21T18:50:11.128Z</time>
      </trkpt>
      <trkpt lon="7.707100" lat="51.066460">
        <ele>811.139</ele>
        <time>2026-07-21T18:50:11.808Z</time>
      </trkpt>
      <trkpt lon="7.707446" lat="51.066398">
        <ele>809.941</ele>
        <time>2026-07-21T18:50:12.472Z</time>
      </trkpt>
      <trkpt lon="7.708099" lat="51.066222">
        <ele>807.71</ele>
        <time>2026-07-21T18:50:13.768Z</time>
      </trkpt>
      <trkpt lon="7.708723" lat="51.065983">
        <ele>805.688</ele>
        <time>2026-07-21T18:50:15.080Z</time>
      </trkpt>
      <trkpt lon="7.709289" lat="51.065708">
        <ele>802.642</ele>
        <time>2026-07-21T18:50:16.360Z</time>
      </trkpt>
      <trkpt lon="7.709812" lat="51.065397">
        <ele>798.159</ele>
        <time>2026-07-21T18:50:17.632Z</time>
      </trkpt>
      <trkpt lon="7.710306" lat="51.065038">
        <ele>792.564</ele>
        <time>2026-07-21T18:50:18.936Z</time>
      </trkpt>
      <trkpt lon="7.710742" lat="51.064657">
        <ele>787.094</ele>
        <time>2026-07-21T18:50:20.224Z</time>
      </trkpt>
      <trkpt lon="7.711326" lat="51.064009">
        <ele>779.112</ele>
        <time>2026-07-21T18:50:22.192Z</time>
      </trkpt>
      <trkpt lon="7.711762" lat="51.063324">
        <ele>770.46</ele>
        <time>2026-07-21T18:50:24.152Z</time>
      </trkpt>
      <trkpt lon="7.712206" lat="51.062166">
        <ele>753.798</ele>
        <time>2026-07-21T18:50:27.368Z</time>
      </trkpt>
      <trkpt lon="7.712569" lat="51.060900">
        <ele>742.518</ele>
        <time>2026-07-21T18:50:31.208Z</time>
      </trkpt>
      <trkpt lon="7.713034" lat="51.059244">
        <ele>716.21</ele>
        <time>2026-07-21T18:50:36.960Z</time>
      </trkpt>
      <trkpt lon="7.713090" lat="51.059047">
        <ele>711.969</ele>
        <time>2026-07-21T18:50:37.632Z</time>
      </trkpt>
      <trkpt lon="7.713251" lat="51.058075">
        <ele>683.547</ele>
        <time>2026-07-21T18:50:40.848Z</time>
      </trkpt>
      <trkpt lon="7.713228" lat="51.057683">
        <ele>670.931</ele>
        <time>2026-07-21T18:50:42.112Z</time>
      </trkpt>
      <trkpt lon="7.713137" lat="51.057280">
        <ele>657.494</ele>
        <time>2026-07-21T18:50:43.408Z</time>
      </trkpt>
      <trkpt lon="7.712975" lat="51.056882">
        <ele>643.708</ele>
        <time>2026-07-21T18:50:44.712Z</time>
      </trkpt>
      <trkpt lon="7.712757" lat="51.056497">
        <ele>629.672</ele>
        <time>2026-07-21T18:50:46.008Z</time>
      </trkpt>
      <trkpt lon="7.712357" lat="51.055955">
        <ele>609.15</ele>
        <time>2026-07-21T18:50:47.928Z</time>
      </trkpt>
      <trkpt lon="7.711735" lat="51.055274">
        <ele>583.253</ele>
        <time>2026-07-21T18:50:50.512Z</time>
      </trkpt>
      <trkpt lon="7.711059" lat="51.054653">
        <ele>560.294</ele>
        <time>2026-07-21T18:50:53.056Z</time>
      </trkpt>
      <trkpt lon="7.710318" lat="51.054091">
        <ele>537.618</ele>
        <time>2026-07-21T18:50:55.608Z</time>
      </trkpt>
      <trkpt lon="7.709710" lat="51.053693">
        <ele>518.76</ele>
        <time>2026-07-21T18:50:57.576Z</time>
      </trkpt>
      <trkpt lon="7.709045" lat="51.053313">
        <ele>500.803</ele>
        <time>2026-07-21T18:50:59.616Z</time>
      </trkpt>
      <trkpt lon="7.707839" lat="51.052647">
        <ele>487.314</ele>
        <time>2026-07-21T18:51:03.584Z</time>
      </trkpt>
      <trkpt lon="7.707500" lat="51.052484">
        <ele>486.677</ele>
        <time>2026-07-21T18:51:04.872Z</time>
      </trkpt>
      <trkpt lon="7.707021" lat="51.052330">
        <ele>489.263</ele>
        <time>2026-07-21T18:51:06.832Z</time>
      </trkpt>
      <trkpt lon="7.706798" lat="51.052282">
        <ele>490.337</ele>
        <time>2026-07-21T18:51:08.144Z</time>
      </trkpt>
      <trkpt lon="7.706739" lat="51.052266">
        <ele>490.542</ele>
        <time>2026-07-21T18:51:08.808Z</time>
      </trkpt>
      <trkpt lon="7.706693" lat="51.052248">
        <ele>490.757</ele>
        <time>2026-07-21T18:51:09.480Z</time>
      </trkpt>
      <trkpt lon="7.706670" lat="51.052238">
        <ele>490.842</ele>
        <time>2026-07-21T18:51:10.128Z</time>
      </trkpt>
      <trkpt lon="7.706657" lat="51.052230">
        <ele>490.908</ele>
        <time>2026-07-21T18:53:10.784Z</time>
      </trkpt>
      <trkpt lon="7.706630" lat="51.052207">
        <ele>491.021</ele>
        <time>2026-07-21T18:53:11.448Z</time>
      </trkpt>
      <trkpt lon="7.706544" lat="51.052104">
        <ele>491.367</ele>
        <time>2026-07-21T18:53:12.744Z</time>
      </trkpt>
      <trkpt lon="7.706405" lat="51.051938">
        <ele>491.5</ele>
        <time>2026-07-21T18:53:14.024Z</time>
      </trkpt>
      <trkpt lon="7.706241" lat="51.051697">
        <ele>491.073</ele>
        <time>2026-07-21T18:53:15.336Z</time>
      </trkpt>
      <trkpt lon="7.705918" lat="51.051236">
        <ele>490.19</ele>
        <time>2026-07-21T18:53:17.304Z</time>
      </trkpt>
      <trkpt lon="7.705647" lat="51.050882">
        <ele>492.836</ele>
        <time>2026-07-21T18:53:18.640Z</time>
      </trkpt>
      <trkpt lon="7.704985" lat="51.050217">
        <ele>507.516</ele>
        <time>2026-07-21T18:53:21.224Z</time>
      </trkpt>
      <trkpt lon="7.703769" lat="51.048970">
        <ele>525.844</ele>
        <time>2026-07-21T18:53:25.752Z</time>
      </trkpt>
      <trkpt lon="7.703503" lat="51.048577">
        <ele>532.62</ele>
        <time>2026-07-21T18:53:27.032Z</time>
      </trkpt>
      <trkpt lon="7.703312" lat="51.048162">
        <ele>540.192</ele>
        <time>2026-07-21T18:53:28.352Z</time>
      </trkpt>
      <trkpt lon="7.703190" lat="51.047754">
        <ele>544.145</ele>
        <time>2026-07-21T18:53:29.616Z</time>
      </trkpt>
      <trkpt lon="7.703133" lat="51.047319">
        <ele>547.036</ele>
        <time>2026-07-21T18:53:30.936Z</time>
      </trkpt>
      <trkpt lon="7.703132" lat="51.046875">
        <ele>549.932</ele>
        <time>2026-07-21T18:53:32.256Z</time>
      </trkpt>
      <trkpt lon="7.703202" lat="51.046184">
        <ele>552.293</ele>
        <time>2026-07-21T18:53:34.256Z</time>
      </trkpt>
      <trkpt lon="7.703298" lat="51.045710">
        <ele>551.993</ele>
        <time>2026-07-21T18:53:35.560Z</time>
      </trkpt>
      <trkpt lon="7.703457" lat="51.045233">
        <ele>555.029</ele>
        <time>2026-07-21T18:53:36.872Z</time>
      </trkpt>
      <trkpt lon="7.703687" lat="51.044783">
        <ele>561.843</ele>
        <time>2026-07-21T18:53:38.152Z</time>
      </trkpt>
      <trkpt lon="7.703982" lat="51.044372">
        <ele>569.859</ele>
        <time>2026-07-21T18:53:39.400Z</time>
      </trkpt>
      <trkpt lon="7.704371" lat="51.043968">
        <ele>577.525</ele>
        <time>2026-07-21T18:53:40.712Z</time>
      </trkpt>
      <trkpt lon="7.705058" lat="51.043390">
        <ele>579.195</ele>
        <time>2026-07-21T18:53:42.672Z</time>
      </trkpt>
      <trkpt lon="7.706178" lat="51.042651">
        <ele>585.23</ele>
        <time>2026-07-21T18:53:45.336Z</time>
      </trkpt>
      <trkpt lon="7.710014" lat="51.040452">
        <ele>615.468</ele>
        <time>2026-07-21T18:53:53.752Z</time>
      </trkpt>
      <trkpt lon="7.710922" lat="51.040032">
        <ele>630.184</ele>
        <time>2026-07-21T18:53:55.688Z</time>
      </trkpt>
      <trkpt lon="7.711546" lat="51.039813">
        <ele>640.245</ele>
        <time>2026-07-21T18:53:56.968Z</time>
      </trkpt>
      <trkpt lon="7.712214" lat="51.039646">
        <ele>650.22</ele>
        <time>2026-07-21T18:53:58.304Z</time>
      </trkpt>
      <trkpt lon="7.712886" lat="51.039547">
        <ele>659.692</ele>
        <time>2026-07-21T18:53:59.608Z</time>
      </trkpt>
      <trkpt lon="7.713541" lat="51.039517">
        <ele>668.534</ele>
        <time>2026-07-21T18:54:00.880Z</time>
      </trkpt>
      <trkpt lon="7.713878" lat="51.039528">
        <ele>672.948</ele>
        <time>2026-07-21T18:54:01.544Z</time>
      </trkpt>
      <trkpt lon="7.714510" lat="51.039599">
        <ele>681.159</ele>
        <time>2026-07-21T18:54:02.824Z</time>
      </trkpt>
      <trkpt lon="7.715102" lat="51.039734">
        <ele>688.912</ele>
        <time>2026-07-21T18:54:04.096Z</time>
      </trkpt>
      <trkpt lon="7.715644" lat="51.039929">
        <ele>696.259</ele>
        <time>2026-07-21T18:54:05.376Z</time>
      </trkpt>
      <trkpt lon="7.716111" lat="51.040174">
        <ele>703.299</ele>
        <time>2026-07-21T18:54:06.632Z</time>
      </trkpt>
      <trkpt lon="7.716510" lat="51.040469">
        <ele>710.105</ele>
        <time>2026-07-21T18:54:07.912Z</time>
      </trkpt>
      <trkpt lon="7.716820" lat="51.040802">
        <ele>716.352</ele>
        <time>2026-07-21T18:54:09.192Z</time>
      </trkpt>
      <trkpt lon="7.717040" lat="51.041179">
        <ele>722.432</ele>
        <time>2026-07-21T18:54:10.520Z</time>
      </trkpt>
      <trkpt lon="7.717146" lat="51.041563">
        <ele>728.057</ele>
        <time>2026-07-21T18:54:11.824Z</time>
      </trkpt>
      <trkpt lon="7.717146" lat="51.041948">
        <ele>733.28</ele>
        <time>2026-07-21T18:54:13.088Z</time>
      </trkpt>
      <trkpt lon="7.717041" lat="51.042330">
        <ele>738.219</ele>
        <time>2026-07-21T18:54:14.360Z</time>
      </trkpt>
      <trkpt lon="7.716823" lat="51.042716">
        <ele>743.035</ele>
        <time>2026-07-21T18:54:15.680Z</time>
      </trkpt>
      <trkpt lon="7.716500" lat="51.043076">
        <ele>747.458</ele>
        <time>2026-07-21T18:54:17.000Z</time>
      </trkpt>
      <trkpt lon="7.716081" lat="51.043401">
        <ele>751.332</ele>
        <time>2026-07-21T18:54:18.312Z</time>
      </trkpt>
      <trkpt lon="7.715576" lat="51.043683">
        <ele>754.812</ele>
        <time>2026-07-21T18:54:19.632Z</time>
      </trkpt>
      <trkpt lon="7.714992" lat="51.043918">
        <ele>758.086</ele>
        <time>2026-07-21T18:54:20.936Z</time>
      </trkpt>
      <trkpt lon="7.714348" lat="51.044098">
        <ele>761.133</ele>
        <time>2026-07-21T18:54:22.232Z</time>
      </trkpt>
      <trkpt lon="7.713660" lat="51.044216">
        <ele>763.968</ele>
        <time>2026-07-21T18:54:23.520Z</time>
      </trkpt>
      <trkpt lon="7.712923" lat="51.044272">
        <ele>766.97</ele>
        <time>2026-07-21T18:54:24.840Z</time>
      </trkpt>
      <trkpt lon="7.712175" lat="51.044260">
        <ele>769.957</ele>
        <time>2026-07-21T18:54:26.152Z</time>
      </trkpt>
      <trkpt lon="7.711420" lat="51.044179">
        <ele>772.907</ele>
        <time>2026-07-21T18:54:27.456Z</time>
      </trkpt>
      <trkpt lon="7.710680" lat="51.044031">
        <ele>775.752</ele>
        <time>2026-07-21T18:54:28.760Z</time>
      </trkpt>
      <trkpt lon="7.709879" lat="51.043786">
        <ele>778.943</ele>
        <time>2026-07-21T18:54:30.248Z</time>
      </trkpt>
      <trkpt lon="7.709232" lat="51.043507">
        <ele>781.59</ele>
        <time>2026-07-21T18:54:31.536Z</time>
      </trkpt>
      <trkpt lon="7.708648" lat="51.043170">
        <ele>784.34</ele>
        <time>2026-07-21T18:54:32.848Z</time>
      </trkpt>
      <trkpt lon="7.708140" lat="51.042781">
        <ele>787.105</ele>
        <time>2026-07-21T18:54:34.168Z</time>
      </trkpt>
      <trkpt lon="7.707723" lat="51.042355">
        <ele>789.706</ele>
        <time>2026-07-21T18:54:35.480Z</time>
      </trkpt>
      <trkpt lon="7.707399" lat="51.041895">
        <ele>792.233</ele>
        <time>2026-07-21T18:54:36.784Z</time>
      </trkpt>
      <trkpt lon="7.707169" lat="51.041392">
        <ele>795.067</ele>
        <time>2026-07-21T18:54:38.120Z</time>
      </trkpt>
      <trkpt lon="7.707047" lat="51.040881">
        <ele>797.934</ele>
        <time>2026-07-21T18:54:39.416Z</time>
      </trkpt>
      <trkpt lon="7.707026" lat="51.040364">
        <ele>801.1</ele>
        <time>2026-07-21T18:54:40.704Z</time>
      </trkpt>
      <trkpt lon="7.707114" lat="51.039611">
        <ele>806.547</ele>
        <time>2026-07-21T18:54:42.584Z</time>
      </trkpt>
      <trkpt lon="7.707256" lat="51.038312">
        <ele>815.922</ele>
        <time>2026-07-21T18:54:45.824Z</time>
      </trkpt>
      <trkpt lon="7.707206" lat="51.037796">
        <ele>818.906</ele>
        <time>2026-07-21T18:54:47.096Z</time>
      </trkpt>
      <trkpt lon="7.707067" lat="51.037285">
        <ele>821.655</ele>
        <time>2026-07-21T18:54:48.376Z</time>
      </trkpt>
      <trkpt lon="7.706836" lat="51.036799">
        <ele>824.469</ele>
        <time>2026-07-21T18:54:49.632Z</time>
      </trkpt>
      <trkpt lon="7.706508" lat="51.036338">
        <ele>827.635</ele>
        <time>2026-07-21T18:54:50.896Z</time>
      </trkpt>
      <trkpt lon="7.706099" lat="51.035907">
        <ele>830.791</ele>
        <time>2026-07-21T18:54:52.176Z</time>
      </trkpt>
      <trkpt lon="7.705638" lat="51.035509">
        <ele>834.168</ele>
        <time>2026-07-21T18:54:53.464Z</time>
      </trkpt>
      <trkpt lon="7.700317" lat="51.031082">
        <ele>875.586</ele>
        <time>2026-07-21T18:55:08.248Z</time>
      </trkpt>
      <trkpt lon="7.694545" lat="51.026152">
        <ele>919.48</ele>
        <time>2026-07-21T18:55:24.488Z</time>
      </trkpt>
      <trkpt lon="7.688915" lat="51.021347">
        <ele>948.926</ele>
        <time>2026-07-21T18:55:39.944Z</time>
      </trkpt>
      <trkpt lon="7.688043" lat="51.020637">
        <ele>933.4</ele>
        <time>2026-07-21T18:55:41.864Z</time>
      </trkpt>
      <trkpt lon="7.687032" lat="51.019838">
        <ele>911.954</ele>
        <time>2026-07-21T18:55:43.816Z</time>
      </trkpt>
      <trkpt lon="7.685553" lat="51.018695">
        <ele>880.773</ele>
        <time>2026-07-21T18:55:46.360Z</time>
      </trkpt>
      <trkpt lon="7.683495" lat="51.017125">
        <ele>842.954</ele>
        <time>2026-07-21T18:55:49.600Z</time>
      </trkpt>
      <trkpt lon="7.681275" lat="51.015434">
        <ele>805.253</ele>
        <time>2026-07-21T18:55:52.888Z</time>
      </trkpt>
      <trkpt lon="7.678060" lat="51.012981">
        <ele>769.026</ele>
        <time>2026-07-21T18:55:57.504Z</time>
      </trkpt>
      <trkpt lon="7.672354" lat="51.008582">
        <ele>770.089</ele>
        <time>2026-07-21T18:56:05.968Z</time>
      </trkpt>
      <trkpt lon="7.654030" lat="50.994447">
        <ele>735.856</ele>
        <time>2026-07-21T18:56:34.552Z</time>
      </trkpt>
      <trkpt lon="7.635125" lat="50.979559">
        <ele>730.694</ele>
        <time>2026-07-21T18:57:04.960Z</time>
      </trkpt>
      <trkpt lon="7.616211" lat="50.964962">
        <ele>730.194</ele>
        <time>2026-07-21T18:57:35.136Z</time>
      </trkpt>
      <trkpt lon="7.602120" lat="50.953737">
        <ele>728.226</ele>
        <time>2026-07-21T18:57:57.848Z</time>
      </trkpt>
      <trkpt lon="7.585155" lat="50.938174">
        <ele>729.11</ele>
        <time>2026-07-21T18:58:28.008Z</time>
      </trkpt>
      <trkpt lon="7.568437" lat="50.922441">
        <ele>731.205</ele>
        <time>2026-07-21T18:58:58.296Z</time>
      </trkpt>
      <trkpt lon="7.551241" lat="50.906774">
        <ele>731.132</ele>
        <time>2026-07-21T18:59:28.808Z</time>
      </trkpt>
      <trkpt lon="7.533907" lat="50.891283">
        <ele>730.749</ele>
        <time>2026-07-21T18:59:59.184Z</time>
      </trkpt>
      <trkpt lon="7.516895" lat="50.875804">
        <ele>733.45</ele>
        <time>2026-07-21T19:00:29.384Z</time>
      </trkpt>
      <trkpt lon="7.499876" lat="50.860181">
        <ele>731.965</ele>
        <time>2026-07-21T19:00:59.720Z</time>
      </trkpt>
      <trkpt lon="7.482907" lat="50.844639">
        <ele>731.325</ele>
        <time>2026-07-21T19:01:29.920Z</time>
      </trkpt>
      <trkpt lon="7.465782" lat="50.829053">
        <ele>732.28</ele>
        <time>2026-07-21T19:02:00.152Z</time>
      </trkpt>
      <trkpt lon="7.448652" lat="50.813462">
        <ele>731.939</ele>
        <time>2026-07-21T19:02:30.344Z</time>
      </trkpt>
      <trkpt lon="7.431433" lat="50.797920">
        <ele>732.696</ele>
        <time>2026-07-21T19:03:00.664Z</time>
      </trkpt>
      <trkpt lon="7.414533" lat="50.782349">
        <ele>729.702</ele>
        <time>2026-07-21T19:03:30.856Z</time>
      </trkpt>
      <trkpt lon="7.397748" lat="50.766703">
        <ele>729.569</ele>
        <time>2026-07-21T19:04:01.264Z</time>
      </trkpt>
      <trkpt lon="7.390867" lat="50.760596">
        <ele>731.816</ele>
        <time>2026-07-21T19:04:13.504Z</time>
      </trkpt>
      <trkpt lon="7.388732" lat="50.759183">
        <ele>732.159</ele>
        <time>2026-07-21T19:04:16.720Z</time>
      </trkpt>
      <trkpt lon="7.366652" lat="50.747094">
        <ele>732.654</ele>
        <time>2026-07-21T19:04:47.184Z</time>
      </trkpt>
      <trkpt lon="7.344555" lat="50.735043">
        <ele>733.305</ele>
        <time>2026-07-21T19:05:17.552Z</time>
      </trkpt>
      <trkpt lon="7.322396" lat="50.722991">
        <ele>732.902</ele>
        <time>2026-07-21T19:05:47.920Z</time>
      </trkpt>
      <trkpt lon="7.307994" lat="50.715059">
        <ele>752.846</ele>
        <time>2026-07-21T19:06:07.856Z</time>
      </trkpt>
      <trkpt lon="7.306743" lat="50.714376">
        <ele>757.742</ele>
        <time>2026-07-21T19:06:09.784Z</time>
      </trkpt>
      <trkpt lon="7.306053" lat="50.713967">
        <ele>706.488</ele>
        <time>2026-07-21T19:06:11.064Z</time>
      </trkpt>
      <trkpt lon="7.305635" lat="50.713732">
        <ele>682.936</ele>
        <time>2026-07-21T19:06:11.712Z</time>
      </trkpt>
      <trkpt lon="7.305140" lat="50.713470">
        <ele>664.589</ele>
        <time>2026-07-21T19:06:12.384Z</time>
      </trkpt>
      <trkpt lon="7.302995" lat="50.712412">
        <ele>629.544</ele>
        <time>2026-07-21T19:06:14.968Z</time>
      </trkpt>
      <trkpt lon="7.299062" lat="50.710703">
        <ele>631.184</ele>
        <time>2026-07-21T19:06:19.504Z</time>
      </trkpt>
      <trkpt lon="7.296763" lat="50.709895">
        <ele>635.669</ele>
        <time>2026-07-21T19:06:22.128Z</time>
      </trkpt>
      <trkpt lon="7.295001" lat="50.709417">
        <ele>635.093</ele>
        <time>2026-07-21T19:06:24.104Z</time>
      </trkpt>
      <trkpt lon="7.293255" lat="50.709065">
        <ele>629.222</ele>
        <time>2026-07-21T19:06:26.016Z</time>
      </trkpt>
      <trkpt lon="7.290271" lat="50.708658">
        <ele>614.02</ele>
        <time>2026-07-21T19:06:29.224Z</time>
      </trkpt>
      <trkpt lon="7.279878" lat="50.707866">
        <ele>578.893</ele>
        <time>2026-07-21T19:06:40.272Z</time>
      </trkpt>
      <trkpt lon="7.275451" lat="50.707584">
        <ele>542.228</ele>
        <time>2026-07-21T19:06:44.856Z</time>
      </trkpt>
      <trkpt lon="7.270403" lat="50.707354">
        <ele>530.11</ele>
        <time>2026-07-21T19:06:50.000Z</time>
      </trkpt>
      <trkpt lon="7.267380" lat="50.707429">
        <ele>542.654</ele>
        <time>2026-07-21T19:06:53.200Z</time>
      </trkpt>
      <trkpt lon="7.264481" lat="50.707704">
        <ele>549.371</ele>
        <time>2026-07-21T19:06:56.408Z</time>
      </trkpt>
      <trkpt lon="7.262241" lat="50.708088">
        <ele>553.333</ele>
        <time>2026-07-21T19:06:58.968Z</time>
      </trkpt>
      <trkpt lon="7.260077" lat="50.708630">
        <ele>555.643</ele>
        <time>2026-07-21T19:07:01.552Z</time>
      </trkpt>
      <trkpt lon="7.257979" lat="50.709327">
        <ele>554.905</ele>
        <time>2026-07-21T19:07:04.168Z</time>
      </trkpt>
      <trkpt lon="7.256063" lat="50.710147">
        <ele>556.556</ele>
        <time>2026-07-21T19:07:06.744Z</time>
      </trkpt>
      <trkpt lon="7.251186" lat="50.712765">
        <ele>554.434</ele>
        <time>2026-07-21T19:07:13.872Z</time>
      </trkpt>
      <trkpt lon="7.230649" lat="50.723936">
        <ele>584.612</ele>
        <time>2026-07-21T19:07:44.328Z</time>
      </trkpt>
      <trkpt lon="7.221661" lat="50.728587">
        <ele>563.062</ele>
        <time>2026-07-21T19:07:57.176Z</time>
      </trkpt>
      <trkpt lon="7.220495" lat="50.729431">
        <ele>553.664</ele>
        <time>2026-07-21T19:07:59.104Z</time>
      </trkpt>
      <trkpt lon="7.217985" lat="50.731683">
        <ele>525.946</ele>
        <time>2026-07-21T19:08:03.784Z</time>
      </trkpt>
      <trkpt lon="7.210074" lat="50.739841">
        <ele>493.011</ele>
        <time>2026-07-21T19:08:20.224Z</time>
      </trkpt>
      <trkpt lon="7.207889" lat="50.742464">
        <ele>462.245</ele>
        <time>2026-07-21T19:08:25.352Z</time>
      </trkpt>
      <trkpt lon="7.206230" lat="50.744985">
        <ele>432.129</ele>
        <time>2026-07-21T19:08:29.936Z</time>
      </trkpt>
      <trkpt lon="7.204237" lat="50.748641">
        <ele>405.377</ele>
        <time>2026-07-21T19:08:36.336Z</time>
      </trkpt>
      <trkpt lon="7.201507" lat="50.754051">
        <ele>383.746</ele>
        <time>2026-07-21T19:08:45.960Z</time>
      </trkpt>
      <trkpt lon="7.199868" lat="50.757975">
        <ele>360.059</ele>
        <time>2026-07-21T19:08:53.080Z</time>
      </trkpt>
      <trkpt lon="7.199180" lat="50.758968">
        <ele>350.633</ele>
        <time>2026-07-21T19:08:54.976Z</time>
      </trkpt>
      <trkpt lon="7.198586" lat="50.759612">
        <ele>342.36</ele>
        <time>2026-07-21T19:08:56.280Z</time>
      </trkpt>
      <trkpt lon="7.197888" lat="50.760212">
        <ele>333.745</ele>
        <time>2026-07-21T19:08:57.560Z</time>
      </trkpt>
      <trkpt lon="7.197043" lat="50.760782">
        <ele>324.407</ele>
        <time>2026-07-21T19:08:58.888Z</time>
      </trkpt>
      <trkpt lon="7.196136" lat="50.761259">
        <ele>315.534</ele>
        <time>2026-07-21T19:09:00.168Z</time>
      </trkpt>
      <trkpt lon="7.195075" lat="50.761689">
        <ele>306.326</ele>
        <time>2026-07-21T19:09:01.480Z</time>
      </trkpt>
      <trkpt lon="7.192225" lat="50.762533">
        <ele>282.69</ele>
        <time>2026-07-21T19:09:04.768Z</time>
      </trkpt>
      <trkpt lon="7.188765" lat="50.763309">
        <ele>257.284</ele>
        <time>2026-07-21T19:09:08.712Z</time>
      </trkpt>
      <trkpt lon="7.184880" lat="50.764136">
        <ele>231.786</ele>
        <time>2026-07-21T19:09:13.376Z</time>
      </trkpt>
      <trkpt lon="7.182717" lat="50.764573">
        <ele>205.277</ele>
        <time>2026-07-21T19:09:16.016Z</time>
      </trkpt>
      <trkpt lon="7.180525" lat="50.765003">
        <ele>183.303</ele>
        <time>2026-07-21T19:09:18.680Z</time>
      </trkpt>
      <trkpt lon="7.178364" lat="50.765412">
        <ele>163.394</ele>
        <time>2026-07-21T19:09:21.328Z</time>
      </trkpt>
      <trkpt lon="7.175767" lat="50.765980">
        <ele>140.671</ele>
        <time>2026-07-21T19:09:24.608Z</time>
      </trkpt>
      <trkpt lon="7.173761" lat="50.766468">
        <ele>120.641</ele>
        <time>2026-07-21T19:09:27.192Z</time>
      </trkpt>
      <trkpt lon="7.171791" lat="50.766950">
        <ele>101.394</ele>
        <time>2026-07-21T19:09:29.760Z</time>
      </trkpt>
      <trkpt lon="7.169805" lat="50.767421">
        <ele>83.1221</ele>
        <time>2026-07-21T19:09:32.376Z</time>
      </trkpt>
      <trkpt lon="7.168877" lat="50.767636">
        <ele>84.5091</ele>
        <time>2026-07-21T19:09:33.704Z</time>
      </trkpt>
      <trkpt lon="7.168095" lat="50.767814">
        <ele>82.4729</ele>
        <time>2026-07-21T19:09:35.040Z</time>
      </trkpt>
      <trkpt lon="7.167108" lat="50.768028">
        <ele>75.882</ele>
        <time>2026-07-21T19:09:37.056Z</time>
      </trkpt>
      <trkpt lon="7.166285" lat="50.768200">
        <ele>72.7384</ele>
        <time>2026-07-21T19:09:39.048Z</time>
      </trkpt>
      <trkpt lon="7.164967" lat="50.768489">
        <ele>64.4947</ele>
        <time>2026-07-21T19:09:43.000Z</time>
      </trkpt>
      <trkpt lon="7.163931" lat="50.768734">
        <ele>62.7969</ele>
        <time>2026-07-21T19:09:46.880Z</time>
      </trkpt>
      <trkpt lon="7.163681" lat="50.768807">
        <ele>63.0178</ele>
        <time>2026-07-21T19:09:48.160Z</time>
      </trkpt>
      <trkpt lon="7.163249" lat="50.768914">
        <ele>63.2357</ele>
        <time>2026-07-21T19:09:50.800Z</time>
      </trkpt>
      <trkpt lon="7.163064" lat="50.768962">
        <ele>63.2703</ele>
        <time>2026-07-21T19:09:52.144Z</time>
      </trkpt>
      <trkpt lon="7.162809" lat="50.769009">
        <ele>63.3011</ele>
        <time>2026-07-21T19:09:54.128Z</time>
      </trkpt>
      <trkpt lon="7.162646" lat="50.769016">
        <ele>63.3282</ele>
        <time>2026-07-21T19:09:55.408Z</time>
      </trkpt>
      <trkpt lon="7.162565" lat="50.769012">
        <ele>63.345</ele>
        <time>2026-07-21T19:09:56.072Z</time>
      </trkpt>
      <trkpt lon="7.162485" lat="50.769000">
        <ele>63.3644</ele>
        <time>2026-07-21T19:09:56.728Z</time>
      </trkpt>
      <trkpt lon="7.162332" lat="50.768966">
        <ele>63.3501</ele>
        <time>2026-07-21T19:09:58.064Z</time>
      </trkpt>
      <trkpt lon="7.162192" lat="50.768918">
        <ele>63.3223</ele>
        <time>2026-07-21T19:09:59.376Z</time>
      </trkpt>
      <trkpt lon="7.162126" lat="50.768886">
        <ele>63.3109</ele>
        <time>2026-07-21T19:10:00.040Z</time>
      </trkpt>
      <trkpt lon="7.162067" lat="50.768848">
        <ele>63.2966</ele>
        <time>2026-07-21T19:10:00.712Z</time>
      </trkpt>
      <trkpt lon="7.162016" lat="50.768808">
        <ele>63.2816</ele>
        <time>2026-07-21T19:10:01.368Z</time>
      </trkpt>
      <trkpt lon="7.161972" lat="50.768763">
        <ele>63.264</ele>
        <time>2026-07-21T19:10:02.032Z</time>
      </trkpt>
      <trkpt lon="7.161934" lat="50.768710">
        <ele>63.2399</ele>
        <time>2026-07-21T19:10:02.744Z</time>
      </trkpt>
      <trkpt lon="7.161786" lat="50.768390">
        <ele>63.1885</ele>
        <time>2026-07-21T19:10:06.672Z</time>
      </trkpt>
      <trkpt lon="7.161651" lat="50.768062">
        <ele>62.9617</ele>
        <time>2026-07-21T19:10:10.616Z</time>
      </trkpt>
      <trkpt lon="7.161572" lat="50.767584">
        <ele>62.6274</ele>
        <time>2026-07-21T19:10:16.480Z</time>
      </trkpt>
      <trkpt lon="7.161582" lat="50.767533">
        <ele>62.6124</ele>
        <time>2026-07-21T19:10:17.168Z</time>
      </trkpt>
      <trkpt lon="7.161602" lat="50.767485">
        <ele>62.5781</ele>
        <time>2026-07-21T19:10:17.832Z</time>
      </trkpt>
      <trkpt lon="7.161633" lat="50.767440">
        <ele>62.5616</ele>
        <time>2026-07-21T19:10:18.496Z</time>
      </trkpt>
      <trkpt lon="7.161671" lat="50.767397">
        <ele>62.5747</ele>
        <time>2026-07-21T19:10:19.168Z</time>
      </trkpt>
      <trkpt lon="7.161719" lat="50.767357">
        <ele>62.5981</ele>
        <time>2026-07-21T19:10:19.848Z</time>
      </trkpt>
      <trkpt lon="7.161821" lat="50.767289">
        <ele>62.6048</ele>
        <time>2026-07-21T19:10:21.192Z</time>
      </trkpt>
      <trkpt lon="7.161868" lat="50.767266">
        <ele>62.6136</ele>
        <time>2026-07-21T19:10:22.496Z</time>
      </trkpt>
    </trkseg>
    <trkseg>
      <trkpt lon="-122.294505" lat="47.518932">
        <ele>37.8553</ele>
        <time>2026-07-25T16:41:33.640Z</time>
      </trkpt>
    </trkseg>
    <trkseg>
      <trkpt lon="7.909467" lat="53.787553">
        <ele>1.74508</ele>
        <time>2026-07-25T16:41:50.556Z</time>
      </trkpt>
    </trkseg>
    <trkseg>
      <trkpt lon="-122.294505" lat="47.518932">
        <ele>37.3128</ele>
        <time>2026-07-25T21:14:29.400Z</time>
      </trkpt>
    </trkseg>
    <trkseg>
      <trkpt lon="7.315159" lat="46.216106">
        <ele>478.847</ele>
        <time>2026-07-25T21:15:59.592Z</time>
      </trkpt>
      <trkpt lon="7.315761" lat="46.216965">
        <ele>478.885</ele>
        <time>2026-07-25T21:16:14.880Z</time>
      </trkpt>
      <trkpt lon="7.315788" lat="46.216970">
        <ele>478.921</ele>
        <time>2026-07-25T21:16:25.248Z</time>
      </trkpt>
      <trkpt lon="7.315811" lat="46.216976">
        <ele>478.946</ele>
        <time>2026-07-25T21:17:06.392Z</time>
      </trkpt>
      <trkpt lon="7.315853" lat="46.216988">
        <ele>478.964</ele>
        <time>2026-07-25T21:17:57.032Z</time>
      </trkpt>
      <trkpt lon="7.315912" lat="46.217002">
        <ele>478.968</ele>
        <time>2026-07-25T21:17:58.168Z</time>
      </trkpt>
      <trkpt lon="7.316021" lat="46.217025">
        <ele>479.022</ele>
        <time>2026-07-25T21:17:59.312Z</time>
      </trkpt>
      <trkpt lon="7.316362" lat="46.217107">
        <ele>479.169</ele>
        <time>2026-07-25T21:18:01.600Z</time>
      </trkpt>
      <trkpt lon="7.316865" lat="46.217217">
        <ele>479.481</ele>
        <time>2026-07-25T21:18:03.864Z</time>
      </trkpt>
      <trkpt lon="7.318028" lat="46.217479">
        <ele>484.325</ele>
        <time>2026-07-25T21:18:07.856Z</time>
      </trkpt>
      <trkpt lon="7.319534" lat="46.217849">
        <ele>501.334</ele>
        <time>2026-07-25T21:18:12.432Z</time>
      </trkpt>
      <trkpt lon="7.320501" lat="46.218118">
        <ele>519.002</ele>
        <time>2026-07-25T21:18:15.816Z</time>
      </trkpt>
      <trkpt lon="7.321305" lat="46.218411">
        <ele>521.474</ele>
        <time>2026-07-25T21:18:18.608Z</time>
      </trkpt>
      <trkpt lon="7.322026" lat="46.218745">
        <ele>514.331</ele>
        <time>2026-07-25T21:18:20.856Z</time>
      </trkpt>
      <trkpt lon="7.322982" lat="46.219295">
        <ele>502.283</ele>
        <time>2026-07-25T21:18:23.656Z</time>
      </trkpt>
      <trkpt lon="7.324521" lat="46.220327">
        <ele>507.546</ele>
        <time>2026-07-25T21:18:28.248Z</time>
      </trkpt>
      <trkpt lon="7.324747" lat="46.220416">
        <ele>510.267</ele>
        <time>2026-07-25T21:18:28.808Z</time>
      </trkpt>
      <trkpt lon="7.324984" lat="46.220487">
        <ele>512.88</ele>
        <time>2026-07-25T21:18:29.368Z</time>
      </trkpt>
      <trkpt lon="7.325470" lat="46.220568">
        <ele>518.125</ele>
        <time>2026-07-25T21:18:30.496Z</time>
      </trkpt>
      <trkpt lon="7.325710" lat="46.220569">
        <ele>521.607</ele>
        <time>2026-07-25T21:18:31.064Z</time>
      </trkpt>
      <trkpt lon="7.325939" lat="46.220546">
        <ele>524.949</ele>
        <time>2026-07-25T21:18:31.632Z</time>
      </trkpt>
      <trkpt lon="7.326163" lat="46.220501">
        <ele>527.95</ele>
        <time>2026-07-25T21:18:32.200Z</time>
      </trkpt>
      <trkpt lon="7.326367" lat="46.220436">
        <ele>530.232</ele>
        <time>2026-07-25T21:18:32.768Z</time>
      </trkpt>
      <trkpt lon="7.326557" lat="46.220350">
        <ele>531.813</ele>
        <time>2026-07-25T21:18:33.344Z</time>
      </trkpt>
      <trkpt lon="7.326727" lat="46.220247">
        <ele>532.749</ele>
        <time>2026-07-25T21:18:33.912Z</time>
      </trkpt>
      <trkpt lon="7.326871" lat="46.220128">
        <ele>533.114</ele>
        <time>2026-07-25T21:18:34.488Z</time>
      </trkpt>
      <trkpt lon="7.326988" lat="46.219993">
        <ele>533.096</ele>
        <time>2026-07-25T21:18:35.056Z</time>
      </trkpt>
      <trkpt lon="7.327068" lat="46.219847">
        <ele>533.025</ele>
        <time>2026-07-25T21:18:35.616Z</time>
      </trkpt>
      <trkpt lon="7.327112" lat="46.219695">
        <ele>532.987</ele>
        <time>2026-07-25T21:18:36.168Z</time>
      </trkpt>
      <trkpt lon="7.327118" lat="46.219538">
        <ele>533.096</ele>
        <time>2026-07-25T21:18:36.744Z</time>
      </trkpt>
      <trkpt lon="7.327080" lat="46.219378">
        <ele>533.378</ele>
        <time>2026-07-25T21:18:37.320Z</time>
      </trkpt>
      <trkpt lon="7.327002" lat="46.219228">
        <ele>533.753</ele>
        <time>2026-07-25T21:18:37.888Z</time>
      </trkpt>
      <trkpt lon="7.326887" lat="46.219093">
        <ele>534.105</ele>
        <time>2026-07-25T21:18:38.456Z</time>
      </trkpt>
      <trkpt lon="7.326743" lat="46.218970">
        <ele>533.807</ele>
        <time>2026-07-25T21:18:39.016Z</time>
      </trkpt>
      <trkpt lon="7.326572" lat="46.218858">
        <ele>532.496</ele>
        <time>2026-07-25T21:18:39.592Z</time>
      </trkpt>
      <trkpt lon="7.326383" lat="46.218764">
        <ele>530.34</ele>
        <time>2026-07-25T21:18:40.160Z</time>
      </trkpt>
      <trkpt lon="7.325934" lat="46.218622">
        <ele>525.021</ele>
        <time>2026-07-25T21:18:41.304Z</time>
      </trkpt>
      <trkpt lon="7.324920" lat="46.218482">
        <ele>515.461</ele>
        <time>2026-07-25T21:18:43.576Z</time>
      </trkpt>
      <trkpt lon="7.322702" lat="46.218276">
        <ele>497.051</ele>
        <time>2026-07-25T21:18:48.664Z</time>
      </trkpt>
      <trkpt lon="7.320910" lat="46.217984">
        <ele>486.406</ele>
        <time>2026-07-25T21:18:53.216Z</time>
      </trkpt>
      <trkpt lon="7.319054" lat="46.217610">
        <ele>483.123</ele>
        <time>2026-07-25T21:18:58.880Z</time>
      </trkpt>
      <trkpt lon="7.317526" lat="46.217281">
        <ele>479.446</ele>
        <time>2026-07-25T21:19:04.560Z</time>
      </trkpt>
      <trkpt lon="7.317202" lat="46.217198">
        <ele>479.394</ele>
        <time>2026-07-25T21:19:06.280Z</time>
      </trkpt>
      <trkpt lon="7.316998" lat="46.217138">
        <ele>479.353</ele>
        <time>2026-07-25T21:19:08.016Z</time>
      </trkpt>
      <trkpt lon="7.316914" lat="46.217105">
        <ele>479.339</ele>
        <time>2026-07-25T21:19:09.712Z</time>
      </trkpt>
    </trkseg>
    <trkseg>
      <trkpt lon="-122.294505" lat="47.518932">
        <ele>37.3128</ele>
        <time>2026-07-25T21:25:15.000Z</time>
      </trkpt>
      <trkpt lon="-122.294505" lat="47.518932">
        <ele>8.4943</ele>
        <time>2024-06-15T00:00:10.709Z</time>
      </trkpt>
      <trkpt lon="-122.294505" lat="47.518932">
        <ele>38.2211</ele>
        <time>2026-07-25T21:44:58.272Z</time>
      </trkpt>
      <trkpt lon="-122.294505" lat="47.518932">
        <ele>7.58599</ele>
        <time>2024-06-15T00:00:14.833Z</time>
      </trkpt>
    </trkseg>
    <trkseg>
      <trkpt lon="7.315159" lat="46.216106">
        <ele>478.846</ele>
        <time>2026-07-25T22:27:11.192Z</time>
      </trkpt>
      <trkpt lon="7.315761" lat="46.216965">
        <ele>478.884</ele>
        <time>2026-07-25T22:27:26.088Z</time>
      </trkpt>
      <trkpt lon="7.315747" lat="46.216997">
        <ele>478.877</ele>
        <time>2026-07-25T22:31:27.672Z</time>
      </trkpt>
      <trkpt lon="7.315751" lat="46.216987">
        <ele>478.883</ele>
        <time>2026-07-25T22:31:38.584Z</time>
      </trkpt>
      <trkpt lon="7.315835" lat="46.217004">
        <ele>478.921</ele>
        <time>2026-07-25T22:34:28.960Z</time>
      </trkpt>
      <trkpt lon="7.316087" lat="46.217070">
        <ele>479.046</ele>
        <time>2026-07-25T22:34:31.344Z</time>
      </trkpt>
      <trkpt lon="7.316515" lat="46.217172">
        <ele>479.222</ele>
        <time>2026-07-25T22:34:33.752Z</time>
      </trkpt>
      <trkpt lon="7.317280" lat="46.217339">
        <ele>479.737</ele>
        <time>2026-07-25T22:34:36.752Z</time>
      </trkpt>
      <trkpt lon="7.319236" lat="46.217693">
        <ele>497.69</ele>
        <time>2026-07-25T22:34:42.696Z</time>
      </trkpt>
      <trkpt lon="7.320732" lat="46.217981">
        <ele>516.199</ele>
        <time>2026-07-25T22:34:46.896Z</time>
      </trkpt>
      <trkpt lon="7.322007" lat="46.218285">
        <ele>534.029</ele>
        <time>2026-07-25T22:34:50.456Z</time>
      </trkpt>
      <trkpt lon="7.323224" lat="46.218630">
        <ele>556.09</ele>
        <time>2026-07-25T22:34:53.992Z</time>
      </trkpt>
      <trkpt lon="7.324606" lat="46.219039">
        <ele>577.635</ele>
        <time>2026-07-25T22:34:58.136Z</time>
      </trkpt>
      <trkpt lon="7.327016" lat="46.219697">
        <ele>596.42</ele>
        <time>2026-07-25T22:35:04.624Z</time>
      </trkpt>
      <trkpt lon="7.329860" lat="46.220501">
        <ele>606.411</ele>
        <time>2026-07-25T22:35:11.056Z</time>
      </trkpt>
      <trkpt lon="7.332715" lat="46.221220">
        <ele>628.639</ele>
        <time>2026-07-25T22:35:16.928Z</time>
      </trkpt>
      <trkpt lon="7.334733" lat="46.221688">
        <ele>652.122</ele>
        <time>2026-07-25T22:35:21.048Z</time>
      </trkpt>
      <trkpt lon="7.336401" lat="46.222099">
        <ele>676.349</ele>
        <time>2026-07-25T22:35:24.616Z</time>
      </trkpt>
      <trkpt lon="7.338177" lat="46.222622">
        <ele>704.481</ele>
        <time>2026-07-25T22:35:28.712Z</time>
      </trkpt>
      <trkpt lon="7.340351" lat="46.223354">
        <ele>731.495</ele>
        <time>2026-07-25T22:35:33.984Z</time>
      </trkpt>
      <trkpt lon="7.344046" lat="46.224537">
        <ele>754.128</ele>
        <time>2026-07-25T22:35:42.304Z</time>
      </trkpt>
      <trkpt lon="7.346749" lat="46.225399">
        <ele>752.983</ele>
        <time>2026-07-25T22:35:47.576Z</time>
      </trkpt>
      <trkpt lon="7.350973" lat="46.227041">
        <ele>761.981</ele>
        <time>2026-07-25T22:35:55.232Z</time>
      </trkpt>
      <trkpt lon="7.353763" lat="46.228283">
        <ele>794.096</ele>
        <time>2026-07-25T22:36:00.520Z</time>
      </trkpt>
      <trkpt lon="7.355747" lat="46.229238">
        <ele>827.403</ele>
        <time>2026-07-25T22:36:04.640Z</time>
      </trkpt>
      <trkpt lon="7.357499" lat="46.230190">
        <ele>862.517</ele>
        <time>2026-07-25T22:36:08.744Z</time>
      </trkpt>
      <trkpt lon="7.358844" lat="46.231022">
        <ele>895.466</ele>
        <time>2026-07-25T22:36:12.408Z</time>
      </trkpt>
      <trkpt lon="7.359911" lat="46.231780">
        <ele>930.013</ele>
        <time>2026-07-25T22:36:15.952Z</time>
      </trkpt>
      <trkpt lon="7.360606" lat="46.232354">
        <ele>961.441</ele>
        <time>2026-07-25T22:36:18.992Z</time>
      </trkpt>
      <trkpt lon="7.360886" lat="46.232638">
        <ele>978.463</ele>
        <time>2026-07-25T22:36:20.736Z</time>
      </trkpt>
      <trkpt lon="7.361201" lat="46.233032">
        <ele>1000.32</ele>
        <time>2026-07-25T22:36:23.664Z</time>
      </trkpt>
      <trkpt lon="7.361678" lat="46.233642">
        <ele>999.965</ele>
        <time>2026-07-25T22:36:28.328Z</time>
      </trkpt>
      <trkpt lon="7.361873" lat="46.233836">
        <ele>997.433</ele>
        <time>2026-07-25T22:36:29.512Z</time>
      </trkpt>
      <trkpt lon="7.361992" lat="46.233935">
        <ele>996.348</ele>
        <time>2026-07-25T22:36:30.096Z</time>
      </trkpt>
      <trkpt lon="7.362271" lat="46.234130">
        <ele>994.612</ele>
        <time>2026-07-25T22:36:31.272Z</time>
      </trkpt>
      <trkpt lon="7.362784" lat="46.234408">
        <ele>993.468</ele>
        <time>2026-07-25T22:36:33.024Z</time>
      </trkpt>
      <trkpt lon="7.363402" lat="46.234659">
        <ele>993.927</ele>
        <time>2026-07-25T22:36:34.792Z</time>
      </trkpt>
      <trkpt lon="7.364347" lat="46.234951">
        <ele>991.593</ele>
        <time>2026-07-25T22:36:37.112Z</time>
      </trkpt>
      <trkpt lon="7.366022" lat="46.235362">
        <ele>981.039</ele>
        <time>2026-07-25T22:36:40.592Z</time>
      </trkpt>
      <trkpt lon="7.368334" lat="46.235826">
        <ele>967.873</ele>
        <time>2026-07-25T22:36:44.696Z</time>
      </trkpt>
      <trkpt lon="7.379096" lat="46.237804">
        <ele>1007.12</ele>
        <time>2026-07-25T22:37:01.776Z</time>
      </trkpt>
      <trkpt lon="7.385456" lat="46.239073">
        <ele>1047.98</ele>
        <time>2026-07-25T22:37:12.360Z</time>
      </trkpt>
      <trkpt lon="7.391593" lat="46.240312">
        <ele>1090.11</ele>
        <time>2026-07-25T22:37:22.976Z</time>
      </trkpt>
      <trkpt lon="7.397785" lat="46.241584">
        <ele>1134.93</ele>
        <time>2026-07-25T22:37:34.056Z</time>
      </trkpt>
      <trkpt lon="7.404097" lat="46.242920">
        <ele>1183.08</ele>
        <time>2026-07-25T22:37:45.752Z</time>
      </trkpt>
      <trkpt lon="7.410608" lat="46.244362">
        <ele>1233.87</ele>
        <time>2026-07-25T22:37:58.176Z</time>
      </trkpt>
      <trkpt lon="7.417095" lat="46.245889">
        <ele>1285.86</ele>
        <time>2026-07-25T22:38:10.992Z</time>
      </trkpt>
      <trkpt lon="7.423639" lat="46.247483">
        <ele>1340.38</ele>
        <time>2026-07-25T22:38:24.376Z</time>
      </trkpt>
      <trkpt lon="7.429670" lat="46.248971">
        <ele>1396.25</ele>
        <time>2026-07-25T22:38:36.680Z</time>
      </trkpt>
      <trkpt lon="7.434791" lat="46.250236">
        <ele>1455.18</ele>
        <time>2026-07-25T22:38:47.768Z</time>
      </trkpt>
      <trkpt lon="7.440290" lat="46.251603">
        <ele>1518.37</ele>
        <time>2026-07-25T22:39:00.344Z</time>
      </trkpt>
      <trkpt lon="7.445749" lat="46.252979">
        <ele>1584.34</ele>
        <time>2026-07-25T22:39:13.632Z</time>
      </trkpt>
      <trkpt lon="7.450638" lat="46.254199">
        <ele>1651.59</ele>
        <time>2026-07-25T22:39:26.688Z</time>
      </trkpt>
      <trkpt lon="7.455244" lat="46.255387">
        <ele>1723.16</ele>
        <time>2026-07-25T22:39:40.720Z</time>
      </trkpt>
      <trkpt lon="7.460859" lat="46.256924">
        <ele>1797.47</ele>
        <time>2026-07-25T22:40:01.696Z</time>
      </trkpt>
      <trkpt lon="7.465001" lat="46.257944">
        <ele>1831.05</ele>
        <time>2026-07-25T22:40:14.464Z</time>
      </trkpt>
      <trkpt lon="7.472260" lat="46.259548">
        <ele>1887.86</ele>
        <time>2026-07-25T22:40:32.520Z</time>
      </trkpt>
      <trkpt lon="7.480902" lat="46.261577">
        <ele>1969.8</ele>
        <time>2026-07-25T22:40:53.040Z</time>
      </trkpt>
      <trkpt lon="7.489450" lat="46.264155">
        <ele>2055.54</ele>
        <time>2026-07-25T22:41:14.056Z</time>
      </trkpt>
      <trkpt lon="7.497969" lat="46.266949">
        <ele>2143.65</ele>
        <time>2026-07-25T22:41:35.616Z</time>
      </trkpt>
      <trkpt lon="7.498593" lat="46.267234">
        <ele>2150.45</ele>
        <time>2026-07-25T22:41:37.352Z</time>
      </trkpt>
      <trkpt lon="7.498981" lat="46.267458">
        <ele>2155.03</ele>
        <time>2026-07-25T22:41:38.520Z</time>
      </trkpt>
      <trkpt lon="7.499330" lat="46.267708">
        <ele>2159.72</ele>
        <time>2026-07-25T22:41:39.680Z</time>
      </trkpt>
      <trkpt lon="7.499645" lat="46.267985">
        <ele>2164.59</ele>
        <time>2026-07-25T22:41:40.848Z</time>
      </trkpt>
      <trkpt lon="7.500050" lat="46.268423">
        <ele>2171.79</ele>
        <time>2026-07-25T22:41:42.584Z</time>
      </trkpt>
      <trkpt lon="7.504702" lat="46.274468">
        <ele>2267.18</ele>
        <time>2026-07-25T22:42:05.912Z</time>
      </trkpt>
      <trkpt lon="7.509198" lat="46.280534">
        <ele>2367.06</ele>
        <time>2026-07-25T22:42:30.520Z</time>
      </trkpt>
      <trkpt lon="7.512568" lat="46.285442">
        <ele>2455.92</ele>
        <time>2026-07-25T22:42:53.336Z</time>
      </trkpt>
      <trkpt lon="7.515342" lat="46.289612">
        <ele>2505.07</ele>
        <time>2026-07-25T22:43:13.728Z</time>
      </trkpt>
      <trkpt lon="7.517359" lat="46.292313">
        <ele>2527.49</ele>
        <time>2026-07-25T22:43:24.272Z</time>
      </trkpt>
      <trkpt lon="7.520028" lat="46.295626">
        <ele>2550.45</ele>
        <time>2026-07-25T22:43:35.568Z</time>
      </trkpt>
      <trkpt lon="7.524191" lat="46.300731">
        <ele>2581.25</ele>
        <time>2026-07-25T22:43:50.744Z</time>
      </trkpt>
      <trkpt lon="7.533387" lat="46.312264">
        <ele>2643.66</ele>
        <time>2026-07-25T22:44:21.128Z</time>
      </trkpt>
      <trkpt lon="7.543096" lat="46.324689">
        <ele>2706.13</ele>
        <time>2026-07-25T22:44:51.592Z</time>
      </trkpt>
      <trkpt lon="7.553180" lat="46.337596">
        <ele>2771.15</ele>
        <time>2026-07-25T22:45:21.880Z</time>
      </trkpt>
      <trkpt lon="7.554818" lat="46.339589">
        <ele>2781.51</ele>
        <time>2026-07-25T22:45:26.544Z</time>
      </trkpt>
      <trkpt lon="7.556758" lat="46.341464">
        <ele>2791.81</ele>
        <time>2026-07-25T22:45:31.232Z</time>
      </trkpt>
      <trkpt lon="7.562738" lat="46.346357">
        <ele>2817.38</ele>
        <time>2026-07-25T22:45:44.136Z</time>
      </trkpt>
      <trkpt lon="7.564481" lat="46.347602">
        <ele>2824.22</ele>
        <time>2026-07-25T22:45:47.624Z</time>
      </trkpt>
      <trkpt lon="7.566113" lat="46.348542">
        <ele>2829.77</ele>
        <time>2026-07-25T22:45:50.568Z</time>
      </trkpt>
      <trkpt lon="7.570347" lat="46.350513">
        <ele>2844.71</ele>
        <time>2026-07-25T22:45:57.672Z</time>
      </trkpt>
      <trkpt lon="7.575701" lat="46.352745">
        <ele>2862.67</ele>
        <time>2026-07-25T22:46:06.496Z</time>
      </trkpt>
      <trkpt lon="7.577875" lat="46.353604">
        <ele>2873.34</ele>
        <time>2026-07-25T22:46:10.656Z</time>
      </trkpt>
      <trkpt lon="7.580047" lat="46.354421">
        <ele>2880.25</ele>
        <time>2026-07-25T22:46:15.320Z</time>
      </trkpt>
      <trkpt lon="7.586465" lat="46.356750">
        <ele>2893.37</ele>
        <time>2026-07-25T22:46:29.456Z</time>
      </trkpt>
      <trkpt lon="7.591686" lat="46.358732">
        <ele>2898.12</ele>
        <time>2026-07-25T22:46:39.376Z</time>
      </trkpt>
      <trkpt lon="7.601288" lat="46.362597">
        <ele>2897.62</ele>
        <time>2026-07-25T22:46:56.272Z</time>
      </trkpt>
      <trkpt lon="7.602257" lat="46.363099">
        <ele>2898.82</ele>
        <time>2026-07-25T22:46:58.032Z</time>
      </trkpt>
      <trkpt lon="7.602856" lat="46.363472">
        <ele>2899.57</ele>
        <time>2026-07-25T22:46:59.184Z</time>
      </trkpt>
      <trkpt lon="7.603687" lat="46.364105">
        <ele>2900.97</ele>
        <time>2026-07-25T22:47:00.952Z</time>
      </trkpt>
      <trkpt lon="7.604426" lat="46.364799">
        <ele>2902.35</ele>
        <time>2026-07-25T22:47:02.704Z</time>
      </trkpt>
      <trkpt lon="7.609824" lat="46.371197">
        <ele>2909.66</ele>
        <time>2026-07-25T22:47:17.344Z</time>
      </trkpt>
      <trkpt lon="7.610802" lat="46.372570">
        <ele>2909.81</ele>
        <time>2026-07-25T22:47:20.248Z</time>
      </trkpt>
      <trkpt lon="7.611606" lat="46.374027">
        <ele>2909.82</ele>
        <time>2026-07-25T22:47:23.184Z</time>
      </trkpt>
      <trkpt lon="7.613493" lat="46.378858">
        <ele>2909.47</ele>
        <time>2026-07-25T22:47:32.512Z</time>
      </trkpt>
      <trkpt lon="7.618025" lat="46.395275">
        <ele>2911.8</ele>
        <time>2026-07-25T22:48:03.096Z</time>
      </trkpt>
      <trkpt lon="7.622086" lat="46.412112">
        <ele>2906.61</ele>
        <time>2026-07-25T22:48:33.528Z</time>
      </trkpt>
      <trkpt lon="7.626060" lat="46.428889">
        <ele>2903.3</ele>
        <time>2026-07-25T22:49:03.728Z</time>
      </trkpt>
      <trkpt lon="7.630006" lat="46.445473">
        <ele>2908.22</ele>
        <time>2026-07-25T22:49:34.096Z</time>
      </trkpt>
      <trkpt lon="7.631704" lat="46.450575">
        <ele>2908.7</ele>
        <time>2026-07-25T22:49:43.528Z</time>
      </trkpt>
      <trkpt lon="7.638952" lat="46.466922">
        <ele>2907.09</ele>
        <time>2026-07-25T22:50:13.912Z</time>
      </trkpt>
      <trkpt lon="7.646505" lat="46.482726">
        <ele>2911.41</ele>
        <time>2026-07-25T22:50:44.248Z</time>
      </trkpt>
      <trkpt lon="7.649686" lat="46.489718">
        <ele>2907.98</ele>
        <time>2026-07-25T22:50:57.648Z</time>
      </trkpt>
      <trkpt lon="7.650840" lat="46.494391">
        <ele>2907.56</ele>
        <time>2026-07-25T22:51:06.360Z</time>
      </trkpt>
      <trkpt lon="7.653166" lat="46.510618">
        <ele>2902.69</ele>
        <time>2026-07-25T22:51:36.608Z</time>
      </trkpt>
      <trkpt lon="7.654896" lat="46.526567">
        <ele>2902.59</ele>
        <time>2026-07-25T22:52:06.752Z</time>
      </trkpt>
      <trkpt lon="7.656700" lat="46.540833">
        <ele>2902.14</ele>
        <time>2026-07-25T22:52:34.184Z</time>
      </trkpt>
      <trkpt lon="7.657183" lat="46.542332">
        <ele>2903.75</ele>
        <time>2026-07-25T22:52:37.168Z</time>
      </trkpt>
      <trkpt lon="7.658181" lat="46.544482">
        <ele>2905.3</ele>
        <time>2026-07-25T22:52:41.560Z</time>
      </trkpt>
      <trkpt lon="7.660096" lat="46.547612">
        <ele>2907.66</ele>
        <time>2026-07-25T22:52:48.136Z</time>
      </trkpt>
      <trkpt lon="7.662144" lat="46.550371">
        <ele>2909.25</ele>
        <time>2026-07-25T22:52:54.104Z</time>
      </trkpt>
      <trkpt lon="7.664303" lat="46.552685">
        <ele>2910.87</ele>
        <time>2026-07-25T22:52:59.352Z</time>
      </trkpt>
      <trkpt lon="7.678523" lat="46.565533">
        <ele>2911.79</ele>
        <time>2026-07-25T22:53:29.536Z</time>
      </trkpt>
      <trkpt lon="7.692031" lat="46.579329">
        <ele>2907.7</ele>
        <time>2026-07-25T22:54:00.040Z</time>
      </trkpt>
      <trkpt lon="7.705814" lat="46.592499">
        <ele>2900.47</ele>
        <time>2026-07-25T22:54:30.128Z</time>
      </trkpt>
      <trkpt lon="7.719107" lat="46.605671">
        <ele>2909.42</ele>
        <time>2026-07-25T22:55:00.528Z</time>
      </trkpt>
      <trkpt lon="7.732867" lat="46.618941">
        <ele>2884.81</ele>
        <time>2026-07-25T22:55:30.896Z</time>
      </trkpt>
      <trkpt lon="7.747166" lat="46.633073">
        <ele>2844.23</ele>
        <time>2026-07-25T22:56:01.344Z</time>
      </trkpt>
      <trkpt lon="7.761966" lat="46.647446">
        <ele>2798.56</ele>
        <time>2026-07-25T22:56:31.872Z</time>
      </trkpt>
      <trkpt lon="7.776871" lat="46.662000">
        <ele>2749.88</ele>
        <time>2026-07-25T22:57:02.288Z</time>
      </trkpt>
      <trkpt lon="7.791770" lat="46.676453">
        <ele>2703.59</ele>
        <time>2026-07-25T22:57:32.576Z</time>
      </trkpt>
      <trkpt lon="7.806626" lat="46.690969">
        <ele>2661.2</ele>
        <time>2026-07-25T22:58:02.952Z</time>
      </trkpt>
      <trkpt lon="7.821745" lat="46.705630">
        <ele>2614.27</ele>
        <time>2026-07-25T22:58:33.440Z</time>
      </trkpt>
      <trkpt lon="7.836643" lat="46.720175">
        <ele>2563.17</ele>
        <time>2026-07-25T22:59:03.584Z</time>
      </trkpt>
      <trkpt lon="7.851834" lat="46.734850">
        <ele>2517.72</ele>
        <time>2026-07-25T22:59:34.176Z</time>
      </trkpt>
      <trkpt lon="7.866822" lat="46.749471">
        <ele>2475.85</ele>
        <time>2026-07-25T23:00:04.624Z</time>
      </trkpt>
      <trkpt lon="7.881882" lat="46.763976">
        <ele>2434.15</ele>
        <time>2026-07-25T23:00:34.704Z</time>
      </trkpt>
      <trkpt lon="7.894367" lat="46.776182">
        <ele>2390.89</ele>
        <time>2026-07-25T23:00:59.664Z</time>
      </trkpt>
      <trkpt lon="7.905096" lat="46.786575">
        <ele>2355.04</ele>
        <time>2026-07-25T23:01:21.472Z</time>
      </trkpt>
      <trkpt lon="7.920029" lat="46.800959">
        <ele>2304.9</ele>
        <time>2026-07-25T23:01:51.968Z</time>
      </trkpt>
      <trkpt lon="7.934758" lat="46.815319">
        <ele>2266.26</ele>
        <time>2026-07-25T23:02:22.448Z</time>
      </trkpt>
      <trkpt lon="7.949680" lat="46.829659">
        <ele>2241.99</ele>
        <time>2026-07-25T23:02:52.912Z</time>
      </trkpt>
      <trkpt lon="7.964364" lat="46.843850">
        <ele>2231.82</ele>
        <time>2026-07-25T23:03:23.288Z</time>
      </trkpt>
      <trkpt lon="7.978811" lat="46.857822">
        <ele>2227.9</ele>
        <time>2026-07-25T23:03:53.760Z</time>
      </trkpt>
      <trkpt lon="7.993016" lat="46.871510">
        <ele>2225.49</ele>
        <time>2026-07-25T23:04:24.136Z</time>
      </trkpt>
      <trkpt lon="8.006773" lat="46.884835">
        <ele>2230.32</ele>
        <time>2026-07-25T23:04:54.184Z</time>
      </trkpt>
      <trkpt lon="8.020774" lat="46.898277">
        <ele>2231.51</ele>
        <time>2026-07-25T23:05:24.648Z</time>
      </trkpt>
      <trkpt lon="8.032985" lat="46.910045">
        <ele>2207.29</ele>
        <time>2026-07-25T23:05:50.480Z</time>
      </trkpt>
      <trkpt lon="8.041147" lat="46.918020">
        <ele>2148.72</ele>
        <time>2026-07-25T23:06:06.504Z</time>
      </trkpt>
      <trkpt lon="8.048765" lat="46.925244">
        <ele>2095.47</ele>
        <time>2026-07-25T23:06:20.720Z</time>
      </trkpt>
      <trkpt lon="8.054996" lat="46.931121">
        <ele>2044.59</ele>
        <time>2026-07-25T23:06:32.432Z</time>
      </trkpt>
      <trkpt lon="8.061210" lat="46.937140">
        <ele>1994.96</ele>
        <time>2026-07-25T23:06:44.400Z</time>
      </trkpt>
      <trkpt lon="8.067311" lat="46.943113">
        <ele>1942.6</ele>
        <time>2026-07-25T23:06:56.152Z</time>
      </trkpt>
      <trkpt lon="8.073169" lat="46.948695">
        <ele>1891.9</ele>
        <time>2026-07-25T23:07:07.320Z</time>
      </trkpt>
      <trkpt lon="8.079714" lat="46.955079">
        <ele>1844</ele>
        <time>2026-07-25T23:07:19.960Z</time>
      </trkpt>
      <trkpt lon="8.087575" lat="46.962660">
        <ele>1793.27</ele>
        <time>2026-07-25T23:07:43.384Z</time>
      </trkpt>
      <trkpt lon="8.096154" lat="46.970717">
        <ele>1741.69</ele>
        <time>2026-07-25T23:08:11.616Z</time>
      </trkpt>
      <trkpt lon="8.102959" lat="46.977276">
        <ele>1699.91</ele>
        <time>2026-07-25T23:08:30.688Z</time>
      </trkpt>
      <trkpt lon="8.108813" lat="46.982994">
        <ele>1659.33</ele>
        <time>2026-07-25T23:08:41.744Z</time>
      </trkpt>
      <trkpt lon="8.115951" lat="46.989958">
        <ele>1619.73</ele>
        <time>2026-07-25T23:08:55.448Z</time>
      </trkpt>
      <trkpt lon="8.131235" lat="47.004321">
        <ele>1600.92</ele>
        <time>2026-07-25T23:09:25.736Z</time>
      </trkpt>
      <trkpt lon="8.145877" lat="47.018683">
        <ele>1600.43</ele>
        <time>2026-07-25T23:09:56.000Z</time>
      </trkpt>
      <trkpt lon="8.146668" lat="47.019427">
        <ele>1599.58</ele>
        <time>2026-07-25T23:09:57.776Z</time>
      </trkpt>
      <trkpt lon="8.155677" lat="47.027858">
        <ele>1597.79</ele>
        <time>2026-07-25T23:10:17.424Z</time>
      </trkpt>
      <trkpt lon="8.170003" lat="47.041650">
        <ele>1597.97</ele>
        <time>2026-07-25T23:10:47.624Z</time>
      </trkpt>
      <trkpt lon="8.184564" lat="47.055529">
        <ele>1600.09</ele>
        <time>2026-07-25T23:11:17.640Z</time>
      </trkpt>
      <trkpt lon="8.199034" lat="47.069439">
        <ele>1598.2</ele>
        <time>2026-07-25T23:11:47.880Z</time>
      </trkpt>
      <trkpt lon="8.213661" lat="47.083277">
        <ele>1601.3</ele>
        <time>2026-07-25T23:12:18.200Z</time>
      </trkpt>
      <trkpt lon="8.228485" lat="47.097529">
        <ele>1601.33</ele>
        <time>2026-07-25T23:12:48.720Z</time>
      </trkpt>
      <trkpt lon="8.243600" lat="47.111906">
        <ele>1597.53</ele>
        <time>2026-07-25T23:13:19.168Z</time>
      </trkpt>
      <trkpt lon="8.258742" lat="47.126412">
        <ele>1596.75</ele>
        <time>2026-07-25T23:13:50.344Z</time>
      </trkpt>
      <trkpt lon="8.273625" lat="47.140544">
        <ele>1596.56</ele>
        <time>2026-07-25T23:14:20.888Z</time>
      </trkpt>
      <trkpt lon="8.288170" lat="47.154455">
        <ele>1592.95</ele>
        <time>2026-07-25T23:14:51.008Z</time>
      </trkpt>
      <trkpt lon="8.300274" lat="47.165953">
        <ele>1533.34</ele>
        <time>2026-07-25T23:15:14.496Z</time>
      </trkpt>
      <trkpt lon="8.313222" lat="47.178240">
        <ele>1475.64</ele>
        <time>2026-07-25T23:15:38.640Z</time>
      </trkpt>
      <trkpt lon="8.324263" lat="47.188684">
        <ele>1424.6</ele>
        <time>2026-07-25T23:15:58.880Z</time>
      </trkpt>
      <trkpt lon="8.333463" lat="47.197584">
        <ele>1379.06</ele>
        <time>2026-07-25T23:16:15.992Z</time>
      </trkpt>
      <trkpt lon="8.342072" lat="47.205746">
        <ele>1331.61</ele>
        <time>2026-07-25T23:16:31.824Z</time>
      </trkpt>
      <trkpt lon="8.349599" lat="47.212822">
        <ele>1283.83</ele>
        <time>2026-07-25T23:16:45.744Z</time>
      </trkpt>
      <trkpt lon="8.359513" lat="47.222267">
        <ele>1235.76</ele>
        <time>2026-07-25T23:17:04.168Z</time>
      </trkpt>
      <trkpt lon="8.369444" lat="47.231664">
        <ele>1188.61</ele>
        <time>2026-07-25T23:17:22.536Z</time>
      </trkpt>
      <trkpt lon="8.379034" lat="47.240759">
        <ele>1139.39</ele>
        <time>2026-07-25T23:17:40.312Z</time>
      </trkpt>
      <trkpt lon="8.390359" lat="47.251472">
        <ele>1092.05</ele>
        <time>2026-07-25T23:18:01.216Z</time>
      </trkpt>
      <trkpt lon="8.406691" lat="47.266955">
        <ele>1050.25</ele>
        <time>2026-07-25T23:18:31.560Z</time>
      </trkpt>
      <trkpt lon="8.422589" lat="47.282050">
        <ele>1042.01</ele>
        <time>2026-07-25T23:19:01.888Z</time>
      </trkpt>
      <trkpt lon="8.438538" lat="47.297158">
        <ele>1034.91</ele>
        <time>2026-07-25T23:19:32.304Z</time>
      </trkpt>
      <trkpt lon="8.454802" lat="47.312369">
        <ele>1036.88</ele>
        <time>2026-07-25T23:20:02.648Z</time>
      </trkpt>
      <trkpt lon="8.470826" lat="47.327738">
        <ele>1028.43</ele>
        <time>2026-07-25T23:20:33.032Z</time>
      </trkpt>
      <trkpt lon="8.487467" lat="47.343231">
        <ele>1042.4</ele>
        <time>2026-07-25T23:21:03.536Z</time>
      </trkpt>
      <trkpt lon="8.503603" lat="47.358696">
        <ele>1036.31</ele>
        <time>2026-07-25T23:21:33.832Z</time>
      </trkpt>
      <trkpt lon="8.520001" lat="47.373859">
        <ele>1032.08</ele>
        <time>2026-07-25T23:22:04.368Z</time>
      </trkpt>
      <trkpt lon="8.535845" lat="47.389051">
        <ele>1035.96</ele>
        <time>2026-07-25T23:22:34.784Z</time>
      </trkpt>
      <trkpt lon="8.552052" lat="47.404094">
        <ele>1029.6</ele>
        <time>2026-07-25T23:23:05.136Z</time>
      </trkpt>
      <trkpt lon="8.567716" lat="47.418908">
        <ele>1027.63</ele>
        <time>2026-07-25T23:23:35.560Z</time>
      </trkpt>
      <trkpt lon="8.583327" lat="47.433637">
        <ele>1029.83</ele>
        <time>2026-07-25T23:24:05.992Z</time>
      </trkpt>
      <trkpt lon="8.599157" lat="47.448364">
        <ele>1033.3</ele>
        <time>2026-07-25T23:24:36.520Z</time>
      </trkpt>
      <trkpt lon="8.614685" lat="47.463127">
        <ele>1032.23</ele>
        <time>2026-07-25T23:25:06.880Z</time>
      </trkpt>
      <trkpt lon="8.630908" lat="47.478179">
        <ele>1032.42</ele>
        <time>2026-07-25T23:25:37.296Z</time>
      </trkpt>
      <trkpt lon="8.646883" lat="47.493261">
        <ele>1030.65</ele>
        <time>2026-07-25T23:26:07.688Z</time>
      </trkpt>
      <trkpt lon="8.663016" lat="47.508249">
        <ele>1028.72</ele>
        <time>2026-07-25T23:26:38.096Z</time>
      </trkpt>
      <trkpt lon="8.678941" lat="47.523295">
        <ele>1033.08</ele>
        <time>2026-07-25T23:27:08.480Z</time>
      </trkpt>
      <trkpt lon="8.695076" lat="47.538182">
        <ele>1030.29</ele>
        <time>2026-07-25T23:27:38.808Z</time>
      </trkpt>
      <trkpt lon="8.711208" lat="47.553411">
        <ele>1029.41</ele>
        <time>2026-07-25T23:28:09.192Z</time>
      </trkpt>
      <trkpt lon="8.727295" lat="47.568411">
        <ele>1026.87</ele>
        <time>2026-07-25T23:28:39.600Z</time>
      </trkpt>
      <trkpt lon="8.743218" lat="47.583283">
        <ele>1026.4</ele>
        <time>2026-07-25T23:29:10.008Z</time>
      </trkpt>
      <trkpt lon="8.758944" lat="47.597986">
        <ele>1030.92</ele>
        <time>2026-07-25T23:29:40.408Z</time>
      </trkpt>
      <trkpt lon="8.774998" lat="47.612826">
        <ele>1030.62</ele>
        <time>2026-07-25T23:30:10.832Z</time>
      </trkpt>
      <trkpt lon="8.790927" lat="47.627783">
        <ele>1030.87</ele>
        <time>2026-07-25T23:30:41.288Z</time>
      </trkpt>
      <trkpt lon="8.807083" lat="47.642725">
        <ele>1031.7</ele>
        <time>2026-07-25T23:31:11.720Z</time>
      </trkpt>
      <trkpt lon="8.823227" lat="47.657752">
        <ele>1027.14</ele>
        <time>2026-07-25T23:31:42.120Z</time>
      </trkpt>
      <trkpt lon="8.839254" lat="47.672676">
        <ele>1032.79</ele>
        <time>2026-07-25T23:32:12.496Z</time>
      </trkpt>
      <trkpt lon="8.843526" lat="47.676768">
        <ele>1031.82</ele>
        <time>2026-07-25T23:32:20.728Z</time>
      </trkpt>
      <trkpt lon="8.850186" lat="47.683239">
        <ele>1031.56</ele>
        <time>2026-07-25T23:32:33.400Z</time>
      </trkpt>
      <trkpt lon="8.867504" lat="47.698635">
        <ele>1027.87</ele>
        <time>2026-07-25T23:33:03.848Z</time>
      </trkpt>
      <trkpt lon="8.883867" lat="47.714086">
        <ele>1024.34</ele>
        <time>2026-07-25T23:33:34.344Z</time>
      </trkpt>
      <trkpt lon="8.900294" lat="47.729253">
        <ele>1022.87</ele>
        <time>2026-07-25T23:34:04.752Z</time>
      </trkpt>
      <trkpt lon="8.916486" lat="47.744297">
        <ele>1026.66</ele>
        <time>2026-07-25T23:34:34.912Z</time>
      </trkpt>
      <trkpt lon="8.932386" lat="47.759382">
        <ele>1025.65</ele>
        <time>2026-07-25T23:35:05.064Z</time>
      </trkpt>
      <trkpt lon="8.941388" lat="47.768137">
        <ele>1032.41</ele>
        <time>2026-07-25T23:35:22.416Z</time>
      </trkpt>
      <trkpt lon="8.942098" lat="47.768697">
        <ele>1036.26</ele>
        <time>2026-07-25T23:35:23.632Z</time>
      </trkpt>
      <trkpt lon="8.942887" lat="47.769216">
        <ele>1041.59</ele>
        <time>2026-07-25T23:35:24.864Z</time>
      </trkpt>
      <trkpt lon="8.944547" lat="47.770080">
        <ele>1057.65</ele>
        <time>2026-07-25T23:35:27.264Z</time>
      </trkpt>
      <trkpt lon="8.947464" lat="47.771416">
        <ele>1095.14</ele>
        <time>2026-07-25T23:35:31.560Z</time>
      </trkpt>
      <trkpt lon="8.951046" lat="47.773235">
        <ele>1143.46</ele>
        <time>2026-07-25T23:35:37.576Z</time>
      </trkpt>
      <trkpt lon="8.955510" lat="47.775820">
        <ele>1183.8</ele>
        <time>2026-07-25T23:35:46.024Z</time>
      </trkpt>
      <trkpt lon="8.959015" lat="47.778129">
        <ele>1177.73</ele>
        <time>2026-07-25T23:35:52.760Z</time>
      </trkpt>
      <trkpt lon="8.961761" lat="47.780032">
        <ele>1159.08</ele>
        <time>2026-07-25T23:35:57.688Z</time>
      </trkpt>
      <trkpt lon="8.964390" lat="47.781820">
        <ele>1124.7</ele>
        <time>2026-07-25T23:36:01.976Z</time>
      </trkpt>
      <trkpt lon="8.967244" lat="47.783688">
        <ele>1091.99</ele>
        <time>2026-07-25T23:36:06.192Z</time>
      </trkpt>
      <trkpt lon="8.972905" lat="47.787555">
        <ele>1100.46</ele>
        <time>2026-07-25T23:36:14.696Z</time>
      </trkpt>
      <trkpt lon="8.975864" lat="47.789563">
        <ele>1133.17</ele>
        <time>2026-07-25T23:36:19.616Z</time>
      </trkpt>
      <trkpt lon="8.983765" lat="47.795429">
        <ele>1159.59</ele>
        <time>2026-07-25T23:36:34.368Z</time>
      </trkpt>
      <trkpt lon="8.985846" lat="47.797214">
        <ele>1168.57</ele>
        <time>2026-07-25T23:36:38.816Z</time>
      </trkpt>
      <trkpt lon="8.987029" lat="47.798358">
        <ele>1180.43</ele>
        <time>2026-07-25T23:36:41.856Z</time>
      </trkpt>
      <trkpt lon="8.987452" lat="47.798769">
        <ele>1183.22</ele>
        <time>2026-07-25T23:36:43.096Z</time>
      </trkpt>
      <trkpt lon="8.988172" lat="47.799571">
        <ele>1185.03</ele>
        <time>2026-07-25T23:36:45.624Z</time>
      </trkpt>
      <trkpt lon="8.988619" lat="47.800083">
        <ele>1184.36</ele>
        <time>2026-07-25T23:36:47.440Z</time>
      </trkpt>
      <trkpt lon="8.989101" lat="47.800553">
        <ele>1179.46</ele>
        <time>2026-07-25T23:36:49.280Z</time>
      </trkpt>
      <trkpt lon="8.989781" lat="47.801123">
        <ele>1165.82</ele>
        <time>2026-07-25T23:36:51.680Z</time>
      </trkpt>
      <trkpt lon="8.991123" lat="47.802166">
        <ele>1120.33</ele>
        <time>2026-07-25T23:36:56.016Z</time>
      </trkpt>
      <trkpt lon="8.991471" lat="47.802494">
        <ele>1102.14</ele>
        <time>2026-07-25T23:36:57.216Z</time>
      </trkpt>
      <trkpt lon="8.991773" lat="47.802847">
        <ele>1082.25</ele>
        <time>2026-07-25T23:36:58.408Z</time>
      </trkpt>
      <trkpt lon="8.992046" lat="47.803253">
        <ele>1059.85</ele>
        <time>2026-07-25T23:36:59.656Z</time>
      </trkpt>
      <trkpt lon="8.992252" lat="47.803661">
        <ele>1038</ele>
        <time>2026-07-25T23:37:00.840Z</time>
      </trkpt>
      <trkpt lon="8.992402" lat="47.804105">
        <ele>1014.89</ele>
        <time>2026-07-25T23:37:02.080Z</time>
      </trkpt>
      <trkpt lon="8.992478" lat="47.804567">
        <ele>990.926</ele>
        <time>2026-07-25T23:37:03.296Z</time>
      </trkpt>
      <trkpt lon="8.992465" lat="47.805032">
        <ele>967.462</ele>
        <time>2026-07-25T23:37:04.520Z</time>
      </trkpt>
      <trkpt lon="8.992367" lat="47.805489">
        <ele>945.476</ele>
        <time>2026-07-25T23:37:05.728Z</time>
      </trkpt>
      <trkpt lon="8.992181" lat="47.805937">
        <ele>925.133</ele>
        <time>2026-07-25T23:37:06.952Z</time>
      </trkpt>
      <trkpt lon="8.992039" lat="47.806159">
        <ele>916.644</ele>
        <time>2026-07-25T23:37:07.592Z</time>
      </trkpt>
      <trkpt lon="8.991871" lat="47.806364">
        <ele>909.891</ele>
        <time>2026-07-25T23:37:08.224Z</time>
      </trkpt>
      <trkpt lon="8.991678" lat="47.806549">
        <ele>904.535</ele>
        <time>2026-07-25T23:37:08.856Z</time>
      </trkpt>
      <trkpt lon="8.991457" lat="47.806718">
        <ele>900.147</ele>
        <time>2026-07-25T23:37:09.488Z</time>
      </trkpt>
      <trkpt lon="8.991230" lat="47.806854">
        <ele>896.886</ele>
        <time>2026-07-25T23:37:10.096Z</time>
      </trkpt>
      <trkpt lon="8.991001" lat="47.806962">
        <ele>894.382</ele>
        <time>2026-07-25T23:37:10.712Z</time>
      </trkpt>
      <trkpt lon="8.990755" lat="47.807054">
        <ele>891.775</ele>
        <time>2026-07-25T23:37:11.328Z</time>
      </trkpt>
      <trkpt lon="8.990277" lat="47.807173">
        <ele>886.008</ele>
        <time>2026-07-25T23:37:12.552Z</time>
      </trkpt>
      <trkpt lon="8.990041" lat="47.807206">
        <ele>882.46</ele>
        <time>2026-07-25T23:37:13.168Z</time>
      </trkpt>
      <trkpt lon="8.988428" lat="47.807250">
        <ele>841.147</ele>
        <time>2026-07-25T23:37:17.496Z</time>
      </trkpt>
      <trkpt lon="8.987717" lat="47.807361">
        <ele>820.813</ele>
        <time>2026-07-25T23:37:19.312Z</time>
      </trkpt>
      <trkpt lon="8.987245" lat="47.807511">
        <ele>806.826</ele>
        <time>2026-07-25T23:37:20.528Z</time>
      </trkpt>
      <trkpt lon="8.987021" lat="47.807623">
        <ele>799.226</ele>
        <time>2026-07-25T23:37:21.144Z</time>
      </trkpt>
      <trkpt lon="8.986824" lat="47.807767">
        <ele>792.254</ele>
        <time>2026-07-25T23:37:21.744Z</time>
      </trkpt>
      <trkpt lon="8.986673" lat="47.807939">
        <ele>787.269</ele>
        <time>2026-07-25T23:37:22.336Z</time>
      </trkpt>
      <trkpt lon="8.986574" lat="47.808138">
        <ele>784.393</ele>
        <time>2026-07-25T23:37:22.936Z</time>
      </trkpt>
      <trkpt lon="8.986538" lat="47.808345">
        <ele>783.553</ele>
        <time>2026-07-25T23:37:23.528Z</time>
      </trkpt>
      <trkpt lon="8.986565" lat="47.808551">
        <ele>784.454</ele>
        <time>2026-07-25T23:37:24.136Z</time>
      </trkpt>
      <trkpt lon="8.986655" lat="47.808747">
        <ele>786.5</ele>
        <time>2026-07-25T23:37:24.752Z</time>
      </trkpt>
      <trkpt lon="8.986798" lat="47.808918">
        <ele>788.842</ele>
        <time>2026-07-25T23:37:25.368Z</time>
      </trkpt>
      <trkpt lon="8.986978" lat="47.809060">
        <ele>790.695</ele>
        <time>2026-07-25T23:37:25.976Z</time>
      </trkpt>
      <trkpt lon="8.987185" lat="47.809173">
        <ele>791.57</ele>
        <time>2026-07-25T23:37:26.592Z</time>
      </trkpt>
      <trkpt lon="8.987401" lat="47.809254">
        <ele>791.19</ele>
        <time>2026-07-25T23:37:27.224Z</time>
      </trkpt>
      <trkpt lon="8.987655" lat="47.809315">
        <ele>789.198</ele>
        <time>2026-07-25T23:37:27.840Z</time>
      </trkpt>
      <trkpt lon="8.987893" lat="47.809343">
        <ele>785.953</ele>
        <time>2026-07-25T23:37:28.464Z</time>
      </trkpt>
      <trkpt lon="8.988119" lat="47.809344">
        <ele>781.749</ele>
        <time>2026-07-25T23:37:29.064Z</time>
      </trkpt>
      <trkpt lon="8.988336" lat="47.809320">
        <ele>776.773</ele>
        <time>2026-07-25T23:37:29.672Z</time>
      </trkpt>
      <trkpt lon="8.988541" lat="47.809271">
        <ele>771.353</ele>
        <time>2026-07-25T23:37:30.264Z</time>
      </trkpt>
      <trkpt lon="8.988730" lat="47.809196">
        <ele>765.799</ele>
        <time>2026-07-25T23:37:30.896Z</time>
      </trkpt>
      <trkpt lon="8.988885" lat="47.809102">
        <ele>760.779</ele>
        <time>2026-07-25T23:37:31.504Z</time>
      </trkpt>
      <trkpt lon="8.989017" lat="47.808988">
        <ele>755.658</ele>
        <time>2026-07-25T23:37:32.128Z</time>
      </trkpt>
      <trkpt lon="8.989116" lat="47.808866">
        <ele>750.074</ele>
        <time>2026-07-25T23:37:32.736Z</time>
      </trkpt>
      <trkpt lon="8.989183" lat="47.808737">
        <ele>743.981</ele>
        <time>2026-07-25T23:37:33.344Z</time>
      </trkpt>
      <trkpt lon="8.989215" lat="47.808599">
        <ele>737.425</ele>
        <time>2026-07-25T23:37:33.944Z</time>
      </trkpt>
      <trkpt lon="8.989202" lat="47.808460">
        <ele>731.064</ele>
        <time>2026-07-25T23:37:34.560Z</time>
      </trkpt>
      <trkpt lon="8.989142" lat="47.808324">
        <ele>725.094</ele>
        <time>2026-07-25T23:37:35.160Z</time>
      </trkpt>
      <trkpt lon="8.989038" lat="47.808201">
        <ele>719.52</ele>
        <time>2026-07-25T23:37:35.752Z</time>
      </trkpt>
      <trkpt lon="8.988887" lat="47.808092">
        <ele>714.074</ele>
        <time>2026-07-25T23:37:36.376Z</time>
      </trkpt>
      <trkpt lon="8.988692" lat="47.808007">
        <ele>708.947</ele>
        <time>2026-07-25T23:37:37.000Z</time>
      </trkpt>
      <trkpt lon="8.988470" lat="47.807955">
        <ele>704.271</ele>
        <time>2026-07-25T23:37:37.624Z</time>
      </trkpt>
      <trkpt lon="8.988237" lat="47.807938">
        <ele>699.995</ele>
        <time>2026-07-25T23:37:38.232Z</time>
      </trkpt>
      <trkpt lon="8.987998" lat="47.807954">
        <ele>695.769</ele>
        <time>2026-07-25T23:37:38.848Z</time>
      </trkpt>
      <trkpt lon="8.987763" lat="47.807998">
        <ele>691.342</ele>
        <time>2026-07-25T23:37:39.472Z</time>
      </trkpt>
      <trkpt lon="8.987306" lat="47.808125">
        <ele>683.161</ele>
        <time>2026-07-25T23:37:40.688Z</time>
      </trkpt>
      <trkpt lon="8.986864" lat="47.808253">
        <ele>675.342</ele>
        <time>2026-07-25T23:37:41.920Z</time>
      </trkpt>
      <trkpt lon="8.986414" lat="47.808353">
        <ele>666.081</ele>
        <time>2026-07-25T23:37:43.144Z</time>
      </trkpt>
      <trkpt lon="8.985226" lat="47.808562">
        <ele>637.245</ele>
        <time>2026-07-25T23:37:46.192Z</time>
      </trkpt>
      <trkpt lon="8.984181" lat="47.808726">
        <ele>605.629</ele>
        <time>2026-07-25T23:37:48.680Z</time>
      </trkpt>
      <trkpt lon="8.983646" lat="47.808793">
        <ele>586.028</ele>
        <time>2026-07-25T23:37:49.904Z</time>
      </trkpt>
      <trkpt lon="8.983367" lat="47.808812">
        <ele>575.508</ele>
        <time>2026-07-25T23:37:50.520Z</time>
      </trkpt>
      <trkpt lon="8.983079" lat="47.808809">
        <ele>565.708</ele>
        <time>2026-07-25T23:37:51.144Z</time>
      </trkpt>
      <trkpt lon="8.982793" lat="47.808773">
        <ele>558.105</ele>
        <time>2026-07-25T23:37:51.752Z</time>
      </trkpt>
      <trkpt lon="8.982523" lat="47.808711">
        <ele>552.137</ele>
        <time>2026-07-25T23:37:52.352Z</time>
      </trkpt>
      <trkpt lon="8.982260" lat="47.808626">
        <ele>546.15</ele>
        <time>2026-07-25T23:37:52.984Z</time>
      </trkpt>
      <trkpt lon="8.982023" lat="47.808524">
        <ele>540.004</ele>
        <time>2026-07-25T23:37:53.600Z</time>
      </trkpt>
      <trkpt lon="8.981814" lat="47.808406">
        <ele>533.393</ele>
        <time>2026-07-25T23:37:54.200Z</time>
      </trkpt>
      <trkpt lon="8.981639" lat="47.808275">
        <ele>526.156</ele>
        <time>2026-07-25T23:37:54.800Z</time>
      </trkpt>
      <trkpt lon="8.981494" lat="47.808130">
        <ele>517.829</ele>
        <time>2026-07-25T23:37:55.400Z</time>
      </trkpt>
      <trkpt lon="8.981378" lat="47.807976">
        <ele>507.998</ele>
        <time>2026-07-25T23:37:56.008Z</time>
      </trkpt>
      <trkpt lon="8.981226" lat="47.807643">
        <ele>482.964</ele>
        <time>2026-07-25T23:37:57.232Z</time>
      </trkpt>
      <trkpt lon="8.981192" lat="47.807193">
        <ele>454.982</ele>
        <time>2026-07-25T23:37:58.776Z</time>
      </trkpt>
      <trkpt lon="8.981152" lat="47.806528">
        <ele>434.035</ele>
        <time>2026-07-25T23:38:00.672Z</time>
      </trkpt>
      <trkpt lon="8.980941" lat="47.805901">
        <ele>431.43</ele>
        <time>2026-07-25T23:38:02.544Z</time>
      </trkpt>
      <trkpt lon="8.980520" lat="47.804989">
        <ele>430.501</ele>
        <time>2026-07-25T23:38:05.776Z</time>
      </trkpt>
      <trkpt lon="8.980202" lat="47.804175">
        <ele>426.325</ele>
        <time>2026-07-25T23:38:09.168Z</time>
      </trkpt>
      <trkpt lon="8.979773" lat="47.802973">
        <ele>423.749</ele>
        <time>2026-07-25T23:38:14.856Z</time>
      </trkpt>
      <trkpt lon="8.979567" lat="47.802333">
        <ele>424.035</ele>
        <time>2026-07-25T23:38:18.576Z</time>
      </trkpt>
      <trkpt lon="8.979532" lat="47.802247">
        <ele>424.2</ele>
        <time>2026-07-25T23:38:19.208Z</time>
      </trkpt>
      <trkpt lon="8.979469" lat="47.802044">
        <ele>424.54</ele>
        <time>2026-07-25T23:38:21.080Z</time>
      </trkpt>
      <trkpt lon="8.979449" lat="47.801992">
        <ele>424.622</ele>
        <time>2026-07-25T23:38:21.696Z</time>
      </trkpt>
      <trkpt lon="8.979412" lat="47.801907">
        <ele>424.734</ele>
        <time>2026-07-25T23:38:22.920Z</time>
      </trkpt>
      <trkpt lon="8.979405" lat="47.801873">
        <ele>424.783</ele>
        <time>2026-07-25T23:38:23.528Z</time>
      </trkpt>
      <trkpt lon="8.979392" lat="47.801843">
        <ele>424.798</ele>
        <time>2026-07-25T23:38:24.136Z</time>
      </trkpt>
      <trkpt lon="8.979279" lat="47.801635">
        <ele>425.082</ele>
        <time>2026-07-25T23:38:31.024Z</time>
      </trkpt>
      <trkpt lon="8.979249" lat="47.801612">
        <ele>425.106</ele>
        <time>2026-07-25T23:38:32.920Z</time>
      </trkpt>
      <trkpt lon="8.979237" lat="47.801606">
        <ele>425.118</ele>
        <time>2026-07-25T23:38:33.520Z</time>
      </trkpt>
      <trkpt lon="8.979222" lat="47.801600">
        <ele>425.121</ele>
        <time>2026-07-25T23:38:34.168Z</time>
      </trkpt>
      <trkpt lon="8.979206" lat="47.801595">
        <ele>425.123</ele>
        <time>2026-07-25T23:38:34.824Z</time>
      </trkpt>
      <trkpt lon="8.979188" lat="47.801592">
        <ele>425.131</ele>
        <time>2026-07-25T23:38:35.432Z</time>
      </trkpt>
      <trkpt lon="8.979105" lat="47.801584">
        <ele>425.137</ele>
        <time>2026-07-25T23:38:37.928Z</time>
      </trkpt>
      <trkpt lon="8.978920" lat="47.801574">
        <ele>425.139</ele>
        <time>2026-07-25T23:38:41.640Z</time>
      </trkpt>
      <trkpt lon="8.978651" lat="47.801577">
        <ele>424.843</ele>
        <time>2026-07-25T23:38:45.344Z</time>
      </trkpt>
      <trkpt lon="8.978591" lat="47.801569">
        <ele>424.693</ele>
        <time>2026-07-25T23:38:46.616Z</time>
      </trkpt>
      <trkpt lon="8.978573" lat="47.801569">
        <ele>424.652</ele>
        <time>2026-07-25T23:38:47.200Z</time>
      </trkpt>
      <trkpt lon="8.978555" lat="47.801572">
        <ele>424.587</ele>
        <time>2026-07-25T23:38:47.816Z</time>
      </trkpt>
      <trkpt lon="8.978537" lat="47.801580">
        <ele>424.52</ele>
        <time>2026-07-25T23:38:48.448Z</time>
      </trkpt>
      <trkpt lon="8.978482" lat="47.801619">
        <ele>424.236</ele>
        <time>2026-07-25T23:38:50.296Z</time>
      </trkpt>
      <trkpt lon="8.978457" lat="47.801631">
        <ele>424.119</ele>
        <time>2026-07-25T23:38:50.904Z</time>
      </trkpt>
      <trkpt lon="8.978431" lat="47.801638">
        <ele>424.008</ele>
        <time>2026-07-25T23:38:51.552Z</time>
      </trkpt>
      <trkpt lon="8.978398" lat="47.801644">
        <ele>423.843</ele>
        <time>2026-07-25T23:38:52.832Z</time>
      </trkpt>
      <trkpt lon="8.978341" lat="47.801660">
        <ele>423.539</ele>
        <time>2026-07-25T23:38:54.664Z</time>
      </trkpt>
      <trkpt lon="8.978276" lat="47.801675">
        <ele>423.177</ele>
        <time>2026-07-25T23:39:05.192Z</time>
      </trkpt>
      <trkpt lon="8.978165" lat="47.801117">
        <ele>426.155</ele>
        <time>2026-07-26T08:40:23.098Z</time>
      </trkpt>
      <trkpt lon="8.978154" lat="47.801120">
        <ele>424.311</ele>
        <time>2026-07-26T09:25:32.472Z</time>
      </trkpt>
      <trkpt lon="8.978137" lat="47.801131">
        <ele>424.192</ele>
        <time>2026-07-26T09:25:33.760Z</time>
      </trkpt>
      <trkpt lon="8.978132" lat="47.801140">
        <ele>424.122</ele>
        <time>2026-07-26T09:25:34.404Z</time>
      </trkpt>
      <trkpt lon="8.978131" lat="47.801150">
        <ele>424.073</ele>
        <time>2026-07-26T09:25:34.992Z</time>
      </trkpt>
      <trkpt lon="8.978137" lat="47.801176">
        <ele>424.007</ele>
        <time>2026-07-26T09:25:36.264Z</time>
      </trkpt>
      <trkpt lon="8.978143" lat="47.801188">
        <ele>423.976</ele>
        <time>2026-07-26T09:25:36.880Z</time>
      </trkpt>
      <trkpt lon="8.978150" lat="47.801200">
        <ele>423.97</ele>
        <time>2026-07-26T09:25:37.484Z</time>
      </trkpt>
      <trkpt lon="8.978189" lat="47.801248">
        <ele>423.956</ele>
        <time>2026-07-26T09:25:39.980Z</time>
      </trkpt>
      <trkpt lon="8.978203" lat="47.801257">
        <ele>424.008</ele>
        <time>2026-07-26T09:25:40.632Z</time>
      </trkpt>
      <trkpt lon="8.978279" lat="47.801298">
        <ele>424.246</ele>
        <time>2026-07-26T09:25:44.312Z</time>
      </trkpt>
      <trkpt lon="8.978345" lat="47.801349">
        <ele>424.369</ele>
        <time>2026-07-26T09:25:46.136Z</time>
      </trkpt>
      <trkpt lon="8.978394" lat="47.801397">
        <ele>424.401</ele>
        <time>2026-07-26T09:25:47.328Z</time>
      </trkpt>
      <trkpt lon="8.978724" lat="47.801779">
        <ele>424.629</ele>
        <time>2026-07-26T09:25:54.588Z</time>
      </trkpt>
      <trkpt lon="8.978740" lat="47.801803">
        <ele>424.616</ele>
        <time>2026-07-26T09:28:37.756Z</time>
      </trkpt>
      <trkpt lon="8.978862" lat="47.802008">
        <ele>424.601</ele>
        <time>2026-07-26T09:28:42.576Z</time>
      </trkpt>
      <trkpt lon="8.979139" lat="47.802631">
        <ele>423.966</ele>
        <time>2026-07-26T09:28:50.492Z</time>
      </trkpt>
      <trkpt lon="8.979318" lat="47.803188">
        <ele>422.722</ele>
        <time>2026-07-26T09:28:57.656Z</time>
      </trkpt>
      <trkpt lon="8.979330" lat="47.803213">
        <ele>422.655</ele>
        <time>2026-07-26T09:28:58.236Z</time>
      </trkpt>
      <trkpt lon="8.979345" lat="47.803240">
        <ele>422.578</ele>
        <time>2026-07-26T09:28:58.876Z</time>
      </trkpt>
      <trkpt lon="8.979354" lat="47.803267">
        <ele>422.58</ele>
        <time>2026-07-26T09:28:59.512Z</time>
      </trkpt>
      <trkpt lon="8.979363" lat="47.803315">
        <ele>422.41</ele>
        <time>2026-07-26T09:29:00.720Z</time>
      </trkpt>
      <trkpt lon="8.979384" lat="47.803357">
        <ele>422.33</ele>
        <time>2026-07-26T09:29:01.912Z</time>
      </trkpt>
      <trkpt lon="8.979399" lat="47.803378">
        <ele>422.264</ele>
        <time>2026-07-26T09:29:02.536Z</time>
      </trkpt>
      <trkpt lon="8.979419" lat="47.803396">
        <ele>422.201</ele>
        <time>2026-07-26T09:29:03.148Z</time>
      </trkpt>
      <trkpt lon="8.979447" lat="47.803410">
        <ele>422.199</ele>
        <time>2026-07-26T09:29:03.772Z</time>
      </trkpt>
      <trkpt lon="8.979475" lat="47.803418">
        <ele>422.226</ele>
        <time>2026-07-26T09:29:04.372Z</time>
      </trkpt>
      <trkpt lon="8.979505" lat="47.803423">
        <ele>422.222</ele>
        <time>2026-07-26T09:29:04.944Z</time>
      </trkpt>
      <trkpt lon="8.979536" lat="47.803425">
        <ele>422.201</ele>
        <time>2026-07-26T09:29:05.572Z</time>
      </trkpt>
      <trkpt lon="8.979568" lat="47.803424">
        <ele>422.196</ele>
        <time>2026-07-26T09:29:06.216Z</time>
      </trkpt>
      <trkpt lon="8.979599" lat="47.803418">
        <ele>422.18</ele>
        <time>2026-07-26T09:29:06.956Z</time>
      </trkpt>
      <trkpt lon="8.979623" lat="47.803408">
        <ele>422.183</ele>
        <time>2026-07-26T09:29:07.544Z</time>
      </trkpt>
      <trkpt lon="8.979642" lat="47.803397">
        <ele>422.188</ele>
        <time>2026-07-26T09:29:08.144Z</time>
      </trkpt>
      <trkpt lon="8.979656" lat="47.803385">
        <ele>422.198</ele>
        <time>2026-07-26T09:29:08.744Z</time>
      </trkpt>
      <trkpt lon="8.979665" lat="47.803373">
        <ele>422.213</ele>
        <time>2026-07-26T09:29:09.368Z</time>
      </trkpt>
      <trkpt lon="8.979668" lat="47.803363">
        <ele>422.229</ele>
        <time>2026-07-26T09:29:09.936Z</time>
      </trkpt>
      <trkpt lon="8.979668" lat="47.803351">
        <ele>422.249</ele>
        <time>2026-07-26T09:29:11.112Z</time>
      </trkpt>
      <trkpt lon="8.979656" lat="47.803302">
        <ele>422.332</ele>
        <time>2026-07-26T09:29:28.604Z</time>
      </trkpt>
      <trkpt lon="8.979637" lat="47.803228">
        <ele>422.483</ele>
        <time>2026-07-26T09:29:29.856Z</time>
      </trkpt>
      <trkpt lon="8.979558" lat="47.802995">
        <ele>422.963</ele>
        <time>2026-07-26T09:29:32.280Z</time>
      </trkpt>
      <trkpt lon="8.979411" lat="47.802543">
        <ele>423.909</ele>
        <time>2026-07-26T09:29:35.332Z</time>
      </trkpt>
      <trkpt lon="8.979188" lat="47.801944">
        <ele>424.966</ele>
        <time>2026-07-26T09:29:38.344Z</time>
      </trkpt>
      <trkpt lon="8.978835" lat="47.800554">
        <ele>443.407</ele>
        <time>2026-07-26T09:29:43.840Z</time>
      </trkpt>
      <trkpt lon="8.978588" lat="47.799770">
        <ele>464.266</ele>
        <time>2026-07-26T09:29:46.896Z</time>
      </trkpt>
      <trkpt lon="8.978404" lat="47.799205">
        <ele>484.987</ele>
        <time>2026-07-26T09:29:49.336Z</time>
      </trkpt>
      <trkpt lon="8.978240" lat="47.798694">
        <ele>508.231</ele>
        <time>2026-07-26T09:29:51.676Z</time>
      </trkpt>
      <trkpt lon="8.978145" lat="47.798201">
        <ele>527.873</ele>
        <time>2026-07-26T09:29:54.132Z</time>
      </trkpt>
      <trkpt lon="8.978135" lat="47.797743">
        <ele>545.62</ele>
        <time>2026-07-26T09:29:56.472Z</time>
      </trkpt>
      <trkpt lon="8.978211" lat="47.797020">
        <ele>568.299</ele>
        <time>2026-07-26T09:30:00.100Z</time>
      </trkpt>
      <trkpt lon="8.978291" lat="47.796296">
        <ele>571.146</ele>
        <time>2026-07-26T09:30:03.120Z</time>
      </trkpt>
      <trkpt lon="8.978331" lat="47.795567">
        <ele>563.911</ele>
        <time>2026-07-26T09:30:05.560Z</time>
      </trkpt>
      <trkpt lon="8.978305" lat="47.794697">
        <ele>554.655</ele>
        <time>2026-07-26T09:30:08.044Z</time>
      </trkpt>
      <trkpt lon="8.978186" lat="47.793496">
        <ele>545.536</ele>
        <time>2026-07-26T09:30:11.040Z</time>
      </trkpt>
      <trkpt lon="8.977976" lat="47.791540">
        <ele>536.627</ele>
        <time>2026-07-26T09:30:15.416Z</time>
      </trkpt>
      <trkpt lon="8.977729" lat="47.788903">
        <ele>561.968</ele>
        <time>2026-07-26T09:30:21.000Z</time>
      </trkpt>
      <trkpt lon="8.977584" lat="47.787802">
        <ele>583.644</ele>
        <time>2026-07-26T09:30:23.468Z</time>
      </trkpt>
      <trkpt lon="8.977397" lat="47.786515">
        <ele>610.513</ele>
        <time>2026-07-26T09:30:26.512Z</time>
      </trkpt>
      <trkpt lon="8.977287" lat="47.785264">
        <ele>634.904</ele>
        <time>2026-07-26T09:30:29.552Z</time>
      </trkpt>
      <trkpt lon="8.977079" lat="47.784090">
        <ele>650.631</ele>
        <time>2026-07-26T09:30:32.504Z</time>
      </trkpt>
      <trkpt lon="8.975964" lat="47.781432">
        <ele>652.736</ele>
        <time>2026-07-26T09:30:39.140Z</time>
      </trkpt>
      <trkpt lon="8.974930" lat="47.779621">
        <ele>645.172</ele>
        <time>2026-07-26T09:30:43.384Z</time>
      </trkpt>
      <trkpt lon="8.974376" lat="47.778872">
        <ele>658.458</ele>
        <time>2026-07-26T09:30:45.220Z</time>
      </trkpt>
      <trkpt lon="8.973710" lat="47.778190">
        <ele>674.418</ele>
        <time>2026-07-26T09:30:47.084Z</time>
      </trkpt>
      <trkpt lon="8.972694" lat="47.777355">
        <ele>686.668</ele>
        <time>2026-07-26T09:30:49.564Z</time>
      </trkpt>
      <trkpt lon="8.970708" lat="47.776037">
        <ele>680.58</ele>
        <time>2026-07-26T09:30:53.840Z</time>
      </trkpt>
      <trkpt lon="8.969711" lat="47.775503">
        <ele>672.528</ele>
        <time>2026-07-26T09:30:55.700Z</time>
      </trkpt>
      <trkpt lon="8.967903" lat="47.774732">
        <ele>668.224</ele>
        <time>2026-07-26T09:30:58.756Z</time>
      </trkpt>
      <trkpt lon="8.965722" lat="47.773976">
        <ele>688.74</ele>
        <time>2026-07-26T09:31:02.420Z</time>
      </trkpt>
      <trkpt lon="8.963735" lat="47.773377">
        <ele>716.757</ele>
        <time>2026-07-26T09:31:06.060Z</time>
      </trkpt>
      <trkpt lon="8.961403" lat="47.772820">
        <ele>734.938</ele>
        <time>2026-07-26T09:31:10.280Z</time>
      </trkpt>
      <trkpt lon="8.958241" lat="47.772243">
        <ele>706.781</ele>
        <time>2026-07-26T09:31:15.704Z</time>
      </trkpt>
      <trkpt lon="8.956697" lat="47.772140">
        <ele>693.248</ele>
        <time>2026-07-26T09:31:18.108Z</time>
      </trkpt>
      <trkpt lon="8.955530" lat="47.772167">
        <ele>688.78</ele>
        <time>2026-07-26T09:31:19.900Z</time>
      </trkpt>
      <trkpt lon="8.954468" lat="47.772266">
        <ele>706.398</ele>
        <time>2026-07-26T09:31:21.680Z</time>
      </trkpt>
      <trkpt lon="8.952909" lat="47.772450">
        <ele>731.881</ele>
        <time>2026-07-26T09:31:24.676Z</time>
      </trkpt>
      <trkpt lon="8.951774" lat="47.772514">
        <ele>750.397</ele>
        <time>2026-07-26T09:31:27.128Z</time>
      </trkpt>
      <trkpt lon="8.941942" lat="47.772290">
        <ele>783.237</ele>
        <time>2026-07-26T09:31:48.120Z</time>
      </trkpt>
      <trkpt lon="8.938820" lat="47.772406">
        <ele>818.516</ele>
        <time>2026-07-26T09:31:55.264Z</time>
      </trkpt>
      <trkpt lon="8.936136" lat="47.772446">
        <ele>855.883</ele>
        <time>2026-07-26T09:32:01.732Z</time>
      </trkpt>
      <trkpt lon="8.933773" lat="47.772432">
        <ele>893.527</ele>
        <time>2026-07-26T09:32:07.704Z</time>
      </trkpt>
      <trkpt lon="8.932094" lat="47.772370">
        <ele>934.957</ele>
        <time>2026-07-26T09:32:12.444Z</time>
      </trkpt>
      <trkpt lon="8.931226" lat="47.772281">
        <ele>957.775</ele>
        <time>2026-07-26T09:32:15.432Z</time>
      </trkpt>
      <trkpt lon="8.930934" lat="47.772224">
        <ele>965.395</ele>
        <time>2026-07-26T09:32:16.616Z</time>
      </trkpt>
      <trkpt lon="8.930662" lat="47.772147">
        <ele>971.733</ele>
        <time>2026-07-26T09:32:17.812Z</time>
      </trkpt>
      <trkpt lon="8.928639" lat="47.771464">
        <ele>995.178</ele>
        <time>2026-07-26T09:32:26.796Z</time>
      </trkpt>
      <trkpt lon="8.926785" lat="47.770993">
        <ele>1011.69</ele>
        <time>2026-07-26T09:32:33.384Z</time>
      </trkpt>
      <trkpt lon="8.924770" lat="47.770512">
        <ele>1036.62</ele>
        <time>2026-07-26T09:32:39.348Z</time>
      </trkpt>
      <trkpt lon="8.923774" lat="47.770298">
        <ele>1034.84</ele>
        <time>2026-07-26T09:32:41.752Z</time>
      </trkpt>
      <trkpt lon="8.921178" lat="47.769999">
        <ele>1036.36</ele>
        <time>2026-07-26T09:32:47.188Z</time>
      </trkpt>
      <trkpt lon="8.918053" lat="47.769879">
        <ele>1034.52</ele>
        <time>2026-07-26T09:32:53.036Z</time>
      </trkpt>
      <trkpt lon="8.912687" lat="47.770023">
        <ele>1079.53</ele>
        <time>2026-07-26T09:33:02.648Z</time>
      </trkpt>
      <trkpt lon="8.911764" lat="47.770078">
        <ele>1087.21</ele>
        <time>2026-07-26T09:33:04.404Z</time>
      </trkpt>
      <trkpt lon="8.911133" lat="47.770166">
        <ele>1095.53</ele>
        <time>2026-07-26T09:33:05.600Z</time>
      </trkpt>
      <trkpt lon="8.909906" lat="47.770433">
        <ele>1110.05</ele>
        <time>2026-07-26T09:33:07.972Z</time>
      </trkpt>
      <trkpt lon="8.908978" lat="47.770735">
        <ele>1116.66</ele>
        <time>2026-07-26T09:33:09.792Z</time>
      </trkpt>
      <trkpt lon="8.908090" lat="47.771111">
        <ele>1118.41</ele>
        <time>2026-07-26T09:33:11.604Z</time>
      </trkpt>
      <trkpt lon="8.906911" lat="47.771730">
        <ele>1109.54</ele>
        <time>2026-07-26T09:33:14.024Z</time>
      </trkpt>
      <trkpt lon="8.904654" lat="47.773027">
        <ele>1093.53</ele>
        <time>2026-07-26T09:33:18.284Z</time>
      </trkpt>
      <trkpt lon="8.903085" lat="47.774049">
        <ele>1091.55</ele>
        <time>2026-07-26T09:33:21.284Z</time>
      </trkpt>
      <trkpt lon="8.898920" lat="47.777119">
        <ele>1116.53</ele>
        <time>2026-07-26T09:33:29.784Z</time>
      </trkpt>
      <trkpt lon="8.891320" lat="47.783352">
        <ele>1163.25</ele>
        <time>2026-07-26T09:33:46.572Z</time>
      </trkpt>
      <trkpt lon="8.887425" lat="47.786187">
        <ele>1155.72</ele>
        <time>2026-07-26T09:33:54.948Z</time>
      </trkpt>
      <trkpt lon="8.885546" lat="47.787389">
        <ele>1151.69</ele>
        <time>2026-07-26T09:33:58.576Z</time>
      </trkpt>
      <trkpt lon="8.883289" lat="47.788803">
        <ele>1151.79</ele>
        <time>2026-07-26T09:34:02.780Z</time>
      </trkpt>
      <trkpt lon="8.882053" lat="47.789741">
        <ele>1153.33</ele>
        <time>2026-07-26T09:34:05.224Z</time>
      </trkpt>
      <trkpt lon="8.880718" lat="47.791064">
        <ele>1157.14</ele>
        <time>2026-07-26T09:34:08.244Z</time>
      </trkpt>
      <trkpt lon="8.877288" lat="47.794644">
        <ele>1147.04</ele>
        <time>2026-07-26T09:34:16.176Z</time>
      </trkpt>
      <trkpt lon="8.867603" lat="47.802825">
        <ele>1171.02</ele>
        <time>2026-07-26T09:34:35.968Z</time>
      </trkpt>
      <trkpt lon="8.861299" lat="47.809123">
        <ele>1173.65</ele>
        <time>2026-07-26T09:34:50.836Z</time>
      </trkpt>
      <trkpt lon="8.856684" lat="47.812830">
        <ele>1173.1</ele>
        <time>2026-07-26T09:35:00.688Z</time>
      </trkpt>
      <trkpt lon="8.851540" lat="47.816636">
        <ele>1185.48</ele>
        <time>2026-07-26T09:35:11.188Z</time>
      </trkpt>
      <trkpt lon="8.838513" lat="47.826029">
        <ele>1170.95</ele>
        <time>2026-07-26T09:35:37.496Z</time>
      </trkpt>
      <trkpt lon="8.830857" lat="47.831271">
        <ele>1169.94</ele>
        <time>2026-07-26T09:35:52.940Z</time>
      </trkpt>
      <trkpt lon="8.830138" lat="47.832026">
        <ele>1169.73</ele>
        <time>2026-07-26T09:35:54.820Z</time>
      </trkpt>
      <trkpt lon="8.829754" lat="47.832554">
        <ele>1169.46</ele>
        <time>2026-07-26T09:35:56.036Z</time>
      </trkpt>
      <trkpt lon="8.829455" lat="47.833091">
        <ele>1169.2</ele>
        <time>2026-07-26T09:35:57.208Z</time>
      </trkpt>
      <trkpt lon="8.829148" lat="47.833961">
        <ele>1169.85</ele>
        <time>2026-07-26T09:35:59.024Z</time>
      </trkpt>
      <trkpt lon="8.829010" lat="47.834861">
        <ele>1171.81</ele>
        <time>2026-07-26T09:36:00.860Z</time>
      </trkpt>
      <trkpt lon="8.828992" lat="47.835791">
        <ele>1173.05</ele>
        <time>2026-07-26T09:36:02.672Z</time>
      </trkpt>
      <trkpt lon="8.830123" lat="47.844929">
        <ele>1163.11</ele>
        <time>2026-07-26T09:36:20.736Z</time>
      </trkpt>
      <trkpt lon="8.831213" lat="47.849987">
        <ele>1166.59</ele>
        <time>2026-07-26T09:36:30.980Z</time>
      </trkpt>
      <trkpt lon="8.831467" lat="47.851180">
        <ele>1182.35</ele>
        <time>2026-07-26T09:36:33.400Z</time>
      </trkpt>
      <trkpt lon="8.832594" lat="47.854894">
        <ele>1213.19</ele>
        <time>2026-07-26T09:36:40.636Z</time>
      </trkpt>
      <trkpt lon="8.837511" lat="47.868535">
        <ele>1169.73</ele>
        <time>2026-07-26T09:37:05.876Z</time>
      </trkpt>
      <trkpt lon="8.839863" lat="47.874223">
        <ele>1139.09</ele>
        <time>2026-07-26T09:37:17.464Z</time>
      </trkpt>
      <trkpt lon="8.845243" lat="47.888671">
        <ele>1158.1</ele>
        <time>2026-07-26T09:37:47.800Z</time>
      </trkpt>
      <trkpt lon="8.850604" lat="47.903133">
        <ele>1146.11</ele>
        <time>2026-07-26T09:38:18.028Z</time>
      </trkpt>
      <trkpt lon="8.855369" lat="47.918593">
        <ele>1179.06</ele>
        <time>2026-07-26T09:38:48.448Z</time>
      </trkpt>
      <trkpt lon="8.857230" lat="47.925927">
        <ele>1175.63</ele>
        <time>2026-07-26T09:39:02.920Z</time>
      </trkpt>
      <trkpt lon="8.861654" lat="47.939568">
        <ele>1207.17</ele>
        <time>2026-07-26T09:39:29.712Z</time>
      </trkpt>
      <trkpt lon="8.868223" lat="47.955120">
        <ele>1195.4</ele>
        <time>2026-07-26T09:40:00.184Z</time>
      </trkpt>
      <trkpt lon="8.870689" lat="47.964132">
        <ele>1197.39</ele>
        <time>2026-07-26T09:40:17.900Z</time>
      </trkpt>
      <trkpt lon="8.874195" lat="47.979123">
        <ele>1190.91</ele>
        <time>2026-07-26T09:40:46.800Z</time>
      </trkpt>
      <trkpt lon="8.874108" lat="47.981915">
        <ele>1186.64</ele>
        <time>2026-07-26T09:40:52.104Z</time>
      </trkpt>
      <trkpt lon="8.873627" lat="47.984391">
        <ele>1185.04</ele>
        <time>2026-07-26T09:40:56.896Z</time>
      </trkpt>
      <trkpt lon="8.871293" lat="47.991940">
        <ele>1184.69</ele>
        <time>2026-07-26T09:41:11.720Z</time>
      </trkpt>
      <trkpt lon="8.870227" lat="47.994201">
        <ele>1185.62</ele>
        <time>2026-07-26T09:41:16.848Z</time>
      </trkpt>
      <trkpt lon="8.865733" lat="48.001373">
        <ele>1206.26</ele>
        <time>2026-07-26T09:41:32.184Z</time>
      </trkpt>
      <trkpt lon="8.859725" lat="48.010922">
        <ele>1240.03</ele>
        <time>2026-07-26T09:41:52.436Z</time>
      </trkpt>
      <trkpt lon="8.853459" lat="48.023151">
        <ele>1277.65</ele>
        <time>2026-07-26T09:42:17.548Z</time>
      </trkpt>
      <trkpt lon="8.844732" lat="48.037430">
        <ele>1308.74</ele>
        <time>2026-07-26T09:42:47.672Z</time>
      </trkpt>
      <trkpt lon="8.836799" lat="48.051318">
        <ele>1297.11</ele>
        <time>2026-07-26T09:43:18.172Z</time>
      </trkpt>
      <trkpt lon="8.834484" lat="48.055174">
        <ele>1297.3</ele>
        <time>2026-07-26T09:43:26.996Z</time>
      </trkpt>
      <trkpt lon="8.831065" lat="48.061836">
        <ele>1287.58</ele>
        <time>2026-07-26T09:43:41.232Z</time>
      </trkpt>
      <trkpt lon="8.822846" lat="48.075434">
        <ele>1299.69</ele>
        <time>2026-07-26T09:44:11.312Z</time>
      </trkpt>
      <trkpt lon="8.816468" lat="48.086438">
        <ele>1324.49</ele>
        <time>2026-07-26T09:44:41.540Z</time>
      </trkpt>
      <trkpt lon="8.808456" lat="48.100793">
        <ele>1333.57</ele>
        <time>2026-07-26T09:45:12.116Z</time>
      </trkpt>
      <trkpt lon="8.800247" lat="48.114957">
        <ele>1335.06</ele>
        <time>2026-07-26T09:45:42.548Z</time>
      </trkpt>
      <trkpt lon="8.791803" lat="48.128401">
        <ele>1340.34</ele>
        <time>2026-07-26T09:46:12.892Z</time>
      </trkpt>
      <trkpt lon="8.784560" lat="48.142362">
        <ele>1335.28</ele>
        <time>2026-07-26T09:46:43.172Z</time>
      </trkpt>
      <trkpt lon="8.777442" lat="48.153013">
        <ele>1324.87</ele>
        <time>2026-07-26T09:47:05.872Z</time>
      </trkpt>
      <trkpt lon="8.773261" lat="48.162311">
        <ele>1302.3</ele>
        <time>2026-07-26T09:47:24.628Z</time>
      </trkpt>
      <trkpt lon="8.769054" lat="48.169141">
        <ele>1281.68</ele>
        <time>2026-07-26T09:47:39.276Z</time>
      </trkpt>
      <trkpt lon="8.761720" lat="48.180202">
        <ele>1306.46</ele>
        <time>2026-07-26T09:48:03.300Z</time>
      </trkpt>
      <trkpt lon="8.757790" lat="48.188412">
        <ele>1348.51</ele>
        <time>2026-07-26T09:48:21.144Z</time>
      </trkpt>
      <trkpt lon="8.749788" lat="48.201303">
        <ele>1387.11</ele>
        <time>2026-07-26T09:48:51.260Z</time>
      </trkpt>
      <trkpt lon="8.747404" lat="48.205526">
        <ele>1393.51</ele>
        <time>2026-07-26T09:49:00.296Z</time>
      </trkpt>
      <trkpt lon="8.740815" lat="48.217535">
        <ele>1405.44</ele>
        <time>2026-07-26T09:49:24.836Z</time>
      </trkpt>
      <trkpt lon="8.732418" lat="48.230864">
        <ele>1391.1</ele>
        <time>2026-07-26T09:49:52.496Z</time>
      </trkpt>
      <trkpt lon="8.731434" lat="48.232668">
        <ele>1388.88</ele>
        <time>2026-07-26T09:49:56.172Z</time>
      </trkpt>
      <trkpt lon="8.730224" lat="48.236129">
        <ele>1385.45</ele>
        <time>2026-07-26T09:50:02.936Z</time>
      </trkpt>
      <trkpt lon="8.729026" lat="48.238485">
        <ele>1385.41</ele>
        <time>2026-07-26T09:50:07.764Z</time>
      </trkpt>
      <trkpt lon="8.720225" lat="48.252550">
        <ele>1387.73</ele>
        <time>2026-07-26T09:50:37.800Z</time>
      </trkpt>
      <trkpt lon="8.714431" lat="48.261670">
        <ele>1378.5</ele>
        <time>2026-07-26T09:50:57.712Z</time>
      </trkpt>
      <trkpt lon="8.706757" lat="48.275541">
        <ele>1331.82</ele>
        <time>2026-07-26T09:51:25.212Z</time>
      </trkpt>
      <trkpt lon="8.698080" lat="48.290992">
        <ele>1288.76</ele>
        <time>2026-07-26T09:51:55.788Z</time>
      </trkpt>
      <trkpt lon="8.694121" lat="48.297725">
        <ele>1278.15</ele>
        <time>2026-07-26T09:52:08.984Z</time>
      </trkpt>
      <trkpt lon="8.691025" lat="48.303999">
        <ele>1254.2</ele>
        <time>2026-07-26T09:52:21.084Z</time>
      </trkpt>
      <trkpt lon="8.683740" lat="48.313888">
        <ele>1211.25</ele>
        <time>2026-07-26T09:52:41.340Z</time>
      </trkpt>
      <trkpt lon="8.679410" lat="48.321003">
        <ele>1183.44</ele>
        <time>2026-07-26T09:52:55.208Z</time>
      </trkpt>
      <trkpt lon="8.673680" lat="48.332374">
        <ele>1139.97</ele>
        <time>2026-07-26T09:53:16.800Z</time>
      </trkpt>
      <trkpt lon="8.664978" lat="48.347439">
        <ele>1101.88</ele>
        <time>2026-07-26T09:53:46.188Z</time>
      </trkpt>
      <trkpt lon="8.658451" lat="48.357959">
        <ele>1097.59</ele>
        <time>2026-07-26T09:54:06.800Z</time>
      </trkpt>
      <trkpt lon="8.655297" lat="48.364085">
        <ele>1090.36</ele>
        <time>2026-07-26T09:54:18.444Z</time>
      </trkpt>
      <trkpt lon="8.646315" lat="48.378636">
        <ele>1068.07</ele>
        <time>2026-07-26T09:54:48.556Z</time>
      </trkpt>
      <trkpt lon="8.641957" lat="48.387567">
        <ele>1074.23</ele>
        <time>2026-07-26T09:55:06.552Z</time>
      </trkpt>
      <trkpt lon="8.639886" lat="48.394351">
        <ele>1067.55</ele>
        <time>2026-07-26T09:55:19.700Z</time>
      </trkpt>
      <trkpt lon="8.638792" lat="48.399106">
        <ele>1034.23</ele>
        <time>2026-07-26T09:55:29.296Z</time>
      </trkpt>
      <trkpt lon="8.636092" lat="48.412607">
        <ele>1053.3</ele>
        <time>2026-07-26T09:55:59.852Z</time>
      </trkpt>
      <trkpt lon="8.635733" lat="48.415667">
        <ele>1056.34</ele>
        <time>2026-07-26T09:56:06.488Z</time>
      </trkpt>
      <trkpt lon="8.634939" lat="48.418333">
        <ele>1056.9</ele>
        <time>2026-07-26T09:56:12.468Z</time>
      </trkpt>
      <trkpt lon="8.630684" lat="48.429640">
        <ele>1068.09</ele>
        <time>2026-07-26T09:56:37.140Z</time>
      </trkpt>
      <trkpt lon="8.629581" lat="48.434979">
        <ele>1065.1</ele>
        <time>2026-07-26T09:56:47.868Z</time>
      </trkpt>
      <trkpt lon="8.629092" lat="48.439230">
        <ele>1075.06</ele>
        <time>2026-07-26T09:56:56.224Z</time>
      </trkpt>
      <trkpt lon="8.628765" lat="48.448710">
        <ele>1081.29</ele>
        <time>2026-07-26T09:57:14.456Z</time>
      </trkpt>
      <trkpt lon="8.628398" lat="48.449932">
        <ele>1079.85</ele>
        <time>2026-07-26T09:57:16.896Z</time>
      </trkpt>
      <trkpt lon="8.627338" lat="48.452242">
        <ele>1080.24</ele>
        <time>2026-07-26T09:57:21.712Z</time>
      </trkpt>
      <trkpt lon="8.624486" lat="48.457596">
        <ele>1072.84</ele>
        <time>2026-07-26T09:57:33.140Z</time>
      </trkpt>
      <trkpt lon="8.621206" lat="48.463723">
        <ele>1072.19</ele>
        <time>2026-07-26T09:57:46.400Z</time>
      </trkpt>
      <trkpt lon="8.614913" lat="48.478617">
        <ele>1084.97</ele>
        <time>2026-07-26T09:58:16.504Z</time>
      </trkpt>
      <trkpt lon="8.609708" lat="48.489175">
        <ele>1088.14</ele>
        <time>2026-07-26T09:58:37.652Z</time>
      </trkpt>
      <trkpt lon="8.607448" lat="48.496349">
        <ele>1084.73</ele>
        <time>2026-07-26T09:58:51.244Z</time>
      </trkpt>
      <trkpt lon="8.602809" lat="48.512075">
        <ele>1071.34</ele>
        <time>2026-07-26T09:59:21.416Z</time>
      </trkpt>
      <trkpt lon="8.600172" lat="48.520094">
        <ele>1068.06</ele>
        <time>2026-07-26T09:59:37.720Z</time>
      </trkpt>
      <trkpt lon="8.595109" lat="48.534658">
        <ele>1074.27</ele>
        <time>2026-07-26T10:00:08.272Z</time>
      </trkpt>
      <trkpt lon="8.590595" lat="48.549840">
        <ele>1074.16</ele>
        <time>2026-07-26T10:00:38.480Z</time>
      </trkpt>
      <trkpt lon="8.584871" lat="48.565557">
        <ele>1084.68</ele>
        <time>2026-07-26T10:01:08.720Z</time>
      </trkpt>
      <trkpt lon="8.582334" lat="48.575027">
        <ele>1089.88</ele>
        <time>2026-07-26T10:01:26.256Z</time>
      </trkpt>
      <trkpt lon="8.578123" lat="48.588296">
        <ele>1076.04</ele>
        <time>2026-07-26T10:01:51.064Z</time>
      </trkpt>
      <trkpt lon="8.572707" lat="48.603955">
        <ele>1092.14</ele>
        <time>2026-07-26T10:02:21.260Z</time>
      </trkpt>
      <trkpt lon="8.567130" lat="48.620302">
        <ele>1088.36</ele>
        <time>2026-07-26T10:02:51.728Z</time>
      </trkpt>
      <trkpt lon="8.562461" lat="48.636573">
        <ele>1074.47</ele>
        <time>2026-07-26T10:03:21.752Z</time>
      </trkpt>
      <trkpt lon="8.556842" lat="48.652032">
        <ele>1071.56</ele>
        <time>2026-07-26T10:03:51.840Z</time>
      </trkpt>
      <trkpt lon="8.553158" lat="48.663780">
        <ele>1079.75</ele>
        <time>2026-07-26T10:04:14.720Z</time>
      </trkpt>
      <trkpt lon="8.547989" lat="48.679554">
        <ele>1080.95</ele>
        <time>2026-07-26T10:04:44.848Z</time>
      </trkpt>
      <trkpt lon="8.542744" lat="48.695885">
        <ele>1082.8</ele>
        <time>2026-07-26T10:05:15.268Z</time>
      </trkpt>
      <trkpt lon="8.537465" lat="48.712578">
        <ele>1062.06</ele>
        <time>2026-07-26T10:05:45.320Z</time>
      </trkpt>
      <trkpt lon="8.533429" lat="48.724478">
        <ele>1049.13</ele>
        <time>2026-07-26T10:06:08.364Z</time>
      </trkpt>
      <trkpt lon="8.532424" lat="48.727445">
        <ele>1045.57</ele>
        <time>2026-07-26T10:06:14.372Z</time>
      </trkpt>
      <trkpt lon="8.527889" lat="48.740436">
        <ele>1076.6</ele>
        <time>2026-07-26T10:06:40.868Z</time>
      </trkpt>
      <trkpt lon="8.523157" lat="48.756141">
        <ele>1070</ele>
        <time>2026-07-26T10:07:11.004Z</time>
      </trkpt>
      <trkpt lon="8.517838" lat="48.771810">
        <ele>1056.43</ele>
        <time>2026-07-26T10:07:41.344Z</time>
      </trkpt>
      <trkpt lon="8.512691" lat="48.787572">
        <ele>1063.62</ele>
        <time>2026-07-26T10:08:11.560Z</time>
      </trkpt>
      <trkpt lon="8.507628" lat="48.803130">
        <ele>1059.26</ele>
        <time>2026-07-26T10:08:42.008Z</time>
      </trkpt>
      <trkpt lon="8.502711" lat="48.818496">
        <ele>1073.45</ele>
        <time>2026-07-26T10:09:12.256Z</time>
      </trkpt>
      <trkpt lon="8.497460" lat="48.834160">
        <ele>1066.67</ele>
        <time>2026-07-26T10:09:42.272Z</time>
      </trkpt>
      <trkpt lon="8.491939" lat="48.850360">
        <ele>1078.32</ele>
        <time>2026-07-26T10:10:12.864Z</time>
      </trkpt>
      <trkpt lon="8.487173" lat="48.866342">
        <ele>1055.76</ele>
        <time>2026-07-26T10:10:43.224Z</time>
      </trkpt>
      <trkpt lon="8.481679" lat="48.881676">
        <ele>1061.53</ele>
        <time>2026-07-26T10:11:13.596Z</time>
      </trkpt>
      <trkpt lon="8.478784" lat="48.890311">
        <ele>1083.37</ele>
        <time>2026-07-26T10:11:30.524Z</time>
      </trkpt>
      <trkpt lon="8.477634" lat="48.893151">
        <ele>1093.03</ele>
        <time>2026-07-26T10:11:36.000Z</time>
      </trkpt>
      <trkpt lon="8.476782" lat="48.896858">
        <ele>1098.3</ele>
        <time>2026-07-26T10:11:42.720Z</time>
      </trkpt>
      <trkpt lon="8.475106" lat="48.904383">
        <ele>1103.53</ele>
        <time>2026-07-26T10:11:55.984Z</time>
      </trkpt>
      <trkpt lon="8.470326" lat="48.917445">
        <ele>1083.84</ele>
        <time>2026-07-26T10:12:18.944Z</time>
      </trkpt>
      <trkpt lon="8.464729" lat="48.932057">
        <ele>1076.83</ele>
        <time>2026-07-26T10:12:45.524Z</time>
      </trkpt>
      <trkpt lon="8.459427" lat="48.948773">
        <ele>1092.73</ele>
        <time>2026-07-26T10:13:15.556Z</time>
      </trkpt>
      <trkpt lon="8.454217" lat="48.965943">
        <ele>1072.56</ele>
        <time>2026-07-26T10:13:46.216Z</time>
      </trkpt>
      <trkpt lon="8.448794" lat="48.982042">
        <ele>1084.21</ele>
        <time>2026-07-26T10:14:16.388Z</time>
      </trkpt>
      <trkpt lon="8.443302" lat="48.998637">
        <ele>1084.41</ele>
        <time>2026-07-26T10:14:46.932Z</time>
      </trkpt>
      <trkpt lon="8.440644" lat="49.007615">
        <ele>1079.25</ele>
        <time>2026-07-26T10:15:03.264Z</time>
      </trkpt>
      <trkpt lon="8.434701" lat="49.023864">
        <ele>1064.94</ele>
        <time>2026-07-26T10:15:33.776Z</time>
      </trkpt>
      <trkpt lon="8.431309" lat="49.035337">
        <ele>1062.04</ele>
        <time>2026-07-26T10:15:55.564Z</time>
      </trkpt>
      <trkpt lon="8.425832" lat="49.050636">
        <ele>1063.05</ele>
        <time>2026-07-26T10:16:25.780Z</time>
      </trkpt>
      <trkpt lon="8.420936" lat="49.065878">
        <ele>1064.47</ele>
        <time>2026-07-26T10:16:56.220Z</time>
      </trkpt>
      <trkpt lon="8.418852" lat="49.070641">
        <ele>1065.69</ele>
        <time>2026-07-26T10:17:06.084Z</time>
      </trkpt>
      <trkpt lon="8.418150" lat="49.071720">
        <ele>1065.87</ele>
        <time>2026-07-26T10:17:08.492Z</time>
      </trkpt>
      <trkpt lon="8.417495" lat="49.072463">
        <ele>1065.91</ele>
        <time>2026-07-26T10:17:10.296Z</time>
      </trkpt>
      <trkpt lon="8.416675" lat="49.073178">
        <ele>1066.21</ele>
        <time>2026-07-26T10:17:12.216Z</time>
      </trkpt>
      <trkpt lon="8.415778" lat="49.073800">
        <ele>1066.32</ele>
        <time>2026-07-26T10:17:14.084Z</time>
      </trkpt>
      <trkpt lon="8.414814" lat="49.074314">
        <ele>1066.4</ele>
        <time>2026-07-26T10:17:15.908Z</time>
      </trkpt>
      <trkpt lon="8.414109" lat="49.074600">
        <ele>1066.34</ele>
        <time>2026-07-26T10:17:17.140Z</time>
      </trkpt>
      <trkpt lon="8.413388" lat="49.074824">
        <ele>1066.32</ele>
        <time>2026-07-26T10:17:18.356Z</time>
      </trkpt>
      <trkpt lon="8.412201" lat="49.075075">
        <ele>1066.38</ele>
        <time>2026-07-26T10:17:20.276Z</time>
      </trkpt>
      <trkpt lon="8.410686" lat="49.075252">
        <ele>1066.35</ele>
        <time>2026-07-26T10:17:22.680Z</time>
      </trkpt>
      <trkpt lon="8.399528" lat="49.076001">
        <ele>1078.06</ele>
        <time>2026-07-26T10:17:39.976Z</time>
      </trkpt>
      <trkpt lon="8.392798" lat="49.077423">
        <ele>1072.16</ele>
        <time>2026-07-26T10:17:50.372Z</time>
      </trkpt>
      <trkpt lon="8.383586" lat="49.080196">
        <ele>1065.62</ele>
        <time>2026-07-26T10:18:04.888Z</time>
      </trkpt>
      <trkpt lon="8.364906" lat="49.086937">
        <ele>1071.02</ele>
        <time>2026-07-26T10:18:35.284Z</time>
      </trkpt>
      <trkpt lon="8.360925" lat="49.088577">
        <ele>1065.51</ele>
        <time>2026-07-26T10:18:41.960Z</time>
      </trkpt>
      <trkpt lon="8.344053" lat="49.097424">
        <ele>1066.75</ele>
        <time>2026-07-26T10:19:12.284Z</time>
      </trkpt>
      <trkpt lon="8.339099" lat="49.099710">
        <ele>1067.19</ele>
        <time>2026-07-26T10:19:20.824Z</time>
      </trkpt>
      <trkpt lon="8.320894" lat="49.107687">
        <ele>1075.76</ele>
        <time>2026-07-26T10:19:51.088Z</time>
      </trkpt>
      <trkpt lon="8.302757" lat="49.116298">
        <ele>1067.31</ele>
        <time>2026-07-26T10:20:21.688Z</time>
      </trkpt>
      <trkpt lon="8.285065" lat="49.124621">
        <ele>1071.35</ele>
        <time>2026-07-26T10:20:51.944Z</time>
      </trkpt>
      <trkpt lon="8.267034" lat="49.132969">
        <ele>1062.1</ele>
        <time>2026-07-26T10:21:22.060Z</time>
      </trkpt>
      <trkpt lon="8.249599" lat="49.140919">
        <ele>1064.22</ele>
        <time>2026-07-26T10:21:52.280Z</time>
      </trkpt>
      <trkpt lon="8.231852" lat="49.149160">
        <ele>1071.68</ele>
        <time>2026-07-26T10:22:22.592Z</time>
      </trkpt>
      <trkpt lon="8.213543" lat="49.157889">
        <ele>1078.27</ele>
        <time>2026-07-26T10:22:53.144Z</time>
      </trkpt>
      <trkpt lon="8.194601" lat="49.166402">
        <ele>1072.36</ele>
        <time>2026-07-26T10:23:23.360Z</time>
      </trkpt>
      <trkpt lon="8.176254" lat="49.175149">
        <ele>1070.17</ele>
        <time>2026-07-26T10:23:53.896Z</time>
      </trkpt>
      <trkpt lon="8.157883" lat="49.183309">
        <ele>1068.4</ele>
        <time>2026-07-26T10:24:24.500Z</time>
      </trkpt>
      <trkpt lon="8.140099" lat="49.191775">
        <ele>1069.58</ele>
        <time>2026-07-26T10:24:55.100Z</time>
      </trkpt>
      <trkpt lon="8.122326" lat="49.200046">
        <ele>1067.34</ele>
        <time>2026-07-26T10:25:25.612Z</time>
      </trkpt>
      <trkpt lon="8.104530" lat="49.208113">
        <ele>1062.8</ele>
        <time>2026-07-26T10:25:55.996Z</time>
      </trkpt>
      <trkpt lon="8.087030" lat="49.216311">
        <ele>1070.74</ele>
        <time>2026-07-26T10:26:26.576Z</time>
      </trkpt>
      <trkpt lon="8.069320" lat="49.224437">
        <ele>1068.38</ele>
        <time>2026-07-26T10:26:57.088Z</time>
      </trkpt>
      <trkpt lon="8.051707" lat="49.232628">
        <ele>1058.47</ele>
        <time>2026-07-26T10:27:27.368Z</time>
      </trkpt>
      <trkpt lon="8.048665" lat="49.234029">
        <ele>1024.57</ele>
        <time>2026-07-26T10:27:32.816Z</time>
      </trkpt>
      <trkpt lon="8.043259" lat="49.237291">
        <ele>1037.48</ele>
        <time>2026-07-26T10:27:45.016Z</time>
      </trkpt>
      <trkpt lon="8.040522" lat="49.238430">
        <ele>1047.99</ele>
        <time>2026-07-26T10:27:50.548Z</time>
      </trkpt>
      <trkpt lon="8.032198" lat="49.241432">
        <ele>1045.81</ele>
        <time>2026-07-26T10:28:05.756Z</time>
      </trkpt>
      <trkpt lon="8.027991" lat="49.243110">
        <ele>1008.21</ele>
        <time>2026-07-26T10:28:13.668Z</time>
      </trkpt>
      <trkpt lon="8.025437" lat="49.244294">
        <ele>1021.87</ele>
        <time>2026-07-26T10:28:19.116Z</time>
      </trkpt>
      <trkpt lon="8.018199" lat="49.248105">
        <ele>1053.44</ele>
        <time>2026-07-26T10:28:34.172Z</time>
      </trkpt>
      <trkpt lon="8.006089" lat="49.253363">
        <ele>1070.54</ele>
        <time>2026-07-26T10:28:55.316Z</time>
      </trkpt>
      <trkpt lon="8.005075" lat="49.253818">
        <ele>1073.76</ele>
        <time>2026-07-26T10:28:57.044Z</time>
      </trkpt>
      <trkpt lon="7.996613" lat="49.257551">
        <ele>1062.28</ele>
        <time>2026-07-26T10:29:10.860Z</time>
      </trkpt>
      <trkpt lon="7.978753" lat="49.266743">
        <ele>1068.35</ele>
        <time>2026-07-26T10:29:41.072Z</time>
      </trkpt>
      <trkpt lon="7.959498" lat="49.274932">
        <ele>1066.09</ele>
        <time>2026-07-26T10:30:11.220Z</time>
      </trkpt>
      <trkpt lon="7.940525" lat="49.283832">
        <ele>1062.61</ele>
        <time>2026-07-26T10:30:41.352Z</time>
      </trkpt>
      <trkpt lon="7.921581" lat="49.292388">
        <ele>1050.79</ele>
        <time>2026-07-26T10:31:11.836Z</time>
      </trkpt>
      <trkpt lon="7.903582" lat="49.300860">
        <ele>1049.45</ele>
        <time>2026-07-26T10:31:41.936Z</time>
      </trkpt>
      <trkpt lon="7.892351" lat="49.305791">
        <ele>1044.82</ele>
        <time>2026-07-26T10:32:00.564Z</time>
      </trkpt>
      <trkpt lon="7.874950" lat="49.313627">
        <ele>1056.65</ele>
        <time>2026-07-26T10:32:29.600Z</time>
      </trkpt>
      <trkpt lon="7.856667" lat="49.322261">
        <ele>1059.63</ele>
        <time>2026-07-26T10:32:59.864Z</time>
      </trkpt>
      <trkpt lon="7.838419" lat="49.330613">
        <ele>1058.45</ele>
        <time>2026-07-26T10:33:29.944Z</time>
      </trkpt>
      <trkpt lon="7.820648" lat="49.338641">
        <ele>1081.58</ele>
        <time>2026-07-26T10:33:59.956Z</time>
      </trkpt>
      <trkpt lon="7.810411" lat="49.342811">
        <ele>1069.1</ele>
        <time>2026-07-26T10:34:16.468Z</time>
      </trkpt>
      <trkpt lon="7.792910" lat="49.351842">
        <ele>1043.68</ele>
        <time>2026-07-26T10:34:46.772Z</time>
      </trkpt>
      <trkpt lon="7.775236" lat="49.359275">
        <ele>1081.02</ele>
        <time>2026-07-26T10:35:16.792Z</time>
      </trkpt>
      <trkpt lon="7.760842" lat="49.366514">
        <ele>1089.48</ele>
        <time>2026-07-26T10:35:41.084Z</time>
      </trkpt>
      <trkpt lon="7.741174" lat="49.374637">
        <ele>1079.53</ele>
        <time>2026-07-26T10:36:11.144Z</time>
      </trkpt>
      <trkpt lon="7.735111" lat="49.377286">
        <ele>1078.54</ele>
        <time>2026-07-26T10:36:20.876Z</time>
      </trkpt>
      <trkpt lon="7.724818" lat="49.382485">
        <ele>1077.27</ele>
        <time>2026-07-26T10:36:37.992Z</time>
      </trkpt>
      <trkpt lon="7.706601" lat="49.390635">
        <ele>1061.75</ele>
        <time>2026-07-26T10:37:08.272Z</time>
      </trkpt>
      <trkpt lon="7.698864" lat="49.394187">
        <ele>1067.82</ele>
        <time>2026-07-26T10:37:21.600Z</time>
      </trkpt>
      <trkpt lon="7.692410" lat="49.396766">
        <ele>1063.46</ele>
        <time>2026-07-26T10:37:32.200Z</time>
      </trkpt>
      <trkpt lon="7.674500" lat="49.405538">
        <ele>1046.72</ele>
        <time>2026-07-26T10:38:02.532Z</time>
      </trkpt>
      <trkpt lon="7.655860" lat="49.413572">
        <ele>1054.83</ele>
        <time>2026-07-26T10:38:32.892Z</time>
      </trkpt>
      <trkpt lon="7.643166" lat="49.419696">
        <ele>1054.94</ele>
        <time>2026-07-26T10:38:54.248Z</time>
      </trkpt>
      <trkpt lon="7.642528" lat="49.420116">
        <ele>1051.92</ele>
        <time>2026-07-26T10:38:55.464Z</time>
      </trkpt>
      <trkpt lon="7.641953" lat="49.420580">
        <ele>1045.98</ele>
        <time>2026-07-26T10:38:56.672Z</time>
      </trkpt>
      <trkpt lon="7.641424" lat="49.421102">
        <ele>1036.92</ele>
        <time>2026-07-26T10:38:57.892Z</time>
      </trkpt>
      <trkpt lon="7.640737" lat="49.421968">
        <ele>1021.52</ele>
        <time>2026-07-26T10:38:59.728Z</time>
      </trkpt>
      <trkpt lon="7.640352" lat="49.422593">
        <ele>1014.83</ele>
        <time>2026-07-26T10:39:00.952Z</time>
      </trkpt>
      <trkpt lon="7.639204" lat="49.425087">
        <ele>962.705</ele>
        <time>2026-07-26T10:39:05.916Z</time>
      </trkpt>
      <trkpt lon="7.638381" lat="49.426641">
        <ele>914.947</ele>
        <time>2026-07-26T10:39:09.012Z</time>
      </trkpt>
      <trkpt lon="7.637875" lat="49.427530">
        <ele>866.719</ele>
        <time>2026-07-26T10:39:10.860Z</time>
      </trkpt>
      <trkpt lon="7.637324" lat="49.428393">
        <ele>821.126</ele>
        <time>2026-07-26T10:39:12.684Z</time>
      </trkpt>
      <trkpt lon="7.636753" lat="49.429212">
        <ele>778.58</ele>
        <time>2026-07-26T10:39:14.508Z</time>
      </trkpt>
      <trkpt lon="7.636170" lat="49.429970">
        <ele>738.673</ele>
        <time>2026-07-26T10:39:16.324Z</time>
      </trkpt>
      <trkpt lon="7.635596" lat="49.430668">
        <ele>698.319</ele>
        <time>2026-07-26T10:39:18.088Z</time>
      </trkpt>
      <trkpt lon="7.634954" lat="49.431368">
        <ele>658.127</ele>
        <time>2026-07-26T10:39:19.964Z</time>
      </trkpt>
      <trkpt lon="7.634055" lat="49.432215">
        <ele>614.515</ele>
        <time>2026-07-26T10:39:22.416Z</time>
      </trkpt>
      <trkpt lon="7.633364" lat="49.432793">
        <ele>582.13</ele>
        <time>2026-07-26T10:39:24.244Z</time>
      </trkpt>
      <trkpt lon="7.632610" lat="49.433332">
        <ele>551.01</ele>
        <time>2026-07-26T10:39:26.112Z</time>
      </trkpt>
      <trkpt lon="7.631806" lat="49.433825">
        <ele>518.954</ele>
        <time>2026-07-26T10:39:27.972Z</time>
      </trkpt>
      <trkpt lon="7.630935" lat="49.434287">
        <ele>486.12</ele>
        <time>2026-07-26T10:39:29.828Z</time>
      </trkpt>
      <trkpt lon="7.629977" lat="49.434742">
        <ele>451.692</ele>
        <time>2026-07-26T10:39:31.692Z</time>
      </trkpt>
      <trkpt lon="7.628982" lat="49.435187">
        <ele>425.566</ele>
        <time>2026-07-26T10:39:33.560Z</time>
      </trkpt>
      <trkpt lon="7.627949" lat="49.435637">
        <ele>400.105</ele>
        <time>2026-07-26T10:39:35.448Z</time>
      </trkpt>
      <trkpt lon="7.626939" lat="49.436068">
        <ele>377.133</ele>
        <time>2026-07-26T10:39:37.312Z</time>
      </trkpt>
      <trkpt lon="7.625350" lat="49.436863">
        <ele>349.894</ele>
        <time>2026-07-26T10:39:40.420Z</time>
      </trkpt>
      <trkpt lon="7.624512" lat="49.437367">
        <ele>326.747</ele>
        <time>2026-07-26T10:39:42.276Z</time>
      </trkpt>
      <trkpt lon="7.623689" lat="49.437903">
        <ele>307.81</ele>
        <time>2026-07-26T10:39:44.144Z</time>
      </trkpt>
      <trkpt lon="7.622670" lat="49.438613">
        <ele>287.337</ele>
        <time>2026-07-26T10:39:46.660Z</time>
      </trkpt>
      <trkpt lon="7.621304" lat="49.439543">
        <ele>268.454</ele>
        <time>2026-07-26T10:39:50.356Z</time>
      </trkpt>
      <trkpt lon="7.620077" lat="49.440304">
        <ele>254.382</ele>
        <time>2026-07-26T10:39:54.096Z</time>
      </trkpt>
      <trkpt lon="7.619041" lat="49.440937">
        <ele>250.964</ele>
        <time>2026-07-26T10:39:57.832Z</time>
      </trkpt>
      <trkpt lon="7.617996" lat="49.441644">
        <ele>249.271</ele>
        <time>2026-07-26T10:40:02.768Z</time>
      </trkpt>
      <trkpt lon="7.616951" lat="49.442496">
        <ele>242.48</ele>
        <time>2026-07-26T10:40:10.132Z</time>
      </trkpt>
      <trkpt lon="7.616731" lat="49.442664">
        <ele>240.423</ele>
        <time>2026-07-26T10:40:11.980Z</time>
      </trkpt>
      <trkpt lon="7.616662" lat="49.442718">
        <ele>239.532</ele>
        <time>2026-07-26T10:40:12.612Z</time>
      </trkpt>
      <trkpt lon="7.616592" lat="49.442772">
        <ele>239.609</ele>
        <time>2026-07-26T10:40:13.220Z</time>
      </trkpt>
      <trkpt lon="7.616467" lat="49.442889">
        <ele>239.516</ele>
        <time>2026-07-26T10:40:14.468Z</time>
      </trkpt>
      <trkpt lon="7.616420" lat="49.442954">
        <ele>239.509</ele>
        <time>2026-07-26T10:40:15.116Z</time>
      </trkpt>
      <trkpt lon="7.616342" lat="49.443073">
        <ele>239.542</ele>
        <time>2026-07-26T10:40:16.320Z</time>
      </trkpt>
      <trkpt lon="7.616295" lat="49.443132">
        <ele>239.531</ele>
        <time>2026-07-26T10:40:16.968Z</time>
      </trkpt>
      <trkpt lon="7.616216" lat="49.443224">
        <ele>239.477</ele>
        <time>2026-07-26T10:40:18.148Z</time>
      </trkpt>
      <trkpt lon="7.616202" lat="49.443267">
        <ele>239.476</ele>
        <time>2026-07-26T10:40:18.772Z</time>
      </trkpt>
      <trkpt lon="7.616184" lat="49.443340">
        <ele>239.485</ele>
        <time>2026-07-26T10:40:19.984Z</time>
      </trkpt>
      <trkpt lon="7.616174" lat="49.443369">
        <ele>239.483</ele>
        <time>2026-07-26T10:40:20.592Z</time>
      </trkpt>
      <trkpt lon="7.616142" lat="49.443619">
        <ele>239.487</ele>
        <time>2026-07-26T10:40:25.584Z</time>
      </trkpt>
      <trkpt lon="7.616134" lat="49.443749">
        <ele>239.484</ele>
        <time>2026-07-26T10:40:31.108Z</time>
      </trkpt>
    </trkseg>
    <trkseg>
      <trkpt lon="7.926036" lat="53.782764">
        <ele>1.89346</ele>
        <time>2026-07-26T10:58:37.236Z</time>
      </trkpt>
      <trkpt lon="7.925933" lat="53.782268">
        <ele>1.4842</ele>
        <time>2026-07-26T10:59:00.348Z</time>
      </trkpt>
      <trkpt lon="7.925920" lat="53.782269">
        <ele>1.49368</ele>
        <time>2026-07-26T10:59:30.716Z</time>
      </trkpt>
      <trkpt lon="7.925891" lat="53.782268">
        <ele>1.49948</ele>
        <time>2026-07-26T10:59:31.984Z</time>
      </trkpt>
      <trkpt lon="7.925857" lat="53.782264">
        <ele>1.50403</ele>
        <time>2026-07-26T11:00:16.948Z</time>
      </trkpt>
    </trkseg>
    <trkseg>
      <trkpt lon="8.534436" lat="50.027616">
        <ele>100.507</ele>
        <time>2026-07-26T12:11:20.276Z</time>
      </trkpt>
      <trkpt lon="8.534436" lat="50.027616">
        <ele>103.648</ele>
        <time>2026-07-26T12:12:11.740Z</time>
      </trkpt>
    </trkseg>
    <trkseg>
      <trkpt lon="7.591467" lat="49.441008">
        <ele>236.065</ele>
        <time>2026-07-26T12:13:54.936Z</time>
      </trkpt>
      <trkpt lon="7.591481" lat="49.441013">
        <ele>236.094</ele>
        <time>2026-07-26T12:26:50.020Z</time>
      </trkpt>
      <trkpt lon="7.591524" lat="49.441036">
        <ele>236.098</ele>
        <time>2026-07-26T12:26:51.880Z</time>
      </trkpt>
      <trkpt lon="7.591549" lat="49.441042">
        <ele>236.12</ele>
        <time>2026-07-26T12:26:55.812Z</time>
      </trkpt>
      <trkpt lon="7.591696" lat="49.441062">
        <ele>236.128</ele>
        <time>2026-07-26T12:28:26.248Z</time>
      </trkpt>
      <trkpt lon="7.591729" lat="49.441064">
        <ele>236.134</ele>
        <time>2026-07-26T12:28:26.872Z</time>
      </trkpt>
      <trkpt lon="7.591754" lat="49.441067">
        <ele>236.14</ele>
        <time>2026-07-26T12:28:28.440Z</time>
      </trkpt>
      <trkpt lon="7.591779" lat="49.441072">
        <ele>236.134</ele>
        <time>2026-07-26T12:28:30.400Z</time>
      </trkpt>
      <trkpt lon="7.591808" lat="49.441081">
        <ele>236.143</ele>
        <time>2026-07-26T12:28:33.040Z</time>
      </trkpt>
      <trkpt lon="7.591827" lat="49.441093">
        <ele>236.147</ele>
        <time>2026-07-26T12:28:34.192Z</time>
      </trkpt>
      <trkpt lon="7.591836" lat="49.441103">
        <ele>236.142</ele>
        <time>2026-07-26T12:28:34.780Z</time>
      </trkpt>
      <trkpt lon="7.591843" lat="49.441115">
        <ele>236.136</ele>
        <time>2026-07-26T12:28:36.576Z</time>
      </trkpt>
      <trkpt lon="7.595230" lat="49.439712">
        <ele>236.598</ele>
        <time>2026-07-26T12:57:01.528Z</time>
      </trkpt>
      <trkpt lon="7.595224" lat="49.439701">
        <ele>236.603</ele>
        <time>2026-07-26T12:59:06.480Z</time>
      </trkpt>
      <trkpt lon="7.595214" lat="49.439697">
        <ele>236.599</ele>
        <time>2026-07-26T12:59:09.296Z</time>
      </trkpt>
      <trkpt lon="7.595203" lat="49.439695">
        <ele>236.595</ele>
        <time>2026-07-26T12:59:11.524Z</time>
      </trkpt>
      <trkpt lon="7.595189" lat="49.439696">
        <ele>236.596</ele>
        <time>2026-07-26T12:59:12.656Z</time>
      </trkpt>
      <trkpt lon="7.595168" lat="49.439711">
        <ele>236.589</ele>
        <time>2026-07-26T12:59:19.400Z</time>
      </trkpt>
      <trkpt lon="7.595161" lat="49.439723">
        <ele>236.588</ele>
        <time>2026-07-26T12:59:21.640Z</time>
      </trkpt>
      <trkpt lon="7.595156" lat="49.439741">
        <ele>236.588</ele>
        <time>2026-07-26T12:59:24.464Z</time>
      </trkpt>
      <trkpt lon="7.595158" lat="49.439753">
        <ele>236.587</ele>
        <time>2026-07-26T12:59:26.140Z</time>
      </trkpt>
      <trkpt lon="7.595164" lat="49.439764">
        <ele>236.588</ele>
        <time>2026-07-26T12:59:27.812Z</time>
      </trkpt>
      <trkpt lon="7.595186" lat="49.439783">
        <ele>236.592</ele>
        <time>2026-07-26T12:59:31.172Z</time>
      </trkpt>
      <trkpt lon="7.595203" lat="49.439794">
        <ele>236.594</ele>
        <time>2026-07-26T12:59:34.204Z</time>
      </trkpt>
      <trkpt lon="7.595215" lat="49.439801">
        <ele>236.595</ele>
        <time>2026-07-26T12:59:44.336Z</time>
      </trkpt>
      <trkpt lon="7.595240" lat="49.439813">
        <ele>236.591</ele>
        <time>2026-07-26T13:00:02.220Z</time>
      </trkpt>
      <trkpt lon="7.595269" lat="49.439824">
        <ele>236.597</ele>
        <time>2026-07-26T13:00:03.340Z</time>
      </trkpt>
      <trkpt lon="7.595285" lat="49.439827">
        <ele>236.597</ele>
        <time>2026-07-26T13:00:03.900Z</time>
      </trkpt>
      <trkpt lon="7.595318" lat="49.439832">
        <ele>236.601</ele>
        <time>2026-07-26T13:00:05.016Z</time>
      </trkpt>
      <trkpt lon="7.595335" lat="49.439832">
        <ele>236.606</ele>
        <time>2026-07-26T13:00:05.580Z</time>
      </trkpt>
      <trkpt lon="7.595352" lat="49.439831">
        <ele>236.606</ele>
        <time>2026-07-26T13:00:06.160Z</time>
      </trkpt>
      <trkpt lon="7.595385" lat="49.439824">
        <ele>236.611</ele>
        <time>2026-07-26T13:00:07.272Z</time>
      </trkpt>
      <trkpt lon="7.595521" lat="49.439788">
        <ele>236.633</ele>
        <time>2026-07-26T13:00:11.736Z</time>
      </trkpt>
      <trkpt lon="7.595824" lat="49.439691">
        <ele>236.675</ele>
        <time>2026-07-26T13:00:21.804Z</time>
      </trkpt>
      <trkpt lon="7.596011" lat="49.439627">
        <ele>236.703</ele>
        <time>2026-07-26T13:00:28.124Z</time>
      </trkpt>
      <trkpt lon="7.596171" lat="49.439557">
        <ele>236.724</ele>
        <time>2026-07-26T13:00:33.812Z</time>
      </trkpt>
      <trkpt lon="7.596255" lat="49.439512">
        <ele>236.736</ele>
        <time>2026-07-26T13:00:36.992Z</time>
      </trkpt>
      <trkpt lon="7.596369" lat="49.439447">
        <ele>236.749</ele>
        <time>2026-07-26T13:00:41.424Z</time>
      </trkpt>
      <trkpt lon="7.596423" lat="49.439423">
        <ele>236.762</ele>
        <time>2026-07-26T13:00:43.328Z</time>
      </trkpt>
      <trkpt lon="7.596642" lat="49.439331">
        <ele>236.791</ele>
        <time>2026-07-26T13:00:50.924Z</time>
      </trkpt>
      <trkpt lon="7.596743" lat="49.439276">
        <ele>236.805</ele>
        <time>2026-07-26T13:00:54.728Z</time>
      </trkpt>
      <trkpt lon="7.596886" lat="49.439180">
        <ele>236.817</ele>
        <time>2026-07-26T13:01:00.424Z</time>
      </trkpt>
      <trkpt lon="7.597079" lat="49.439013">
        <ele>236.842</ele>
        <time>2026-07-26T13:01:07.680Z</time>
      </trkpt>
      <trkpt lon="7.597390" lat="49.438700">
        <ele>236.888</ele>
        <time>2026-07-26T13:01:17.808Z</time>
      </trkpt>
      <trkpt lon="7.597818" lat="49.438326">
        <ele>236.963</ele>
        <time>2026-07-26T13:01:27.952Z</time>
      </trkpt>
      <trkpt lon="7.598014" lat="49.438167">
        <ele>237.015</ele>
        <time>2026-07-26T13:01:31.896Z</time>
      </trkpt>
      <trkpt lon="7.598408" lat="49.437677">
        <ele>237.098</ele>
        <time>2026-07-26T13:01:42.408Z</time>
      </trkpt>
      <trkpt lon="7.598475" lat="49.437589">
        <ele>237.118</ele>
        <time>2026-07-26T13:01:44.304Z</time>
      </trkpt>
      <trkpt lon="7.598490" lat="49.437564">
        <ele>237.114</ele>
        <time>2026-07-26T13:01:45.556Z</time>
      </trkpt>
      <trkpt lon="7.598504" lat="49.437543">
        <ele>237.096</ele>
        <time>2026-07-26T13:03:27.020Z</time>
      </trkpt>
      <trkpt lon="7.598533" lat="49.437510">
        <ele>237.099</ele>
        <time>2026-07-26T13:03:28.152Z</time>
      </trkpt>
      <trkpt lon="7.598582" lat="49.437456">
        <ele>237.095</ele>
        <time>2026-07-26T13:03:29.288Z</time>
      </trkpt>
      <trkpt lon="7.598603" lat="49.437421">
        <ele>237.093</ele>
        <time>2026-07-26T13:03:29.860Z</time>
      </trkpt>
      <trkpt lon="7.598618" lat="49.437380">
        <ele>237.084</ele>
        <time>2026-07-26T13:03:30.428Z</time>
      </trkpt>
      <trkpt lon="7.598631" lat="49.437293">
        <ele>237.069</ele>
        <time>2026-07-26T13:03:31.548Z</time>
      </trkpt>
      <trkpt lon="7.598630" lat="49.437247">
        <ele>237.061</ele>
        <time>2026-07-26T13:03:32.100Z</time>
      </trkpt>
      <trkpt lon="7.598612" lat="49.437151">
        <ele>237.051</ele>
        <time>2026-07-26T13:03:33.240Z</time>
      </trkpt>
      <trkpt lon="7.598592" lat="49.437102">
        <ele>237.05</ele>
        <time>2026-07-26T13:03:33.812Z</time>
      </trkpt>
      <trkpt lon="7.598558" lat="49.437055">
        <ele>237.065</ele>
        <time>2026-07-26T13:03:34.388Z</time>
      </trkpt>
      <trkpt lon="7.598513" lat="49.437012">
        <ele>237.069</ele>
        <time>2026-07-26T13:03:34.952Z</time>
      </trkpt>
      <trkpt lon="7.598345" lat="49.436898">
        <ele>237.033</ele>
        <time>2026-07-26T13:03:36.644Z</time>
      </trkpt>
      <trkpt lon="7.598279" lat="49.436866">
        <ele>237.039</ele>
        <time>2026-07-26T13:03:37.212Z</time>
      </trkpt>
      <trkpt lon="7.598204" lat="49.436838">
        <ele>237.048</ele>
        <time>2026-07-26T13:03:37.784Z</time>
      </trkpt>
      <trkpt lon="7.598028" lat="49.436793">
        <ele>237.149</ele>
        <time>2026-07-26T13:03:38.932Z</time>
      </trkpt>
      <trkpt lon="7.597822" lat="49.436757">
        <ele>237.367</ele>
        <time>2026-07-26T13:03:40.068Z</time>
      </trkpt>
      <trkpt lon="7.596642" lat="49.436717">
        <ele>256.272</ele>
        <time>2026-07-26T13:03:45.160Z</time>
      </trkpt>
      <trkpt lon="7.596188" lat="49.436722">
        <ele>274.144</ele>
        <time>2026-07-26T13:03:47.408Z</time>
      </trkpt>
      <trkpt lon="7.595840" lat="49.436725">
        <ele>292.04</ele>
        <time>2026-07-26T13:03:49.624Z</time>
      </trkpt>
      <trkpt lon="7.595578" lat="49.436728">
        <ele>306.072</ele>
        <time>2026-07-26T13:03:51.868Z</time>
      </trkpt>
      <trkpt lon="7.595407" lat="49.436732">
        <ele>318.354</ele>
        <time>2026-07-26T13:03:54.096Z</time>
      </trkpt>
      <trkpt lon="7.595141" lat="49.436696">
        <ele>317.188</ele>
        <time>2026-07-26T13:03:56.884Z</time>
      </trkpt>
      <trkpt lon="7.594754" lat="49.436615">
        <ele>311.34</ele>
        <time>2026-07-26T13:03:59.120Z</time>
      </trkpt>
      <trkpt lon="7.594195" lat="49.436535">
        <ele>307.978</ele>
        <time>2026-07-26T13:04:01.376Z</time>
      </trkpt>
      <trkpt lon="7.592921" lat="49.436448">
        <ele>308.79</ele>
        <time>2026-07-26T13:04:05.264Z</time>
      </trkpt>
      <trkpt lon="7.591119" lat="49.436350">
        <ele>309.881</ele>
        <time>2026-07-26T13:04:09.736Z</time>
      </trkpt>
      <trkpt lon="7.588948" lat="49.436186">
        <ele>305.724</ele>
        <time>2026-07-26T13:04:14.372Z</time>
      </trkpt>
      <trkpt lon="7.586534" lat="49.435901">
        <ele>291.12</ele>
        <time>2026-07-26T13:04:18.804Z</time>
      </trkpt>
      <trkpt lon="7.585014" lat="49.435748">
        <ele>286.644</ele>
        <time>2026-07-26T13:04:21.340Z</time>
      </trkpt>
      <trkpt lon="7.579826" lat="49.435583">
        <ele>307.88</ele>
        <time>2026-07-26T13:04:29.624Z</time>
      </trkpt>
      <trkpt lon="7.569866" lat="49.435276">
        <ele>328.561</ele>
        <time>2026-07-26T13:04:45.460Z</time>
      </trkpt>
      <trkpt lon="7.566981" lat="49.435302">
        <ele>344.429</ele>
        <time>2026-07-26T13:04:49.896Z</time>
      </trkpt>
      <trkpt lon="7.564169" lat="49.435553">
        <ele>364.958</ele>
        <time>2026-07-26T13:04:54.308Z</time>
      </trkpt>
      <trkpt lon="7.561419" lat="49.436003">
        <ele>374.144</ele>
        <time>2026-07-26T13:04:58.744Z</time>
      </trkpt>
      <trkpt lon="7.560621" lat="49.436171">
        <ele>361.769</ele>
        <time>2026-07-26T13:05:00.008Z</time>
      </trkpt>
      <trkpt lon="7.558198" lat="49.436878">
        <ele>346.546</ele>
        <time>2026-07-26T13:05:03.652Z</time>
      </trkpt>
      <trkpt lon="7.555538" lat="49.437260">
        <ele>371.144</ele>
        <time>2026-07-26T13:05:07.792Z</time>
      </trkpt>
      <trkpt lon="7.554851" lat="49.437358">
        <ele>395.791</ele>
        <time>2026-07-26T13:05:09.060Z</time>
      </trkpt>
      <trkpt lon="7.553909" lat="49.437452">
        <ele>424.967</ele>
        <time>2026-07-26T13:05:10.940Z</time>
      </trkpt>
      <trkpt lon="7.550606" lat="49.437639">
        <ele>449.874</ele>
        <time>2026-07-26T13:05:17.704Z</time>
      </trkpt>
      <trkpt lon="7.549808" lat="49.437789">
        <ele>459.755</ele>
        <time>2026-07-26T13:05:19.428Z</time>
      </trkpt>
      <trkpt lon="7.548419" lat="49.438170">
        <ele>485.682</ele>
        <time>2026-07-26T13:05:22.812Z</time>
      </trkpt>
      <trkpt lon="7.548027" lat="49.438322">
        <ele>495.33</ele>
        <time>2026-07-26T13:05:23.936Z</time>
      </trkpt>
      <trkpt lon="7.547697" lat="49.438510">
        <ele>505.708</ele>
        <time>2026-07-26T13:05:25.068Z</time>
      </trkpt>
      <trkpt lon="7.547439" lat="49.438740">
        <ele>515.856</ele>
        <time>2026-07-26T13:05:26.204Z</time>
      </trkpt>
      <trkpt lon="7.547263" lat="49.438992">
        <ele>526.24</ele>
        <time>2026-07-26T13:05:27.316Z</time>
      </trkpt>
      <trkpt lon="7.547123" lat="49.439398">
        <ele>542.641</ele>
        <time>2026-07-26T13:05:29.000Z</time>
      </trkpt>
      <trkpt lon="7.546931" lat="49.440672">
        <ele>573.627</ele>
        <time>2026-07-26T13:05:34.132Z</time>
      </trkpt>
      <trkpt lon="7.546502" lat="49.442307">
        <ele>602.266</ele>
        <time>2026-07-26T13:05:40.332Z</time>
      </trkpt>
      <trkpt lon="7.545975" lat="49.443382">
        <ele>616.335</ele>
        <time>2026-07-26T13:05:44.260Z</time>
      </trkpt>
      <trkpt lon="7.544443" lat="49.445382">
        <ele>632.739</ele>
        <time>2026-07-26T13:05:51.624Z</time>
      </trkpt>
      <trkpt lon="7.540358" lat="49.449291">
        <ele>667.85</ele>
        <time>2026-07-26T13:06:04.580Z</time>
      </trkpt>
      <trkpt lon="7.539511" lat="49.450241">
        <ele>677.38</ele>
        <time>2026-07-26T13:06:07.472Z</time>
      </trkpt>
      <trkpt lon="7.539240" lat="49.450644">
        <ele>680.308</ele>
        <time>2026-07-26T13:06:08.592Z</time>
      </trkpt>
      <trkpt lon="7.538960" lat="49.451295">
        <ele>686.668</ele>
        <time>2026-07-26T13:06:10.292Z</time>
      </trkpt>
      <trkpt lon="7.538860" lat="49.451763">
        <ele>690.691</ele>
        <time>2026-07-26T13:06:11.424Z</time>
      </trkpt>
      <trkpt lon="7.538835" lat="49.452249">
        <ele>694.377</ele>
        <time>2026-07-26T13:06:12.568Z</time>
      </trkpt>
      <trkpt lon="7.538883" lat="49.452739">
        <ele>697.758</ele>
        <time>2026-07-26T13:06:13.676Z</time>
      </trkpt>
      <trkpt lon="7.538998" lat="49.453236">
        <ele>701.819</ele>
        <time>2026-07-26T13:06:14.796Z</time>
      </trkpt>
      <trkpt lon="7.539277" lat="49.453994">
        <ele>708.808</ele>
        <time>2026-07-26T13:06:16.508Z</time>
      </trkpt>
      <trkpt lon="7.541276" lat="49.457908">
        <ele>749.301</ele>
        <time>2026-07-26T13:06:25.480Z</time>
      </trkpt>
      <trkpt lon="7.543557" lat="49.461875">
        <ele>792.273</ele>
        <time>2026-07-26T13:06:34.688Z</time>
      </trkpt>
      <trkpt lon="7.545621" lat="49.465447">
        <ele>834.069</ele>
        <time>2026-07-26T13:06:42.904Z</time>
      </trkpt>
      <trkpt lon="7.547780" lat="49.469040">
        <ele>877.477</ele>
        <time>2026-07-26T13:06:51.132Z</time>
      </trkpt>
      <trkpt lon="7.550032" lat="49.473105">
        <ele>922.104</ele>
        <time>2026-07-26T13:07:00.308Z</time>
      </trkpt>
      <trkpt lon="7.552558" lat="49.478079">
        <ele>968.671</ele>
        <time>2026-07-26T13:07:11.528Z</time>
      </trkpt>
      <trkpt lon="7.558422" lat="49.488843">
        <ele>1012.65</ele>
        <time>2026-07-26T13:07:35.060Z</time>
      </trkpt>
      <trkpt lon="7.560715" lat="49.492960">
        <ele>1018.92</ele>
        <time>2026-07-26T13:07:43.492Z</time>
      </trkpt>
      <trkpt lon="7.566682" lat="49.501976">
        <ele>1037.85</ele>
        <time>2026-07-26T13:08:01.464Z</time>
      </trkpt>
      <trkpt lon="7.573536" lat="49.515481">
        <ele>1046.02</ele>
        <time>2026-07-26T13:08:26.196Z</time>
      </trkpt>
      <trkpt lon="7.574103" lat="49.517408">
        <ele>1042.55</ele>
        <time>2026-07-26T13:08:29.548Z</time>
      </trkpt>
      <trkpt lon="7.575208" lat="49.522603">
        <ele>1047.34</ele>
        <time>2026-07-26T13:08:38.500Z</time>
      </trkpt>
      <trkpt lon="7.575642" lat="49.523596">
        <ele>1044.67</ele>
        <time>2026-07-26T13:08:40.196Z</time>
      </trkpt>
      <trkpt lon="7.576410" lat="49.524877">
        <ele>1042.64</ele>
        <time>2026-07-26T13:08:42.436Z</time>
      </trkpt>
      <trkpt lon="7.580419" lat="49.529809">
        <ele>1039.33</ele>
        <time>2026-07-26T13:08:51.384Z</time>
      </trkpt>
      <trkpt lon="7.588159" lat="49.538238">
        <ele>1047.07</ele>
        <time>2026-07-26T13:09:06.924Z</time>
      </trkpt>
      <trkpt lon="7.597267" lat="49.547243">
        <ele>1032.69</ele>
        <time>2026-07-26T13:09:23.988Z</time>
      </trkpt>
      <trkpt lon="7.598383" lat="49.548620">
        <ele>1035.16</ele>
        <time>2026-07-26T13:09:26.520Z</time>
      </trkpt>
      <trkpt lon="7.599804" lat="49.550742">
        <ele>1034.75</ele>
        <time>2026-07-26T13:09:30.320Z</time>
      </trkpt>
      <trkpt lon="7.601301" lat="49.553617">
        <ele>1029.04</ele>
        <time>2026-07-26T13:09:35.388Z</time>
      </trkpt>
      <trkpt lon="7.602498" lat="49.556837">
        <ele>1020.43</ele>
        <time>2026-07-26T13:09:41.084Z</time>
      </trkpt>
      <trkpt lon="7.603839" lat="49.562702">
        <ele>993.945</ele>
        <time>2026-07-26T13:09:51.852Z</time>
      </trkpt>
      <trkpt lon="7.604848" lat="49.568941">
        <ele>1006.75</ele>
        <time>2026-07-26T13:10:03.888Z</time>
      </trkpt>
      <trkpt lon="7.604883" lat="49.572879">
        <ele>1012.11</ele>
        <time>2026-07-26T13:10:11.488Z</time>
      </trkpt>
      <trkpt lon="7.604607" lat="49.575825">
        <ele>1026.85</ele>
        <time>2026-07-26T13:10:17.188Z</time>
      </trkpt>
      <trkpt lon="7.603130" lat="49.582300">
        <ele>1027.83</ele>
        <time>2026-07-26T13:10:29.852Z</time>
      </trkpt>
      <trkpt lon="7.603109" lat="49.586365">
        <ele>1021.62</ele>
        <time>2026-07-26T13:10:37.452Z</time>
      </trkpt>
      <trkpt lon="7.603543" lat="49.593101">
        <ele>1012.08</ele>
        <time>2026-07-26T13:10:50.120Z</time>
      </trkpt>
      <trkpt lon="7.603900" lat="49.602436">
        <ele>1005.36</ele>
        <time>2026-07-26T13:11:07.820Z</time>
      </trkpt>
      <trkpt lon="7.603073" lat="49.618695">
        <ele>1024.76</ele>
        <time>2026-07-26T13:11:38.212Z</time>
      </trkpt>
      <trkpt lon="7.603192" lat="49.632522">
        <ele>1035.32</ele>
        <time>2026-07-26T13:12:02.912Z</time>
      </trkpt>
      <trkpt lon="7.602540" lat="49.650063">
        <ele>1047.39</ele>
        <time>2026-07-26T13:12:33.300Z</time>
      </trkpt>
      <trkpt lon="7.602500" lat="49.668325">
        <ele>1039.85</ele>
        <time>2026-07-26T13:13:03.664Z</time>
      </trkpt>
      <trkpt lon="7.601952" lat="49.686256">
        <ele>1053.8</ele>
        <time>2026-07-26T13:13:33.820Z</time>
      </trkpt>
      <trkpt lon="7.602195" lat="49.691617">
        <ele>1051.63</ele>
        <time>2026-07-26T13:13:42.504Z</time>
      </trkpt>
      <trkpt lon="7.601235" lat="49.710183">
        <ele>1054.41</ele>
        <time>2026-07-26T13:14:12.972Z</time>
      </trkpt>
      <trkpt lon="7.601693" lat="49.728780">
        <ele>1042.42</ele>
        <time>2026-07-26T13:14:43.372Z</time>
      </trkpt>
      <trkpt lon="7.601767" lat="49.732909">
        <ele>1042.52</ele>
        <time>2026-07-26T13:14:50.356Z</time>
      </trkpt>
      <trkpt lon="7.600923" lat="49.747468">
        <ele>1036.76</ele>
        <time>2026-07-26T13:15:15.692Z</time>
      </trkpt>
      <trkpt lon="7.600926" lat="49.756833">
        <ele>1030.46</ele>
        <time>2026-07-26T13:15:32.132Z</time>
      </trkpt>
      <trkpt lon="7.600118" lat="49.769866">
        <ele>1030.96</ele>
        <time>2026-07-26T13:15:55.512Z</time>
      </trkpt>
      <trkpt lon="7.600601" lat="49.784030">
        <ele>1035.55</ele>
        <time>2026-07-26T13:16:20.208Z</time>
      </trkpt>
      <trkpt lon="7.599697" lat="49.801691">
        <ele>1041.16</ele>
        <time>2026-07-26T13:16:50.556Z</time>
      </trkpt>
      <trkpt lon="7.599717" lat="49.814083">
        <ele>1044.07</ele>
        <time>2026-07-26T13:17:11.416Z</time>
      </trkpt>
      <trkpt lon="7.599298" lat="49.820405">
        <ele>1044.6</ele>
        <time>2026-07-26T13:17:22.160Z</time>
      </trkpt>
      <trkpt lon="7.599455" lat="49.838214">
        <ele>1032.42</ele>
        <time>2026-07-26T13:17:52.536Z</time>
      </trkpt>
      <trkpt lon="7.599810" lat="49.851375">
        <ele>1042.17</ele>
        <time>2026-07-26T13:18:15.352Z</time>
      </trkpt>
      <trkpt lon="7.597931" lat="49.868854">
        <ele>1041.78</ele>
        <time>2026-07-26T13:18:45.672Z</time>
      </trkpt>
      <trkpt lon="7.598442" lat="49.886855">
        <ele>1030.61</ele>
        <time>2026-07-26T13:19:16.192Z</time>
      </trkpt>
      <trkpt lon="7.597976" lat="49.903977">
        <ele>1025.01</ele>
        <time>2026-07-26T13:19:46.320Z</time>
      </trkpt>
      <trkpt lon="7.597890" lat="49.920742">
        <ele>1021.87</ele>
        <time>2026-07-26T13:20:16.720Z</time>
      </trkpt>
      <trkpt lon="7.597563" lat="49.933902">
        <ele>1003.75</ele>
        <time>2026-07-26T13:20:40.804Z</time>
      </trkpt>
      <trkpt lon="7.597410" lat="49.941668">
        <ele>1005.94</ele>
        <time>2026-07-26T13:20:55.360Z</time>
      </trkpt>
      <trkpt lon="7.596975" lat="49.958371">
        <ele>1024.45</ele>
        <time>2026-07-26T13:21:25.740Z</time>
      </trkpt>
      <trkpt lon="7.596818" lat="49.975421">
        <ele>1014.99</ele>
        <time>2026-07-26T13:21:56.140Z</time>
      </trkpt>
      <trkpt lon="7.596648" lat="49.992104">
        <ele>1031</ele>
        <time>2026-07-26T13:22:26.548Z</time>
      </trkpt>
      <trkpt lon="7.596599" lat="49.997432">
        <ele>1029.97</ele>
        <time>2026-07-26T13:22:36.048Z</time>
      </trkpt>
      <trkpt lon="7.595969" lat="50.014489">
        <ele>1028.41</ele>
        <time>2026-07-26T13:23:06.444Z</time>
      </trkpt>
      <trkpt lon="7.595857" lat="50.024127">
        <ele>1032.11</ele>
        <time>2026-07-26T13:23:23.548Z</time>
      </trkpt>
      <trkpt lon="7.595441" lat="50.026171">
        <ele>1033.43</ele>
        <time>2026-07-26T13:23:27.348Z</time>
      </trkpt>
      <trkpt lon="7.595022" lat="50.028206">
        <ele>1030.84</ele>
        <time>2026-07-26T13:23:31.144Z</time>
      </trkpt>
      <trkpt lon="7.594791" lat="50.030642">
        <ele>1028.24</ele>
        <time>2026-07-26T13:23:35.580Z</time>
      </trkpt>
      <trkpt lon="7.594906" lat="50.035617">
        <ele>1025.32</ele>
        <time>2026-07-26T13:23:44.444Z</time>
      </trkpt>
      <trkpt lon="7.596044" lat="50.048754">
        <ele>1040.74</ele>
        <time>2026-07-26T13:24:07.236Z</time>
      </trkpt>
      <trkpt lon="7.595024" lat="50.066114">
        <ele>1032.81</ele>
        <time>2026-07-26T13:24:37.580Z</time>
      </trkpt>
      <trkpt lon="7.594893" lat="50.083883">
        <ele>1045.75</ele>
        <time>2026-07-26T13:25:07.976Z</time>
      </trkpt>
      <trkpt lon="7.594305" lat="50.101311">
        <ele>1027.56</ele>
        <time>2026-07-26T13:25:38.412Z</time>
      </trkpt>
      <trkpt lon="7.594017" lat="50.118650">
        <ele>1032.65</ele>
        <time>2026-07-26T13:26:08.808Z</time>
      </trkpt>
      <trkpt lon="7.593640" lat="50.125177">
        <ele>1029.53</ele>
        <time>2026-07-26T13:26:20.212Z</time>
      </trkpt>
      <trkpt lon="7.593923" lat="50.142529">
        <ele>1036.69</ele>
        <time>2026-07-26T13:26:50.492Z</time>
      </trkpt>
      <trkpt lon="7.593505" lat="50.153742">
        <ele>1070.99</ele>
        <time>2026-07-26T13:27:09.496Z</time>
      </trkpt>
      <trkpt lon="7.593966" lat="50.158726">
        <ele>1099.33</ele>
        <time>2026-07-26T13:27:18.364Z</time>
      </trkpt>
      <trkpt lon="7.593885" lat="50.159797">
        <ele>1092.35</ele>
        <time>2026-07-26T13:27:20.248Z</time>
      </trkpt>
      <trkpt lon="7.593492" lat="50.161170">
        <ele>1088.91</ele>
        <time>2026-07-26T13:27:22.796Z</time>
      </trkpt>
      <trkpt lon="7.593013" lat="50.162158">
        <ele>1086.56</ele>
        <time>2026-07-26T13:27:24.696Z</time>
      </trkpt>
      <trkpt lon="7.591303" lat="50.164908">
        <ele>1125.46</ele>
        <time>2026-07-26T13:27:30.400Z</time>
      </trkpt>
      <trkpt lon="7.588661" lat="50.168967">
        <ele>1107.05</ele>
        <time>2026-07-26T13:27:39.256Z</time>
      </trkpt>
      <trkpt lon="7.583167" lat="50.175424">
        <ele>1063.92</ele>
        <time>2026-07-26T13:27:53.204Z</time>
      </trkpt>
      <trkpt lon="7.577286" lat="50.181563">
        <ele>1038.52</ele>
        <time>2026-07-26T13:28:07.120Z</time>
      </trkpt>
      <trkpt lon="7.573587" lat="50.184973">
        <ele>1025.15</ele>
        <time>2026-07-26T13:28:15.336Z</time>
      </trkpt>
      <trkpt lon="7.571828" lat="50.187325">
        <ele>1020.94</ele>
        <time>2026-07-26T13:28:20.404Z</time>
      </trkpt>
      <trkpt lon="7.563396" lat="50.201897">
        <ele>1017.65</ele>
        <time>2026-07-26T13:28:50.808Z</time>
      </trkpt>
      <trkpt lon="7.558102" lat="50.209094">
        <ele>1041.05</ele>
        <time>2026-07-26T13:29:06.640Z</time>
      </trkpt>
      <trkpt lon="7.556131" lat="50.212499">
        <ele>1045.14</ele>
        <time>2026-07-26T13:29:13.608Z</time>
      </trkpt>
      <trkpt lon="7.555148" lat="50.213631">
        <ele>1044.23</ele>
        <time>2026-07-26T13:29:16.140Z</time>
      </trkpt>
      <trkpt lon="7.549585" lat="50.219690">
        <ele>1034.77</ele>
        <time>2026-07-26T13:29:30.060Z</time>
      </trkpt>
      <trkpt lon="7.540454" lat="50.234472">
        <ele>1023.59</ele>
        <time>2026-07-26T13:30:00.440Z</time>
      </trkpt>
      <trkpt lon="7.530279" lat="50.248285">
        <ele>1015.03</ele>
        <time>2026-07-26T13:30:30.840Z</time>
      </trkpt>
      <trkpt lon="7.521133" lat="50.261498">
        <ele>1009.62</ele>
        <time>2026-07-26T13:31:01.240Z</time>
      </trkpt>
      <trkpt lon="7.518286" lat="50.265761">
        <ele>1027.3</ele>
        <time>2026-07-26T13:31:10.740Z</time>
      </trkpt>
      <trkpt lon="7.510252" lat="50.277500">
        <ele>1014.52</ele>
        <time>2026-07-26T13:31:36.072Z</time>
      </trkpt>
      <trkpt lon="7.500333" lat="50.291268">
        <ele>1019.19</ele>
        <time>2026-07-26T13:32:06.468Z</time>
      </trkpt>
      <trkpt lon="7.490588" lat="50.306017">
        <ele>1034.37</ele>
        <time>2026-07-26T13:32:36.864Z</time>
      </trkpt>
      <trkpt lon="7.480065" lat="50.319429">
        <ele>1026.38</ele>
        <time>2026-07-26T13:33:05.276Z</time>
      </trkpt>
      <trkpt lon="7.471237" lat="50.334244">
        <ele>1014.97</ele>
        <time>2026-07-26T13:33:35.680Z</time>
      </trkpt>
      <trkpt lon="7.460942" lat="50.347621">
        <ele>1028.76</ele>
        <time>2026-07-26T13:34:06.080Z</time>
      </trkpt>
      <trkpt lon="7.451653" lat="50.361584">
        <ele>1016.29</ele>
        <time>2026-07-26T13:34:36.480Z</time>
      </trkpt>
      <trkpt lon="7.441849" lat="50.375168">
        <ele>1032.39</ele>
        <time>2026-07-26T13:35:06.880Z</time>
      </trkpt>
      <trkpt lon="7.431727" lat="50.389284">
        <ele>1032.81</ele>
        <time>2026-07-26T13:35:37.256Z</time>
      </trkpt>
      <trkpt lon="7.424074" lat="50.400483">
        <ele>1034.07</ele>
        <time>2026-07-26T13:36:00.692Z</time>
      </trkpt>
      <trkpt lon="7.413968" lat="50.415116">
        <ele>1036.01</ele>
        <time>2026-07-26T13:36:31.088Z</time>
      </trkpt>
      <trkpt lon="7.403712" lat="50.429841">
        <ele>1024.08</ele>
        <time>2026-07-26T13:37:01.520Z</time>
      </trkpt>
      <trkpt lon="7.393585" lat="50.444059">
        <ele>1019.66</ele>
        <time>2026-07-26T13:37:31.916Z</time>
      </trkpt>
      <trkpt lon="7.383339" lat="50.458485">
        <ele>1036.57</ele>
        <time>2026-07-26T13:38:02.316Z</time>
      </trkpt>
      <trkpt lon="7.380695" lat="50.462974">
        <ele>1061.9</ele>
        <time>2026-07-26T13:38:11.184Z</time>
      </trkpt>
      <trkpt lon="7.377348" lat="50.469232">
        <ele>1046.52</ele>
        <time>2026-07-26T13:38:23.220Z</time>
      </trkpt>
      <trkpt lon="7.371165" lat="50.476791">
        <ele>1034.66</ele>
        <time>2026-07-26T13:38:39.052Z</time>
      </trkpt>
      <trkpt lon="7.365360" lat="50.483388">
        <ele>1028.38</ele>
        <time>2026-07-26T13:38:53.308Z</time>
      </trkpt>
      <trkpt lon="7.355628" lat="50.498627">
        <ele>1024.36</ele>
        <time>2026-07-26T13:39:23.760Z</time>
      </trkpt>
      <trkpt lon="7.344768" lat="50.513339">
        <ele>1032.84</ele>
        <time>2026-07-26T13:39:53.916Z</time>
      </trkpt>
      <trkpt lon="7.334651" lat="50.528208">
        <ele>1023.06</ele>
        <time>2026-07-26T13:40:24.012Z</time>
      </trkpt>
      <trkpt lon="7.324372" lat="50.542515">
        <ele>1016.29</ele>
        <time>2026-07-26T13:40:54.124Z</time>
      </trkpt>
      <trkpt lon="7.314453" lat="50.556696">
        <ele>1019.05</ele>
        <time>2026-07-26T13:41:24.204Z</time>
      </trkpt>
      <trkpt lon="7.304374" lat="50.570954">
        <ele>1021.72</ele>
        <time>2026-07-26T13:41:54.260Z</time>
      </trkpt>
      <trkpt lon="7.294146" lat="50.585199">
        <ele>1013.8</ele>
        <time>2026-07-26T13:42:24.384Z</time>
      </trkpt>
      <trkpt lon="7.284153" lat="50.599478">
        <ele>1020.9</ele>
        <time>2026-07-26T13:42:54.536Z</time>
      </trkpt>
      <trkpt lon="7.279284" lat="50.606661">
        <ele>970.428</ele>
        <time>2026-07-26T13:43:09.356Z</time>
      </trkpt>
      <trkpt lon="7.275847" lat="50.611633">
        <ele>925.532</ele>
        <time>2026-07-26T13:43:20.152Z</time>
      </trkpt>
      <trkpt lon="7.272000" lat="50.616973">
        <ele>883.417</ele>
        <time>2026-07-26T13:43:32.196Z</time>
      </trkpt>
      <trkpt lon="7.267167" lat="50.623476">
        <ele>842.506</ele>
        <time>2026-07-26T13:43:46.972Z</time>
      </trkpt>
      <trkpt lon="7.262864" lat="50.629577">
        <ele>801.94</ele>
        <time>2026-07-26T13:44:00.664Z</time>
      </trkpt>
      <trkpt lon="7.258191" lat="50.636504">
        <ele>762.29</ele>
        <time>2026-07-26T13:44:16.172Z</time>
      </trkpt>
      <trkpt lon="7.254701" lat="50.641270">
        <ele>719.749</ele>
        <time>2026-07-26T13:44:27.128Z</time>
      </trkpt>
      <trkpt lon="7.251321" lat="50.645753">
        <ele>682.196</ele>
        <time>2026-07-26T13:44:37.404Z</time>
      </trkpt>
      <trkpt lon="7.247573" lat="50.650553">
        <ele>643.075</ele>
        <time>2026-07-26T13:44:47.960Z</time>
      </trkpt>
      <trkpt lon="7.244583" lat="50.654742">
        <ele>611.29</ele>
        <time>2026-07-26T13:44:56.584Z</time>
      </trkpt>
      <trkpt lon="7.237487" lat="50.665543">
        <ele>582.361</ele>
        <time>2026-07-26T13:45:18.452Z</time>
      </trkpt>
      <trkpt lon="7.231144" lat="50.674377">
        <ele>554.434</ele>
        <time>2026-07-26T13:45:37.312Z</time>
      </trkpt>
      <trkpt lon="7.221639" lat="50.687825">
        <ele>544.081</ele>
        <time>2026-07-26T13:46:07.588Z</time>
      </trkpt>
      <trkpt lon="7.211861" lat="50.701606">
        <ele>559.877</ele>
        <time>2026-07-26T13:46:38.072Z</time>
      </trkpt>
      <trkpt lon="7.210225" lat="50.704455">
        <ele>563.377</ele>
        <time>2026-07-26T13:46:43.844Z</time>
      </trkpt>
      <trkpt lon="7.209525" lat="50.706206">
        <ele>570.013</ele>
        <time>2026-07-26T13:46:47.248Z</time>
      </trkpt>
      <trkpt lon="7.209098" lat="50.707998">
        <ele>580.364</ele>
        <time>2026-07-26T13:46:50.680Z</time>
      </trkpt>
      <trkpt lon="7.208813" lat="50.711277">
        <ele>609.12</ele>
        <time>2026-07-26T13:46:56.984Z</time>
      </trkpt>
      <trkpt lon="7.208863" lat="50.720416">
        <ele>574.45</ele>
        <time>2026-07-26T13:47:15.332Z</time>
      </trkpt>
      <trkpt lon="7.209169" lat="50.723959">
        <ele>541.354</ele>
        <time>2026-07-26T13:47:21.812Z</time>
      </trkpt>
      <trkpt lon="7.209654" lat="50.729750">
        <ele>549.249</ele>
        <time>2026-07-26T13:47:32.784Z</time>
      </trkpt>
      <trkpt lon="7.209703" lat="50.732375">
        <ele>541.413</ele>
        <time>2026-07-26T13:47:37.976Z</time>
      </trkpt>
      <trkpt lon="7.209371" lat="50.734965">
        <ele>529.934</ele>
        <time>2026-07-26T13:47:43.164Z</time>
      </trkpt>
      <trkpt lon="7.208393" lat="50.737778">
        <ele>506.447</ele>
        <time>2026-07-26T13:47:48.996Z</time>
      </trkpt>
      <trkpt lon="7.206363" lat="50.741914">
        <ele>475.477</ele>
        <time>2026-07-26T13:47:57.648Z</time>
      </trkpt>
      <trkpt lon="7.204969" lat="50.744428">
        <ele>470.449</ele>
        <time>2026-07-26T13:48:03.388Z</time>
      </trkpt>
      <trkpt lon="7.202701" lat="50.747866">
        <ele>440.915</ele>
        <time>2026-07-26T13:48:12.052Z</time>
      </trkpt>
      <trkpt lon="7.201073" lat="50.750271">
        <ele>413.065</ele>
        <time>2026-07-26T13:48:17.884Z</time>
      </trkpt>
      <trkpt lon="7.199080" lat="50.753044">
        <ele>386.051</ele>
        <time>2026-07-26T13:48:24.308Z</time>
      </trkpt>
      <trkpt lon="7.197082" lat="50.755138">
        <ele>380.184</ele>
        <time>2026-07-26T13:48:29.512Z</time>
      </trkpt>
      <trkpt lon="7.195888" lat="50.756139">
        <ele>399.802</ele>
        <time>2026-07-26T13:48:32.424Z</time>
      </trkpt>
      <trkpt lon="7.192769" lat="50.758385">
        <ele>368.657</ele>
        <time>2026-07-26T13:48:39.964Z</time>
      </trkpt>
      <trkpt lon="7.190833" lat="50.759661">
        <ele>338.813</ele>
        <time>2026-07-26T13:48:44.052Z</time>
      </trkpt>
      <trkpt lon="7.188523" lat="50.761110">
        <ele>309.705</ele>
        <time>2026-07-26T13:48:48.692Z</time>
      </trkpt>
      <trkpt lon="7.187250" lat="50.761765">
        <ele>284.079</ele>
        <time>2026-07-26T13:48:51.028Z</time>
      </trkpt>
      <trkpt lon="7.185902" lat="50.762390">
        <ele>255.166</ele>
        <time>2026-07-26T13:48:53.328Z</time>
      </trkpt>
      <trkpt lon="7.184466" lat="50.763049">
        <ele>231.343</ele>
        <time>2026-07-26T13:48:55.660Z</time>
      </trkpt>
      <trkpt lon="7.182008" lat="50.764181">
        <ele>207.719</ele>
        <time>2026-07-26T13:48:59.816Z</time>
      </trkpt>
      <trkpt lon="7.179378" lat="50.765185">
        <ele>192.413</ele>
        <time>2026-07-26T13:49:04.512Z</time>
      </trkpt>
      <trkpt lon="7.177831" lat="50.765628">
        <ele>178.987</ele>
        <time>2026-07-26T13:49:07.392Z</time>
      </trkpt>
      <trkpt lon="7.175764" lat="50.766189">
        <ele>158.108</ele>
        <time>2026-07-26T13:49:11.512Z</time>
      </trkpt>
      <trkpt lon="7.174125" lat="50.766634">
        <ele>135.792</ele>
        <time>2026-07-26T13:49:14.992Z</time>
      </trkpt>
      <trkpt lon="7.172499" lat="50.766976">
        <ele>115.96</ele>
        <time>2026-07-26T13:49:18.480Z</time>
      </trkpt>
      <trkpt lon="7.169958" lat="50.767508">
        <ele>98.4842</ele>
        <time>2026-07-26T13:49:24.248Z</time>
      </trkpt>
      <trkpt lon="7.166763" lat="50.768187">
        <ele>80.8397</ele>
        <time>2026-07-26T13:49:32.872Z</time>
      </trkpt>
      <trkpt lon="7.165002" lat="50.768568">
        <ele>65.1363</ele>
        <time>2026-07-26T13:49:38.052Z</time>
      </trkpt>
      <trkpt lon="7.163826" lat="50.768824">
        <ele>64.9364</ele>
        <time>2026-07-26T13:49:42.120Z</time>
      </trkpt>
      <trkpt lon="7.162702" lat="50.769072">
        <ele>62.7086</ele>
        <time>2026-07-26T13:49:47.376Z</time>
      </trkpt>
      <trkpt lon="7.162525" lat="50.769087">
        <ele>62.7127</ele>
        <time>2026-07-26T13:49:48.548Z</time>
      </trkpt>
      <trkpt lon="7.162460" lat="50.769081">
        <ele>62.7272</ele>
        <time>2026-07-26T13:49:49.140Z</time>
      </trkpt>
      <trkpt lon="7.162413" lat="50.769065">
        <ele>62.7405</ele>
        <time>2026-07-26T13:49:49.752Z</time>
      </trkpt>
      <trkpt lon="7.162375" lat="50.769044">
        <ele>62.7615</ele>
        <time>2026-07-26T13:49:50.340Z</time>
      </trkpt>
      <trkpt lon="7.162158" lat="50.768902">
        <ele>62.7215</ele>
        <time>2026-07-26T13:49:54.428Z</time>
      </trkpt>
      <trkpt lon="7.162063" lat="50.768817">
        <ele>62.6851</ele>
        <time>2026-07-26T13:49:56.760Z</time>
      </trkpt>
      <trkpt lon="7.161970" lat="50.768706">
        <ele>62.6401</ele>
        <time>2026-07-26T13:49:59.668Z</time>
      </trkpt>
      <trkpt lon="7.161883" lat="50.768581">
        <ele>62.5991</ele>
        <time>2026-07-26T13:50:03.120Z</time>
      </trkpt>
      <trkpt lon="7.161855" lat="50.768522">
        <ele>62.5899</ele>
        <time>2026-07-26T13:50:13.520Z</time>
      </trkpt>
      <trkpt lon="7.161832" lat="50.768462">
        <ele>62.5902</ele>
        <time>2026-07-26T13:51:08.680Z</time>
      </trkpt>
      <trkpt lon="7.161764" lat="50.768160">
        <ele>62.5213</ele>
        <time>2026-07-26T13:51:18.816Z</time>
      </trkpt>
      <trkpt lon="7.161707" lat="50.767893">
        <ele>62.1763</ele>
        <time>2026-07-26T13:51:25.068Z</time>
      </trkpt>
      <trkpt lon="7.161702" lat="50.767768">
        <ele>62.0501</ele>
        <time>2026-07-26T13:51:27.600Z</time>
      </trkpt>
      <trkpt lon="7.161729" lat="50.767576">
        <ele>61.9678</ele>
        <time>2026-07-26T13:51:31.404Z</time>
      </trkpt>
      <trkpt lon="7.161768" lat="50.767450">
        <ele>61.8984</ele>
        <time>2026-07-26T13:51:33.932Z</time>
      </trkpt>
      <trkpt lon="7.161783" lat="50.767420">
        <ele>61.8981</ele>
        <time>2026-07-26T13:51:34.560Z</time>
      </trkpt>
      <trkpt lon="7.161826" lat="50.767365">
        <ele>61.9419</ele>
        <time>2026-07-26T13:51:35.836Z</time>
      </trkpt>
      <trkpt lon="7.161877" lat="50.767314">
        <ele>61.9514</ele>
        <time>2026-07-26T13:51:37.100Z</time>
      </trkpt>
      <trkpt lon="7.161934" lat="50.767270">
        <ele>61.9792</ele>
        <time>2026-07-26T13:51:38.368Z</time>
      </trkpt>
      <trkpt lon="7.162022" lat="50.767206">
        <ele>62.0448</ele>
        <time>2026-07-26T13:51:40.904Z</time>
      </trkpt>
      <trkpt lon="7.161810" lat="50.767221">
        <ele>62.3593</ele>
        <time>2026-07-27T18:50:40.672Z</time>
      </trkpt>
      <trkpt lon="7.161795" lat="50.767232">
        <ele>62.115</ele>
        <time>2026-07-27T19:00:41.744Z</time>
      </trkpt>
      <trkpt lon="7.161782" lat="50.767243">
        <ele>62.1071</ele>
        <time>2026-07-27T19:00:46.968Z</time>
      </trkpt>
      <trkpt lon="7.161768" lat="50.767262">
        <ele>62.0837</ele>
        <time>2026-07-27T19:00:50.464Z</time>
      </trkpt>
      <trkpt lon="7.161757" lat="50.767292">
        <ele>62.0459</ele>
        <time>2026-07-27T19:00:52.208Z</time>
      </trkpt>
      <trkpt lon="7.161701" lat="50.767517">
        <ele>61.9361</ele>
        <time>2026-07-27T19:00:59.200Z</time>
      </trkpt>
      <trkpt lon="7.161704" lat="50.767738">
        <ele>62.0401</ele>
        <time>2026-07-27T19:01:05.032Z</time>
      </trkpt>
      <trkpt lon="7.161722" lat="50.767944">
        <ele>62.2389</ele>
        <time>2026-07-27T19:01:10.256Z</time>
      </trkpt>
      <trkpt lon="7.161730" lat="50.767967">
        <ele>62.2676</ele>
        <time>2026-07-27T19:01:10.856Z</time>
      </trkpt>
      <trkpt lon="7.161742" lat="50.767988">
        <ele>62.2908</ele>
        <time>2026-07-27T19:01:11.432Z</time>
      </trkpt>
      <trkpt lon="7.161758" lat="50.768008">
        <ele>62.3188</ele>
        <time>2026-07-27T19:01:12.024Z</time>
      </trkpt>
      <trkpt lon="7.161779" lat="50.768027">
        <ele>62.343</ele>
        <time>2026-07-27T19:01:12.616Z</time>
      </trkpt>
      <trkpt lon="7.161802" lat="50.768044">
        <ele>62.3696</ele>
        <time>2026-07-27T19:01:13.200Z</time>
      </trkpt>
      <trkpt lon="7.161856" lat="50.768073">
        <ele>62.4132</ele>
        <time>2026-07-27T19:01:14.392Z</time>
      </trkpt>
      <trkpt lon="7.161885" lat="50.768086">
        <ele>62.4242</ele>
        <time>2026-07-27T19:01:14.984Z</time>
      </trkpt>
      <trkpt lon="7.161918" lat="50.768095">
        <ele>62.4318</ele>
        <time>2026-07-27T19:01:15.600Z</time>
      </trkpt>
      <trkpt lon="7.161953" lat="50.768102">
        <ele>62.4383</ele>
        <time>2026-07-27T19:01:16.200Z</time>
      </trkpt>
      <trkpt lon="7.162097" lat="50.768118">
        <ele>62.4298</ele>
        <time>2026-07-27T19:01:18.552Z</time>
      </trkpt>
      <trkpt lon="7.162173" lat="50.768119">
        <ele>62.4136</ele>
        <time>2026-07-27T19:01:19.728Z</time>
      </trkpt>
      <trkpt lon="7.162291" lat="50.768114">
        <ele>62.4361</ele>
        <time>2026-07-27T19:01:21.520Z</time>
      </trkpt>
      <trkpt lon="7.162489" lat="50.768088">
        <ele>62.5128</ele>
        <time>2026-07-27T19:01:24.512Z</time>
      </trkpt>
      <trkpt lon="7.162688" lat="50.768054">
        <ele>62.546</ele>
        <time>2026-07-27T19:01:27.448Z</time>
      </trkpt>
      <trkpt lon="7.163332" lat="50.767903">
        <ele>62.3571</ele>
        <time>2026-07-27T19:01:36.168Z</time>
      </trkpt>
      <trkpt lon="7.163440" lat="50.767886">
        <ele>62.3159</ele>
        <time>2026-07-27T19:01:37.440Z</time>
      </trkpt>
      <trkpt lon="7.163834" lat="50.767802">
        <ele>62.1158</ele>
        <time>2026-07-27T19:01:41.864Z</time>
      </trkpt>
      <trkpt lon="7.163955" lat="50.767783">
        <ele>62.0403</ele>
        <time>2026-07-27T19:01:43.136Z</time>
      </trkpt>
      <trkpt lon="7.164208" lat="50.767734">
        <ele>61.8621</ele>
        <time>2026-07-27T19:01:45.672Z</time>
      </trkpt>
      <trkpt lon="7.164477" lat="50.767688">
        <ele>61.7295</ele>
        <time>2026-07-27T19:01:48.200Z</time>
      </trkpt>
      <trkpt lon="7.165409" lat="50.767493">
        <ele>61.6219</ele>
        <time>2026-07-27T19:01:56.440Z</time>
      </trkpt>
      <trkpt lon="7.165779" lat="50.767402">
        <ele>61.6046</ele>
        <time>2026-07-27T19:01:59.600Z</time>
      </trkpt>
      <trkpt lon="7.166168" lat="50.767343">
        <ele>61.5427</ele>
        <time>2026-07-27T19:02:02.680Z</time>
      </trkpt>
      <trkpt lon="7.166332" lat="50.767318">
        <ele>61.4676</ele>
        <time>2026-07-27T19:02:03.944Z</time>
      </trkpt>
      <trkpt lon="7.167174" lat="50.767134">
        <ele>61.2272</ele>
        <time>2026-07-27T19:02:10.584Z</time>
      </trkpt>
      <trkpt lon="7.167244" lat="50.767125">
        <ele>61.1946</ele>
        <time>2026-07-27T19:02:11.184Z</time>
      </trkpt>
      <trkpt lon="7.167314" lat="50.767124">
        <ele>61.1586</ele>
        <time>2026-07-27T19:02:11.808Z</time>
      </trkpt>
      <trkpt lon="7.167376" lat="50.767137">
        <ele>61.0999</ele>
        <time>2026-07-27T19:02:12.416Z</time>
      </trkpt>
      <trkpt lon="7.167429" lat="50.767159">
        <ele>61.0327</ele>
        <time>2026-07-27T19:02:13.016Z</time>
      </trkpt>
      <trkpt lon="7.167617" lat="50.767257">
        <ele>60.8278</ele>
        <time>2026-07-27T19:02:15.968Z</time>
      </trkpt>
      <trkpt lon="7.167657" lat="50.767285">
        <ele>60.766</ele>
        <time>2026-07-27T19:02:17.128Z</time>
      </trkpt>
      <trkpt lon="7.167728" lat="50.767386">
        <ele>60.6751</ele>
        <time>2026-07-27T19:02:33.032Z</time>
      </trkpt>
      <trkpt lon="7.167764" lat="50.767460">
        <ele>60.6374</ele>
        <time>2026-07-27T19:02:34.296Z</time>
      </trkpt>
      <trkpt lon="7.167772" lat="50.767505">
        <ele>60.6448</ele>
        <time>2026-07-27T19:02:34.928Z</time>
      </trkpt>
      <trkpt lon="7.167767" lat="50.767553">
        <ele>60.6711</ele>
        <time>2026-07-27T19:02:35.560Z</time>
      </trkpt>
      <trkpt lon="7.167749" lat="50.767604">
        <ele>60.7184</ele>
        <time>2026-07-27T19:02:36.176Z</time>
      </trkpt>
      <trkpt lon="7.167719" lat="50.767657">
        <ele>60.7547</ele>
        <time>2026-07-27T19:02:36.832Z</time>
      </trkpt>
      <trkpt lon="7.167676" lat="50.767710">
        <ele>60.7809</ele>
        <time>2026-07-27T19:02:37.464Z</time>
      </trkpt>
      <trkpt lon="7.167621" lat="50.767761">
        <ele>60.8176</ele>
        <time>2026-07-27T19:02:38.096Z</time>
      </trkpt>
      <trkpt lon="7.167550" lat="50.767809">
        <ele>60.8637</ele>
        <time>2026-07-27T19:02:38.728Z</time>
      </trkpt>
      <trkpt lon="7.167464" lat="50.767852">
        <ele>60.8951</ele>
        <time>2026-07-27T19:02:39.360Z</time>
      </trkpt>
      <trkpt lon="7.167246" lat="50.767928">
        <ele>60.9351</ele>
        <time>2026-07-27T19:02:40.632Z</time>
      </trkpt>
      <trkpt lon="7.166636" lat="50.768091">
        <ele>61.3049</ele>
        <time>2026-07-27T19:02:43.168Z</time>
      </trkpt>
      <trkpt lon="7.165812" lat="50.768294">
        <ele>60.6386</ele>
        <time>2026-07-27T19:02:45.696Z</time>
      </trkpt>
      <trkpt lon="7.163003" lat="50.768935">
        <ele>62.7065</ele>
        <time>2026-07-27T19:02:53.912Z</time>
      </trkpt>
      <trkpt lon="7.162103" lat="50.769118">
        <ele>62.7689</ele>
        <time>2026-07-27T19:02:57.096Z</time>
      </trkpt>
      <trkpt lon="7.161685" lat="50.769216">
        <ele>62.7948</ele>
        <time>2026-07-27T19:02:58.992Z</time>
      </trkpt>
      <trkpt lon="7.161469" lat="50.769268">
        <ele>62.8309</ele>
        <time>2026-07-27T19:03:00.896Z</time>
      </trkpt>
      <trkpt lon="7.161277" lat="50.769308">
        <ele>62.8657</ele>
        <time>2026-07-27T19:03:11.192Z</time>
      </trkpt>
      <trkpt lon="7.161158" lat="50.769331">
        <ele>62.8959</ele>
        <time>2026-07-27T19:03:14.152Z</time>
      </trkpt>
      <trkpt lon="7.160901" lat="50.769378">
        <ele>62.9233</ele>
        <time>2026-07-27T19:03:16.008Z</time>
      </trkpt>
      <trkpt lon="7.160400" lat="50.769479">
        <ele>63.1618</ele>
        <time>2026-07-27T19:03:18.312Z</time>
      </trkpt>
      <trkpt lon="7.159698" lat="50.769622">
        <ele>63.8815</ele>
        <time>2026-07-27T19:03:20.680Z</time>
      </trkpt>
      <trkpt lon="7.158384" lat="50.769923">
        <ele>69.4787</ele>
        <time>2026-07-27T19:03:24.216Z</time>
      </trkpt>
      <trkpt lon="7.156514" lat="50.770373">
        <ele>77.5921</ele>
        <time>2026-07-27T19:03:28.432Z</time>
      </trkpt>
      <trkpt lon="7.154417" lat="50.770884">
        <ele>97.29</ele>
        <time>2026-07-27T19:03:32.672Z</time>
      </trkpt>
      <trkpt lon="7.152353" lat="50.771416">
        <ele>117.608</ele>
        <time>2026-07-27T19:03:36.736Z</time>
      </trkpt>
      <trkpt lon="7.150540" lat="50.771892">
        <ele>136.84</ele>
        <time>2026-07-27T19:03:40.224Z</time>
      </trkpt>
      <trkpt lon="7.147881" lat="50.772667">
        <ele>159.929</ele>
        <time>2026-07-27T19:03:45.288Z</time>
      </trkpt>
      <trkpt lon="7.146209" lat="50.773080">
        <ele>184.503</ele>
        <time>2026-07-27T19:03:48.456Z</time>
      </trkpt>
      <trkpt lon="7.144529" lat="50.773417">
        <ele>201.584</ele>
        <time>2026-07-27T19:03:51.624Z</time>
      </trkpt>
      <trkpt lon="7.143818" lat="50.773492">
        <ele>203.324</ele>
        <time>2026-07-27T19:03:52.888Z</time>
      </trkpt>
      <trkpt lon="7.143449" lat="50.773510">
        <ele>202.991</ele>
        <time>2026-07-27T19:03:53.504Z</time>
      </trkpt>
      <trkpt lon="7.142690" lat="50.773484">
        <ele>202.701</ele>
        <time>2026-07-27T19:03:54.792Z</time>
      </trkpt>
      <trkpt lon="7.141919" lat="50.773374">
        <ele>202.537</ele>
        <time>2026-07-27T19:03:56.056Z</time>
      </trkpt>
      <trkpt lon="7.141143" lat="50.773194">
        <ele>199.381</ele>
        <time>2026-07-27T19:03:57.312Z</time>
      </trkpt>
      <trkpt lon="7.140373" lat="50.772947">
        <ele>192.309</ele>
        <time>2026-07-27T19:03:58.576Z</time>
      </trkpt>
      <trkpt lon="7.139623" lat="50.772619">
        <ele>183.376</ele>
        <time>2026-07-27T19:03:59.848Z</time>
      </trkpt>
      <trkpt lon="7.138914" lat="50.772211">
        <ele>174.504</ele>
        <time>2026-07-27T19:04:01.112Z</time>
      </trkpt>
      <trkpt lon="7.138589" lat="50.771977">
        <ele>171.971</ele>
        <time>2026-07-27T19:04:01.760Z</time>
      </trkpt>
      <trkpt lon="7.138015" lat="50.771453">
        <ele>171.967</ele>
        <time>2026-07-27T19:04:03.024Z</time>
      </trkpt>
      <trkpt lon="7.137545" lat="50.770883">
        <ele>175.693</ele>
        <time>2026-07-27T19:04:04.288Z</time>
      </trkpt>
      <trkpt lon="7.137218" lat="50.770283">
        <ele>184.685</ele>
        <time>2026-07-27T19:04:05.552Z</time>
      </trkpt>
      <trkpt lon="7.137053" lat="50.769670">
        <ele>196.751</ele>
        <time>2026-07-27T19:04:06.824Z</time>
      </trkpt>
      <trkpt lon="7.137025" lat="50.769060">
        <ele>207.358</ele>
        <time>2026-07-27T19:04:08.096Z</time>
      </trkpt>
      <trkpt lon="7.137174" lat="50.767611">
        <ele>235.998</ele>
        <time>2026-07-27T19:04:11.256Z</time>
      </trkpt>
      <trkpt lon="7.137395" lat="50.766540">
        <ele>263.319</ele>
        <time>2026-07-27T19:04:13.792Z</time>
      </trkpt>
      <trkpt lon="7.137747" lat="50.765557">
        <ele>289.7</ele>
        <time>2026-07-27T19:04:16.288Z</time>
      </trkpt>
      <trkpt lon="7.138110" lat="50.764866">
        <ele>308.271</ele>
        <time>2026-07-27T19:04:18.184Z</time>
      </trkpt>
      <trkpt lon="7.138686" lat="50.764017">
        <ele>332.855</ele>
        <time>2026-07-27T19:04:20.712Z</time>
      </trkpt>
      <trkpt lon="7.139013" lat="50.763629">
        <ele>344.65</ele>
        <time>2026-07-27T19:04:21.984Z</time>
      </trkpt>
      <trkpt lon="7.139636" lat="50.762897">
        <ele>365.01</ele>
        <time>2026-07-27T19:04:24.512Z</time>
      </trkpt>
      <trkpt lon="7.141412" lat="50.760643">
        <ele>372.899</ele>
        <time>2026-07-27T19:04:32.128Z</time>
      </trkpt>
      <trkpt lon="7.142233" lat="50.759529">
        <ele>360.573</ele>
        <time>2026-07-27T19:04:35.288Z</time>
      </trkpt>
      <trkpt lon="7.142470" lat="50.759018">
        <ele>354.623</ele>
        <time>2026-07-27T19:04:36.544Z</time>
      </trkpt>
      <trkpt lon="7.142729" lat="50.758195">
        <ele>348.165</ele>
        <time>2026-07-27T19:04:38.456Z</time>
      </trkpt>
      <trkpt lon="7.143361" lat="50.755929">
        <ele>360.691</ele>
        <time>2026-07-27T19:04:43.520Z</time>
      </trkpt>
      <trkpt lon="7.143653" lat="50.755380">
        <ele>364.398</ele>
        <time>2026-07-27T19:04:44.776Z</time>
      </trkpt>
      <trkpt lon="7.144073" lat="50.754857">
        <ele>366.475</ele>
        <time>2026-07-27T19:04:46.056Z</time>
      </trkpt>
      <trkpt lon="7.144616" lat="50.754367">
        <ele>367.5</ele>
        <time>2026-07-27T19:04:47.320Z</time>
      </trkpt>
      <trkpt lon="7.145268" lat="50.753916">
        <ele>368.881</ele>
        <time>2026-07-27T19:04:48.576Z</time>
      </trkpt>
      <trkpt lon="7.146006" lat="50.753516">
        <ele>371.086</ele>
        <time>2026-07-27T19:04:49.840Z</time>
      </trkpt>
      <trkpt lon="7.146816" lat="50.753168">
        <ele>374.628</ele>
        <time>2026-07-27T19:04:51.128Z</time>
      </trkpt>
      <trkpt lon="7.148099" lat="50.752729">
        <ele>384.829</ele>
        <time>2026-07-27T19:04:53.024Z</time>
      </trkpt>
      <trkpt lon="7.150600" lat="50.752026">
        <ele>421.106</ele>
        <time>2026-07-27T19:04:56.824Z</time>
      </trkpt>
      <trkpt lon="7.153337" lat="50.751409">
        <ele>458.66</ele>
        <time>2026-07-27T19:05:01.256Z</time>
      </trkpt>
      <trkpt lon="7.156234" lat="50.750845">
        <ele>494.596</ele>
        <time>2026-07-27T19:05:06.320Z</time>
      </trkpt>
      <trkpt lon="7.160324" lat="50.750123">
        <ele>505.256</ele>
        <time>2026-07-27T19:05:13.288Z</time>
      </trkpt>
      <trkpt lon="7.163354" lat="50.749619">
        <ele>497.2</ele>
        <time>2026-07-27T19:05:17.720Z</time>
      </trkpt>
      <trkpt lon="7.168632" lat="50.748749">
        <ele>488.127</ele>
        <time>2026-07-27T19:05:24.680Z</time>
      </trkpt>
      <trkpt lon="7.170622" lat="50.748312">
        <ele>485.579</ele>
        <time>2026-07-27T19:05:27.208Z</time>
      </trkpt>
      <trkpt lon="7.171589" lat="50.748030">
        <ele>484.206</ele>
        <time>2026-07-27T19:05:28.496Z</time>
      </trkpt>
      <trkpt lon="7.172526" lat="50.747692">
        <ele>483.145</ele>
        <time>2026-07-27T19:05:29.760Z</time>
      </trkpt>
      <trkpt lon="7.173423" lat="50.747304">
        <ele>482.216</ele>
        <time>2026-07-27T19:05:31.016Z</time>
      </trkpt>
      <trkpt lon="7.174620" lat="50.746680">
        <ele>481.25</ele>
        <time>2026-07-27T19:05:32.792Z</time>
      </trkpt>
      <trkpt lon="7.177527" lat="50.744824">
        <ele>479.572</ele>
        <time>2026-07-27T19:05:37.520Z</time>
      </trkpt>
      <trkpt lon="7.190349" lat="50.736148">
        <ele>511.246</ele>
        <time>2026-07-27T19:05:58.952Z</time>
      </trkpt>
      <trkpt lon="7.198604" lat="50.730585">
        <ele>543.841</ele>
        <time>2026-07-27T19:06:13.408Z</time>
      </trkpt>
      <trkpt lon="7.207272" lat="50.724745">
        <ele>578.203</ele>
        <time>2026-07-27T19:06:29.264Z</time>
      </trkpt>
      <trkpt lon="7.216343" lat="50.718814">
        <ele>616.092</ele>
        <time>2026-07-27T19:06:46.368Z</time>
      </trkpt>
      <trkpt lon="7.223960" lat="50.713940">
        <ele>652.533</ele>
        <time>2026-07-27T19:07:00.896Z</time>
      </trkpt>
      <trkpt lon="7.235289" lat="50.706946">
        <ele>693.383</ele>
        <time>2026-07-27T19:07:22.392Z</time>
      </trkpt>
      <trkpt lon="7.243645" lat="50.701571">
        <ele>733.346</ele>
        <time>2026-07-27T19:07:38.224Z</time>
      </trkpt>
      <trkpt lon="7.249438" lat="50.697916">
        <ele>748.287</ele>
        <time>2026-07-27T19:07:48.992Z</time>
      </trkpt>
      <trkpt lon="7.250612" lat="50.697353">
        <ele>750.132</ele>
        <time>2026-07-27T19:07:50.872Z</time>
      </trkpt>
      <trkpt lon="7.251455" lat="50.697031">
        <ele>751.272</ele>
        <time>2026-07-27T19:07:52.160Z</time>
      </trkpt>
      <trkpt lon="7.252354" lat="50.696759">
        <ele>751.93</ele>
        <time>2026-07-27T19:07:53.408Z</time>
      </trkpt>
      <trkpt lon="7.253295" lat="50.696546">
        <ele>752.322</ele>
        <time>2026-07-27T19:07:54.688Z</time>
      </trkpt>
      <trkpt lon="7.254262" lat="50.696398">
        <ele>752.905</ele>
        <time>2026-07-27T19:07:55.952Z</time>
      </trkpt>
      <trkpt lon="7.255248" lat="50.696312">
        <ele>753.18</ele>
        <time>2026-07-27T19:07:57.200Z</time>
      </trkpt>
      <trkpt lon="7.256212" lat="50.696290">
        <ele>753.56</ele>
        <time>2026-07-27T19:07:58.456Z</time>
      </trkpt>
      <trkpt lon="7.257198" lat="50.696331">
        <ele>754.123</ele>
        <time>2026-07-27T19:07:59.728Z</time>
      </trkpt>
      <trkpt lon="7.258167" lat="50.696433">
        <ele>754.306</ele>
        <time>2026-07-27T19:08:00.992Z</time>
      </trkpt>
      <trkpt lon="7.259102" lat="50.696592">
        <ele>754.305</ele>
        <time>2026-07-27T19:08:02.256Z</time>
      </trkpt>
      <trkpt lon="7.260455" lat="50.696913">
        <ele>754.967</ele>
        <time>2026-07-27T19:08:04.160Z</time>
      </trkpt>
      <trkpt lon="7.266903" lat="50.699024">
        <ele>767.422</ele>
        <time>2026-07-27T19:08:13.656Z</time>
      </trkpt>
      <trkpt lon="7.288071" lat="50.706854">
        <ele>786.827</ele>
        <time>2026-07-27T19:08:43.832Z</time>
      </trkpt>
      <trkpt lon="7.299785" lat="50.711411">
        <ele>754.39</ele>
        <time>2026-07-27T19:08:59.456Z</time>
      </trkpt>
      <trkpt lon="7.322943" lat="50.720603">
        <ele>729.303</ele>
        <time>2026-07-27T19:09:29.496Z</time>
      </trkpt>
      <trkpt lon="7.345595" lat="50.729697">
        <ele>727.704</ele>
        <time>2026-07-27T19:09:59.864Z</time>
      </trkpt>
      <trkpt lon="7.368245" lat="50.738592">
        <ele>725.581</ele>
        <time>2026-07-27T19:10:30.400Z</time>
      </trkpt>
      <trkpt lon="7.390576" lat="50.747459">
        <ele>720.239</ele>
        <time>2026-07-27T19:11:00.984Z</time>
      </trkpt>
      <trkpt lon="7.409754" lat="50.755296">
        <ele>681.621</ele>
        <time>2026-07-27T19:11:27.640Z</time>
      </trkpt>
      <trkpt lon="7.410796" lat="50.755925">
        <ele>677.515</ele>
        <time>2026-07-27T19:11:29.360Z</time>
      </trkpt>
      <trkpt lon="7.411423" lat="50.756385">
        <ele>674.704</ele>
        <time>2026-07-27T19:11:30.512Z</time>
      </trkpt>
      <trkpt lon="7.411964" lat="50.756883">
        <ele>673.729</ele>
        <time>2026-07-27T19:11:31.680Z</time>
      </trkpt>
      <trkpt lon="7.412428" lat="50.757413">
        <ele>672.359</ele>
        <time>2026-07-27T19:11:32.848Z</time>
      </trkpt>
      <trkpt lon="7.412803" lat="50.757962">
        <ele>671.661</ele>
        <time>2026-07-27T19:11:34.032Z</time>
      </trkpt>
      <trkpt lon="7.413237" lat="50.758811">
        <ele>670.881</ele>
        <time>2026-07-27T19:11:35.808Z</time>
      </trkpt>
      <trkpt lon="7.418619" lat="50.773612">
        <ele>667.963</ele>
        <time>2026-07-27T19:12:05.976Z</time>
      </trkpt>
      <trkpt lon="7.424125" lat="50.788724">
        <ele>672.547</ele>
        <time>2026-07-27T19:12:36.408Z</time>
      </trkpt>
      <trkpt lon="7.429566" lat="50.804230">
        <ele>665.167</ele>
        <time>2026-07-27T19:13:06.808Z</time>
      </trkpt>
      <trkpt lon="7.434982" lat="50.818935">
        <ele>671.782</ele>
        <time>2026-07-27T19:13:37.208Z</time>
      </trkpt>
      <trkpt lon="7.440876" lat="50.834212">
        <ele>667.812</ele>
        <time>2026-07-27T19:14:07.568Z</time>
      </trkpt>
      <trkpt lon="7.446444" lat="50.849430">
        <ele>668.487</ele>
        <time>2026-07-27T19:14:37.976Z</time>
      </trkpt>
      <trkpt lon="7.451802" lat="50.864708">
        <ele>668.925</ele>
        <time>2026-07-27T19:15:08.344Z</time>
      </trkpt>
      <trkpt lon="7.457238" lat="50.879748">
        <ele>667.037</ele>
        <time>2026-07-27T19:15:38.440Z</time>
      </trkpt>
      <trkpt lon="7.461562" lat="50.890968">
        <ele>664.574</ele>
        <time>2026-07-27T19:16:01.192Z</time>
      </trkpt>
      <trkpt lon="7.462315" lat="50.892116">
        <ele>664.49</ele>
        <time>2026-07-27T19:16:03.592Z</time>
      </trkpt>
      <trkpt lon="7.464611" lat="50.894834">
        <ele>664.62</ele>
        <time>2026-07-27T19:16:09.432Z</time>
      </trkpt>
      <trkpt lon="7.477934" lat="50.908501">
        <ele>662.597</ele>
        <time>2026-07-27T19:16:39.728Z</time>
      </trkpt>
      <trkpt lon="7.481837" lat="50.912274">
        <ele>702.203</ele>
        <time>2026-07-27T19:16:48.568Z</time>
      </trkpt>
      <trkpt lon="7.483722" lat="50.914013">
        <ele>742.589</ele>
        <time>2026-07-27T19:16:53.192Z</time>
      </trkpt>
      <trkpt lon="7.488752" lat="50.918723">
        <ele>754.736</ele>
        <time>2026-07-27T19:17:06.000Z</time>
      </trkpt>
      <trkpt lon="7.490830" lat="50.920755">
        <ele>733.077</ele>
        <time>2026-07-27T19:17:10.640Z</time>
      </trkpt>
      <trkpt lon="7.497891" lat="50.927561">
        <ele>750.715</ele>
        <time>2026-07-27T19:17:25.312Z</time>
      </trkpt>
      <trkpt lon="7.498844" lat="50.928439">
        <ele>790.359</ele>
        <time>2026-07-27T19:17:27.664Z</time>
      </trkpt>
      <trkpt lon="7.500121" lat="50.929579">
        <ele>833.648</ele>
        <time>2026-07-27T19:17:31.144Z</time>
      </trkpt>
      <trkpt lon="7.502266" lat="50.931460">
        <ele>876.423</ele>
        <time>2026-07-27T19:17:37.504Z</time>
      </trkpt>
      <trkpt lon="7.507045" lat="50.935691">
        <ele>914.26</ele>
        <time>2026-07-27T19:17:52.040Z</time>
      </trkpt>
      <trkpt lon="7.511443" lat="50.939771">
        <ele>920.199</ele>
        <time>2026-07-27T19:18:03.432Z</time>
      </trkpt>
      <trkpt lon="7.520463" lat="50.948219">
        <ele>967.455</ele>
        <time>2026-07-27T19:18:25.120Z</time>
      </trkpt>
      <trkpt lon="7.527430" lat="50.954639">
        <ele>1017.54</ele>
        <time>2026-07-27T19:18:41.192Z</time>
      </trkpt>
      <trkpt lon="7.536625" lat="50.962821">
        <ele>1071.32</ele>
        <time>2026-07-27T19:19:02.072Z</time>
      </trkpt>
      <trkpt lon="7.541092" lat="50.966848">
        <ele>1081.16</ele>
        <time>2026-07-27T19:19:12.832Z</time>
      </trkpt>
      <trkpt lon="7.545981" lat="50.971515">
        <ele>1108.62</ele>
        <time>2026-07-27T19:19:23.608Z</time>
      </trkpt>
      <trkpt lon="7.547951" lat="50.973275">
        <ele>1160.54</ele>
        <time>2026-07-27T19:19:28.672Z</time>
      </trkpt>
      <trkpt lon="7.551069" lat="50.976101">
        <ele>1168.55</ele>
        <time>2026-07-27T19:19:36.904Z</time>
      </trkpt>
      <trkpt lon="7.558657" lat="50.983381">
        <ele>1231.22</ele>
        <time>2026-07-27T19:19:55.272Z</time>
      </trkpt>
      <trkpt lon="7.565607" lat="50.989956">
        <ele>1264.11</ele>
        <time>2026-07-27T19:20:13.008Z</time>
      </trkpt>
      <trkpt lon="7.566716" lat="50.991054">
        <ele>1235.74</ele>
        <time>2026-07-27T19:20:15.536Z</time>
      </trkpt>
      <trkpt lon="7.568216" lat="50.992556">
        <ele>1200.62</ele>
        <time>2026-07-27T19:20:18.712Z</time>
      </trkpt>
      <trkpt lon="7.569787" lat="50.994121">
        <ele>1214.85</ele>
        <time>2026-07-27T19:20:21.872Z</time>
      </trkpt>
      <trkpt lon="7.570356" lat="50.994652">
        <ele>1244.57</ele>
        <time>2026-07-27T19:20:23.144Z</time>
      </trkpt>
      <trkpt lon="7.570870" lat="50.995105">
        <ele>1278.56</ele>
        <time>2026-07-27T19:20:24.408Z</time>
      </trkpt>
      <trkpt lon="7.571573" lat="50.995686">
        <ele>1324.54</ele>
        <time>2026-07-27T19:20:26.304Z</time>
      </trkpt>
      <trkpt lon="7.572193" lat="50.996162">
        <ele>1363.92</ele>
        <time>2026-07-27T19:20:28.208Z</time>
      </trkpt>
      <trkpt lon="7.572730" lat="50.996529">
        <ele>1397.66</ele>
        <time>2026-07-27T19:20:30.112Z</time>
      </trkpt>
      <trkpt lon="7.573481" lat="50.996987">
        <ele>1433.79</ele>
        <time>2026-07-27T19:20:33.272Z</time>
      </trkpt>
      <trkpt lon="7.574345" lat="50.997471">
        <ele>1450.65</ele>
        <time>2026-07-27T19:20:37.712Z</time>
      </trkpt>
      <trkpt lon="7.574501" lat="50.997536">
        <ele>1447.01</ele>
        <time>2026-07-27T19:20:38.344Z</time>
      </trkpt>
      <trkpt lon="7.574699" lat="50.997598">
        <ele>1441.23</ele>
        <time>2026-07-27T19:20:38.960Z</time>
      </trkpt>
      <trkpt lon="7.575224" lat="50.997711">
        <ele>1429.35</ele>
        <time>2026-07-27T19:20:40.240Z</time>
      </trkpt>
      <trkpt lon="7.575889" lat="50.997825">
        <ele>1419.6</ele>
        <time>2026-07-27T19:20:41.504Z</time>
      </trkpt>
      <trkpt lon="7.577036" lat="50.998012">
        <ele>1406.84</ele>
        <time>2026-07-27T19:20:43.408Z</time>
      </trkpt>
      <trkpt lon="7.578297" lat="50.998272">
        <ele>1393.23</ele>
        <time>2026-07-27T19:20:45.304Z</time>
      </trkpt>
      <trkpt lon="7.579604" lat="50.998631">
        <ele>1373.73</ele>
        <time>2026-07-27T19:20:47.208Z</time>
      </trkpt>
      <trkpt lon="7.580489" lat="50.998943">
        <ele>1356.63</ele>
        <time>2026-07-27T19:20:48.480Z</time>
      </trkpt>
      <trkpt lon="7.581801" lat="50.999531">
        <ele>1327.3</ele>
        <time>2026-07-27T19:20:50.376Z</time>
      </trkpt>
      <trkpt lon="7.582644" lat="51.000014">
        <ele>1308.8</ele>
        <time>2026-07-27T19:20:51.640Z</time>
      </trkpt>
      <trkpt lon="7.584186" lat="51.001161">
        <ele>1284.42</ele>
        <time>2026-07-27T19:20:54.168Z</time>
      </trkpt>
      <trkpt lon="7.586937" lat="51.003646">
        <ele>1299.7</ele>
        <time>2026-07-27T19:20:59.240Z</time>
      </trkpt>
      <trkpt lon="7.587527" lat="51.004169">
        <ele>1327.77</ele>
        <time>2026-07-27T19:21:00.504Z</time>
      </trkpt>
      <trkpt lon="7.588597" lat="51.005080">
        <ele>1379.97</ele>
        <time>2026-07-27T19:21:03.040Z</time>
      </trkpt>
      <trkpt lon="7.589570" lat="51.005895">
        <ele>1415.7</ele>
        <time>2026-07-27T19:21:05.576Z</time>
      </trkpt>
      <trkpt lon="7.591082" lat="51.007135">
        <ele>1459.11</ele>
        <time>2026-07-27T19:21:09.992Z</time>
      </trkpt>
      <trkpt lon="7.592238" lat="51.008045">
        <ele>1490.36</ele>
        <time>2026-07-27T19:21:13.800Z</time>
      </trkpt>
      <trkpt lon="7.593258" lat="51.008768">
        <ele>1520.79</ele>
        <time>2026-07-27T19:21:17.592Z</time>
      </trkpt>
      <trkpt lon="7.594475" lat="51.009588">
        <ele>1536.73</ele>
        <time>2026-07-27T19:21:22.664Z</time>
      </trkpt>
      <trkpt lon="7.597169" lat="51.011586">
        <ele>1551.4</ele>
        <time>2026-07-27T19:21:34.032Z</time>
      </trkpt>
      <trkpt lon="7.601712" lat="51.015060">
        <ele>1594.6</ele>
        <time>2026-07-27T19:21:49.856Z</time>
      </trkpt>
      <trkpt lon="7.604250" lat="51.017072">
        <ele>1604.73</ele>
        <time>2026-07-27T19:21:57.464Z</time>
      </trkpt>
      <trkpt lon="7.605416" lat="51.018036">
        <ele>1596.95</ele>
        <time>2026-07-27T19:22:00.624Z</time>
      </trkpt>
      <trkpt lon="7.606976" lat="51.019370">
        <ele>1574.45</ele>
        <time>2026-07-27T19:22:04.432Z</time>
      </trkpt>
      <trkpt lon="7.607826" lat="51.020123">
        <ele>1546.05</ele>
        <time>2026-07-27T19:22:06.328Z</time>
      </trkpt>
      <trkpt lon="7.608746" lat="51.020960">
        <ele>1515</ele>
        <time>2026-07-27T19:22:08.224Z</time>
      </trkpt>
      <trkpt lon="7.610072" lat="51.022193">
        <ele>1482.55</ele>
        <time>2026-07-27T19:22:10.760Z</time>
      </trkpt>
      <trkpt lon="7.612044" lat="51.024082">
        <ele>1501.69</ele>
        <time>2026-07-27T19:22:14.560Z</time>
      </trkpt>
      <trkpt lon="7.612649" lat="51.024647">
        <ele>1522.03</ele>
        <time>2026-07-27T19:22:15.832Z</time>
      </trkpt>
      <trkpt lon="7.613486" lat="51.025397">
        <ele>1557.87</ele>
        <time>2026-07-27T19:22:17.728Z</time>
      </trkpt>
      <trkpt lon="7.614266" lat="51.026076">
        <ele>1586.94</ele>
        <time>2026-07-27T19:22:19.624Z</time>
      </trkpt>
      <trkpt lon="7.618278" lat="51.029374">
        <ele>1551.57</ele>
        <time>2026-07-27T19:22:29.728Z</time>
      </trkpt>
      <trkpt lon="7.618570" lat="51.029640">
        <ele>1533.97</ele>
        <time>2026-07-27T19:22:30.360Z</time>
      </trkpt>
      <trkpt lon="7.619823" lat="51.030839">
        <ele>1489.23</ele>
        <time>2026-07-27T19:22:32.888Z</time>
      </trkpt>
      <trkpt lon="7.620137" lat="51.031139">
        <ele>1480.13</ele>
        <time>2026-07-27T19:22:33.528Z</time>
      </trkpt>
      <trkpt lon="7.620771" lat="51.031715">
        <ele>1473.35</ele>
        <time>2026-07-27T19:22:34.800Z</time>
      </trkpt>
      <trkpt lon="7.621053" lat="51.031990">
        <ele>1472.56</ele>
        <time>2026-07-27T19:22:35.432Z</time>
      </trkpt>
      <trkpt lon="7.621300" lat="51.032263">
        <ele>1471.99</ele>
        <time>2026-07-27T19:22:36.064Z</time>
      </trkpt>
      <trkpt lon="7.622049" lat="51.033305">
        <ele>1464.86</ele>
        <time>2026-07-27T19:22:38.592Z</time>
      </trkpt>
      <trkpt lon="7.623359" lat="51.035161">
        <ele>1405.83</ele>
        <time>2026-07-27T19:22:43.608Z</time>
      </trkpt>
      <trkpt lon="7.624301" lat="51.036216">
        <ele>1336.87</ele>
        <time>2026-07-27T19:22:46.552Z</time>
      </trkpt>
      <trkpt lon="7.625221" lat="51.037131">
        <ele>1271.29</ele>
        <time>2026-07-27T19:22:48.984Z</time>
      </trkpt>
      <trkpt lon="7.626183" lat="51.038027">
        <ele>1201.77</ele>
        <time>2026-07-27T19:22:51.304Z</time>
      </trkpt>
      <trkpt lon="7.627021" lat="51.038814">
        <ele>1146.42</ele>
        <time>2026-07-27T19:22:53.200Z</time>
      </trkpt>
      <trkpt lon="7.628504" lat="51.040086">
        <ele>1094.08</ele>
        <time>2026-07-27T19:22:56.184Z</time>
      </trkpt>
      <trkpt lon="7.629864" lat="51.041043">
        <ele>1083.73</ele>
        <time>2026-07-27T19:22:58.720Z</time>
      </trkpt>
      <trkpt lon="7.630802" lat="51.041670">
        <ele>1081.85</ele>
        <time>2026-07-27T19:23:00.616Z</time>
      </trkpt>
      <trkpt lon="7.631101" lat="51.041866">
        <ele>1081.82</ele>
        <time>2026-07-27T19:23:01.248Z</time>
      </trkpt>
      <trkpt lon="7.632622" lat="51.042794">
        <ele>1052.24</ele>
        <time>2026-07-27T19:23:04.424Z</time>
      </trkpt>
      <trkpt lon="7.634026" lat="51.043465">
        <ele>1031.11</ele>
        <time>2026-07-27T19:23:06.952Z</time>
      </trkpt>
      <trkpt lon="7.638562" lat="51.045243">
        <ele>1013.31</ele>
        <time>2026-07-27T19:23:15.184Z</time>
      </trkpt>
      <trkpt lon="7.644409" lat="51.047496">
        <ele>993.582</ele>
        <time>2026-07-27T19:23:26.584Z</time>
      </trkpt>
      <trkpt lon="7.646583" lat="51.048304">
        <ele>1000.36</ele>
        <time>2026-07-27T19:23:31.648Z</time>
      </trkpt>
      <trkpt lon="7.648466" lat="51.048915">
        <ele>999.678</ele>
        <time>2026-07-27T19:23:36.720Z</time>
      </trkpt>
      <trkpt lon="7.653728" lat="51.050223">
        <ele>956.819</ele>
        <time>2026-07-27T19:23:51.248Z</time>
      </trkpt>
      <trkpt lon="7.654960" lat="51.050599">
        <ele>946.099</ele>
        <time>2026-07-27T19:23:54.424Z</time>
      </trkpt>
      <trkpt lon="7.655652" lat="51.050878">
        <ele>939.164</ele>
        <time>2026-07-27T19:23:56.320Z</time>
      </trkpt>
      <trkpt lon="7.656512" lat="51.051304">
        <ele>930.896</ele>
        <time>2026-07-27T19:23:58.848Z</time>
      </trkpt>
      <trkpt lon="7.657825" lat="51.052057">
        <ele>919.845</ele>
        <time>2026-07-27T19:24:02.648Z</time>
      </trkpt>
      <trkpt lon="7.659052" lat="51.052864">
        <ele>911.387</ele>
        <time>2026-07-27T19:24:05.824Z</time>
      </trkpt>
      <trkpt lon="7.660664" lat="51.054026">
        <ele>904.338</ele>
        <time>2026-07-27T19:24:09.616Z</time>
      </trkpt>
      <trkpt lon="7.662731" lat="51.055580">
        <ele>895.445</ele>
        <time>2026-07-27T19:24:14.056Z</time>
      </trkpt>
      <trkpt lon="7.671157" lat="51.062194">
        <ele>934.257</ele>
        <time>2026-07-27T19:24:31.160Z</time>
      </trkpt>
      <trkpt lon="7.675980" lat="51.065958">
        <ele>975.247</ele>
        <time>2026-07-27T19:24:41.288Z</time>
      </trkpt>
      <trkpt lon="7.681685" lat="51.070412">
        <ele>1018.46</ele>
        <time>2026-07-27T19:24:53.328Z</time>
      </trkpt>
      <trkpt lon="7.686511" lat="51.074854">
        <ele>1050.88</ele>
        <time>2026-07-27T19:25:04.712Z</time>
      </trkpt>
      <trkpt lon="7.691295" lat="51.079562">
        <ele>1094.1</ele>
        <time>2026-07-27T19:25:16.760Z</time>
      </trkpt>
      <trkpt lon="7.696419" lat="51.084785">
        <ele>1141.37</ele>
        <time>2026-07-27T19:25:30.064Z</time>
      </trkpt>
      <trkpt lon="7.701407" lat="51.090043">
        <ele>1188.82</ele>
        <time>2026-07-27T19:25:43.368Z</time>
      </trkpt>
      <trkpt lon="7.707174" lat="51.096040">
        <ele>1239.21</ele>
        <time>2026-07-27T19:25:58.560Z</time>
      </trkpt>
      <trkpt lon="7.712940" lat="51.101959">
        <ele>1290.49</ele>
        <time>2026-07-27T19:26:13.768Z</time>
      </trkpt>
      <trkpt lon="7.721045" lat="51.110608">
        <ele>1348.81</ele>
        <time>2026-07-27T19:26:35.296Z</time>
      </trkpt>
      <trkpt lon="7.729683" lat="51.119669">
        <ele>1358.4</ele>
        <time>2026-07-27T19:26:55.536Z</time>
      </trkpt>
      <trkpt lon="7.743456" lat="51.134168">
        <ele>1368.05</ele>
        <time>2026-07-27T19:27:25.936Z</time>
      </trkpt>
      <trkpt lon="7.757178" lat="51.149208">
        <ele>1368.8</ele>
        <time>2026-07-27T19:27:56.336Z</time>
      </trkpt>
      <trkpt lon="7.771300" lat="51.164437">
        <ele>1366.65</ele>
        <time>2026-07-27T19:28:26.712Z</time>
      </trkpt>
      <trkpt lon="7.785004" lat="51.179459">
        <ele>1367.55</ele>
        <time>2026-07-27T19:28:57.120Z</time>
      </trkpt>
      <trkpt lon="7.798673" lat="51.194583">
        <ele>1367.87</ele>
        <time>2026-07-27T19:29:27.520Z</time>
      </trkpt>
      <trkpt lon="7.812229" lat="51.209656">
        <ele>1371.45</ele>
        <time>2026-07-27T19:29:57.920Z</time>
      </trkpt>
      <trkpt lon="7.826015" lat="51.224818">
        <ele>1372.27</ele>
        <time>2026-07-27T19:30:28.280Z</time>
      </trkpt>
      <trkpt lon="7.839564" lat="51.240085">
        <ele>1371.93</ele>
        <time>2026-07-27T19:30:58.680Z</time>
      </trkpt>
      <trkpt lon="7.853217" lat="51.255469">
        <ele>1373.31</ele>
        <time>2026-07-27T19:31:29.048Z</time>
      </trkpt>
      <trkpt lon="7.867046" lat="51.270501">
        <ele>1371.2</ele>
        <time>2026-07-27T19:31:59.448Z</time>
      </trkpt>
      <trkpt lon="7.880622" lat="51.285580">
        <ele>1367.32</ele>
        <time>2026-07-27T19:32:29.848Z</time>
      </trkpt>
      <trkpt lon="7.894093" lat="51.300443">
        <ele>1369.02</ele>
        <time>2026-07-27T19:33:00.248Z</time>
      </trkpt>
      <trkpt lon="7.907542" lat="51.315420">
        <ele>1372.21</ele>
        <time>2026-07-27T19:33:30.600Z</time>
      </trkpt>
      <trkpt lon="7.921161" lat="51.330809">
        <ele>1371.66</ele>
        <time>2026-07-27T19:34:01.008Z</time>
      </trkpt>
      <trkpt lon="7.934744" lat="51.346257">
        <ele>1363.06</ele>
        <time>2026-07-27T19:34:31.416Z</time>
      </trkpt>
      <trkpt lon="7.948252" lat="51.361165">
        <ele>1365.03</ele>
        <time>2026-07-27T19:35:01.784Z</time>
      </trkpt>
      <trkpt lon="7.961649" lat="51.376077">
        <ele>1367.12</ele>
        <time>2026-07-27T19:35:32.176Z</time>
      </trkpt>
      <trkpt lon="7.975090" lat="51.390959">
        <ele>1364.52</ele>
        <time>2026-07-27T19:36:02.544Z</time>
      </trkpt>
      <trkpt lon="7.988498" lat="51.405877">
        <ele>1365.77</ele>
        <time>2026-07-27T19:36:32.952Z</time>
      </trkpt>
      <trkpt lon="8.001943" lat="51.420937">
        <ele>1369.01</ele>
        <time>2026-07-27T19:37:03.320Z</time>
      </trkpt>
      <trkpt lon="8.015822" lat="51.436173">
        <ele>1369.11</ele>
        <time>2026-07-27T19:37:33.784Z</time>
      </trkpt>
      <trkpt lon="8.029665" lat="51.451453">
        <ele>1367.1</ele>
        <time>2026-07-27T19:38:04.144Z</time>
      </trkpt>
      <trkpt lon="8.043260" lat="51.466568">
        <ele>1368.8</ele>
        <time>2026-07-27T19:38:34.408Z</time>
      </trkpt>
      <trkpt lon="8.056923" lat="51.481551">
        <ele>1367.78</ele>
        <time>2026-07-27T19:39:04.568Z</time>
      </trkpt>
      <trkpt lon="8.070531" lat="51.496493">
        <ele>1370.61</ele>
        <time>2026-07-27T19:39:34.824Z</time>
      </trkpt>
      <trkpt lon="8.083960" lat="51.511225">
        <ele>1368.51</ele>
        <time>2026-07-27T19:40:05.376Z</time>
      </trkpt>
      <trkpt lon="8.097179" lat="51.525749">
        <ele>1367</ele>
        <time>2026-07-27T19:40:35.744Z</time>
      </trkpt>
      <trkpt lon="8.107947" lat="51.537749">
        <ele>1364.69</ele>
        <time>2026-07-27T19:41:00.816Z</time>
      </trkpt>
      <trkpt lon="8.108694" lat="51.538918">
        <ele>1364.56</ele>
        <time>2026-07-27T19:41:03.144Z</time>
      </trkpt>
      <trkpt lon="8.109369" lat="51.540392">
        <ele>1364.62</ele>
        <time>2026-07-27T19:41:06.024Z</time>
      </trkpt>
      <trkpt lon="8.115902" lat="51.556197">
        <ele>1367.43</ele>
        <time>2026-07-27T19:41:36.592Z</time>
      </trkpt>
      <trkpt lon="8.122995" lat="51.572130">
        <ele>1366.72</ele>
        <time>2026-07-27T19:42:06.928Z</time>
      </trkpt>
      <trkpt lon="8.130168" lat="51.587947">
        <ele>1364.38</ele>
        <time>2026-07-27T19:42:37.248Z</time>
      </trkpt>
      <trkpt lon="8.137470" lat="51.603800">
        <ele>1365.77</ele>
        <time>2026-07-27T19:43:07.632Z</time>
      </trkpt>
      <trkpt lon="8.144796" lat="51.619753">
        <ele>1364.63</ele>
        <time>2026-07-27T19:43:37.984Z</time>
      </trkpt>
      <trkpt lon="8.151957" lat="51.635473">
        <ele>1364.34</ele>
        <time>2026-07-27T19:44:08.296Z</time>
      </trkpt>
      <trkpt lon="8.159146" lat="51.651157">
        <ele>1366.77</ele>
        <time>2026-07-27T19:44:38.696Z</time>
      </trkpt>
      <trkpt lon="8.166425" lat="51.666633">
        <ele>1366.05</ele>
        <time>2026-07-27T19:45:08.872Z</time>
      </trkpt>
      <trkpt lon="8.173791" lat="51.682312">
        <ele>1364.26</ele>
        <time>2026-07-27T19:45:38.984Z</time>
      </trkpt>
      <trkpt lon="8.181125" lat="51.697774">
        <ele>1364.68</ele>
        <time>2026-07-27T19:46:09.088Z</time>
      </trkpt>
      <trkpt lon="8.188517" lat="51.713437">
        <ele>1366.09</ele>
        <time>2026-07-27T19:46:39.664Z</time>
      </trkpt>
      <trkpt lon="8.195915" lat="51.729004">
        <ele>1366.68</ele>
        <time>2026-07-27T19:47:09.696Z</time>
      </trkpt>
      <trkpt lon="8.203419" lat="51.744783">
        <ele>1366.73</ele>
        <time>2026-07-27T19:47:40.224Z</time>
      </trkpt>
      <trkpt lon="8.210843" lat="51.760511">
        <ele>1366.13</ele>
        <time>2026-07-27T19:48:10.720Z</time>
      </trkpt>
      <trkpt lon="8.218311" lat="51.776037">
        <ele>1365.05</ele>
        <time>2026-07-27T19:48:40.728Z</time>
      </trkpt>
      <trkpt lon="8.225900" lat="51.791664">
        <ele>1362.11</ele>
        <time>2026-07-27T19:49:10.904Z</time>
      </trkpt>
      <trkpt lon="8.233462" lat="51.807461">
        <ele>1363.78</ele>
        <time>2026-07-27T19:49:41.320Z</time>
      </trkpt>
      <trkpt lon="8.241098" lat="51.823217">
        <ele>1363.33</ele>
        <time>2026-07-27T19:50:11.456Z</time>
      </trkpt>
      <trkpt lon="8.248781" lat="51.838875">
        <ele>1361.89</ele>
        <time>2026-07-27T19:50:41.528Z</time>
      </trkpt>
      <trkpt lon="8.255391" lat="51.852440">
        <ele>1341.92</ele>
        <time>2026-07-27T19:51:07.992Z</time>
      </trkpt>
      <trkpt lon="8.256599" lat="51.855134">
        <ele>1268.07</ele>
        <time>2026-07-27T19:51:13.712Z</time>
      </trkpt>
      <trkpt lon="8.257302" lat="51.856820">
        <ele>1200.89</ele>
        <time>2026-07-27T19:51:17.160Z</time>
      </trkpt>
      <trkpt lon="8.258099" lat="51.858630">
        <ele>1127.96</ele>
        <time>2026-07-27T19:51:20.688Z</time>
      </trkpt>
      <trkpt lon="8.259327" lat="51.861051">
        <ele>1066.61</ele>
        <time>2026-07-27T19:51:25.120Z</time>
      </trkpt>
      <trkpt lon="8.260965" lat="51.863644">
        <ele>1042.16</ele>
        <time>2026-07-27T19:51:30.184Z</time>
      </trkpt>
      <trkpt lon="8.263405" lat="51.866842">
        <ele>978.827</ele>
        <time>2026-07-27T19:51:37.152Z</time>
      </trkpt>
      <trkpt lon="8.264881" lat="51.868569">
        <ele>916.34</ele>
        <time>2026-07-27T19:51:40.952Z</time>
      </trkpt>
      <trkpt lon="8.266222" lat="51.870065">
        <ele>858.9</ele>
        <time>2026-07-27T19:51:44.120Z</time>
      </trkpt>
      <trkpt lon="8.267945" lat="51.871916">
        <ele>803.166</ele>
        <time>2026-07-27T19:51:47.920Z</time>
      </trkpt>
      <trkpt lon="8.270596" lat="51.874612">
        <ele>755.919</ele>
        <time>2026-07-27T19:51:53.616Z</time>
      </trkpt>
      <trkpt lon="8.272929" lat="51.876880">
        <ele>710.216</ele>
        <time>2026-07-27T19:51:58.688Z</time>
      </trkpt>
      <trkpt lon="8.275023" lat="51.878928">
        <ele>663.556</ele>
        <time>2026-07-27T19:52:03.120Z</time>
      </trkpt>
      <trkpt lon="8.278293" lat="51.882228">
        <ele>621.7</ele>
        <time>2026-07-27T19:52:10.088Z</time>
      </trkpt>
      <trkpt lon="8.281858" lat="51.885987">
        <ele>582.67</ele>
        <time>2026-07-27T19:52:18.320Z</time>
      </trkpt>
      <trkpt lon="8.283659" lat="51.888028">
        <ele>544.169</ele>
        <time>2026-07-27T19:52:22.752Z</time>
      </trkpt>
      <trkpt lon="8.285460" lat="51.890189">
        <ele>505.24</ele>
        <time>2026-07-27T19:52:27.184Z</time>
      </trkpt>
      <trkpt lon="8.290087" lat="51.895015">
        <ele>492</ele>
        <time>2026-07-27T19:52:37.352Z</time>
      </trkpt>
      <trkpt lon="8.294615" lat="51.899124">
        <ele>456.175</ele>
        <time>2026-07-27T19:52:46.864Z</time>
      </trkpt>
      <trkpt lon="8.297857" lat="51.901959">
        <ele>423.009</ele>
        <time>2026-07-27T19:52:53.200Z</time>
      </trkpt>
      <trkpt lon="8.305192" lat="51.908589">
        <ele>390.159</ele>
        <time>2026-07-27T19:53:08.352Z</time>
      </trkpt>
      <trkpt lon="8.306509" lat="51.909524">
        <ele>379.55</ele>
        <time>2026-07-27T19:53:10.664Z</time>
      </trkpt>
      <trkpt lon="8.307898" lat="51.910343">
        <ele>391.342</ele>
        <time>2026-07-27T19:53:13.016Z</time>
      </trkpt>
      <trkpt lon="8.309224" lat="51.911016">
        <ele>408.641</ele>
        <time>2026-07-27T19:53:15.344Z</time>
      </trkpt>
      <trkpt lon="8.311064" lat="51.911842">
        <ele>429.464</ele>
        <time>2026-07-27T19:53:18.840Z</time>
      </trkpt>
      <trkpt lon="8.313527" lat="51.912880">
        <ele>448.044</ele>
        <time>2026-07-27T19:53:24.048Z</time>
      </trkpt>
      <trkpt lon="8.316509" lat="51.914251">
        <ele>466.064</ele>
        <time>2026-07-27T19:53:31.552Z</time>
      </trkpt>
      <trkpt lon="8.317460" lat="51.914698">
        <ele>477.748</ele>
        <time>2026-07-27T19:53:34.456Z</time>
      </trkpt>
      <trkpt lon="8.318072" lat="51.915002">
        <ele>486.297</ele>
        <time>2026-07-27T19:53:36.752Z</time>
      </trkpt>
      <trkpt lon="8.320309" lat="51.916220">
        <ele>470.384</ele>
        <time>2026-07-27T19:53:45.944Z</time>
      </trkpt>
      <trkpt lon="8.322737" lat="51.917993">
        <ele>445.386</ele>
        <time>2026-07-27T19:53:54.560Z</time>
      </trkpt>
      <trkpt lon="8.322988" lat="51.918256">
        <ele>440.651</ele>
        <time>2026-07-27T19:53:55.728Z</time>
      </trkpt>
      <trkpt lon="8.323292" lat="51.918667">
        <ele>430.937</ele>
        <time>2026-07-27T19:53:57.480Z</time>
      </trkpt>
      <trkpt lon="8.323514" lat="51.919098">
        <ele>419.064</ele>
        <time>2026-07-27T19:53:59.240Z</time>
      </trkpt>
      <trkpt lon="8.323654" lat="51.919546">
        <ele>405.217</ele>
        <time>2026-07-27T19:54:01.000Z</time>
      </trkpt>
      <trkpt lon="8.323853" lat="51.920276">
        <ele>383.215</ele>
        <time>2026-07-27T19:54:03.880Z</time>
      </trkpt>
      <trkpt lon="8.323875" lat="51.920557">
        <ele>371.761</ele>
        <time>2026-07-27T19:54:05.032Z</time>
      </trkpt>
      <trkpt lon="8.323840" lat="51.920830">
        <ele>356.609</ele>
        <time>2026-07-27T19:54:06.176Z</time>
      </trkpt>
      <trkpt lon="8.323734" lat="51.921106">
        <ele>339.036</ele>
        <time>2026-07-27T19:54:07.328Z</time>
      </trkpt>
      <trkpt lon="8.323574" lat="51.921382">
        <ele>317.852</ele>
        <time>2026-07-27T19:54:08.488Z</time>
      </trkpt>
      <trkpt lon="8.323363" lat="51.921657">
        <ele>293.475</ele>
        <time>2026-07-27T19:54:09.640Z</time>
      </trkpt>
      <trkpt lon="8.323098" lat="51.921933">
        <ele>266.808</ele>
        <time>2026-07-27T19:54:10.792Z</time>
      </trkpt>
      <trkpt lon="8.322774" lat="51.922206">
        <ele>238.69</ele>
        <time>2026-07-27T19:54:11.944Z</time>
      </trkpt>
      <trkpt lon="8.322587" lat="51.922337">
        <ele>224.074</ele>
        <time>2026-07-27T19:54:12.520Z</time>
      </trkpt>
      <trkpt lon="8.322375" lat="51.922462">
        <ele>209.115</ele>
        <time>2026-07-27T19:54:13.104Z</time>
      </trkpt>
      <trkpt lon="8.322135" lat="51.922575">
        <ele>193.681</ele>
        <time>2026-07-27T19:54:13.688Z</time>
      </trkpt>
      <trkpt lon="8.321852" lat="51.922675">
        <ele>176.856</ele>
        <time>2026-07-27T19:54:14.296Z</time>
      </trkpt>
      <trkpt lon="8.321544" lat="51.922754">
        <ele>159.796</ele>
        <time>2026-07-27T19:54:14.896Z</time>
      </trkpt>
      <trkpt lon="8.321212" lat="51.922807">
        <ele>142.754</ele>
        <time>2026-07-27T19:54:15.480Z</time>
      </trkpt>
      <trkpt lon="8.320840" lat="51.922829">
        <ele>127.381</ele>
        <time>2026-07-27T19:54:16.080Z</time>
      </trkpt>
      <trkpt lon="8.320006" lat="51.922789">
        <ele>107.455</ele>
        <time>2026-07-27T19:54:17.304Z</time>
      </trkpt>
      <trkpt lon="8.318068" lat="51.922691">
        <ele>91.4038</ele>
        <time>2026-07-27T19:54:20.240Z</time>
      </trkpt>
      <trkpt lon="8.316056" lat="51.922679">
        <ele>82.9729</ele>
        <time>2026-07-27T19:54:23.736Z</time>
      </trkpt>
      <trkpt lon="8.312322" lat="51.922672">
        <ele>81.5341</ele>
        <time>2026-07-27T19:54:31.328Z</time>
      </trkpt>
      <trkpt lon="8.308491" lat="51.922683">
        <ele>81.2658</ele>
        <time>2026-07-27T19:54:40.672Z</time>
      </trkpt>
      <trkpt lon="8.300377" lat="51.922745">
        <ele>69.2285</ele>
        <time>2026-07-27T19:55:03.432Z</time>
      </trkpt>
      <trkpt lon="8.298759" lat="51.922740">
        <ele>69.0083</ele>
        <time>2026-07-27T19:55:09.248Z</time>
      </trkpt>
      <trkpt lon="8.298185" lat="51.922757">
        <ele>69.0453</ele>
        <time>2026-07-27T19:55:12.176Z</time>
      </trkpt>
      <trkpt lon="8.298102" lat="51.922777">
        <ele>69.054</ele>
        <time>2026-07-27T19:55:12.768Z</time>
      </trkpt>
      <trkpt lon="8.298031" lat="51.922807">
        <ele>69.0643</ele>
        <time>2026-07-27T19:55:13.352Z</time>
      </trkpt>
      <trkpt lon="8.297907" lat="51.922879">
        <ele>69.0729</ele>
        <time>2026-07-27T19:55:14.528Z</time>
      </trkpt>
      <trkpt lon="8.297798" lat="51.922960">
        <ele>69.0747</ele>
        <time>2026-07-27T19:55:15.720Z</time>
      </trkpt>
      <trkpt lon="8.297754" lat="51.923004">
        <ele>69.0639</ele>
        <time>2026-07-27T19:55:16.304Z</time>
      </trkpt>
      <trkpt lon="8.297721" lat="51.923050">
        <ele>69.0491</ele>
        <time>2026-07-27T19:55:16.896Z</time>
      </trkpt>
      <trkpt lon="8.297701" lat="51.923099">
        <ele>69.0029</ele>
        <time>2026-07-27T19:55:17.496Z</time>
      </trkpt>
      <trkpt lon="8.297694" lat="51.923149">
        <ele>68.9495</ele>
        <time>2026-07-27T19:55:18.088Z</time>
      </trkpt>
      <trkpt lon="8.297713" lat="51.923590">
        <ele>68.883</ele>
        <time>2026-07-27T19:55:23.912Z</time>
      </trkpt>
      <trkpt lon="8.297726" lat="51.923665">
        <ele>68.8792</ele>
        <time>2026-07-27T19:55:25.088Z</time>
      </trkpt>
      <trkpt lon="8.297725" lat="51.923701">
        <ele>68.8768</ele>
        <time>2026-07-27T19:55:25.656Z</time>
      </trkpt>
      <trkpt lon="8.297715" lat="51.923738">
        <ele>68.8712</ele>
        <time>2026-07-27T19:55:26.264Z</time>
      </trkpt>
      <trkpt lon="8.297699" lat="51.923773">
        <ele>68.867</ele>
        <time>2026-07-27T19:55:26.840Z</time>
      </trkpt>
      <trkpt lon="8.297678" lat="51.923807">
        <ele>68.8448</ele>
        <time>2026-07-27T19:55:27.440Z</time>
      </trkpt>
      <trkpt lon="8.297649" lat="51.923840">
        <ele>68.8313</ele>
        <time>2026-07-27T19:55:28.032Z</time>
      </trkpt>
      <trkpt lon="8.297612" lat="51.923867">
        <ele>68.8372</ele>
        <time>2026-07-27T19:55:28.624Z</time>
      </trkpt>
      <trkpt lon="8.296745" lat="51.924333">
        <ele>68.9221</ele>
        <time>2026-07-27T19:55:39.136Z</time>
      </trkpt>
      <trkpt lon="8.295585" lat="51.924947">
        <ele>68.9607</ele>
        <time>2026-07-27T19:55:49.600Z</time>
      </trkpt>
      <trkpt lon="8.294296" lat="51.925637">
        <ele>69.0079</ele>
        <time>2026-07-27T19:56:00.104Z</time>
      </trkpt>
      <trkpt lon="8.293836" lat="51.925876">
        <ele>69.0227</ele>
        <time>2026-07-27T19:56:04.752Z</time>
      </trkpt>
      <trkpt lon="8.293804" lat="51.925902">
        <ele>69.0258</ele>
        <time>2026-07-27T19:56:05.344Z</time>
      </trkpt>
      <trkpt lon="8.293784" lat="51.925932">
        <ele>69.0237</ele>
        <time>2026-07-27T19:56:05.936Z</time>
      </trkpt>
      <trkpt lon="8.293779" lat="51.925963">
        <ele>69.0224</ele>
        <time>2026-07-27T19:56:06.520Z</time>
      </trkpt>
      <trkpt lon="8.293789" lat="51.925994">
        <ele>69.0239</ele>
        <time>2026-07-27T19:56:07.136Z</time>
      </trkpt>
      <trkpt lon="8.293809" lat="51.926023">
        <ele>69.0242</ele>
        <time>2026-07-27T19:56:07.728Z</time>
      </trkpt>
      <trkpt lon="8.293838" lat="51.926049">
        <ele>69.0233</ele>
        <time>2026-07-27T19:56:08.312Z</time>
      </trkpt>
      <trkpt lon="8.293950" lat="51.926120">
        <ele>69.021</ele>
        <time>2026-07-27T19:56:10.088Z</time>
      </trkpt>
      <trkpt lon="8.294038" lat="51.926168">
        <ele>69.0196</ele>
        <time>2026-07-27T19:56:11.272Z</time>
      </trkpt>
      <trkpt lon="8.294883" lat="51.926539">
        <ele>68.9897</ele>
        <time>2026-07-27T19:56:20.608Z</time>
      </trkpt>
      <trkpt lon="8.296041" lat="51.926982">
        <ele>68.9547</ele>
        <time>2026-07-27T19:56:31.080Z</time>
      </trkpt>
      <trkpt lon="8.297233" lat="51.927432">
        <ele>68.9203</ele>
        <time>2026-07-27T19:56:40.624Z</time>
      </trkpt>
      <trkpt lon="8.297310" lat="51.927453">
        <ele>68.9201</ele>
        <time>2026-07-27T19:56:41.224Z</time>
      </trkpt>
      <trkpt lon="8.297390" lat="51.927465">
        <ele>68.9128</ele>
        <time>2026-07-27T19:56:41.832Z</time>
      </trkpt>
      <trkpt lon="8.297472" lat="51.927466">
        <ele>68.9108</ele>
        <time>2026-07-27T19:56:42.424Z</time>
      </trkpt>
      <trkpt lon="8.297551" lat="51.927460">
        <ele>68.9073</ele>
        <time>2026-07-27T19:56:43.016Z</time>
      </trkpt>
      <trkpt lon="8.297703" lat="51.927437">
        <ele>68.9017</ele>
        <time>2026-07-27T19:56:44.176Z</time>
      </trkpt>
      <trkpt lon="8.297923" lat="51.927389">
        <ele>68.897</ele>
        <time>2026-07-27T19:56:45.952Z</time>
      </trkpt>
      <trkpt lon="8.297981" lat="51.927368">
        <ele>68.8947</ele>
        <time>2026-07-27T19:56:46.552Z</time>
      </trkpt>
      <trkpt lon="8.298209" lat="51.927257">
        <ele>68.8901</ele>
        <time>2026-07-27T19:56:49.504Z</time>
      </trkpt>
      <trkpt lon="8.298297" lat="51.927203">
        <ele>68.8782</ele>
        <time>2026-07-27T19:56:59.968Z</time>
      </trkpt>
    </trkseg>
    <trkseg>
      <trkpt lon="90.000323" lat="0.000000">
        <ele>67.3347</ele>
        <time>2026-07-31T17:43:33.540Z</time>
      </trkpt>
    </trkseg>
    <trkseg>
      <trkpt lon="-122.294505" lat="47.518932">
        <ele>37.3128</ele>
        <time>2026-07-31T17:43:50.336Z</time>
      </trkpt>
      <trkpt lon="-122.294505" lat="47.518932">
        <ele>8.08282</ele>
        <time>2024-06-15T00:00:24.454Z</time>
      </trkpt>
    </trkseg>
    <trkseg>
      <trkpt lon="7.909467" lat="53.787553">
        <ele>1.74508</ele>
        <time>2026-07-31T17:48:47.120Z</time>
      </trkpt>
    </trkseg>
    <trkseg>
      <trkpt lon="-122.294505" lat="47.518932">
        <ele>37.8553</ele>
        <time>2026-08-05T11:46:36.488Z</time>
      </trkpt>
      <trkpt lon="-122.294505" lat="47.518932">
        <ele>8.4943</ele>
        <time>2024-06-15T00:00:12.882Z</time>
      </trkpt>
    </trkseg>
    <trkseg>
      <trkpt lon="7.909480" lat="53.787556">
        <ele>2.10907</ele>
        <time>2026-08-05T11:48:16.388Z</time>
      </trkpt>
      <trkpt lon="7.909052" lat="53.787444">
        <ele>2.19642</ele>
        <time>2026-08-05T11:56:27.048Z</time>
      </trkpt>
      <trkpt lon="7.909169" lat="53.787454">
        <ele>2.18219</ele>
        <time>2026-08-05T11:57:15.284Z</time>
      </trkpt>
      <trkpt lon="7.909240" lat="53.787463">
        <ele>2.18752</ele>
        <time>2026-08-05T11:57:15.848Z</time>
      </trkpt>
      <trkpt lon="7.909267" lat="53.787467">
        <ele>2.14874</ele>
        <time>2026-08-05T11:57:16.404Z</time>
      </trkpt>
      <trkpt lon="7.909284" lat="53.787446">
        <ele>2.1799</ele>
        <time>2026-08-05T11:57:28.172Z</time>
      </trkpt>
      <trkpt lon="7.909311" lat="53.787409">
        <ele>2.19545</ele>
        <time>2026-08-05T11:57:38.304Z</time>
      </trkpt>
      <trkpt lon="7.909348" lat="53.787361">
        <ele>2.23524</ele>
        <time>2026-08-05T11:59:59.364Z</time>
      </trkpt>
      <trkpt lon="7.909454" lat="53.787222">
        <ele>2.34937</ele>
        <time>2026-08-05T12:00:01.032Z</time>
      </trkpt>
      <trkpt lon="7.909617" lat="53.787002">
        <ele>2.67402</ele>
        <time>2026-08-05T12:00:02.700Z</time>
      </trkpt>
      <trkpt lon="7.909751" lat="53.786818">
        <ele>3.14556</ele>
        <time>2026-08-05T12:00:03.824Z</time>
      </trkpt>
      <trkpt lon="7.910098" lat="53.786373">
        <ele>2.58275</ele>
        <time>2026-08-05T12:00:06.056Z</time>
      </trkpt>
      <trkpt lon="7.910420" lat="53.785968">
        <ele>3.76258</ele>
        <time>2026-08-05T12:00:07.728Z</time>
      </trkpt>
      <trkpt lon="7.911165" lat="53.785206">
        <ele>7.81352</ele>
        <time>2026-08-05T12:00:10.528Z</time>
      </trkpt>
      <trkpt lon="7.913038" lat="53.783756">
        <ele>16.3201</ele>
        <time>2026-08-05T12:00:15.564Z</time>
      </trkpt>
      <trkpt lon="7.913463" lat="53.783441">
        <ele>18.7561</ele>
        <time>2026-08-05T12:00:16.660Z</time>
      </trkpt>
      <trkpt lon="7.913676" lat="53.783286">
        <ele>19.9903</ele>
        <time>2026-08-05T12:00:17.216Z</time>
      </trkpt>
      <trkpt lon="7.913890" lat="53.783127">
        <ele>21.2578</ele>
        <time>2026-08-05T12:00:17.784Z</time>
      </trkpt>
      <trkpt lon="7.914281" lat="53.782804">
        <ele>24.7177</ele>
        <time>2026-08-05T12:00:18.896Z</time>
      </trkpt>
      <trkpt lon="7.914591" lat="53.782488">
        <ele>30.256</ele>
        <time>2026-08-05T12:00:20.000Z</time>
      </trkpt>
      <trkpt lon="7.914813" lat="53.782178">
        <ele>36.4427</ele>
        <time>2026-08-05T12:00:21.120Z</time>
      </trkpt>
      <trkpt lon="7.914959" lat="53.781872">
        <ele>40.969</ele>
        <time>2026-08-05T12:00:22.240Z</time>
      </trkpt>
      <trkpt lon="7.915037" lat="53.781571">
        <ele>42.9423</ele>
        <time>2026-08-05T12:00:23.356Z</time>
      </trkpt>
      <trkpt lon="7.915036" lat="53.781276">
        <ele>44.5549</ele>
        <time>2026-08-05T12:00:24.452Z</time>
      </trkpt>
      <trkpt lon="7.914957" lat="53.780983">
        <ele>45.9305</ele>
        <time>2026-08-05T12:00:25.564Z</time>
      </trkpt>
      <trkpt lon="7.914801" lat="53.780700">
        <ele>47.7929</ele>
        <time>2026-08-05T12:00:26.676Z</time>
      </trkpt>
      <trkpt lon="7.914570" lat="53.780432">
        <ele>49.9661</ele>
        <time>2026-08-05T12:00:27.800Z</time>
      </trkpt>
      <trkpt lon="7.914273" lat="53.780188">
        <ele>51.9922</ele>
        <time>2026-08-05T12:00:28.916Z</time>
      </trkpt>
      <trkpt lon="7.913915" lat="53.779974">
        <ele>54.059</ele>
        <time>2026-08-05T12:00:30.020Z</time>
      </trkpt>
      <trkpt lon="7.913497" lat="53.779793">
        <ele>56.3635</ele>
        <time>2026-08-05T12:00:31.128Z</time>
      </trkpt>
      <trkpt lon="7.913026" lat="53.779649">
        <ele>58.9316</ele>
        <time>2026-08-05T12:00:32.248Z</time>
      </trkpt>
      <trkpt lon="7.912513" lat="53.779548">
        <ele>61.8509</ele>
        <time>2026-08-05T12:00:33.360Z</time>
      </trkpt>
      <trkpt lon="7.911973" lat="53.779487">
        <ele>63.8921</ele>
        <time>2026-08-05T12:00:34.456Z</time>
      </trkpt>
      <trkpt lon="7.911099" lat="53.779464">
        <ele>64.34</ele>
        <time>2026-08-05T12:00:36.124Z</time>
      </trkpt>
      <trkpt lon="7.908818" lat="53.779634">
        <ele>60.3509</ele>
        <time>2026-08-05T12:00:40.020Z</time>
      </trkpt>
      <trkpt lon="7.905509" lat="53.779904">
        <ele>55.0164</ele>
        <time>2026-08-05T12:00:44.976Z</time>
      </trkpt>
      <trkpt lon="7.901758" lat="53.780255">
        <ele>42.522</ele>
        <time>2026-08-05T12:00:49.972Z</time>
      </trkpt>
      <trkpt lon="7.887773" lat="53.781422">
        <ele>62.2847</ele>
        <time>2026-08-05T12:01:06.620Z</time>
      </trkpt>
      <trkpt lon="7.886011" lat="53.781548">
        <ele>82.2984</ele>
        <time>2026-08-05T12:01:08.836Z</time>
      </trkpt>
      <trkpt lon="7.884802" lat="53.781644">
        <ele>104.742</ele>
        <time>2026-08-05T12:01:10.516Z</time>
      </trkpt>
      <trkpt lon="7.884112" lat="53.781710">
        <ele>123.603</ele>
        <time>2026-08-05T12:01:11.620Z</time>
      </trkpt>
      <trkpt lon="7.883181" lat="53.781810">
        <ele>145.931</ele>
        <time>2026-08-05T12:01:13.284Z</time>
      </trkpt>
      <trkpt lon="7.880723" lat="53.782088">
        <ele>163.23</ele>
        <time>2026-08-05T12:01:18.232Z</time>
      </trkpt>
      <trkpt lon="7.878867" lat="53.782272">
        <ele>172.709</ele>
        <time>2026-08-05T12:01:22.676Z</time>
      </trkpt>
      <trkpt lon="7.877303" lat="53.782368">
        <ele>175.203</ele>
        <time>2026-08-05T12:01:27.112Z</time>
      </trkpt>
      <trkpt lon="7.875455" lat="53.782353">
        <ele>168.894</ele>
        <time>2026-08-05T12:01:32.116Z</time>
      </trkpt>
      <trkpt lon="7.873163" lat="53.782202">
        <ele>165.703</ele>
        <time>2026-08-05T12:01:37.116Z</time>
      </trkpt>
      <trkpt lon="7.870229" lat="53.781874">
        <ele>163.599</ele>
        <time>2026-08-05T12:01:42.644Z</time>
      </trkpt>
      <trkpt lon="7.867860" lat="53.781552">
        <ele>152.928</ele>
        <time>2026-08-05T12:01:46.536Z</time>
      </trkpt>
      <trkpt lon="7.864363" lat="53.781097">
        <ele>135.481</ele>
        <time>2026-08-05T12:01:51.532Z</time>
      </trkpt>
      <trkpt lon="7.859272" lat="53.780593">
        <ele>114.333</ele>
        <time>2026-08-05T12:01:58.232Z</time>
      </trkpt>
      <trkpt lon="7.854383" lat="53.780265">
        <ele>93.9797</ele>
        <time>2026-08-05T12:02:04.324Z</time>
      </trkpt>
      <trkpt lon="7.840261" lat="53.779378">
        <ele>89.2917</ele>
        <time>2026-08-05T12:02:22.244Z</time>
      </trkpt>
      <trkpt lon="7.829707" lat="53.778861">
        <ele>91.7758</ele>
        <time>2026-08-05T12:02:36.696Z</time>
      </trkpt>
      <trkpt lon="7.827654" lat="53.778793">
        <ele>97.7472</ele>
        <time>2026-08-05T12:02:40.016Z</time>
      </trkpt>
      <trkpt lon="7.826157" lat="53.778757">
        <ele>100.764</ele>
        <time>2026-08-05T12:02:42.804Z</time>
      </trkpt>
      <trkpt lon="7.824909" lat="53.778750">
        <ele>100.83</ele>
        <time>2026-08-05T12:02:45.584Z</time>
      </trkpt>
      <trkpt lon="7.823870" lat="53.778777">
        <ele>102.876</ele>
        <time>2026-08-05T12:02:48.372Z</time>
      </trkpt>
      <trkpt lon="7.823091" lat="53.778822">
        <ele>106.625</ele>
        <time>2026-08-05T12:02:51.148Z</time>
      </trkpt>
      <trkpt lon="7.822174" lat="53.778867">
        <ele>97.5695</ele>
        <time>2026-08-05T12:02:55.588Z</time>
      </trkpt>
      <trkpt lon="7.821188" lat="53.778889">
        <ele>78.2275</ele>
        <time>2026-08-05T12:03:00.588Z</time>
      </trkpt>
      <trkpt lon="7.820219" lat="53.778955">
        <ele>59.2755</ele>
        <time>2026-08-05T12:03:06.756Z</time>
      </trkpt>
      <trkpt lon="7.819470" lat="53.779035">
        <ele>40.8821</ele>
        <time>2026-08-05T12:03:12.392Z</time>
      </trkpt>
      <trkpt lon="7.818462" lat="53.779099">
        <ele>24.3542</ele>
        <time>2026-08-05T12:03:19.140Z</time>
      </trkpt>
      <trkpt lon="7.817913" lat="53.779076">
        <ele>18.3792</ele>
        <time>2026-08-05T12:03:23.064Z</time>
      </trkpt>
      <trkpt lon="7.816930" lat="53.779097">
        <ele>5.54991</ele>
        <time>2026-08-05T12:03:29.284Z</time>
      </trkpt>
      <trkpt lon="7.816509" lat="53.779118">
        <ele>7.16404</ele>
        <time>2026-08-05T12:03:32.716Z</time>
      </trkpt>
      <trkpt lon="7.816364" lat="53.779132">
        <ele>3.33227</ele>
        <time>2026-08-05T12:03:34.972Z</time>
      </trkpt>
      <trkpt lon="7.816276" lat="53.779120">
        <ele>3.42851</ele>
        <time>2026-08-05T12:03:45.208Z</time>
      </trkpt>
      <trkpt lon="7.815946" lat="53.779104">
        <ele>4.39138</ele>
        <time>2026-08-05T12:03:48.596Z</time>
      </trkpt>
      <trkpt lon="7.815678" lat="53.779106">
        <ele>4.3759</ele>
        <time>2026-08-05T12:03:50.284Z</time>
      </trkpt>
      <trkpt lon="7.815135" lat="53.779137">
        <ele>6.34752</ele>
        <time>2026-08-05T12:03:53.116Z</time>
      </trkpt>
      <trkpt lon="7.813971" lat="53.779245">
        <ele>15.4421</ele>
        <time>2026-08-05T12:03:59.300Z</time>
      </trkpt>
      <trkpt lon="7.813427" lat="53.779343">
        <ele>11.2257</ele>
        <time>2026-08-05T12:04:03.204Z</time>
      </trkpt>
      <trkpt lon="7.812462" lat="53.779709">
        <ele>3.37426</ele>
        <time>2026-08-05T12:04:12.752Z</time>
      </trkpt>
      <trkpt lon="7.812093" lat="53.779751">
        <ele>2.2887</ele>
        <time>2026-08-05T12:04:17.808Z</time>
      </trkpt>
      <trkpt lon="7.812063" lat="53.779755">
        <ele>2.31654</ele>
        <time>2026-08-05T12:04:28.080Z</time>
      </trkpt>
      <trkpt lon="7.811942" lat="53.779765">
        <ele>2.67434</ele>
        <time>2026-08-05T12:04:47.232Z</time>
      </trkpt>
      <trkpt lon="7.811594" lat="53.779782">
        <ele>3.08271</ele>
        <time>2026-08-05T12:04:50.032Z</time>
      </trkpt>
      <trkpt lon="7.811284" lat="53.779825">
        <ele>3.18391</ele>
        <time>2026-08-05T12:04:51.740Z</time>
      </trkpt>
      <trkpt lon="7.808837" lat="53.780655">
        <ele>19.6424</ele>
        <time>2026-08-05T12:05:02.968Z</time>
      </trkpt>
      <trkpt lon="7.807742" lat="53.781067">
        <ele>21.5856</ele>
        <time>2026-08-05T12:05:06.880Z</time>
      </trkpt>
      <trkpt lon="7.805526" lat="53.781813">
        <ele>30.0152</ele>
        <time>2026-08-05T12:05:13.008Z</time>
      </trkpt>
      <trkpt lon="7.803604" lat="53.782414">
        <ele>34.0246</ele>
        <time>2026-08-05T12:05:17.444Z</time>
      </trkpt>
      <trkpt lon="7.802215" lat="53.782725">
        <ele>34.3455</ele>
        <time>2026-08-05T12:05:20.240Z</time>
      </trkpt>
      <trkpt lon="7.800994" lat="53.782871">
        <ele>34.5847</ele>
        <time>2026-08-05T12:05:22.468Z</time>
      </trkpt>
      <trkpt lon="7.799702" lat="53.782926">
        <ele>36.7754</ele>
        <time>2026-08-05T12:05:24.704Z</time>
      </trkpt>
      <trkpt lon="7.798407" lat="53.782899">
        <ele>44.136</ele>
        <time>2026-08-05T12:05:26.932Z</time>
      </trkpt>
      <trkpt lon="7.797170" lat="53.782789">
        <ele>57.296</ele>
        <time>2026-08-05T12:05:29.152Z</time>
      </trkpt>
      <trkpt lon="7.796316" lat="53.782633">
        <ele>68.8978</ele>
        <time>2026-08-05T12:05:30.820Z</time>
      </trkpt>
      <trkpt lon="7.795791" lat="53.782490">
        <ele>76.2117</ele>
        <time>2026-08-05T12:05:31.932Z</time>
      </trkpt>
      <trkpt lon="7.795059" lat="53.782215">
        <ele>86.3124</ele>
        <time>2026-08-05T12:05:33.620Z</time>
      </trkpt>
      <trkpt lon="7.794415" lat="53.781874">
        <ele>94.9203</ele>
        <time>2026-08-05T12:05:35.292Z</time>
      </trkpt>
      <trkpt lon="7.794041" lat="53.781615">
        <ele>100.012</ele>
        <time>2026-08-05T12:05:36.412Z</time>
      </trkpt>
      <trkpt lon="7.793712" lat="53.781332">
        <ele>104.914</ele>
        <time>2026-08-05T12:05:37.516Z</time>
      </trkpt>
      <trkpt lon="7.793309" lat="53.780870">
        <ele>111.902</ele>
        <time>2026-08-05T12:05:39.168Z</time>
      </trkpt>
      <trkpt lon="7.793007" lat="53.780362">
        <ele>118.706</ele>
        <time>2026-08-05T12:05:40.844Z</time>
      </trkpt>
      <trkpt lon="7.792812" lat="53.779822">
        <ele>125.197</ele>
        <time>2026-08-05T12:05:42.508Z</time>
      </trkpt>
      <trkpt lon="7.792722" lat="53.779268">
        <ele>131.393</ele>
        <time>2026-08-05T12:05:44.168Z</time>
      </trkpt>
      <trkpt lon="7.792731" lat="53.778697">
        <ele>137.426</ele>
        <time>2026-08-05T12:05:45.828Z</time>
      </trkpt>
      <trkpt lon="7.792834" lat="53.778120">
        <ele>143.406</ele>
        <time>2026-08-05T12:05:47.492Z</time>
      </trkpt>
      <trkpt lon="7.793042" lat="53.777542">
        <ele>149.375</ele>
        <time>2026-08-05T12:05:49.160Z</time>
      </trkpt>
      <trkpt lon="7.793363" lat="53.776968">
        <ele>154.918</ele>
        <time>2026-08-05T12:05:50.820Z</time>
      </trkpt>
      <trkpt lon="7.793789" lat="53.776404">
        <ele>159.618</ele>
        <time>2026-08-05T12:05:52.488Z</time>
      </trkpt>
      <trkpt lon="7.794312" lat="53.775845">
        <ele>164.191</ele>
        <time>2026-08-05T12:05:54.160Z</time>
      </trkpt>
      <trkpt lon="7.795154" lat="53.775117">
        <ele>168.421</ele>
        <time>2026-08-05T12:05:56.416Z</time>
      </trkpt>
      <trkpt lon="7.796154" lat="53.774407">
        <ele>168.952</ele>
        <time>2026-08-05T12:05:58.656Z</time>
      </trkpt>
      <trkpt lon="7.797315" lat="53.773715">
        <ele>164.592</ele>
        <time>2026-08-05T12:06:00.892Z</time>
      </trkpt>
      <trkpt lon="7.798665" lat="53.773051">
        <ele>159.881</ele>
        <time>2026-08-05T12:06:03.120Z</time>
      </trkpt>
      <trkpt lon="7.799814" lat="53.772585">
        <ele>157.637</ele>
        <time>2026-08-05T12:06:04.812Z</time>
      </trkpt>
      <trkpt lon="7.801060" lat="53.772166">
        <ele>156.064</ele>
        <time>2026-08-05T12:06:06.504Z</time>
      </trkpt>
      <trkpt lon="7.802378" lat="53.771810">
        <ele>155.301</ele>
        <time>2026-08-05T12:06:08.164Z</time>
      </trkpt>
      <trkpt lon="7.803782" lat="53.771520">
        <ele>154.847</ele>
        <time>2026-08-05T12:06:09.828Z</time>
      </trkpt>
      <trkpt lon="7.805255" lat="53.771304">
        <ele>154.225</ele>
        <time>2026-08-05T12:06:11.480Z</time>
      </trkpt>
      <trkpt lon="7.806798" lat="53.771167">
        <ele>153.593</ele>
        <time>2026-08-05T12:06:13.148Z</time>
      </trkpt>
      <trkpt lon="7.808380" lat="53.771114">
        <ele>153.704</ele>
        <time>2026-08-05T12:06:14.796Z</time>
      </trkpt>
      <trkpt lon="7.811140" lat="53.771170">
        <ele>153.01</ele>
        <time>2026-08-05T12:06:17.596Z</time>
      </trkpt>
      <trkpt lon="7.820428" lat="53.771723">
        <ele>142.988</ele>
        <time>2026-08-05T12:06:26.520Z</time>
      </trkpt>
      <trkpt lon="7.824619" lat="53.772104">
        <ele>142.706</ele>
        <time>2026-08-05T12:06:30.432Z</time>
      </trkpt>
      <trkpt lon="7.832252" lat="53.772915">
        <ele>166.738</ele>
        <time>2026-08-05T12:06:37.728Z</time>
      </trkpt>
      <trkpt lon="7.853085" lat="53.775778">
        <ele>144.717</ele>
        <time>2026-08-05T12:06:58.500Z</time>
      </trkpt>
      <trkpt lon="7.870121" lat="53.778122">
        <ele>123.691</ele>
        <time>2026-08-05T12:07:14.820Z</time>
      </trkpt>
      <trkpt lon="7.883026" lat="53.779771">
        <ele>105.861</ele>
        <time>2026-08-05T12:07:27.128Z</time>
      </trkpt>
      <trkpt lon="7.894936" lat="53.780556">
        <ele>103.422</ele>
        <time>2026-08-05T12:07:38.284Z</time>
      </trkpt>
      <trkpt lon="7.901934" lat="53.780530">
        <ele>117.703</ele>
        <time>2026-08-05T12:07:44.964Z</time>
      </trkpt>
      <trkpt lon="7.904809" lat="53.780342">
        <ele>120.91</ele>
        <time>2026-08-05T12:07:47.764Z</time>
      </trkpt>
      <trkpt lon="7.907100" lat="53.780069">
        <ele>120.316</ele>
        <time>2026-08-05T12:07:50.024Z</time>
      </trkpt>
      <trkpt lon="7.924749" lat="53.777565">
        <ele>139.719</ele>
        <time>2026-08-05T12:08:07.940Z</time>
      </trkpt>
      <trkpt lon="7.930865" lat="53.776737">
        <ele>137.094</ele>
        <time>2026-08-05T12:08:14.632Z</time>
      </trkpt>
      <trkpt lon="7.941462" lat="53.775007">
        <ele>115.068</ele>
        <time>2026-08-05T12:08:26.384Z</time>
      </trkpt>
      <trkpt lon="7.945663" lat="53.774366">
        <ele>95.1617</ele>
        <time>2026-08-05T12:08:30.848Z</time>
      </trkpt>
      <trkpt lon="7.948294" lat="53.773972">
        <ele>86.3907</ele>
        <time>2026-08-05T12:08:33.648Z</time>
      </trkpt>
      <trkpt lon="7.948810" lat="53.773911">
        <ele>85.8959</ele>
        <time>2026-08-05T12:08:34.204Z</time>
      </trkpt>
      <trkpt lon="7.949850" lat="53.773835">
        <ele>85.8374</ele>
        <time>2026-08-05T12:08:35.316Z</time>
      </trkpt>
      <trkpt lon="7.950884" lat="53.773821">
        <ele>85.8668</ele>
        <time>2026-08-05T12:08:36.432Z</time>
      </trkpt>
      <trkpt lon="7.952427" lat="53.773931">
        <ele>84.8935</ele>
        <time>2026-08-05T12:08:38.116Z</time>
      </trkpt>
      <trkpt lon="7.953412" lat="53.774083">
        <ele>83.0915</ele>
        <time>2026-08-05T12:08:39.232Z</time>
      </trkpt>
      <trkpt lon="7.954366" lat="53.774299">
        <ele>81.6196</ele>
        <time>2026-08-05T12:08:40.344Z</time>
      </trkpt>
      <trkpt lon="7.955281" lat="53.774579">
        <ele>80.4661</ele>
        <time>2026-08-05T12:08:41.472Z</time>
      </trkpt>
      <trkpt lon="7.956117" lat="53.774914">
        <ele>79.7929</ele>
        <time>2026-08-05T12:08:42.576Z</time>
      </trkpt>
      <trkpt lon="7.956878" lat="53.775305">
        <ele>79.4328</ele>
        <time>2026-08-05T12:08:43.684Z</time>
      </trkpt>
      <trkpt lon="7.957230" lat="53.775519">
        <ele>79.361</ele>
        <time>2026-08-05T12:08:44.244Z</time>
      </trkpt>
      <trkpt lon="7.957559" lat="53.775746">
        <ele>79.4058</ele>
        <time>2026-08-05T12:08:44.808Z</time>
      </trkpt>
      <trkpt lon="7.958145" lat="53.776240">
        <ele>79.2818</ele>
        <time>2026-08-05T12:08:45.948Z</time>
      </trkpt>
      <trkpt lon="7.958390" lat="53.776494">
        <ele>79.1784</ele>
        <time>2026-08-05T12:08:46.512Z</time>
      </trkpt>
      <trkpt lon="7.958773" lat="53.777013">
        <ele>79.3882</ele>
        <time>2026-08-05T12:08:47.616Z</time>
      </trkpt>
      <trkpt lon="7.959027" lat="53.777554">
        <ele>79.5552</ele>
        <time>2026-08-05T12:08:48.752Z</time>
      </trkpt>
      <trkpt lon="7.959104" lat="53.777831">
        <ele>79.619</ele>
        <time>2026-08-05T12:08:49.324Z</time>
      </trkpt>
      <trkpt lon="7.959145" lat="53.778098">
        <ele>79.8024</ele>
        <time>2026-08-05T12:08:49.880Z</time>
      </trkpt>
      <trkpt lon="7.959152" lat="53.778361">
        <ele>80.184</ele>
        <time>2026-08-05T12:08:50.440Z</time>
      </trkpt>
      <trkpt lon="7.959121" lat="53.778622">
        <ele>80.8069</ele>
        <time>2026-08-05T12:08:51.008Z</time>
      </trkpt>
      <trkpt lon="7.959055" lat="53.778872">
        <ele>81.6124</ele>
        <time>2026-08-05T12:08:51.564Z</time>
      </trkpt>
      <trkpt lon="7.958951" lat="53.779114">
        <ele>82.653</ele>
        <time>2026-08-05T12:08:52.148Z</time>
      </trkpt>
      <trkpt lon="7.958813" lat="53.779343">
        <ele>83.8354</ele>
        <time>2026-08-05T12:08:52.708Z</time>
      </trkpt>
      <trkpt lon="7.958649" lat="53.779552">
        <ele>84.9131</ele>
        <time>2026-08-05T12:08:53.268Z</time>
      </trkpt>
      <trkpt lon="7.958455" lat="53.779744">
        <ele>85.9696</ele>
        <time>2026-08-05T12:08:53.828Z</time>
      </trkpt>
      <trkpt lon="7.958239" lat="53.779916">
        <ele>86.9339</ele>
        <time>2026-08-05T12:08:54.384Z</time>
      </trkpt>
      <trkpt lon="7.957998" lat="53.780069">
        <ele>87.836</ele>
        <time>2026-08-05T12:08:54.940Z</time>
      </trkpt>
      <trkpt lon="7.957740" lat="53.780201">
        <ele>88.6333</ele>
        <time>2026-08-05T12:08:55.496Z</time>
      </trkpt>
      <trkpt lon="7.956263" lat="53.780630">
        <ele>85.4803</ele>
        <time>2026-08-05T12:08:58.300Z</time>
      </trkpt>
      <trkpt lon="7.953396" lat="53.781161">
        <ele>85.2976</ele>
        <time>2026-08-05T12:09:03.348Z</time>
      </trkpt>
      <trkpt lon="7.950714" lat="53.781477">
        <ele>83.868</ele>
        <time>2026-08-05T12:09:07.812Z</time>
      </trkpt>
      <trkpt lon="7.942595" lat="53.781829">
        <ele>89.8599</ele>
        <time>2026-08-05T12:09:21.288Z</time>
      </trkpt>
      <trkpt lon="7.940292" lat="53.781941">
        <ele>96.6474</ele>
        <time>2026-08-05T12:09:25.760Z</time>
      </trkpt>
      <trkpt lon="7.936865" lat="53.782091">
        <ele>77.5935</ele>
        <time>2026-08-05T12:09:33.628Z</time>
      </trkpt>
      <trkpt lon="7.933986" lat="53.782098">
        <ele>59.1459</ele>
        <time>2026-08-05T12:09:40.328Z</time>
      </trkpt>
      <trkpt lon="7.932919" lat="53.782134">
        <ele>55.5645</ele>
        <time>2026-08-05T12:09:43.136Z</time>
      </trkpt>
      <trkpt lon="7.932542" lat="53.782148">
        <ele>54.3651</ele>
        <time>2026-08-05T12:09:44.272Z</time>
      </trkpt>
      <trkpt lon="7.932196" lat="53.782164">
        <ele>52.4965</ele>
        <time>2026-08-05T12:09:45.392Z</time>
      </trkpt>
      <trkpt lon="7.932028" lat="53.782176">
        <ele>51.5739</ele>
        <time>2026-08-05T12:09:45.968Z</time>
      </trkpt>
      <trkpt lon="7.931870" lat="53.782190">
        <ele>50.562</ele>
        <time>2026-08-05T12:09:46.532Z</time>
      </trkpt>
      <trkpt lon="7.931284" lat="53.782228">
        <ele>45.3447</ele>
        <time>2026-08-05T12:09:48.780Z</time>
      </trkpt>
      <trkpt lon="7.931150" lat="53.782231">
        <ele>43.6489</ele>
        <time>2026-08-05T12:09:49.340Z</time>
      </trkpt>
      <trkpt lon="7.930884" lat="53.782235">
        <ele>40.2178</ele>
        <time>2026-08-05T12:09:50.468Z</time>
      </trkpt>
      <trkpt lon="7.930390" lat="53.782287">
        <ele>34.9404</ele>
        <time>2026-08-05T12:09:52.712Z</time>
      </trkpt>
      <trkpt lon="7.929614" lat="53.782401">
        <ele>24.0307</ele>
        <time>2026-08-05T12:09:56.648Z</time>
      </trkpt>
      <trkpt lon="7.929391" lat="53.782400">
        <ele>22.5091</ele>
        <time>2026-08-05T12:09:57.772Z</time>
      </trkpt>
      <trkpt lon="7.928017" lat="53.782371">
        <ele>17.2794</ele>
        <time>2026-08-05T12:10:03.988Z</time>
      </trkpt>
      <trkpt lon="7.927765" lat="53.782368">
        <ele>16.8809</ele>
        <time>2026-08-05T12:10:05.120Z</time>
      </trkpt>
      <trkpt lon="7.921482" lat="53.782476">
        <ele>3.0769</ele>
        <time>2026-08-05T12:10:35.488Z</time>
      </trkpt>
      <trkpt lon="7.919997" lat="53.782522">
        <ele>0.635942</ele>
        <time>2026-08-05T12:10:43.960Z</time>
      </trkpt>
      <trkpt lon="7.919736" lat="53.782547">
        <ele>0.626748</ele>
        <time>2026-08-05T12:10:46.236Z</time>
      </trkpt>
      <trkpt lon="7.919494" lat="53.782556">
        <ele>0.57193</ele>
        <time>2026-08-05T12:10:50.732Z</time>
      </trkpt>
    </trkseg>
    <trkseg>
      <trkpt lon="-122.294505" lat="47.518932">
        <ele>38.2211</ele>
        <time>2026-08-05T16:15:46.404Z</time>
      </trkpt>
      <trkpt lon="-122.294505" lat="47.518932">
        <ele>8.4943</ele>
        <time>2024-06-15T00:00:15.265Z</time>
      </trkpt>
    </trkseg>
    <trkseg>
      <trkpt lon="13.609267" lat="45.909239">
        <ele>65.1845</ele>
        <time>2026-08-05T16:17:47.904Z</time>
      </trkpt>
      <trkpt lon="13.609273" lat="45.909248">
        <ele>65.1857</ele>
        <time>2026-08-05T16:23:45.948Z</time>
      </trkpt>
      <trkpt lon="13.609279" lat="45.909257">
        <ele>65.1611</ele>
        <time>2026-08-05T16:31:32.080Z</time>
      </trkpt>
      <trkpt lon="13.609284" lat="45.909266">
        <ele>65.138</ele>
        <time>2026-08-05T16:36:09.716Z</time>
      </trkpt>
      <trkpt lon="13.609289" lat="45.909275">
        <ele>65.1183</ele>
        <time>2026-08-05T16:41:01.468Z</time>
      </trkpt>
      <trkpt lon="13.609200" lat="45.909075">
        <ele>65.6334</ele>
        <time>2026-08-05T16:46:13.904Z</time>
      </trkpt>
      <trkpt lon="13.609038" lat="45.908715">
        <ele>66.5545</ele>
        <time>2026-08-05T16:46:23.972Z</time>
      </trkpt>
      <trkpt lon="13.608817" lat="45.908337">
        <ele>67.1758</ele>
        <time>2026-08-05T16:46:34.548Z</time>
      </trkpt>
      <trkpt lon="13.608693" lat="45.908149">
        <ele>67.2423</ele>
        <time>2026-08-05T16:46:39.244Z</time>
      </trkpt>
      <trkpt lon="13.608655" lat="45.908104">
        <ele>67.2301</ele>
        <time>2026-08-05T16:46:40.412Z</time>
      </trkpt>
      <trkpt lon="13.608627" lat="45.908076">
        <ele>67.2064</ele>
        <time>2026-08-05T16:46:41.576Z</time>
      </trkpt>
      <trkpt lon="13.608616" lat="45.908067">
        <ele>67.2081</ele>
        <time>2026-08-05T16:46:42.168Z</time>
      </trkpt>
      <trkpt lon="13.608606" lat="45.908060">
        <ele>67.2022</ele>
        <time>2026-08-05T16:46:42.744Z</time>
      </trkpt>
      <trkpt lon="13.608595" lat="45.908053">
        <ele>67.2018</ele>
        <time>2026-08-05T16:46:43.320Z</time>
      </trkpt>
      <trkpt lon="13.608568" lat="45.908042">
        <ele>67.1947</ele>
        <time>2026-08-05T16:46:44.500Z</time>
      </trkpt>
      <trkpt lon="13.608541" lat="45.908033">
        <ele>67.1974</ele>
        <time>2026-08-05T16:46:45.680Z</time>
      </trkpt>
      <trkpt lon="13.608512" lat="45.908027">
        <ele>67.2028</ele>
        <time>2026-08-05T16:46:46.840Z</time>
      </trkpt>
      <trkpt lon="13.608479" lat="45.908023">
        <ele>67.2038</ele>
        <time>2026-08-05T16:46:48.020Z</time>
      </trkpt>
      <trkpt lon="13.608444" lat="45.908024">
        <ele>67.2064</ele>
        <time>2026-08-05T16:46:49.204Z</time>
      </trkpt>
      <trkpt lon="13.608363" lat="45.908033">
        <ele>67.2116</ele>
        <time>2026-08-05T16:46:59.684Z</time>
      </trkpt>
      <trkpt lon="13.608212" lat="45.908048">
        <ele>67.217</ele>
        <time>2026-08-05T16:47:09.076Z</time>
      </trkpt>
      <trkpt lon="13.607939" lat="45.908077">
        <ele>67.1921</ele>
        <time>2026-08-05T16:47:11.476Z</time>
      </trkpt>
      <trkpt lon="13.607595" lat="45.908109">
        <ele>67.1713</ele>
        <time>2026-08-05T16:47:13.300Z</time>
      </trkpt>
      <trkpt lon="13.606999" lat="45.908141">
        <ele>66.9335</ele>
        <time>2026-08-05T16:47:15.640Z</time>
      </trkpt>
      <trkpt lon="13.606032" lat="45.908208">
        <ele>67.1701</ele>
        <time>2026-08-05T16:47:18.608Z</time>
      </trkpt>
      <trkpt lon="13.603980" lat="45.908395">
        <ele>79.7976</ele>
        <time>2026-08-05T16:47:23.912Z</time>
      </trkpt>
      <trkpt lon="13.603064" lat="45.908420">
        <ele>88.8696</ele>
        <time>2026-08-05T16:47:26.264Z</time>
      </trkpt>
      <trkpt lon="13.599579" lat="45.908419">
        <ele>106.387</ele>
        <time>2026-08-05T16:47:35.620Z</time>
      </trkpt>
      <trkpt lon="13.590773" lat="45.908025">
        <ele>124.882</ele>
        <time>2026-08-05T16:47:57.416Z</time>
      </trkpt>
      <trkpt lon="13.590304" lat="45.908030">
        <ele>126.708</ele>
        <time>2026-08-05T16:47:58.584Z</time>
      </trkpt>
      <trkpt lon="13.588203" lat="45.908259">
        <ele>126.697</ele>
        <time>2026-08-05T16:48:03.872Z</time>
      </trkpt>
      <trkpt lon="13.587503" lat="45.908433">
        <ele>118.946</ele>
        <time>2026-08-05T16:48:05.612Z</time>
      </trkpt>
      <trkpt lon="13.587041" lat="45.908593">
        <ele>115.973</ele>
        <time>2026-08-05T16:48:06.776Z</time>
      </trkpt>
      <trkpt lon="13.586126" lat="45.908981">
        <ele>112.8</ele>
        <time>2026-08-05T16:48:09.120Z</time>
      </trkpt>
      <trkpt lon="13.584070" lat="45.910022">
        <ele>124.439</ele>
        <time>2026-08-05T16:48:14.396Z</time>
      </trkpt>
      <trkpt lon="13.582835" lat="45.910775">
        <ele>145.223</ele>
        <time>2026-08-05T16:48:17.928Z</time>
      </trkpt>
      <trkpt lon="13.582016" lat="45.911428">
        <ele>164.497</ele>
        <time>2026-08-05T16:48:20.820Z</time>
      </trkpt>
      <trkpt lon="13.581222" lat="45.912236">
        <ele>182.699</ele>
        <time>2026-08-05T16:48:24.320Z</time>
      </trkpt>
      <trkpt lon="13.580263" lat="45.913542">
        <ele>199.112</ele>
        <time>2026-08-05T16:48:29.544Z</time>
      </trkpt>
      <trkpt lon="13.579827" lat="45.914327">
        <ele>206.498</ele>
        <time>2026-08-05T16:48:32.432Z</time>
      </trkpt>
      <trkpt lon="13.579141" lat="45.915897">
        <ele>215.184</ele>
        <time>2026-08-05T16:48:37.760Z</time>
      </trkpt>
      <trkpt lon="13.577843" lat="45.918458">
        <ele>241.233</ele>
        <time>2026-08-05T16:48:46.496Z</time>
      </trkpt>
      <trkpt lon="13.577030" lat="45.920243">
        <ele>249.369</ele>
        <time>2026-08-05T16:48:52.932Z</time>
      </trkpt>
      <trkpt lon="13.576901" lat="45.920793">
        <ele>249.239</ele>
        <time>2026-08-05T16:48:54.700Z</time>
      </trkpt>
      <trkpt lon="13.576823" lat="45.921577">
        <ele>249.719</ele>
        <time>2026-08-05T16:48:57.080Z</time>
      </trkpt>
      <trkpt lon="13.576869" lat="45.922564">
        <ele>252.114</ele>
        <time>2026-08-05T16:48:59.972Z</time>
      </trkpt>
      <trkpt lon="13.577411" lat="45.925761">
        <ele>275.596</ele>
        <time>2026-08-05T16:49:09.896Z</time>
      </trkpt>
      <trkpt lon="13.577888" lat="45.928949">
        <ele>290.107</ele>
        <time>2026-08-05T16:49:20.920Z</time>
      </trkpt>
      <trkpt lon="13.578185" lat="45.933815">
        <ele>310.337</ele>
        <time>2026-08-05T16:49:36.076Z</time>
      </trkpt>
      <trkpt lon="13.579102" lat="45.936741">
        <ele>306.643</ele>
        <time>2026-08-05T16:49:45.444Z</time>
      </trkpt>
      <trkpt lon="13.579497" lat="45.937505">
        <ele>302.19</ele>
        <time>2026-08-05T16:49:47.760Z</time>
      </trkpt>
      <trkpt lon="13.579852" lat="45.938117">
        <ele>296.252</ele>
        <time>2026-08-05T16:49:49.540Z</time>
      </trkpt>
      <trkpt lon="13.581461" lat="45.940481">
        <ele>288.371</ele>
        <time>2026-08-05T16:49:55.924Z</time>
      </trkpt>
      <trkpt lon="13.583560" lat="45.943062">
        <ele>314.836</ele>
        <time>2026-08-05T16:50:02.924Z</time>
      </trkpt>
      <trkpt lon="13.584953" lat="45.944422">
        <ele>331.856</ele>
        <time>2026-08-05T16:50:07.008Z</time>
      </trkpt>
      <trkpt lon="13.587486" lat="45.946652">
        <ele>343.34</ele>
        <time>2026-08-05T16:50:14.008Z</time>
      </trkpt>
      <trkpt lon="13.592020" lat="45.950673">
        <ele>356.337</ele>
        <time>2026-08-05T16:50:26.288Z</time>
      </trkpt>
      <trkpt lon="13.592917" lat="45.951737">
        <ele>353.795</ele>
        <time>2026-08-05T16:50:29.176Z</time>
      </trkpt>
      <trkpt lon="13.593667" lat="45.952852">
        <ele>352.541</ele>
        <time>2026-08-05T16:50:32.068Z</time>
      </trkpt>
      <trkpt lon="13.594441" lat="45.954452">
        <ele>363.852</ele>
        <time>2026-08-05T16:50:36.156Z</time>
      </trkpt>
      <trkpt lon="13.595021" lat="45.956010">
        <ele>376.243</ele>
        <time>2026-08-05T16:50:40.248Z</time>
      </trkpt>
      <trkpt lon="13.596167" lat="45.960400">
        <ele>391.811</ele>
        <time>2026-08-05T16:50:52.452Z</time>
      </trkpt>
      <trkpt lon="13.596397" lat="45.963340">
        <ele>367.452</ele>
        <time>2026-08-05T16:50:59.968Z</time>
      </trkpt>
      <trkpt lon="13.596533" lat="45.968747">
        <ele>397.131</ele>
        <time>2026-08-05T16:51:13.332Z</time>
      </trkpt>
      <trkpt lon="13.596762" lat="45.971445">
        <ele>428.37</ele>
        <time>2026-08-05T16:51:20.936Z</time>
      </trkpt>
      <trkpt lon="13.596714" lat="45.976457">
        <ele>444.954</ele>
        <time>2026-08-05T16:51:34.508Z</time>
      </trkpt>
      <trkpt lon="13.596346" lat="45.979419">
        <ele>475.151</ele>
        <time>2026-08-05T16:51:42.084Z</time>
      </trkpt>
      <trkpt lon="13.596130" lat="45.982933">
        <ele>508.305</ele>
        <time>2026-08-05T16:51:51.384Z</time>
      </trkpt>
      <trkpt lon="13.596120" lat="45.986562">
        <ele>536.586</ele>
        <time>2026-08-05T16:52:01.876Z</time>
      </trkpt>
      <trkpt lon="13.596459" lat="45.994421">
        <ele>567.467</ele>
        <time>2026-08-05T16:52:22.788Z</time>
      </trkpt>
      <trkpt lon="13.595710" lat="46.004455">
        <ele>603.996</ele>
        <time>2026-08-05T16:52:50.152Z</time>
      </trkpt>
      <trkpt lon="13.595040" lat="46.008146">
        <ele>634.483</ele>
        <time>2026-08-05T16:53:00.048Z</time>
      </trkpt>
      <trkpt lon="13.594584" lat="46.009453">
        <ele>638.066</ele>
        <time>2026-08-05T16:53:04.108Z</time>
      </trkpt>
      <trkpt lon="13.593628" lat="46.011375">
        <ele>637.396</ele>
        <time>2026-08-05T16:53:09.960Z</time>
      </trkpt>
      <trkpt lon="13.589043" lat="46.019241">
        <ele>654.452</ele>
        <time>2026-08-05T16:53:32.708Z</time>
      </trkpt>
      <trkpt lon="13.581779" lat="46.029106">
        <ele>658.781</ele>
        <time>2026-08-05T16:54:02.976Z</time>
      </trkpt>
      <trkpt lon="13.580196" lat="46.031172">
        <ele>688.403</ele>
        <time>2026-08-05T16:54:09.364Z</time>
      </trkpt>
      <trkpt lon="13.578823" lat="46.032690">
        <ele>717.154</ele>
        <time>2026-08-05T16:54:14.608Z</time>
      </trkpt>
      <trkpt lon="13.576712" lat="46.034740">
        <ele>751.705</ele>
        <time>2026-08-05T16:54:22.176Z</time>
      </trkpt>
      <trkpt lon="13.572993" lat="46.038068">
        <ele>792.582</ele>
        <time>2026-08-05T16:54:34.404Z</time>
      </trkpt>
      <trkpt lon="13.569548" lat="46.041806">
        <ele>822.653</ele>
        <time>2026-08-05T16:54:47.260Z</time>
      </trkpt>
      <trkpt lon="13.566639" lat="46.045494">
        <ele>850.025</ele>
        <time>2026-08-05T16:54:59.296Z</time>
      </trkpt>
      <trkpt lon="13.565903" lat="46.046230">
        <ele>860.078</ele>
        <time>2026-08-05T16:55:01.828Z</time>
      </trkpt>
      <trkpt lon="13.564166" lat="46.047813">
        <ele>889.3</ele>
        <time>2026-08-05T16:55:07.528Z</time>
      </trkpt>
      <trkpt lon="13.562341" lat="46.049277">
        <ele>919.055</ele>
        <time>2026-08-05T16:55:13.232Z</time>
      </trkpt>
      <trkpt lon="13.558332" lat="46.052135">
        <ele>955.518</ele>
        <time>2026-08-05T16:55:25.200Z</time>
      </trkpt>
      <trkpt lon="13.556674" lat="46.053489">
        <ele>960.915</ele>
        <time>2026-08-05T16:55:30.264Z</time>
      </trkpt>
      <trkpt lon="13.554810" lat="46.055364">
        <ele>971.321</ele>
        <time>2026-08-05T16:55:36.596Z</time>
      </trkpt>
      <trkpt lon="13.552627" lat="46.057506">
        <ele>989.748</ele>
        <time>2026-08-05T16:55:44.084Z</time>
      </trkpt>
      <trkpt lon="13.551458" lat="46.058410">
        <ele>999.497</ele>
        <time>2026-08-05T16:56:09.768Z</time>
      </trkpt>
      <trkpt lon="13.547601" lat="46.061315">
        <ele>1002.76</ele>
        <time>2026-08-05T16:56:21.956Z</time>
      </trkpt>
      <trkpt lon="13.546349" lat="46.062507">
        <ele>1003.96</ele>
        <time>2026-08-05T16:56:26.048Z</time>
      </trkpt>
      <trkpt lon="13.545374" lat="46.063647">
        <ele>1007.62</ele>
        <time>2026-08-05T16:56:29.540Z</time>
      </trkpt>
      <trkpt lon="13.543132" lat="46.066959">
        <ele>1041.66</ele>
        <time>2026-08-05T16:56:39.452Z</time>
      </trkpt>
      <trkpt lon="13.538238" lat="46.075947">
        <ele>1100.74</ele>
        <time>2026-08-05T16:57:07.440Z</time>
      </trkpt>
      <trkpt lon="13.534470" lat="46.082276">
        <ele>1108.57</ele>
        <time>2026-08-05T16:57:26.620Z</time>
      </trkpt>
      <trkpt lon="13.533123" lat="46.083937">
        <ele>1110.81</ele>
        <time>2026-08-05T16:57:31.896Z</time>
      </trkpt>
      <trkpt lon="13.525104" lat="46.093314">
        <ele>1140.87</ele>
        <time>2026-08-05T16:58:02.116Z</time>
      </trkpt>
      <trkpt lon="13.520476" lat="46.099552">
        <ele>1155.36</ele>
        <time>2026-08-05T16:58:21.388Z</time>
      </trkpt>
      <trkpt lon="13.518467" lat="46.103335">
        <ele>1181.95</ele>
        <time>2026-08-05T16:58:32.408Z</time>
      </trkpt>
      <trkpt lon="13.515335" lat="46.110361">
        <ele>1239.43</ele>
        <time>2026-08-05T16:58:52.772Z</time>
      </trkpt>
      <trkpt lon="13.512315" lat="46.116729">
        <ele>1273.8</ele>
        <time>2026-08-05T16:59:10.856Z</time>
      </trkpt>
      <trkpt lon="13.508776" lat="46.123858">
        <ele>1285.33</ele>
        <time>2026-08-05T16:59:41.164Z</time>
      </trkpt>
      <trkpt lon="13.504355" lat="46.134708">
        <ele>1324.05</ele>
        <time>2026-08-05T17:00:11.576Z</time>
      </trkpt>
      <trkpt lon="13.502342" lat="46.142411">
        <ele>1359.27</ele>
        <time>2026-08-05T17:00:32.552Z</time>
      </trkpt>
      <trkpt lon="13.501192" lat="46.152028">
        <ele>1381.65</ele>
        <time>2026-08-05T17:00:57.620Z</time>
      </trkpt>
      <trkpt lon="13.500678" lat="46.163362">
        <ele>1426.4</ele>
        <time>2026-08-05T17:01:28.084Z</time>
      </trkpt>
      <trkpt lon="13.499060" lat="46.172961">
        <ele>1454.77</ele>
        <time>2026-08-05T17:01:53.212Z</time>
      </trkpt>
      <trkpt lon="13.497066" lat="46.183948">
        <ele>1510.67</ele>
        <time>2026-08-05T17:02:19.992Z</time>
      </trkpt>
      <trkpt lon="13.494979" lat="46.196501">
        <ele>1540.98</ele>
        <time>2026-08-05T17:02:50.300Z</time>
      </trkpt>
      <trkpt lon="13.493468" lat="46.202163">
        <ele>1563.57</ele>
        <time>2026-08-05T17:03:04.320Z</time>
      </trkpt>
      <trkpt lon="13.491607" lat="46.207070">
        <ele>1572.16</ele>
        <time>2026-08-05T17:03:16.552Z</time>
      </trkpt>
      <trkpt lon="13.489708" lat="46.210660">
        <ele>1582.46</ele>
        <time>2026-08-05T17:03:25.848Z</time>
      </trkpt>
      <trkpt lon="13.482998" lat="46.220400">
        <ele>1632.68</ele>
        <time>2026-08-05T17:03:52.052Z</time>
      </trkpt>
      <trkpt lon="13.474145" lat="46.231746">
        <ele>1664.37</ele>
        <time>2026-08-05T17:04:22.324Z</time>
      </trkpt>
      <trkpt lon="13.468575" lat="46.238836">
        <ele>1678.1</ele>
        <time>2026-08-05T17:04:41.664Z</time>
      </trkpt>
      <trkpt lon="13.458834" lat="46.250094">
        <ele>1700.21</ele>
        <time>2026-08-05T17:05:11.976Z</time>
      </trkpt>
      <trkpt lon="13.455263" lat="46.254557">
        <ele>1687.72</ele>
        <time>2026-08-05T17:05:23.604Z</time>
      </trkpt>
      <trkpt lon="13.445211" lat="46.267233">
        <ele>1733.53</ele>
        <time>2026-08-05T17:05:54.112Z</time>
      </trkpt>
      <trkpt lon="13.435423" lat="46.279491">
        <ele>1759.23</ele>
        <time>2026-08-05T17:06:24.652Z</time>
      </trkpt>
      <trkpt lon="13.431589" lat="46.284419">
        <ele>1771.83</ele>
        <time>2026-08-05T17:06:36.284Z</time>
      </trkpt>
      <trkpt lon="13.429453" lat="46.286539">
        <ele>1773.14</ele>
        <time>2026-08-05T17:06:41.548Z</time>
      </trkpt>
      <trkpt lon="13.421273" lat="46.294559">
        <ele>1781.31</ele>
        <time>2026-08-05T17:07:00.820Z</time>
      </trkpt>
      <trkpt lon="13.409631" lat="46.308592">
        <ele>1777.81</ele>
        <time>2026-08-05T17:07:31.156Z</time>
      </trkpt>
      <trkpt lon="13.405403" lat="46.314573">
        <ele>1786</ele>
        <time>2026-08-05T17:07:43.416Z</time>
      </trkpt>
      <trkpt lon="13.400202" lat="46.324257">
        <ele>1797.53</ele>
        <time>2026-08-05T17:08:02.688Z</time>
      </trkpt>
      <trkpt lon="13.399580" lat="46.326109">
        <ele>1791.74</ele>
        <time>2026-08-05T17:08:06.212Z</time>
      </trkpt>
      <trkpt lon="13.397460" lat="46.334141">
        <ele>1781.6</ele>
        <time>2026-08-05T17:08:20.912Z</time>
      </trkpt>
      <trkpt lon="13.395478" lat="46.337794">
        <ele>1788.37</ele>
        <time>2026-08-05T17:08:27.896Z</time>
      </trkpt>
      <trkpt lon="13.392834" lat="46.341809">
        <ele>1806.47</ele>
        <time>2026-08-05T17:08:36.048Z</time>
      </trkpt>
      <trkpt lon="13.385754" lat="46.350362">
        <ele>1819.83</ele>
        <time>2026-08-05T17:08:54.888Z</time>
      </trkpt>
      <trkpt lon="13.376388" lat="46.359767">
        <ele>1799.09</ele>
        <time>2026-08-05T17:09:16.016Z</time>
      </trkpt>
      <trkpt lon="13.363374" lat="46.371930">
        <ele>1794.61</ele>
        <time>2026-08-05T17:09:44.184Z</time>
      </trkpt>
      <trkpt lon="13.356054" lat="46.380648">
        <ele>1791.92</ele>
        <time>2026-08-05T17:10:02.904Z</time>
      </trkpt>
      <trkpt lon="13.353952" lat="46.383799">
        <ele>1789.32</ele>
        <time>2026-08-05T17:10:09.332Z</time>
      </trkpt>
      <trkpt lon="13.352901" lat="46.385910">
        <ele>1785.33</ele>
        <time>2026-08-05T17:10:13.432Z</time>
      </trkpt>
      <trkpt lon="13.352046" lat="46.388446">
        <ele>1777.81</ele>
        <time>2026-08-05T17:10:18.164Z</time>
      </trkpt>
      <trkpt lon="13.348381" lat="46.399527">
        <ele>1782.61</ele>
        <time>2026-08-05T17:10:38.644Z</time>
      </trkpt>
      <trkpt lon="13.344438" lat="46.408875">
        <ele>1796.87</ele>
        <time>2026-08-05T17:10:57.340Z</time>
      </trkpt>
      <trkpt lon="13.343296" lat="46.410552">
        <ele>1791.13</ele>
        <time>2026-08-05T17:11:00.836Z</time>
      </trkpt>
      <trkpt lon="13.340963" lat="46.413293">
        <ele>1778.57</ele>
        <time>2026-08-05T17:11:06.696Z</time>
      </trkpt>
      <trkpt lon="13.328161" lat="46.427377">
        <ele>1792.78</ele>
        <time>2026-08-05T17:11:37.080Z</time>
      </trkpt>
      <trkpt lon="13.319386" lat="46.439315">
        <ele>1772.18</ele>
        <time>2026-08-05T17:12:02.292Z</time>
      </trkpt>
      <trkpt lon="13.315965" lat="46.445580">
        <ele>1766.77</ele>
        <time>2026-08-05T17:12:14.584Z</time>
      </trkpt>
      <trkpt lon="13.312335" lat="46.454349">
        <ele>1780.45</ele>
        <time>2026-08-05T17:12:31.688Z</time>
      </trkpt>
      <trkpt lon="13.310986" lat="46.459259">
        <ele>1772.37</ele>
        <time>2026-08-05T17:12:41.128Z</time>
      </trkpt>
      <trkpt lon="13.309568" lat="46.469631">
        <ele>1772.79</ele>
        <time>2026-08-05T17:13:00.452Z</time>
      </trkpt>
      <trkpt lon="13.309516" lat="46.474028">
        <ele>1777.61</ele>
        <time>2026-08-05T17:13:08.716Z</time>
      </trkpt>
      <trkpt lon="13.311499" lat="46.490298">
        <ele>1797.2</ele>
        <time>2026-08-05T17:13:39.180Z</time>
      </trkpt>
      <trkpt lon="13.312947" lat="46.496561">
        <ele>1831.06</ele>
        <time>2026-08-05T17:13:50.992Z</time>
      </trkpt>
      <trkpt lon="13.314066" lat="46.499548">
        <ele>1845.18</ele>
        <time>2026-08-05T17:13:56.860Z</time>
      </trkpt>
      <trkpt lon="13.315589" lat="46.502431">
        <ele>1853.66</ele>
        <time>2026-08-05T17:14:02.716Z</time>
      </trkpt>
      <trkpt lon="13.319802" lat="46.509609">
        <ele>1873.76</ele>
        <time>2026-08-05T17:14:17.396Z</time>
      </trkpt>
      <trkpt lon="13.320522" lat="46.511722">
        <ele>1879.12</ele>
        <time>2026-08-05T17:14:21.472Z</time>
      </trkpt>
      <trkpt lon="13.320802" lat="46.513245">
        <ele>1881.97</ele>
        <time>2026-08-05T17:14:24.344Z</time>
      </trkpt>
      <trkpt lon="13.322958" lat="46.528115">
        <ele>1930.95</ele>
        <time>2026-08-05T17:14:52.400Z</time>
      </trkpt>
      <trkpt lon="13.327935" lat="46.543874">
        <ele>1909.36</ele>
        <time>2026-08-05T17:15:22.840Z</time>
      </trkpt>
      <trkpt lon="13.331170" lat="46.557203">
        <ele>1925.52</ele>
        <time>2026-08-05T17:15:48.084Z</time>
      </trkpt>
      <trkpt lon="13.331802" lat="46.564043">
        <ele>1927</ele>
        <time>2026-08-05T17:16:01.056Z</time>
      </trkpt>
      <trkpt lon="13.332310" lat="46.578582">
        <ele>1916.19</ele>
        <time>2026-08-05T17:16:28.236Z</time>
      </trkpt>
      <trkpt lon="13.334437" lat="46.591033">
        <ele>1915.03</ele>
        <time>2026-08-05T17:16:51.700Z</time>
      </trkpt>
      <trkpt lon="13.333995" lat="46.598614">
        <ele>1911.16</ele>
        <time>2026-08-05T17:17:05.776Z</time>
      </trkpt>
      <trkpt lon="13.333429" lat="46.601767">
        <ele>1911.06</ele>
        <time>2026-08-05T17:17:11.640Z</time>
      </trkpt>
      <trkpt lon="13.332130" lat="46.605788">
        <ele>1912.88</ele>
        <time>2026-08-05T17:17:19.272Z</time>
      </trkpt>
      <trkpt lon="13.328779" lat="46.613855">
        <ele>1917.52</ele>
        <time>2026-08-05T17:17:35.036Z</time>
      </trkpt>
      <trkpt lon="13.324532" lat="46.621307">
        <ele>1911.27</ele>
        <time>2026-08-05T17:17:50.188Z</time>
      </trkpt>
      <trkpt lon="13.323459" lat="46.622668">
        <ele>1904.02</ele>
        <time>2026-08-05T17:17:53.084Z</time>
      </trkpt>
      <trkpt lon="13.322646" lat="46.623439">
        <ele>1895.15</ele>
        <time>2026-08-05T17:17:54.824Z</time>
      </trkpt>
      <trkpt lon="13.321692" lat="46.624189">
        <ele>1883.89</ele>
        <time>2026-08-05T17:17:56.604Z</time>
      </trkpt>
      <trkpt lon="13.320615" lat="46.624896">
        <ele>1873.12</ele>
        <time>2026-08-05T17:17:58.392Z</time>
      </trkpt>
      <trkpt lon="13.319457" lat="46.625534">
        <ele>1863.18</ele>
        <time>2026-08-05T17:18:00.136Z</time>
      </trkpt>
      <trkpt lon="13.317751" lat="46.626311">
        <ele>1849.46</ele>
        <time>2026-08-05T17:18:02.492Z</time>
      </trkpt>
      <trkpt lon="13.315465" lat="46.627143">
        <ele>1834.09</ele>
        <time>2026-08-05T17:18:05.412Z</time>
      </trkpt>
      <trkpt lon="13.312933" lat="46.627856">
        <ele>1822.45</ele>
        <time>2026-08-05T17:18:08.444Z</time>
      </trkpt>
      <trkpt lon="13.308909" lat="46.628703">
        <ele>1817.19</ele>
        <time>2026-08-05T17:18:13.132Z</time>
      </trkpt>
      <trkpt lon="13.301627" lat="46.630006">
        <ele>1835.94</ele>
        <time>2026-08-05T17:18:21.940Z</time>
      </trkpt>
      <trkpt lon="13.295275" lat="46.630935">
        <ele>1866.65</ele>
        <time>2026-08-05T17:18:30.276Z</time>
      </trkpt>
      <trkpt lon="13.272529" lat="46.633524">
        <ele>1836.25</ele>
        <time>2026-08-05T17:19:00.620Z</time>
      </trkpt>
      <trkpt lon="13.248980" lat="46.635833">
        <ele>1845.67</ele>
        <time>2026-08-05T17:19:31.164Z</time>
      </trkpt>
      <trkpt lon="13.225840" lat="46.637730">
        <ele>1840.73</ele>
        <time>2026-08-05T17:20:01.168Z</time>
      </trkpt>
      <trkpt lon="13.202272" lat="46.639925">
        <ele>1842.81</ele>
        <time>2026-08-05T17:20:31.264Z</time>
      </trkpt>
      <trkpt lon="13.178443" lat="46.641711">
        <ele>1844.41</ele>
        <time>2026-08-05T17:21:01.624Z</time>
      </trkpt>
      <trkpt lon="13.154879" lat="46.644643">
        <ele>1856.97</ele>
        <time>2026-08-05T17:21:32.040Z</time>
      </trkpt>
      <trkpt lon="13.131046" lat="46.647168">
        <ele>1855.84</ele>
        <time>2026-08-05T17:22:02.372Z</time>
      </trkpt>
      <trkpt lon="13.107605" lat="46.650357">
        <ele>1875.79</ele>
        <time>2026-08-05T17:22:32.884Z</time>
      </trkpt>
      <trkpt lon="13.087628" lat="46.653540">
        <ele>1872.15</ele>
        <time>2026-08-05T17:23:07.316Z</time>
      </trkpt>
      <trkpt lon="13.073497" lat="46.655997">
        <ele>1876.33</ele>
        <time>2026-08-05T17:23:25.324Z</time>
      </trkpt>
      <trkpt lon="13.067832" lat="46.657491">
        <ele>1871.63</ele>
        <time>2026-08-05T17:23:32.980Z</time>
      </trkpt>
      <trkpt lon="13.061060" lat="46.659801">
        <ele>1869.02</ele>
        <time>2026-08-05T17:23:42.428Z</time>
      </trkpt>
      <trkpt lon="13.055898" lat="46.662009">
        <ele>1869.81</ele>
        <time>2026-08-05T17:23:50.064Z</time>
      </trkpt>
      <trkpt lon="13.035926" lat="46.671196">
        <ele>1876.75</ele>
        <time>2026-08-05T17:24:20.600Z</time>
      </trkpt>
      <trkpt lon="13.016325" lat="46.678766">
        <ele>1871.78</ele>
        <time>2026-08-05T17:24:50.744Z</time>
      </trkpt>
      <trkpt lon="12.999491" lat="46.684199">
        <ele>1871.71</ele>
        <time>2026-08-05T17:25:14.472Z</time>
      </trkpt>
      <trkpt lon="12.996271" lat="46.684942">
        <ele>1868.71</ele>
        <time>2026-08-05T17:25:18.752Z</time>
      </trkpt>
      <trkpt lon="12.991892" lat="46.685637">
        <ele>1864.57</ele>
        <time>2026-08-05T17:25:24.372Z</time>
      </trkpt>
      <trkpt lon="12.985127" lat="46.686307">
        <ele>1863.09</ele>
        <time>2026-08-05T17:25:32.900Z</time>
      </trkpt>
      <trkpt lon="12.978967" lat="46.686526">
        <ele>1866.81</ele>
        <time>2026-08-05T17:25:40.636Z</time>
      </trkpt>
      <trkpt lon="12.955150" lat="46.687371">
        <ele>1870.02</ele>
        <time>2026-08-05T17:26:11.108Z</time>
      </trkpt>
      <trkpt lon="12.946354" lat="46.688189">
        <ele>1868.48</ele>
        <time>2026-08-05T17:26:22.236Z</time>
      </trkpt>
      <trkpt lon="12.936703" lat="46.689678">
        <ele>1871.78</ele>
        <time>2026-08-05T17:26:34.656Z</time>
      </trkpt>
      <trkpt lon="12.926057" lat="46.692010">
        <ele>1874.5</ele>
        <time>2026-08-05T17:26:48.852Z</time>
      </trkpt>
      <trkpt lon="12.911102" lat="46.696060">
        <ele>1863.6</ele>
        <time>2026-08-05T17:27:09.148Z</time>
      </trkpt>
      <trkpt lon="12.909234" lat="46.696300">
        <ele>1857.91</ele>
        <time>2026-08-05T17:27:11.488Z</time>
      </trkpt>
      <trkpt lon="12.907155" lat="46.696427">
        <ele>1850.12</ele>
        <time>2026-08-05T17:27:14.076Z</time>
      </trkpt>
      <trkpt lon="12.904481" lat="46.696410">
        <ele>1840.57</ele>
        <time>2026-08-05T17:27:17.248Z</time>
      </trkpt>
      <trkpt lon="12.900966" lat="46.696169">
        <ele>1832.51</ele>
        <time>2026-08-05T17:27:21.416Z</time>
      </trkpt>
      <trkpt lon="12.896010" lat="46.695495">
        <ele>1833.41</ele>
        <time>2026-08-05T17:27:27.412Z</time>
      </trkpt>
      <trkpt lon="12.883471" lat="46.693363">
        <ele>1865.97</ele>
        <time>2026-08-05T17:27:43.684Z</time>
      </trkpt>
      <trkpt lon="12.877601" lat="46.692635">
        <ele>1866.45</ele>
        <time>2026-08-05T17:27:51.436Z</time>
      </trkpt>
      <trkpt lon="12.853576" lat="46.690892">
        <ele>1853.61</ele>
        <time>2026-08-05T17:28:21.700Z</time>
      </trkpt>
      <trkpt lon="12.847127" lat="46.690517">
        <ele>1857.56</ele>
        <time>2026-08-05T17:28:29.988Z</time>
      </trkpt>
      <trkpt lon="12.842947" lat="46.690608">
        <ele>1851.13</ele>
        <time>2026-08-05T17:28:35.312Z</time>
      </trkpt>
      <trkpt lon="12.838662" lat="46.690995">
        <ele>1839.74</ele>
        <time>2026-08-05T17:28:40.684Z</time>
      </trkpt>
      <trkpt lon="12.814811" lat="46.694388">
        <ele>1854.77</ele>
        <time>2026-08-05T17:29:11.020Z</time>
      </trkpt>
      <trkpt lon="12.791846" lat="46.698208">
        <ele>1847.65</ele>
        <time>2026-08-05T17:29:41.232Z</time>
      </trkpt>
      <trkpt lon="12.780725" lat="46.699494">
        <ele>1853.59</ele>
        <time>2026-08-05T17:29:55.512Z</time>
      </trkpt>
      <trkpt lon="12.768807" lat="46.700114">
        <ele>1857.1</ele>
        <time>2026-08-05T17:30:10.776Z</time>
      </trkpt>
      <trkpt lon="12.755294" lat="46.699981">
        <ele>1854.45</ele>
        <time>2026-08-05T17:30:27.892Z</time>
      </trkpt>
      <trkpt lon="12.731670" lat="46.698211">
        <ele>1859.73</ele>
        <time>2026-08-05T17:30:58.352Z</time>
      </trkpt>
      <trkpt lon="12.727489" lat="46.698093">
        <ele>1854.17</ele>
        <time>2026-08-05T17:31:04.028Z</time>
      </trkpt>
      <trkpt lon="12.724586" lat="46.698205">
        <ele>1847.31</ele>
        <time>2026-08-05T17:31:07.584Z</time>
      </trkpt>
      <trkpt lon="12.721689" lat="46.698519">
        <ele>1838</ele>
        <time>2026-08-05T17:31:11.152Z</time>
      </trkpt>
      <trkpt lon="12.704289" lat="46.700959">
        <ele>1841.78</ele>
        <time>2026-08-05T17:31:32.584Z</time>
      </trkpt>
      <trkpt lon="12.698407" lat="46.701145">
        <ele>1858.85</ele>
        <time>2026-08-05T17:31:40.232Z</time>
      </trkpt>
      <trkpt lon="12.674944" lat="46.701424">
        <ele>1837.21</ele>
        <time>2026-08-05T17:32:10.416Z</time>
      </trkpt>
      <trkpt lon="12.667173" lat="46.702186">
        <ele>1837.25</ele>
        <time>2026-08-05T17:32:20.048Z</time>
      </trkpt>
      <trkpt lon="12.644483" lat="46.705827">
        <ele>1856.47</ele>
        <time>2026-08-05T17:32:50.196Z</time>
      </trkpt>
      <trkpt lon="12.638510" lat="46.706238">
        <ele>1848.54</ele>
        <time>2026-08-05T17:32:57.864Z</time>
      </trkpt>
      <trkpt lon="12.614703" lat="46.707443">
        <ele>1852.26</ele>
        <time>2026-08-05T17:33:28.096Z</time>
      </trkpt>
      <trkpt lon="12.591667" lat="46.710673">
        <ele>1848.84</ele>
        <time>2026-08-05T17:33:58.180Z</time>
      </trkpt>
      <trkpt lon="12.572146" lat="46.713080">
        <ele>1847.86</ele>
        <time>2026-08-05T17:34:23.372Z</time>
      </trkpt>
      <trkpt lon="12.563647" lat="46.713558">
        <ele>1850.18</ele>
        <time>2026-08-05T17:34:34.136Z</time>
      </trkpt>
      <trkpt lon="12.556122" lat="46.713536">
        <ele>1853.65</ele>
        <time>2026-08-05T17:34:43.688Z</time>
      </trkpt>
      <trkpt lon="12.543945" lat="46.713005">
        <ele>1842.31</ele>
        <time>2026-08-05T17:34:59.184Z</time>
      </trkpt>
      <trkpt lon="12.541551" lat="46.713185">
        <ele>1832.11</ele>
        <time>2026-08-05T17:35:02.132Z</time>
      </trkpt>
      <trkpt lon="12.538632" lat="46.713592">
        <ele>1818.1</ele>
        <time>2026-08-05T17:35:05.700Z</time>
      </trkpt>
      <trkpt lon="12.534279" lat="46.714482">
        <ele>1807.43</ele>
        <time>2026-08-05T17:35:11.024Z</time>
      </trkpt>
      <trkpt lon="12.525961" lat="46.716703">
        <ele>1830.66</ele>
        <time>2026-08-05T17:35:21.900Z</time>
      </trkpt>
      <trkpt lon="12.519012" lat="46.718995">
        <ele>1848.15</ele>
        <time>2026-08-05T17:35:32.084Z</time>
      </trkpt>
      <trkpt lon="12.498195" lat="46.727262">
        <ele>1817.53</ele>
        <time>2026-08-05T17:36:02.220Z</time>
      </trkpt>
      <trkpt lon="12.476584" lat="46.735418">
        <ele>1801.79</ele>
        <time>2026-08-05T17:36:32.360Z</time>
      </trkpt>
      <trkpt lon="12.470772" lat="46.737168">
        <ele>1799.04</ele>
        <time>2026-08-05T17:36:40.108Z</time>
      </trkpt>
      <trkpt lon="12.461538" lat="46.739295">
        <ele>1796.41</ele>
        <time>2026-08-05T17:36:51.992Z</time>
      </trkpt>
      <trkpt lon="12.450607" lat="46.740995">
        <ele>1791.23</ele>
        <time>2026-08-05T17:37:05.696Z</time>
      </trkpt>
      <trkpt lon="12.437504" lat="46.742314">
        <ele>1784.86</ele>
        <time>2026-08-05T17:37:21.932Z</time>
      </trkpt>
      <trkpt lon="12.427636" lat="46.742684">
        <ele>1773.69</ele>
        <time>2026-08-05T17:37:33.868Z</time>
      </trkpt>
      <trkpt lon="12.416216" lat="46.742458">
        <ele>1770.21</ele>
        <time>2026-08-05T17:37:47.544Z</time>
      </trkpt>
      <trkpt lon="12.391604" lat="46.740383">
        <ele>1762.07</ele>
        <time>2026-08-05T17:38:17.620Z</time>
      </trkpt>
      <trkpt lon="12.366410" lat="46.739187">
        <ele>1762.21</ele>
        <time>2026-08-05T17:38:48.120Z</time>
      </trkpt>
      <trkpt lon="12.341628" lat="46.738307">
        <ele>1753.12</ele>
        <time>2026-08-05T17:39:18.292Z</time>
      </trkpt>
      <trkpt lon="12.334822" lat="46.737922">
        <ele>1750.96</ele>
        <time>2026-08-05T17:39:26.536Z</time>
      </trkpt>
      <trkpt lon="12.309916" lat="46.735382">
        <ele>1740.87</ele>
        <time>2026-08-05T17:39:56.856Z</time>
      </trkpt>
      <trkpt lon="12.285229" lat="46.732793">
        <ele>1743.69</ele>
        <time>2026-08-05T17:40:27.076Z</time>
      </trkpt>
      <trkpt lon="12.260675" lat="46.730460">
        <ele>1725.95</ele>
        <time>2026-08-05T17:40:57.432Z</time>
      </trkpt>
      <trkpt lon="12.245838" lat="46.729313">
        <ele>1715.38</ele>
        <time>2026-08-05T17:41:15.368Z</time>
      </trkpt>
      <trkpt lon="12.237906" lat="46.729325">
        <ele>1706.16</ele>
        <time>2026-08-05T17:41:24.888Z</time>
      </trkpt>
      <trkpt lon="12.227619" lat="46.730027">
        <ele>1703.02</ele>
        <time>2026-08-05T17:41:37.292Z</time>
      </trkpt>
      <trkpt lon="12.203260" lat="46.733165">
        <ele>1692.16</ele>
        <time>2026-08-05T17:42:07.340Z</time>
      </trkpt>
      <trkpt lon="12.178912" lat="46.736013">
        <ele>1679.93</ele>
        <time>2026-08-05T17:42:37.444Z</time>
      </trkpt>
      <trkpt lon="12.157218" lat="46.739219">
        <ele>1672.08</ele>
        <time>2026-08-05T17:43:03.968Z</time>
      </trkpt>
      <trkpt lon="12.139628" lat="46.743070">
        <ele>1677.61</ele>
        <time>2026-08-05T17:43:25.916Z</time>
      </trkpt>
      <trkpt lon="12.115875" lat="46.749233">
        <ele>1686.24</ele>
        <time>2026-08-05T17:43:56.336Z</time>
      </trkpt>
      <trkpt lon="12.103204" lat="46.751462">
        <ele>1698.85</ele>
        <time>2026-08-05T17:44:12.352Z</time>
      </trkpt>
      <trkpt lon="12.095939" lat="46.752311">
        <ele>1697.63</ele>
        <time>2026-08-05T17:44:21.456Z</time>
      </trkpt>
      <trkpt lon="12.089780" lat="46.752639">
        <ele>1692.99</ele>
        <time>2026-08-05T17:44:29.008Z</time>
      </trkpt>
      <trkpt lon="12.084054" lat="46.752599">
        <ele>1689.33</ele>
        <time>2026-08-05T17:44:35.912Z</time>
      </trkpt>
      <trkpt lon="12.078251" lat="46.752497">
        <ele>1683.5</ele>
        <time>2026-08-05T17:44:42.892Z</time>
      </trkpt>
      <trkpt lon="12.075606" lat="46.752680">
        <ele>1674.73</ele>
        <time>2026-08-05T17:44:46.040Z</time>
      </trkpt>
      <trkpt lon="12.072976" lat="46.753026">
        <ele>1664.02</ele>
        <time>2026-08-05T17:44:49.176Z</time>
      </trkpt>
      <trkpt lon="12.069822" lat="46.753652">
        <ele>1652.47</ele>
        <time>2026-08-05T17:44:52.976Z</time>
      </trkpt>
      <trkpt lon="12.066227" lat="46.754621">
        <ele>1642.82</ele>
        <time>2026-08-05T17:44:57.416Z</time>
      </trkpt>
      <trkpt lon="12.061030" lat="46.756406">
        <ele>1636.5</ele>
        <time>2026-08-05T17:45:04.012Z</time>
      </trkpt>
      <trkpt lon="12.048284" lat="46.761289">
        <ele>1652.56</ele>
        <time>2026-08-05T17:45:21.296Z</time>
      </trkpt>
      <trkpt lon="12.026918" lat="46.769478">
        <ele>1644.67</ele>
        <time>2026-08-05T17:45:51.844Z</time>
      </trkpt>
      <trkpt lon="12.004410" lat="46.776934">
        <ele>1645.55</ele>
        <time>2026-08-05T17:46:22.276Z</time>
      </trkpt>
      <trkpt lon="11.982034" lat="46.784019">
        <ele>1630.08</ele>
        <time>2026-08-05T17:46:52.288Z</time>
      </trkpt>
      <trkpt lon="11.965099" lat="46.789304">
        <ele>1628.87</ele>
        <time>2026-08-05T17:47:14.924Z</time>
      </trkpt>
      <trkpt lon="11.943613" lat="46.794015">
        <ele>1628.71</ele>
        <time>2026-08-05T17:47:42.752Z</time>
      </trkpt>
      <trkpt lon="11.919791" lat="46.798504">
        <ele>1631.02</ele>
        <time>2026-08-05T17:48:13.096Z</time>
      </trkpt>
      <trkpt lon="11.910149" lat="46.799758">
        <ele>1633.79</ele>
        <time>2026-08-05T17:48:25.020Z</time>
      </trkpt>
      <trkpt lon="11.902898" lat="46.800240">
        <ele>1634.98</ele>
        <time>2026-08-05T17:48:33.920Z</time>
      </trkpt>
      <trkpt lon="11.878346" lat="46.801323">
        <ele>1630.06</ele>
        <time>2026-08-05T17:49:04.124Z</time>
      </trkpt>
      <trkpt lon="11.853869" lat="46.802838">
        <ele>1636.4</ele>
        <time>2026-08-05T17:49:34.156Z</time>
      </trkpt>
      <trkpt lon="11.829351" lat="46.803193">
        <ele>1634.13</ele>
        <time>2026-08-05T17:50:04.580Z</time>
      </trkpt>
      <trkpt lon="11.817460" lat="46.803889">
        <ele>1627.99</ele>
        <time>2026-08-05T17:50:18.972Z</time>
      </trkpt>
      <trkpt lon="11.793042" lat="46.806185">
        <ele>1641.32</ele>
        <time>2026-08-05T17:50:49.180Z</time>
      </trkpt>
      <trkpt lon="11.778029" lat="46.807336">
        <ele>1642.57</ele>
        <time>2026-08-05T17:51:07.588Z</time>
      </trkpt>
      <trkpt lon="11.753749" lat="46.808622">
        <ele>1677.34</ele>
        <time>2026-08-05T17:51:37.832Z</time>
      </trkpt>
      <trkpt lon="11.745926" lat="46.808892">
        <ele>1693.83</ele>
        <time>2026-08-05T17:51:47.548Z</time>
      </trkpt>
      <trkpt lon="11.742560" lat="46.808764">
        <ele>1699.28</ele>
        <time>2026-08-05T17:51:51.684Z</time>
      </trkpt>
      <trkpt lon="11.739211" lat="46.808395">
        <ele>1702.71</ele>
        <time>2026-08-05T17:51:55.796Z</time>
      </trkpt>
      <trkpt lon="11.735844" lat="46.807807">
        <ele>1706.43</ele>
        <time>2026-08-05T17:51:59.948Z</time>
      </trkpt>
      <trkpt lon="11.732120" lat="46.806927">
        <ele>1708.84</ele>
        <time>2026-08-05T17:52:04.596Z</time>
      </trkpt>
      <trkpt lon="11.720621" lat="46.803644">
        <ele>1729.97</ele>
        <time>2026-08-05T17:52:19.524Z</time>
      </trkpt>
      <trkpt lon="11.714833" lat="46.801538">
        <ele>1745.9</ele>
        <time>2026-08-05T17:52:27.588Z</time>
      </trkpt>
      <trkpt lon="11.706179" lat="46.797813">
        <ele>1748.1</ele>
        <time>2026-08-05T17:52:40.132Z</time>
      </trkpt>
      <trkpt lon="11.702303" lat="46.795664">
        <ele>1736.67</ele>
        <time>2026-08-05T17:52:46.080Z</time>
      </trkpt>
      <trkpt lon="11.695688" lat="46.791374">
        <ele>1727.18</ele>
        <time>2026-08-05T17:52:56.732Z</time>
      </trkpt>
      <trkpt lon="11.692692" lat="46.789087">
        <ele>1720.81</ele>
        <time>2026-08-05T17:53:02.060Z</time>
      </trkpt>
      <trkpt lon="11.689319" lat="46.785920">
        <ele>1715.89</ele>
        <time>2026-08-05T17:53:08.888Z</time>
      </trkpt>
      <trkpt lon="11.685877" lat="46.782200">
        <ele>1701.18</ele>
        <time>2026-08-05T17:53:16.596Z</time>
      </trkpt>
      <trkpt lon="11.684312" lat="46.780083">
        <ele>1697.08</ele>
        <time>2026-08-05T17:53:20.736Z</time>
      </trkpt>
      <trkpt lon="11.682060" lat="46.776268">
        <ele>1690.35</ele>
        <time>2026-08-05T17:53:27.856Z</time>
      </trkpt>
      <trkpt lon="11.676830" lat="46.764780">
        <ele>1696.71</ele>
        <time>2026-08-05T17:53:48.552Z</time>
      </trkpt>
      <trkpt lon="11.673014" lat="46.753377">
        <ele>1694.77</ele>
        <time>2026-08-05T17:54:08.372Z</time>
      </trkpt>
      <trkpt lon="11.668068" lat="46.735893">
        <ele>1704.12</ele>
        <time>2026-08-05T17:54:38.620Z</time>
      </trkpt>
      <trkpt lon="11.666733" lat="46.732119">
        <ele>1702.35</ele>
        <time>2026-08-05T17:54:45.144Z</time>
      </trkpt>
      <trkpt lon="11.664241" lat="46.727217">
        <ele>1701.33</ele>
        <time>2026-08-05T17:54:53.896Z</time>
      </trkpt>
      <trkpt lon="11.662602" lat="46.724605">
        <ele>1696.96</ele>
        <time>2026-08-05T17:54:58.672Z</time>
      </trkpt>
      <trkpt lon="11.661807" lat="46.723661">
        <ele>1690.19</ele>
        <time>2026-08-05T17:55:00.496Z</time>
      </trkpt>
      <trkpt lon="11.660903" lat="46.722791">
        <ele>1685.18</ele>
        <time>2026-08-05T17:55:02.280Z</time>
      </trkpt>
      <trkpt lon="11.660234" lat="46.722263">
        <ele>1682.94</ele>
        <time>2026-08-05T17:55:03.440Z</time>
      </trkpt>
      <trkpt lon="11.659469" lat="46.721778">
        <ele>1680.91</ele>
        <time>2026-08-05T17:55:04.628Z</time>
      </trkpt>
      <trkpt lon="11.658621" lat="46.721362">
        <ele>1680.7</ele>
        <time>2026-08-05T17:55:05.844Z</time>
      </trkpt>
      <trkpt lon="11.657724" lat="46.721025">
        <ele>1682</ele>
        <time>2026-08-05T17:55:07.052Z</time>
      </trkpt>
      <trkpt lon="11.656738" lat="46.720753">
        <ele>1682.88</ele>
        <time>2026-08-05T17:55:08.328Z</time>
      </trkpt>
      <trkpt lon="11.655780" lat="46.720569">
        <ele>1683.25</ele>
        <time>2026-08-05T17:55:09.524Z</time>
      </trkpt>
      <trkpt lon="11.654850" lat="46.720458">
        <ele>1684.07</ele>
        <time>2026-08-05T17:55:10.692Z</time>
      </trkpt>
      <trkpt lon="11.653874" lat="46.720417">
        <ele>1685.5</ele>
        <time>2026-08-05T17:55:11.916Z</time>
      </trkpt>
      <trkpt lon="11.652940" lat="46.720451">
        <ele>1687.44</ele>
        <time>2026-08-05T17:55:13.112Z</time>
      </trkpt>
      <trkpt lon="11.652035" lat="46.720554">
        <ele>1689.16</ele>
        <time>2026-08-05T17:55:14.288Z</time>
      </trkpt>
      <trkpt lon="11.651161" lat="46.720721">
        <ele>1690.44</ele>
        <time>2026-08-05T17:55:15.484Z</time>
      </trkpt>
      <trkpt lon="11.650340" lat="46.720943">
        <ele>1691.7</ele>
        <time>2026-08-05T17:55:16.648Z</time>
      </trkpt>
      <trkpt lon="11.649528" lat="46.721231">
        <ele>1692.78</ele>
        <time>2026-08-05T17:55:17.880Z</time>
      </trkpt>
      <trkpt lon="11.648794" lat="46.721555">
        <ele>1693.33</ele>
        <time>2026-08-05T17:55:19.048Z</time>
      </trkpt>
      <trkpt lon="11.647799" lat="46.722108">
        <ele>1692.79</ele>
        <time>2026-08-05T17:55:20.796Z</time>
      </trkpt>
      <trkpt lon="11.646603" lat="46.722976">
        <ele>1685.74</ele>
        <time>2026-08-05T17:55:23.184Z</time>
      </trkpt>
      <trkpt lon="11.645551" lat="46.723972">
        <ele>1677.33</ele>
        <time>2026-08-05T17:55:25.528Z</time>
      </trkpt>
      <trkpt lon="11.644409" lat="46.725335">
        <ele>1663.67</ele>
        <time>2026-08-05T17:55:28.484Z</time>
      </trkpt>
      <trkpt lon="11.642851" lat="46.727719">
        <ele>1641.97</ele>
        <time>2026-08-05T17:55:33.208Z</time>
      </trkpt>
      <trkpt lon="11.640663" lat="46.732324">
        <ele>1613.9</ele>
        <time>2026-08-05T17:55:41.532Z</time>
      </trkpt>
      <trkpt lon="11.637627" lat="46.739915">
        <ele>1631.7</ele>
        <time>2026-08-05T17:55:55.264Z</time>
      </trkpt>
      <trkpt lon="11.635927" lat="46.745040">
        <ele>1663.51</ele>
        <time>2026-08-05T17:56:05.364Z</time>
      </trkpt>
      <trkpt lon="11.633377" lat="46.751274">
        <ele>1681.89</ele>
        <time>2026-08-05T17:56:18.612Z</time>
      </trkpt>
      <trkpt lon="11.629510" lat="46.758200">
        <ele>1660.34</ele>
        <time>2026-08-05T17:56:33.028Z</time>
      </trkpt>
      <trkpt lon="11.620069" lat="46.773121">
        <ele>1685.37</ele>
        <time>2026-08-05T17:57:03.028Z</time>
      </trkpt>
      <trkpt lon="11.617773" lat="46.775782">
        <ele>1707.31</ele>
        <time>2026-08-05T17:57:08.992Z</time>
      </trkpt>
      <trkpt lon="11.611317" lat="46.782139">
        <ele>1752.45</ele>
        <time>2026-08-05T17:57:24.568Z</time>
      </trkpt>
      <trkpt lon="11.596507" lat="46.793895">
        <ele>1761.26</ele>
        <time>2026-08-05T17:57:54.836Z</time>
      </trkpt>
      <trkpt lon="11.594336" lat="46.795567">
        <ele>1759.49</ele>
        <time>2026-08-05T17:57:58.948Z</time>
      </trkpt>
      <trkpt lon="11.592227" lat="46.796848">
        <ele>1755.32</ele>
        <time>2026-08-05T17:58:02.480Z</time>
      </trkpt>
      <trkpt lon="11.586164" lat="46.799787">
        <ele>1746.25</ele>
        <time>2026-08-05T17:58:11.376Z</time>
      </trkpt>
      <trkpt lon="11.578365" lat="46.802851">
        <ele>1752.35</ele>
        <time>2026-08-05T17:58:22.136Z</time>
      </trkpt>
      <trkpt lon="11.559790" lat="46.810154">
        <ele>1760.77</ele>
        <time>2026-08-05T17:58:49.040Z</time>
      </trkpt>
      <trkpt lon="11.557143" lat="46.811584">
        <ele>1748.63</ele>
        <time>2026-08-05T17:58:53.188Z</time>
      </trkpt>
      <trkpt lon="11.546727" lat="46.817768">
        <ele>1773.25</ele>
        <time>2026-08-05T17:59:10.204Z</time>
      </trkpt>
      <trkpt lon="11.538193" lat="46.822721">
        <ele>1770.87</ele>
        <time>2026-08-05T17:59:25.688Z</time>
      </trkpt>
      <trkpt lon="11.530779" lat="46.828418">
        <ele>1732.91</ele>
        <time>2026-08-05T17:59:39.316Z</time>
      </trkpt>
      <trkpt lon="11.529944" lat="46.829253">
        <ele>1727.56</ele>
        <time>2026-08-05T17:59:41.100Z</time>
      </trkpt>
      <trkpt lon="11.528989" lat="46.830468">
        <ele>1720.2</ele>
        <time>2026-08-05T17:59:43.520Z</time>
      </trkpt>
      <trkpt lon="11.519399" lat="46.844938">
        <ele>1685.36</ele>
        <time>2026-08-05T18:00:10.916Z</time>
      </trkpt>
      <trkpt lon="11.516270" lat="46.847912">
        <ele>1704.59</ele>
        <time>2026-08-05T18:00:17.720Z</time>
      </trkpt>
      <trkpt lon="11.511083" lat="46.851970">
        <ele>1719.95</ele>
        <time>2026-08-05T18:00:28.152Z</time>
      </trkpt>
      <trkpt lon="11.506370" lat="46.855067">
        <ele>1715.71</ele>
        <time>2026-08-05T18:00:36.560Z</time>
      </trkpt>
      <trkpt lon="11.501608" lat="46.857555">
        <ele>1709.54</ele>
        <time>2026-08-05T18:00:44.080Z</time>
      </trkpt>
      <trkpt lon="11.494809" lat="46.860441">
        <ele>1727.51</ele>
        <time>2026-08-05T18:00:54.140Z</time>
      </trkpt>
      <trkpt lon="11.482393" lat="46.865753">
        <ele>1746.99</ele>
        <time>2026-08-05T18:01:13.292Z</time>
      </trkpt>
      <trkpt lon="11.477756" lat="46.868382">
        <ele>1741.41</ele>
        <time>2026-08-05T18:01:29.732Z</time>
      </trkpt>
      <trkpt lon="11.465834" lat="46.876491">
        <ele>1722.12</ele>
        <time>2026-08-05T18:01:51.268Z</time>
      </trkpt>
      <trkpt lon="11.463473" lat="46.878495">
        <ele>1717.93</ele>
        <time>2026-08-05T18:01:56.060Z</time>
      </trkpt>
      <trkpt lon="11.459926" lat="46.882153">
        <ele>1721.16</ele>
        <time>2026-08-05T18:02:04.384Z</time>
      </trkpt>
      <trkpt lon="11.450411" lat="46.893214">
        <ele>1738.09</ele>
        <time>2026-08-05T18:02:30.976Z</time>
      </trkpt>
      <trkpt lon="11.448375" lat="46.896706">
        <ele>1716.98</ele>
        <time>2026-08-05T18:02:38.240Z</time>
      </trkpt>
      <trkpt lon="11.445993" lat="46.902142">
        <ele>1673.15</ele>
        <time>2026-08-05T18:02:48.468Z</time>
      </trkpt>
      <trkpt lon="11.444132" lat="46.907581">
        <ele>1652.51</ele>
        <time>2026-08-05T18:02:58.096Z</time>
      </trkpt>
      <trkpt lon="11.443701" lat="46.909950">
        <ele>1654.5</ele>
        <time>2026-08-05T18:03:02.296Z</time>
      </trkpt>
      <trkpt lon="11.443293" lat="46.916471">
        <ele>1667.95</ele>
        <time>2026-08-05T18:03:13.864Z</time>
      </trkpt>
      <trkpt lon="11.443641" lat="46.920411">
        <ele>1674.68</ele>
        <time>2026-08-05T18:03:21.076Z</time>
      </trkpt>
      <trkpt lon="11.445817" lat="46.930464">
        <ele>1668.37</ele>
        <time>2026-08-05T18:03:39.792Z</time>
      </trkpt>
      <trkpt lon="11.450774" lat="46.943172">
        <ele>1649.75</ele>
        <time>2026-08-05T18:04:03.336Z</time>
      </trkpt>
      <trkpt lon="11.456130" lat="46.953206">
        <ele>1657.48</ele>
        <time>2026-08-05T18:04:22.724Z</time>
      </trkpt>
      <trkpt lon="11.457928" lat="46.955727">
        <ele>1653.76</ele>
        <time>2026-08-05T18:04:27.840Z</time>
      </trkpt>
      <trkpt lon="11.461187" lat="46.959438">
        <ele>1650.6</ele>
        <time>2026-08-05T18:04:35.632Z</time>
      </trkpt>
      <trkpt lon="11.468106" lat="46.966089">
        <ele>1621</ele>
        <time>2026-08-05T18:04:49.952Z</time>
      </trkpt>
      <trkpt lon="11.472528" lat="46.969492">
        <ele>1612.44</ele>
        <time>2026-08-05T18:04:57.848Z</time>
      </trkpt>
      <trkpt lon="11.487656" lat="46.980328">
        <ele>1631.13</ele>
        <time>2026-08-05T18:05:24.288Z</time>
      </trkpt>
      <trkpt lon="11.493089" lat="46.985313">
        <ele>1630.5</ele>
        <time>2026-08-05T18:05:35.884Z</time>
      </trkpt>
      <trkpt lon="11.494845" lat="46.987345">
        <ele>1622.21</ele>
        <time>2026-08-05T18:05:40.276Z</time>
      </trkpt>
      <trkpt lon="11.496513" lat="46.989730">
        <ele>1607.94</ele>
        <time>2026-08-05T18:05:45.192Z</time>
      </trkpt>
      <trkpt lon="11.498575" lat="46.993762">
        <ele>1586.14</ele>
        <time>2026-08-05T18:05:52.928Z</time>
      </trkpt>
      <trkpt lon="11.502416" lat="47.001124">
        <ele>1562.56</ele>
        <time>2026-08-05T18:06:06.348Z</time>
      </trkpt>
      <trkpt lon="11.506343" lat="47.008096">
        <ele>1581.82</ele>
        <time>2026-08-05T18:06:19.600Z</time>
      </trkpt>
      <trkpt lon="11.506916" lat="47.009675">
        <ele>1588.25</ele>
        <time>2026-08-05T18:06:22.668Z</time>
      </trkpt>
      <trkpt lon="11.507114" lat="47.010594">
        <ele>1589.64</ele>
        <time>2026-08-05T18:06:24.452Z</time>
      </trkpt>
      <trkpt lon="11.507175" lat="47.011523">
        <ele>1593.54</ele>
        <time>2026-08-05T18:06:26.248Z</time>
      </trkpt>
      <trkpt lon="11.507098" lat="47.012452">
        <ele>1603.62</ele>
        <time>2026-08-05T18:06:28.088Z</time>
      </trkpt>
      <trkpt lon="11.506715" lat="47.014208">
        <ele>1623.88</ele>
        <time>2026-08-05T18:06:31.656Z</time>
      </trkpt>
      <trkpt lon="11.505712" lat="47.017079">
        <ele>1625.39</ele>
        <time>2026-08-05T18:06:37.744Z</time>
      </trkpt>
      <trkpt lon="11.504444" lat="47.019839">
        <ele>1594.23</ele>
        <time>2026-08-05T18:06:43.236Z</time>
      </trkpt>
      <trkpt lon="11.503339" lat="47.021629">
        <ele>1593.15</ele>
        <time>2026-08-05T18:06:46.832Z</time>
      </trkpt>
      <trkpt lon="11.502377" lat="47.022727">
        <ele>1596.31</ele>
        <time>2026-08-05T18:06:49.320Z</time>
      </trkpt>
      <trkpt lon="11.501505" lat="47.023498">
        <ele>1596.46</ele>
        <time>2026-08-05T18:06:51.128Z</time>
      </trkpt>
      <trkpt lon="11.500530" lat="47.024190">
        <ele>1595.25</ele>
        <time>2026-08-05T18:06:52.960Z</time>
      </trkpt>
      <trkpt lon="11.498691" lat="47.025239">
        <ele>1590.24</ele>
        <time>2026-08-05T18:06:56.044Z</time>
      </trkpt>
      <trkpt lon="11.489459" lat="47.030315">
        <ele>1585.73</ele>
        <time>2026-08-05T18:07:11.652Z</time>
      </trkpt>
      <trkpt lon="11.487995" lat="47.031424">
        <ele>1588.22</ele>
        <time>2026-08-05T18:07:14.672Z</time>
      </trkpt>
      <trkpt lon="11.486344" lat="47.032978">
        <ele>1579.02</ele>
        <time>2026-08-05T18:07:18.556Z</time>
      </trkpt>
      <trkpt lon="11.485222" lat="47.034302">
        <ele>1561.17</ele>
        <time>2026-08-05T18:07:21.540Z</time>
      </trkpt>
      <trkpt lon="11.484462" lat="47.035492">
        <ele>1545.08</ele>
        <time>2026-08-05T18:07:23.984Z</time>
      </trkpt>
      <trkpt lon="11.484040" lat="47.036392">
        <ele>1533.88</ele>
        <time>2026-08-05T18:07:25.732Z</time>
      </trkpt>
      <trkpt lon="11.483667" lat="47.037672">
        <ele>1519.03</ele>
        <time>2026-08-05T18:07:28.080Z</time>
      </trkpt>
      <trkpt lon="11.483564" lat="47.038674">
        <ele>1507.26</ele>
        <time>2026-08-05T18:07:29.924Z</time>
      </trkpt>
      <trkpt lon="11.483603" lat="47.039402">
        <ele>1497.53</ele>
        <time>2026-08-05T18:07:31.152Z</time>
      </trkpt>
      <trkpt lon="11.483736" lat="47.040095">
        <ele>1487.19</ele>
        <time>2026-08-05T18:07:32.388Z</time>
      </trkpt>
      <trkpt lon="11.484078" lat="47.041154">
        <ele>1477.65</ele>
        <time>2026-08-05T18:07:34.256Z</time>
      </trkpt>
      <trkpt lon="11.485408" lat="47.046190">
        <ele>1464.07</ele>
        <time>2026-08-05T18:07:43.292Z</time>
      </trkpt>
      <trkpt lon="11.485756" lat="47.048920">
        <ele>1457.18</ele>
        <time>2026-08-05T18:07:48.112Z</time>
      </trkpt>
      <trkpt lon="11.485667" lat="47.053225">
        <ele>1446.76</ele>
        <time>2026-08-05T18:07:55.764Z</time>
      </trkpt>
      <trkpt lon="11.484957" lat="47.059597">
        <ele>1437.75</ele>
        <time>2026-08-05T18:08:07.272Z</time>
      </trkpt>
      <trkpt lon="11.483741" lat="47.063848">
        <ele>1425.05</ele>
        <time>2026-08-05T18:08:15.192Z</time>
      </trkpt>
      <trkpt lon="11.479295" lat="47.075485">
        <ele>1407.6</ele>
        <time>2026-08-05T18:08:37.600Z</time>
      </trkpt>
      <trkpt lon="11.476496" lat="47.080365">
        <ele>1388.77</ele>
        <time>2026-08-05T18:08:47.416Z</time>
      </trkpt>
      <trkpt lon="11.471391" lat="47.087162">
        <ele>1359.86</ele>
        <time>2026-08-05T18:09:01.012Z</time>
      </trkpt>
      <trkpt lon="11.466867" lat="47.093739">
        <ele>1334.13</ele>
        <time>2026-08-05T18:09:14.028Z</time>
      </trkpt>
      <trkpt lon="11.464587" lat="47.098076">
        <ele>1329.94</ele>
        <time>2026-08-05T18:09:22.524Z</time>
      </trkpt>
      <trkpt lon="11.463440" lat="47.101159">
        <ele>1330.57</ele>
        <time>2026-08-05T18:09:28.548Z</time>
      </trkpt>
      <trkpt lon="11.462240" lat="47.106026">
        <ele>1331.22</ele>
        <time>2026-08-05T18:09:38.176Z</time>
      </trkpt>
      <trkpt lon="11.462098" lat="47.108156">
        <ele>1329.43</ele>
        <time>2026-08-05T18:09:42.412Z</time>
      </trkpt>
      <trkpt lon="11.462256" lat="47.109667">
        <ele>1328.3</ele>
        <time>2026-08-05T18:09:45.416Z</time>
      </trkpt>
      <trkpt lon="11.462994" lat="47.114341">
        <ele>1344.51</ele>
        <time>2026-08-05T18:09:55.072Z</time>
      </trkpt>
      <trkpt lon="11.462882" lat="47.116309">
        <ele>1346.76</ele>
        <time>2026-08-05T18:09:59.248Z</time>
      </trkpt>
      <trkpt lon="11.462249" lat="47.119460">
        <ele>1340.04</ele>
        <time>2026-08-05T18:10:05.896Z</time>
      </trkpt>
      <trkpt lon="11.460408" lat="47.125453">
        <ele>1315.74</ele>
        <time>2026-08-05T18:10:18.040Z</time>
      </trkpt>
      <trkpt lon="11.457968" lat="47.131265">
        <ele>1294.73</ele>
        <time>2026-08-05T18:10:29.464Z</time>
      </trkpt>
      <trkpt lon="11.452475" lat="47.140888">
        <ele>1303</ele>
        <time>2026-08-05T18:10:48.740Z</time>
      </trkpt>
      <trkpt lon="11.443886" lat="47.154579">
        <ele>1293.23</ele>
        <time>2026-08-05T18:11:19.036Z</time>
      </trkpt>
      <trkpt lon="11.437511" lat="47.162041">
        <ele>1264.18</ele>
        <time>2026-08-05T18:11:35.496Z</time>
      </trkpt>
      <trkpt lon="11.434570" lat="47.165187">
        <ele>1238.8</ele>
        <time>2026-08-05T18:11:42.248Z</time>
      </trkpt>
      <trkpt lon="11.430982" lat="47.169050">
        <ele>1211.92</ele>
        <time>2026-08-05T18:11:50.168Z</time>
      </trkpt>
      <trkpt lon="11.428198" lat="47.171608">
        <ele>1208.21</ele>
        <time>2026-08-05T18:11:55.656Z</time>
      </trkpt>
      <trkpt lon="11.423982" lat="47.175381">
        <ele>1215.95</ele>
        <time>2026-08-05T18:12:04.140Z</time>
      </trkpt>
      <trkpt lon="11.422327" lat="47.177342">
        <ele>1224.96</ele>
        <time>2026-08-05T18:12:08.380Z</time>
      </trkpt>
      <trkpt lon="11.420804" lat="47.179616">
        <ele>1238.67</ele>
        <time>2026-08-05T18:12:13.256Z</time>
      </trkpt>
      <trkpt lon="11.418770" lat="47.183565">
        <ele>1247.37</ele>
        <time>2026-08-05T18:12:21.728Z</time>
      </trkpt>
      <trkpt lon="11.416550" lat="47.189550">
        <ele>1216.34</ele>
        <time>2026-08-05T18:12:34.084Z</time>
      </trkpt>
      <trkpt lon="11.415116" lat="47.193557">
        <ele>1180.02</ele>
        <time>2026-08-05T18:12:41.836Z</time>
      </trkpt>
      <trkpt lon="11.413681" lat="47.197821">
        <ele>1153.7</ele>
        <time>2026-08-05T18:12:49.264Z</time>
      </trkpt>
      <trkpt lon="11.411132" lat="47.207725">
        <ele>1153.54</ele>
        <time>2026-08-05T18:13:07.728Z</time>
      </trkpt>
      <trkpt lon="11.409333" lat="47.220050">
        <ele>1138.76</ele>
        <time>2026-08-05T18:13:31.156Z</time>
      </trkpt>
      <trkpt lon="11.407382" lat="47.226116">
        <ele>1113.17</ele>
        <time>2026-08-05T18:13:42.756Z</time>
      </trkpt>
      <trkpt lon="11.405415" lat="47.231660">
        <ele>1089.81</ele>
        <time>2026-08-05T18:13:53.092Z</time>
      </trkpt>
      <trkpt lon="11.403287" lat="47.235519">
        <ele>1075.76</ele>
        <time>2026-08-05T18:14:00.436Z</time>
      </trkpt>
      <trkpt lon="11.399037" lat="47.241955">
        <ele>1072.35</ele>
        <time>2026-08-05T18:14:13.280Z</time>
      </trkpt>
      <trkpt lon="11.395270" lat="47.246806">
        <ele>1071.04</ele>
        <time>2026-08-05T18:14:23.704Z</time>
      </trkpt>
      <trkpt lon="11.394886" lat="47.247684">
        <ele>1074.23</ele>
        <time>2026-08-05T18:14:25.500Z</time>
      </trkpt>
      <trkpt lon="11.394651" lat="47.248604">
        <ele>1078.63</ele>
        <time>2026-08-05T18:14:27.384Z</time>
      </trkpt>
      <trkpt lon="11.394573" lat="47.249470">
        <ele>1082.56</ele>
        <time>2026-08-05T18:14:29.156Z</time>
      </trkpt>
      <trkpt lon="11.394634" lat="47.250349">
        <ele>1084.16</ele>
        <time>2026-08-05T18:14:30.984Z</time>
      </trkpt>
      <trkpt lon="11.394841" lat="47.251222">
        <ele>1085.9</ele>
        <time>2026-08-05T18:14:32.884Z</time>
      </trkpt>
      <trkpt lon="11.395193" lat="47.252056">
        <ele>1088.08</ele>
        <time>2026-08-05T18:14:34.680Z</time>
      </trkpt>
      <trkpt lon="11.395509" lat="47.252578">
        <ele>1089.52</ele>
        <time>2026-08-05T18:14:35.884Z</time>
      </trkpt>
      <trkpt lon="11.396101" lat="47.253305">
        <ele>1089.29</ele>
        <time>2026-08-05T18:14:37.688Z</time>
      </trkpt>
      <trkpt lon="11.396904" lat="47.254054">
        <ele>1078.56</ele>
        <time>2026-08-05T18:14:39.720Z</time>
      </trkpt>
      <trkpt lon="11.397509" lat="47.254505">
        <ele>1066.02</ele>
        <time>2026-08-05T18:14:40.928Z</time>
      </trkpt>
      <trkpt lon="11.398176" lat="47.254919">
        <ele>1050.52</ele>
        <time>2026-08-05T18:14:42.148Z</time>
      </trkpt>
      <trkpt lon="11.398914" lat="47.255300">
        <ele>1032.5</ele>
        <time>2026-08-05T18:14:43.376Z</time>
      </trkpt>
      <trkpt lon="11.399743" lat="47.255628">
        <ele>1019.31</ele>
        <time>2026-08-05T18:14:44.580Z</time>
      </trkpt>
      <trkpt lon="11.401100" lat="47.256010">
        <ele>1013.64</ele>
        <time>2026-08-05T18:14:46.392Z</time>
      </trkpt>
      <trkpt lon="11.402055" lat="47.256213">
        <ele>1011.36</ele>
        <time>2026-08-05T18:14:47.632Z</time>
      </trkpt>
      <trkpt lon="11.403004" lat="47.256349">
        <ele>1012.83</ele>
        <time>2026-08-05T18:14:48.836Z</time>
      </trkpt>
      <trkpt lon="11.403932" lat="47.256401">
        <ele>1018.97</ele>
        <time>2026-08-05T18:14:50.048Z</time>
      </trkpt>
      <trkpt lon="11.404823" lat="47.256365">
        <ele>1028.12</ele>
        <time>2026-08-05T18:14:51.244Z</time>
      </trkpt>
      <trkpt lon="11.405656" lat="47.256240">
        <ele>1039.22</ele>
        <time>2026-08-05T18:14:52.444Z</time>
      </trkpt>
      <trkpt lon="11.406038" lat="47.256146">
        <ele>1045.04</ele>
        <time>2026-08-05T18:14:53.048Z</time>
      </trkpt>
      <trkpt lon="11.406404" lat="47.256029">
        <ele>1050.87</ele>
        <time>2026-08-05T18:14:53.672Z</time>
      </trkpt>
      <trkpt lon="11.406766" lat="47.255882">
        <ele>1056.68</ele>
        <time>2026-08-05T18:14:54.352Z</time>
      </trkpt>
      <trkpt lon="11.407088" lat="47.255719">
        <ele>1061.89</ele>
        <time>2026-08-05T18:14:54.952Z</time>
      </trkpt>
      <trkpt lon="11.407613" lat="47.255363">
        <ele>1069.87</ele>
        <time>2026-08-05T18:14:56.180Z</time>
      </trkpt>
      <trkpt lon="11.407838" lat="47.255167">
        <ele>1072.45</ele>
        <time>2026-08-05T18:14:56.788Z</time>
      </trkpt>
      <trkpt lon="11.408032" lat="47.254962">
        <ele>1074.03</ele>
        <time>2026-08-05T18:14:57.408Z</time>
      </trkpt>
      <trkpt lon="11.408195" lat="47.254750">
        <ele>1074.81</ele>
        <time>2026-08-05T18:14:58.008Z</time>
      </trkpt>
      <trkpt lon="11.408326" lat="47.254527">
        <ele>1075.12</ele>
        <time>2026-08-05T18:14:58.608Z</time>
      </trkpt>
      <trkpt lon="11.408423" lat="47.254295">
        <ele>1075.1</ele>
        <time>2026-08-05T18:14:59.228Z</time>
      </trkpt>
      <trkpt lon="11.408485" lat="47.254054">
        <ele>1074.79</ele>
        <time>2026-08-05T18:14:59.908Z</time>
      </trkpt>
      <trkpt lon="11.408510" lat="47.253794">
        <ele>1074.18</ele>
        <time>2026-08-05T18:15:00.524Z</time>
      </trkpt>
      <trkpt lon="11.408492" lat="47.253540">
        <ele>1073.34</ele>
        <time>2026-08-05T18:15:01.180Z</time>
      </trkpt>
      <trkpt lon="11.408440" lat="47.253314">
        <ele>1072.33</ele>
        <time>2026-08-05T18:15:01.756Z</time>
      </trkpt>
      <trkpt lon="11.408356" lat="47.253094">
        <ele>1071.23</ele>
        <time>2026-08-05T18:15:02.352Z</time>
      </trkpt>
      <trkpt lon="11.408237" lat="47.252876">
        <ele>1070.17</ele>
        <time>2026-08-05T18:15:02.960Z</time>
      </trkpt>
      <trkpt lon="11.408086" lat="47.252667">
        <ele>1069.28</ele>
        <time>2026-08-05T18:15:03.564Z</time>
      </trkpt>
      <trkpt lon="11.407908" lat="47.252470">
        <ele>1068.66</ele>
        <time>2026-08-05T18:15:04.172Z</time>
      </trkpt>
      <trkpt lon="11.407703" lat="47.252287">
        <ele>1068.38</ele>
        <time>2026-08-05T18:15:04.772Z</time>
      </trkpt>
      <trkpt lon="11.407477" lat="47.252120">
        <ele>1068.47</ele>
        <time>2026-08-05T18:15:05.376Z</time>
      </trkpt>
      <trkpt lon="11.407226" lat="47.251966">
        <ele>1068.85</ele>
        <time>2026-08-05T18:15:05.984Z</time>
      </trkpt>
      <trkpt lon="11.406687" lat="47.251716">
        <ele>1069.72</ele>
        <time>2026-08-05T18:15:07.188Z</time>
      </trkpt>
      <trkpt lon="11.406083" lat="47.251527">
        <ele>1069.64</ele>
        <time>2026-08-05T18:15:08.416Z</time>
      </trkpt>
      <trkpt lon="11.405136" lat="47.251367">
        <ele>1066.68</ele>
        <time>2026-08-05T18:15:10.212Z</time>
      </trkpt>
      <trkpt lon="11.403770" lat="47.251268">
        <ele>1055.77</ele>
        <time>2026-08-05T18:15:12.624Z</time>
      </trkpt>
      <trkpt lon="11.399948" lat="47.251049">
        <ele>1030.25</ele>
        <time>2026-08-05T18:15:18.752Z</time>
      </trkpt>
      <trkpt lon="11.394851" lat="47.250735">
        <ele>995.957</ele>
        <time>2026-08-05T18:15:26.132Z</time>
      </trkpt>
      <trkpt lon="11.391035" lat="47.250489">
        <ele>962.724</ele>
        <time>2026-08-05T18:15:31.188Z</time>
      </trkpt>
      <trkpt lon="11.387502" lat="47.250236">
        <ele>933.66</ele>
        <time>2026-08-05T18:15:35.592Z</time>
      </trkpt>
      <trkpt lon="11.367086" lat="47.248604">
        <ele>915.794</ele>
        <time>2026-08-05T18:16:01.608Z</time>
      </trkpt>
      <trkpt lon="11.358674" lat="47.247311">
        <ele>903.134</ele>
        <time>2026-08-05T18:16:12.664Z</time>
      </trkpt>
      <trkpt lon="11.356909" lat="47.246875">
        <ele>914.721</ele>
        <time>2026-08-05T18:16:15.156Z</time>
      </trkpt>
      <trkpt lon="11.354924" lat="47.246258">
        <ele>924.468</ele>
        <time>2026-08-05T18:16:18.244Z</time>
      </trkpt>
      <trkpt lon="11.352760" lat="47.245404">
        <ele>936.783</ele>
        <time>2026-08-05T18:16:21.916Z</time>
      </trkpt>
      <trkpt lon="11.350865" lat="47.244462">
        <ele>945.275</ele>
        <time>2026-08-05T18:16:25.492Z</time>
      </trkpt>
      <trkpt lon="11.344231" lat="47.240673">
        <ele>968.537</ele>
        <time>2026-08-05T18:16:39.492Z</time>
      </trkpt>
      <trkpt lon="11.341012" lat="47.239076">
        <ele>980.683</ele>
        <time>2026-08-05T18:16:46.256Z</time>
      </trkpt>
      <trkpt lon="11.339541" lat="47.238514">
        <ele>984.859</ele>
        <time>2026-08-05T18:16:49.236Z</time>
      </trkpt>
      <trkpt lon="11.338296" lat="47.238149">
        <ele>988.179</ele>
        <time>2026-08-05T18:16:51.704Z</time>
      </trkpt>
      <trkpt lon="11.336983" lat="47.237862">
        <ele>990.869</ele>
        <time>2026-08-05T18:16:54.148Z</time>
      </trkpt>
      <trkpt lon="11.335031" lat="47.237574">
        <ele>991.516</ele>
        <time>2026-08-05T18:16:57.736Z</time>
      </trkpt>
      <trkpt lon="11.333330" lat="47.237404">
        <ele>991.883</ele>
        <time>2026-08-05T18:17:00.796Z</time>
      </trkpt>
      <trkpt lon="11.330608" lat="47.237336">
        <ele>997.111</ele>
        <time>2026-08-05T18:17:05.680Z</time>
      </trkpt>
      <trkpt lon="11.327192" lat="47.237532">
        <ele>995.294</ele>
        <time>2026-08-05T18:17:11.788Z</time>
      </trkpt>
      <trkpt lon="11.323072" lat="47.237894">
        <ele>986.007</ele>
        <time>2026-08-05T18:17:18.812Z</time>
      </trkpt>
      <trkpt lon="11.322309" lat="47.237995">
        <ele>986.157</ele>
        <time>2026-08-05T18:17:20.116Z</time>
      </trkpt>
      <trkpt lon="11.321609" lat="47.238133">
        <ele>987.796</ele>
        <time>2026-08-05T18:17:21.368Z</time>
      </trkpt>
      <trkpt lon="11.320887" lat="47.238341">
        <ele>989.455</ele>
        <time>2026-08-05T18:17:22.648Z</time>
      </trkpt>
      <trkpt lon="11.320287" lat="47.238585">
        <ele>990.572</ele>
        <time>2026-08-05T18:17:23.868Z</time>
      </trkpt>
      <trkpt lon="11.319735" lat="47.238897">
        <ele>991.592</ele>
        <time>2026-08-05T18:17:25.100Z</time>
      </trkpt>
      <trkpt lon="11.319067" lat="47.239448">
        <ele>992.435</ele>
        <time>2026-08-05T18:17:26.936Z</time>
      </trkpt>
      <trkpt lon="11.318697" lat="47.239855">
        <ele>991.986</ele>
        <time>2026-08-05T18:17:28.148Z</time>
      </trkpt>
      <trkpt lon="11.318374" lat="47.240294">
        <ele>991.316</ele>
        <time>2026-08-05T18:17:29.392Z</time>
      </trkpt>
      <trkpt lon="11.318105" lat="47.240762">
        <ele>989.59</ele>
        <time>2026-08-05T18:17:30.672Z</time>
      </trkpt>
      <trkpt lon="11.317822" lat="47.241481">
        <ele>985.566</ele>
        <time>2026-08-05T18:17:32.508Z</time>
      </trkpt>
      <trkpt lon="11.317653" lat="47.242219">
        <ele>980.988</ele>
        <time>2026-08-05T18:17:34.312Z</time>
      </trkpt>
      <trkpt lon="11.317599" lat="47.242977">
        <ele>976.525</ele>
        <time>2026-08-05T18:17:36.108Z</time>
      </trkpt>
      <trkpt lon="11.317629" lat="47.243495">
        <ele>974.23</ele>
        <time>2026-08-05T18:17:37.320Z</time>
      </trkpt>
      <trkpt lon="11.317721" lat="47.244020">
        <ele>972.669</ele>
        <time>2026-08-05T18:17:38.556Z</time>
      </trkpt>
      <trkpt lon="11.317994" lat="47.244811">
        <ele>970.944</ele>
        <time>2026-08-05T18:17:40.436Z</time>
      </trkpt>
      <trkpt lon="11.318416" lat="47.245575">
        <ele>967.672</ele>
        <time>2026-08-05T18:17:42.264Z</time>
      </trkpt>
      <trkpt lon="11.318779" lat="47.246069">
        <ele>965.537</ele>
        <time>2026-08-05T18:17:43.500Z</time>
      </trkpt>
      <trkpt lon="11.319443" lat="47.246784">
        <ele>961.814</ele>
        <time>2026-08-05T18:17:45.376Z</time>
      </trkpt>
      <trkpt lon="11.320209" lat="47.247436">
        <ele>958.755</ele>
        <time>2026-08-05T18:17:47.220Z</time>
      </trkpt>
      <trkpt lon="11.321101" lat="47.248054">
        <ele>955.629</ele>
        <time>2026-08-05T18:17:49.084Z</time>
      </trkpt>
      <trkpt lon="11.322090" lat="47.248625">
        <ele>951.803</ele>
        <time>2026-08-05T18:17:50.960Z</time>
      </trkpt>
      <trkpt lon="11.323836" lat="47.249427">
        <ele>946.56</ele>
        <time>2026-08-05T18:17:53.992Z</time>
      </trkpt>
      <trkpt lon="11.325001" lat="47.249855">
        <ele>945.19</ele>
        <time>2026-08-05T18:17:55.868Z</time>
      </trkpt>
      <trkpt lon="11.326567" lat="47.250319">
        <ele>944.965</ele>
        <time>2026-08-05T18:17:58.304Z</time>
      </trkpt>
      <trkpt lon="11.329052" lat="47.250859">
        <ele>943.559</ele>
        <time>2026-08-05T18:18:02.048Z</time>
      </trkpt>
      <trkpt lon="11.342897" lat="47.253119">
        <ele>912.085</ele>
        <time>2026-08-05T18:18:31.016Z</time>
      </trkpt>
      <trkpt lon="11.349892" lat="47.254207">
        <ele>881.489</ele>
        <time>2026-08-05T18:18:40.220Z</time>
      </trkpt>
      <trkpt lon="11.357376" lat="47.255161">
        <ele>851.608</ele>
        <time>2026-08-05T18:18:49.564Z</time>
      </trkpt>
      <trkpt lon="11.361964" lat="47.255779">
        <ele>822.013</ele>
        <time>2026-08-05T18:18:55.204Z</time>
      </trkpt>
      <trkpt lon="11.369373" lat="47.256998">
        <ele>804.052</ele>
        <time>2026-08-05T18:19:04.352Z</time>
      </trkpt>
      <trkpt lon="11.370718" lat="47.257319">
        <ele>810.745</ele>
        <time>2026-08-05T18:19:06.228Z</time>
      </trkpt>
      <trkpt lon="11.371592" lat="47.257609">
        <ele>817.092</ele>
        <time>2026-08-05T18:19:07.492Z</time>
      </trkpt>
      <trkpt lon="11.372324" lat="47.257932">
        <ele>824.559</ele>
        <time>2026-08-05T18:19:08.712Z</time>
      </trkpt>
      <trkpt lon="11.372954" lat="47.258303">
        <ele>832.608</ele>
        <time>2026-08-05T18:19:09.936Z</time>
      </trkpt>
      <trkpt lon="11.373478" lat="47.258713">
        <ele>840.921</ele>
        <time>2026-08-05T18:19:11.172Z</time>
      </trkpt>
      <trkpt lon="11.373707" lat="47.258937">
        <ele>845.015</ele>
        <time>2026-08-05T18:19:11.820Z</time>
      </trkpt>
      <trkpt lon="11.374060" lat="47.259388">
        <ele>852.745</ele>
        <time>2026-08-05T18:19:13.084Z</time>
      </trkpt>
      <trkpt lon="11.374281" lat="47.259838">
        <ele>859.799</ele>
        <time>2026-08-05T18:19:14.304Z</time>
      </trkpt>
      <trkpt lon="11.374397" lat="47.260277">
        <ele>863.935</ele>
        <time>2026-08-05T18:19:15.516Z</time>
      </trkpt>
      <trkpt lon="11.374421" lat="47.260742">
        <ele>864.496</ele>
        <time>2026-08-05T18:19:16.836Z</time>
      </trkpt>
      <trkpt lon="11.374103" lat="47.261856">
        <ele>854.529</ele>
        <time>2026-08-05T18:19:19.992Z</time>
      </trkpt>
      <trkpt lon="11.373879" lat="47.262278">
        <ele>850.776</ele>
        <time>2026-08-05T18:19:21.228Z</time>
      </trkpt>
      <trkpt lon="11.373602" lat="47.262667">
        <ele>848.03</ele>
        <time>2026-08-05T18:19:22.436Z</time>
      </trkpt>
      <trkpt lon="11.373438" lat="47.262853">
        <ele>846.812</ele>
        <time>2026-08-05T18:19:23.032Z</time>
      </trkpt>
      <trkpt lon="11.373256" lat="47.263029">
        <ele>845.554</ele>
        <time>2026-08-05T18:19:23.640Z</time>
      </trkpt>
      <trkpt lon="11.373046" lat="47.263199">
        <ele>844.219</ele>
        <time>2026-08-05T18:19:24.272Z</time>
      </trkpt>
      <trkpt lon="11.372821" lat="47.263348">
        <ele>842.891</ele>
        <time>2026-08-05T18:19:24.920Z</time>
      </trkpt>
      <trkpt lon="11.372548" lat="47.263494">
        <ele>841.337</ele>
        <time>2026-08-05T18:19:25.556Z</time>
      </trkpt>
      <trkpt lon="11.372278" lat="47.263607">
        <ele>839.719</ele>
        <time>2026-08-05T18:19:26.180Z</time>
      </trkpt>
      <trkpt lon="11.372000" lat="47.263694">
        <ele>837.981</ele>
        <time>2026-08-05T18:19:26.788Z</time>
      </trkpt>
      <trkpt lon="11.370877" lat="47.263793">
        <ele>827.366</ele>
        <time>2026-08-05T18:19:29.212Z</time>
      </trkpt>
      <trkpt lon="11.370336" lat="47.263723">
        <ele>820.129</ele>
        <time>2026-08-05T18:19:30.452Z</time>
      </trkpt>
      <trkpt lon="11.370086" lat="47.263665">
        <ele>816.454</ele>
        <time>2026-08-05T18:19:31.064Z</time>
      </trkpt>
      <trkpt lon="11.369620" lat="47.263512">
        <ele>809.738</ele>
        <time>2026-08-05T18:19:32.280Z</time>
      </trkpt>
      <trkpt lon="11.368388" lat="47.263049">
        <ele>795.942</ele>
        <time>2026-08-05T18:19:35.936Z</time>
      </trkpt>
      <trkpt lon="11.368031" lat="47.262953">
        <ele>791.983</ele>
        <time>2026-08-05T18:19:37.124Z</time>
      </trkpt>
      <trkpt lon="11.367689" lat="47.262880">
        <ele>786.616</ele>
        <time>2026-08-05T18:19:38.336Z</time>
      </trkpt>
      <trkpt lon="11.367205" lat="47.262805">
        <ele>776.452</ele>
        <time>2026-08-05T18:19:40.156Z</time>
      </trkpt>
      <trkpt lon="11.366591" lat="47.262748">
        <ele>760.014</ele>
        <time>2026-08-05T18:19:42.648Z</time>
      </trkpt>
      <trkpt lon="11.365870" lat="47.262683">
        <ele>736.353</ele>
        <time>2026-08-05T18:19:45.756Z</time>
      </trkpt>
      <trkpt lon="11.365191" lat="47.262602">
        <ele>714.393</ele>
        <time>2026-08-05T18:19:48.852Z</time>
      </trkpt>
      <trkpt lon="11.364711" lat="47.262571">
        <ele>699.872</ele>
        <time>2026-08-05T18:19:51.296Z</time>
      </trkpt>
      <trkpt lon="11.364468" lat="47.262562">
        <ele>692.592</ele>
        <time>2026-08-05T18:19:52.556Z</time>
      </trkpt>
      <trkpt lon="11.364229" lat="47.262544">
        <ele>685.224</ele>
        <time>2026-08-05T18:19:53.788Z</time>
      </trkpt>
      <trkpt lon="11.363995" lat="47.262511">
        <ele>677.28</ele>
        <time>2026-08-05T18:19:55.008Z</time>
      </trkpt>
      <trkpt lon="11.363396" lat="47.262380">
        <ele>657.019</ele>
        <time>2026-08-05T18:19:58.084Z</time>
      </trkpt>
      <trkpt lon="11.363162" lat="47.262315">
        <ele>649.025</ele>
        <time>2026-08-05T18:19:59.296Z</time>
      </trkpt>
      <trkpt lon="11.362423" lat="47.262065">
        <ele>629.821</ele>
        <time>2026-08-05T18:20:03.280Z</time>
      </trkpt>
      <trkpt lon="11.362316" lat="47.262030">
        <ele>627.534</ele>
        <time>2026-08-05T18:20:03.884Z</time>
      </trkpt>
      <trkpt lon="11.362209" lat="47.261998">
        <ele>625.225</ele>
        <time>2026-08-05T18:20:04.476Z</time>
      </trkpt>
      <trkpt lon="11.361697" lat="47.261926">
        <ele>615.702</ele>
        <time>2026-08-05T18:20:07.500Z</time>
      </trkpt>
      <trkpt lon="11.361370" lat="47.261905">
        <ele>610.938</ele>
        <time>2026-08-05T18:20:09.384Z</time>
      </trkpt>
      <trkpt lon="11.360571" lat="47.261783">
        <ele>604.432</ele>
        <time>2026-08-05T18:20:13.688Z</time>
      </trkpt>
      <trkpt lon="11.359636" lat="47.261714">
        <ele>599.946</ele>
        <time>2026-08-05T18:20:18.688Z</time>
      </trkpt>
      <trkpt lon="11.358695" lat="47.261602">
        <ele>595.662</ele>
        <time>2026-08-05T18:20:23.592Z</time>
      </trkpt>
      <trkpt lon="11.357031" lat="47.261496">
        <ele>592.662</ele>
        <time>2026-08-05T18:20:31.124Z</time>
      </trkpt>
      <trkpt lon="11.355752" lat="47.261387">
        <ele>589.976</ele>
        <time>2026-08-05T18:20:35.428Z</time>
      </trkpt>
      <trkpt lon="11.349085" lat="47.260693">
        <ele>584.994</ele>
        <time>2026-08-05T18:20:54.484Z</time>
      </trkpt>
      <trkpt lon="11.347252" lat="47.260452">
        <ele>581.827</ele>
        <time>2026-08-05T18:21:00.852Z</time>
      </trkpt>
      <trkpt lon="11.346133" lat="47.260298">
        <ele>580.296</ele>
        <time>2026-08-05T18:21:05.844Z</time>
      </trkpt>
      <trkpt lon="11.344818" lat="47.260182">
        <ele>580.616</ele>
        <time>2026-08-05T18:21:13.908Z</time>
      </trkpt>
      <trkpt lon="11.343133" lat="47.260008">
        <ele>580.626</ele>
        <time>2026-08-05T18:21:24.384Z</time>
      </trkpt>
      <trkpt lon="11.342451" lat="47.259959">
        <ele>580.584</ele>
        <time>2026-08-05T18:21:27.468Z</time>
      </trkpt>
      <trkpt lon="11.341716" lat="47.259862">
        <ele>580.632</ele>
        <time>2026-08-05T18:21:30.532Z</time>
      </trkpt>
      <trkpt lon="11.338917" lat="47.259565">
        <ele>581.13</ele>
        <time>2026-08-05T18:21:41.100Z</time>
      </trkpt>
      <trkpt lon="11.337797" lat="47.259460">
        <ele>580.982</ele>
        <time>2026-08-05T18:21:46.032Z</time>
      </trkpt>
      <trkpt lon="11.337694" lat="47.259450">
        <ele>580.965</ele>
        <time>2026-08-05T18:21:46.640Z</time>
      </trkpt>
      <trkpt lon="11.337602" lat="47.259433">
        <ele>580.959</ele>
        <time>2026-08-05T18:21:47.304Z</time>
      </trkpt>
      <trkpt lon="11.337503" lat="47.259404">
        <ele>580.965</ele>
        <time>2026-08-05T18:21:47.984Z</time>
      </trkpt>
      <trkpt lon="11.337429" lat="47.259375">
        <ele>580.968</ele>
        <time>2026-08-05T18:21:48.600Z</time>
      </trkpt>
      <trkpt lon="11.337370" lat="47.259343">
        <ele>580.981</ele>
        <time>2026-08-05T18:21:49.212Z</time>
      </trkpt>
      <trkpt lon="11.337321" lat="47.259307">
        <ele>581.001</ele>
        <time>2026-08-05T18:21:49.812Z</time>
      </trkpt>
      <trkpt lon="11.337278" lat="47.259265">
        <ele>581.02</ele>
        <time>2026-08-05T18:21:50.436Z</time>
      </trkpt>
      <trkpt lon="11.337243" lat="47.259219">
        <ele>581.032</ele>
        <time>2026-08-05T18:21:51.084Z</time>
      </trkpt>
      <trkpt lon="11.337220" lat="47.259167">
        <ele>581.032</ele>
        <time>2026-08-05T18:21:51.736Z</time>
      </trkpt>
      <trkpt lon="11.337213" lat="47.259110">
        <ele>581.005</ele>
        <time>2026-08-05T18:21:52.400Z</time>
      </trkpt>
      <trkpt lon="11.337223" lat="47.259055">
        <ele>580.962</ele>
        <time>2026-08-05T18:21:53.008Z</time>
      </trkpt>
      <trkpt lon="11.337246" lat="47.259000">
        <ele>580.907</ele>
        <time>2026-08-05T18:21:53.632Z</time>
      </trkpt>
      <trkpt lon="11.337284" lat="47.258942">
        <ele>580.848</ele>
        <time>2026-08-05T18:21:54.288Z</time>
      </trkpt>
      <trkpt lon="11.337391" lat="47.258827">
        <ele>580.743</ele>
        <time>2026-08-05T18:21:55.580Z</time>
      </trkpt>
      <trkpt lon="11.337456" lat="47.258775">
        <ele>580.701</ele>
        <time>2026-08-05T18:21:56.196Z</time>
      </trkpt>
      <trkpt lon="11.337535" lat="47.258727">
        <ele>580.66</ele>
        <time>2026-08-05T18:21:56.828Z</time>
      </trkpt>
      <trkpt lon="11.338977" lat="47.258051">
        <ele>580.464</ele>
        <time>2026-08-05T18:22:06.288Z</time>
      </trkpt>
      <trkpt lon="11.339096" lat="47.257999">
        <ele>580.459</ele>
        <time>2026-08-05T18:22:08.780Z</time>
      </trkpt>
      <trkpt lon="11.339215" lat="47.257951">
        <ele>580.472</ele>
        <time>2026-08-05T18:22:27.624Z</time>
      </trkpt>
      <trkpt lon="11.339331" lat="47.257906">
        <ele>580.468</ele>
        <time>2026-08-05T18:22:30.780Z</time>
      </trkpt>
      <trkpt lon="11.339440" lat="47.257872">
        <ele>580.465</ele>
        <time>2026-08-05T18:22:33.244Z</time>
      </trkpt>
      <trkpt lon="11.339598" lat="47.257835">
        <ele>580.467</ele>
        <time>2026-08-05T18:22:36.272Z</time>
      </trkpt>
      <trkpt lon="11.339709" lat="47.257818">
        <ele>580.462</ele>
        <time>2026-08-05T18:22:37.556Z</time>
      </trkpt>
      <trkpt lon="11.339919" lat="47.257805">
        <ele>580.461</ele>
        <time>2026-08-05T18:22:41.680Z</time>
      </trkpt>
      <trkpt lon="11.340033" lat="47.257797">
        <ele>580.469</ele>
        <time>2026-08-05T18:23:05.000Z</time>
      </trkpt>
      <trkpt lon="11.340269" lat="47.257782">
        <ele>580.467</ele>
        <time>2026-08-05T18:23:06.868Z</time>
      </trkpt>
      <trkpt lon="11.340776" lat="47.257780">
        <ele>580.476</ele>
        <time>2026-08-05T18:23:09.408Z</time>
      </trkpt>
      <trkpt lon="11.341226" lat="47.257815">
        <ele>580.482</ele>
        <time>2026-08-05T18:23:11.280Z</time>
      </trkpt>
      <trkpt lon="11.342253" lat="47.257921">
        <ele>580.487</ele>
        <time>2026-08-05T18:23:15.180Z</time>
      </trkpt>
      <trkpt lon="11.342618" lat="47.257933">
        <ele>580.484</ele>
        <time>2026-08-05T18:23:16.524Z</time>
      </trkpt>
      <trkpt lon="11.343835" lat="47.258096">
        <ele>580.455</ele>
        <time>2026-08-05T18:23:21.608Z</time>
      </trkpt>
      <trkpt lon="11.344400" lat="47.258150">
        <ele>580.439</ele>
        <time>2026-08-05T18:23:24.820Z</time>
      </trkpt>
      <trkpt lon="11.344681" lat="47.258176">
        <ele>580.444</ele>
        <time>2026-08-05T18:23:27.548Z</time>
      </trkpt>
      <trkpt lon="11.344786" lat="47.258175">
        <ele>580.442</ele>
        <time>2026-08-05T18:23:28.804Z</time>
      </trkpt>
      <trkpt lon="11.344893" lat="47.258165">
        <ele>580.445</ele>
        <time>2026-08-05T18:23:30.024Z</time>
      </trkpt>
      <trkpt lon="11.344951" lat="47.258154">
        <ele>580.444</ele>
        <time>2026-08-05T18:23:30.736Z</time>
      </trkpt>
      <trkpt lon="11.345017" lat="47.258134">
        <ele>580.446</ele>
        <time>2026-08-05T18:23:31.384Z</time>
      </trkpt>
      <trkpt lon="11.345073" lat="47.258111">
        <ele>580.446</ele>
        <time>2026-08-05T18:23:32.000Z</time>
      </trkpt>
      <trkpt lon="11.345130" lat="47.258078">
        <ele>580.445</ele>
        <time>2026-08-05T18:23:32.688Z</time>
      </trkpt>
      <trkpt lon="11.345182" lat="47.258037">
        <ele>580.449</ele>
        <time>2026-08-05T18:23:33.304Z</time>
      </trkpt>
      <trkpt lon="11.345221" lat="47.257992">
        <ele>580.448</ele>
        <time>2026-08-05T18:23:33.920Z</time>
      </trkpt>
      <trkpt lon="11.345296" lat="47.257849">
        <ele>580.446</ele>
        <time>2026-08-05T18:23:35.820Z</time>
      </trkpt>
      <trkpt lon="11.345338" lat="47.257741">
        <ele>580.448</ele>
        <time>2026-08-05T18:23:37.756Z</time>
      </trkpt>
      <trkpt lon="11.345356" lat="47.257670">
        <ele>580.447</ele>
        <time>2026-08-05T18:23:39.100Z</time>
      </trkpt>
      <trkpt lon="11.345359" lat="47.257641">
        <ele>580.445</ele>
        <time>2026-08-05T18:23:39.756Z</time>
      </trkpt>
      <trkpt lon="11.345359" lat="47.257618">
        <ele>580.448</ele>
        <time>2026-08-05T18:23:40.352Z</time>
      </trkpt>
      <trkpt lon="11.345356" lat="47.257594">
        <ele>580.448</ele>
        <time>2026-08-05T18:23:40.952Z</time>
      </trkpt>
      <trkpt lon="11.345348" lat="47.257571">
        <ele>580.449</ele>
        <time>2026-08-05T18:23:41.580Z</time>
      </trkpt>
      <trkpt lon="11.345334" lat="47.257546">
        <ele>580.451</ele>
        <time>2026-08-05T18:23:42.204Z</time>
      </trkpt>
      <trkpt lon="11.345321" lat="47.257525">
        <ele>580.447</ele>
        <time>2026-08-05T18:23:42.876Z</time>
      </trkpt>
      <trkpt lon="11.345307" lat="47.257509">
        <ele>580.451</ele>
        <time>2026-08-05T18:23:43.492Z</time>
      </trkpt>
      <trkpt lon="11.345290" lat="47.257497">
        <ele>580.457</ele>
        <time>2026-08-05T18:23:44.108Z</time>
      </trkpt>
      <trkpt lon="11.345270" lat="47.257488">
        <ele>580.461</ele>
        <time>2026-08-05T18:23:44.720Z</time>
      </trkpt>
      <trkpt lon="11.345246" lat="47.257483">
        <ele>580.468</ele>
        <time>2026-08-05T18:23:45.336Z</time>
      </trkpt>
      <trkpt lon="11.345126" lat="47.257482">
        <ele>580.47</ele>
        <time>2026-08-05T18:23:47.828Z</time>
      </trkpt>
      <trkpt lon="11.345094" lat="47.257479">
        <ele>580.468</ele>
        <time>2026-08-05T18:23:48.428Z</time>
      </trkpt>
      <trkpt lon="11.345061" lat="47.257474">
        <ele>580.466</ele>
        <time>2026-08-05T18:23:49.032Z</time>
      </trkpt>
      <trkpt lon="11.345029" lat="47.257467">
        <ele>580.462</ele>
        <time>2026-08-05T18:23:49.632Z</time>
      </trkpt>
      <trkpt lon="11.344997" lat="47.257456">
        <ele>580.458</ele>
        <time>2026-08-05T18:23:50.248Z</time>
      </trkpt>
      <trkpt lon="11.344976" lat="47.257448">
        <ele>580.449</ele>
        <time>2026-08-05T18:23:50.852Z</time>
      </trkpt>
      <trkpt lon="11.344960" lat="47.257441">
        <ele>580.453</ele>
        <time>2026-08-05T18:23:51.452Z</time>
      </trkpt>
      <trkpt lon="11.344949" lat="47.257428">
        <ele>580.448</ele>
        <time>2026-08-05T18:23:52.080Z</time>
      </trkpt>
      <trkpt lon="11.344940" lat="47.257414">
        <ele>580.445</ele>
        <time>2026-08-05T18:23:52.720Z</time>
      </trkpt>
      <trkpt lon="11.344933" lat="47.257396">
        <ele>580.451</ele>
        <time>2026-08-05T18:23:53.336Z</time>
      </trkpt>
      <trkpt lon="11.344924" lat="47.257318">
        <ele>580.451</ele>
        <time>2026-08-05T18:23:55.172Z</time>
      </trkpt>
      <trkpt lon="11.344939" lat="47.257147">
        <ele>580.446</ele>
        <time>2026-08-05T18:23:57.876Z</time>
      </trkpt>
      <trkpt lon="11.344974" lat="47.257011">
        <ele>580.437</ele>
        <time>2026-08-05T18:24:00.336Z</time>
      </trkpt>
    </trkseg>
    <trkseg>
      <trkpt lon="-122.294505" lat="47.518932">
        <ele>8.4943</ele>
        <time>2024-06-15T00:00:34.000Z</time>
      </trkpt>
    </trkseg>
    <trkseg>
      <trkpt lon="11.346496" lat="47.257756">
        <ele>580.394</ele>
        <time>2026-08-06T16:45:47.896Z</time>
      </trkpt>
    </trkseg>
    <trkseg>
      <trkpt lon="8.558324" lat="50.041026">
        <ele>104.537</ele>
        <time>2026-08-07T15:22:54.348Z</time>
      </trkpt>
    </trkseg>
    <trkseg>
      <trkpt lon="11.791723" lat="48.350902">
        <ele>448.228</ele>
        <time>2026-08-07T15:25:06.736Z</time>
      </trkpt>
      <trkpt lon="11.791718" lat="48.350911">
        <ele>446.426</ele>
        <time>2026-08-07T15:36:06.372Z</time>
      </trkpt>
      <trkpt lon="11.791713" lat="48.350921">
        <ele>446.425</ele>
        <time>2026-08-07T15:46:37.292Z</time>
      </trkpt>
    </trkseg>
    <trkseg>
      <trkpt lon="11.079959" lat="49.496161">
        <ele>311.947</ele>
        <time>2026-08-07T15:49:52.380Z</time>
      </trkpt>
      <trkpt lon="11.069544" lat="49.494062">
        <ele>310.439</ele>
        <time>2026-08-07T15:54:07.336Z</time>
      </trkpt>
      <trkpt lon="11.069597" lat="49.494225">
        <ele>310.753</ele>
        <time>2026-08-07T16:14:33.020Z</time>
      </trkpt>
      <trkpt lon="11.069616" lat="49.494445">
        <ele>310.387</ele>
        <time>2026-08-07T16:25:32.768Z</time>
      </trkpt>
      <trkpt lon="11.069676" lat="49.494438">
        <ele>310.335</ele>
        <time>2026-08-07T16:29:49.628Z</time>
      </trkpt>
      <trkpt lon="11.069700" lat="49.494436">
        <ele>310.341</ele>
        <time>2026-08-07T16:29:59.872Z</time>
      </trkpt>
    </trkseg>
    <trkseg>
      <trkpt lon="11.803984" lat="48.353578">
        <ele>445.453</ele>
        <time>2026-08-07T17:32:10.492Z</time>
      </trkpt>
      <trkpt lon="11.804825" lat="48.353657">
        <ele>446.386</ele>
        <time>2026-08-07T17:37:49.172Z</time>
      </trkpt>
    </trkseg>
    <trkseg>
      <trkpt lon="9.354906" lat="49.009803">
        <ele>398.823</ele>
        <time>2026-08-08T05:42:48.292Z</time>
      </trkpt>
      <trkpt lon="9.354879" lat="49.009797">
        <ele>398.821</ele>
        <time>2026-08-08T06:21:30.066Z</time>
      </trkpt>
      <trkpt lon="9.354865" lat="49.009795">
        <ele>398.824</ele>
        <time>2026-08-08T06:21:33.026Z</time>
      </trkpt>
      <trkpt lon="9.354848" lat="49.009791">
        <ele>398.827</ele>
        <time>2026-08-08T06:21:33.610Z</time>
      </trkpt>
      <trkpt lon="9.354830" lat="49.009785">
        <ele>398.827</ele>
        <time>2026-08-08T06:21:34.206Z</time>
      </trkpt>
      <trkpt lon="9.354812" lat="49.009777">
        <ele>398.84</ele>
        <time>2026-08-08T06:21:34.792Z</time>
      </trkpt>
      <trkpt lon="9.354791" lat="49.009765">
        <ele>398.832</ele>
        <time>2026-08-08T06:21:35.380Z</time>
      </trkpt>
      <trkpt lon="9.354765" lat="49.009745">
        <ele>398.848</ele>
        <time>2026-08-08T06:21:36.552Z</time>
      </trkpt>
      <trkpt lon="9.354755" lat="49.009737">
        <ele>398.865</ele>
        <time>2026-08-08T06:21:37.132Z</time>
      </trkpt>
      <trkpt lon="9.354747" lat="49.009728">
        <ele>398.874</ele>
        <time>2026-08-08T06:21:37.718Z</time>
      </trkpt>
      <trkpt lon="9.354735" lat="49.009709">
        <ele>398.894</ele>
        <time>2026-08-08T06:21:38.898Z</time>
      </trkpt>
      <trkpt lon="9.354725" lat="49.009675">
        <ele>398.879</ele>
        <time>2026-08-08T06:21:40.086Z</time>
      </trkpt>
      <trkpt lon="9.354723" lat="49.009626">
        <ele>398.852</ele>
        <time>2026-08-08T06:21:41.264Z</time>
      </trkpt>
      <trkpt lon="9.354733" lat="49.009542">
        <ele>398.802</ele>
        <time>2026-08-08T06:21:43.030Z</time>
      </trkpt>
      <trkpt lon="9.354746" lat="49.009496">
        <ele>398.773</ele>
        <time>2026-08-08T06:21:44.220Z</time>
      </trkpt>
      <trkpt lon="9.354753" lat="49.009478">
        <ele>398.766</ele>
        <time>2026-08-08T06:21:44.828Z</time>
      </trkpt>
      <trkpt lon="9.354762" lat="49.009464">
        <ele>398.76</ele>
        <time>2026-08-08T06:21:45.404Z</time>
      </trkpt>
      <trkpt lon="9.354773" lat="49.009452">
        <ele>398.749</ele>
        <time>2026-08-08T06:21:45.988Z</time>
      </trkpt>
      <trkpt lon="9.354786" lat="49.009442">
        <ele>398.741</ele>
        <time>2026-08-08T06:21:46.584Z</time>
      </trkpt>
      <trkpt lon="9.354799" lat="49.009436">
        <ele>398.732</ele>
        <time>2026-08-08T06:21:47.182Z</time>
      </trkpt>
      <trkpt lon="9.354810" lat="49.009431">
        <ele>398.724</ele>
        <time>2026-08-08T06:21:47.770Z</time>
      </trkpt>
      <trkpt lon="9.354821" lat="49.009428">
        <ele>398.716</ele>
        <time>2026-08-08T06:21:48.364Z</time>
      </trkpt>
      <trkpt lon="9.354843" lat="49.009424">
        <ele>398.706</ele>
        <time>2026-08-08T06:21:50.098Z</time>
      </trkpt>
      <trkpt lon="9.354874" lat="49.009424">
        <ele>398.696</ele>
        <time>2026-08-08T06:21:51.832Z</time>
      </trkpt>
      <trkpt lon="9.354895" lat="49.009426">
        <ele>398.676</ele>
        <time>2026-08-08T06:22:02.252Z</time>
      </trkpt>
      <trkpt lon="9.354955" lat="49.009435">
        <ele>398.651</ele>
        <time>2026-08-08T06:22:33.620Z</time>
      </trkpt>
      <trkpt lon="9.355060" lat="49.009455">
        <ele>398.652</ele>
        <time>2026-08-08T06:22:36.510Z</time>
      </trkpt>
      <trkpt lon="9.355303" lat="49.009492">
        <ele>398.66</ele>
        <time>2026-08-08T06:22:38.262Z</time>
      </trkpt>
      <trkpt lon="9.355803" lat="49.009561">
        <ele>398.944</ele>
        <time>2026-08-08T06:22:40.606Z</time>
      </trkpt>
      <trkpt lon="9.358257" lat="49.009799">
        <ele>415.481</ele>
        <time>2026-08-08T06:22:48.874Z</time>
      </trkpt>
      <trkpt lon="9.360550" lat="49.010062">
        <ele>431.535</ele>
        <time>2026-08-08T06:22:56.400Z</time>
      </trkpt>
      <trkpt lon="9.361743" lat="49.010329">
        <ele>442.813</ele>
        <time>2026-08-08T06:23:00.484Z</time>
      </trkpt>
      <trkpt lon="9.362223" lat="49.010492">
        <ele>447.614</ele>
        <time>2026-08-08T06:23:02.242Z</time>
      </trkpt>
      <trkpt lon="9.362678" lat="49.010692">
        <ele>451.308</ele>
        <time>2026-08-08T06:23:03.984Z</time>
      </trkpt>
      <trkpt lon="9.363284" lat="49.011024">
        <ele>454.251</ele>
        <time>2026-08-08T06:23:06.316Z</time>
      </trkpt>
      <trkpt lon="9.364259" lat="49.011678">
        <ele>455.534</ele>
        <time>2026-08-08T06:23:09.810Z</time>
      </trkpt>
      <trkpt lon="9.365487" lat="49.012652">
        <ele>458.117</ele>
        <time>2026-08-08T06:23:13.892Z</time>
      </trkpt>
      <trkpt lon="9.366141" lat="49.013321">
        <ele>459.468</ele>
        <time>2026-08-08T06:23:16.206Z</time>
      </trkpt>
      <trkpt lon="9.366578" lat="49.013891">
        <ele>457.984</ele>
        <time>2026-08-08T06:23:17.944Z</time>
      </trkpt>
      <trkpt lon="9.366931" lat="49.014530">
        <ele>457.871</ele>
        <time>2026-08-08T06:23:19.698Z</time>
      </trkpt>
      <trkpt lon="9.367180" lat="49.015218">
        <ele>457.697</ele>
        <time>2026-08-08T06:23:21.438Z</time>
      </trkpt>
      <trkpt lon="9.367307" lat="49.015957">
        <ele>455.677</ele>
        <time>2026-08-08T06:23:23.182Z</time>
      </trkpt>
      <trkpt lon="9.367307" lat="49.016469">
        <ele>454.603</ele>
        <time>2026-08-08T06:23:24.338Z</time>
      </trkpt>
      <trkpt lon="9.367187" lat="49.017290">
        <ele>451.035</ele>
        <time>2026-08-08T06:23:26.120Z</time>
      </trkpt>
      <trkpt lon="9.366941" lat="49.018119">
        <ele>444.805</ele>
        <time>2026-08-08T06:23:27.866Z</time>
      </trkpt>
      <trkpt lon="9.366407" lat="49.019233">
        <ele>441.889</ele>
        <time>2026-08-08T06:23:30.178Z</time>
      </trkpt>
      <trkpt lon="9.365136" lat="49.021169">
        <ele>449.815</ele>
        <time>2026-08-08T06:23:34.282Z</time>
      </trkpt>
      <trkpt lon="9.358059" lat="49.030787">
        <ele>468.669</ele>
        <time>2026-08-08T06:23:56.558Z</time>
      </trkpt>
      <trkpt lon="9.355243" lat="49.033559">
        <ele>465.755</ele>
        <time>2026-08-08T06:24:03.542Z</time>
      </trkpt>
      <trkpt lon="9.353636" lat="49.034873">
        <ele>467.724</ele>
        <time>2026-08-08T06:24:07.042Z</time>
      </trkpt>
      <trkpt lon="9.348372" lat="49.038418">
        <ele>483.324</ele>
        <time>2026-08-08T06:24:17.530Z</time>
      </trkpt>
      <trkpt lon="9.334996" lat="49.046509">
        <ele>483.569</ele>
        <time>2026-08-08T06:24:44.608Z</time>
      </trkpt>
      <trkpt lon="9.317245" lat="49.055492">
        <ele>491.344</ele>
        <time>2026-08-08T06:25:15.052Z</time>
      </trkpt>
      <trkpt lon="9.306133" lat="49.060327">
        <ele>492.745</ele>
        <time>2026-08-08T06:27:04.436Z</time>
      </trkpt>
      <trkpt lon="9.286922" lat="49.067495">
        <ele>499.504</ele>
        <time>2026-08-08T06:27:34.542Z</time>
      </trkpt>
      <trkpt lon="9.265835" lat="49.074447">
        <ele>504.552</ele>
        <time>2026-08-08T06:28:05.046Z</time>
      </trkpt>
      <trkpt lon="9.244548" lat="49.081260">
        <ele>526.281</ele>
        <time>2026-08-08T06:28:35.570Z</time>
      </trkpt>
      <trkpt lon="9.225475" lat="49.088220">
        <ele>512.157</ele>
        <time>2026-08-08T06:29:03.258Z</time>
      </trkpt>
      <trkpt lon="9.214791" lat="49.093077">
        <ele>517.127</ele>
        <time>2026-08-08T06:29:26.754Z</time>
      </trkpt>
      <trkpt lon="9.209122" lat="49.096110">
        <ele>527.181</ele>
        <time>2026-08-08T06:29:36.114Z</time>
      </trkpt>
      <trkpt lon="9.201486" lat="49.100971">
        <ele>536.845</ele>
        <time>2026-08-08T06:29:49.872Z</time>
      </trkpt>
      <trkpt lon="9.185804" lat="49.112788">
        <ele>549.69</ele>
        <time>2026-08-08T06:30:20.186Z</time>
      </trkpt>
      <trkpt lon="9.170740" lat="49.125473">
        <ele>545.067</ele>
        <time>2026-08-08T06:30:50.202Z</time>
      </trkpt>
      <trkpt lon="9.156177" lat="49.138925">
        <ele>540.881</ele>
        <time>2026-08-08T06:31:20.734Z</time>
      </trkpt>
      <trkpt lon="9.142348" lat="49.152551">
        <ele>543.157</ele>
        <time>2026-08-08T06:31:51.112Z</time>
      </trkpt>
      <trkpt lon="9.128604" lat="49.166077">
        <ele>547.363</ele>
        <time>2026-08-08T06:32:21.550Z</time>
      </trkpt>
      <trkpt lon="9.115613" lat="49.180788">
        <ele>522.817</ele>
        <time>2026-08-08T06:32:52.032Z</time>
      </trkpt>
      <trkpt lon="9.111720" lat="49.184893">
        <ele>524.296</ele>
        <time>2026-08-08T06:33:00.788Z</time>
      </trkpt>
      <trkpt lon="9.106893" lat="49.189049">
        <ele>524.709</ele>
        <time>2026-08-08T06:33:10.208Z</time>
      </trkpt>
      <trkpt lon="9.102255" lat="49.192466">
        <ele>527.025</ele>
        <time>2026-08-08T06:33:18.364Z</time>
      </trkpt>
      <trkpt lon="9.097852" lat="49.195200">
        <ele>528.16</ele>
        <time>2026-08-08T06:33:25.404Z</time>
      </trkpt>
      <trkpt lon="9.092596" lat="49.198390">
        <ele>521.562</ele>
        <time>2026-08-08T06:33:33.702Z</time>
      </trkpt>
      <trkpt lon="9.090291" lat="49.200163">
        <ele>513.847</ele>
        <time>2026-08-08T06:33:37.794Z</time>
      </trkpt>
      <trkpt lon="9.087905" lat="49.202351">
        <ele>505.313</ele>
        <time>2026-08-08T06:33:42.474Z</time>
      </trkpt>
      <trkpt lon="9.078725" lat="49.211628">
        <ele>513.91</ele>
        <time>2026-08-08T06:34:01.832Z</time>
      </trkpt>
      <trkpt lon="9.075467" lat="49.213982">
        <ele>528.096</ele>
        <time>2026-08-08T06:34:07.668Z</time>
      </trkpt>
      <trkpt lon="9.073683" lat="49.215038">
        <ele>533.584</ele>
        <time>2026-08-08T06:34:10.612Z</time>
      </trkpt>
      <trkpt lon="9.072534" lat="49.215596">
        <ele>537.123</ele>
        <time>2026-08-08T06:34:12.366Z</time>
      </trkpt>
      <trkpt lon="9.071314" lat="49.216088">
        <ele>540.559</ele>
        <time>2026-08-08T06:34:14.130Z</time>
      </trkpt>
      <trkpt lon="9.069561" lat="49.216656">
        <ele>539.912</ele>
        <time>2026-08-08T06:34:16.538Z</time>
      </trkpt>
      <trkpt lon="9.068172" lat="49.217022">
        <ele>536.08</ele>
        <time>2026-08-08T06:34:18.326Z</time>
      </trkpt>
      <trkpt lon="9.066302" lat="49.217400">
        <ele>532.825</ele>
        <time>2026-08-08T06:34:20.648Z</time>
      </trkpt>
      <trkpt lon="9.063353" lat="49.217816">
        <ele>527.591</ele>
        <time>2026-08-08T06:34:24.178Z</time>
      </trkpt>
      <trkpt lon="9.051802" lat="49.218776">
        <ele>524.035</ele>
        <time>2026-08-08T06:34:37.626Z</time>
      </trkpt>
      <trkpt lon="9.036817" lat="49.219220">
        <ele>531.387</ele>
        <time>2026-08-08T06:34:54.974Z</time>
      </trkpt>
      <trkpt lon="9.033557" lat="49.219125">
        <ele>532.918</ele>
        <time>2026-08-08T06:34:58.756Z</time>
      </trkpt>
      <trkpt lon="9.030804" lat="49.218895">
        <ele>530.065</ele>
        <time>2026-08-08T06:35:01.922Z</time>
      </trkpt>
      <trkpt lon="9.027510" lat="49.218443">
        <ele>525.144</ele>
        <time>2026-08-08T06:35:05.722Z</time>
      </trkpt>
      <trkpt lon="9.023717" lat="49.217710">
        <ele>520.335</ele>
        <time>2026-08-08T06:35:10.156Z</time>
      </trkpt>
      <trkpt lon="9.016448" lat="49.215853">
        <ele>518.001</ele>
        <time>2026-08-08T06:35:18.854Z</time>
      </trkpt>
      <trkpt lon="9.014987" lat="49.215444">
        <ele>516.702</ele>
        <time>2026-08-08T06:35:20.636Z</time>
      </trkpt>
      <trkpt lon="9.014010" lat="49.215206">
        <ele>517.115</ele>
        <time>2026-08-08T06:35:21.814Z</time>
      </trkpt>
      <trkpt lon="9.012023" lat="49.214859">
        <ele>520.091</ele>
        <time>2026-08-08T06:35:24.148Z</time>
      </trkpt>
      <trkpt lon="9.010536" lat="49.214695">
        <ele>519.388</ele>
        <time>2026-08-08T06:35:25.868Z</time>
      </trkpt>
      <trkpt lon="9.008487" lat="49.214581">
        <ele>515.39</ele>
        <time>2026-08-08T06:35:28.208Z</time>
      </trkpt>
      <trkpt lon="9.006442" lat="49.214576">
        <ele>511.06</ele>
        <time>2026-08-08T06:35:30.522Z</time>
      </trkpt>
      <trkpt lon="9.001805" lat="49.214803">
        <ele>502.247</ele>
        <time>2026-08-08T06:35:35.760Z</time>
      </trkpt>
      <trkpt lon="8.977156" lat="49.217876">
        <ele>474.529</ele>
        <time>2026-08-08T06:36:04.932Z</time>
      </trkpt>
      <trkpt lon="8.973257" lat="49.218395">
        <ele>447.452</ele>
        <time>2026-08-08T06:36:09.366Z</time>
      </trkpt>
      <trkpt lon="8.969229" lat="49.218944">
        <ele>422.718</ele>
        <time>2026-08-08T06:36:13.798Z</time>
      </trkpt>
      <trkpt lon="8.964059" lat="49.219742">
        <ele>419.804</ele>
        <time>2026-08-08T06:36:19.498Z</time>
      </trkpt>
      <trkpt lon="8.961401" lat="49.220352">
        <ele>428.531</ele>
        <time>2026-08-08T06:36:22.664Z</time>
      </trkpt>
      <trkpt lon="8.953635" lat="49.222601">
        <ele>452.71</ele>
        <time>2026-08-08T06:36:32.802Z</time>
      </trkpt>
      <trkpt lon="8.931086" lat="49.228912">
        <ele>433.916</ele>
        <time>2026-08-08T06:37:03.222Z</time>
      </trkpt>
      <trkpt lon="8.921613" lat="49.231788">
        <ele>407.565</ele>
        <time>2026-08-08T06:37:15.262Z</time>
      </trkpt>
      <trkpt lon="8.918263" lat="49.233036">
        <ele>388.31</ele>
        <time>2026-08-08T06:37:19.698Z</time>
      </trkpt>
      <trkpt lon="8.914129" lat="49.234867">
        <ele>363.886</ele>
        <time>2026-08-08T06:37:25.394Z</time>
      </trkpt>
      <trkpt lon="8.905776" lat="49.239244">
        <ele>365.117</ele>
        <time>2026-08-08T06:37:38.062Z</time>
      </trkpt>
      <trkpt lon="8.895803" lat="49.244774">
        <ele>371.162</ele>
        <time>2026-08-08T06:37:55.168Z</time>
      </trkpt>
      <trkpt lon="8.891139" lat="49.247251">
        <ele>357.722</ele>
        <time>2026-08-08T06:38:03.402Z</time>
      </trkpt>
      <trkpt lon="8.884380" lat="49.251856">
        <ele>334.274</ele>
        <time>2026-08-08T06:38:16.548Z</time>
      </trkpt>
      <trkpt lon="8.883566" lat="49.252520">
        <ele>328.691</ele>
        <time>2026-08-08T06:38:18.330Z</time>
      </trkpt>
      <trkpt lon="8.883109" lat="49.253034">
        <ele>329.667</ele>
        <time>2026-08-08T06:38:19.620Z</time>
      </trkpt>
      <trkpt lon="8.882785" lat="49.253502">
        <ele>331.914</ele>
        <time>2026-08-08T06:38:20.780Z</time>
      </trkpt>
      <trkpt lon="8.882540" lat="49.253980">
        <ele>334.679</ele>
        <time>2026-08-08T06:38:21.964Z</time>
      </trkpt>
      <trkpt lon="8.882377" lat="49.254458">
        <ele>337.575</ele>
        <time>2026-08-08T06:38:23.166Z</time>
      </trkpt>
      <trkpt lon="8.882301" lat="49.254903">
        <ele>340.154</ele>
        <time>2026-08-08T06:38:24.324Z</time>
      </trkpt>
      <trkpt lon="8.882311" lat="49.255543">
        <ele>342.268</ele>
        <time>2026-08-08T06:38:26.076Z</time>
      </trkpt>
      <trkpt lon="8.882389" lat="49.255949">
        <ele>342.508</ele>
        <time>2026-08-08T06:38:27.260Z</time>
      </trkpt>
      <trkpt lon="8.882607" lat="49.256527">
        <ele>340.625</ele>
        <time>2026-08-08T06:38:29.026Z</time>
      </trkpt>
      <trkpt lon="8.882811" lat="49.256886">
        <ele>337.94</ele>
        <time>2026-08-08T06:38:30.194Z</time>
      </trkpt>
      <trkpt lon="8.883217" lat="49.257405">
        <ele>333.653</ele>
        <time>2026-08-08T06:38:31.970Z</time>
      </trkpt>
      <trkpt lon="8.883706" lat="49.257875">
        <ele>330.358</ele>
        <time>2026-08-08T06:38:33.712Z</time>
      </trkpt>
      <trkpt lon="8.884272" lat="49.258308">
        <ele>328.863</ele>
        <time>2026-08-08T06:38:35.472Z</time>
      </trkpt>
      <trkpt lon="8.885117" lat="49.258813">
        <ele>328.423</ele>
        <time>2026-08-08T06:38:37.824Z</time>
      </trkpt>
      <trkpt lon="8.885804" lat="49.259133">
        <ele>323.961</ele>
        <time>2026-08-08T06:38:39.572Z</time>
      </trkpt>
      <trkpt lon="8.887038" lat="49.259577">
        <ele>309.775</ele>
        <time>2026-08-08T06:38:42.464Z</time>
      </trkpt>
      <trkpt lon="8.888110" lat="49.259873">
        <ele>299.889</ele>
        <time>2026-08-08T06:38:44.794Z</time>
      </trkpt>
      <trkpt lon="8.889236" lat="49.260101">
        <ele>295.353</ele>
        <time>2026-08-08T06:38:47.166Z</time>
      </trkpt>
      <trkpt lon="8.889800" lat="49.260177">
        <ele>294.333</ele>
        <time>2026-08-08T06:38:48.348Z</time>
      </trkpt>
      <trkpt lon="8.890077" lat="49.260201">
        <ele>294.008</ele>
        <time>2026-08-08T06:38:48.926Z</time>
      </trkpt>
      <trkpt lon="8.890631" lat="49.260213">
        <ele>294.003</ele>
        <time>2026-08-08T06:38:50.086Z</time>
      </trkpt>
      <trkpt lon="8.891170" lat="49.260170">
        <ele>295.758</ele>
        <time>2026-08-08T06:38:51.250Z</time>
      </trkpt>
      <trkpt lon="8.891676" lat="49.260077">
        <ele>298.433</ele>
        <time>2026-08-08T06:38:52.406Z</time>
      </trkpt>
      <trkpt lon="8.892148" lat="49.259940">
        <ele>301.003</ele>
        <time>2026-08-08T06:38:53.562Z</time>
      </trkpt>
      <trkpt lon="8.892583" lat="49.259764">
        <ele>302.832</ele>
        <time>2026-08-08T06:38:54.718Z</time>
      </trkpt>
      <trkpt lon="8.892990" lat="49.259544">
        <ele>303.468</ele>
        <time>2026-08-08T06:38:55.908Z</time>
      </trkpt>
      <trkpt lon="8.893526" lat="49.259154">
        <ele>301.447</ele>
        <time>2026-08-08T06:38:57.670Z</time>
      </trkpt>
      <trkpt lon="8.893848" lat="49.258862">
        <ele>298.717</ele>
        <time>2026-08-08T06:38:58.852Z</time>
      </trkpt>
      <trkpt lon="8.894287" lat="49.258388">
        <ele>294.043</ele>
        <time>2026-08-08T06:39:00.610Z</time>
      </trkpt>
      <trkpt lon="8.895965" lat="49.256259">
        <ele>273.532</ele>
        <time>2026-08-08T06:39:07.670Z</time>
      </trkpt>
      <trkpt lon="8.899177" lat="49.252556">
        <ele>274.046</ele>
        <time>2026-08-08T06:39:19.488Z</time>
      </trkpt>
      <trkpt lon="8.899498" lat="49.251905">
        <ele>277.982</ele>
        <time>2026-08-08T06:39:21.862Z</time>
      </trkpt>
      <trkpt lon="8.899636" lat="49.251438">
        <ele>273.73</ele>
        <time>2026-08-08T06:39:23.620Z</time>
      </trkpt>
      <trkpt lon="8.899680" lat="49.250976">
        <ele>267.587</ele>
        <time>2026-08-08T06:39:25.394Z</time>
      </trkpt>
      <trkpt lon="8.899622" lat="49.250529">
        <ele>261.615</ele>
        <time>2026-08-08T06:39:27.176Z</time>
      </trkpt>
      <trkpt lon="8.899531" lat="49.250245">
        <ele>257.034</ele>
        <time>2026-08-08T06:39:28.350Z</time>
      </trkpt>
      <trkpt lon="8.899406" lat="49.249972">
        <ele>251.18</ele>
        <time>2026-08-08T06:39:29.510Z</time>
      </trkpt>
      <trkpt lon="8.899248" lat="49.249704">
        <ele>244.727</ele>
        <time>2026-08-08T06:39:30.678Z</time>
      </trkpt>
      <trkpt lon="8.899052" lat="49.249445">
        <ele>239.301</ele>
        <time>2026-08-08T06:39:31.856Z</time>
      </trkpt>
      <trkpt lon="8.898830" lat="49.249210">
        <ele>235.419</ele>
        <time>2026-08-08T06:39:33.022Z</time>
      </trkpt>
      <trkpt lon="8.898473" lat="49.248897">
        <ele>229.665</ele>
        <time>2026-08-08T06:39:34.756Z</time>
      </trkpt>
      <trkpt lon="8.898088" lat="49.248613">
        <ele>223.317</ele>
        <time>2026-08-08T06:39:36.498Z</time>
      </trkpt>
      <trkpt lon="8.897387" lat="49.248182">
        <ele>212.691</ele>
        <time>2026-08-08T06:39:39.422Z</time>
      </trkpt>
      <trkpt lon="8.896769" lat="49.247881">
        <ele>205.16</ele>
        <time>2026-08-08T06:39:41.766Z</time>
      </trkpt>
      <trkpt lon="8.896436" lat="49.247751">
        <ele>201.627</ele>
        <time>2026-08-08T06:39:42.948Z</time>
      </trkpt>
      <trkpt lon="8.896090" lat="49.247640">
        <ele>197.79</ele>
        <time>2026-08-08T06:39:44.124Z</time>
      </trkpt>
      <trkpt lon="8.895737" lat="49.247552">
        <ele>194.137</ele>
        <time>2026-08-08T06:39:45.282Z</time>
      </trkpt>
      <trkpt lon="8.895362" lat="49.247483">
        <ele>190.411</ele>
        <time>2026-08-08T06:39:46.474Z</time>
      </trkpt>
      <trkpt lon="8.894985" lat="49.247438">
        <ele>186.599</ele>
        <time>2026-08-08T06:39:47.656Z</time>
      </trkpt>
      <trkpt lon="8.894615" lat="49.247418">
        <ele>183.145</ele>
        <time>2026-08-08T06:39:48.818Z</time>
      </trkpt>
      <trkpt lon="8.894244" lat="49.247421">
        <ele>180.002</ele>
        <time>2026-08-08T06:39:50.004Z</time>
      </trkpt>
      <trkpt lon="8.893879" lat="49.247448">
        <ele>177.057</ele>
        <time>2026-08-08T06:39:51.218Z</time>
      </trkpt>
      <trkpt lon="8.893539" lat="49.247495">
        <ele>174.047</ele>
        <time>2026-08-08T06:39:52.388Z</time>
      </trkpt>
      <trkpt lon="8.893212" lat="49.247558">
        <ele>171.237</ele>
        <time>2026-08-08T06:39:53.566Z</time>
      </trkpt>
      <trkpt lon="8.892753" lat="49.247669">
        <ele>168.088</ele>
        <time>2026-08-08T06:39:55.326Z</time>
      </trkpt>
      <trkpt lon="8.890750" lat="49.248251">
        <ele>161.025</ele>
        <time>2026-08-08T06:40:04.230Z</time>
      </trkpt>
      <trkpt lon="8.889802" lat="49.248637">
        <ele>161.636</ele>
        <time>2026-08-08T06:40:10.176Z</time>
      </trkpt>
      <trkpt lon="8.888688" lat="49.249050">
        <ele>161.663</ele>
        <time>2026-08-08T06:40:19.016Z</time>
      </trkpt>
      <trkpt lon="8.888468" lat="49.249129">
        <ele>161.69</ele>
        <time>2026-08-08T06:40:20.778Z</time>
      </trkpt>
      <trkpt lon="8.888342" lat="49.249189">
        <ele>161.738</ele>
        <time>2026-08-08T06:40:21.964Z</time>
      </trkpt>
      <trkpt lon="8.888288" lat="49.249223">
        <ele>161.775</ele>
        <time>2026-08-08T06:40:22.556Z</time>
      </trkpt>
      <trkpt lon="8.888241" lat="49.249258">
        <ele>161.812</ele>
        <time>2026-08-08T06:40:23.144Z</time>
      </trkpt>
      <trkpt lon="8.888203" lat="49.249294">
        <ele>161.859</ele>
        <time>2026-08-08T06:40:23.724Z</time>
      </trkpt>
      <trkpt lon="8.888171" lat="49.249332">
        <ele>161.924</ele>
        <time>2026-08-08T06:40:24.320Z</time>
      </trkpt>
      <trkpt lon="8.888146" lat="49.249371">
        <ele>161.988</ele>
        <time>2026-08-08T06:40:24.916Z</time>
      </trkpt>
      <trkpt lon="8.888129" lat="49.249410">
        <ele>162.039</ele>
        <time>2026-08-08T06:40:25.512Z</time>
      </trkpt>
      <trkpt lon="8.888119" lat="49.249449">
        <ele>162.101</ele>
        <time>2026-08-08T06:40:26.120Z</time>
      </trkpt>
      <trkpt lon="8.888104" lat="49.249609">
        <ele>162.263</ele>
        <time>2026-08-08T06:40:28.458Z</time>
      </trkpt>
      <trkpt lon="8.888084" lat="49.249653">
        <ele>162.314</ele>
        <time>2026-08-08T06:40:29.048Z</time>
      </trkpt>
      <trkpt lon="8.888049" lat="49.249696">
        <ele>162.359</ele>
        <time>2026-08-08T06:40:29.652Z</time>
      </trkpt>
      <trkpt lon="8.888001" lat="49.249734">
        <ele>162.415</ele>
        <time>2026-08-08T06:40:30.244Z</time>
      </trkpt>
      <trkpt lon="8.887945" lat="49.249763">
        <ele>162.467</ele>
        <time>2026-08-08T06:40:30.832Z</time>
      </trkpt>
      <trkpt lon="8.887885" lat="49.249783">
        <ele>162.517</ele>
        <time>2026-08-08T06:40:31.436Z</time>
      </trkpt>
      <trkpt lon="8.887827" lat="49.249793">
        <ele>162.564</ele>
        <time>2026-08-08T06:40:32.022Z</time>
      </trkpt>
      <trkpt lon="8.887772" lat="49.249796">
        <ele>162.6</ele>
        <time>2026-08-08T06:40:32.622Z</time>
      </trkpt>
      <trkpt lon="8.887726" lat="49.249794">
        <ele>162.637</ele>
        <time>2026-08-08T06:40:33.220Z</time>
      </trkpt>
      <trkpt lon="8.887690" lat="49.249790">
        <ele>162.651</ele>
        <time>2026-08-08T06:40:33.820Z</time>
      </trkpt>
      <trkpt lon="8.887663" lat="49.249786">
        <ele>162.669</ele>
        <time>2026-08-08T06:40:34.418Z</time>
      </trkpt>
      <trkpt lon="8.887640" lat="49.249779">
        <ele>162.67</ele>
        <time>2026-08-08T06:40:34.996Z</time>
      </trkpt>
      <trkpt lon="8.887620" lat="49.249770">
        <ele>162.675</ele>
        <time>2026-08-08T06:40:35.576Z</time>
      </trkpt>
      <trkpt lon="8.887604" lat="49.249759">
        <ele>162.673</ele>
        <time>2026-08-08T06:40:36.162Z</time>
      </trkpt>
      <trkpt lon="8.887592" lat="49.249745">
        <ele>162.664</ele>
        <time>2026-08-08T06:40:36.760Z</time>
      </trkpt>
      <trkpt lon="8.887586" lat="49.249730">
        <ele>162.648</ele>
        <time>2026-08-08T06:40:37.354Z</time>
      </trkpt>
      <trkpt lon="8.887188" lat="49.249729">
        <ele>162.531</ele>
        <time>2026-08-08T07:15:21.488Z</time>
      </trkpt>
      <trkpt lon="8.887181" lat="49.249741">
        <ele>162.551</ele>
        <time>2026-08-08T09:16:12.660Z</time>
      </trkpt>
      <trkpt lon="8.887180" lat="49.249750">
        <ele>162.547</ele>
        <time>2026-08-08T09:18:13.410Z</time>
      </trkpt>
      <trkpt lon="8.887173" lat="49.249763">
        <ele>162.534</ele>
        <time>2026-08-08T09:18:15.790Z</time>
      </trkpt>
      <trkpt lon="8.887151" lat="49.249774">
        <ele>162.517</ele>
        <time>2026-08-08T09:18:17.004Z</time>
      </trkpt>
      <trkpt lon="8.887137" lat="49.249779">
        <ele>162.511</ele>
        <time>2026-08-08T09:18:17.590Z</time>
      </trkpt>
      <trkpt lon="8.887124" lat="49.249782">
        <ele>162.503</ele>
        <time>2026-08-08T09:18:18.200Z</time>
      </trkpt>
      <trkpt lon="8.887108" lat="49.249782">
        <ele>162.503</ele>
        <time>2026-08-08T09:18:18.804Z</time>
      </trkpt>
      <trkpt lon="8.887091" lat="49.249776">
        <ele>162.502</ele>
        <time>2026-08-08T09:18:19.390Z</time>
      </trkpt>
      <trkpt lon="8.887076" lat="49.249762">
        <ele>162.504</ele>
        <time>2026-08-08T09:18:19.976Z</time>
      </trkpt>
      <trkpt lon="8.887064" lat="49.249743">
        <ele>162.5</ele>
        <time>2026-08-08T09:18:20.574Z</time>
      </trkpt>
      <trkpt lon="8.887058" lat="49.249723">
        <ele>162.501</ele>
        <time>2026-08-08T09:18:21.164Z</time>
      </trkpt>
      <trkpt lon="8.887056" lat="49.249707">
        <ele>162.503</ele>
        <time>2026-08-08T09:18:21.762Z</time>
      </trkpt>
      <trkpt lon="8.887056" lat="49.249695">
        <ele>162.503</ele>
        <time>2026-08-08T09:18:22.344Z</time>
      </trkpt>
      <trkpt lon="8.887065" lat="49.249682">
        <ele>162.516</ele>
        <time>2026-08-08T09:18:22.922Z</time>
      </trkpt>
      <trkpt lon="8.887112" lat="49.249648">
        <ele>162.55</ele>
        <time>2026-08-08T09:18:24.098Z</time>
      </trkpt>
      <trkpt lon="8.887202" lat="49.249596">
        <ele>162.557</ele>
        <time>2026-08-08T09:18:25.262Z</time>
      </trkpt>
      <trkpt lon="8.887355" lat="49.249533">
        <ele>162.504</ele>
        <time>2026-08-08T09:18:26.438Z</time>
      </trkpt>
      <trkpt lon="8.887569" lat="49.249464">
        <ele>162.428</ele>
        <time>2026-08-08T09:18:27.602Z</time>
      </trkpt>
      <trkpt lon="8.887987" lat="49.249355">
        <ele>162.293</ele>
        <time>2026-08-08T09:18:29.340Z</time>
      </trkpt>
      <trkpt lon="8.888657" lat="49.249106">
        <ele>162.135</ele>
        <time>2026-08-08T09:18:31.656Z</time>
      </trkpt>
      <trkpt lon="8.889703" lat="49.248704">
        <ele>162.063</ele>
        <time>2026-08-08T09:18:34.578Z</time>
      </trkpt>
      <trkpt lon="8.891309" lat="49.248154">
        <ele>162.596</ele>
        <time>2026-08-08T09:18:38.246Z</time>
      </trkpt>
      <trkpt lon="8.894109" lat="49.247228">
        <ele>176.401</ele>
        <time>2026-08-08T09:20:10.264Z</time>
      </trkpt>
      <trkpt lon="8.895532" lat="49.246780">
        <ele>189.196</ele>
        <time>2026-08-08T09:20:13.056Z</time>
      </trkpt>
      <trkpt lon="8.896343" lat="49.246514">
        <ele>198.849</ele>
        <time>2026-08-08T09:20:14.772Z</time>
      </trkpt>
      <trkpt lon="8.897611" lat="49.246043">
        <ele>217.322</ele>
        <time>2026-08-08T09:20:17.616Z</time>
      </trkpt>
      <trkpt lon="8.899038" lat="49.245502">
        <ele>236.566</ele>
        <time>2026-08-08T09:20:21.024Z</time>
      </trkpt>
      <trkpt lon="8.901439" lat="49.244640">
        <ele>257.341</ele>
        <time>2026-08-08T09:20:26.884Z</time>
      </trkpt>
      <trkpt lon="8.905429" lat="49.243054">
        <ele>278.739</ele>
        <time>2026-08-08T09:20:37.664Z</time>
      </trkpt>
      <trkpt lon="8.906335" lat="49.242536">
        <ele>281.371</ele>
        <time>2026-08-08T09:20:40.224Z</time>
      </trkpt>
      <trkpt lon="8.906721" lat="49.242242">
        <ele>280.425</ele>
        <time>2026-08-08T09:20:41.416Z</time>
      </trkpt>
      <trkpt lon="8.907067" lat="49.241919">
        <ele>278.762</ele>
        <time>2026-08-08T09:20:42.588Z</time>
      </trkpt>
      <trkpt lon="8.907532" lat="49.241375">
        <ele>276.528</ele>
        <time>2026-08-08T09:20:44.364Z</time>
      </trkpt>
      <trkpt lon="8.908201" lat="49.240377">
        <ele>275.363</ele>
        <time>2026-08-08T09:20:47.340Z</time>
      </trkpt>
      <trkpt lon="8.908718" lat="49.239326">
        <ele>278.441</ele>
        <time>2026-08-08T09:20:50.304Z</time>
      </trkpt>
      <trkpt lon="8.908974" lat="49.238469">
        <ele>285.42</ele>
        <time>2026-08-08T09:20:52.660Z</time>
      </trkpt>
      <trkpt lon="8.909051" lat="49.237826">
        <ele>292.441</ele>
        <time>2026-08-08T09:20:54.436Z</time>
      </trkpt>
      <trkpt lon="8.909017" lat="49.237207">
        <ele>303.395</ele>
        <time>2026-08-08T09:20:56.200Z</time>
      </trkpt>
      <trkpt lon="8.908884" lat="49.236613">
        <ele>316.07</ele>
        <time>2026-08-08T09:20:57.956Z</time>
      </trkpt>
      <trkpt lon="8.908652" lat="49.236024">
        <ele>327.918</ele>
        <time>2026-08-08T09:20:59.752Z</time>
      </trkpt>
      <trkpt lon="8.908327" lat="49.235433">
        <ele>337.897</ele>
        <time>2026-08-08T09:21:01.552Z</time>
      </trkpt>
      <trkpt lon="8.907916" lat="49.234872">
        <ele>345.498</ele>
        <time>2026-08-08T09:21:03.320Z</time>
      </trkpt>
      <trkpt lon="8.907414" lat="49.234315">
        <ele>349.998</ele>
        <time>2026-08-08T09:21:05.096Z</time>
      </trkpt>
      <trkpt lon="8.906832" lat="49.233771">
        <ele>352.966</ele>
        <time>2026-08-08T09:21:06.872Z</time>
      </trkpt>
      <trkpt lon="8.905985" lat="49.233086">
        <ele>357.868</ele>
        <time>2026-08-08T09:21:09.188Z</time>
      </trkpt>
      <trkpt lon="8.904585" lat="49.232095">
        <ele>370.686</ele>
        <time>2026-08-08T09:21:12.696Z</time>
      </trkpt>
      <trkpt lon="8.903315" lat="49.231339">
        <ele>386.904</ele>
        <time>2026-08-08T09:21:15.600Z</time>
      </trkpt>
      <trkpt lon="8.901657" lat="49.230555">
        <ele>408.374</ele>
        <time>2026-08-08T09:21:19.092Z</time>
      </trkpt>
      <trkpt lon="8.900480" lat="49.230104">
        <ele>421.734</ele>
        <time>2026-08-08T09:21:21.436Z</time>
      </trkpt>
      <trkpt lon="8.898071" lat="49.229343">
        <ele>451.673</ele>
        <time>2026-08-08T09:21:26.068Z</time>
      </trkpt>
      <trkpt lon="8.895173" lat="49.228388">
        <ele>480.594</ele>
        <time>2026-08-08T09:21:31.908Z</time>
      </trkpt>
      <trkpt lon="8.893444" lat="49.227898">
        <ele>485.466</ele>
        <time>2026-08-08T09:21:35.400Z</time>
      </trkpt>
      <trkpt lon="8.889971" lat="49.227047">
        <ele>479.6</ele>
        <time>2026-08-08T09:21:41.816Z</time>
      </trkpt>
      <trkpt lon="8.888931" lat="49.226879">
        <ele>480.017</ele>
        <time>2026-08-08T09:21:43.552Z</time>
      </trkpt>
      <trkpt lon="8.888202" lat="49.226809">
        <ele>480.004</ele>
        <time>2026-08-08T09:21:44.732Z</time>
      </trkpt>
      <trkpt lon="8.887098" lat="49.226769">
        <ele>480.042</ele>
        <time>2026-08-08T09:21:46.460Z</time>
      </trkpt>
      <trkpt lon="8.885978" lat="49.226803">
        <ele>481.051</ele>
        <time>2026-08-08T09:21:48.196Z</time>
      </trkpt>
      <trkpt lon="8.884840" lat="49.226903">
        <ele>483.155</ele>
        <time>2026-08-08T09:21:49.948Z</time>
      </trkpt>
      <trkpt lon="8.883725" lat="49.227068">
        <ele>486.346</ele>
        <time>2026-08-08T09:21:51.700Z</time>
      </trkpt>
      <trkpt lon="8.882546" lat="49.227314">
        <ele>490.478</ele>
        <time>2026-08-08T09:21:53.588Z</time>
      </trkpt>
      <trkpt lon="8.881126" lat="49.227708">
        <ele>493.215</ele>
        <time>2026-08-08T09:21:56.004Z</time>
      </trkpt>
      <trkpt lon="8.879859" lat="49.228159">
        <ele>497.825</ele>
        <time>2026-08-08T09:21:58.348Z</time>
      </trkpt>
      <trkpt lon="8.878386" lat="49.228791">
        <ele>503.815</ele>
        <time>2026-08-08T09:22:01.312Z</time>
      </trkpt>
      <trkpt lon="8.876233" lat="49.229878">
        <ele>507.158</ele>
        <time>2026-08-08T09:22:11.892Z</time>
      </trkpt>
      <trkpt lon="8.869217" lat="49.233518">
        <ele>535.247</ele>
        <time>2026-08-08T09:22:28.444Z</time>
      </trkpt>
      <trkpt lon="8.866688" lat="49.234766">
        <ele>537.913</ele>
        <time>2026-08-08T09:22:34.312Z</time>
      </trkpt>
      <trkpt lon="8.858776" lat="49.238857">
        <ele>570.595</ele>
        <time>2026-08-08T09:22:52.392Z</time>
      </trkpt>
      <trkpt lon="8.856604" lat="49.239695">
        <ele>579.145</ele>
        <time>2026-08-08T09:22:57.068Z</time>
      </trkpt>
      <trkpt lon="8.853753" lat="49.240614">
        <ele>584.201</ele>
        <time>2026-08-08T09:23:02.868Z</time>
      </trkpt>
      <trkpt lon="8.845602" lat="49.242808">
        <ele>582.227</ele>
        <time>2026-08-08T09:23:18.032Z</time>
      </trkpt>
      <trkpt lon="8.843261" lat="49.243597">
        <ele>576.641</ele>
        <time>2026-08-08T09:23:22.144Z</time>
      </trkpt>
      <trkpt lon="8.841039" lat="49.244526">
        <ele>577.751</ele>
        <time>2026-08-08T09:23:26.216Z</time>
      </trkpt>
      <trkpt lon="8.836084" lat="49.247070">
        <ele>608.107</ele>
        <time>2026-08-08T09:23:36.108Z</time>
      </trkpt>
      <trkpt lon="8.833866" lat="49.248386">
        <ele>608.284</ele>
        <time>2026-08-08T09:23:40.844Z</time>
      </trkpt>
      <trkpt lon="8.831375" lat="49.250050">
        <ele>600.401</ele>
        <time>2026-08-08T09:23:46.076Z</time>
      </trkpt>
      <trkpt lon="8.829808" lat="49.251078">
        <ele>580.959</ele>
        <time>2026-08-08T09:23:49.020Z</time>
      </trkpt>
      <trkpt lon="8.823116" lat="49.255117">
        <ele>585.24</ele>
        <time>2026-08-08T09:24:00.104Z</time>
      </trkpt>
      <trkpt lon="8.808594" lat="49.262724">
        <ele>614.72</ele>
        <time>2026-08-08T09:24:22.276Z</time>
      </trkpt>
      <trkpt lon="8.803903" lat="49.264742">
        <ele>612.146</ele>
        <time>2026-08-08T09:24:28.776Z</time>
      </trkpt>
      <trkpt lon="8.780204" lat="49.272877">
        <ele>615.852</ele>
        <time>2026-08-08T09:24:59.280Z</time>
      </trkpt>
      <trkpt lon="8.772662" lat="49.274961">
        <ele>611.517</ele>
        <time>2026-08-08T09:25:08.660Z</time>
      </trkpt>
      <trkpt lon="8.765254" lat="49.276612">
        <ele>597.021</ele>
        <time>2026-08-08T09:25:17.420Z</time>
      </trkpt>
      <trkpt lon="8.750818" lat="49.278832">
        <ele>580.905</ele>
        <time>2026-08-08T09:25:33.900Z</time>
      </trkpt>
      <trkpt lon="8.730372" lat="49.281106">
        <ele>595.97</ele>
        <time>2026-08-08T09:25:57.492Z</time>
      </trkpt>
      <trkpt lon="8.710474" lat="49.282711">
        <ele>561.934</ele>
        <time>2026-08-08T09:26:19.028Z</time>
      </trkpt>
      <trkpt lon="8.694333" lat="49.284082">
        <ele>556.492</ele>
        <time>2026-08-08T09:26:36.728Z</time>
      </trkpt>
      <trkpt lon="8.686277" lat="49.284720">
        <ele>598.936</ele>
        <time>2026-08-08T09:26:46.884Z</time>
      </trkpt>
      <trkpt lon="8.675389" lat="49.285770">
        <ele>638.217</ele>
        <time>2026-08-08T09:27:00.280Z</time>
      </trkpt>
      <trkpt lon="8.671023" lat="49.286076">
        <ele>682.688</ele>
        <time>2026-08-08T09:27:06.116Z</time>
      </trkpt>
      <trkpt lon="8.663322" lat="49.286386">
        <ele>727.944</ele>
        <time>2026-08-08T09:27:17.316Z</time>
      </trkpt>
      <trkpt lon="8.658199" lat="49.286635">
        <ele>730.732</ele>
        <time>2026-08-08T09:27:24.452Z</time>
      </trkpt>
      <trkpt lon="8.652971" lat="49.286804">
        <ele>719.49</ele>
        <time>2026-08-08T09:27:30.952Z</time>
      </trkpt>
      <trkpt lon="8.645611" lat="49.287012">
        <ele>749.717</ele>
        <time>2026-08-08T09:27:39.756Z</time>
      </trkpt>
      <trkpt lon="8.621638" lat="49.288926">
        <ele>756.663</ele>
        <time>2026-08-08T09:28:10.108Z</time>
      </trkpt>
      <trkpt lon="8.605004" lat="49.290518">
        <ele>805.051</ele>
        <time>2026-08-08T09:28:29.916Z</time>
      </trkpt>
      <trkpt lon="8.587383" lat="49.292059">
        <ele>827.135</ele>
        <time>2026-08-08T09:28:51.152Z</time>
      </trkpt>
      <trkpt lon="8.580567" lat="49.292913">
        <ele>829.423</ele>
        <time>2026-08-08T09:28:58.796Z</time>
      </trkpt>
      <trkpt lon="8.558648" lat="49.296657">
        <ele>880.107</ele>
        <time>2026-08-08T09:29:24.196Z</time>
      </trkpt>
      <trkpt lon="8.555252" lat="49.297578">
        <ele>884.663</ele>
        <time>2026-08-08T09:29:28.368Z</time>
      </trkpt>
      <trkpt lon="8.550504" lat="49.299137">
        <ele>869.847</ele>
        <time>2026-08-08T09:29:34.288Z</time>
      </trkpt>
      <trkpt lon="8.547690" lat="49.300255">
        <ele>854.578</ele>
        <time>2026-08-08T09:29:37.864Z</time>
      </trkpt>
      <trkpt lon="8.545046" lat="49.301523">
        <ele>840.833</ele>
        <time>2026-08-08T09:29:41.364Z</time>
      </trkpt>
      <trkpt lon="8.542540" lat="49.302952">
        <ele>836.428</ele>
        <time>2026-08-08T09:29:44.888Z</time>
      </trkpt>
      <trkpt lon="8.540054" lat="49.304624">
        <ele>828.717</ele>
        <time>2026-08-08T09:29:48.652Z</time>
      </trkpt>
      <trkpt lon="8.538184" lat="49.306166">
        <ele>824.44</ele>
        <time>2026-08-08T09:29:51.820Z</time>
      </trkpt>
      <trkpt lon="8.537219" lat="49.307152">
        <ele>824.429</ele>
        <time>2026-08-08T09:29:53.720Z</time>
      </trkpt>
      <trkpt lon="8.536446" lat="49.308157">
        <ele>820.717</ele>
        <time>2026-08-08T09:29:55.536Z</time>
      </trkpt>
      <trkpt lon="8.535836" lat="49.309222">
        <ele>812.328</ele>
        <time>2026-08-08T09:29:57.396Z</time>
      </trkpt>
      <trkpt lon="8.534342" lat="49.312456">
        <ele>796.035</ele>
        <time>2026-08-08T09:30:02.940Z</time>
      </trkpt>
      <trkpt lon="8.532266" lat="49.317465">
        <ele>803.549</ele>
        <time>2026-08-08T09:30:11.884Z</time>
      </trkpt>
      <trkpt lon="8.530329" lat="49.321634">
        <ele>846.917</ele>
        <time>2026-08-08T09:30:20.132Z</time>
      </trkpt>
      <trkpt lon="8.524365" lat="49.335301">
        <ele>900.685</ele>
        <time>2026-08-08T09:30:48.772Z</time>
      </trkpt>
      <trkpt lon="8.522217" lat="49.340666">
        <ele>906.468</ele>
        <time>2026-08-08T09:31:00.148Z</time>
      </trkpt>
      <trkpt lon="8.519993" lat="49.347277">
        <ele>871.816</ele>
        <time>2026-08-08T09:31:13.472Z</time>
      </trkpt>
      <trkpt lon="8.519301" lat="49.350362">
        <ele>857.766</ele>
        <time>2026-08-08T09:31:18.860Z</time>
      </trkpt>
      <trkpt lon="8.519144" lat="49.354547">
        <ele>854.462</ele>
        <time>2026-08-08T09:31:26.112Z</time>
      </trkpt>
      <trkpt lon="8.519171" lat="49.362110">
        <ele>862.23</ele>
        <time>2026-08-08T09:31:46.956Z</time>
      </trkpt>
      <trkpt lon="8.519506" lat="49.363854">
        <ele>834.812</ele>
        <time>2026-08-08T09:31:50.032Z</time>
      </trkpt>
      <trkpt lon="8.520062" lat="49.365288">
        <ele>802.231</ele>
        <time>2026-08-08T09:31:52.476Z</time>
      </trkpt>
      <trkpt lon="8.521025" lat="49.368141">
        <ele>817.73</ele>
        <time>2026-08-08T09:31:57.412Z</time>
      </trkpt>
      <trkpt lon="8.521639" lat="49.370883">
        <ele>845.046</ele>
        <time>2026-08-08T09:32:02.560Z</time>
      </trkpt>
      <trkpt lon="8.524041" lat="49.384439">
        <ele>846.787</ele>
        <time>2026-08-08T09:32:30.280Z</time>
      </trkpt>
      <trkpt lon="8.524247" lat="49.388462">
        <ele>832.493</ele>
        <time>2026-08-08T09:32:37.612Z</time>
      </trkpt>
      <trkpt lon="8.523753" lat="49.393343">
        <ele>884.151</ele>
        <time>2026-08-08T09:32:46.416Z</time>
      </trkpt>
      <trkpt lon="8.522270" lat="49.402257">
        <ele>884.312</ele>
        <time>2026-08-08T09:33:03.236Z</time>
      </trkpt>
      <trkpt lon="8.520113" lat="49.408202">
        <ele>895.118</ele>
        <time>2026-08-08T09:33:14.688Z</time>
      </trkpt>
      <trkpt lon="8.514267" lat="49.424092">
        <ele>924.143</ele>
        <time>2026-08-08T09:33:44.888Z</time>
      </trkpt>
      <trkpt lon="8.512132" lat="49.428055">
        <ele>939.318</ele>
        <time>2026-08-08T09:33:52.708Z</time>
      </trkpt>
      <trkpt lon="8.502531" lat="49.442497">
        <ele>973.17</ele>
        <time>2026-08-08T09:34:23.064Z</time>
      </trkpt>
      <trkpt lon="8.494181" lat="49.455245">
        <ele>990.145</ele>
        <time>2026-08-08T09:34:50.440Z</time>
      </trkpt>
      <trkpt lon="8.488550" lat="49.465316">
        <ele>989.895</ele>
        <time>2026-08-08T09:35:09.736Z</time>
      </trkpt>
      <trkpt lon="8.482815" lat="49.475466">
        <ele>1014.07</ele>
        <time>2026-08-08T09:35:30.360Z</time>
      </trkpt>
      <trkpt lon="8.473238" lat="49.490393">
        <ele>1009.82</ele>
        <time>2026-08-08T09:36:00.752Z</time>
      </trkpt>
      <trkpt lon="8.467470" lat="49.498583">
        <ele>1006.53</ele>
        <time>2026-08-08T09:36:31.224Z</time>
      </trkpt>
      <trkpt lon="8.459259" lat="49.510525">
        <ele>980.77</ele>
        <time>2026-08-08T09:37:01.516Z</time>
      </trkpt>
      <trkpt lon="8.455811" lat="49.516354">
        <ele>1000.56</ele>
        <time>2026-08-08T09:37:12.992Z</time>
      </trkpt>
      <trkpt lon="8.453896" lat="49.520708">
        <ele>1006.13</ele>
        <time>2026-08-08T09:37:21.444Z</time>
      </trkpt>
      <trkpt lon="8.447661" lat="49.535949">
        <ele>1060.16</ele>
        <time>2026-08-08T09:37:51.576Z</time>
      </trkpt>
      <trkpt lon="8.442660" lat="49.547582">
        <ele>1020.1</ele>
        <time>2026-08-08T09:38:14.416Z</time>
      </trkpt>
      <trkpt lon="8.437772" lat="49.557164">
        <ele>1001.09</ele>
        <time>2026-08-08T09:38:32.136Z</time>
      </trkpt>
      <trkpt lon="8.431736" lat="49.567599">
        <ele>1004.96</ele>
        <time>2026-08-08T09:38:51.500Z</time>
      </trkpt>
      <trkpt lon="8.426972" lat="49.576597">
        <ele>1066.13</ele>
        <time>2026-08-08T09:39:10.224Z</time>
      </trkpt>
      <trkpt lon="8.424152" lat="49.582282">
        <ele>1072.33</ele>
        <time>2026-08-08T09:39:22.364Z</time>
      </trkpt>
      <trkpt lon="8.423814" lat="49.583430">
        <ele>1073.83</ele>
        <time>2026-08-08T09:39:24.736Z</time>
      </trkpt>
      <trkpt lon="8.423507" lat="49.585499">
        <ele>1072.99</ele>
        <time>2026-08-08T09:39:28.960Z</time>
      </trkpt>
      <trkpt lon="8.423519" lat="49.591375">
        <ele>1084.74</ele>
        <time>2026-08-08T09:39:40.560Z</time>
      </trkpt>
      <trkpt lon="8.423409" lat="49.598052">
        <ele>1093.14</ele>
        <time>2026-08-08T09:39:52.780Z</time>
      </trkpt>
      <trkpt lon="8.421322" lat="49.611299">
        <ele>1035.13</ele>
        <time>2026-08-08T09:40:16.420Z</time>
      </trkpt>
      <trkpt lon="8.419595" lat="49.625195">
        <ele>1048.09</ele>
        <time>2026-08-08T09:40:41.100Z</time>
      </trkpt>
      <trkpt lon="8.418869" lat="49.640914">
        <ele>991.992</ele>
        <time>2026-08-08T09:41:08.344Z</time>
      </trkpt>
      <trkpt lon="8.419128" lat="49.643069">
        <ele>980.074</ele>
        <time>2026-08-08T09:41:11.936Z</time>
      </trkpt>
      <trkpt lon="8.419723" lat="49.645230">
        <ele>969.047</ele>
        <time>2026-08-08T09:41:15.584Z</time>
      </trkpt>
      <trkpt lon="8.421254" lat="49.648963">
        <ele>992.486</ele>
        <time>2026-08-08T09:41:22.224Z</time>
      </trkpt>
      <trkpt lon="8.424353" lat="49.656241">
        <ele>1042.04</ele>
        <time>2026-08-08T09:41:36.628Z</time>
      </trkpt>
      <trkpt lon="8.426118" lat="49.661055">
        <ele>1044.76</ele>
        <time>2026-08-08T09:41:46.452Z</time>
      </trkpt>
      <trkpt lon="8.426346" lat="49.662578">
        <ele>1050.2</ele>
        <time>2026-08-08T09:41:49.460Z</time>
      </trkpt>
      <trkpt lon="8.426408" lat="49.665342">
        <ele>1061.48</ele>
        <time>2026-08-08T09:41:54.860Z</time>
      </trkpt>
      <trkpt lon="8.426101" lat="49.669083">
        <ele>1077.38</ele>
        <time>2026-08-08T09:42:02.148Z</time>
      </trkpt>
      <trkpt lon="8.425416" lat="49.672159">
        <ele>1085.35</ele>
        <time>2026-08-08T09:42:08.168Z</time>
      </trkpt>
      <trkpt lon="8.420237" lat="49.687187">
        <ele>1134.25</ele>
        <time>2026-08-08T09:42:38.720Z</time>
      </trkpt>
      <trkpt lon="8.415117" lat="49.701801">
        <ele>1182.01</ele>
        <time>2026-08-08T09:43:08.828Z</time>
      </trkpt>
      <trkpt lon="8.413186" lat="49.706923">
        <ele>1157.63</ele>
        <time>2026-08-08T09:43:18.408Z</time>
      </trkpt>
      <trkpt lon="8.407675" lat="49.723802">
        <ele>1164.85</ele>
        <time>2026-08-08T09:43:48.928Z</time>
      </trkpt>
      <trkpt lon="8.401429" lat="49.740728">
        <ele>1184.03</ele>
        <time>2026-08-08T09:44:18.968Z</time>
      </trkpt>
      <trkpt lon="8.395585" lat="49.757152">
        <ele>1186.56</ele>
        <time>2026-08-08T09:44:49.196Z</time>
      </trkpt>
      <trkpt lon="8.393372" lat="49.763944">
        <ele>1167.02</ele>
        <time>2026-08-08T09:45:01.212Z</time>
      </trkpt>
      <trkpt lon="8.392430" lat="49.772033">
        <ele>1103.86</ele>
        <time>2026-08-08T09:45:14.512Z</time>
      </trkpt>
      <trkpt lon="8.391877" lat="49.782123">
        <ele>1068.3</ele>
        <time>2026-08-08T09:45:30.212Z</time>
      </trkpt>
      <trkpt lon="8.391677" lat="49.784168">
        <ele>1076.73</ele>
        <time>2026-08-08T09:45:33.796Z</time>
      </trkpt>
      <trkpt lon="8.391294" lat="49.787295">
        <ele>1065.73</ele>
        <time>2026-08-08T09:45:39.824Z</time>
      </trkpt>
      <trkpt lon="8.391009" lat="49.790393">
        <ele>1002.73</ele>
        <time>2026-08-08T09:45:46.020Z</time>
      </trkpt>
      <trkpt lon="8.390795" lat="49.792611">
        <ele>943.974</ele>
        <time>2026-08-08T09:45:50.244Z</time>
      </trkpt>
      <trkpt lon="8.390705" lat="49.794981">
        <ele>889.726</ele>
        <time>2026-08-08T09:45:54.472Z</time>
      </trkpt>
      <trkpt lon="8.390720" lat="49.796725">
        <ele>836.397</ele>
        <time>2026-08-08T09:45:57.480Z</time>
      </trkpt>
      <trkpt lon="8.390702" lat="49.798202">
        <ele>788.804</ele>
        <time>2026-08-08T09:45:59.904Z</time>
      </trkpt>
      <trkpt lon="8.390714" lat="49.799849">
        <ele>741.161</ele>
        <time>2026-08-08T09:46:02.464Z</time>
      </trkpt>
      <trkpt lon="8.390859" lat="49.802556">
        <ele>721.286</ele>
        <time>2026-08-08T09:46:06.680Z</time>
      </trkpt>
      <trkpt lon="8.390936" lat="49.803933">
        <ele>730.868</ele>
        <time>2026-08-08T09:46:09.084Z</time>
      </trkpt>
      <trkpt lon="8.391789" lat="49.820105">
        <ele>736.604</ele>
        <time>2026-08-08T09:46:39.668Z</time>
      </trkpt>
      <trkpt lon="8.390337" lat="49.836214">
        <ele>725.215</ele>
        <time>2026-08-08T09:47:10.120Z</time>
      </trkpt>
      <trkpt lon="8.389044" lat="49.851951">
        <ele>716.97</ele>
        <time>2026-08-08T09:47:40.404Z</time>
      </trkpt>
      <trkpt lon="8.388047" lat="49.861462">
        <ele>705.64</ele>
        <time>2026-08-08T09:47:58.484Z</time>
      </trkpt>
      <trkpt lon="8.385686" lat="49.871473">
        <ele>726.204</ele>
        <time>2026-08-08T09:48:17.840Z</time>
      </trkpt>
      <trkpt lon="8.380239" lat="49.887402">
        <ele>736.363</ele>
        <time>2026-08-08T09:48:48.292Z</time>
      </trkpt>
      <trkpt lon="8.377098" lat="49.895354">
        <ele>785.092</ele>
        <time>2026-08-08T09:49:03.536Z</time>
      </trkpt>
      <trkpt lon="8.372482" lat="49.908864">
        <ele>790.945</ele>
        <time>2026-08-08T09:49:29.752Z</time>
      </trkpt>
      <trkpt lon="8.371305" lat="49.910999">
        <ele>795.388</ele>
        <time>2026-08-08T09:49:33.984Z</time>
      </trkpt>
      <trkpt lon="8.368870" lat="49.914350">
        <ele>800.318</ele>
        <time>2026-08-08T09:49:40.708Z</time>
      </trkpt>
      <trkpt lon="8.367532" lat="49.915818">
        <ele>804.729</ele>
        <time>2026-08-08T09:49:43.736Z</time>
      </trkpt>
      <trkpt lon="8.365702" lat="49.917516">
        <ele>801.248</ele>
        <time>2026-08-08T09:49:47.388Z</time>
      </trkpt>
      <trkpt lon="8.363902" lat="49.918881">
        <ele>798.03</ele>
        <time>2026-08-08T09:49:50.560Z</time>
      </trkpt>
      <trkpt lon="8.360860" lat="49.920840">
        <ele>797.227</ele>
        <time>2026-08-08T09:49:55.508Z</time>
      </trkpt>
      <trkpt lon="8.357231" lat="49.922800">
        <ele>800.919</ele>
        <time>2026-08-08T09:50:01.056Z</time>
      </trkpt>
      <trkpt lon="8.346310" lat="49.927962">
        <ele>821.62</ele>
        <time>2026-08-08T09:50:17.496Z</time>
      </trkpt>
      <trkpt lon="8.330858" lat="49.934135">
        <ele>809.198</ele>
        <time>2026-08-08T09:50:39.908Z</time>
      </trkpt>
      <trkpt lon="8.318884" lat="49.939511">
        <ele>859.845</ele>
        <time>2026-08-08T09:50:56.920Z</time>
      </trkpt>
      <trkpt lon="8.312599" lat="49.942364">
        <ele>891.996</ele>
        <time>2026-08-08T09:51:06.204Z</time>
      </trkpt>
      <trkpt lon="8.302889" lat="49.945655">
        <ele>929.205</ele>
        <time>2026-08-08T09:51:19.592Z</time>
      </trkpt>
      <trkpt lon="8.286355" lat="49.950710">
        <ele>868.818</ele>
        <time>2026-08-08T09:51:41.468Z</time>
      </trkpt>
      <trkpt lon="8.284671" lat="49.951177">
        <ele>819.791</ele>
        <time>2026-08-08T09:51:43.328Z</time>
      </trkpt>
      <trkpt lon="8.282877" lat="49.951659">
        <ele>773.853</ele>
        <time>2026-08-08T09:51:45.152Z</time>
      </trkpt>
      <trkpt lon="8.268895" lat="49.954856">
        <ele>731.054</ele>
        <time>2026-08-08T09:51:58.700Z</time>
      </trkpt>
      <trkpt lon="8.254928" lat="49.957915">
        <ele>706.917</ele>
        <time>2026-08-08T09:52:12.812Z</time>
      </trkpt>
      <trkpt lon="8.247989" lat="49.959957">
        <ele>720.57</ele>
        <time>2026-08-08T09:52:20.816Z</time>
      </trkpt>
      <trkpt lon="8.222869" lat="49.967543">
        <ele>704.833</ele>
        <time>2026-08-08T09:52:51.144Z</time>
      </trkpt>
      <trkpt lon="8.199549" lat="49.973967">
        <ele>683.158</ele>
        <time>2026-08-08T09:53:19.128Z</time>
      </trkpt>
      <trkpt lon="8.197908" lat="49.974248">
        <ele>679.357</ele>
        <time>2026-08-08T09:53:20.952Z</time>
      </trkpt>
      <trkpt lon="8.196220" lat="49.974432">
        <ele>676.306</ele>
        <time>2026-08-08T09:53:22.796Z</time>
      </trkpt>
      <trkpt lon="8.194534" lat="49.974521">
        <ele>673.563</ele>
        <time>2026-08-08T09:53:24.616Z</time>
      </trkpt>
      <trkpt lon="8.192230" lat="49.974502">
        <ele>664.606</ele>
        <time>2026-08-08T09:53:27.108Z</time>
      </trkpt>
      <trkpt lon="8.189960" lat="49.974325">
        <ele>652.75</ele>
        <time>2026-08-08T09:53:29.548Z</time>
      </trkpt>
      <trkpt lon="8.183947" lat="49.973427">
        <ele>646.842</ele>
        <time>2026-08-08T09:53:36.240Z</time>
      </trkpt>
      <trkpt lon="8.163442" lat="49.970229">
        <ele>646.703</ele>
        <time>2026-08-08T09:53:59.424Z</time>
      </trkpt>
      <trkpt lon="8.158539" lat="49.969856">
        <ele>647.959</ele>
        <time>2026-08-08T09:54:04.924Z</time>
      </trkpt>
      <trkpt lon="8.144120" lat="49.969264">
        <ele>674.023</ele>
        <time>2026-08-08T09:54:21.808Z</time>
      </trkpt>
      <trkpt lon="8.142175" lat="49.969358">
        <ele>683.757</ele>
        <time>2026-08-08T09:54:24.216Z</time>
      </trkpt>
      <trkpt lon="8.140234" lat="49.969553">
        <ele>688.933</ele>
        <time>2026-08-08T09:54:26.652Z</time>
      </trkpt>
      <trkpt lon="8.137767" lat="49.969929">
        <ele>684.313</ele>
        <time>2026-08-08T09:54:29.788Z</time>
      </trkpt>
      <trkpt lon="8.135898" lat="49.970338">
        <ele>682.979</ele>
        <time>2026-08-08T09:54:32.212Z</time>
      </trkpt>
      <trkpt lon="8.131797" lat="49.971510">
        <ele>678.548</ele>
        <time>2026-08-08T09:54:37.640Z</time>
      </trkpt>
      <trkpt lon="8.117487" lat="49.975673">
        <ele>664.35</ele>
        <time>2026-08-08T09:54:55.840Z</time>
      </trkpt>
      <trkpt lon="8.105387" lat="49.978337">
        <ele>702.182</ele>
        <time>2026-08-08T09:55:11.060Z</time>
      </trkpt>
      <trkpt lon="8.103507" lat="49.978639">
        <ele>711.864</ele>
        <time>2026-08-08T09:55:13.492Z</time>
      </trkpt>
      <trkpt lon="8.102077" lat="49.978792">
        <ele>712.966</ele>
        <time>2026-08-08T09:55:15.300Z</time>
      </trkpt>
      <trkpt lon="8.100079" lat="49.978879">
        <ele>712.364</ele>
        <time>2026-08-08T09:55:17.764Z</time>
      </trkpt>
      <trkpt lon="8.097559" lat="49.978825">
        <ele>713.591</ele>
        <time>2026-08-08T09:55:20.808Z</time>
      </trkpt>
      <trkpt lon="8.095008" lat="49.978626">
        <ele>715.985</ele>
        <time>2026-08-08T09:55:23.900Z</time>
      </trkpt>
      <trkpt lon="8.069487" lat="49.975692">
        <ele>711.703</ele>
        <time>2026-08-08T09:55:54.040Z</time>
      </trkpt>
      <trkpt lon="8.050126" lat="49.973333">
        <ele>757.498</ele>
        <time>2026-08-08T09:56:17.280Z</time>
      </trkpt>
      <trkpt lon="8.042167" lat="49.972983">
        <ele>781.886</ele>
        <time>2026-08-08T09:56:27.008Z</time>
      </trkpt>
      <trkpt lon="8.025125" lat="49.973056">
        <ele>835.863</ele>
        <time>2026-08-08T09:56:46.728Z</time>
      </trkpt>
      <trkpt lon="8.020869" lat="49.973259">
        <ele>889.98</ele>
        <time>2026-08-08T09:56:52.184Z</time>
      </trkpt>
      <trkpt lon="8.016111" lat="49.973620">
        <ele>948.655</ele>
        <time>2026-08-08T09:56:58.736Z</time>
      </trkpt>
      <trkpt lon="8.008736" lat="49.974480">
        <ele>994.113</ele>
        <time>2026-08-08T09:57:08.944Z</time>
      </trkpt>
      <trkpt lon="8.001542" lat="49.975545">
        <ele>1007.26</ele>
        <time>2026-08-08T09:57:18.028Z</time>
      </trkpt>
      <trkpt lon="7.992715" lat="49.977155">
        <ele>1024.65</ele>
        <time>2026-08-08T09:57:28.416Z</time>
      </trkpt>
      <trkpt lon="7.985713" lat="49.978894">
        <ele>1076.45</ele>
        <time>2026-08-08T09:57:36.816Z</time>
      </trkpt>
      <trkpt lon="7.982185" lat="49.979834">
        <ele>1116.9</ele>
        <time>2026-08-08T09:57:41.604Z</time>
      </trkpt>
      <trkpt lon="7.961555" lat="49.985928">
        <ele>1159.68</ele>
        <time>2026-08-08T09:58:12.132Z</time>
      </trkpt>
      <trkpt lon="7.944657" lat="49.990436">
        <ele>1155.84</ele>
        <time>2026-08-08T09:58:34.132Z</time>
      </trkpt>
      <trkpt lon="7.928147" lat="49.994651">
        <ele>1172.35</ele>
        <time>2026-08-08T09:58:54.028Z</time>
      </trkpt>
      <trkpt lon="7.914776" lat="49.998721">
        <ele>1166.66</ele>
        <time>2026-08-08T09:59:09.020Z</time>
      </trkpt>
      <trkpt lon="7.899624" lat="50.004331">
        <ele>1148.11</ele>
        <time>2026-08-08T09:59:26.988Z</time>
      </trkpt>
      <trkpt lon="7.891804" lat="50.007884">
        <ele>1141.43</ele>
        <time>2026-08-08T09:59:37.152Z</time>
      </trkpt>
      <trkpt lon="7.883245" lat="50.012491">
        <ele>1146.34</ele>
        <time>2026-08-08T09:59:49.136Z</time>
      </trkpt>
      <trkpt lon="7.863754" lat="50.024878">
        <ele>1199.36</ele>
        <time>2026-08-08T10:00:18.572Z</time>
      </trkpt>
      <trkpt lon="7.844850" lat="50.037235">
        <ele>1185.92</ele>
        <time>2026-08-08T10:00:48.676Z</time>
      </trkpt>
      <trkpt lon="7.830342" lat="50.046992">
        <ele>1206.64</ele>
        <time>2026-08-08T10:01:12.292Z</time>
      </trkpt>
      <trkpt lon="7.818010" lat="50.055618">
        <ele>1201.79</ele>
        <time>2026-08-08T10:01:34.032Z</time>
      </trkpt>
      <trkpt lon="7.801918" lat="50.067305">
        <ele>1166.94</ele>
        <time>2026-08-08T10:01:59.488Z</time>
      </trkpt>
      <trkpt lon="7.792463" lat="50.075191">
        <ele>1216.8</ele>
        <time>2026-08-08T10:02:16.360Z</time>
      </trkpt>
      <trkpt lon="7.774871" lat="50.088355">
        <ele>1219.69</ele>
        <time>2026-08-08T10:02:46.844Z</time>
      </trkpt>
      <trkpt lon="7.764932" lat="50.096270">
        <ele>1174.68</ele>
        <time>2026-08-08T10:03:04.576Z</time>
      </trkpt>
      <trkpt lon="7.754905" lat="50.104701">
        <ele>1122.36</ele>
        <time>2026-08-08T10:03:21.068Z</time>
      </trkpt>
      <trkpt lon="7.736675" lat="50.119927">
        <ele>1117.14</ele>
        <time>2026-08-08T10:03:51.436Z</time>
      </trkpt>
      <trkpt lon="7.729442" lat="50.126556">
        <ele>1059.3</ele>
        <time>2026-08-08T10:04:04.092Z</time>
      </trkpt>
      <trkpt lon="7.723217" lat="50.132107">
        <ele>1031.49</ele>
        <time>2026-08-08T10:04:14.228Z</time>
      </trkpt>
      <trkpt lon="7.718204" lat="50.135848">
        <ele>1044.06</ele>
        <time>2026-08-08T10:04:21.828Z</time>
      </trkpt>
      <trkpt lon="7.712873" lat="50.139843">
        <ele>1089.14</ele>
        <time>2026-08-08T10:04:30.692Z</time>
      </trkpt>
      <trkpt lon="7.707408" lat="50.143955">
        <ele>1103.58</ele>
        <time>2026-08-08T10:04:40.196Z</time>
      </trkpt>
      <trkpt lon="7.694584" lat="50.151947">
        <ele>1080.7</ele>
        <time>2026-08-08T10:04:59.832Z</time>
      </trkpt>
      <trkpt lon="7.685395" lat="50.159730">
        <ele>1056.77</ele>
        <time>2026-08-08T10:05:16.300Z</time>
      </trkpt>
      <trkpt lon="7.675024" lat="50.169324">
        <ele>1086.44</ele>
        <time>2026-08-08T10:05:35.308Z</time>
      </trkpt>
      <trkpt lon="7.671730" lat="50.172514">
        <ele>1119.56</ele>
        <time>2026-08-08T10:05:42.272Z</time>
      </trkpt>
      <trkpt lon="7.658461" lat="50.186327">
        <ele>1109.62</ele>
        <time>2026-08-08T10:06:12.680Z</time>
      </trkpt>
      <trkpt lon="7.648514" lat="50.196975">
        <ele>1078.29</ele>
        <time>2026-08-08T10:06:36.776Z</time>
      </trkpt>
      <trkpt lon="7.646014" lat="50.200277">
        <ele>1051.84</ele>
        <time>2026-08-08T10:06:43.748Z</time>
      </trkpt>
      <trkpt lon="7.635791" lat="50.215687">
        <ele>1008.76</ele>
        <time>2026-08-08T10:07:14.200Z</time>
      </trkpt>
      <trkpt lon="7.634044" lat="50.219035">
        <ele>963.924</ele>
        <time>2026-08-08T10:07:20.140Z</time>
      </trkpt>
      <trkpt lon="7.629171" lat="50.229688">
        <ele>928.068</ele>
        <time>2026-08-08T10:07:37.844Z</time>
      </trkpt>
      <trkpt lon="7.627375" lat="50.234867">
        <ele>880.857</ele>
        <time>2026-08-08T10:07:46.168Z</time>
      </trkpt>
      <trkpt lon="7.626022" lat="50.240593">
        <ele>891.461</ele>
        <time>2026-08-08T10:07:54.996Z</time>
      </trkpt>
      <trkpt lon="7.625859" lat="50.241235">
        <ele>914.351</ele>
        <time>2026-08-08T10:07:56.148Z</time>
      </trkpt>
      <trkpt lon="7.625612" lat="50.242114">
        <ele>952.829</ele>
        <time>2026-08-08T10:07:57.916Z</time>
      </trkpt>
      <trkpt lon="7.625370" lat="50.242898">
        <ele>986.513</ele>
        <time>2026-08-08T10:07:59.672Z</time>
      </trkpt>
      <trkpt lon="7.625065" lat="50.243829">
        <ele>1023.91</ele>
        <time>2026-08-08T10:08:02.044Z</time>
      </trkpt>
      <trkpt lon="7.624636" lat="50.245030">
        <ele>1062.16</ele>
        <time>2026-08-08T10:08:05.548Z</time>
      </trkpt>
      <trkpt lon="7.623681" lat="50.247995">
        <ele>1070.01</ele>
        <time>2026-08-08T10:08:14.468Z</time>
      </trkpt>
      <trkpt lon="7.623034" lat="50.250339">
        <ele>1064.09</ele>
        <time>2026-08-08T10:08:20.376Z</time>
      </trkpt>
      <trkpt lon="7.621780" lat="50.254661">
        <ele>1074.3</ele>
        <time>2026-08-08T10:08:30.700Z</time>
      </trkpt>
      <trkpt lon="7.620653" lat="50.258882">
        <ele>1086.66</ele>
        <time>2026-08-08T10:08:39.284Z</time>
      </trkpt>
      <trkpt lon="7.619596" lat="50.262932">
        <ele>1075.37</ele>
        <time>2026-08-08T10:08:46.776Z</time>
      </trkpt>
      <trkpt lon="7.615346" lat="50.278616">
        <ele>1035.07</ele>
        <time>2026-08-08T10:09:13.836Z</time>
      </trkpt>
      <trkpt lon="7.608941" lat="50.296513">
        <ele>1004.72</ele>
        <time>2026-08-08T10:09:43.472Z</time>
      </trkpt>
      <trkpt lon="7.604589" lat="50.314745">
        <ele>965.174</ele>
        <time>2026-08-08T10:10:13.644Z</time>
      </trkpt>
      <trkpt lon="7.602062" lat="50.324209">
        <ele>907.479</ele>
        <time>2026-08-08T10:10:28.612Z</time>
      </trkpt>
      <trkpt lon="7.599526" lat="50.333691">
        <ele>874.05</ele>
        <time>2026-08-08T10:10:43.552Z</time>
      </trkpt>
      <trkpt lon="7.598826" lat="50.340771">
        <ele>868.526</ele>
        <time>2026-08-08T10:10:55.776Z</time>
      </trkpt>
      <trkpt lon="7.598868" lat="50.348170">
        <ele>844.542</ele>
        <time>2026-08-08T10:11:08.640Z</time>
      </trkpt>
      <trkpt lon="7.598444" lat="50.349556">
        <ele>845.134</ele>
        <time>2026-08-08T10:11:11.060Z</time>
      </trkpt>
      <trkpt lon="7.597829" lat="50.350917">
        <ele>847.482</ele>
        <time>2026-08-08T10:11:13.472Z</time>
      </trkpt>
      <trkpt lon="7.596821" lat="50.352563">
        <ele>842.513</ele>
        <time>2026-08-08T10:11:16.512Z</time>
      </trkpt>
      <trkpt lon="7.596067" lat="50.353530">
        <ele>835.184</ele>
        <time>2026-08-08T10:11:18.328Z</time>
      </trkpt>
      <trkpt lon="7.595167" lat="50.354455">
        <ele>830.013</ele>
        <time>2026-08-08T10:11:20.136Z</time>
      </trkpt>
      <trkpt lon="7.594098" lat="50.355325">
        <ele>824.368</ele>
        <time>2026-08-08T10:11:21.952Z</time>
      </trkpt>
      <trkpt lon="7.593312" lat="50.355852">
        <ele>823.454</ele>
        <time>2026-08-08T10:11:23.140Z</time>
      </trkpt>
      <trkpt lon="7.591508" lat="50.356826">
        <ele>820.425</ele>
        <time>2026-08-08T10:11:25.580Z</time>
      </trkpt>
      <trkpt lon="7.590520" lat="50.357245">
        <ele>820.001</ele>
        <time>2026-08-08T10:11:26.784Z</time>
      </trkpt>
      <trkpt lon="7.589476" lat="50.357607">
        <ele>819.97</ele>
        <time>2026-08-08T10:11:27.996Z</time>
      </trkpt>
      <trkpt lon="7.587829" lat="50.358049">
        <ele>813.325</ele>
        <time>2026-08-08T10:11:29.816Z</time>
      </trkpt>
      <trkpt lon="7.586700" lat="50.358274">
        <ele>803.547</ele>
        <time>2026-08-08T10:11:31.004Z</time>
      </trkpt>
      <trkpt lon="7.585490" lat="50.358432">
        <ele>794.326</ele>
        <time>2026-08-08T10:11:32.224Z</time>
      </trkpt>
      <trkpt lon="7.584203" lat="50.358534">
        <ele>785.483</ele>
        <time>2026-08-08T10:11:33.480Z</time>
      </trkpt>
      <trkpt lon="7.582274" lat="50.358579">
        <ele>770.975</ele>
        <time>2026-08-08T10:11:35.336Z</time>
      </trkpt>
      <trkpt lon="7.580998" lat="50.358543">
        <ele>757.743</ele>
        <time>2026-08-08T10:11:36.556Z</time>
      </trkpt>
      <trkpt lon="7.579749" lat="50.358437">
        <ele>744.339</ele>
        <time>2026-08-08T10:11:37.772Z</time>
      </trkpt>
      <trkpt lon="7.577901" lat="50.358150">
        <ele>725.945</ele>
        <time>2026-08-08T10:11:39.616Z</time>
      </trkpt>
      <trkpt lon="7.576097" lat="50.357740">
        <ele>713.085</ele>
        <time>2026-08-08T10:11:41.456Z</time>
      </trkpt>
      <trkpt lon="7.573800" lat="50.357074">
        <ele>711.959</ele>
        <time>2026-08-08T10:11:43.896Z</time>
      </trkpt>
      <trkpt lon="7.571104" lat="50.356234">
        <ele>720.986</ele>
        <time>2026-08-08T10:11:46.952Z</time>
      </trkpt>
      <trkpt lon="7.566541" lat="50.354756">
        <ele>733.309</ele>
        <time>2026-08-08T10:11:52.676Z</time>
      </trkpt>
      <trkpt lon="7.564257" lat="50.353907">
        <ele>731.982</ele>
        <time>2026-08-08T10:11:55.768Z</time>
      </trkpt>
      <trkpt lon="7.561564" lat="50.352914">
        <ele>718.969</ele>
        <time>2026-08-08T10:11:59.476Z</time>
      </trkpt>
      <trkpt lon="7.556425" lat="50.351352">
        <ele>691.999</ele>
        <time>2026-08-08T10:12:06.308Z</time>
      </trkpt>
      <trkpt lon="7.554075" lat="50.350803">
        <ele>683.417</ele>
        <time>2026-08-08T10:12:09.372Z</time>
      </trkpt>
      <trkpt lon="7.548782" lat="50.349870">
        <ele>662.833</ele>
        <time>2026-08-08T10:12:16.340Z</time>
      </trkpt>
      <trkpt lon="7.539930" lat="50.348389">
        <ele>626.087</ele>
        <time>2026-08-08T10:12:28.368Z</time>
      </trkpt>
      <trkpt lon="7.532060" lat="50.347146">
        <ele>599.287</ele>
        <time>2026-08-08T10:12:39.740Z</time>
      </trkpt>
      <trkpt lon="7.522694" lat="50.345863">
        <ele>586.985</ele>
        <time>2026-08-08T10:12:54.320Z</time>
      </trkpt>
      <trkpt lon="7.518109" lat="50.345348">
        <ele>597.108</ele>
        <time>2026-08-08T10:13:02.532Z</time>
      </trkpt>
      <trkpt lon="7.517126" lat="50.345132">
        <ele>600.486</ele>
        <time>2026-08-08T10:13:04.432Z</time>
      </trkpt>
      <trkpt lon="7.514609" lat="50.344436">
        <ele>598.503</ele>
        <time>2026-08-08T10:13:09.468Z</time>
      </trkpt>
      <trkpt lon="7.503584" lat="50.341203">
        <ele>594.352</ele>
        <time>2026-08-08T10:13:31.656Z</time>
      </trkpt>
      <trkpt lon="7.488863" lat="50.335239">
        <ele>606.955</ele>
        <time>2026-08-08T10:14:01.992Z</time>
      </trkpt>
      <trkpt lon="7.485608" lat="50.333639">
        <ele>618.374</ele>
        <time>2026-08-08T10:14:08.940Z</time>
      </trkpt>
      <trkpt lon="7.475261" lat="50.327936">
        <ele>618.928</ele>
        <time>2026-08-08T10:14:33.156Z</time>
      </trkpt>
      <trkpt lon="7.474860" lat="50.327591">
        <ele>615.683</ele>
        <time>2026-08-08T10:14:34.424Z</time>
      </trkpt>
      <trkpt lon="7.474504" lat="50.327222">
        <ele>612.375</ele>
        <time>2026-08-08T10:14:35.692Z</time>
      </trkpt>
      <trkpt lon="7.474056" lat="50.326635">
        <ele>605.593</ele>
        <time>2026-08-08T10:14:37.592Z</time>
      </trkpt>
      <trkpt lon="7.473702" lat="50.326012">
        <ele>597.785</ele>
        <time>2026-08-08T10:14:39.492Z</time>
      </trkpt>
      <trkpt lon="7.473451" lat="50.325361">
        <ele>590.795</ele>
        <time>2026-08-08T10:14:41.396Z</time>
      </trkpt>
      <trkpt lon="7.473311" lat="50.324689">
        <ele>584.395</ele>
        <time>2026-08-08T10:14:43.300Z</time>
      </trkpt>
      <trkpt lon="7.473295" lat="50.324237">
        <ele>581.413</ele>
        <time>2026-08-08T10:14:44.568Z</time>
      </trkpt>
      <trkpt lon="7.473311" lat="50.324014">
        <ele>580.966</ele>
        <time>2026-08-08T10:14:45.204Z</time>
      </trkpt>
      <trkpt lon="7.473346" lat="50.323792">
        <ele>580.745</ele>
        <time>2026-08-08T10:14:45.836Z</time>
      </trkpt>
      <trkpt lon="7.473484" lat="50.323366">
        <ele>578.991</ele>
        <time>2026-08-08T10:14:47.072Z</time>
      </trkpt>
      <trkpt lon="7.474013" lat="50.322567">
        <ele>568.618</ele>
        <time>2026-08-08T10:14:49.588Z</time>
      </trkpt>
      <trkpt lon="7.474365" lat="50.322194">
        <ele>563.483</ele>
        <time>2026-08-08T10:14:50.860Z</time>
      </trkpt>
      <trkpt lon="7.474954" lat="50.321654">
        <ele>559.881</ele>
        <time>2026-08-08T10:14:52.756Z</time>
      </trkpt>
      <trkpt lon="7.478835" lat="50.318153">
        <ele>524.148</ele>
        <time>2026-08-08T10:15:05.456Z</time>
      </trkpt>
      <trkpt lon="7.482156" lat="50.315319">
        <ele>490.164</ele>
        <time>2026-08-08T10:15:16.228Z</time>
      </trkpt>
      <trkpt lon="7.484237" lat="50.313580">
        <ele>460.561</ele>
        <time>2026-08-08T10:15:22.572Z</time>
      </trkpt>
      <trkpt lon="7.485977" lat="50.312207">
        <ele>445.314</ele>
        <time>2026-08-08T10:15:27.616Z</time>
      </trkpt>
      <trkpt lon="7.486458" lat="50.311896">
        <ele>442.559</ele>
        <time>2026-08-08T10:15:28.884Z</time>
      </trkpt>
      <trkpt lon="7.486990" lat="50.311619">
        <ele>438.862</ele>
        <time>2026-08-08T10:15:30.156Z</time>
      </trkpt>
      <trkpt lon="7.487871" lat="50.311301">
        <ele>431.077</ele>
        <time>2026-08-08T10:15:32.064Z</time>
      </trkpt>
      <trkpt lon="7.488506" lat="50.311151">
        <ele>424.753</ele>
        <time>2026-08-08T10:15:33.336Z</time>
      </trkpt>
      <trkpt lon="7.489175" lat="50.311048">
        <ele>417.504</ele>
        <time>2026-08-08T10:15:34.616Z</time>
      </trkpt>
      <trkpt lon="7.489858" lat="50.310997">
        <ele>409.548</ele>
        <time>2026-08-08T10:15:35.892Z</time>
      </trkpt>
      <trkpt lon="7.490896" lat="50.311013">
        <ele>397.731</ele>
        <time>2026-08-08T10:15:37.792Z</time>
      </trkpt>
      <trkpt lon="7.491930" lat="50.311115">
        <ele>386.094</ele>
        <time>2026-08-08T10:15:39.696Z</time>
      </trkpt>
      <trkpt lon="7.492953" lat="50.311287">
        <ele>375.634</ele>
        <time>2026-08-08T10:15:41.592Z</time>
      </trkpt>
      <trkpt lon="7.494595" lat="50.311674">
        <ele>363.29</ele>
        <time>2026-08-08T10:15:44.764Z</time>
      </trkpt>
      <trkpt lon="7.496069" lat="50.312154">
        <ele>354.525</ele>
        <time>2026-08-08T10:15:47.912Z</time>
      </trkpt>
      <trkpt lon="7.499146" lat="50.313338">
        <ele>336.639</ele>
        <time>2026-08-08T10:15:55.476Z</time>
      </trkpt>
      <trkpt lon="7.502520" lat="50.314662">
        <ele>315.211</ele>
        <time>2026-08-08T10:16:05.608Z</time>
      </trkpt>
      <trkpt lon="7.505162" lat="50.315760">
        <ele>293.693</ele>
        <time>2026-08-08T10:16:13.212Z</time>
      </trkpt>
      <trkpt lon="7.507267" lat="50.316671">
        <ele>274.631</ele>
        <time>2026-08-08T10:16:19.532Z</time>
      </trkpt>
      <trkpt lon="7.514325" lat="50.319448">
        <ele>254.261</ele>
        <time>2026-08-08T10:16:39.856Z</time>
      </trkpt>
      <trkpt lon="7.517163" lat="50.320617">
        <ele>237.281</ele>
        <time>2026-08-08T10:16:48.100Z</time>
      </trkpt>
      <trkpt lon="7.520524" lat="50.322076">
        <ele>219.909</ele>
        <time>2026-08-08T10:16:58.248Z</time>
      </trkpt>
      <trkpt lon="7.523135" lat="50.323195">
        <ele>204.204</ele>
        <time>2026-08-08T10:17:07.168Z</time>
      </trkpt>
      <trkpt lon="7.525034" lat="50.324014">
        <ele>200.614</ele>
        <time>2026-08-08T10:17:14.752Z</time>
      </trkpt>
      <trkpt lon="7.526100" lat="50.324460">
        <ele>199.631</ele>
        <time>2026-08-08T10:17:20.504Z</time>
      </trkpt>
      <trkpt lon="7.526231" lat="50.324517">
        <ele>199.586</ele>
        <time>2026-08-08T10:17:21.768Z</time>
      </trkpt>
      <trkpt lon="7.526266" lat="50.324535">
        <ele>199.571</ele>
        <time>2026-08-08T10:17:23.036Z</time>
      </trkpt>
      <trkpt lon="7.526309" lat="50.324557">
        <ele>199.584</ele>
        <time>2026-08-08T10:17:29.984Z</time>
      </trkpt>
      <trkpt lon="7.526356" lat="50.324576">
        <ele>199.6</ele>
        <time>2026-08-08T10:17:31.892Z</time>
      </trkpt>
      <trkpt lon="7.526769" lat="50.324711">
        <ele>199.787</ele>
        <time>2026-08-08T10:17:36.956Z</time>
      </trkpt>
      <trkpt lon="7.527543" lat="50.324989">
        <ele>200.35</ele>
        <time>2026-08-08T10:17:43.932Z</time>
      </trkpt>
      <trkpt lon="7.528304" lat="50.325318">
        <ele>200.551</ele>
        <time>2026-08-08T10:17:51.540Z</time>
      </trkpt>
      <trkpt lon="7.528364" lat="50.325337">
        <ele>200.532</ele>
        <time>2026-08-08T10:17:52.168Z</time>
      </trkpt>
      <trkpt lon="7.528424" lat="50.325351">
        <ele>200.508</ele>
        <time>2026-08-08T10:17:52.800Z</time>
      </trkpt>
      <trkpt lon="7.528485" lat="50.325360">
        <ele>200.482</ele>
        <time>2026-08-08T10:17:53.432Z</time>
      </trkpt>
      <trkpt lon="7.528546" lat="50.325364">
        <ele>200.438</ele>
        <time>2026-08-08T10:17:54.072Z</time>
      </trkpt>
      <trkpt lon="7.528604" lat="50.325362">
        <ele>200.404</ele>
        <time>2026-08-08T10:17:54.704Z</time>
      </trkpt>
      <trkpt lon="7.528652" lat="50.325356">
        <ele>200.379</ele>
        <time>2026-08-08T10:17:55.336Z</time>
      </trkpt>
      <trkpt lon="7.528692" lat="50.325348">
        <ele>200.357</ele>
        <time>2026-08-08T10:17:55.968Z</time>
      </trkpt>
      <trkpt lon="7.528721" lat="50.325340">
        <ele>200.338</ele>
        <time>2026-08-08T10:17:56.600Z</time>
      </trkpt>
      <trkpt lon="7.528745" lat="50.325330">
        <ele>200.317</ele>
        <time>2026-08-08T10:17:57.236Z</time>
      </trkpt>
      <trkpt lon="7.528765" lat="50.325318">
        <ele>200.308</ele>
        <time>2026-08-08T10:17:57.848Z</time>
      </trkpt>
      <trkpt lon="7.529059" lat="50.324993">
        <ele>200.141</ele>
        <time>2026-08-08T10:18:06.020Z</time>
      </trkpt>
      <trkpt lon="7.529084" lat="50.324961">
        <ele>200.112</ele>
        <time>2026-08-08T10:18:06.652Z</time>
      </trkpt>
      <trkpt lon="7.529102" lat="50.324934">
        <ele>200.098</ele>
        <time>2026-08-08T10:18:07.284Z</time>
      </trkpt>
      <trkpt lon="7.529113" lat="50.324910">
        <ele>200.081</ele>
        <time>2026-08-08T10:18:07.916Z</time>
      </trkpt>
      <trkpt lon="7.529119" lat="50.324893">
        <ele>200.071</ele>
        <time>2026-08-08T10:18:08.556Z</time>
      </trkpt>
      <trkpt lon="7.529120" lat="50.324875">
        <ele>200.062</ele>
        <time>2026-08-08T10:18:09.184Z</time>
      </trkpt>
      <trkpt lon="7.529114" lat="50.324855">
        <ele>200.057</ele>
        <time>2026-08-08T10:18:09.820Z</time>
      </trkpt>
      <trkpt lon="7.529101" lat="50.324833">
        <ele>200.051</ele>
        <time>2026-08-08T10:18:10.452Z</time>
      </trkpt>
      <trkpt lon="7.529055" lat="50.324781">
        <ele>200.036</ele>
        <time>2026-08-08T10:18:11.720Z</time>
      </trkpt>
      <trkpt lon="7.529020" lat="50.324751">
        <ele>200.026</ele>
        <time>2026-08-08T10:18:12.348Z</time>
      </trkpt>
      <trkpt lon="7.528974" lat="50.324722">
        <ele>200.019</ele>
        <time>2026-08-08T10:18:12.984Z</time>
      </trkpt>
      <trkpt lon="7.528844" lat="50.324665">
        <ele>200.008</ele>
        <time>2026-08-08T10:18:14.252Z</time>
      </trkpt>
      <trkpt lon="7.527268" lat="50.324064">
        <ele>199.377</ele>
        <time>2026-08-08T10:18:24.388Z</time>
      </trkpt>
      <trkpt lon="7.526626" lat="50.323790">
        <ele>199.369</ele>
        <time>2026-08-08T10:18:28.820Z</time>
      </trkpt>
      <trkpt lon="7.526359" lat="50.323667">
        <ele>199.413</ele>
        <time>2026-08-08T10:18:31.988Z</time>
      </trkpt>
      <trkpt lon="7.526185" lat="50.323563">
        <ele>199.421</ele>
        <time>2026-08-08T10:18:34.524Z</time>
      </trkpt>
      <trkpt lon="7.526141" lat="50.323530">
        <ele>199.411</ele>
        <time>2026-08-08T10:18:35.788Z</time>
      </trkpt>
      <trkpt lon="7.526118" lat="50.323502">
        <ele>199.389</ele>
        <time>2026-08-08T10:18:37.060Z</time>
      </trkpt>
      <trkpt lon="7.526109" lat="50.323487">
        <ele>199.372</ele>
        <time>2026-08-08T10:18:37.692Z</time>
      </trkpt>
      <trkpt lon="7.526102" lat="50.323470">
        <ele>199.353</ele>
        <time>2026-08-08T10:18:38.324Z</time>
      </trkpt>
      <trkpt lon="7.526097" lat="50.323452">
        <ele>199.329</ele>
        <time>2026-08-08T10:18:38.956Z</time>
      </trkpt>
      <trkpt lon="7.526094" lat="50.323437">
        <ele>199.317</ele>
        <time>2026-08-08T10:18:39.592Z</time>
      </trkpt>
      <trkpt lon="7.526094" lat="50.323427">
        <ele>199.326</ele>
        <time>2026-08-08T10:18:40.228Z</time>
      </trkpt>
      <trkpt lon="7.528041" lat="50.324060">
        <ele>199.076</ele>
        <time>2026-08-08T15:48:19.168Z</time>
      </trkpt>
      <trkpt lon="7.528065" lat="50.324036">
        <ele>199.078</ele>
        <time>2026-08-08T16:00:46.340Z</time>
      </trkpt>
      <trkpt lon="7.528068" lat="50.324027">
        <ele>199.073</ele>
        <time>2026-08-08T16:02:15.660Z</time>
      </trkpt>
      <trkpt lon="7.528075" lat="50.324017">
        <ele>199.06</ele>
        <time>2026-08-08T16:02:18.148Z</time>
      </trkpt>
      <trkpt lon="7.528086" lat="50.324013">
        <ele>199.056</ele>
        <time>2026-08-08T16:02:29.924Z</time>
      </trkpt>
      <trkpt lon="7.528048" lat="50.324050">
        <ele>199.113</ele>
        <time>2026-08-08T16:02:45.340Z</time>
      </trkpt>
      <trkpt lon="7.528062" lat="50.324057">
        <ele>199.131</ele>
        <time>2026-08-08T16:03:51.764Z</time>
      </trkpt>
      <trkpt lon="7.528072" lat="50.324064">
        <ele>199.149</ele>
        <time>2026-08-08T16:03:53.560Z</time>
      </trkpt>
      <trkpt lon="7.528072" lat="50.324088">
        <ele>199.191</ele>
        <time>2026-08-08T16:03:55.352Z</time>
      </trkpt>
      <trkpt lon="7.528036" lat="50.324139">
        <ele>199.305</ele>
        <time>2026-08-08T16:03:57.156Z</time>
      </trkpt>
      <trkpt lon="7.527992" lat="50.324187">
        <ele>199.385</ele>
        <time>2026-08-08T16:03:58.388Z</time>
      </trkpt>
      <trkpt lon="7.527965" lat="50.324209">
        <ele>199.424</ele>
        <time>2026-08-08T16:03:58.972Z</time>
      </trkpt>
      <trkpt lon="7.527940" lat="50.324225">
        <ele>199.468</ele>
        <time>2026-08-08T16:03:59.532Z</time>
      </trkpt>
      <trkpt lon="7.527915" lat="50.324239">
        <ele>199.501</ele>
        <time>2026-08-08T16:04:00.112Z</time>
      </trkpt>
      <trkpt lon="7.527889" lat="50.324250">
        <ele>199.52</ele>
        <time>2026-08-08T16:04:00.696Z</time>
      </trkpt>
      <trkpt lon="7.527864" lat="50.324258">
        <ele>199.531</ele>
        <time>2026-08-08T16:04:01.280Z</time>
      </trkpt>
      <trkpt lon="7.527842" lat="50.324263">
        <ele>199.539</ele>
        <time>2026-08-08T16:04:01.864Z</time>
      </trkpt>
      <trkpt lon="7.527817" lat="50.324263">
        <ele>199.535</ele>
        <time>2026-08-08T16:04:02.456Z</time>
      </trkpt>
      <trkpt lon="7.527755" lat="50.324254">
        <ele>199.521</ele>
        <time>2026-08-08T16:04:03.628Z</time>
      </trkpt>
      <trkpt lon="7.527678" lat="50.324237">
        <ele>199.504</ele>
        <time>2026-08-08T16:04:04.824Z</time>
      </trkpt>
      <trkpt lon="7.527590" lat="50.324208">
        <ele>199.479</ele>
        <time>2026-08-08T16:04:06.036Z</time>
      </trkpt>
      <trkpt lon="7.527269" lat="50.324072">
        <ele>199.374</ele>
        <time>2026-08-08T16:04:09.608Z</time>
      </trkpt>
      <trkpt lon="7.526860" lat="50.323887">
        <ele>199.336</ele>
        <time>2026-08-08T16:04:13.752Z</time>
      </trkpt>
      <trkpt lon="7.526817" lat="50.323871">
        <ele>199.351</ele>
        <time>2026-08-08T16:04:14.336Z</time>
      </trkpt>
      <trkpt lon="7.526769" lat="50.323857">
        <ele>199.36</ele>
        <time>2026-08-08T16:04:14.932Z</time>
      </trkpt>
      <trkpt lon="7.526716" lat="50.323847">
        <ele>199.376</ele>
        <time>2026-08-08T16:04:15.540Z</time>
      </trkpt>
      <trkpt lon="7.526661" lat="50.323842">
        <ele>199.387</ele>
        <time>2026-08-08T16:04:16.128Z</time>
      </trkpt>
      <trkpt lon="7.526603" lat="50.323841">
        <ele>199.409</ele>
        <time>2026-08-08T16:04:16.736Z</time>
      </trkpt>
      <trkpt lon="7.526547" lat="50.323845">
        <ele>199.429</ele>
        <time>2026-08-08T16:04:17.340Z</time>
      </trkpt>
      <trkpt lon="7.526495" lat="50.323854">
        <ele>199.45</ele>
        <time>2026-08-08T16:04:17.932Z</time>
      </trkpt>
      <trkpt lon="7.526445" lat="50.323867">
        <ele>199.474</ele>
        <time>2026-08-08T16:04:18.524Z</time>
      </trkpt>
      <trkpt lon="7.526398" lat="50.323885">
        <ele>199.499</ele>
        <time>2026-08-08T16:04:19.112Z</time>
      </trkpt>
      <trkpt lon="7.526355" lat="50.323907">
        <ele>199.52</ele>
        <time>2026-08-08T16:04:19.716Z</time>
      </trkpt>
      <trkpt lon="7.526317" lat="50.323931">
        <ele>199.544</ele>
        <time>2026-08-08T16:04:20.312Z</time>
      </trkpt>
      <trkpt lon="7.526285" lat="50.323958">
        <ele>199.563</ele>
        <time>2026-08-08T16:04:20.908Z</time>
      </trkpt>
      <trkpt lon="7.526250" lat="50.324000">
        <ele>199.564</ele>
        <time>2026-08-08T16:04:22.100Z</time>
      </trkpt>
      <trkpt lon="7.526181" lat="50.324100">
        <ele>199.611</ele>
        <time>2026-08-08T16:04:47.368Z</time>
      </trkpt>
      <trkpt lon="7.526074" lat="50.324261">
        <ele>199.626</ele>
        <time>2026-08-08T16:04:50.536Z</time>
      </trkpt>
      <trkpt lon="7.526062" lat="50.324292">
        <ele>199.621</ele>
        <time>2026-08-08T16:04:51.168Z</time>
      </trkpt>
      <trkpt lon="7.526057" lat="50.324320">
        <ele>199.613</ele>
        <time>2026-08-08T16:04:51.800Z</time>
      </trkpt>
      <trkpt lon="7.526057" lat="50.324345">
        <ele>199.61</ele>
        <time>2026-08-08T16:04:52.432Z</time>
      </trkpt>
      <trkpt lon="7.526061" lat="50.324370">
        <ele>199.607</ele>
        <time>2026-08-08T16:04:53.068Z</time>
      </trkpt>
      <trkpt lon="7.526067" lat="50.324390">
        <ele>199.596</ele>
        <time>2026-08-08T16:04:53.700Z</time>
      </trkpt>
      <trkpt lon="7.526068" lat="50.324400">
        <ele>199.595</ele>
        <time>2026-08-08T16:04:54.332Z</time>
      </trkpt>
      <trkpt lon="7.526110" lat="50.324426">
        <ele>199.606</ele>
        <time>2026-08-08T16:05:01.932Z</time>
      </trkpt>
      <trkpt lon="7.526233" lat="50.324488">
        <ele>199.616</ele>
        <time>2026-08-08T16:05:03.200Z</time>
      </trkpt>
      <trkpt lon="7.526559" lat="50.324629">
        <ele>199.725</ele>
        <time>2026-08-08T16:05:05.096Z</time>
      </trkpt>
      <trkpt lon="7.527016" lat="50.324828">
        <ele>200.189</ele>
        <time>2026-08-08T16:05:07.000Z</time>
      </trkpt>
      <trkpt lon="7.528171" lat="50.325323">
        <ele>210.048</ele>
        <time>2026-08-08T16:05:10.772Z</time>
      </trkpt>
      <trkpt lon="7.530030" lat="50.326038">
        <ele>229.141</ele>
        <time>2026-08-08T16:05:15.840Z</time>
      </trkpt>
      <trkpt lon="7.531572" lat="50.326579">
        <ele>246.867</ele>
        <time>2026-08-08T16:05:19.636Z</time>
      </trkpt>
      <trkpt lon="7.533180" lat="50.327142">
        <ele>266.417</ele>
        <time>2026-08-08T16:05:23.436Z</time>
      </trkpt>
      <trkpt lon="7.534817" lat="50.327739">
        <ele>286.413</ele>
        <time>2026-08-08T16:05:27.236Z</time>
      </trkpt>
      <trkpt lon="7.536432" lat="50.328355">
        <ele>309.383</ele>
        <time>2026-08-08T16:05:31.036Z</time>
      </trkpt>
      <trkpt lon="7.538231" lat="50.329024">
        <ele>333.49</ele>
        <time>2026-08-08T16:05:35.468Z</time>
      </trkpt>
      <trkpt lon="7.542844" lat="50.330727">
        <ele>360.718</ele>
        <time>2026-08-08T16:05:46.868Z</time>
      </trkpt>
      <trkpt lon="7.543350" lat="50.330934">
        <ele>362.32</ele>
        <time>2026-08-08T16:05:48.136Z</time>
      </trkpt>
      <trkpt lon="7.543595" lat="50.331046">
        <ele>363.368</ele>
        <time>2026-08-08T16:05:48.768Z</time>
      </trkpt>
      <trkpt lon="7.543828" lat="50.331167">
        <ele>364.508</ele>
        <time>2026-08-08T16:05:49.404Z</time>
      </trkpt>
      <trkpt lon="7.544776" lat="50.331930">
        <ele>367.041</ele>
        <time>2026-08-08T16:05:52.572Z</time>
      </trkpt>
      <trkpt lon="7.545087" lat="50.332285">
        <ele>366.832</ele>
        <time>2026-08-08T16:05:53.836Z</time>
      </trkpt>
      <trkpt lon="7.545360" lat="50.332662">
        <ele>367.786</ele>
        <time>2026-08-08T16:05:55.100Z</time>
      </trkpt>
      <trkpt lon="7.545683" lat="50.333254">
        <ele>370.245</ele>
        <time>2026-08-08T16:05:57.000Z</time>
      </trkpt>
      <trkpt lon="7.545886" lat="50.333837">
        <ele>371.525</ele>
        <time>2026-08-08T16:05:58.752Z</time>
      </trkpt>
      <trkpt lon="7.545981" lat="50.334444">
        <ele>372.385</ele>
        <time>2026-08-08T16:06:00.548Z</time>
      </trkpt>
      <trkpt lon="7.545956" lat="50.335273">
        <ele>374.137</ele>
        <time>2026-08-08T16:06:02.936Z</time>
      </trkpt>
      <trkpt lon="7.545793" lat="50.336091">
        <ele>376.732</ele>
        <time>2026-08-08T16:06:05.280Z</time>
      </trkpt>
      <trkpt lon="7.545457" lat="50.337107">
        <ele>381.986</ele>
        <time>2026-08-08T16:06:08.228Z</time>
      </trkpt>
      <trkpt lon="7.544926" lat="50.338316">
        <ele>392.451</ele>
        <time>2026-08-08T16:06:11.804Z</time>
      </trkpt>
      <trkpt lon="7.544458" lat="50.339071">
        <ele>399.879</ele>
        <time>2026-08-08T16:06:14.168Z</time>
      </trkpt>
      <trkpt lon="7.543866" lat="50.339779">
        <ele>406.502</ele>
        <time>2026-08-08T16:06:16.532Z</time>
      </trkpt>
      <trkpt lon="7.543144" lat="50.340429">
        <ele>412.036</ele>
        <time>2026-08-08T16:06:18.876Z</time>
      </trkpt>
      <trkpt lon="7.542310" lat="50.341020">
        <ele>416.385</ele>
        <time>2026-08-08T16:06:21.212Z</time>
      </trkpt>
      <trkpt lon="7.541612" lat="50.341423">
        <ele>419.181</ele>
        <time>2026-08-08T16:06:22.960Z</time>
      </trkpt>
      <trkpt lon="7.540585" lat="50.341907">
        <ele>422.39</ele>
        <time>2026-08-08T16:06:25.316Z</time>
      </trkpt>
      <trkpt lon="7.539459" lat="50.342329">
        <ele>425.641</ele>
        <time>2026-08-08T16:06:27.688Z</time>
      </trkpt>
      <trkpt lon="7.538270" lat="50.342689">
        <ele>429.584</ele>
        <time>2026-08-08T16:06:30.060Z</time>
      </trkpt>
      <trkpt lon="7.536732" lat="50.343044">
        <ele>435.077</ele>
        <time>2026-08-08T16:06:32.992Z</time>
      </trkpt>
      <trkpt lon="7.535159" lat="50.343291">
        <ele>441.323</ele>
        <time>2026-08-08T16:06:35.904Z</time>
      </trkpt>
      <trkpt lon="7.533861" lat="50.343407">
        <ele>446.266</ele>
        <time>2026-08-08T16:06:38.256Z</time>
      </trkpt>
      <trkpt lon="7.532559" lat="50.343442">
        <ele>451.723</ele>
        <time>2026-08-08T16:06:40.596Z</time>
      </trkpt>
      <trkpt lon="7.531263" lat="50.343404">
        <ele>457.57</ele>
        <time>2026-08-08T16:06:42.928Z</time>
      </trkpt>
      <trkpt lon="7.529640" lat="50.343248">
        <ele>464.206</ele>
        <time>2026-08-08T16:06:45.864Z</time>
      </trkpt>
      <trkpt lon="7.528685" lat="50.343096">
        <ele>467.22</ele>
        <time>2026-08-08T16:06:47.608Z</time>
      </trkpt>
      <trkpt lon="7.527725" lat="50.342896">
        <ele>469.851</ele>
        <time>2026-08-08T16:06:49.380Z</time>
      </trkpt>
      <trkpt lon="7.525235" lat="50.342200">
        <ele>476.751</ele>
        <time>2026-08-08T16:06:54.036Z</time>
      </trkpt>
      <trkpt lon="7.518168" lat="50.340016">
        <ele>498.906</ele>
        <time>2026-08-08T16:07:06.916Z</time>
      </trkpt>
      <trkpt lon="7.515743" lat="50.339539">
        <ele>506.976</ele>
        <time>2026-08-08T16:07:10.964Z</time>
      </trkpt>
      <trkpt lon="7.513608" lat="50.339251">
        <ele>518.034</ele>
        <time>2026-08-08T16:07:14.468Z</time>
      </trkpt>
      <trkpt lon="7.511796" lat="50.339104">
        <ele>524.876</ele>
        <time>2026-08-08T16:07:17.404Z</time>
      </trkpt>
      <trkpt lon="7.510719" lat="50.339066">
        <ele>531.083</ele>
        <time>2026-08-08T16:07:19.152Z</time>
      </trkpt>
      <trkpt lon="7.507874" lat="50.339115">
        <ele>544.596</ele>
        <time>2026-08-08T16:07:23.792Z</time>
      </trkpt>
      <trkpt lon="7.502942" lat="50.339273">
        <ele>545.159</ele>
        <time>2026-08-08T16:07:31.408Z</time>
      </trkpt>
      <trkpt lon="7.498702" lat="50.339468">
        <ele>539.336</ele>
        <time>2026-08-08T16:07:37.216Z</time>
      </trkpt>
      <trkpt lon="7.484042" lat="50.340780">
        <ele>569.38</ele>
        <time>2026-08-08T16:07:55.828Z</time>
      </trkpt>
      <trkpt lon="7.478802" lat="50.341125">
        <ele>599.519</ele>
        <time>2026-08-08T16:08:02.872Z</time>
      </trkpt>
      <trkpt lon="7.472058" lat="50.341511">
        <ele>631.499</ele>
        <time>2026-08-08T16:08:12.288Z</time>
      </trkpt>
      <trkpt lon="7.458237" lat="50.341981">
        <ele>652.33</ele>
        <time>2026-08-08T16:08:30.872Z</time>
      </trkpt>
      <trkpt lon="7.451751" lat="50.341950">
        <ele>667.518</ele>
        <time>2026-08-08T16:08:39.104Z</time>
      </trkpt>
      <trkpt lon="7.443107" lat="50.341531">
        <ele>699.56</ele>
        <time>2026-08-08T16:08:50.504Z</time>
      </trkpt>
      <trkpt lon="7.424186" lat="50.340928">
        <ele>707.466</ele>
        <time>2026-08-08T16:09:15.812Z</time>
      </trkpt>
      <trkpt lon="7.402491" lat="50.341013">
        <ele>743.788</ele>
        <time>2026-08-08T16:09:43.964Z</time>
      </trkpt>
      <trkpt lon="7.391818" lat="50.340953">
        <ele>756.511</ele>
        <time>2026-08-08T16:09:57.900Z</time>
      </trkpt>
      <trkpt lon="7.376527" lat="50.341734">
        <ele>800.722</ele>
        <time>2026-08-08T16:10:17.172Z</time>
      </trkpt>
      <trkpt lon="7.371081" lat="50.341816">
        <ele>820.976</ele>
        <time>2026-08-08T16:10:24.676Z</time>
      </trkpt>
      <trkpt lon="7.359423" lat="50.341583">
        <ele>817.623</ele>
        <time>2026-08-08T16:10:40.464Z</time>
      </trkpt>
      <trkpt lon="7.354425" lat="50.341786">
        <ele>791.735</ele>
        <time>2026-08-08T16:10:46.464Z</time>
      </trkpt>
      <trkpt lon="7.341180" lat="50.342645">
        <ele>811.833</ele>
        <time>2026-08-08T16:11:01.680Z</time>
      </trkpt>
      <trkpt lon="7.336198" lat="50.343144">
        <ele>849.674</ele>
        <time>2026-08-08T16:11:08.328Z</time>
      </trkpt>
      <trkpt lon="7.331269" lat="50.343471">
        <ele>878.497</ele>
        <time>2026-08-08T16:11:15.336Z</time>
      </trkpt>
      <trkpt lon="7.327423" lat="50.343466">
        <ele>881.303</ele>
        <time>2026-08-08T16:11:20.712Z</time>
      </trkpt>
      <trkpt lon="7.324981" lat="50.343326">
        <ele>877.234</ele>
        <time>2026-08-08T16:11:24.020Z</time>
      </trkpt>
      <trkpt lon="7.321257" lat="50.342915">
        <ele>869.918</ele>
        <time>2026-08-08T16:11:28.840Z</time>
      </trkpt>
      <trkpt lon="7.308582" lat="50.341132">
        <ele>880.323</ele>
        <time>2026-08-08T16:11:44.872Z</time>
      </trkpt>
      <trkpt lon="7.304526" lat="50.340921">
        <ele>891.69</ele>
        <time>2026-08-08T16:11:50.020Z</time>
      </trkpt>
      <trkpt lon="7.300097" lat="50.340931">
        <ele>903.703</ele>
        <time>2026-08-08T16:11:55.712Z</time>
      </trkpt>
      <trkpt lon="7.295638" lat="50.341241">
        <ele>911.662</ele>
        <time>2026-08-08T16:12:01.508Z</time>
      </trkpt>
      <trkpt lon="7.285948" lat="50.342427">
        <ele>928.442</ele>
        <time>2026-08-08T16:12:14.124Z</time>
      </trkpt>
      <trkpt lon="7.262842" lat="50.346448">
        <ele>978.76</ele>
        <time>2026-08-08T16:12:44.340Z</time>
      </trkpt>
      <trkpt lon="7.240311" lat="50.350242">
        <ele>989.453</ele>
        <time>2026-08-08T16:13:14.792Z</time>
      </trkpt>
      <trkpt lon="7.216128" lat="50.354947">
        <ele>984.731</ele>
        <time>2026-08-08T16:13:45.304Z</time>
      </trkpt>
      <trkpt lon="7.207475" lat="50.357020">
        <ele>1026.14</ele>
        <time>2026-08-08T16:13:56.692Z</time>
      </trkpt>
      <trkpt lon="7.201607" lat="50.358281">
        <ele>1032.41</ele>
        <time>2026-08-08T16:14:04.268Z</time>
      </trkpt>
      <trkpt lon="7.197494" lat="50.358851">
        <ele>1032.19</ele>
        <time>2026-08-08T16:14:09.336Z</time>
      </trkpt>
      <trkpt lon="7.187469" lat="50.360077">
        <ele>1037.51</ele>
        <time>2026-08-08T16:14:22.000Z</time>
      </trkpt>
      <trkpt lon="7.164602" lat="50.363750">
        <ele>1019.8</ele>
        <time>2026-08-08T16:14:52.376Z</time>
      </trkpt>
      <trkpt lon="7.149996" lat="50.367224">
        <ele>1045.19</ele>
        <time>2026-08-08T16:15:10.688Z</time>
      </trkpt>
      <trkpt lon="7.145352" lat="50.368662">
        <ele>1065.8</ele>
        <time>2026-08-08T16:15:16.996Z</time>
      </trkpt>
      <trkpt lon="7.140429" lat="50.370528">
        <ele>1081.72</ele>
        <time>2026-08-08T16:15:23.960Z</time>
      </trkpt>
      <trkpt lon="7.136439" lat="50.372267">
        <ele>1083.39</ele>
        <time>2026-08-08T16:15:29.648Z</time>
      </trkpt>
      <trkpt lon="7.128083" lat="50.376395">
        <ele>1072.67</ele>
        <time>2026-08-08T16:15:41.680Z</time>
      </trkpt>
      <trkpt lon="7.123711" lat="50.377939">
        <ele>1074.86</ele>
        <time>2026-08-08T16:15:47.380Z</time>
      </trkpt>
      <trkpt lon="7.119836" lat="50.379064">
        <ele>1085.16</ele>
        <time>2026-08-08T16:15:52.416Z</time>
      </trkpt>
      <trkpt lon="7.109905" lat="50.381329">
        <ele>1123.54</ele>
        <time>2026-08-08T16:16:05.712Z</time>
      </trkpt>
      <trkpt lon="7.106557" lat="50.381852">
        <ele>1128.24</ele>
        <time>2026-08-08T16:16:10.144Z</time>
      </trkpt>
      <trkpt lon="7.081624" lat="50.385007">
        <ele>1124.68</ele>
        <time>2026-08-08T16:16:40.540Z</time>
      </trkpt>
      <trkpt lon="7.073909" lat="50.386244">
        <ele>1142.75</ele>
        <time>2026-08-08T16:16:50.040Z</time>
      </trkpt>
      <trkpt lon="7.049618" lat="50.390528">
        <ele>1118.7</ele>
        <time>2026-08-08T16:17:20.248Z</time>
      </trkpt>
      <trkpt lon="7.040792" lat="50.391822">
        <ele>1079.65</ele>
        <time>2026-08-08T16:17:30.216Z</time>
      </trkpt>
      <trkpt lon="7.029447" lat="50.393131">
        <ele>1088.64</ele>
        <time>2026-08-08T16:17:42.856Z</time>
      </trkpt>
      <trkpt lon="7.023342" lat="50.393751">
        <ele>1123.66</ele>
        <time>2026-08-08T16:17:50.396Z</time>
      </trkpt>
      <trkpt lon="7.000238" lat="50.395711">
        <ele>1101.14</ele>
        <time>2026-08-08T16:18:20.792Z</time>
      </trkpt>
      <trkpt lon="6.974584" lat="50.397830">
        <ele>1099.64</ele>
        <time>2026-08-08T16:18:51.196Z</time>
      </trkpt>
      <trkpt lon="6.971021" lat="50.398317">
        <ele>1106.23</ele>
        <time>2026-08-08T16:18:55.628Z</time>
      </trkpt>
      <trkpt lon="6.957211" lat="50.400391">
        <ele>1115.67</ele>
        <time>2026-08-08T16:19:12.728Z</time>
      </trkpt>
      <trkpt lon="6.942171" lat="50.401606">
        <ele>1144.08</ele>
        <time>2026-08-08T16:19:31.060Z</time>
      </trkpt>
      <trkpt lon="6.924997" lat="50.403040">
        <ele>1160.73</ele>
        <time>2026-08-08T16:19:52.572Z</time>
      </trkpt>
      <trkpt lon="6.903124" lat="50.404855">
        <ele>1187.12</ele>
        <time>2026-08-08T16:20:19.184Z</time>
      </trkpt>
      <trkpt lon="6.879999" lat="50.406018">
        <ele>1194.52</ele>
        <time>2026-08-08T16:20:47.272Z</time>
      </trkpt>
      <trkpt lon="6.855414" lat="50.405754">
        <ele>1187.7</ele>
        <time>2026-08-08T16:21:17.556Z</time>
      </trkpt>
      <trkpt lon="6.846740" lat="50.406192">
        <ele>1142.64</ele>
        <time>2026-08-08T16:21:27.688Z</time>
      </trkpt>
      <trkpt lon="6.838048" lat="50.406951">
        <ele>1097.25</ele>
        <time>2026-08-08T16:21:36.968Z</time>
      </trkpt>
      <trkpt lon="6.825582" lat="50.408257">
        <ele>1098.67</ele>
        <time>2026-08-08T16:21:50.288Z</time>
      </trkpt>
      <trkpt lon="6.817658" lat="50.409050">
        <ele>1134.54</ele>
        <time>2026-08-08T16:21:59.572Z</time>
      </trkpt>
      <trkpt lon="6.804989" lat="50.410123">
        <ele>1170.11</ele>
        <time>2026-08-08T16:22:16.044Z</time>
      </trkpt>
      <trkpt lon="6.794161" lat="50.410541">
        <ele>1154.78</ele>
        <time>2026-08-08T16:22:29.400Z</time>
      </trkpt>
      <trkpt lon="6.779024" lat="50.410618">
        <ele>1158.61</ele>
        <time>2026-08-08T16:22:47.120Z</time>
      </trkpt>
      <trkpt lon="6.771365" lat="50.410156">
        <ele>1175.55</ele>
        <time>2026-08-08T16:22:56.488Z</time>
      </trkpt>
      <trkpt lon="6.767369" lat="50.409654">
        <ele>1182.54</ele>
        <time>2026-08-08T16:23:01.572Z</time>
      </trkpt>
      <trkpt lon="6.762568" lat="50.408755">
        <ele>1186</ele>
        <time>2026-08-08T16:23:07.872Z</time>
      </trkpt>
      <trkpt lon="6.758855" lat="50.407793">
        <ele>1185.12</ele>
        <time>2026-08-08T16:23:12.936Z</time>
      </trkpt>
      <trkpt lon="6.756597" lat="50.407086">
        <ele>1183.2</ele>
        <time>2026-08-08T16:23:16.104Z</time>
      </trkpt>
      <trkpt lon="6.746755" lat="50.403222">
        <ele>1182.8</ele>
        <time>2026-08-08T16:23:30.652Z</time>
      </trkpt>
      <trkpt lon="6.739605" lat="50.399856">
        <ele>1192.37</ele>
        <time>2026-08-08T16:23:41.952Z</time>
      </trkpt>
      <trkpt lon="6.724415" lat="50.391487">
        <ele>1189.81</ele>
        <time>2026-08-08T16:24:07.996Z</time>
      </trkpt>
      <trkpt lon="6.720378" lat="50.389170">
        <ele>1182.58</ele>
        <time>2026-08-08T16:24:14.920Z</time>
      </trkpt>
      <trkpt lon="6.719512" lat="50.388853">
        <ele>1184.02</ele>
        <time>2026-08-08T16:24:16.196Z</time>
      </trkpt>
      <trkpt lon="6.718619" lat="50.388589">
        <ele>1186.8</ele>
        <time>2026-08-08T16:24:17.464Z</time>
      </trkpt>
      <trkpt lon="6.717256" lat="50.388294">
        <ele>1191.6</ele>
        <time>2026-08-08T16:24:19.364Z</time>
      </trkpt>
      <trkpt lon="6.716333" lat="50.388166">
        <ele>1196.25</ele>
        <time>2026-08-08T16:24:20.628Z</time>
      </trkpt>
      <trkpt lon="6.714940" lat="50.388065">
        <ele>1202.99</ele>
        <time>2026-08-08T16:24:22.532Z</time>
      </trkpt>
      <trkpt lon="6.713559" lat="50.388061">
        <ele>1208.98</ele>
        <time>2026-08-08T16:24:24.428Z</time>
      </trkpt>
      <trkpt lon="6.711274" lat="50.388202">
        <ele>1212.45</ele>
        <time>2026-08-08T16:24:27.580Z</time>
      </trkpt>
      <trkpt lon="6.704582" lat="50.388869">
        <ele>1194.84</ele>
        <time>2026-08-08T16:24:36.452Z</time>
      </trkpt>
      <trkpt lon="6.696158" lat="50.389842">
        <ele>1161.51</ele>
        <time>2026-08-08T16:24:46.500Z</time>
      </trkpt>
      <trkpt lon="6.674923" lat="50.392052">
        <ele>1190.12</ele>
        <time>2026-08-08T16:25:11.944Z</time>
      </trkpt>
      <trkpt lon="6.650739" lat="50.393941">
        <ele>1159.16</ele>
        <time>2026-08-08T16:25:41.876Z</time>
      </trkpt>
      <trkpt lon="6.641937" lat="50.395275">
        <ele>1144.45</ele>
        <time>2026-08-08T16:25:52.624Z</time>
      </trkpt>
      <trkpt lon="6.628625" lat="50.398072">
        <ele>1108.09</ele>
        <time>2026-08-08T16:26:09.020Z</time>
      </trkpt>
      <trkpt lon="6.621512" lat="50.400008">
        <ele>1097.85</ele>
        <time>2026-08-08T16:26:17.900Z</time>
      </trkpt>
      <trkpt lon="6.617718" lat="50.401324">
        <ele>1091.86</ele>
        <time>2026-08-08T16:26:22.908Z</time>
      </trkpt>
      <trkpt lon="6.613912" lat="50.402921">
        <ele>1085.5</ele>
        <time>2026-08-08T16:26:28.224Z</time>
      </trkpt>
      <trkpt lon="6.609931" lat="50.404904">
        <ele>1074.08</ele>
        <time>2026-08-08T16:26:34.096Z</time>
      </trkpt>
      <trkpt lon="6.604694" lat="50.407472">
        <ele>1058.79</ele>
        <time>2026-08-08T16:26:41.744Z</time>
      </trkpt>
      <trkpt lon="6.602070" lat="50.408486">
        <ele>1054.63</ele>
        <time>2026-08-08T16:26:45.308Z</time>
      </trkpt>
      <trkpt lon="6.598915" lat="50.409463">
        <ele>1049.12</ele>
        <time>2026-08-08T16:26:49.408Z</time>
      </trkpt>
      <trkpt lon="6.592295" lat="50.411116">
        <ele>1026.4</ele>
        <time>2026-08-08T16:26:57.712Z</time>
      </trkpt>
      <trkpt lon="6.590797" lat="50.411355">
        <ele>1013.67</ele>
        <time>2026-08-08T16:26:59.496Z</time>
      </trkpt>
      <trkpt lon="6.589228" lat="50.411505">
        <ele>999.615</ele>
        <time>2026-08-08T16:27:01.264Z</time>
      </trkpt>
      <trkpt lon="6.587619" lat="50.411556">
        <ele>985.183</ele>
        <time>2026-08-08T16:27:03.052Z</time>
      </trkpt>
      <trkpt lon="6.585975" lat="50.411530">
        <ele>969.655</ele>
        <time>2026-08-08T16:27:04.832Z</time>
      </trkpt>
      <trkpt lon="6.581509" lat="50.411205">
        <ele>935.336</ele>
        <time>2026-08-08T16:27:09.556Z</time>
      </trkpt>
      <trkpt lon="6.578176" lat="50.410795">
        <ele>910.608</ele>
        <time>2026-08-08T16:27:13.048Z</time>
      </trkpt>
      <trkpt lon="6.573162" lat="50.409871">
        <ele>888.983</ele>
        <time>2026-08-08T16:27:18.408Z</time>
      </trkpt>
      <trkpt lon="6.567409" lat="50.408640">
        <ele>895.332</ele>
        <time>2026-08-08T16:27:24.964Z</time>
      </trkpt>
      <trkpt lon="6.563060" lat="50.407843">
        <ele>913.666</ele>
        <time>2026-08-08T16:27:30.376Z</time>
      </trkpt>
      <trkpt lon="6.559511" lat="50.407179">
        <ele>906.032</ele>
        <time>2026-08-08T16:27:35.120Z</time>
      </trkpt>
      <trkpt lon="6.557783" lat="50.406706">
        <ele>896.243</ele>
        <time>2026-08-08T16:27:37.572Z</time>
      </trkpt>
      <trkpt lon="6.551593" lat="50.404625">
        <ele>865.799</ele>
        <time>2026-08-08T16:27:46.400Z</time>
      </trkpt>
      <trkpt lon="6.548583" lat="50.403705">
        <ele>850.319</ele>
        <time>2026-08-08T16:27:50.508Z</time>
      </trkpt>
      <trkpt lon="6.545814" lat="50.403051">
        <ele>835.226</ele>
        <time>2026-08-08T16:27:54.080Z</time>
      </trkpt>
      <trkpt lon="6.542924" lat="50.402556">
        <ele>822.212</ele>
        <time>2026-08-08T16:27:57.628Z</time>
      </trkpt>
      <trkpt lon="6.537478" lat="50.401841">
        <ele>795.379</ele>
        <time>2026-08-08T16:28:04.296Z</time>
      </trkpt>
      <trkpt lon="6.534407" lat="50.401576">
        <ele>768.394</ele>
        <time>2026-08-08T16:28:07.912Z</time>
      </trkpt>
      <trkpt lon="6.531355" lat="50.401230">
        <ele>755.974</ele>
        <time>2026-08-08T16:28:11.496Z</time>
      </trkpt>
      <trkpt lon="6.527922" lat="50.400691">
        <ele>759.401</ele>
        <time>2026-08-08T16:28:15.688Z</time>
      </trkpt>
      <trkpt lon="6.526116" lat="50.400265">
        <ele>759.959</ele>
        <time>2026-08-08T16:28:18.052Z</time>
      </trkpt>
      <trkpt lon="6.524832" lat="50.399841">
        <ele>760.217</ele>
        <time>2026-08-08T16:28:19.844Z</time>
      </trkpt>
      <trkpt lon="6.523228" lat="50.399196">
        <ele>755.441</ele>
        <time>2026-08-08T16:28:22.240Z</time>
      </trkpt>
      <trkpt lon="6.521794" lat="50.398467">
        <ele>750.795</ele>
        <time>2026-08-08T16:28:24.612Z</time>
      </trkpt>
      <trkpt lon="6.521136" lat="50.398067">
        <ele>747.87</ele>
        <time>2026-08-08T16:28:25.804Z</time>
      </trkpt>
      <trkpt lon="6.520249" lat="50.397441">
        <ele>741.733</ele>
        <time>2026-08-08T16:28:27.576Z</time>
      </trkpt>
      <trkpt lon="6.519456" lat="50.396761">
        <ele>735.537</ele>
        <time>2026-08-08T16:28:29.336Z</time>
      </trkpt>
      <trkpt lon="6.518581" lat="50.395776">
        <ele>730.393</ele>
        <time>2026-08-08T16:28:31.720Z</time>
      </trkpt>
      <trkpt lon="6.517898" lat="50.394735">
        <ele>722.485</ele>
        <time>2026-08-08T16:28:34.108Z</time>
      </trkpt>
      <trkpt lon="6.517405" lat="50.393655">
        <ele>714.179</ele>
        <time>2026-08-08T16:28:36.468Z</time>
      </trkpt>
      <trkpt lon="6.514800" lat="50.387851">
        <ele>690.491</ele>
        <time>2026-08-08T16:28:49.512Z</time>
      </trkpt>
      <trkpt lon="6.514469" lat="50.387359">
        <ele>686.709</ele>
        <time>2026-08-08T16:28:50.684Z</time>
      </trkpt>
      <trkpt lon="6.514290" lat="50.387125">
        <ele>684.663</ele>
        <time>2026-08-08T16:28:51.264Z</time>
      </trkpt>
      <trkpt lon="6.513857" lat="50.386656">
        <ele>681.366</ele>
        <time>2026-08-08T16:28:52.452Z</time>
      </trkpt>
      <trkpt lon="6.513045" lat="50.386045">
        <ele>681.119</ele>
        <time>2026-08-08T16:28:54.232Z</time>
      </trkpt>
      <trkpt lon="6.512426" lat="50.385705">
        <ele>683.689</ele>
        <time>2026-08-08T16:28:55.404Z</time>
      </trkpt>
      <trkpt lon="6.511754" lat="50.385411">
        <ele>686.169</ele>
        <time>2026-08-08T16:28:56.572Z</time>
      </trkpt>
      <trkpt lon="6.511031" lat="50.385166">
        <ele>688.271</ele>
        <time>2026-08-08T16:28:57.756Z</time>
      </trkpt>
      <trkpt lon="6.510250" lat="50.384974">
        <ele>690.08</ele>
        <time>2026-08-08T16:28:58.968Z</time>
      </trkpt>
      <trkpt lon="6.509462" lat="50.384844">
        <ele>691.383</ele>
        <time>2026-08-08T16:29:00.148Z</time>
      </trkpt>
      <trkpt lon="6.508656" lat="50.384773">
        <ele>693.222</ele>
        <time>2026-08-08T16:29:01.328Z</time>
      </trkpt>
      <trkpt lon="6.508250" lat="50.384761">
        <ele>694.614</ele>
        <time>2026-08-08T16:29:01.916Z</time>
      </trkpt>
      <trkpt lon="6.507852" lat="50.384767">
        <ele>696.068</ele>
        <time>2026-08-08T16:29:02.500Z</time>
      </trkpt>
      <trkpt lon="6.507448" lat="50.384793">
        <ele>697.458</ele>
        <time>2026-08-08T16:29:03.092Z</time>
      </trkpt>
      <trkpt lon="6.507050" lat="50.384843">
        <ele>698.876</ele>
        <time>2026-08-08T16:29:03.684Z</time>
      </trkpt>
      <trkpt lon="6.506307" lat="50.385009">
        <ele>702.048</ele>
        <time>2026-08-08T16:29:04.848Z</time>
      </trkpt>
      <trkpt lon="6.505957" lat="50.385125">
        <ele>703.679</ele>
        <time>2026-08-08T16:29:05.428Z</time>
      </trkpt>
      <trkpt lon="6.505609" lat="50.385269">
        <ele>705.234</ele>
        <time>2026-08-08T16:29:06.060Z</time>
      </trkpt>
      <trkpt lon="6.505294" lat="50.385427">
        <ele>706.441</ele>
        <time>2026-08-08T16:29:06.644Z</time>
      </trkpt>
      <trkpt lon="6.505005" lat="50.385600">
        <ele>707.283</ele>
        <time>2026-08-08T16:29:07.240Z</time>
      </trkpt>
      <trkpt lon="6.504493" lat="50.385988">
        <ele>707.329</ele>
        <time>2026-08-08T16:29:08.428Z</time>
      </trkpt>
      <trkpt lon="6.503853" lat="50.386635">
        <ele>704.325</ele>
        <time>2026-08-08T16:29:10.204Z</time>
      </trkpt>
      <trkpt lon="6.502963" lat="50.387825">
        <ele>697.787</ele>
        <time>2026-08-08T16:29:13.192Z</time>
      </trkpt>
      <trkpt lon="6.502361" lat="50.388836">
        <ele>692.252</ele>
        <time>2026-08-08T16:29:15.560Z</time>
      </trkpt>
      <trkpt lon="6.501322" lat="50.391096">
        <ele>713.647</ele>
        <time>2026-08-08T16:29:20.856Z</time>
      </trkpt>
      <trkpt lon="6.501157" lat="50.391764">
        <ele>733.888</ele>
        <time>2026-08-08T16:29:22.656Z</time>
      </trkpt>
      <trkpt lon="6.501128" lat="50.392149">
        <ele>748.43</ele>
        <time>2026-08-08T16:29:23.848Z</time>
      </trkpt>
      <trkpt lon="6.501149" lat="50.392514">
        <ele>760.613</ele>
        <time>2026-08-08T16:29:25.060Z</time>
      </trkpt>
      <trkpt lon="6.501416" lat="50.393287">
        <ele>779.656</ele>
        <time>2026-08-08T16:29:27.972Z</time>
      </trkpt>
      <trkpt lon="6.501681" lat="50.393728">
        <ele>783.79</ele>
        <time>2026-08-08T16:29:29.772Z</time>
      </trkpt>
      <trkpt lon="6.502000" lat="50.394159">
        <ele>783.272</ele>
        <time>2026-08-08T16:29:31.544Z</time>
      </trkpt>
      <trkpt lon="6.502370" lat="50.394595">
        <ele>780.118</ele>
        <time>2026-08-08T16:29:33.284Z</time>
      </trkpt>
      <trkpt lon="6.503152" lat="50.395321">
        <ele>774.031</ele>
        <time>2026-08-08T16:29:36.248Z</time>
      </trkpt>
      <trkpt lon="6.503725" lat="50.395767">
        <ele>768.563</ele>
        <time>2026-08-08T16:29:38.072Z</time>
      </trkpt>
      <trkpt lon="6.505606" lat="50.396902">
        <ele>750.38</ele>
        <time>2026-08-08T16:29:42.768Z</time>
      </trkpt>
      <trkpt lon="6.510250" lat="50.399557">
        <ele>726.538</ele>
        <time>2026-08-08T16:29:52.936Z</time>
      </trkpt>
      <trkpt lon="6.511085" lat="50.400036">
        <ele>722.158</ele>
        <time>2026-08-08T16:29:54.748Z</time>
      </trkpt>
      <trkpt lon="6.512503" lat="50.400668">
        <ele>714.5</ele>
        <time>2026-08-08T16:29:57.696Z</time>
      </trkpt>
      <trkpt lon="6.513681" lat="50.401076">
        <ele>712.584</ele>
        <time>2026-08-08T16:30:00.112Z</time>
      </trkpt>
      <trkpt lon="6.515368" lat="50.401556">
        <ele>693.539</ele>
        <time>2026-08-08T16:30:03.648Z</time>
      </trkpt>
      <trkpt lon="6.517762" lat="50.402065">
        <ele>671.717</ele>
        <time>2026-08-08T16:30:08.920Z</time>
      </trkpt>
      <trkpt lon="6.519700" lat="50.402436">
        <ele>652.08</ele>
        <time>2026-08-08T16:30:13.656Z</time>
      </trkpt>
      <trkpt lon="6.520838" lat="50.402731">
        <ele>645.038</ele>
        <time>2026-08-08T16:30:16.628Z</time>
      </trkpt>
      <trkpt lon="6.523056" lat="50.403403">
        <ele>626.114</ele>
        <time>2026-08-08T16:30:22.508Z</time>
      </trkpt>
      <trkpt lon="6.524347" lat="50.403840">
        <ele>615.518</ele>
        <time>2026-08-08T16:30:26.700Z</time>
      </trkpt>
      <trkpt lon="6.525565" lat="50.404338">
        <ele>598.425</ele>
        <time>2026-08-08T16:30:32.020Z</time>
      </trkpt>
      <trkpt lon="6.526669" lat="50.404785">
        <ele>582.625</ele>
        <time>2026-08-08T16:30:37.384Z</time>
      </trkpt>
      <trkpt lon="6.527979" lat="50.405259">
        <ele>578.705</ele>
        <time>2026-08-08T16:30:44.480Z</time>
      </trkpt>
      <trkpt lon="6.528263" lat="50.405352">
        <ele>578.834</ele>
        <time>2026-08-08T16:30:46.896Z</time>
      </trkpt>
      <trkpt lon="6.528524" lat="50.405407">
        <ele>578.965</ele>
        <time>2026-08-08T16:30:49.304Z</time>
      </trkpt>
      <trkpt lon="6.528653" lat="50.405426">
        <ele>579.027</ele>
        <time>2026-08-08T16:30:50.504Z</time>
      </trkpt>
      <trkpt lon="6.528719" lat="50.405431">
        <ele>579.055</ele>
        <time>2026-08-08T16:30:51.104Z</time>
      </trkpt>
      <trkpt lon="6.528787" lat="50.405432">
        <ele>579.082</ele>
        <time>2026-08-08T16:30:51.728Z</time>
      </trkpt>
      <trkpt lon="6.528851" lat="50.405428">
        <ele>579.106</ele>
        <time>2026-08-08T16:30:52.320Z</time>
      </trkpt>
      <trkpt lon="6.528914" lat="50.405422">
        <ele>579.129</ele>
        <time>2026-08-08T16:30:52.904Z</time>
      </trkpt>
      <trkpt lon="6.528973" lat="50.405412">
        <ele>579.152</ele>
        <time>2026-08-08T16:30:53.476Z</time>
      </trkpt>
      <trkpt lon="6.529031" lat="50.405399">
        <ele>579.177</ele>
        <time>2026-08-08T16:30:54.056Z</time>
      </trkpt>
      <trkpt lon="6.529087" lat="50.405382">
        <ele>579.204</ele>
        <time>2026-08-08T16:30:54.656Z</time>
      </trkpt>
      <trkpt lon="6.529188" lat="50.405340">
        <ele>579.263</ele>
        <time>2026-08-08T16:30:55.840Z</time>
      </trkpt>
      <trkpt lon="6.529279" lat="50.405291">
        <ele>579.335</ele>
        <time>2026-08-08T16:30:57.060Z</time>
      </trkpt>
      <trkpt lon="6.529325" lat="50.405271">
        <ele>579.374</ele>
        <time>2026-08-08T16:30:57.644Z</time>
      </trkpt>
      <trkpt lon="6.529374" lat="50.405255">
        <ele>579.414</ele>
        <time>2026-08-08T16:30:58.240Z</time>
      </trkpt>
      <trkpt lon="6.529425" lat="50.405244">
        <ele>579.458</ele>
        <time>2026-08-08T16:30:58.824Z</time>
      </trkpt>
      <trkpt lon="6.529477" lat="50.405237">
        <ele>579.495</ele>
        <time>2026-08-08T16:30:59.424Z</time>
      </trkpt>
      <trkpt lon="6.529530" lat="50.405235">
        <ele>579.533</ele>
        <time>2026-08-08T16:31:00.012Z</time>
      </trkpt>
      <trkpt lon="6.529583" lat="50.405237">
        <ele>579.568</ele>
        <time>2026-08-08T16:31:00.612Z</time>
      </trkpt>
      <trkpt lon="6.529684" lat="50.405252">
        <ele>579.628</ele>
        <time>2026-08-08T16:31:01.788Z</time>
      </trkpt>
      <trkpt lon="6.529776" lat="50.405277">
        <ele>579.66</ele>
        <time>2026-08-08T16:31:02.996Z</time>
      </trkpt>
      <trkpt lon="6.529842" lat="50.405300">
        <ele>579.688</ele>
        <time>2026-08-08T16:31:09.536Z</time>
      </trkpt>
      <trkpt lon="6.530051" lat="50.405394">
        <ele>579.728</ele>
        <time>2026-08-08T16:31:13.696Z</time>
      </trkpt>
      <trkpt lon="6.530780" lat="50.405641">
        <ele>579.894</ele>
        <time>2026-08-08T16:31:23.968Z</time>
      </trkpt>
      <trkpt lon="6.531611" lat="50.406019">
        <ele>580.481</ele>
        <time>2026-08-08T16:31:34.180Z</time>
      </trkpt>
      <trkpt lon="6.532844" lat="50.406510">
        <ele>581.513</ele>
        <time>2026-08-08T16:31:44.380Z</time>
      </trkpt>
      <trkpt lon="6.533286" lat="50.406683">
        <ele>581.515</ele>
        <time>2026-08-08T16:31:47.956Z</time>
      </trkpt>
      <trkpt lon="6.534078" lat="50.406950">
        <ele>581.321</ele>
        <time>2026-08-08T16:31:55.096Z</time>
      </trkpt>
      <trkpt lon="6.534285" lat="50.407048">
        <ele>581.306</ele>
        <time>2026-08-08T16:31:57.504Z</time>
      </trkpt>
      <trkpt lon="6.534640" lat="50.407235">
        <ele>581.396</ele>
        <time>2026-08-08T16:32:01.052Z</time>
      </trkpt>
      <trkpt lon="6.534777" lat="50.407291">
        <ele>581.443</ele>
        <time>2026-08-08T16:32:02.240Z</time>
      </trkpt>
      <trkpt lon="6.535251" lat="50.407448">
        <ele>581.572</ele>
        <time>2026-08-08T16:32:06.392Z</time>
      </trkpt>
      <trkpt lon="6.535354" lat="50.407472">
        <ele>581.573</ele>
        <time>2026-08-08T16:32:07.584Z</time>
      </trkpt>
      <trkpt lon="6.535449" lat="50.407489">
        <ele>581.575</ele>
        <time>2026-08-08T16:32:08.768Z</time>
      </trkpt>
      <trkpt lon="6.535499" lat="50.407496">
        <ele>581.576</ele>
        <time>2026-08-08T16:32:09.364Z</time>
      </trkpt>
      <trkpt lon="6.535547" lat="50.407499">
        <ele>581.569</ele>
        <time>2026-08-08T16:32:09.940Z</time>
      </trkpt>
      <trkpt lon="6.535596" lat="50.407499">
        <ele>581.564</ele>
        <time>2026-08-08T16:32:10.548Z</time>
      </trkpt>
      <trkpt lon="6.535646" lat="50.407496">
        <ele>581.558</ele>
        <time>2026-08-08T16:32:11.168Z</time>
      </trkpt>
      <trkpt lon="6.535694" lat="50.407489">
        <ele>581.546</ele>
        <time>2026-08-08T16:32:11.764Z</time>
      </trkpt>
      <trkpt lon="6.535873" lat="50.407447">
        <ele>581.485</ele>
        <time>2026-08-08T16:32:14.124Z</time>
      </trkpt>
      <trkpt lon="6.535967" lat="50.407435">
        <ele>581.446</ele>
        <time>2026-08-08T16:32:15.312Z</time>
      </trkpt>
      <trkpt lon="6.536015" lat="50.407432">
        <ele>581.439</ele>
        <time>2026-08-08T16:32:15.904Z</time>
      </trkpt>
      <trkpt lon="6.536064" lat="50.407433">
        <ele>581.415</ele>
        <time>2026-08-08T16:32:16.496Z</time>
      </trkpt>
      <trkpt lon="6.536113" lat="50.407438">
        <ele>581.393</ele>
        <time>2026-08-08T16:32:17.076Z</time>
      </trkpt>
      <trkpt lon="6.536160" lat="50.407447">
        <ele>581.362</ele>
        <time>2026-08-08T16:32:17.656Z</time>
      </trkpt>
      <trkpt lon="6.536207" lat="50.407459">
        <ele>581.332</ele>
        <time>2026-08-08T16:32:18.244Z</time>
      </trkpt>
      <trkpt lon="6.536251" lat="50.407475">
        <ele>581.317</ele>
        <time>2026-08-08T16:32:18.824Z</time>
      </trkpt>
      <trkpt lon="6.536293" lat="50.407496">
        <ele>581.298</ele>
        <time>2026-08-08T16:32:19.416Z</time>
      </trkpt>
      <trkpt lon="6.536498" lat="50.407623">
        <ele>581.15</ele>
        <time>2026-08-08T16:32:22.976Z</time>
      </trkpt>
      <trkpt lon="6.536515" lat="50.407631">
        <ele>581.138</ele>
        <time>2026-08-08T16:32:23.572Z</time>
      </trkpt>
      <trkpt lon="6.536561" lat="50.407649">
        <ele>581.102</ele>
        <time>2026-08-08T16:32:25.316Z</time>
      </trkpt>
      <trkpt lon="6.536587" lat="50.407657">
        <ele>581.083</ele>
        <time>2026-08-08T16:32:27.116Z</time>
      </trkpt>
      <trkpt lon="6.536615" lat="50.407663">
        <ele>581.062</ele>
        <time>2026-08-08T16:32:28.888Z</time>
      </trkpt>
      <trkpt lon="6.536644" lat="50.407669">
        <ele>581.04</ele>
        <time>2026-08-08T16:32:30.080Z</time>
      </trkpt>
      <trkpt lon="6.536655" lat="50.407670">
        <ele>581.037</ele>
        <time>2026-08-08T16:32:30.656Z</time>
      </trkpt>
      <trkpt lon="6.536668" lat="50.407671">
        <ele>581.031</ele>
        <time>2026-08-08T16:32:31.248Z</time>
      </trkpt>
      <trkpt lon="6.536704" lat="50.407670">
        <ele>581.007</ele>
        <time>2026-08-08T16:32:32.412Z</time>
      </trkpt>
      <trkpt lon="6.536717" lat="50.407668">
        <ele>581.004</ele>
        <time>2026-08-08T16:32:32.996Z</time>
      </trkpt>
      <trkpt lon="6.536742" lat="50.407663">
        <ele>580.996</ele>
        <time>2026-08-08T16:32:34.188Z</time>
      </trkpt>
      <trkpt lon="6.536761" lat="50.407657">
        <ele>580.988</ele>
        <time>2026-08-08T16:32:34.772Z</time>
      </trkpt>
      <trkpt lon="6.536778" lat="50.407652">
        <ele>580.985</ele>
        <time>2026-08-08T16:32:35.376Z</time>
      </trkpt>
      <trkpt lon="6.536796" lat="50.407643">
        <ele>580.984</ele>
        <time>2026-08-08T16:32:35.972Z</time>
      </trkpt>
      <trkpt lon="6.536812" lat="50.407630">
        <ele>580.983</ele>
        <time>2026-08-08T16:32:36.568Z</time>
      </trkpt>
      <trkpt lon="6.536822" lat="50.407620">
        <ele>580.981</ele>
        <time>2026-08-08T16:32:37.152Z</time>
      </trkpt>
      <trkpt lon="6.536828" lat="50.407600">
        <ele>580.971</ele>
        <time>2026-08-08T16:32:38.344Z</time>
      </trkpt>
      <trkpt lon="6.536825" lat="50.407589">
        <ele>580.969</ele>
        <time>2026-08-08T16:32:38.924Z</time>
      </trkpt>
      <trkpt lon="6.536819" lat="50.407575">
        <ele>580.967</ele>
        <time>2026-08-08T16:32:40.104Z</time>
      </trkpt>
      <trkpt lon="6.536808" lat="50.407566">
        <ele>580.97</ele>
        <time>2026-08-08T16:32:50.740Z</time>
      </trkpt>
      <trkpt lon="6.536783" lat="50.407554">
        <ele>580.966</ele>
        <time>2026-08-08T16:35:09.160Z</time>
      </trkpt>
      <trkpt lon="6.536608" lat="50.407486">
        <ele>581.051</ele>
        <time>2026-08-08T16:35:12.752Z</time>
      </trkpt>
      <trkpt lon="6.536514" lat="50.407457">
        <ele>581.103</ele>
        <time>2026-08-08T16:35:13.956Z</time>
      </trkpt>
      <trkpt lon="6.536403" lat="50.407433">
        <ele>581.178</ele>
        <time>2026-08-08T16:35:15.160Z</time>
      </trkpt>
      <trkpt lon="6.536279" lat="50.407418">
        <ele>581.239</ele>
        <time>2026-08-08T16:35:16.340Z</time>
      </trkpt>
      <trkpt lon="6.536145" lat="50.407416">
        <ele>581.334</ele>
        <time>2026-08-08T16:35:17.520Z</time>
      </trkpt>
      <trkpt lon="6.536005" lat="50.407429">
        <ele>581.425</ele>
        <time>2026-08-08T16:35:18.696Z</time>
      </trkpt>
      <trkpt lon="6.535782" lat="50.407459">
        <ele>581.508</ele>
        <time>2026-08-08T16:35:20.472Z</time>
      </trkpt>
      <trkpt lon="6.535703" lat="50.407463">
        <ele>581.531</ele>
        <time>2026-08-08T16:35:21.084Z</time>
      </trkpt>
      <trkpt lon="6.535625" lat="50.407460">
        <ele>581.546</ele>
        <time>2026-08-08T16:35:21.664Z</time>
      </trkpt>
      <trkpt lon="6.535546" lat="50.407448">
        <ele>581.538</ele>
        <time>2026-08-08T16:35:22.260Z</time>
      </trkpt>
      <trkpt lon="6.535392" lat="50.407411">
        <ele>581.519</ele>
        <time>2026-08-08T16:35:23.444Z</time>
      </trkpt>
      <trkpt lon="6.534908" lat="50.407276">
        <ele>581.467</ele>
        <time>2026-08-08T16:35:27.064Z</time>
      </trkpt>
      <trkpt lon="6.533467" lat="50.406719">
        <ele>581.5</ele>
        <time>2026-08-08T16:35:37.264Z</time>
      </trkpt>
      <trkpt lon="6.531925" lat="50.406141">
        <ele>580.866</ele>
        <time>2026-08-08T16:35:47.296Z</time>
      </trkpt>
      <trkpt lon="6.530306" lat="50.405485">
        <ele>579.782</ele>
        <time>2026-08-08T16:35:57.448Z</time>
      </trkpt>
      <trkpt lon="6.529812" lat="50.405287">
        <ele>579.678</ele>
        <time>2026-08-08T16:36:01.552Z</time>
      </trkpt>
      <trkpt lon="6.529755" lat="50.405267">
        <ele>579.647</ele>
        <time>2026-08-08T16:36:02.140Z</time>
      </trkpt>
      <trkpt lon="6.529659" lat="50.405245">
        <ele>579.596</ele>
        <time>2026-08-08T16:36:03.308Z</time>
      </trkpt>
      <trkpt lon="6.529613" lat="50.405239">
        <ele>579.565</ele>
        <time>2026-08-08T16:36:03.896Z</time>
      </trkpt>
      <trkpt lon="6.529574" lat="50.405236">
        <ele>579.535</ele>
        <time>2026-08-08T16:36:04.492Z</time>
      </trkpt>
      <trkpt lon="6.529539" lat="50.405234">
        <ele>579.511</ele>
        <time>2026-08-08T16:36:05.128Z</time>
      </trkpt>
      <trkpt lon="6.529505" lat="50.405236">
        <ele>579.489</ele>
        <time>2026-08-08T16:36:05.724Z</time>
      </trkpt>
      <trkpt lon="6.529475" lat="50.405240">
        <ele>579.462</ele>
        <time>2026-08-08T16:36:06.308Z</time>
      </trkpt>
      <trkpt lon="6.529455" lat="50.405243">
        <ele>579.446</ele>
        <time>2026-08-08T16:36:06.904Z</time>
      </trkpt>
      <trkpt lon="6.529387" lat="50.405287">
        <ele>579.382</ele>
        <time>2026-08-08T16:36:28.224Z</time>
      </trkpt>
      <trkpt lon="6.529238" lat="50.405385">
        <ele>579.26</ele>
        <time>2026-08-08T16:36:30.644Z</time>
      </trkpt>
      <trkpt lon="6.529206" lat="50.405414">
        <ele>579.234</ele>
        <time>2026-08-08T16:36:31.248Z</time>
      </trkpt>
      <trkpt lon="6.529163" lat="50.405468">
        <ele>579.211</ele>
        <time>2026-08-08T16:36:32.416Z</time>
      </trkpt>
      <trkpt lon="6.529130" lat="50.405525">
        <ele>579.197</ele>
        <time>2026-08-08T16:36:33.620Z</time>
      </trkpt>
      <trkpt lon="6.529121" lat="50.405547">
        <ele>579.197</ele>
        <time>2026-08-08T16:36:34.220Z</time>
      </trkpt>
      <trkpt lon="6.529116" lat="50.405569">
        <ele>579.199</ele>
        <time>2026-08-08T16:36:34.836Z</time>
      </trkpt>
      <trkpt lon="6.529116" lat="50.405592">
        <ele>579.201</ele>
        <time>2026-08-08T16:36:35.444Z</time>
      </trkpt>
      <trkpt lon="6.529119" lat="50.405610">
        <ele>579.202</ele>
        <time>2026-08-08T16:36:36.044Z</time>
      </trkpt>
      <trkpt lon="6.529121" lat="50.405621">
        <ele>579.204</ele>
        <time>2026-08-08T16:36:36.660Z</time>
      </trkpt>
      <trkpt lon="6.529195" lat="50.405665">
        <ele>579.239</ele>
        <time>2026-08-08T16:36:44.960Z</time>
      </trkpt>
      <trkpt lon="6.529403" lat="50.405763">
        <ele>579.273</ele>
        <time>2026-08-08T16:36:46.732Z</time>
      </trkpt>
      <trkpt lon="6.529841" lat="50.405956">
        <ele>579.464</ele>
        <time>2026-08-08T16:36:49.100Z</time>
      </trkpt>
      <trkpt lon="6.530713" lat="50.406382">
        <ele>581.502</ele>
        <time>2026-08-08T16:36:52.680Z</time>
      </trkpt>
      <trkpt lon="6.532278" lat="50.407177">
        <ele>597.913</ele>
        <time>2026-08-08T16:36:58.648Z</time>
      </trkpt>
      <trkpt lon="6.534102" lat="50.408078">
        <ele>607.028</ele>
        <time>2026-08-08T16:37:04.612Z</time>
      </trkpt>
      <trkpt lon="6.536371" lat="50.409279">
        <ele>624.709</ele>
        <time>2026-08-08T16:37:11.168Z</time>
      </trkpt>
      <trkpt lon="6.537845" lat="50.410027">
        <ele>644.651</ele>
        <time>2026-08-08T16:37:15.300Z</time>
      </trkpt>
      <trkpt lon="6.539100" lat="50.410606">
        <ele>665.776</ele>
        <time>2026-08-08T16:37:18.888Z</time>
      </trkpt>
      <trkpt lon="6.540302" lat="50.411103">
        <ele>683.718</ele>
        <time>2026-08-08T16:37:22.416Z</time>
      </trkpt>
      <trkpt lon="6.542001" lat="50.411648">
        <ele>702.159</ele>
        <time>2026-08-08T16:37:27.120Z</time>
      </trkpt>
      <trkpt lon="6.542935" lat="50.411869">
        <ele>709.848</ele>
        <time>2026-08-08T16:37:29.492Z</time>
      </trkpt>
      <trkpt lon="6.543904" lat="50.412030">
        <ele>717.656</ele>
        <time>2026-08-08T16:37:31.836Z</time>
      </trkpt>
      <trkpt lon="6.545192" lat="50.412148">
        <ele>726.013</ele>
        <time>2026-08-08T16:37:34.760Z</time>
      </trkpt>
      <trkpt lon="6.546518" lat="50.412165">
        <ele>733.834</ele>
        <time>2026-08-08T16:37:37.712Z</time>
      </trkpt>
      <trkpt lon="6.548065" lat="50.412091">
        <ele>745.076</ele>
        <time>2026-08-08T16:37:41.232Z</time>
      </trkpt>
      <trkpt lon="6.549550" lat="50.411933">
        <ele>759.048</ele>
        <time>2026-08-08T16:37:44.748Z</time>
      </trkpt>
      <trkpt lon="6.551269" lat="50.411828">
        <ele>770.393</ele>
        <time>2026-08-08T16:37:48.844Z</time>
      </trkpt>
      <trkpt lon="6.551769" lat="50.411859">
        <ele>772.364</ele>
        <time>2026-08-08T16:37:50.004Z</time>
      </trkpt>
      <trkpt lon="6.552266" lat="50.411924">
        <ele>774.309</ele>
        <time>2026-08-08T16:37:51.172Z</time>
      </trkpt>
      <trkpt lon="6.552763" lat="50.412020">
        <ele>776.529</ele>
        <time>2026-08-08T16:37:52.360Z</time>
      </trkpt>
      <trkpt lon="6.553481" lat="50.412209">
        <ele>778.771</ele>
        <time>2026-08-08T16:37:54.108Z</time>
      </trkpt>
      <trkpt lon="6.554192" lat="50.412441">
        <ele>781.256</ele>
        <time>2026-08-08T16:37:55.880Z</time>
      </trkpt>
      <trkpt lon="6.555556" lat="50.412995">
        <ele>796.333</ele>
        <time>2026-08-08T16:37:59.408Z</time>
      </trkpt>
      <trkpt lon="6.556173" lat="50.413318">
        <ele>805.477</ele>
        <time>2026-08-08T16:38:01.148Z</time>
      </trkpt>
      <trkpt lon="6.556751" lat="50.413679">
        <ele>813.794</ele>
        <time>2026-08-08T16:38:02.896Z</time>
      </trkpt>
      <trkpt lon="6.557987" lat="50.414568">
        <ele>833.93</ele>
        <time>2026-08-08T16:38:07.004Z</time>
      </trkpt>
      <trkpt lon="6.562687" lat="50.417798">
        <ele>849.97</ele>
        <time>2026-08-08T16:38:24.068Z</time>
      </trkpt>
      <trkpt lon="6.563980" lat="50.418457">
        <ele>848.924</ele>
        <time>2026-08-08T16:38:27.632Z</time>
      </trkpt>
      <trkpt lon="6.565081" lat="50.418932">
        <ele>852.466</ele>
        <time>2026-08-08T16:38:30.552Z</time>
      </trkpt>
      <trkpt lon="6.567230" lat="50.419738">
        <ele>864.915</ele>
        <time>2026-08-08T16:38:36.400Z</time>
      </trkpt>
      <trkpt lon="6.569176" lat="50.420279">
        <ele>871.841</ele>
        <time>2026-08-08T16:38:41.660Z</time>
      </trkpt>
      <trkpt lon="6.570715" lat="50.420767">
        <ele>877.112</ele>
        <time>2026-08-08T16:38:45.792Z</time>
      </trkpt>
      <trkpt lon="6.571326" lat="50.421042">
        <ele>880.385</ele>
        <time>2026-08-08T16:38:47.540Z</time>
      </trkpt>
      <trkpt lon="6.573878" lat="50.422339">
        <ele>899.148</ele>
        <time>2026-08-08T16:38:55.156Z</time>
      </trkpt>
      <trkpt lon="6.574946" lat="50.423021">
        <ele>909.154</ele>
        <time>2026-08-08T16:38:58.676Z</time>
      </trkpt>
      <trkpt lon="6.578478" lat="50.425679">
        <ele>920.394</ele>
        <time>2026-08-08T16:39:10.972Z</time>
      </trkpt>
      <trkpt lon="6.579994" lat="50.426982">
        <ele>913.667</ele>
        <time>2026-08-08T16:39:15.648Z</time>
      </trkpt>
      <trkpt lon="6.582332" lat="50.429058">
        <ele>903.569</ele>
        <time>2026-08-08T16:39:22.176Z</time>
      </trkpt>
      <trkpt lon="6.589932" lat="50.434573">
        <ele>896.946</ele>
        <time>2026-08-08T16:39:38.668Z</time>
      </trkpt>
      <trkpt lon="6.603945" lat="50.444154">
        <ele>930.983</ele>
        <time>2026-08-08T16:40:08.696Z</time>
      </trkpt>
      <trkpt lon="6.611408" lat="50.449763">
        <ele>967.571</ele>
        <time>2026-08-08T16:40:25.200Z</time>
      </trkpt>
      <trkpt lon="6.625167" lat="50.460033">
        <ele>982.45</ele>
        <time>2026-08-08T16:40:55.264Z</time>
      </trkpt>
      <trkpt lon="6.631379" lat="50.463763">
        <ele>975.206</ele>
        <time>2026-08-08T16:41:06.404Z</time>
      </trkpt>
      <trkpt lon="6.645440" lat="50.469895">
        <ele>1011.62</ele>
        <time>2026-08-08T16:41:29.392Z</time>
      </trkpt>
      <trkpt lon="6.663456" lat="50.478667">
        <ele>1010.56</ele>
        <time>2026-08-08T16:41:59.980Z</time>
      </trkpt>
      <trkpt lon="6.680692" lat="50.487087">
        <ele>1049.83</ele>
        <time>2026-08-08T16:42:28.284Z</time>
      </trkpt>
      <trkpt lon="6.682172" lat="50.487701">
        <ele>1047.71</ele>
        <time>2026-08-08T16:42:30.660Z</time>
      </trkpt>
      <trkpt lon="6.683353" lat="50.488089">
        <ele>1042.14</ele>
        <time>2026-08-08T16:42:32.420Z</time>
      </trkpt>
      <trkpt lon="6.684590" lat="50.488394">
        <ele>1038.17</ele>
        <time>2026-08-08T16:42:34.172Z</time>
      </trkpt>
      <trkpt lon="6.686339" lat="50.488668">
        <ele>1035.07</ele>
        <time>2026-08-08T16:42:36.544Z</time>
      </trkpt>
      <trkpt lon="6.687699" lat="50.488769">
        <ele>1032.59</ele>
        <time>2026-08-08T16:42:38.352Z</time>
      </trkpt>
      <trkpt lon="6.689516" lat="50.488765">
        <ele>1028.43</ele>
        <time>2026-08-08T16:42:40.692Z</time>
      </trkpt>
      <trkpt lon="6.690907" lat="50.488672">
        <ele>1023.21</ele>
        <time>2026-08-08T16:42:42.476Z</time>
      </trkpt>
      <trkpt lon="6.693220" lat="50.488363">
        <ele>1010.49</ele>
        <time>2026-08-08T16:42:45.408Z</time>
      </trkpt>
      <trkpt lon="6.695609" lat="50.487885">
        <ele>994.771</ele>
        <time>2026-08-08T16:42:48.396Z</time>
      </trkpt>
      <trkpt lon="6.700335" lat="50.486625">
        <ele>979.334</ele>
        <time>2026-08-08T16:42:54.356Z</time>
      </trkpt>
      <trkpt lon="6.707486" lat="50.484317">
        <ele>997.138</ele>
        <time>2026-08-08T16:43:04.096Z</time>
      </trkpt>
      <trkpt lon="6.711639" lat="50.482662">
        <ele>1020.8</ele>
        <time>2026-08-08T16:43:10.644Z</time>
      </trkpt>
      <trkpt lon="6.714332" lat="50.481296">
        <ele>1035.83</ele>
        <time>2026-08-08T16:43:15.504Z</time>
      </trkpt>
      <trkpt lon="6.724290" lat="50.475341">
        <ele>1021.66</ele>
        <time>2026-08-08T16:43:34.208Z</time>
      </trkpt>
      <trkpt lon="6.729616" lat="50.471988">
        <ele>998.23</ele>
        <time>2026-08-08T16:43:43.636Z</time>
      </trkpt>
      <trkpt lon="6.731648" lat="50.470313">
        <ele>988.496</ele>
        <time>2026-08-08T16:43:47.768Z</time>
      </trkpt>
      <trkpt lon="6.734889" lat="50.466879">
        <ele>971.124</ele>
        <time>2026-08-08T16:43:55.552Z</time>
      </trkpt>
      <trkpt lon="6.737612" lat="50.464126">
        <ele>961.693</ele>
        <time>2026-08-08T16:44:02.052Z</time>
      </trkpt>
      <trkpt lon="6.741193" lat="50.460543">
        <ele>954.913</ele>
        <time>2026-08-08T16:44:11.004Z</time>
      </trkpt>
      <trkpt lon="6.742230" lat="50.459189">
        <ele>961.522</ele>
        <time>2026-08-08T16:44:14.524Z</time>
      </trkpt>
      <trkpt lon="6.743158" lat="50.457482">
        <ele>968.433</ele>
        <time>2026-08-08T16:44:19.252Z</time>
      </trkpt>
      <trkpt lon="6.745715" lat="50.451209">
        <ele>933.765</ele>
        <time>2026-08-08T16:44:38.704Z</time>
      </trkpt>
      <trkpt lon="6.747284" lat="50.448747">
        <ele>921.997</ele>
        <time>2026-08-08T16:44:48.132Z</time>
      </trkpt>
      <trkpt lon="6.747552" lat="50.448485">
        <ele>916.713</ele>
        <time>2026-08-08T16:44:49.292Z</time>
      </trkpt>
      <trkpt lon="6.748017" lat="50.448108">
        <ele>907.433</ele>
        <time>2026-08-08T16:44:51.060Z</time>
      </trkpt>
      <trkpt lon="6.748562" lat="50.447751">
        <ele>896.804</ele>
        <time>2026-08-08T16:44:52.840Z</time>
      </trkpt>
      <trkpt lon="6.749407" lat="50.447328">
        <ele>881.356</ele>
        <time>2026-08-08T16:44:55.200Z</time>
      </trkpt>
      <trkpt lon="6.750121" lat="50.447061">
        <ele>870.275</ele>
        <time>2026-08-08T16:44:56.940Z</time>
      </trkpt>
      <trkpt lon="6.750909" lat="50.446837">
        <ele>860.246</ele>
        <time>2026-08-08T16:44:58.708Z</time>
      </trkpt>
      <trkpt lon="6.751719" lat="50.446665">
        <ele>850.82</ele>
        <time>2026-08-08T16:45:00.464Z</time>
      </trkpt>
      <trkpt lon="6.752835" lat="50.446505">
        <ele>837.682</ele>
        <time>2026-08-08T16:45:02.800Z</time>
      </trkpt>
      <trkpt lon="6.753681" lat="50.446436">
        <ele>825.731</ele>
        <time>2026-08-08T16:45:04.576Z</time>
      </trkpt>
      <trkpt lon="6.754530" lat="50.446405">
        <ele>812.755</ele>
        <time>2026-08-08T16:45:06.352Z</time>
      </trkpt>
      <trkpt lon="6.756069" lat="50.446435">
        <ele>800.884</ele>
        <time>2026-08-08T16:45:09.916Z</time>
      </trkpt>
      <trkpt lon="6.757279" lat="50.446547">
        <ele>786.59</ele>
        <time>2026-08-08T16:45:13.412Z</time>
      </trkpt>
      <trkpt lon="6.757816" lat="50.446635">
        <ele>776.397</ele>
        <time>2026-08-08T16:45:15.172Z</time>
      </trkpt>
      <trkpt lon="6.759320" lat="50.446975">
        <ele>748.404</ele>
        <time>2026-08-08T16:45:21.104Z</time>
      </trkpt>
      <trkpt lon="6.760285" lat="50.447194">
        <ele>721.763</ele>
        <time>2026-08-08T16:45:25.200Z</time>
      </trkpt>
      <trkpt lon="6.761405" lat="50.447426">
        <ele>694.595</ele>
        <time>2026-08-08T16:45:29.308Z</time>
      </trkpt>
      <trkpt lon="6.762229" lat="50.447555">
        <ele>683.393</ele>
        <time>2026-08-08T16:45:32.284Z</time>
      </trkpt>
      <trkpt lon="6.763676" lat="50.447724">
        <ele>657.579</ele>
        <time>2026-08-08T16:45:38.160Z</time>
      </trkpt>
      <trkpt lon="6.764616" lat="50.447850">
        <ele>634.573</ele>
        <time>2026-08-08T16:45:42.276Z</time>
      </trkpt>
      <trkpt lon="6.765564" lat="50.448045">
        <ele>612.517</ele>
        <time>2026-08-08T16:45:46.396Z</time>
      </trkpt>
      <trkpt lon="6.766794" lat="50.448331">
        <ele>590.373</ele>
        <time>2026-08-08T16:45:51.148Z</time>
      </trkpt>
      <trkpt lon="6.768322" lat="50.448650">
        <ele>571.571</ele>
        <time>2026-08-08T16:45:56.436Z</time>
      </trkpt>
      <trkpt lon="6.772171" lat="50.449261">
        <ele>552.686</ele>
        <time>2026-08-08T16:46:08.188Z</time>
      </trkpt>
      <trkpt lon="6.774462" lat="50.449686">
        <ele>534.184</ele>
        <time>2026-08-08T16:46:15.900Z</time>
      </trkpt>
      <trkpt lon="6.776175" lat="50.450034">
        <ele>516.34</ele>
        <time>2026-08-08T16:46:21.860Z</time>
      </trkpt>
      <trkpt lon="6.778488" lat="50.450508">
        <ele>499.663</ele>
        <time>2026-08-08T16:46:29.644Z</time>
      </trkpt>
      <trkpt lon="6.783405" lat="50.451565">
        <ele>485.897</ele>
        <time>2026-08-08T16:46:49.844Z</time>
      </trkpt>
      <trkpt lon="6.785874" lat="50.452011">
        <ele>483.832</ele>
        <time>2026-08-08T16:47:01.664Z</time>
      </trkpt>
      <trkpt lon="6.786652" lat="50.452178">
        <ele>483.775</ele>
        <time>2026-08-08T16:47:06.492Z</time>
      </trkpt>
      <trkpt lon="6.786730" lat="50.452189">
        <ele>483.787</ele>
        <time>2026-08-08T16:47:07.088Z</time>
      </trkpt>
      <trkpt lon="6.786806" lat="50.452194">
        <ele>483.789</ele>
        <time>2026-08-08T16:47:07.672Z</time>
      </trkpt>
      <trkpt lon="6.787166" lat="50.452182">
        <ele>483.852</ele>
        <time>2026-08-08T16:47:10.664Z</time>
      </trkpt>
      <trkpt lon="6.787294" lat="50.452173">
        <ele>483.941</ele>
        <time>2026-08-08T16:47:11.828Z</time>
      </trkpt>
      <trkpt lon="6.787415" lat="50.452151">
        <ele>484.021</ele>
        <time>2026-08-08T16:47:13.004Z</time>
      </trkpt>
      <trkpt lon="6.787473" lat="50.452137">
        <ele>483.99</ele>
        <time>2026-08-08T16:47:13.592Z</time>
      </trkpt>
      <trkpt lon="6.787529" lat="50.452120">
        <ele>483.977</ele>
        <time>2026-08-08T16:47:14.184Z</time>
      </trkpt>
      <trkpt lon="6.787582" lat="50.452098">
        <ele>484.019</ele>
        <time>2026-08-08T16:47:14.780Z</time>
      </trkpt>
      <trkpt lon="6.787633" lat="50.452073">
        <ele>484.144</ele>
        <time>2026-08-08T16:47:15.404Z</time>
      </trkpt>
      <trkpt lon="6.787711" lat="50.452021">
        <ele>484.298</ele>
        <time>2026-08-08T16:47:16.608Z</time>
      </trkpt>
      <trkpt lon="6.787730" lat="50.452007">
        <ele>484.347</ele>
        <time>2026-08-08T16:47:27.196Z</time>
      </trkpt>
      <trkpt lon="6.787734" lat="50.451997">
        <ele>484.335</ele>
        <time>2026-08-08T16:48:23.796Z</time>
      </trkpt>
      <trkpt lon="6.787739" lat="50.451988">
        <ele>484.327</ele>
        <time>2026-08-08T16:48:26.164Z</time>
      </trkpt>
      <trkpt lon="6.787751" lat="50.451981">
        <ele>484.401</ele>
        <time>2026-08-08T16:48:39.316Z</time>
      </trkpt>
      <trkpt lon="6.787763" lat="50.451979">
        <ele>484.433</ele>
        <time>2026-08-08T16:48:41.684Z</time>
      </trkpt>
      <trkpt lon="6.787775" lat="50.451978">
        <ele>484.39</ele>
        <time>2026-08-08T16:48:42.884Z</time>
      </trkpt>
      <trkpt lon="6.787792" lat="50.451981">
        <ele>484.351</ele>
        <time>2026-08-08T16:48:44.060Z</time>
      </trkpt>
      <trkpt lon="6.787801" lat="50.451985">
        <ele>484.362</ele>
        <time>2026-08-08T16:48:44.652Z</time>
      </trkpt>
      <trkpt lon="6.787809" lat="50.451995">
        <ele>484.373</ele>
        <time>2026-08-08T16:48:45.248Z</time>
      </trkpt>
      <trkpt lon="6.787817" lat="50.452010">
        <ele>484.373</ele>
        <time>2026-08-08T16:48:45.836Z</time>
      </trkpt>
      <trkpt lon="6.787823" lat="50.452029">
        <ele>484.317</ele>
        <time>2026-08-08T16:48:46.436Z</time>
      </trkpt>
      <trkpt lon="6.787826" lat="50.452084">
        <ele>484.242</ele>
        <time>2026-08-08T16:48:47.656Z</time>
      </trkpt>
      <trkpt lon="6.787819" lat="50.452118">
        <ele>484.179</ele>
        <time>2026-08-08T16:48:48.256Z</time>
      </trkpt>
      <trkpt lon="6.787805" lat="50.452153">
        <ele>484.08</ele>
        <time>2026-08-08T16:48:48.864Z</time>
      </trkpt>
      <trkpt lon="6.787781" lat="50.452189">
        <ele>484.057</ele>
        <time>2026-08-08T16:48:49.460Z</time>
      </trkpt>
      <trkpt lon="6.787750" lat="50.452223">
        <ele>484.023</ele>
        <time>2026-08-08T16:48:50.060Z</time>
      </trkpt>
      <trkpt lon="6.787712" lat="50.452252">
        <ele>483.939</ele>
        <time>2026-08-08T16:48:50.640Z</time>
      </trkpt>
      <trkpt lon="6.787664" lat="50.452278">
        <ele>483.879</ele>
        <time>2026-08-08T16:48:51.248Z</time>
      </trkpt>
      <trkpt lon="6.787611" lat="50.452298">
        <ele>483.857</ele>
        <time>2026-08-08T16:48:51.832Z</time>
      </trkpt>
      <trkpt lon="6.787561" lat="50.452311">
        <ele>483.843</ele>
        <time>2026-08-08T16:48:52.420Z</time>
      </trkpt>
      <trkpt lon="6.787514" lat="50.452319">
        <ele>483.835</ele>
        <time>2026-08-08T16:48:53.024Z</time>
      </trkpt>
      <trkpt lon="6.787475" lat="50.452321">
        <ele>483.83</ele>
        <time>2026-08-08T16:48:53.608Z</time>
      </trkpt>
      <trkpt lon="6.787442" lat="50.452322">
        <ele>483.826</ele>
        <time>2026-08-08T16:48:54.228Z</time>
      </trkpt>
      <trkpt lon="6.787420" lat="50.452321">
        <ele>483.819</ele>
        <time>2026-08-08T16:48:54.816Z</time>
      </trkpt>
      <trkpt lon="6.787272" lat="50.452296">
        <ele>483.826</ele>
        <time>2026-08-08T16:49:01.328Z</time>
      </trkpt>
      <trkpt lon="6.786985" lat="50.452244">
        <ele>483.811</ele>
        <time>2026-08-08T16:49:03.120Z</time>
      </trkpt>
      <trkpt lon="6.786426" lat="50.452142">
        <ele>483.869</ele>
        <time>2026-08-08T16:49:05.488Z</time>
      </trkpt>
      <trkpt lon="6.783975" lat="50.451690">
        <ele>495.651</ele>
        <time>2026-08-08T16:49:13.152Z</time>
      </trkpt>
      <trkpt lon="6.780350" lat="50.451142">
        <ele>505.027</ele>
        <time>2026-08-08T16:49:23.220Z</time>
      </trkpt>
      <trkpt lon="6.777457" lat="50.450716">
        <ele>518.424</ele>
        <time>2026-08-08T16:49:29.696Z</time>
      </trkpt>
      <trkpt lon="6.776070" lat="50.450631">
        <ele>530.011</ele>
        <time>2026-08-08T16:49:32.620Z</time>
      </trkpt>
      <trkpt lon="6.774074" lat="50.450642">
        <ele>544.596</ele>
        <time>2026-08-08T16:49:36.756Z</time>
      </trkpt>
      <trkpt lon="6.770457" lat="50.450794">
        <ele>565.249</ele>
        <time>2026-08-08T16:49:43.820Z</time>
      </trkpt>
      <trkpt lon="6.766175" lat="50.451109">
        <ele>586.561</ele>
        <time>2026-08-08T16:49:51.452Z</time>
      </trkpt>
      <trkpt lon="6.763706" lat="50.451426">
        <ele>598.595</ele>
        <time>2026-08-08T16:49:55.592Z</time>
      </trkpt>
      <trkpt lon="6.760755" lat="50.451963">
        <ele>594.374</ele>
        <time>2026-08-08T16:50:00.300Z</time>
      </trkpt>
      <trkpt lon="6.758828" lat="50.452445">
        <ele>589.544</ele>
        <time>2026-08-08T16:50:03.272Z</time>
      </trkpt>
      <trkpt lon="6.748045" lat="50.454579">
        <ele>613.772</ele>
        <time>2026-08-08T16:50:18.680Z</time>
      </trkpt>
      <trkpt lon="6.743810" lat="50.455830">
        <ele>628.072</ele>
        <time>2026-08-08T16:50:25.120Z</time>
      </trkpt>
      <trkpt lon="6.740037" lat="50.457239">
        <ele>629.042</ele>
        <time>2026-08-08T16:50:31.032Z</time>
      </trkpt>
      <trkpt lon="6.733990" lat="50.459714">
        <ele>629.716</ele>
        <time>2026-08-08T16:50:40.532Z</time>
      </trkpt>
      <trkpt lon="6.729930" lat="50.461707">
        <ele>643.721</ele>
        <time>2026-08-08T16:50:47.640Z</time>
      </trkpt>
      <trkpt lon="6.718872" lat="50.467811">
        <ele>646.443</ele>
        <time>2026-08-08T16:51:10.044Z</time>
      </trkpt>
      <trkpt lon="6.716699" lat="50.469408">
        <ele>649.132</ele>
        <time>2026-08-08T16:51:14.724Z</time>
      </trkpt>
      <trkpt lon="6.715487" lat="50.470485">
        <ele>660.253</ele>
        <time>2026-08-08T16:51:17.708Z</time>
      </trkpt>
      <trkpt lon="6.714507" lat="50.471536">
        <ele>676.009</ele>
        <time>2026-08-08T16:51:20.624Z</time>
      </trkpt>
      <trkpt lon="6.713843" lat="50.472364">
        <ele>688.52</ele>
        <time>2026-08-08T16:51:22.968Z</time>
      </trkpt>
      <trkpt lon="6.713124" lat="50.473406">
        <ele>698.415</ele>
        <time>2026-08-08T16:51:25.944Z</time>
      </trkpt>
      <trkpt lon="6.710929" lat="50.477513">
        <ele>723.936</ele>
        <time>2026-08-08T16:51:37.744Z</time>
      </trkpt>
      <trkpt lon="6.709888" lat="50.479304">
        <ele>750.123</ele>
        <time>2026-08-08T16:51:43.040Z</time>
      </trkpt>
      <trkpt lon="6.709058" lat="50.480869">
        <ele>771.124</ele>
        <time>2026-08-08T16:51:47.736Z</time>
      </trkpt>
      <trkpt lon="6.707447" lat="50.484432">
        <ele>799.996</ele>
        <time>2026-08-08T16:51:58.352Z</time>
      </trkpt>
      <trkpt lon="6.706341" lat="50.487436">
        <ele>829.901</ele>
        <time>2026-08-08T16:52:06.608Z</time>
      </trkpt>
      <trkpt lon="6.706230" lat="50.488102">
        <ele>834.707</ele>
        <time>2026-08-08T16:52:08.360Z</time>
      </trkpt>
      <trkpt lon="6.706206" lat="50.489021">
        <ele>838.486</ele>
        <time>2026-08-08T16:52:10.704Z</time>
      </trkpt>
      <trkpt lon="6.706363" lat="50.490202">
        <ele>846.222</ele>
        <time>2026-08-08T16:52:13.668Z</time>
      </trkpt>
      <trkpt lon="6.706593" lat="50.491116">
        <ele>855.614</ele>
        <time>2026-08-08T16:52:16.012Z</time>
      </trkpt>
      <trkpt lon="6.706937" lat="50.491995">
        <ele>864.185</ele>
        <time>2026-08-08T16:52:18.364Z</time>
      </trkpt>
      <trkpt lon="6.707405" lat="50.492816">
        <ele>874.6</ele>
        <time>2026-08-08T16:52:20.740Z</time>
      </trkpt>
      <trkpt lon="6.708284" lat="50.493878">
        <ele>890.228</ele>
        <time>2026-08-08T16:52:24.260Z</time>
      </trkpt>
      <trkpt lon="6.708961" lat="50.494529">
        <ele>896.263</ele>
        <time>2026-08-08T16:52:26.656Z</time>
      </trkpt>
      <trkpt lon="6.710487" lat="50.495701">
        <ele>900.174</ele>
        <time>2026-08-08T16:52:31.368Z</time>
      </trkpt>
      <trkpt lon="6.722206" lat="50.503389">
        <ele>934.358</ele>
        <time>2026-08-08T16:53:01.576Z</time>
      </trkpt>
      <trkpt lon="6.727821" lat="50.507223">
        <ele>971.081</ele>
        <time>2026-08-08T16:53:16.244Z</time>
      </trkpt>
      <trkpt lon="6.735980" lat="50.512912">
        <ele>998.52</ele>
        <time>2026-08-08T16:53:46.720Z</time>
      </trkpt>
      <trkpt lon="6.740093" lat="50.515246">
        <ele>1026.06</ele>
        <time>2026-08-08T16:53:56.716Z</time>
      </trkpt>
      <trkpt lon="6.748487" lat="50.519272">
        <ele>1050.17</ele>
        <time>2026-08-08T16:54:16.156Z</time>
      </trkpt>
      <trkpt lon="6.753151" lat="50.521375">
        <ele>1036.05</ele>
        <time>2026-08-08T16:54:24.988Z</time>
      </trkpt>
      <trkpt lon="6.770879" lat="50.528992">
        <ele>1069</ele>
        <time>2026-08-08T16:54:55.464Z</time>
      </trkpt>
      <trkpt lon="6.788847" lat="50.536687">
        <ele>1076.61</ele>
        <time>2026-08-08T16:55:25.664Z</time>
      </trkpt>
      <trkpt lon="6.807191" lat="50.545077">
        <ele>1070.31</ele>
        <time>2026-08-08T16:55:56.100Z</time>
      </trkpt>
      <trkpt lon="6.825784" lat="50.553318">
        <ele>1079.19</ele>
        <time>2026-08-08T16:56:26.112Z</time>
      </trkpt>
      <trkpt lon="6.838056" lat="50.558506">
        <ele>1097.61</ele>
        <time>2026-08-08T16:56:46.116Z</time>
      </trkpt>
      <trkpt lon="6.842045" lat="50.559771">
        <ele>1093.04</ele>
        <time>2026-08-08T16:56:52.112Z</time>
      </trkpt>
      <trkpt lon="6.849080" lat="50.561430">
        <ele>1102.9</ele>
        <time>2026-08-08T16:57:02.112Z</time>
      </trkpt>
      <trkpt lon="6.864792" lat="50.564569">
        <ele>1123.73</ele>
        <time>2026-08-08T16:57:24.696Z</time>
      </trkpt>
      <trkpt lon="6.874264" lat="50.567668">
        <ele>1118.92</ele>
        <time>2026-08-08T16:57:38.956Z</time>
      </trkpt>
      <trkpt lon="6.879880" lat="50.570050">
        <ele>1119.37</ele>
        <time>2026-08-08T16:57:47.828Z</time>
      </trkpt>
      <trkpt lon="6.885387" lat="50.572848">
        <ele>1127.86</ele>
        <time>2026-08-08T16:57:57.272Z</time>
      </trkpt>
      <trkpt lon="6.898774" lat="50.580582">
        <ele>1131.39</ele>
        <time>2026-08-08T16:58:22.256Z</time>
      </trkpt>
      <trkpt lon="6.903252" lat="50.582484">
        <ele>1120.69</ele>
        <time>2026-08-08T16:58:29.304Z</time>
      </trkpt>
      <trkpt lon="6.917711" lat="50.588348">
        <ele>1114.14</ele>
        <time>2026-08-08T16:58:51.584Z</time>
      </trkpt>
      <trkpt lon="6.932215" lat="50.595780">
        <ele>1133.31</ele>
        <time>2026-08-08T16:59:16.908Z</time>
      </trkpt>
      <trkpt lon="6.946265" lat="50.603084">
        <ele>1148.03</ele>
        <time>2026-08-08T16:59:41.244Z</time>
      </trkpt>
      <trkpt lon="6.955949" lat="50.607666">
        <ele>1090.64</ele>
        <time>2026-08-08T16:59:57.328Z</time>
      </trkpt>
      <trkpt lon="6.969520" lat="50.614410">
        <ele>1037.56</ele>
        <time>2026-08-08T17:00:18.572Z</time>
      </trkpt>
      <trkpt lon="6.986820" lat="50.624590">
        <ele>1001.46</ele>
        <time>2026-08-08T17:00:48.952Z</time>
      </trkpt>
      <trkpt lon="6.997236" lat="50.631557">
        <ele>949.016</ele>
        <time>2026-08-08T17:01:08.520Z</time>
      </trkpt>
      <trkpt lon="7.005738" lat="50.637786">
        <ele>899.555</ele>
        <time>2026-08-08T17:01:24.720Z</time>
      </trkpt>
      <trkpt lon="7.018746" lat="50.646833">
        <ele>852.818</ele>
        <time>2026-08-08T17:01:48.460Z</time>
      </trkpt>
      <trkpt lon="7.028151" lat="50.652308">
        <ele>815.05</ele>
        <time>2026-08-08T17:02:04.444Z</time>
      </trkpt>
      <trkpt lon="7.043622" lat="50.660256">
        <ele>773.665</ele>
        <time>2026-08-08T17:02:29.556Z</time>
      </trkpt>
      <trkpt lon="7.061612" lat="50.670576">
        <ele>742.79</ele>
        <time>2026-08-08T17:02:59.592Z</time>
      </trkpt>
      <trkpt lon="7.079117" lat="50.680679">
        <ele>751.54</ele>
        <time>2026-08-08T17:03:29.932Z</time>
      </trkpt>
      <trkpt lon="7.085370" lat="50.684510">
        <ele>716.968</ele>
        <time>2026-08-08T17:03:40.216Z</time>
      </trkpt>
      <trkpt lon="7.096158" lat="50.691832">
        <ele>706.038</ele>
        <time>2026-08-08T17:03:58.384Z</time>
      </trkpt>
      <trkpt lon="7.101108" lat="50.695818">
        <ele>732.584</ele>
        <time>2026-08-08T17:04:08.536Z</time>
      </trkpt>
      <trkpt lon="7.114263" lat="50.707962">
        <ele>727.816</ele>
        <time>2026-08-08T17:04:38.824Z</time>
      </trkpt>
      <trkpt lon="7.121782" lat="50.714941">
        <ele>746.909</ele>
        <time>2026-08-08T17:04:55.424Z</time>
      </trkpt>
      <trkpt lon="7.124229" lat="50.716773">
        <ele>744.802</ele>
        <time>2026-08-08T17:05:00.268Z</time>
      </trkpt>
      <trkpt lon="7.131598" lat="50.721825">
        <ele>719.194</ele>
        <time>2026-08-08T17:05:13.536Z</time>
      </trkpt>
      <trkpt lon="7.133007" lat="50.723180">
        <ele>715.83</ele>
        <time>2026-08-08T17:05:16.508Z</time>
      </trkpt>
      <trkpt lon="7.133957" lat="50.724353">
        <ele>713.087</ele>
        <time>2026-08-08T17:05:18.944Z</time>
      </trkpt>
      <trkpt lon="7.134894" lat="50.725878">
        <ele>710.582</ele>
        <time>2026-08-08T17:05:21.960Z</time>
      </trkpt>
      <trkpt lon="7.137532" lat="50.731385">
        <ele>714.623</ele>
        <time>2026-08-08T17:05:32.836Z</time>
      </trkpt>
      <trkpt lon="7.140059" lat="50.737359">
        <ele>716.728</ele>
        <time>2026-08-08T17:05:45.384Z</time>
      </trkpt>
      <trkpt lon="7.140870" lat="50.739967">
        <ele>720.193</ele>
        <time>2026-08-08T17:05:51.380Z</time>
      </trkpt>
      <trkpt lon="7.141255" lat="50.741564">
        <ele>725.499</ele>
        <time>2026-08-08T17:05:55.580Z</time>
      </trkpt>
      <trkpt lon="7.141996" lat="50.744992">
        <ele>681.632</ele>
        <time>2026-08-08T17:06:05.732Z</time>
      </trkpt>
      <trkpt lon="7.142446" lat="50.746235">
        <ele>650.427</ele>
        <time>2026-08-08T17:06:09.340Z</time>
      </trkpt>
      <trkpt lon="7.143098" lat="50.747530">
        <ele>609.563</ele>
        <time>2026-08-08T17:06:12.952Z</time>
      </trkpt>
      <trkpt lon="7.143815" lat="50.748635">
        <ele>571.36</ele>
        <time>2026-08-08T17:06:15.924Z</time>
      </trkpt>
      <trkpt lon="7.144953" lat="50.750041">
        <ele>530.192</ele>
        <time>2026-08-08T17:06:19.612Z</time>
      </trkpt>
      <trkpt lon="7.145395" lat="50.750487">
        <ele>520.284</ele>
        <time>2026-08-08T17:06:20.828Z</time>
      </trkpt>
      <trkpt lon="7.146171" lat="50.751093">
        <ele>504.496</ele>
        <time>2026-08-08T17:06:22.660Z</time>
      </trkpt>
      <trkpt lon="7.146773" lat="50.751423">
        <ele>491.713</ele>
        <time>2026-08-08T17:06:23.872Z</time>
      </trkpt>
      <trkpt lon="7.147527" lat="50.751719">
        <ele>476.935</ele>
        <time>2026-08-08T17:06:25.236Z</time>
      </trkpt>
      <trkpt lon="7.148257" lat="50.751919">
        <ele>466.781</ele>
        <time>2026-08-08T17:06:26.452Z</time>
      </trkpt>
      <trkpt lon="7.149400" lat="50.752130">
        <ele>454.681</ele>
        <time>2026-08-08T17:06:28.304Z</time>
      </trkpt>
      <trkpt lon="7.150598" lat="50.752245">
        <ele>443.263</ele>
        <time>2026-08-08T17:06:30.164Z</time>
      </trkpt>
      <trkpt lon="7.151792" lat="50.752257">
        <ele>432.546</ele>
        <time>2026-08-08T17:06:31.980Z</time>
      </trkpt>
      <trkpt lon="7.152579" lat="50.752199">
        <ele>425.934</ele>
        <time>2026-08-08T17:06:33.188Z</time>
      </trkpt>
      <trkpt lon="7.153733" lat="50.752017">
        <ele>418.542</ele>
        <time>2026-08-08T17:06:35.008Z</time>
      </trkpt>
      <trkpt lon="7.155214" lat="50.751672">
        <ele>410.866</ele>
        <time>2026-08-08T17:06:37.432Z</time>
      </trkpt>
      <trkpt lon="7.156261" lat="50.751347">
        <ele>405.375</ele>
        <time>2026-08-08T17:06:39.248Z</time>
      </trkpt>
      <trkpt lon="7.161512" lat="50.749317">
        <ele>393.242</ele>
        <time>2026-08-08T17:06:49.452Z</time>
      </trkpt>
      <trkpt lon="7.165353" lat="50.747881">
        <ele>410.667</ele>
        <time>2026-08-08T17:06:57.884Z</time>
      </trkpt>
      <trkpt lon="7.169135" lat="50.746583">
        <ele>426.678</ele>
        <time>2026-08-08T17:07:07.464Z</time>
      </trkpt>
      <trkpt lon="7.169892" lat="50.746418">
        <ele>425.808</ele>
        <time>2026-08-08T17:07:09.296Z</time>
      </trkpt>
      <trkpt lon="7.170896" lat="50.746270">
        <ele>425.74</ele>
        <time>2026-08-08T17:07:11.656Z</time>
      </trkpt>
      <trkpt lon="7.171685" lat="50.746211">
        <ele>425.002</ele>
        <time>2026-08-08T17:07:13.476Z</time>
      </trkpt>
      <trkpt lon="7.172505" lat="50.746208">
        <ele>424.162</ele>
        <time>2026-08-08T17:07:15.296Z</time>
      </trkpt>
      <trkpt lon="7.173330" lat="50.746260">
        <ele>423.759</ele>
        <time>2026-08-08T17:07:17.128Z</time>
      </trkpt>
      <trkpt lon="7.174133" lat="50.746366">
        <ele>423.08</ele>
        <time>2026-08-08T17:07:18.928Z</time>
      </trkpt>
      <trkpt lon="7.174923" lat="50.746527">
        <ele>422.068</ele>
        <time>2026-08-08T17:07:20.736Z</time>
      </trkpt>
      <trkpt lon="7.175949" lat="50.746816">
        <ele>420.52</ele>
        <time>2026-08-08T17:07:23.152Z</time>
      </trkpt>
      <trkpt lon="7.177217" lat="50.747263">
        <ele>417.81</ele>
        <time>2026-08-08T17:07:26.196Z</time>
      </trkpt>
      <trkpt lon="7.188606" lat="50.752013">
        <ele>432.241</ele>
        <time>2026-08-08T17:07:54.368Z</time>
      </trkpt>
      <trkpt lon="7.189986" lat="50.752644">
        <ele>431.236</ele>
        <time>2026-08-08T17:07:57.944Z</time>
      </trkpt>
      <trkpt lon="7.194270" lat="50.754395">
        <ele>420.223</ele>
        <time>2026-08-08T17:08:08.192Z</time>
      </trkpt>
      <trkpt lon="7.195192" lat="50.754897">
        <ele>419.441</ele>
        <time>2026-08-08T17:08:10.588Z</time>
      </trkpt>
      <trkpt lon="7.195791" lat="50.755323">
        <ele>418.566</ele>
        <time>2026-08-08T17:08:12.368Z</time>
      </trkpt>
      <trkpt lon="7.196145" lat="50.755636">
        <ele>417.575</ele>
        <time>2026-08-08T17:08:13.560Z</time>
      </trkpt>
      <trkpt lon="7.196597" lat="50.756144">
        <ele>414.6</ele>
        <time>2026-08-08T17:08:15.356Z</time>
      </trkpt>
      <trkpt lon="7.196946" lat="50.756701">
        <ele>410.69</ele>
        <time>2026-08-08T17:08:17.164Z</time>
      </trkpt>
      <trkpt lon="7.197291" lat="50.757474">
        <ele>406.073</ele>
        <time>2026-08-08T17:08:19.536Z</time>
      </trkpt>
      <trkpt lon="7.197685" lat="50.758692">
        <ele>403.297</ele>
        <time>2026-08-08T17:08:23.208Z</time>
      </trkpt>
      <trkpt lon="7.197721" lat="50.758888">
        <ele>403.213</ele>
        <time>2026-08-08T17:08:23.792Z</time>
      </trkpt>
      <trkpt lon="7.197738" lat="50.759086">
        <ele>403.438</ele>
        <time>2026-08-08T17:08:24.384Z</time>
      </trkpt>
      <trkpt lon="7.197734" lat="50.759279">
        <ele>403.988</ele>
        <time>2026-08-08T17:08:24.964Z</time>
      </trkpt>
      <trkpt lon="7.197649" lat="50.759670">
        <ele>405.073</ele>
        <time>2026-08-08T17:08:26.164Z</time>
      </trkpt>
      <trkpt lon="7.197462" lat="50.760042">
        <ele>405.115</ele>
        <time>2026-08-08T17:08:27.340Z</time>
      </trkpt>
      <trkpt lon="7.196989" lat="50.760562">
        <ele>402.868</ele>
        <time>2026-08-08T17:08:29.136Z</time>
      </trkpt>
      <trkpt lon="7.196585" lat="50.760871">
        <ele>400.333</ele>
        <time>2026-08-08T17:08:30.316Z</time>
      </trkpt>
      <trkpt lon="7.196117" lat="50.761158">
        <ele>396.924</ele>
        <time>2026-08-08T17:08:31.516Z</time>
      </trkpt>
      <trkpt lon="7.195298" lat="50.761556">
        <ele>390.974</ele>
        <time>2026-08-08T17:08:33.352Z</time>
      </trkpt>
      <trkpt lon="7.194385" lat="50.761906">
        <ele>385.446</ele>
        <time>2026-08-08T17:08:35.200Z</time>
      </trkpt>
      <trkpt lon="7.193111" lat="50.762308">
        <ele>380.723</ele>
        <time>2026-08-08T17:08:37.660Z</time>
      </trkpt>
      <trkpt lon="7.189917" lat="50.763103">
        <ele>379.539</ele>
        <time>2026-08-08T17:08:43.896Z</time>
      </trkpt>
      <trkpt lon="7.187811" lat="50.763583">
        <ele>378.864</ele>
        <time>2026-08-08T17:08:48.716Z</time>
      </trkpt>
      <trkpt lon="7.185007" lat="50.764191">
        <ele>351.031</ele>
        <time>2026-08-08T17:08:56.012Z</time>
      </trkpt>
      <trkpt lon="7.183265" lat="50.764566">
        <ele>320.087</ele>
        <time>2026-08-08T17:09:00.248Z</time>
      </trkpt>
      <trkpt lon="7.181617" lat="50.764909">
        <ele>292.928</ele>
        <time>2026-08-08T17:09:03.912Z</time>
      </trkpt>
      <trkpt lon="7.179921" lat="50.765259">
        <ele>267.43</ele>
        <time>2026-08-08T17:09:07.504Z</time>
      </trkpt>
      <trkpt lon="7.177468" lat="50.765766">
        <ele>242.034</ele>
        <time>2026-08-08T17:09:12.980Z</time>
      </trkpt>
      <trkpt lon="7.176380" lat="50.765995">
        <ele>232.671</ele>
        <time>2026-08-08T17:09:16.008Z</time>
      </trkpt>
      <trkpt lon="7.175513" lat="50.766198">
        <ele>223.575</ele>
        <time>2026-08-08T17:09:19.000Z</time>
      </trkpt>
      <trkpt lon="7.174005" lat="50.766515">
        <ele>200.593</ele>
        <time>2026-08-08T17:09:25.124Z</time>
      </trkpt>
      <trkpt lon="7.172665" lat="50.766787">
        <ele>179.714</ele>
        <time>2026-08-08T17:09:30.580Z</time>
      </trkpt>
      <trkpt lon="7.171302" lat="50.767070">
        <ele>158.314</ele>
        <time>2026-08-08T17:09:36.060Z</time>
      </trkpt>
      <trkpt lon="7.170120" lat="50.767316">
        <ele>137.866</ele>
        <time>2026-08-08T17:09:40.924Z</time>
      </trkpt>
      <trkpt lon="7.169209" lat="50.767524">
        <ele>118.779</ele>
        <time>2026-08-08T17:09:44.600Z</time>
      </trkpt>
      <trkpt lon="7.168301" lat="50.767761">
        <ele>99.7085</ele>
        <time>2026-08-08T17:09:48.320Z</time>
      </trkpt>
      <trkpt lon="7.167408" lat="50.767993">
        <ele>81.6877</ele>
        <time>2026-08-08T17:09:52.000Z</time>
      </trkpt>
      <trkpt lon="7.166619" lat="50.768173">
        <ele>68.6748</ele>
        <time>2026-08-08T17:09:55.076Z</time>
      </trkpt>
      <trkpt lon="7.164829" lat="50.768543">
        <ele>62.2422</ele>
        <time>2026-08-08T17:10:02.460Z</time>
      </trkpt>
      <trkpt lon="7.164343" lat="50.768642">
        <ele>62.7085</ele>
        <time>2026-08-08T17:10:04.952Z</time>
      </trkpt>
      <trkpt lon="7.164138" lat="50.768699">
        <ele>62.9641</ele>
        <time>2026-08-08T17:10:06.192Z</time>
      </trkpt>
      <trkpt lon="7.162810" lat="50.768994">
        <ele>63.6945</ele>
        <time>2026-08-08T17:10:16.156Z</time>
      </trkpt>
      <trkpt lon="7.162729" lat="50.769002">
        <ele>63.7041</ele>
        <time>2026-08-08T17:10:16.776Z</time>
      </trkpt>
      <trkpt lon="7.162649" lat="50.769003">
        <ele>63.715</ele>
        <time>2026-08-08T17:10:17.384Z</time>
      </trkpt>
      <trkpt lon="7.162565" lat="50.768997">
        <ele>63.732</ele>
        <time>2026-08-08T17:10:17.992Z</time>
      </trkpt>
      <trkpt lon="7.162481" lat="50.768984">
        <ele>63.7497</ele>
        <time>2026-08-08T17:10:18.624Z</time>
      </trkpt>
      <trkpt lon="7.162399" lat="50.768964">
        <ele>63.7612</ele>
        <time>2026-08-08T17:10:19.264Z</time>
      </trkpt>
      <trkpt lon="7.162317" lat="50.768935">
        <ele>63.7281</ele>
        <time>2026-08-08T17:10:19.872Z</time>
      </trkpt>
      <trkpt lon="7.162167" lat="50.768865">
        <ele>63.6788</ele>
        <time>2026-08-08T17:10:21.104Z</time>
      </trkpt>
      <trkpt lon="7.162101" lat="50.768819">
        <ele>63.6608</ele>
        <time>2026-08-08T17:10:21.780Z</time>
      </trkpt>
      <trkpt lon="7.162040" lat="50.768763">
        <ele>63.6421</ele>
        <time>2026-08-08T17:10:22.408Z</time>
      </trkpt>
      <trkpt lon="7.161948" lat="50.768642">
        <ele>63.5946</ele>
        <time>2026-08-08T17:10:23.652Z</time>
      </trkpt>
      <trkpt lon="7.161835" lat="50.768448">
        <ele>63.5756</ele>
        <time>2026-08-08T17:10:25.492Z</time>
      </trkpt>
      <trkpt lon="7.161640" lat="50.767965">
        <ele>63.2068</ele>
        <time>2026-08-08T17:10:29.752Z</time>
      </trkpt>
      <trkpt lon="7.161620" lat="50.767896">
        <ele>63.1313</ele>
        <time>2026-08-08T17:10:30.416Z</time>
      </trkpt>
      <trkpt lon="7.161614" lat="50.767827">
        <ele>63.1023</ele>
        <time>2026-08-08T17:10:31.024Z</time>
      </trkpt>
      <trkpt lon="7.161641" lat="50.767642">
        <ele>62.974</ele>
        <time>2026-08-08T17:10:32.884Z</time>
      </trkpt>
      <trkpt lon="7.161674" lat="50.767514">
        <ele>62.9137</ele>
        <time>2026-08-08T17:10:34.716Z</time>
      </trkpt>
      <trkpt lon="7.161690" lat="50.767476">
        <ele>62.8904</ele>
        <time>2026-08-08T17:10:35.328Z</time>
      </trkpt>
      <trkpt lon="7.161714" lat="50.767439">
        <ele>62.888</ele>
        <time>2026-08-08T17:10:35.940Z</time>
      </trkpt>
      <trkpt lon="7.161775" lat="50.767374">
        <ele>62.9156</ele>
        <time>2026-08-08T17:10:37.172Z</time>
      </trkpt>
      <trkpt lon="7.161826" lat="50.767334">
        <ele>62.9281</ele>
        <time>2026-08-08T17:10:38.376Z</time>
      </trkpt>
      <trkpt lon="7.161841" lat="50.767324">
        <ele>62.9239</ele>
        <time>2026-08-08T17:10:38.972Z</time>
      </trkpt>
    </trkseg>
    <trkseg>
      <trkpt lon="-122.294505" lat="47.518932">
        <ele>37.2153</ele>
        <time>2026-08-09T12:11:29.264Z</time>
      </trkpt>
    </trkseg>
    <trkseg>
      <trkpt lon="-106.886080" lat="36.819726">
        <ele>2322.13</ele>
        <time>2026-08-09T12:12:03.896Z</time>
      </trkpt>
      <trkpt lon="-106.886091" lat="36.819725">
        <ele>2322.11</ele>
        <time>2026-08-09T12:26:07.340Z</time>
      </trkpt>
      <trkpt lon="-106.886106" lat="36.819721">
        <ele>2322.11</ele>
        <time>2026-08-09T12:26:08.528Z</time>
      </trkpt>
      <trkpt lon="-106.886115" lat="36.819716">
        <ele>2322.11</ele>
        <time>2026-08-09T12:26:09.120Z</time>
      </trkpt>
      <trkpt lon="-106.886129" lat="36.819698">
        <ele>2322.14</ele>
        <time>2026-08-09T12:26:10.344Z</time>
      </trkpt>
      <trkpt lon="-106.886127" lat="36.819687">
        <ele>2322.15</ele>
        <time>2026-08-09T12:26:10.932Z</time>
      </trkpt>
      <trkpt lon="-106.886118" lat="36.819677">
        <ele>2322.16</ele>
        <time>2026-08-09T12:26:11.512Z</time>
      </trkpt>
      <trkpt lon="-106.886104" lat="36.819668">
        <ele>2322.18</ele>
        <time>2026-08-09T12:26:12.088Z</time>
      </trkpt>
      <trkpt lon="-106.886086" lat="36.819663">
        <ele>2322.19</ele>
        <time>2026-08-09T12:26:12.668Z</time>
      </trkpt>
      <trkpt lon="-106.886064" lat="36.819662">
        <ele>2322.2</ele>
        <time>2026-08-09T12:26:13.260Z</time>
      </trkpt>
      <trkpt lon="-106.886012" lat="36.819664">
        <ele>2322.2</ele>
        <time>2026-08-09T12:26:14.568Z</time>
      </trkpt>
      <trkpt lon="-106.885959" lat="36.819672">
        <ele>2322.22</ele>
        <time>2026-08-09T12:26:15.732Z</time>
      </trkpt>
      <trkpt lon="-106.885815" lat="36.819713">
        <ele>2322.2</ele>
        <time>2026-08-09T12:26:18.384Z</time>
      </trkpt>
      <trkpt lon="-106.885781" lat="36.819730">
        <ele>2322.19</ele>
        <time>2026-08-09T12:26:18.976Z</time>
      </trkpt>
      <trkpt lon="-106.885384" lat="36.819966">
        <ele>2322.04</ele>
        <time>2026-08-09T12:26:24.816Z</time>
      </trkpt>
      <trkpt lon="-106.885290" lat="36.820003">
        <ele>2322.08</ele>
        <time>2026-08-09T12:26:25.976Z</time>
      </trkpt>
      <trkpt lon="-106.885241" lat="36.820015">
        <ele>2322.1</ele>
        <time>2026-08-09T12:26:26.572Z</time>
      </trkpt>
      <trkpt lon="-106.885192" lat="36.820021">
        <ele>2322.14</ele>
        <time>2026-08-09T12:26:27.140Z</time>
      </trkpt>
      <trkpt lon="-106.885143" lat="36.820022">
        <ele>2322.18</ele>
        <time>2026-08-09T12:26:27.720Z</time>
      </trkpt>
      <trkpt lon="-106.885094" lat="36.820023">
        <ele>2322.23</ele>
        <time>2026-08-09T12:26:28.312Z</time>
      </trkpt>
      <trkpt lon="-106.885002" lat="36.820026">
        <ele>2322.35</ele>
        <time>2026-08-09T12:26:29.472Z</time>
      </trkpt>
      <trkpt lon="-106.884908" lat="36.820020">
        <ele>2322.45</ele>
        <time>2026-08-09T12:26:30.644Z</time>
      </trkpt>
      <trkpt lon="-106.884863" lat="36.820008">
        <ele>2322.49</ele>
        <time>2026-08-09T12:26:31.248Z</time>
      </trkpt>
      <trkpt lon="-106.884822" lat="36.819989">
        <ele>2322.51</ele>
        <time>2026-08-09T12:26:31.836Z</time>
      </trkpt>
      <trkpt lon="-106.884791" lat="36.819965">
        <ele>2322.55</ele>
        <time>2026-08-09T12:26:32.408Z</time>
      </trkpt>
      <trkpt lon="-106.884705" lat="36.819773">
        <ele>2322.76</ele>
        <time>2026-08-09T12:26:35.876Z</time>
      </trkpt>
      <trkpt lon="-106.884680" lat="36.819646">
        <ele>2322.86</ele>
        <time>2026-08-09T12:26:37.620Z</time>
      </trkpt>
      <trkpt lon="-106.884631" lat="36.818981">
        <ele>2323.4</ele>
        <time>2026-08-09T12:26:44.072Z</time>
      </trkpt>
      <trkpt lon="-106.884651" lat="36.818263">
        <ele>2325.65</ele>
        <time>2026-08-09T12:26:48.744Z</time>
      </trkpt>
      <trkpt lon="-106.884659" lat="36.817945">
        <ele>2326.98</ele>
        <time>2026-08-09T12:26:50.488Z</time>
      </trkpt>
      <trkpt lon="-106.884650" lat="36.817829">
        <ele>2327.16</ele>
        <time>2026-08-09T12:26:51.084Z</time>
      </trkpt>
      <trkpt lon="-106.884645" lat="36.817218">
        <ele>2329.27</ele>
        <time>2026-08-09T12:26:53.976Z</time>
      </trkpt>
      <trkpt lon="-106.884845" lat="36.816123">
        <ele>2337.06</ele>
        <time>2026-08-09T12:26:58.640Z</time>
      </trkpt>
      <trkpt lon="-106.885009" lat="36.815185">
        <ele>2352.37</ele>
        <time>2026-08-09T12:27:02.688Z</time>
      </trkpt>
      <trkpt lon="-106.885107" lat="36.814791">
        <ele>2358.62</ele>
        <time>2026-08-09T12:27:04.432Z</time>
      </trkpt>
      <trkpt lon="-106.885154" lat="36.814527">
        <ele>2362.31</ele>
        <time>2026-08-09T12:27:05.592Z</time>
      </trkpt>
      <trkpt lon="-106.885162" lat="36.814258">
        <ele>2365.38</ele>
        <time>2026-08-09T12:27:06.756Z</time>
      </trkpt>
      <trkpt lon="-106.885065" lat="36.813859">
        <ele>2368.16</ele>
        <time>2026-08-09T12:27:08.496Z</time>
      </trkpt>
      <trkpt lon="-106.885002" lat="36.813724">
        <ele>2368.75</ele>
        <time>2026-08-09T12:27:09.088Z</time>
      </trkpt>
      <trkpt lon="-106.884928" lat="36.813594">
        <ele>2369.26</ele>
        <time>2026-08-09T12:27:09.676Z</time>
      </trkpt>
      <trkpt lon="-106.884842" lat="36.813468">
        <ele>2369.8</ele>
        <time>2026-08-09T12:27:10.252Z</time>
      </trkpt>
      <trkpt lon="-106.884747" lat="36.813346">
        <ele>2370.43</ele>
        <time>2026-08-09T12:27:10.832Z</time>
      </trkpt>
      <trkpt lon="-106.884641" lat="36.813229">
        <ele>2371.19</ele>
        <time>2026-08-09T12:27:11.412Z</time>
      </trkpt>
      <trkpt lon="-106.884397" lat="36.813014">
        <ele>2373.13</ele>
        <time>2026-08-09T12:27:12.572Z</time>
      </trkpt>
      <trkpt lon="-106.884108" lat="36.812839">
        <ele>2375.35</ele>
        <time>2026-08-09T12:27:13.736Z</time>
      </trkpt>
      <trkpt lon="-106.883771" lat="36.812710">
        <ele>2377.2</ele>
        <time>2026-08-09T12:27:14.912Z</time>
      </trkpt>
      <trkpt lon="-106.883590" lat="36.812663">
        <ele>2377.78</ele>
        <time>2026-08-09T12:27:15.504Z</time>
      </trkpt>
      <trkpt lon="-106.883405" lat="36.812627">
        <ele>2378.13</ele>
        <time>2026-08-09T12:27:16.080Z</time>
      </trkpt>
      <trkpt lon="-106.883214" lat="36.812598">
        <ele>2378.32</ele>
        <time>2026-08-09T12:27:16.656Z</time>
      </trkpt>
      <trkpt lon="-106.883018" lat="36.812578">
        <ele>2378.47</ele>
        <time>2026-08-09T12:27:17.240Z</time>
      </trkpt>
      <trkpt lon="-106.882400" lat="36.812567">
        <ele>2378.52</ele>
        <time>2026-08-09T12:27:18.992Z</time>
      </trkpt>
      <trkpt lon="-106.882182" lat="36.812573">
        <ele>2378.15</ele>
        <time>2026-08-09T12:27:19.580Z</time>
      </trkpt>
      <trkpt lon="-106.881739" lat="36.812580">
        <ele>2377.13</ele>
        <time>2026-08-09T12:27:20.736Z</time>
      </trkpt>
      <trkpt lon="-106.881512" lat="36.812579">
        <ele>2376.59</ele>
        <time>2026-08-09T12:27:21.316Z</time>
      </trkpt>
      <trkpt lon="-106.881047" lat="36.812570">
        <ele>2375.79</ele>
        <time>2026-08-09T12:27:22.472Z</time>
      </trkpt>
      <trkpt lon="-106.880570" lat="36.812572">
        <ele>2375.85</ele>
        <time>2026-08-09T12:27:23.636Z</time>
      </trkpt>
      <trkpt lon="-106.880087" lat="36.812604">
        <ele>2376.08</ele>
        <time>2026-08-09T12:27:24.808Z</time>
      </trkpt>
      <trkpt lon="-106.879082" lat="36.812714">
        <ele>2374.27</ele>
        <time>2026-08-09T12:27:27.116Z</time>
      </trkpt>
      <trkpt lon="-106.876801" lat="36.812918">
        <ele>2387.74</ele>
        <time>2026-08-09T12:27:32.332Z</time>
      </trkpt>
      <trkpt lon="-106.875822" lat="36.813054">
        <ele>2389.05</ele>
        <time>2026-08-09T12:27:34.668Z</time>
      </trkpt>
      <trkpt lon="-106.872268" lat="36.813597">
        <ele>2379.99</ele>
        <time>2026-08-09T12:27:42.776Z</time>
      </trkpt>
      <trkpt lon="-106.870177" lat="36.814133">
        <ele>2375.75</ele>
        <time>2026-08-09T12:27:47.412Z</time>
      </trkpt>
      <trkpt lon="-106.868911" lat="36.814575">
        <ele>2379.38</ele>
        <time>2026-08-09T12:27:50.352Z</time>
      </trkpt>
      <trkpt lon="-106.867313" lat="36.815258">
        <ele>2390.8</ele>
        <time>2026-08-09T12:27:54.400Z</time>
      </trkpt>
      <trkpt lon="-106.866305" lat="36.815789">
        <ele>2401.37</ele>
        <time>2026-08-09T12:27:57.312Z</time>
      </trkpt>
      <trkpt lon="-106.865596" lat="36.816249">
        <ele>2409.21</ele>
        <time>2026-08-09T12:27:59.640Z</time>
      </trkpt>
      <trkpt lon="-106.864361" lat="36.817252">
        <ele>2418</ele>
        <time>2026-08-09T12:28:04.256Z</time>
      </trkpt>
      <trkpt lon="-106.863263" lat="36.818311">
        <ele>2424.36</ele>
        <time>2026-08-09T12:28:08.884Z</time>
      </trkpt>
      <trkpt lon="-106.859229" lat="36.823199">
        <ele>2417.2</ele>
        <time>2026-08-09T12:28:26.904Z</time>
      </trkpt>
      <trkpt lon="-106.857952" lat="36.824826">
        <ele>2398.41</ele>
        <time>2026-08-09T12:28:32.156Z</time>
      </trkpt>
      <trkpt lon="-106.856636" lat="36.826409">
        <ele>2379</ele>
        <time>2026-08-09T12:28:36.804Z</time>
      </trkpt>
      <trkpt lon="-106.854706" lat="36.828453">
        <ele>2359.94</ele>
        <time>2026-08-09T12:28:42.612Z</time>
      </trkpt>
      <trkpt lon="-106.853861" lat="36.829278">
        <ele>2354.01</ele>
        <time>2026-08-09T12:28:44.944Z</time>
      </trkpt>
      <trkpt lon="-106.849995" lat="36.832699">
        <ele>2345.43</ele>
        <time>2026-08-09T12:28:54.800Z</time>
      </trkpt>
      <trkpt lon="-106.848696" lat="36.833754">
        <ele>2365.31</ele>
        <time>2026-08-09T12:28:58.272Z</time>
      </trkpt>
      <trkpt lon="-106.847528" lat="36.834719">
        <ele>2386.63</ele>
        <time>2026-08-09T12:29:01.768Z</time>
      </trkpt>
      <trkpt lon="-106.847175" lat="36.835024">
        <ele>2393.04</ele>
        <time>2026-08-09T12:29:02.920Z</time>
      </trkpt>
      <trkpt lon="-106.846838" lat="36.835324">
        <ele>2399.06</ele>
        <time>2026-08-09T12:29:04.084Z</time>
      </trkpt>
      <trkpt lon="-106.846501" lat="36.835616">
        <ele>2404.76</ele>
        <time>2026-08-09T12:29:05.256Z</time>
      </trkpt>
      <trkpt lon="-106.846334" lat="36.835753">
        <ele>2407.31</ele>
        <time>2026-08-09T12:29:05.836Z</time>
      </trkpt>
      <trkpt lon="-106.845334" lat="36.836505">
        <ele>2419.38</ele>
        <time>2026-08-09T12:29:09.312Z</time>
      </trkpt>
      <trkpt lon="-106.844499" lat="36.837317">
        <ele>2425.27</ele>
        <time>2026-08-09T12:29:12.780Z</time>
      </trkpt>
      <trkpt lon="-106.844247" lat="36.837613">
        <ele>2424.74</ele>
        <time>2026-08-09T12:29:13.932Z</time>
      </trkpt>
      <trkpt lon="-106.840753" lat="36.841914">
        <ele>2419.99</ele>
        <time>2026-08-09T12:29:31.004Z</time>
      </trkpt>
      <trkpt lon="-106.840426" lat="36.842402">
        <ele>2423.32</ele>
        <time>2026-08-09T12:29:32.760Z</time>
      </trkpt>
      <trkpt lon="-106.840038" lat="36.843088">
        <ele>2425.89</ele>
        <time>2026-08-09T12:29:35.120Z</time>
      </trkpt>
      <trkpt lon="-106.839845" lat="36.843421">
        <ele>2426.37</ele>
        <time>2026-08-09T12:29:36.288Z</time>
      </trkpt>
      <trkpt lon="-106.837069" lat="36.848442">
        <ele>2427.68</ele>
        <time>2026-08-09T12:29:52.636Z</time>
      </trkpt>
      <trkpt lon="-106.836684" lat="36.849207">
        <ele>2422.09</ele>
        <time>2026-08-09T12:29:54.968Z</time>
      </trkpt>
      <trkpt lon="-106.834883" lat="36.852605">
        <ele>2431.76</ele>
        <time>2026-08-09T12:30:05.432Z</time>
      </trkpt>
      <trkpt lon="-106.833784" lat="36.855884">
        <ele>2445.18</ele>
        <time>2026-08-09T12:30:15.888Z</time>
      </trkpt>
      <trkpt lon="-106.831930" lat="36.863590">
        <ele>2460.76</ele>
        <time>2026-08-09T12:30:39.320Z</time>
      </trkpt>
      <trkpt lon="-106.831604" lat="36.866039">
        <ele>2468.13</ele>
        <time>2026-08-09T12:30:46.988Z</time>
      </trkpt>
      <trkpt lon="-106.831550" lat="36.866769">
        <ele>2471.87</ele>
        <time>2026-08-09T12:30:49.328Z</time>
      </trkpt>
      <trkpt lon="-106.831244" lat="36.869489">
        <ele>2482.1</ele>
        <time>2026-08-09T12:30:58.172Z</time>
      </trkpt>
      <trkpt lon="-106.830816" lat="36.873977">
        <ele>2471.48</ele>
        <time>2026-08-09T12:31:12.224Z</time>
      </trkpt>
      <trkpt lon="-106.830447" lat="36.877425">
        <ele>2475.6</ele>
        <time>2026-08-09T12:31:22.084Z</time>
      </trkpt>
      <trkpt lon="-106.830279" lat="36.879820">
        <ele>2487.14</ele>
        <time>2026-08-09T12:31:29.328Z</time>
      </trkpt>
      <trkpt lon="-106.830259" lat="36.880457">
        <ele>2488.54</ele>
        <time>2026-08-09T12:31:31.228Z</time>
      </trkpt>
      <trkpt lon="-106.830390" lat="36.881712">
        <ele>2490.93</ele>
        <time>2026-08-09T12:31:35.028Z</time>
      </trkpt>
      <trkpt lon="-106.830411" lat="36.881957">
        <ele>2491.62</ele>
        <time>2026-08-09T12:31:35.620Z</time>
      </trkpt>
      <trkpt lon="-106.830436" lat="36.882544">
        <ele>2493.25</ele>
        <time>2026-08-09T12:31:37.376Z</time>
      </trkpt>
      <trkpt lon="-106.830444" lat="36.882932">
        <ele>2494.71</ele>
        <time>2026-08-09T12:31:38.540Z</time>
      </trkpt>
      <trkpt lon="-106.830629" lat="36.885143">
        <ele>2513.95</ele>
        <time>2026-08-09T12:31:45.572Z</time>
      </trkpt>
      <trkpt lon="-106.830704" lat="36.885773">
        <ele>2523.67</ele>
        <time>2026-08-09T12:31:47.916Z</time>
      </trkpt>
      <trkpt lon="-106.831324" lat="36.889052">
        <ele>2526.41</ele>
        <time>2026-08-09T12:32:00.248Z</time>
      </trkpt>
      <trkpt lon="-106.831315" lat="36.889416">
        <ele>2521.28</ele>
        <time>2026-08-09T12:32:01.404Z</time>
      </trkpt>
      <trkpt lon="-106.831258" lat="36.889805">
        <ele>2513.76</ele>
        <time>2026-08-09T12:32:02.580Z</time>
      </trkpt>
      <trkpt lon="-106.831210" lat="36.890002">
        <ele>2509.77</ele>
        <time>2026-08-09T12:32:03.156Z</time>
      </trkpt>
      <trkpt lon="-106.831145" lat="36.890203">
        <ele>2505.9</ele>
        <time>2026-08-09T12:32:03.736Z</time>
      </trkpt>
      <trkpt lon="-106.830966" lat="36.890606">
        <ele>2498.56</ele>
        <time>2026-08-09T12:32:04.896Z</time>
      </trkpt>
      <trkpt lon="-106.830564" lat="36.891187">
        <ele>2486.64</ele>
        <time>2026-08-09T12:32:06.628Z</time>
      </trkpt>
      <trkpt lon="-106.830192" lat="36.891550">
        <ele>2477.29</ele>
        <time>2026-08-09T12:32:07.808Z</time>
      </trkpt>
      <trkpt lon="-106.829985" lat="36.891711">
        <ele>2472.39</ele>
        <time>2026-08-09T12:32:08.368Z</time>
      </trkpt>
      <trkpt lon="-106.829761" lat="36.891863">
        <ele>2467.39</ele>
        <time>2026-08-09T12:32:08.944Z</time>
      </trkpt>
      <trkpt lon="-106.829269" lat="36.892145">
        <ele>2458.48</ele>
        <time>2026-08-09T12:32:10.096Z</time>
      </trkpt>
      <trkpt lon="-106.828197" lat="36.892645">
        <ele>2448.42</ele>
        <time>2026-08-09T12:32:12.416Z</time>
      </trkpt>
      <trkpt lon="-106.827350" lat="36.893004">
        <ele>2442.71</ele>
        <time>2026-08-09T12:32:14.148Z</time>
      </trkpt>
      <trkpt lon="-106.824145" lat="36.894290">
        <ele>2434.28</ele>
        <time>2026-08-09T12:32:20.536Z</time>
      </trkpt>
      <trkpt lon="-106.821960" lat="36.895492">
        <ele>2427.14</ele>
        <time>2026-08-09T12:32:25.172Z</time>
      </trkpt>
      <trkpt lon="-106.819921" lat="36.896886">
        <ele>2422.87</ele>
        <time>2026-08-09T12:32:29.796Z</time>
      </trkpt>
      <trkpt lon="-106.818262" lat="36.898239">
        <ele>2422.25</ele>
        <time>2026-08-09T12:32:33.880Z</time>
      </trkpt>
      <trkpt lon="-106.816972" lat="36.899480">
        <ele>2421.95</ele>
        <time>2026-08-09T12:32:37.372Z</time>
      </trkpt>
      <trkpt lon="-106.814141" lat="36.902947">
        <ele>2442.16</ele>
        <time>2026-08-09T12:32:46.776Z</time>
      </trkpt>
      <trkpt lon="-106.812057" lat="36.905514">
        <ele>2456.74</ele>
        <time>2026-08-09T12:32:54.384Z</time>
      </trkpt>
      <trkpt lon="-106.810088" lat="36.908704">
        <ele>2449.72</ele>
        <time>2026-08-09T12:33:03.140Z</time>
      </trkpt>
      <trkpt lon="-106.808616" lat="36.912027">
        <ele>2437.88</ele>
        <time>2026-08-09T12:33:11.392Z</time>
      </trkpt>
      <trkpt lon="-106.807698" lat="36.914817">
        <ele>2432.06</ele>
        <time>2026-08-09T12:33:17.868Z</time>
      </trkpt>
      <trkpt lon="-106.805799" lat="36.921808">
        <ele>2430.82</ele>
        <time>2026-08-09T12:33:34.272Z</time>
      </trkpt>
      <trkpt lon="-106.802541" lat="36.928998">
        <ele>2418.15</ele>
        <time>2026-08-09T12:33:51.684Z</time>
      </trkpt>
      <trkpt lon="-106.797704" lat="36.938232">
        <ele>2400.26</ele>
        <time>2026-08-09T12:34:13.732Z</time>
      </trkpt>
      <trkpt lon="-106.792078" lat="36.950135">
        <ele>2409.32</ele>
        <time>2026-08-09T12:34:42.340Z</time>
      </trkpt>
      <trkpt lon="-106.790371" lat="36.954406">
        <ele>2418.91</ele>
        <time>2026-08-09T12:34:53.408Z</time>
      </trkpt>
      <trkpt lon="-106.790308" lat="36.954856">
        <ele>2420.01</ele>
        <time>2026-08-09T12:34:54.564Z</time>
      </trkpt>
      <trkpt lon="-106.790302" lat="36.955310">
        <ele>2421.13</ele>
        <time>2026-08-09T12:34:55.740Z</time>
      </trkpt>
      <trkpt lon="-106.790352" lat="36.955760">
        <ele>2422.43</ele>
        <time>2026-08-09T12:34:56.920Z</time>
      </trkpt>
      <trkpt lon="-106.790455" lat="36.956202">
        <ele>2424.22</ele>
        <time>2026-08-09T12:34:58.104Z</time>
      </trkpt>
      <trkpt lon="-106.790604" lat="36.956620">
        <ele>2426.47</ele>
        <time>2026-08-09T12:34:59.280Z</time>
      </trkpt>
      <trkpt lon="-106.790798" lat="36.957026">
        <ele>2429.12</ele>
        <time>2026-08-09T12:35:00.468Z</time>
      </trkpt>
      <trkpt lon="-106.791028" lat="36.957402">
        <ele>2432.17</ele>
        <time>2026-08-09T12:35:01.644Z</time>
      </trkpt>
      <trkpt lon="-106.791294" lat="36.957759">
        <ele>2435.68</ele>
        <time>2026-08-09T12:35:02.828Z</time>
      </trkpt>
      <trkpt lon="-106.791719" lat="36.958249">
        <ele>2440.75</ele>
        <time>2026-08-09T12:35:04.592Z</time>
      </trkpt>
      <trkpt lon="-106.794378" lat="36.960928">
        <ele>2457.8</ele>
        <time>2026-08-09T12:35:15.208Z</time>
      </trkpt>
      <trkpt lon="-106.795058" lat="36.961660">
        <ele>2461.56</ele>
        <time>2026-08-09T12:35:18.176Z</time>
      </trkpt>
      <trkpt lon="-106.796362" lat="36.963315">
        <ele>2466.68</ele>
        <time>2026-08-09T12:35:24.664Z</time>
      </trkpt>
      <trkpt lon="-106.796550" lat="36.963642">
        <ele>2466.55</ele>
        <time>2026-08-09T12:35:25.844Z</time>
      </trkpt>
      <trkpt lon="-106.796773" lat="36.964149">
        <ele>2466.94</ele>
        <time>2026-08-09T12:35:27.592Z</time>
      </trkpt>
      <trkpt lon="-106.797001" lat="36.965012">
        <ele>2468.67</ele>
        <time>2026-08-09T12:35:30.536Z</time>
      </trkpt>
      <trkpt lon="-106.797774" lat="36.968452">
        <ele>2486.18</ele>
        <time>2026-08-09T12:35:42.840Z</time>
      </trkpt>
      <trkpt lon="-106.797828" lat="36.968736">
        <ele>2489.21</ele>
        <time>2026-08-09T12:35:44.000Z</time>
      </trkpt>
      <trkpt lon="-106.797855" lat="36.968876">
        <ele>2490.7</ele>
        <time>2026-08-09T12:35:44.588Z</time>
      </trkpt>
      <trkpt lon="-106.797947" lat="36.969555">
        <ele>2496.62</ele>
        <time>2026-08-09T12:35:47.504Z</time>
      </trkpt>
      <trkpt lon="-106.797935" lat="36.970338">
        <ele>2501.11</ele>
        <time>2026-08-09T12:35:51.020Z</time>
      </trkpt>
      <trkpt lon="-106.798000" lat="36.971578">
        <ele>2510.1</ele>
        <time>2026-08-09T12:35:57.456Z</time>
      </trkpt>
      <trkpt lon="-106.798029" lat="36.971856">
        <ele>2511.59</ele>
        <time>2026-08-09T12:35:59.216Z</time>
      </trkpt>
      <trkpt lon="-106.798044" lat="36.972102">
        <ele>2512.18</ele>
        <time>2026-08-09T12:36:00.984Z</time>
      </trkpt>
      <trkpt lon="-106.798084" lat="36.972468">
        <ele>2508.95</ele>
        <time>2026-08-09T12:36:04.500Z</time>
      </trkpt>
      <trkpt lon="-106.798104" lat="36.972556">
        <ele>2505.39</ele>
        <time>2026-08-09T12:36:05.700Z</time>
      </trkpt>
      <trkpt lon="-106.798117" lat="36.972593">
        <ele>2502.91</ele>
        <time>2026-08-09T12:36:06.276Z</time>
      </trkpt>
      <trkpt lon="-106.798135" lat="36.972627">
        <ele>2500.08</ele>
        <time>2026-08-09T12:36:06.856Z</time>
      </trkpt>
      <trkpt lon="-106.798159" lat="36.972658">
        <ele>2497.5</ele>
        <time>2026-08-09T12:36:07.432Z</time>
      </trkpt>
      <trkpt lon="-106.798192" lat="36.972690">
        <ele>2495.12</ele>
        <time>2026-08-09T12:36:08.028Z</time>
      </trkpt>
      <trkpt lon="-106.798233" lat="36.972721">
        <ele>2492.67</ele>
        <time>2026-08-09T12:36:08.604Z</time>
      </trkpt>
      <trkpt lon="-106.798282" lat="36.972751">
        <ele>2490.04</ele>
        <time>2026-08-09T12:36:09.180Z</time>
      </trkpt>
      <trkpt lon="-106.798339" lat="36.972781">
        <ele>2487.22</ele>
        <time>2026-08-09T12:36:09.768Z</time>
      </trkpt>
      <trkpt lon="-106.798401" lat="36.972809">
        <ele>2484.23</ele>
        <time>2026-08-09T12:36:10.372Z</time>
      </trkpt>
      <trkpt lon="-106.798465" lat="36.972828">
        <ele>2482.24</ele>
        <time>2026-08-09T12:36:10.972Z</time>
      </trkpt>
      <trkpt lon="-106.798521" lat="36.972831">
        <ele>2482.38</ele>
        <time>2026-08-09T12:36:11.576Z</time>
      </trkpt>
      <trkpt lon="-106.798573" lat="36.972824">
        <ele>2482.19</ele>
        <time>2026-08-09T12:36:12.180Z</time>
      </trkpt>
      <trkpt lon="-106.798617" lat="36.972808">
        <ele>2481.96</ele>
        <time>2026-08-09T12:36:12.784Z</time>
      </trkpt>
      <trkpt lon="-106.798650" lat="36.972785">
        <ele>2481.75</ele>
        <time>2026-08-09T12:36:13.380Z</time>
      </trkpt>
      <trkpt lon="-106.798670" lat="36.972745">
        <ele>2481.44</ele>
        <time>2026-08-09T12:36:14.544Z</time>
      </trkpt>
      <trkpt lon="-106.798676" lat="36.972726">
        <ele>2481.29</ele>
        <time>2026-08-09T12:36:15.136Z</time>
      </trkpt>
      <trkpt lon="-106.798713" lat="36.972615">
        <ele>2480.37</ele>
        <time>2026-08-09T12:36:18.100Z</time>
      </trkpt>
      <trkpt lon="-106.798766" lat="36.972431">
        <ele>2479.01</ele>
        <time>2026-08-09T12:36:28.140Z</time>
      </trkpt>
      <trkpt lon="-106.798768" lat="36.972419">
        <ele>2479.1</ele>
        <time>2026-08-09T12:39:13.192Z</time>
      </trkpt>
      <trkpt lon="-106.798773" lat="36.972352">
        <ele>2478.85</ele>
        <time>2026-08-09T12:39:17.308Z</time>
      </trkpt>
      <trkpt lon="-106.798769" lat="36.972329">
        <ele>2478.65</ele>
        <time>2026-08-09T12:39:18.488Z</time>
      </trkpt>
      <trkpt lon="-106.798764" lat="36.972313">
        <ele>2478.5</ele>
        <time>2026-08-09T12:39:19.076Z</time>
      </trkpt>
      <trkpt lon="-106.798751" lat="36.972272">
        <ele>2478.22</ele>
        <time>2026-08-09T12:39:20.252Z</time>
      </trkpt>
      <trkpt lon="-106.798739" lat="36.972225">
        <ele>2478.27</ele>
        <time>2026-08-09T12:39:21.432Z</time>
      </trkpt>
      <trkpt lon="-106.798593" lat="36.972031">
        <ele>2479.58</ele>
        <time>2026-08-09T12:39:29.712Z</time>
      </trkpt>
      <trkpt lon="-106.798579" lat="36.972019">
        <ele>2476.94</ele>
        <time>2026-08-09T12:39:31.468Z</time>
      </trkpt>
      <trkpt lon="-106.798563" lat="36.972004">
        <ele>2476.57</ele>
        <time>2026-08-09T12:39:32.052Z</time>
      </trkpt>
      <trkpt lon="-106.798549" lat="36.971990">
        <ele>2476.33</ele>
        <time>2026-08-09T12:39:32.628Z</time>
      </trkpt>
      <trkpt lon="-106.798538" lat="36.971982">
        <ele>2476.39</ele>
        <time>2026-08-09T12:39:33.216Z</time>
      </trkpt>
      <trkpt lon="-106.798528" lat="36.971977">
        <ele>2476.48</ele>
        <time>2026-08-09T12:39:33.800Z</time>
      </trkpt>
      <trkpt lon="-106.798518" lat="36.971975">
        <ele>2476.43</ele>
        <time>2026-08-09T12:39:34.392Z</time>
      </trkpt>
      <trkpt lon="-106.798529" lat="36.972025">
        <ele>2476.62</ele>
        <time>2026-08-09T12:39:47.340Z</time>
      </trkpt>
      <trkpt lon="-106.798545" lat="36.972073">
        <ele>2476.91</ele>
        <time>2026-08-09T12:39:49.104Z</time>
      </trkpt>
      <trkpt lon="-106.798648" lat="36.972471">
        <ele>2479.5</ele>
        <time>2026-08-09T12:39:56.748Z</time>
      </trkpt>
      <trkpt lon="-106.798663" lat="36.972519">
        <ele>2479.86</ele>
        <time>2026-08-09T12:39:57.328Z</time>
      </trkpt>
      <trkpt lon="-106.798686" lat="36.972570">
        <ele>2480.38</ele>
        <time>2026-08-09T12:39:57.924Z</time>
      </trkpt>
      <trkpt lon="-106.798715" lat="36.972619">
        <ele>2480.88</ele>
        <time>2026-08-09T12:39:58.504Z</time>
      </trkpt>
      <trkpt lon="-106.798749" lat="36.972670">
        <ele>2481.01</ele>
        <time>2026-08-09T12:39:59.084Z</time>
      </trkpt>
      <trkpt lon="-106.798791" lat="36.972716">
        <ele>2481.53</ele>
        <time>2026-08-09T12:39:59.676Z</time>
      </trkpt>
      <trkpt lon="-106.798836" lat="36.972753">
        <ele>2482.18</ele>
        <time>2026-08-09T12:40:00.256Z</time>
      </trkpt>
      <trkpt lon="-106.798931" lat="36.972798">
        <ele>2483.06</ele>
        <time>2026-08-09T12:40:01.448Z</time>
      </trkpt>
      <trkpt lon="-106.798973" lat="36.972804">
        <ele>2483.2</ele>
        <time>2026-08-09T12:40:02.028Z</time>
      </trkpt>
      <trkpt lon="-106.799013" lat="36.972797">
        <ele>2483.15</ele>
        <time>2026-08-09T12:40:02.624Z</time>
      </trkpt>
      <trkpt lon="-106.799047" lat="36.972778">
        <ele>2482.72</ele>
        <time>2026-08-09T12:40:03.220Z</time>
      </trkpt>
      <trkpt lon="-106.799067" lat="36.972751">
        <ele>2481.82</ele>
        <time>2026-08-09T12:40:03.800Z</time>
      </trkpt>
      <trkpt lon="-106.799066" lat="36.972720">
        <ele>2481.34</ele>
        <time>2026-08-09T12:40:04.384Z</time>
      </trkpt>
      <trkpt lon="-106.799053" lat="36.972687">
        <ele>2480.8</ele>
        <time>2026-08-09T12:40:04.980Z</time>
      </trkpt>
      <trkpt lon="-106.799042" lat="36.972658">
        <ele>2480.45</ele>
        <time>2026-08-09T12:40:05.560Z</time>
      </trkpt>
      <trkpt lon="-106.799035" lat="36.972625">
        <ele>2480.06</ele>
        <time>2026-08-09T12:40:06.152Z</time>
      </trkpt>
      <trkpt lon="-106.799032" lat="36.972517">
        <ele>2479.16</ele>
        <time>2026-08-09T12:40:07.928Z</time>
      </trkpt>
      <trkpt lon="-106.799038" lat="36.972402">
        <ele>2478.73</ele>
        <time>2026-08-09T12:40:09.716Z</time>
      </trkpt>
      <trkpt lon="-106.799015" lat="36.972233">
        <ele>2477.82</ele>
        <time>2026-08-09T12:40:12.084Z</time>
      </trkpt>
      <trkpt lon="-106.799007" lat="36.972181">
        <ele>2477.37</ele>
        <time>2026-08-09T12:40:12.664Z</time>
      </trkpt>
      <trkpt lon="-106.798994" lat="36.972123">
        <ele>2477.08</ele>
        <time>2026-08-09T12:40:13.244Z</time>
      </trkpt>
      <trkpt lon="-106.798976" lat="36.972060">
        <ele>2476.65</ele>
        <time>2026-08-09T12:40:13.832Z</time>
      </trkpt>
      <trkpt lon="-106.798949" lat="36.971993">
        <ele>2475.93</ele>
        <time>2026-08-09T12:40:14.432Z</time>
      </trkpt>
      <trkpt lon="-106.798554" lat="36.971629">
        <ele>2472.76</ele>
        <time>2026-08-09T12:40:18.544Z</time>
      </trkpt>
      <trkpt lon="-106.798493" lat="36.971575">
        <ele>2472.29</ele>
        <time>2026-08-09T12:40:19.156Z</time>
      </trkpt>
      <trkpt lon="-106.798448" lat="36.971517">
        <ele>2471.86</ele>
        <time>2026-08-09T12:40:19.752Z</time>
      </trkpt>
      <trkpt lon="-106.798416" lat="36.971453">
        <ele>2471.39</ele>
        <time>2026-08-09T12:40:20.344Z</time>
      </trkpt>
      <trkpt lon="-106.798396" lat="36.971387">
        <ele>2470.83</ele>
        <time>2026-08-09T12:40:20.936Z</time>
      </trkpt>
      <trkpt lon="-106.798386" lat="36.971319">
        <ele>2470.45</ele>
        <time>2026-08-09T12:40:21.528Z</time>
      </trkpt>
      <trkpt lon="-106.798390" lat="36.971255">
        <ele>2470.64</ele>
        <time>2026-08-09T12:40:22.108Z</time>
      </trkpt>
      <trkpt lon="-106.798403" lat="36.971191">
        <ele>2470.09</ele>
        <time>2026-08-09T12:40:22.708Z</time>
      </trkpt>
      <trkpt lon="-106.798425" lat="36.971131">
        <ele>2469.65</ele>
        <time>2026-08-09T12:40:23.304Z</time>
      </trkpt>
      <trkpt lon="-106.798441" lat="36.971077">
        <ele>2468.88</ele>
        <time>2026-08-09T12:40:23.908Z</time>
      </trkpt>
      <trkpt lon="-106.798441" lat="36.971033">
        <ele>2468.55</ele>
        <time>2026-08-09T12:40:24.508Z</time>
      </trkpt>
      <trkpt lon="-106.798440" lat="36.971006">
        <ele>2468.38</ele>
        <time>2026-08-09T12:40:25.096Z</time>
      </trkpt>
      <trkpt lon="-106.798444" lat="36.970991">
        <ele>2468.19</ele>
        <time>2026-08-09T12:40:25.708Z</time>
      </trkpt>
      <trkpt lon="-106.798426" lat="36.971060">
        <ele>2468.93</ele>
        <time>2026-08-09T12:43:48.984Z</time>
      </trkpt>
      <trkpt lon="-106.798421" lat="36.971072">
        <ele>2469.14</ele>
        <time>2026-08-09T12:43:50.184Z</time>
      </trkpt>
      <trkpt lon="-106.798419" lat="36.971110">
        <ele>2469.92</ele>
        <time>2026-08-09T12:43:53.132Z</time>
      </trkpt>
      <trkpt lon="-106.798420" lat="36.971128">
        <ele>2469.88</ele>
        <time>2026-08-09T12:43:53.732Z</time>
      </trkpt>
      <trkpt lon="-106.798415" lat="36.971177">
        <ele>2470.07</ele>
        <time>2026-08-09T12:43:55.488Z</time>
      </trkpt>
      <trkpt lon="-106.798410" lat="36.971192">
        <ele>2470.23</ele>
        <time>2026-08-09T12:43:56.072Z</time>
      </trkpt>
      <trkpt lon="-106.798407" lat="36.971209">
        <ele>2470.29</ele>
        <time>2026-08-09T12:43:56.668Z</time>
      </trkpt>
      <trkpt lon="-106.798411" lat="36.971269">
        <ele>2470.75</ele>
        <time>2026-08-09T12:43:58.428Z</time>
      </trkpt>
      <trkpt lon="-106.798417" lat="36.971292">
        <ele>2470.79</ele>
        <time>2026-08-09T12:43:59.032Z</time>
      </trkpt>
      <trkpt lon="-106.798426" lat="36.971411">
        <ele>2471.65</ele>
        <time>2026-08-09T12:44:01.408Z</time>
      </trkpt>
      <trkpt lon="-106.798424" lat="36.971448">
        <ele>2471.83</ele>
        <time>2026-08-09T12:44:01.992Z</time>
      </trkpt>
      <trkpt lon="-106.798441" lat="36.971518">
        <ele>2472.19</ele>
        <time>2026-08-09T12:44:03.168Z</time>
      </trkpt>
      <trkpt lon="-106.798548" lat="36.971633">
        <ele>2473.5</ele>
        <time>2026-08-09T12:44:05.532Z</time>
      </trkpt>
      <trkpt lon="-106.798574" lat="36.971660">
        <ele>2473.9</ele>
        <time>2026-08-09T12:44:06.124Z</time>
      </trkpt>
      <trkpt lon="-106.798684" lat="36.971801">
        <ele>2476.48</ele>
        <time>2026-08-09T12:44:09.692Z</time>
      </trkpt>
      <trkpt lon="-106.798741" lat="36.971862">
        <ele>2475.16</ele>
        <time>2026-08-09T12:44:19.712Z</time>
      </trkpt>
      <trkpt lon="-106.798756" lat="36.971889">
        <ele>2475.66</ele>
        <time>2026-08-09T12:50:45.500Z</time>
      </trkpt>
      <trkpt lon="-106.798766" lat="36.971896">
        <ele>2475.69</ele>
        <time>2026-08-09T12:50:51.608Z</time>
      </trkpt>
      <trkpt lon="-106.798855" lat="36.971888">
        <ele>2475.7</ele>
        <time>2026-08-09T12:51:01.696Z</time>
      </trkpt>
      <trkpt lon="-106.798862" lat="36.971908">
        <ele>2476.66</ele>
        <time>2026-08-09T12:51:07.272Z</time>
      </trkpt>
      <trkpt lon="-106.798837" lat="36.971924">
        <ele>2476.02</ele>
        <time>2026-08-09T12:51:08.976Z</time>
      </trkpt>
      <trkpt lon="-106.798831" lat="36.971939">
        <ele>2475.85</ele>
        <time>2026-08-09T12:51:10.116Z</time>
      </trkpt>
      <trkpt lon="-106.798836" lat="36.971948">
        <ele>2475.63</ele>
        <time>2026-08-09T12:51:20.124Z</time>
      </trkpt>
      <trkpt lon="-106.798861" lat="36.971932">
        <ele>2475.42</ele>
        <time>2026-08-09T12:54:12.012Z</time>
      </trkpt>
      <trkpt lon="-106.798875" lat="36.971937">
        <ele>2475.42</ele>
        <time>2026-08-09T13:03:00.180Z</time>
      </trkpt>
      <trkpt lon="-106.798889" lat="36.971941">
        <ele>2475.38</ele>
        <time>2026-08-09T13:03:04.092Z</time>
      </trkpt>
      <trkpt lon="-106.798902" lat="36.971948">
        <ele>2475.47</ele>
        <time>2026-08-09T13:03:05.220Z</time>
      </trkpt>
      <trkpt lon="-106.798915" lat="36.971962">
        <ele>2475.64</ele>
        <time>2026-08-09T13:03:06.356Z</time>
      </trkpt>
      <trkpt lon="-106.798922" lat="36.971972">
        <ele>2475.73</ele>
        <time>2026-08-09T13:03:06.916Z</time>
      </trkpt>
      <trkpt lon="-106.798933" lat="36.971998">
        <ele>2476.16</ele>
        <time>2026-08-09T13:03:08.064Z</time>
      </trkpt>
      <trkpt lon="-106.798944" lat="36.972095">
        <ele>2477.09</ele>
        <time>2026-08-09T13:03:10.904Z</time>
      </trkpt>
      <trkpt lon="-106.798943" lat="36.972120">
        <ele>2477.23</ele>
        <time>2026-08-09T13:03:11.456Z</time>
      </trkpt>
      <trkpt lon="-106.798942" lat="36.972146">
        <ele>2477.26</ele>
        <time>2026-08-09T13:03:12.004Z</time>
      </trkpt>
      <trkpt lon="-106.798933" lat="36.972644">
        <ele>2481.75</ele>
        <time>2026-08-09T13:03:18.740Z</time>
      </trkpt>
      <trkpt lon="-106.798805" lat="36.973587">
        <ele>2493.35</ele>
        <time>2026-08-09T13:03:28.244Z</time>
      </trkpt>
      <trkpt lon="-106.798797" lat="36.973788">
        <ele>2494.07</ele>
        <time>2026-08-09T13:03:29.920Z</time>
      </trkpt>
      <trkpt lon="-106.798784" lat="36.974121">
        <ele>2498.1</ele>
        <time>2026-08-09T13:03:32.700Z</time>
      </trkpt>
      <trkpt lon="-106.798755" lat="36.974901">
        <ele>2514.98</ele>
        <time>2026-08-09T13:03:38.880Z</time>
      </trkpt>
      <trkpt lon="-106.798538" lat="36.975527">
        <ele>2531.95</ele>
        <time>2026-08-09T13:03:45.588Z</time>
      </trkpt>
      <trkpt lon="-106.798501" lat="36.975729">
        <ele>2535.33</ele>
        <time>2026-08-09T13:03:47.792Z</time>
      </trkpt>
      <trkpt lon="-106.798506" lat="36.975778">
        <ele>2536.12</ele>
        <time>2026-08-09T13:03:48.360Z</time>
      </trkpt>
      <trkpt lon="-106.798520" lat="36.975826">
        <ele>2536.9</ele>
        <time>2026-08-09T13:03:48.928Z</time>
      </trkpt>
      <trkpt lon="-106.798542" lat="36.975868">
        <ele>2537.61</ele>
        <time>2026-08-09T13:03:49.492Z</time>
      </trkpt>
      <trkpt lon="-106.798575" lat="36.975905">
        <ele>2538.19</ele>
        <time>2026-08-09T13:03:50.080Z</time>
      </trkpt>
      <trkpt lon="-106.798615" lat="36.975931">
        <ele>2538.51</ele>
        <time>2026-08-09T13:03:50.628Z</time>
      </trkpt>
      <trkpt lon="-106.798663" lat="36.975947">
        <ele>2538.54</ele>
        <time>2026-08-09T13:03:51.196Z</time>
      </trkpt>
      <trkpt lon="-106.798718" lat="36.975952">
        <ele>2538.25</ele>
        <time>2026-08-09T13:03:51.760Z</time>
      </trkpt>
      <trkpt lon="-106.798777" lat="36.975943">
        <ele>2537.63</ele>
        <time>2026-08-09T13:03:52.332Z</time>
      </trkpt>
      <trkpt lon="-106.798835" lat="36.975920">
        <ele>2536.69</ele>
        <time>2026-08-09T13:03:52.896Z</time>
      </trkpt>
      <trkpt lon="-106.798889" lat="36.975884">
        <ele>2535.52</ele>
        <time>2026-08-09T13:03:53.456Z</time>
      </trkpt>
      <trkpt lon="-106.798938" lat="36.975837">
        <ele>2534.25</ele>
        <time>2026-08-09T13:03:54.028Z</time>
      </trkpt>
      <trkpt lon="-106.798977" lat="36.975780">
        <ele>2533.05</ele>
        <time>2026-08-09T13:03:54.596Z</time>
      </trkpt>
      <trkpt lon="-106.799001" lat="36.975717">
        <ele>2531.94</ele>
        <time>2026-08-09T13:03:55.164Z</time>
      </trkpt>
      <trkpt lon="-106.799013" lat="36.975649">
        <ele>2530.87</ele>
        <time>2026-08-09T13:03:55.732Z</time>
      </trkpt>
      <trkpt lon="-106.798960" lat="36.975233">
        <ele>2528.46</ele>
        <time>2026-08-09T13:03:58.532Z</time>
      </trkpt>
      <trkpt lon="-106.798918" lat="36.975032">
        <ele>2523.87</ele>
        <time>2026-08-09T13:03:59.632Z</time>
      </trkpt>
      <trkpt lon="-106.798898" lat="36.974928">
        <ele>2518.36</ele>
        <time>2026-08-09T13:04:00.188Z</time>
      </trkpt>
      <trkpt lon="-106.798877" lat="36.974819">
        <ele>2510.99</ele>
        <time>2026-08-09T13:04:00.748Z</time>
      </trkpt>
      <trkpt lon="-106.798866" lat="36.974700">
        <ele>2505.49</ele>
        <time>2026-08-09T13:04:01.304Z</time>
      </trkpt>
      <trkpt lon="-106.798854" lat="36.974578">
        <ele>2503.16</ele>
        <time>2026-08-09T13:04:01.904Z</time>
      </trkpt>
      <trkpt lon="-106.798826" lat="36.974480">
        <ele>2503.65</ele>
        <time>2026-08-09T13:04:02.468Z</time>
      </trkpt>
      <trkpt lon="-106.798773" lat="36.974403">
        <ele>2505.49</ele>
        <time>2026-08-09T13:04:03.036Z</time>
      </trkpt>
      <trkpt lon="-106.798337" lat="36.974109">
        <ele>2515.64</ele>
        <time>2026-08-09T13:04:05.848Z</time>
      </trkpt>
      <trkpt lon="-106.798189" lat="36.973949">
        <ele>2517.51</ele>
        <time>2026-08-09T13:04:06.976Z</time>
      </trkpt>
      <trkpt lon="-106.798090" lat="36.973761">
        <ele>2517.95</ele>
        <time>2026-08-09T13:04:08.088Z</time>
      </trkpt>
      <trkpt lon="-106.798059" lat="36.973658">
        <ele>2518.02</ele>
        <time>2026-08-09T13:04:08.648Z</time>
      </trkpt>
      <trkpt lon="-106.798041" lat="36.973554">
        <ele>2518.17</ele>
        <time>2026-08-09T13:04:09.200Z</time>
      </trkpt>
      <trkpt lon="-106.798033" lat="36.973445">
        <ele>2518.44</ele>
        <time>2026-08-09T13:04:09.756Z</time>
      </trkpt>
      <trkpt lon="-106.798035" lat="36.973333">
        <ele>2518.88</ele>
        <time>2026-08-09T13:04:10.320Z</time>
      </trkpt>
      <trkpt lon="-106.798179" lat="36.971410">
        <ele>2538.42</ele>
        <time>2026-08-09T13:04:18.920Z</time>
      </trkpt>
      <trkpt lon="-106.798267" lat="36.968856">
        <ele>2559.05</ele>
        <time>2026-08-09T13:04:28.924Z</time>
      </trkpt>
      <trkpt lon="-106.798451" lat="36.964801">
        <ele>2582.96</ele>
        <time>2026-08-09T13:04:42.344Z</time>
      </trkpt>
      <trkpt lon="-106.798437" lat="36.963205">
        <ele>2600.73</ele>
        <time>2026-08-09T13:04:47.416Z</time>
      </trkpt>
      <trkpt lon="-106.798039" lat="36.961226">
        <ele>2615.55</ele>
        <time>2026-08-09T13:04:53.752Z</time>
      </trkpt>
      <trkpt lon="-106.797449" lat="36.959448">
        <ele>2621.1</ele>
        <time>2026-08-09T13:04:59.452Z</time>
      </trkpt>
      <trkpt lon="-106.796862" lat="36.958303">
        <ele>2625.58</ele>
        <time>2026-08-09T13:05:03.252Z</time>
      </trkpt>
      <trkpt lon="-106.796365" lat="36.957569">
        <ele>2628.19</ele>
        <time>2026-08-09T13:05:05.784Z</time>
      </trkpt>
      <trkpt lon="-106.796084" lat="36.957213">
        <ele>2629.17</ele>
        <time>2026-08-09T13:05:07.056Z</time>
      </trkpt>
      <trkpt lon="-106.795780" lat="36.956868">
        <ele>2630.22</ele>
        <time>2026-08-09T13:05:08.320Z</time>
      </trkpt>
      <trkpt lon="-106.794889" lat="36.956072">
        <ele>2632.44</ele>
        <time>2026-08-09T13:05:11.488Z</time>
      </trkpt>
      <trkpt lon="-106.794269" lat="36.955645">
        <ele>2633.54</ele>
        <time>2026-08-09T13:05:13.372Z</time>
      </trkpt>
      <trkpt lon="-106.793364" lat="36.955147">
        <ele>2636.1</ele>
        <time>2026-08-09T13:05:15.920Z</time>
      </trkpt>
      <trkpt lon="-106.792631" lat="36.954832">
        <ele>2637.61</ele>
        <time>2026-08-09T13:05:17.820Z</time>
      </trkpt>
      <trkpt lon="-106.790220" lat="36.954063">
        <ele>2635.24</ele>
        <time>2026-08-09T13:05:23.520Z</time>
      </trkpt>
      <trkpt lon="-106.783570" lat="36.952173">
        <ele>2619.61</ele>
        <time>2026-08-09T13:05:37.452Z</time>
      </trkpt>
      <trkpt lon="-106.782397" lat="36.951737">
        <ele>2616.95</ele>
        <time>2026-08-09T13:05:40.124Z</time>
      </trkpt>
      <trkpt lon="-106.781099" lat="36.951151">
        <ele>2614.25</ele>
        <time>2026-08-09T13:05:42.640Z</time>
      </trkpt>
      <trkpt lon="-106.771174" lat="36.946438">
        <ele>2591.91</ele>
        <time>2026-08-09T13:06:04.208Z</time>
      </trkpt>
      <trkpt lon="-106.767529" lat="36.944539">
        <ele>2588.13</ele>
        <time>2026-08-09T13:06:11.804Z</time>
      </trkpt>
      <trkpt lon="-106.766080" lat="36.943791">
        <ele>2587.74</ele>
        <time>2026-08-09T13:06:14.812Z</time>
      </trkpt>
      <trkpt lon="-106.765777" lat="36.943642">
        <ele>2587.95</ele>
        <time>2026-08-09T13:06:15.424Z</time>
      </trkpt>
      <trkpt lon="-106.764938" lat="36.943217">
        <ele>2589.17</ele>
        <time>2026-08-09T13:06:17.180Z</time>
      </trkpt>
      <trkpt lon="-106.752826" lat="36.936450">
        <ele>2605.29</ele>
        <time>2026-08-09T13:06:43.416Z</time>
      </trkpt>
      <trkpt lon="-106.752277" lat="36.936230">
        <ele>2609.31</ele>
        <time>2026-08-09T13:06:44.572Z</time>
      </trkpt>
      <trkpt lon="-106.751417" lat="36.935957">
        <ele>2611.4</ele>
        <time>2026-08-09T13:06:46.316Z</time>
      </trkpt>
      <trkpt lon="-106.749862" lat="36.935639">
        <ele>2603.74</ele>
        <time>2026-08-09T13:06:49.256Z</time>
      </trkpt>
      <trkpt lon="-106.748197" lat="36.935473">
        <ele>2593.09</ele>
        <time>2026-08-09T13:06:52.192Z</time>
      </trkpt>
      <trkpt lon="-106.746105" lat="36.935454">
        <ele>2585.87</ele>
        <time>2026-08-09T13:06:55.708Z</time>
      </trkpt>
      <trkpt lon="-106.743362" lat="36.935607">
        <ele>2593.2</ele>
        <time>2026-08-09T13:07:00.368Z</time>
      </trkpt>
      <trkpt lon="-106.742049" lat="36.935784">
        <ele>2601.81</ele>
        <time>2026-08-09T13:07:02.708Z</time>
      </trkpt>
      <trkpt lon="-106.741109" lat="36.935986">
        <ele>2607.63</ele>
        <time>2026-08-09T13:07:04.440Z</time>
      </trkpt>
      <trkpt lon="-106.740201" lat="36.936260">
        <ele>2611.97</ele>
        <time>2026-08-09T13:07:06.188Z</time>
      </trkpt>
      <trkpt lon="-106.738748" lat="36.936823">
        <ele>2615.33</ele>
        <time>2026-08-09T13:07:09.076Z</time>
      </trkpt>
      <trkpt lon="-106.736233" lat="36.937997">
        <ele>2621.13</ele>
        <time>2026-08-09T13:07:14.304Z</time>
      </trkpt>
      <trkpt lon="-106.732000" lat="36.940136">
        <ele>2643.54</ele>
        <time>2026-08-09T13:07:23.636Z</time>
      </trkpt>
      <trkpt lon="-106.727856" lat="36.942242">
        <ele>2665.27</ele>
        <time>2026-08-09T13:07:33.520Z</time>
      </trkpt>
      <trkpt lon="-106.724077" lat="36.944087">
        <ele>2685.2</ele>
        <time>2026-08-09T13:07:42.848Z</time>
      </trkpt>
      <trkpt lon="-106.721858" lat="36.945117">
        <ele>2704.35</ele>
        <time>2026-08-09T13:07:48.704Z</time>
      </trkpt>
      <trkpt lon="-106.720416" lat="36.945851">
        <ele>2715.65</ele>
        <time>2026-08-09T13:07:52.800Z</time>
      </trkpt>
      <trkpt lon="-106.719643" lat="36.946325">
        <ele>2720.3</ele>
        <time>2026-08-09T13:07:55.148Z</time>
      </trkpt>
      <trkpt lon="-106.718388" lat="36.947239">
        <ele>2725.63</ele>
        <time>2026-08-09T13:07:59.212Z</time>
      </trkpt>
      <trkpt lon="-106.716440" lat="36.948899">
        <ele>2740.87</ele>
        <time>2026-08-09T13:08:06.212Z</time>
      </trkpt>
      <trkpt lon="-106.714907" lat="36.950395">
        <ele>2758.09</ele>
        <time>2026-08-09T13:08:12.580Z</time>
      </trkpt>
      <trkpt lon="-106.712893" lat="36.952361">
        <ele>2775.87</ele>
        <time>2026-08-09T13:08:21.308Z</time>
      </trkpt>
      <trkpt lon="-106.710919" lat="36.954531">
        <ele>2789.82</ele>
        <time>2026-08-09T13:08:30.668Z</time>
      </trkpt>
      <trkpt lon="-106.709377" lat="36.956461">
        <ele>2801.03</ele>
        <time>2026-08-09T13:08:38.900Z</time>
      </trkpt>
      <trkpt lon="-106.707787" lat="36.959130">
        <ele>2800.92</ele>
        <time>2026-08-09T13:08:48.872Z</time>
      </trkpt>
      <trkpt lon="-106.707536" lat="36.959779">
        <ele>2803.31</ele>
        <time>2026-08-09T13:08:51.196Z</time>
      </trkpt>
      <trkpt lon="-106.707306" lat="36.960625">
        <ele>2803.89</ele>
        <time>2026-08-09T13:08:54.108Z</time>
      </trkpt>
      <trkpt lon="-106.707152" lat="36.961316">
        <ele>2804.83</ele>
        <time>2026-08-09T13:08:56.444Z</time>
      </trkpt>
      <trkpt lon="-106.706245" lat="36.965627">
        <ele>2789.03</ele>
        <time>2026-08-09T13:09:09.888Z</time>
      </trkpt>
      <trkpt lon="-106.705044" lat="36.972752">
        <ele>2792.03</ele>
        <time>2026-08-09T13:09:29.608Z</time>
      </trkpt>
      <trkpt lon="-106.705057" lat="36.974270">
        <ele>2792.97</ele>
        <time>2026-08-09T13:09:33.680Z</time>
      </trkpt>
      <trkpt lon="-106.705318" lat="36.976862">
        <ele>2807.76</ele>
        <time>2026-08-09T13:09:40.688Z</time>
      </trkpt>
      <trkpt lon="-106.705954" lat="36.980972">
        <ele>2828.62</ele>
        <time>2026-08-09T13:09:52.272Z</time>
      </trkpt>
      <trkpt lon="-106.706778" lat="36.985354">
        <ele>2846.41</ele>
        <time>2026-08-09T13:10:04.564Z</time>
      </trkpt>
      <trkpt lon="-106.707954" lat="36.993125">
        <ele>2834.04</ele>
        <time>2026-08-09T13:10:24.496Z</time>
      </trkpt>
      <trkpt lon="-106.709898" lat="37.000486">
        <ele>2813.53</ele>
        <time>2026-08-09T13:10:41.884Z</time>
      </trkpt>
      <trkpt lon="-106.710852" lat="37.003141">
        <ele>2790.92</ele>
        <time>2026-08-09T13:10:47.696Z</time>
      </trkpt>
      <trkpt lon="-106.712032" lat="37.006599">
        <ele>2770.5</ele>
        <time>2026-08-09T13:10:54.680Z</time>
      </trkpt>
      <trkpt lon="-106.712875" lat="37.009132">
        <ele>2779.66</ele>
        <time>2026-08-09T13:10:59.912Z</time>
      </trkpt>
      <trkpt lon="-106.716418" lat="37.018548">
        <ele>2753.03</ele>
        <time>2026-08-09T13:11:20.288Z</time>
      </trkpt>
      <trkpt lon="-106.718062" lat="37.022919">
        <ele>2750.64</ele>
        <time>2026-08-09T13:11:29.560Z</time>
      </trkpt>
      <trkpt lon="-106.722588" lat="37.032054">
        <ele>2721.19</ele>
        <time>2026-08-09T13:11:49.316Z</time>
      </trkpt>
      <trkpt lon="-106.722994" lat="37.033178">
        <ele>2715.67</ele>
        <time>2026-08-09T13:11:51.648Z</time>
      </trkpt>
      <trkpt lon="-106.723280" lat="37.034358">
        <ele>2706.27</ele>
        <time>2026-08-09T13:11:53.984Z</time>
      </trkpt>
      <trkpt lon="-106.723399" lat="37.035245">
        <ele>2698.79</ele>
        <time>2026-08-09T13:11:55.708Z</time>
      </trkpt>
      <trkpt lon="-106.723421" lat="37.036158">
        <ele>2692.25</ele>
        <time>2026-08-09T13:11:57.444Z</time>
      </trkpt>
      <trkpt lon="-106.723318" lat="37.037084">
        <ele>2686.97</ele>
        <time>2026-08-09T13:11:59.196Z</time>
      </trkpt>
      <trkpt lon="-106.723072" lat="37.037988">
        <ele>2681.56</ele>
        <time>2026-08-09T13:12:00.936Z</time>
      </trkpt>
      <trkpt lon="-106.722821" lat="37.038574">
        <ele>2677.36</ele>
        <time>2026-08-09T13:12:02.092Z</time>
      </trkpt>
      <trkpt lon="-106.722495" lat="37.039140">
        <ele>2672.27</ele>
        <time>2026-08-09T13:12:03.248Z</time>
      </trkpt>
      <trkpt lon="-106.722096" lat="37.039681">
        <ele>2666.3</ele>
        <time>2026-08-09T13:12:04.408Z</time>
      </trkpt>
      <trkpt lon="-106.721628" lat="37.040188">
        <ele>2660.57</ele>
        <time>2026-08-09T13:12:05.568Z</time>
      </trkpt>
      <trkpt lon="-106.721097" lat="37.040657">
        <ele>2656.96</ele>
        <time>2026-08-09T13:12:06.732Z</time>
      </trkpt>
      <trkpt lon="-106.719387" lat="37.041844">
        <ele>2670.45</ele>
        <time>2026-08-09T13:12:10.244Z</time>
      </trkpt>
      <trkpt lon="-106.717791" lat="37.042824">
        <ele>2703.02</ele>
        <time>2026-08-09T13:12:13.720Z</time>
      </trkpt>
      <trkpt lon="-106.712185" lat="37.046342">
        <ele>2699.04</ele>
        <time>2026-08-09T13:12:26.520Z</time>
      </trkpt>
      <trkpt lon="-106.705998" lat="37.050107">
        <ele>2706.45</ele>
        <time>2026-08-09T13:12:39.316Z</time>
      </trkpt>
      <trkpt lon="-106.704113" lat="37.051627">
        <ele>2709.37</ele>
        <time>2026-08-09T13:12:43.948Z</time>
      </trkpt>
      <trkpt lon="-106.701404" lat="37.054237">
        <ele>2695.79</ele>
        <time>2026-08-09T13:12:50.964Z</time>
      </trkpt>
      <trkpt lon="-106.699075" lat="37.057133">
        <ele>2692.16</ele>
        <time>2026-08-09T13:12:57.920Z</time>
      </trkpt>
      <trkpt lon="-106.698735" lat="37.057634">
        <ele>2693.64</ele>
        <time>2026-08-09T13:12:59.096Z</time>
      </trkpt>
      <trkpt lon="-106.698122" lat="37.058666">
        <ele>2698.8</ele>
        <time>2026-08-09T13:13:01.436Z</time>
      </trkpt>
      <trkpt lon="-106.697059" lat="37.060997">
        <ele>2692.94</ele>
        <time>2026-08-09T13:13:06.668Z</time>
      </trkpt>
      <trkpt lon="-106.694919" lat="37.066971">
        <ele>2667.68</ele>
        <time>2026-08-09T13:13:19.488Z</time>
      </trkpt>
      <trkpt lon="-106.694610" lat="37.067770">
        <ele>2663.87</ele>
        <time>2026-08-09T13:13:21.228Z</time>
      </trkpt>
      <trkpt lon="-106.693245" lat="37.071028">
        <ele>2675.41</ele>
        <time>2026-08-09T13:13:28.780Z</time>
      </trkpt>
      <trkpt lon="-106.692886" lat="37.072228">
        <ele>2682.82</ele>
        <time>2026-08-09T13:13:31.692Z</time>
      </trkpt>
      <trkpt lon="-106.692427" lat="37.074316">
        <ele>2699.61</ele>
        <time>2026-08-09T13:13:36.924Z</time>
      </trkpt>
      <trkpt lon="-106.692352" lat="37.075250">
        <ele>2703.58</ele>
        <time>2026-08-09T13:13:39.248Z</time>
      </trkpt>
      <trkpt lon="-106.692342" lat="37.075719">
        <ele>2706.28</ele>
        <time>2026-08-09T13:13:40.424Z</time>
      </trkpt>
      <trkpt lon="-106.692369" lat="37.078893">
        <ele>2715.68</ele>
        <time>2026-08-09T13:13:48.540Z</time>
      </trkpt>
      <trkpt lon="-106.691417" lat="37.088077">
        <ele>2727.97</ele>
        <time>2026-08-09T13:14:11.756Z</time>
      </trkpt>
      <trkpt lon="-106.690973" lat="37.090971">
        <ele>2744.67</ele>
        <time>2026-08-09T13:14:19.304Z</time>
      </trkpt>
      <trkpt lon="-106.690461" lat="37.093709">
        <ele>2755.42</ele>
        <time>2026-08-09T13:14:26.896Z</time>
      </trkpt>
      <trkpt lon="-106.690028" lat="37.095337">
        <ele>2758.09</ele>
        <time>2026-08-09T13:14:31.528Z</time>
      </trkpt>
      <trkpt lon="-106.689762" lat="37.096361">
        <ele>2760.63</ele>
        <time>2026-08-09T13:14:34.456Z</time>
      </trkpt>
      <trkpt lon="-106.687329" lat="37.107414">
        <ele>2742.29</ele>
        <time>2026-08-09T13:15:04.656Z</time>
      </trkpt>
      <trkpt lon="-106.686271" lat="37.113425">
        <ele>2763.75</ele>
        <time>2026-08-09T13:15:20.320Z</time>
      </trkpt>
      <trkpt lon="-106.685772" lat="37.116302">
        <ele>2793.1</ele>
        <time>2026-08-09T13:15:28.432Z</time>
      </trkpt>
      <trkpt lon="-106.685587" lat="37.117920">
        <ele>2808.4</ele>
        <time>2026-08-09T13:15:33.088Z</time>
      </trkpt>
      <trkpt lon="-106.685376" lat="37.119936">
        <ele>2812.13</ele>
        <time>2026-08-09T13:15:38.868Z</time>
      </trkpt>
      <trkpt lon="-106.684705" lat="37.128555">
        <ele>2836.2</ele>
        <time>2026-08-09T13:16:02.104Z</time>
      </trkpt>
      <trkpt lon="-106.684006" lat="37.132824">
        <ele>2855.35</ele>
        <time>2026-08-09T13:16:13.312Z</time>
      </trkpt>
      <trkpt lon="-106.683922" lat="37.134323">
        <ele>2860.99</ele>
        <time>2026-08-09T13:16:17.004Z</time>
      </trkpt>
      <trkpt lon="-106.684006" lat="37.136340">
        <ele>2866.79</ele>
        <time>2026-08-09T13:16:22.212Z</time>
      </trkpt>
      <trkpt lon="-106.685176" lat="37.144796">
        <ele>2899.55</ele>
        <time>2026-08-09T13:16:44.784Z</time>
      </trkpt>
      <trkpt lon="-106.686299" lat="37.150287">
        <ele>2928.05</ele>
        <time>2026-08-09T13:17:00.424Z</time>
      </trkpt>
      <trkpt lon="-106.688134" lat="37.156276">
        <ele>2963.6</ele>
        <time>2026-08-09T13:17:18.992Z</time>
      </trkpt>
      <trkpt lon="-106.689824" lat="37.162242">
        <ele>2987.45</ele>
        <time>2026-08-09T13:17:38.144Z</time>
      </trkpt>
      <trkpt lon="-106.691748" lat="37.169317">
        <ele>3019.3</ele>
        <time>2026-08-09T13:18:00.196Z</time>
      </trkpt>
      <trkpt lon="-106.693718" lat="37.173342">
        <ele>3042.33</ele>
        <time>2026-08-09T13:18:13.600Z</time>
      </trkpt>
      <trkpt lon="-106.695149" lat="37.177034">
        <ele>3065.17</ele>
        <time>2026-08-09T13:18:25.248Z</time>
      </trkpt>
      <trkpt lon="-106.696615" lat="37.180909">
        <ele>3086.44</ele>
        <time>2026-08-09T13:18:36.864Z</time>
      </trkpt>
      <trkpt lon="-106.697643" lat="37.182971">
        <ele>3100.02</ele>
        <time>2026-08-09T13:18:43.268Z</time>
      </trkpt>
      <trkpt lon="-106.699429" lat="37.186485">
        <ele>3121.5</ele>
        <time>2026-08-09T13:18:54.276Z</time>
      </trkpt>
      <trkpt lon="-106.702637" lat="37.192047">
        <ele>3142.33</ele>
        <time>2026-08-09T13:19:11.100Z</time>
      </trkpt>
      <trkpt lon="-106.705205" lat="37.196366">
        <ele>3160.76</ele>
        <time>2026-08-09T13:19:23.364Z</time>
      </trkpt>
      <trkpt lon="-106.707858" lat="37.199715">
        <ele>3166.24</ele>
        <time>2026-08-09T13:19:33.260Z</time>
      </trkpt>
      <trkpt lon="-106.710308" lat="37.202324">
        <ele>3178.87</ele>
        <time>2026-08-09T13:19:41.376Z</time>
      </trkpt>
      <trkpt lon="-106.711873" lat="37.203744">
        <ele>3179.42</ele>
        <time>2026-08-09T13:19:46.020Z</time>
      </trkpt>
      <trkpt lon="-106.712493" lat="37.204248">
        <ele>3178.73</ele>
        <time>2026-08-09T13:19:47.748Z</time>
      </trkpt>
      <trkpt lon="-106.720059" lat="37.209776">
        <ele>3152.96</ele>
        <time>2026-08-09T13:20:06.872Z</time>
      </trkpt>
      <trkpt lon="-106.721466" lat="37.210908">
        <ele>3136.54</ele>
        <time>2026-08-09T13:20:10.352Z</time>
      </trkpt>
      <trkpt lon="-106.724980" lat="37.213976">
        <ele>3123.57</ele>
        <time>2026-08-09T13:20:19.096Z</time>
      </trkpt>
      <trkpt lon="-106.727330" lat="37.215786">
        <ele>3129.01</ele>
        <time>2026-08-09T13:20:24.880Z</time>
      </trkpt>
      <trkpt lon="-106.729113" lat="37.216951">
        <ele>3141.46</ele>
        <time>2026-08-09T13:20:29.524Z</time>
      </trkpt>
      <trkpt lon="-106.730017" lat="37.217425">
        <ele>3143.9</ele>
        <time>2026-08-09T13:20:31.852Z</time>
      </trkpt>
      <trkpt lon="-106.731682" lat="37.218105">
        <ele>3151</ele>
        <time>2026-08-09T13:20:35.964Z</time>
      </trkpt>
      <trkpt lon="-106.732403" lat="37.218331">
        <ele>3155.6</ele>
        <time>2026-08-09T13:20:37.708Z</time>
      </trkpt>
      <trkpt lon="-106.733885" lat="37.218686">
        <ele>3160.4</ele>
        <time>2026-08-09T13:20:41.192Z</time>
      </trkpt>
      <trkpt lon="-106.738411" lat="37.219585">
        <ele>3149.49</ele>
        <time>2026-08-09T13:20:51.088Z</time>
      </trkpt>
      <trkpt lon="-106.741426" lat="37.220364">
        <ele>3140.58</ele>
        <time>2026-08-09T13:20:57.464Z</time>
      </trkpt>
      <trkpt lon="-106.745965" lat="37.221896">
        <ele>3110.86</ele>
        <time>2026-08-09T13:21:06.744Z</time>
      </trkpt>
      <trkpt lon="-106.748699" lat="37.222949">
        <ele>3086.33</ele>
        <time>2026-08-09T13:21:11.944Z</time>
      </trkpt>
      <trkpt lon="-106.752275" lat="37.224546">
        <ele>3088.28</ele>
        <time>2026-08-09T13:21:18.932Z</time>
      </trkpt>
      <trkpt lon="-106.755834" lat="37.225863">
        <ele>3089.94</ele>
        <time>2026-08-09T13:21:25.928Z</time>
      </trkpt>
      <trkpt lon="-106.772065" lat="37.229830">
        <ele>3106.93</ele>
        <time>2026-08-09T13:21:56.244Z</time>
      </trkpt>
      <trkpt lon="-106.775218" lat="37.230460">
        <ele>3115.56</ele>
        <time>2026-08-09T13:22:02.072Z</time>
      </trkpt>
      <trkpt lon="-106.791919" lat="37.232676">
        <ele>3127.5</ele>
        <time>2026-08-09T13:22:32.244Z</time>
      </trkpt>
      <trkpt lon="-106.797107" lat="37.233476">
        <ele>3135.14</ele>
        <time>2026-08-09T13:22:41.484Z</time>
      </trkpt>
      <trkpt lon="-106.802099" lat="37.234610">
        <ele>3154.6</ele>
        <time>2026-08-09T13:22:50.744Z</time>
      </trkpt>
      <trkpt lon="-106.803329" lat="37.234981">
        <ele>3155.27</ele>
        <time>2026-08-09T13:22:53.052Z</time>
      </trkpt>
      <trkpt lon="-106.805475" lat="37.235791">
        <ele>3160.55</ele>
        <time>2026-08-09T13:22:57.192Z</time>
      </trkpt>
      <trkpt lon="-106.807487" lat="37.236742">
        <ele>3167.45</ele>
        <time>2026-08-09T13:23:01.236Z</time>
      </trkpt>
      <trkpt lon="-106.809453" lat="37.237832">
        <ele>3177.16</ele>
        <time>2026-08-09T13:23:05.360Z</time>
      </trkpt>
      <trkpt lon="-106.811000" lat="37.238869">
        <ele>3185.57</ele>
        <time>2026-08-09T13:23:08.864Z</time>
      </trkpt>
      <trkpt lon="-106.812170" lat="37.239830">
        <ele>3192.59</ele>
        <time>2026-08-09T13:23:11.776Z</time>
      </trkpt>
      <trkpt lon="-106.812991" lat="37.240642">
        <ele>3199.01</ele>
        <time>2026-08-09T13:23:14.092Z</time>
      </trkpt>
      <trkpt lon="-106.814058" lat="37.241950">
        <ele>3210.67</ele>
        <time>2026-08-09T13:23:17.628Z</time>
      </trkpt>
      <trkpt lon="-106.815614" lat="37.244407">
        <ele>3227.8</ele>
        <time>2026-08-09T13:23:24.016Z</time>
      </trkpt>
      <trkpt lon="-106.816194" lat="37.245544">
        <ele>3232.61</ele>
        <time>2026-08-09T13:23:26.928Z</time>
      </trkpt>
      <trkpt lon="-106.817235" lat="37.248093">
        <ele>3240.6</ele>
        <time>2026-08-09T13:23:33.340Z</time>
      </trkpt>
      <trkpt lon="-106.817602" lat="37.249278">
        <ele>3239.69</ele>
        <time>2026-08-09T13:23:36.264Z</time>
      </trkpt>
      <trkpt lon="-106.819367" lat="37.255629">
        <ele>3267.77</ele>
        <time>2026-08-09T13:23:51.924Z</time>
      </trkpt>
      <trkpt lon="-106.819947" lat="37.258088">
        <ele>3298.14</ele>
        <time>2026-08-09T13:23:58.900Z</time>
      </trkpt>
      <trkpt lon="-106.820417" lat="37.260738">
        <ele>3326.95</ele>
        <time>2026-08-09T13:24:07.036Z</time>
      </trkpt>
      <trkpt lon="-106.821380" lat="37.265999">
        <ele>3354.67</ele>
        <time>2026-08-09T13:24:23.288Z</time>
      </trkpt>
      <trkpt lon="-106.821517" lat="37.266943">
        <ele>3358.84</ele>
        <time>2026-08-09T13:24:26.208Z</time>
      </trkpt>
      <trkpt lon="-106.821594" lat="37.268590">
        <ele>3369.36</ele>
        <time>2026-08-09T13:24:31.416Z</time>
      </trkpt>
      <trkpt lon="-106.821242" lat="37.271537">
        <ele>3402.81</ele>
        <time>2026-08-09T13:24:41.344Z</time>
      </trkpt>
      <trkpt lon="-106.820999" lat="37.272697">
        <ele>3414.76</ele>
        <time>2026-08-09T13:24:45.392Z</time>
      </trkpt>
      <trkpt lon="-106.820528" lat="37.274332">
        <ele>3431.92</ele>
        <time>2026-08-09T13:24:51.168Z</time>
      </trkpt>
      <trkpt lon="-106.818979" lat="37.278815">
        <ele>3471.31</ele>
        <time>2026-08-09T13:25:06.820Z</time>
      </trkpt>
      <trkpt lon="-106.818140" lat="37.281005">
        <ele>3488.62</ele>
        <time>2026-08-09T13:25:14.372Z</time>
      </trkpt>
      <trkpt lon="-106.817561" lat="37.282396">
        <ele>3493.28</ele>
        <time>2026-08-09T13:25:19.012Z</time>
      </trkpt>
      <trkpt lon="-106.815357" lat="37.287765">
        <ele>3541.09</ele>
        <time>2026-08-09T13:25:36.492Z</time>
      </trkpt>
      <trkpt lon="-106.812940" lat="37.293553">
        <ele>3571.61</ele>
        <time>2026-08-09T13:25:55.652Z</time>
      </trkpt>
      <trkpt lon="-106.812457" lat="37.295410">
        <ele>3576.94</ele>
        <time>2026-08-09T13:26:00.916Z</time>
      </trkpt>
      <trkpt lon="-106.812281" lat="37.296484">
        <ele>3578.77</ele>
        <time>2026-08-09T13:26:03.824Z</time>
      </trkpt>
      <trkpt lon="-106.812234" lat="37.297154">
        <ele>3576.36</ele>
        <time>2026-08-09T13:26:05.564Z</time>
      </trkpt>
      <trkpt lon="-106.812197" lat="37.297876">
        <ele>3570.3</ele>
        <time>2026-08-09T13:26:07.328Z</time>
      </trkpt>
      <trkpt lon="-106.812183" lat="37.298114">
        <ele>3567.97</ele>
        <time>2026-08-09T13:26:07.908Z</time>
      </trkpt>
      <trkpt lon="-106.811269" lat="37.301907">
        <ele>3563.59</ele>
        <time>2026-08-09T13:26:16.604Z</time>
      </trkpt>
      <trkpt lon="-106.810370" lat="37.304713">
        <ele>3595.47</ele>
        <time>2026-08-09T13:26:23.548Z</time>
      </trkpt>
      <trkpt lon="-106.809816" lat="37.306817">
        <ele>3598.69</ele>
        <time>2026-08-09T13:26:28.784Z</time>
      </trkpt>
      <trkpt lon="-106.809284" lat="37.308856">
        <ele>3579.21</ele>
        <time>2026-08-09T13:26:33.412Z</time>
      </trkpt>
      <trkpt lon="-106.807576" lat="37.312960">
        <ele>3600.98</ele>
        <time>2026-08-09T13:26:42.712Z</time>
      </trkpt>
      <trkpt lon="-106.806095" lat="37.315515">
        <ele>3590.37</ele>
        <time>2026-08-09T13:26:49.072Z</time>
      </trkpt>
      <trkpt lon="-106.805430" lat="37.316490">
        <ele>3575.23</ele>
        <time>2026-08-09T13:26:51.392Z</time>
      </trkpt>
      <trkpt lon="-106.800989" lat="37.322166">
        <ele>3556.36</ele>
        <time>2026-08-09T13:27:04.760Z</time>
      </trkpt>
      <trkpt lon="-106.796470" lat="37.326998">
        <ele>3555.92</ele>
        <time>2026-08-09T13:27:16.944Z</time>
      </trkpt>
      <trkpt lon="-106.786131" lat="37.339811">
        <ele>3521.94</ele>
        <time>2026-08-09T13:27:47.200Z</time>
      </trkpt>
      <trkpt lon="-106.774932" lat="37.352095">
        <ele>3498.83</ele>
        <time>2026-08-09T13:28:17.488Z</time>
      </trkpt>
      <trkpt lon="-106.764945" lat="37.361799">
        <ele>3482.67</ele>
        <time>2026-08-09T13:28:42.468Z</time>
      </trkpt>
      <trkpt lon="-106.753670" lat="37.373888">
        <ele>3442.7</ele>
        <time>2026-08-09T13:29:12.792Z</time>
      </trkpt>
      <trkpt lon="-106.741882" lat="37.385896">
        <ele>3420.95</ele>
        <time>2026-08-09T13:29:43.020Z</time>
      </trkpt>
      <trkpt lon="-106.732216" lat="37.395199">
        <ele>3422.57</ele>
        <time>2026-08-09T13:30:07.368Z</time>
      </trkpt>
      <trkpt lon="-106.727878" lat="37.400203">
        <ele>3400.22</ele>
        <time>2026-08-09T13:30:19.536Z</time>
      </trkpt>
      <trkpt lon="-106.720337" lat="37.407979">
        <ele>3360.43</ele>
        <time>2026-08-09T13:30:39.260Z</time>
      </trkpt>
      <trkpt lon="-106.711752" lat="37.417380">
        <ele>3382.84</ele>
        <time>2026-08-09T13:31:03.084Z</time>
      </trkpt>
      <trkpt lon="-106.707156" lat="37.422756">
        <ele>3411.08</ele>
        <time>2026-08-09T13:31:17.576Z</time>
      </trkpt>
      <trkpt lon="-106.704122" lat="37.426140">
        <ele>3439.77</ele>
        <time>2026-08-09T13:31:27.416Z</time>
      </trkpt>
      <trkpt lon="-106.702505" lat="37.427930">
        <ele>3465.73</ele>
        <time>2026-08-09T13:31:33.196Z</time>
      </trkpt>
      <trkpt lon="-106.699471" lat="37.431489">
        <ele>3488.71</ele>
        <time>2026-08-09T13:31:45.332Z</time>
      </trkpt>
      <trkpt lon="-106.695481" lat="37.435186">
        <ele>3500.17</ele>
        <time>2026-08-09T13:31:58.680Z</time>
      </trkpt>
      <trkpt lon="-106.690983" lat="37.438822">
        <ele>3519.86</ele>
        <time>2026-08-09T13:32:13.216Z</time>
      </trkpt>
      <trkpt lon="-106.686994" lat="37.442561">
        <ele>3518.45</ele>
        <time>2026-08-09T13:32:27.240Z</time>
      </trkpt>
      <trkpt lon="-106.684475" lat="37.444918">
        <ele>3523.01</ele>
        <time>2026-08-09T13:32:35.416Z</time>
      </trkpt>
      <trkpt lon="-106.680829" lat="37.447762">
        <ele>3538.46</ele>
        <time>2026-08-09T13:32:45.868Z</time>
      </trkpt>
      <trkpt lon="-106.676265" lat="37.450557">
        <ele>3518.97</ele>
        <time>2026-08-09T13:32:56.956Z</time>
      </trkpt>
      <trkpt lon="-106.673260" lat="37.452233">
        <ele>3497.01</ele>
        <time>2026-08-09T13:33:03.328Z</time>
      </trkpt>
      <trkpt lon="-106.667101" lat="37.455472">
        <ele>3479.94</ele>
        <time>2026-08-09T13:33:15.536Z</time>
      </trkpt>
      <trkpt lon="-106.658762" lat="37.459647">
        <ele>3471.14</ele>
        <time>2026-08-09T13:33:31.180Z</time>
      </trkpt>
      <trkpt lon="-106.656216" lat="37.461195">
        <ele>3475.31</ele>
        <time>2026-08-09T13:33:36.380Z</time>
      </trkpt>
      <trkpt lon="-106.651726" lat="37.464622">
        <ele>3496.45</ele>
        <time>2026-08-09T13:33:46.816Z</time>
      </trkpt>
      <trkpt lon="-106.649162" lat="37.466935">
        <ele>3507.08</ele>
        <time>2026-08-09T13:33:53.776Z</time>
      </trkpt>
      <trkpt lon="-106.645460" lat="37.469875">
        <ele>3527.94</ele>
        <time>2026-08-09T13:34:03.692Z</time>
      </trkpt>
      <trkpt lon="-106.642804" lat="37.471504">
        <ele>3548.24</ele>
        <time>2026-08-09T13:34:10.652Z</time>
      </trkpt>
      <trkpt lon="-106.631239" lat="37.478271">
        <ele>3542.33</ele>
        <time>2026-08-09T13:34:40.900Z</time>
      </trkpt>
      <trkpt lon="-106.626859" lat="37.480361">
        <ele>3538.52</ele>
        <time>2026-08-09T13:34:50.792Z</time>
      </trkpt>
      <trkpt lon="-106.623147" lat="37.481837">
        <ele>3525.96</ele>
        <time>2026-08-09T13:34:58.340Z</time>
      </trkpt>
      <trkpt lon="-106.621342" lat="37.482428">
        <ele>3522.19</ele>
        <time>2026-08-09T13:35:01.808Z</time>
      </trkpt>
      <trkpt lon="-106.620109" lat="37.482753">
        <ele>3521.44</ele>
        <time>2026-08-09T13:35:04.120Z</time>
      </trkpt>
      <trkpt lon="-106.615706" lat="37.483495">
        <ele>3522.55</ele>
        <time>2026-08-09T13:35:12.244Z</time>
      </trkpt>
      <trkpt lon="-106.598880" lat="37.485530">
        <ele>3513.49</ele>
        <time>2026-08-09T13:35:42.496Z</time>
      </trkpt>
      <trkpt lon="-106.588772" lat="37.486362">
        <ele>3531.98</ele>
        <time>2026-08-09T13:36:02.184Z</time>
      </trkpt>
      <trkpt lon="-106.584322" lat="37.486751">
        <ele>3542.62</ele>
        <time>2026-08-09T13:36:11.476Z</time>
      </trkpt>
      <trkpt lon="-106.575680" lat="37.487813">
        <ele>3536.25</ele>
        <time>2026-08-09T13:36:30.212Z</time>
      </trkpt>
      <trkpt lon="-106.573947" lat="37.488268">
        <ele>3529.63</ele>
        <time>2026-08-09T13:36:33.768Z</time>
      </trkpt>
      <trkpt lon="-106.572861" lat="37.488643">
        <ele>3528.01</ele>
        <time>2026-08-09T13:36:36.084Z</time>
      </trkpt>
      <trkpt lon="-106.570209" lat="37.489752">
        <ele>3515.3</ele>
        <time>2026-08-09T13:36:41.892Z</time>
      </trkpt>
      <trkpt lon="-106.567219" lat="37.491127">
        <ele>3491.55</ele>
        <time>2026-08-09T13:36:48.256Z</time>
      </trkpt>
      <trkpt lon="-106.558118" lat="37.495505">
        <ele>3461.31</ele>
        <time>2026-08-09T13:37:07.484Z</time>
      </trkpt>
      <trkpt lon="-106.553585" lat="37.498104">
        <ele>3430.71</ele>
        <time>2026-08-09T13:37:16.788Z</time>
      </trkpt>
      <trkpt lon="-106.551134" lat="37.499792">
        <ele>3417.12</ele>
        <time>2026-08-09T13:37:22.016Z</time>
      </trkpt>
      <trkpt lon="-106.547899" lat="37.502603">
        <ele>3398.04</ele>
        <time>2026-08-09T13:37:29.540Z</time>
      </trkpt>
      <trkpt lon="-106.544546" lat="37.505570">
        <ele>3378.31</ele>
        <time>2026-08-09T13:37:37.096Z</time>
      </trkpt>
      <trkpt lon="-106.535103" lat="37.512537">
        <ele>3373.88</ele>
        <time>2026-08-09T13:37:56.820Z</time>
      </trkpt>
      <trkpt lon="-106.529762" lat="37.515982">
        <ele>3355.67</ele>
        <time>2026-08-09T13:38:07.308Z</time>
      </trkpt>
      <trkpt lon="-106.525232" lat="37.518710">
        <ele>3361.24</ele>
        <time>2026-08-09T13:38:16.000Z</time>
      </trkpt>
      <trkpt lon="-106.520417" lat="37.522039">
        <ele>3341.75</ele>
        <time>2026-08-09T13:38:25.860Z</time>
      </trkpt>
      <trkpt lon="-106.516530" lat="37.524996">
        <ele>3311.06</ele>
        <time>2026-08-09T13:38:33.992Z</time>
      </trkpt>
      <trkpt lon="-106.506177" lat="37.533374">
        <ele>3274.71</ele>
        <time>2026-08-09T13:38:56.016Z</time>
      </trkpt>
      <trkpt lon="-106.500956" lat="37.537462">
        <ele>3295.43</ele>
        <time>2026-08-09T13:39:07.036Z</time>
      </trkpt>
      <trkpt lon="-106.493581" lat="37.543647">
        <ele>3262.38</ele>
        <time>2026-08-09T13:39:23.340Z</time>
      </trkpt>
      <trkpt lon="-106.479576" lat="37.555288">
        <ele>3235.44</ele>
        <time>2026-08-09T13:39:53.448Z</time>
      </trkpt>
      <trkpt lon="-106.477449" lat="37.556864">
        <ele>3204.06</ele>
        <time>2026-08-09T13:39:57.496Z</time>
      </trkpt>
      <trkpt lon="-106.474831" lat="37.558741">
        <ele>3174.49</ele>
        <time>2026-08-09T13:40:02.152Z</time>
      </trkpt>
      <trkpt lon="-106.470945" lat="37.561547">
        <ele>3166.73</ele>
        <time>2026-08-09T13:40:09.084Z</time>
      </trkpt>
      <trkpt lon="-106.466865" lat="37.564968">
        <ele>3165.17</ele>
        <time>2026-08-09T13:40:17.256Z</time>
      </trkpt>
      <trkpt lon="-106.460621" lat="37.571249">
        <ele>3135.54</ele>
        <time>2026-08-09T13:40:31.212Z</time>
      </trkpt>
      <trkpt lon="-106.458551" lat="37.573456">
        <ele>3103.22</ele>
        <time>2026-08-09T13:40:35.900Z</time>
      </trkpt>
      <trkpt lon="-106.456660" lat="37.575427">
        <ele>3071.65</ele>
        <time>2026-08-09T13:40:39.948Z</time>
      </trkpt>
      <trkpt lon="-106.453538" lat="37.578563">
        <ele>3039.49</ele>
        <time>2026-08-09T13:40:46.316Z</time>
      </trkpt>
      <trkpt lon="-106.449647" lat="37.582877">
        <ele>3026.79</ele>
        <time>2026-08-09T13:40:55.028Z</time>
      </trkpt>
      <trkpt lon="-106.446585" lat="37.587264">
        <ele>2991.47</ele>
        <time>2026-08-09T13:41:03.716Z</time>
      </trkpt>
      <trkpt lon="-106.444948" lat="37.589702">
        <ele>2960.18</ele>
        <time>2026-08-09T13:41:08.352Z</time>
      </trkpt>
      <trkpt lon="-106.444307" lat="37.590627">
        <ele>2950.21</ele>
        <time>2026-08-09T13:41:10.096Z</time>
      </trkpt>
      <trkpt lon="-106.442419" lat="37.593428">
        <ele>2920.85</ele>
        <time>2026-08-09T13:41:15.304Z</time>
      </trkpt>
      <trkpt lon="-106.439643" lat="37.598189">
        <ele>2901.45</ele>
        <time>2026-08-09T13:41:24.040Z</time>
      </trkpt>
      <trkpt lon="-106.437554" lat="37.602761">
        <ele>2871.2</ele>
        <time>2026-08-09T13:41:32.304Z</time>
      </trkpt>
      <trkpt lon="-106.435444" lat="37.607296">
        <ele>2841.43</ele>
        <time>2026-08-09T13:41:40.456Z</time>
      </trkpt>
      <trkpt lon="-106.432718" lat="37.613281">
        <ele>2822.97</ele>
        <time>2026-08-09T13:41:51.496Z</time>
      </trkpt>
      <trkpt lon="-106.432222" lat="37.614812">
        <ele>2821.49</ele>
        <time>2026-08-09T13:41:54.396Z</time>
      </trkpt>
      <trkpt lon="-106.432040" lat="37.615751">
        <ele>2818.19</ele>
        <time>2026-08-09T13:41:56.144Z</time>
      </trkpt>
      <trkpt lon="-106.431959" lat="37.616705">
        <ele>2810.92</ele>
        <time>2026-08-09T13:41:57.908Z</time>
      </trkpt>
      <trkpt lon="-106.431992" lat="37.617662">
        <ele>2799.83</ele>
        <time>2026-08-09T13:41:59.660Z</time>
      </trkpt>
      <trkpt lon="-106.432212" lat="37.618930">
        <ele>2784.78</ele>
        <time>2026-08-09T13:42:01.980Z</time>
      </trkpt>
      <trkpt lon="-106.432629" lat="37.620161">
        <ele>2773.7</ele>
        <time>2026-08-09T13:42:04.296Z</time>
      </trkpt>
      <trkpt lon="-106.433069" lat="37.621044">
        <ele>2767.62</ele>
        <time>2026-08-09T13:42:06.032Z</time>
      </trkpt>
      <trkpt lon="-106.433814" lat="37.622165">
        <ele>2762.01</ele>
        <time>2026-08-09T13:42:08.388Z</time>
      </trkpt>
      <trkpt lon="-106.434688" lat="37.623179">
        <ele>2756.71</ele>
        <time>2026-08-09T13:42:10.716Z</time>
      </trkpt>
      <trkpt lon="-106.435678" lat="37.624095">
        <ele>2753.32</ele>
        <time>2026-08-09T13:42:13.048Z</time>
      </trkpt>
      <trkpt lon="-106.436767" lat="37.624930">
        <ele>2750.67</ele>
        <time>2026-08-09T13:42:15.408Z</time>
      </trkpt>
      <trkpt lon="-106.438473" lat="37.626017">
        <ele>2748.74</ele>
        <time>2026-08-09T13:42:18.884Z</time>
      </trkpt>
      <trkpt lon="-106.440826" lat="37.627266">
        <ele>2744.93</ele>
        <time>2026-08-09T13:42:23.528Z</time>
      </trkpt>
      <trkpt lon="-106.443215" lat="37.628495">
        <ele>2728.46</ele>
        <time>2026-08-09T13:42:28.148Z</time>
      </trkpt>
      <trkpt lon="-106.444360" lat="37.629229">
        <ele>2712.5</ele>
        <time>2026-08-09T13:42:30.468Z</time>
      </trkpt>
      <trkpt lon="-106.444912" lat="37.629644">
        <ele>2702.86</ele>
        <time>2026-08-09T13:42:31.636Z</time>
      </trkpt>
      <trkpt lon="-106.446048" lat="37.630459">
        <ele>2688.54</ele>
        <time>2026-08-09T13:42:33.980Z</time>
      </trkpt>
      <trkpt lon="-106.448097" lat="37.631784">
        <ele>2679.07</ele>
        <time>2026-08-09T13:42:38.044Z</time>
      </trkpt>
      <trkpt lon="-106.454868" lat="37.635904">
        <ele>2659.19</ele>
        <time>2026-08-09T13:42:51.976Z</time>
      </trkpt>
      <trkpt lon="-106.458838" lat="37.638136">
        <ele>2648.59</ele>
        <time>2026-08-09T13:43:00.140Z</time>
      </trkpt>
      <trkpt lon="-106.462431" lat="37.639762">
        <ele>2635.68</ele>
        <time>2026-08-09T13:43:07.124Z</time>
      </trkpt>
      <trkpt lon="-106.466747" lat="37.641445">
        <ele>2649.88</ele>
        <time>2026-08-09T13:43:15.872Z</time>
      </trkpt>
      <trkpt lon="-106.470849" lat="37.643056">
        <ele>2663.44</ele>
        <time>2026-08-09T13:43:25.164Z</time>
      </trkpt>
      <trkpt lon="-106.479522" lat="37.646426">
        <ele>2663.17</ele>
        <time>2026-08-09T13:43:47.800Z</time>
      </trkpt>
      <trkpt lon="-106.481540" lat="37.647097">
        <ele>2654.35</ele>
        <time>2026-08-09T13:43:53.036Z</time>
      </trkpt>
      <trkpt lon="-106.486198" lat="37.648900">
        <ele>2659.11</ele>
        <time>2026-08-09T13:44:05.832Z</time>
      </trkpt>
      <trkpt lon="-106.495265" lat="37.652996">
        <ele>2650.23</ele>
        <time>2026-08-09T13:44:36.072Z</time>
      </trkpt>
      <trkpt lon="-106.501836" lat="37.656663">
        <ele>2651.29</ele>
        <time>2026-08-09T13:44:57.560Z</time>
      </trkpt>
      <trkpt lon="-106.503703" lat="37.657937">
        <ele>2648.83</ele>
        <time>2026-08-09T13:45:03.388Z</time>
      </trkpt>
      <trkpt lon="-106.508322" lat="37.661426">
        <ele>2666.21</ele>
        <time>2026-08-09T13:45:18.512Z</time>
      </trkpt>
      <trkpt lon="-106.508629" lat="37.661736">
        <ele>2665.86</ele>
        <time>2026-08-09T13:45:19.668Z</time>
      </trkpt>
      <trkpt lon="-106.510898" lat="37.664691">
        <ele>2659.3</ele>
        <time>2026-08-09T13:45:29.564Z</time>
      </trkpt>
      <trkpt lon="-106.511889" lat="37.666414">
        <ele>2640.72</ele>
        <time>2026-08-09T13:45:34.784Z</time>
      </trkpt>
      <trkpt lon="-106.514761" lat="37.672889">
        <ele>2620.41</ele>
        <time>2026-08-09T13:45:53.392Z</time>
      </trkpt>
      <trkpt lon="-106.515399" lat="37.674532">
        <ele>2608.29</ele>
        <time>2026-08-09T13:45:58.064Z</time>
      </trkpt>
      <trkpt lon="-106.516077" lat="37.675721">
        <ele>2606.19</ele>
        <time>2026-08-09T13:46:01.568Z</time>
      </trkpt>
      <trkpt lon="-106.517714" lat="37.678171">
        <ele>2602.1</ele>
        <time>2026-08-09T13:46:09.172Z</time>
      </trkpt>
      <trkpt lon="-106.518647" lat="37.679248">
        <ele>2598.87</ele>
        <time>2026-08-09T13:46:12.648Z</time>
      </trkpt>
      <trkpt lon="-106.519542" lat="37.680069">
        <ele>2596.55</ele>
        <time>2026-08-09T13:46:15.560Z</time>
      </trkpt>
      <trkpt lon="-106.520343" lat="37.680666">
        <ele>2594.3</ele>
        <time>2026-08-09T13:46:17.916Z</time>
      </trkpt>
      <trkpt lon="-106.521441" lat="37.681317">
        <ele>2591.84</ele>
        <time>2026-08-09T13:46:20.816Z</time>
      </trkpt>
      <trkpt lon="-106.522140" lat="37.681642">
        <ele>2589.22</ele>
        <time>2026-08-09T13:46:22.552Z</time>
      </trkpt>
      <trkpt lon="-106.523380" lat="37.682088">
        <ele>2582.09</ele>
        <time>2026-08-09T13:46:25.460Z</time>
      </trkpt>
      <trkpt lon="-106.524700" lat="37.682426">
        <ele>2574.9</ele>
        <time>2026-08-09T13:46:28.364Z</time>
      </trkpt>
      <trkpt lon="-106.526069" lat="37.682659">
        <ele>2567.45</ele>
        <time>2026-08-09T13:46:31.272Z</time>
      </trkpt>
      <trkpt lon="-106.527489" lat="37.682812">
        <ele>2560.84</ele>
        <time>2026-08-09T13:46:34.188Z</time>
      </trkpt>
      <trkpt lon="-106.530508" lat="37.682910">
        <ele>2568.71</ele>
        <time>2026-08-09T13:46:40.584Z</time>
      </trkpt>
      <trkpt lon="-106.535765" lat="37.682536">
        <ele>2561.55</ele>
        <time>2026-08-09T13:46:52.832Z</time>
      </trkpt>
      <trkpt lon="-106.541471" lat="37.681704">
        <ele>2543.02</ele>
        <time>2026-08-09T13:47:07.376Z</time>
      </trkpt>
      <trkpt lon="-106.543310" lat="37.681385">
        <ele>2537.75</ele>
        <time>2026-08-09T13:47:12.624Z</time>
      </trkpt>
      <trkpt lon="-106.549510" lat="37.680628">
        <ele>2519.89</ele>
        <time>2026-08-09T13:47:32.488Z</time>
      </trkpt>
      <trkpt lon="-106.551941" lat="37.680279">
        <ele>2510.05</ele>
        <time>2026-08-09T13:47:41.944Z</time>
      </trkpt>
      <trkpt lon="-106.552612" lat="37.680167">
        <ele>2506.96</ele>
        <time>2026-08-09T13:47:45.460Z</time>
      </trkpt>
      <trkpt lon="-106.553346" lat="37.679997">
        <ele>2497.66</ele>
        <time>2026-08-09T13:47:51.368Z</time>
      </trkpt>
      <trkpt lon="-106.554612" lat="37.679724">
        <ele>2482.03</ele>
        <time>2026-08-09T13:48:03.740Z</time>
      </trkpt>
      <trkpt lon="-106.555992" lat="37.679498">
        <ele>2474.74</ele>
        <time>2026-08-09T13:48:15.532Z</time>
      </trkpt>
      <trkpt lon="-106.556770" lat="37.679330">
        <ele>2475.19</ele>
        <time>2026-08-09T13:48:24.984Z</time>
      </trkpt>
      <trkpt lon="-106.556782" lat="37.679327">
        <ele>2475.2</ele>
        <time>2026-08-09T13:48:35.004Z</time>
      </trkpt>
      <trkpt lon="-106.556791" lat="37.679324">
        <ele>2475.28</ele>
        <time>2026-08-09T13:48:49.776Z</time>
      </trkpt>
      <trkpt lon="-106.556801" lat="37.679313">
        <ele>2475.31</ele>
        <time>2026-08-09T13:48:50.928Z</time>
      </trkpt>
      <trkpt lon="-106.556805" lat="37.679304">
        <ele>2475.35</ele>
        <time>2026-08-09T13:48:51.504Z</time>
      </trkpt>
      <trkpt lon="-106.556807" lat="37.679293">
        <ele>2475.37</ele>
        <time>2026-08-09T13:48:52.076Z</time>
      </trkpt>
      <trkpt lon="-106.556806" lat="37.679281">
        <ele>2475.43</ele>
        <time>2026-08-09T13:48:52.676Z</time>
      </trkpt>
      <trkpt lon="-106.556802" lat="37.679269">
        <ele>2475.47</ele>
        <time>2026-08-09T13:48:53.248Z</time>
      </trkpt>
      <trkpt lon="-106.556797" lat="37.679259">
        <ele>2475.54</ele>
        <time>2026-08-09T13:48:53.860Z</time>
      </trkpt>
      <trkpt lon="-106.556787" lat="37.679242">
        <ele>2475.67</ele>
        <time>2026-08-09T13:48:55.008Z</time>
      </trkpt>
      <trkpt lon="-106.556774" lat="37.679226">
        <ele>2475.7</ele>
        <time>2026-08-09T13:48:56.156Z</time>
      </trkpt>
      <trkpt lon="-106.556765" lat="37.679216">
        <ele>2475.66</ele>
        <time>2026-08-09T13:48:56.720Z</time>
      </trkpt>
      <trkpt lon="-106.556709" lat="37.679171">
        <ele>2475.53</ele>
        <time>2026-08-09T13:48:58.972Z</time>
      </trkpt>
      <trkpt lon="-106.556511" lat="37.679035">
        <ele>2476.49</ele>
        <time>2026-08-09T13:49:05.752Z</time>
      </trkpt>
      <trkpt lon="-106.556345" lat="37.678947">
        <ele>2477.26</ele>
        <time>2026-08-09T13:49:12.520Z</time>
      </trkpt>
      <trkpt lon="-106.556172" lat="37.678861">
        <ele>2477.99</ele>
        <time>2026-08-09T13:49:18.180Z</time>
      </trkpt>
      <trkpt lon="-106.555904" lat="37.678755">
        <ele>2478.83</ele>
        <time>2026-08-09T13:49:24.928Z</time>
      </trkpt>
      <trkpt lon="-106.555733" lat="37.678675">
        <ele>2479.48</ele>
        <time>2026-08-09T13:49:28.336Z</time>
      </trkpt>
      <trkpt lon="-106.555132" lat="37.678430">
        <ele>2481.67</ele>
        <time>2026-08-09T13:49:38.472Z</time>
      </trkpt>
      <trkpt lon="-106.555093" lat="37.678421">
        <ele>2481.79</ele>
        <time>2026-08-09T13:49:39.036Z</time>
      </trkpt>
      <trkpt lon="-106.555051" lat="37.678415">
        <ele>2481.85</ele>
        <time>2026-08-09T13:49:39.592Z</time>
      </trkpt>
      <trkpt lon="-106.555009" lat="37.678414">
        <ele>2481.88</ele>
        <time>2026-08-09T13:49:40.152Z</time>
      </trkpt>
      <trkpt lon="-106.554964" lat="37.678420">
        <ele>2481.91</ele>
        <time>2026-08-09T13:49:40.716Z</time>
      </trkpt>
      <trkpt lon="-106.554919" lat="37.678431">
        <ele>2481.9</ele>
        <time>2026-08-09T13:49:41.280Z</time>
      </trkpt>
      <trkpt lon="-106.554827" lat="37.678462">
        <ele>2481.79</ele>
        <time>2026-08-09T13:49:42.404Z</time>
      </trkpt>
      <trkpt lon="-106.554683" lat="37.678526">
        <ele>2481.52</ele>
        <time>2026-08-09T13:49:44.084Z</time>
      </trkpt>
      <trkpt lon="-106.554528" lat="37.678610">
        <ele>2481.15</ele>
        <time>2026-08-09T13:49:45.788Z</time>
      </trkpt>
      <trkpt lon="-106.554391" lat="37.678706">
        <ele>2480.98</ele>
        <time>2026-08-09T13:49:47.448Z</time>
      </trkpt>
      <trkpt lon="-106.554284" lat="37.678797">
        <ele>2480.64</ele>
        <time>2026-08-09T13:49:49.180Z</time>
      </trkpt>
      <trkpt lon="-106.554234" lat="37.678849">
        <ele>2480.32</ele>
        <time>2026-08-09T13:49:51.452Z</time>
      </trkpt>
    </trkseg>
    <trkseg>
      <trkpt lon="-122.294505" lat="47.518932">
        <ele>59.5807</ele>
        <time>2026-08-09T15:17:57.364Z</time>
      </trkpt>
      <trkpt lon="-122.294505" lat="47.518932">
        <ele>7.48846</ele>
        <time>2024-06-15T00:00:10.755Z</time>
      </trkpt>
    </trkseg>
    <trkseg>
      <trkpt lon="-106.558032" lat="37.674795">
        <ele>2476.77</ele>
        <time>2026-08-09T15:19:12.452Z</time>
      </trkpt>
      <trkpt lon="-106.558017" lat="37.674786">
        <ele>2476.7</ele>
        <time>2026-08-09T17:18:26.428Z</time>
      </trkpt>
      <trkpt lon="-106.558007" lat="37.674787">
        <ele>2476.69</ele>
        <time>2026-08-09T17:18:27.028Z</time>
      </trkpt>
      <trkpt lon="-106.557997" lat="37.674791">
        <ele>2476.68</ele>
        <time>2026-08-09T17:18:27.628Z</time>
      </trkpt>
      <trkpt lon="-106.557983" lat="37.674810">
        <ele>2476.66</ele>
        <time>2026-08-09T17:18:28.824Z</time>
      </trkpt>
      <trkpt lon="-106.557977" lat="37.674831">
        <ele>2476.65</ele>
        <time>2026-08-09T17:18:29.988Z</time>
      </trkpt>
      <trkpt lon="-106.557976" lat="37.674841">
        <ele>2476.64</ele>
        <time>2026-08-09T17:18:30.572Z</time>
      </trkpt>
      <trkpt lon="-106.557979" lat="37.674860">
        <ele>2476.64</ele>
        <time>2026-08-09T17:18:31.748Z</time>
      </trkpt>
      <trkpt lon="-106.557985" lat="37.674896">
        <ele>2476.62</ele>
        <time>2026-08-09T17:18:34.084Z</time>
      </trkpt>
      <trkpt lon="-106.557980" lat="37.674912">
        <ele>2476.62</ele>
        <time>2026-08-09T17:18:35.264Z</time>
      </trkpt>
      <trkpt lon="-106.557966" lat="37.674934">
        <ele>2476.61</ele>
        <time>2026-08-09T17:18:37.020Z</time>
      </trkpt>
      <trkpt lon="-106.557954" lat="37.674947">
        <ele>2476.61</ele>
        <time>2026-08-09T17:18:38.216Z</time>
      </trkpt>
      <trkpt lon="-106.557941" lat="37.674957">
        <ele>2476.61</ele>
        <time>2026-08-09T17:18:39.380Z</time>
      </trkpt>
      <trkpt lon="-106.557929" lat="37.674966">
        <ele>2476.63</ele>
        <time>2026-08-09T17:18:40.548Z</time>
      </trkpt>
      <trkpt lon="-106.557905" lat="37.674979">
        <ele>2476.66</ele>
        <time>2026-08-09T17:18:42.896Z</time>
      </trkpt>
      <trkpt lon="-106.557649" lat="37.675107">
        <ele>2476.76</ele>
        <time>2026-08-09T17:18:53.464Z</time>
      </trkpt>
      <trkpt lon="-106.557310" lat="37.675303">
        <ele>2476.77</ele>
        <time>2026-08-09T17:18:59.356Z</time>
      </trkpt>
      <trkpt lon="-106.557134" lat="37.675426">
        <ele>2476.85</ele>
        <time>2026-08-09T17:19:01.696Z</time>
      </trkpt>
      <trkpt lon="-106.556503" lat="37.675915">
        <ele>2476.98</ele>
        <time>2026-08-09T17:19:08.160Z</time>
      </trkpt>
      <trkpt lon="-106.552423" lat="37.678805">
        <ele>2490.36</ele>
        <time>2026-08-09T17:19:37.304Z</time>
      </trkpt>
      <trkpt lon="-106.551923" lat="37.679399">
        <ele>2491.03</ele>
        <time>2026-08-09T17:19:41.928Z</time>
      </trkpt>
      <trkpt lon="-106.551441" lat="37.679692">
        <ele>2492.4</ele>
        <time>2026-08-09T17:19:45.400Z</time>
      </trkpt>
      <trkpt lon="-106.550532" lat="37.680161">
        <ele>2501.03</ele>
        <time>2026-08-09T17:19:52.912Z</time>
      </trkpt>
      <trkpt lon="-106.550418" lat="37.680245">
        <ele>2500.85</ele>
        <time>2026-08-09T17:19:54.064Z</time>
      </trkpt>
      <trkpt lon="-106.550305" lat="37.680344">
        <ele>2500.11</ele>
        <time>2026-08-09T17:19:55.220Z</time>
      </trkpt>
      <trkpt lon="-106.548079" lat="37.682197">
        <ele>2509.65</ele>
        <time>2026-08-09T17:20:13.244Z</time>
      </trkpt>
      <trkpt lon="-106.546743" lat="37.683087">
        <ele>2503.85</ele>
        <time>2026-08-09T17:20:23.692Z</time>
      </trkpt>
      <trkpt lon="-106.545970" lat="37.683546">
        <ele>2491.24</ele>
        <time>2026-08-09T17:20:30.068Z</time>
      </trkpt>
      <trkpt lon="-106.544000" lat="37.684669">
        <ele>2492.61</ele>
        <time>2026-08-09T17:20:41.644Z</time>
      </trkpt>
      <trkpt lon="-106.542564" lat="37.685362">
        <ele>2495.67</ele>
        <time>2026-08-09T17:20:48.584Z</time>
      </trkpt>
      <trkpt lon="-106.541293" lat="37.685843">
        <ele>2503.62</ele>
        <time>2026-08-09T17:20:54.368Z</time>
      </trkpt>
      <trkpt lon="-106.539395" lat="37.686486">
        <ele>2513.16</ele>
        <time>2026-08-09T17:21:03.060Z</time>
      </trkpt>
      <trkpt lon="-106.538999" lat="37.686618">
        <ele>2514.5</ele>
        <time>2026-08-09T17:21:04.788Z</time>
      </trkpt>
      <trkpt lon="-106.538463" lat="37.686739">
        <ele>2517.56</ele>
        <time>2026-08-09T17:21:07.124Z</time>
      </trkpt>
      <trkpt lon="-106.538326" lat="37.686754">
        <ele>2518.55</ele>
        <time>2026-08-09T17:21:07.728Z</time>
      </trkpt>
      <trkpt lon="-106.536535" lat="37.686707">
        <ele>2529.25</ele>
        <time>2026-08-09T17:21:15.836Z</time>
      </trkpt>
      <trkpt lon="-106.534280" lat="37.686446">
        <ele>2538.57</ele>
        <time>2026-08-09T17:21:26.260Z</time>
      </trkpt>
      <trkpt lon="-106.531601" lat="37.686218">
        <ele>2536.18</ele>
        <time>2026-08-09T17:21:36.688Z</time>
      </trkpt>
      <trkpt lon="-106.530011" lat="37.686319">
        <ele>2541.14</ele>
        <time>2026-08-09T17:21:42.468Z</time>
      </trkpt>
      <trkpt lon="-106.529430" lat="37.686412">
        <ele>2546.57</ele>
        <time>2026-08-09T17:21:44.776Z</time>
      </trkpt>
      <trkpt lon="-106.529016" lat="37.686498">
        <ele>2550.4</ele>
        <time>2026-08-09T17:21:46.512Z</time>
      </trkpt>
      <trkpt lon="-106.527391" lat="37.686894">
        <ele>2558.96</ele>
        <time>2026-08-09T17:21:53.444Z</time>
      </trkpt>
      <trkpt lon="-106.526224" lat="37.687194">
        <ele>2562.51</ele>
        <time>2026-08-09T17:21:58.092Z</time>
      </trkpt>
      <trkpt lon="-106.522403" lat="37.688154">
        <ele>2583.26</ele>
        <time>2026-08-09T17:22:11.968Z</time>
      </trkpt>
      <trkpt lon="-106.520420" lat="37.688671">
        <ele>2584.71</ele>
        <time>2026-08-09T17:22:18.328Z</time>
      </trkpt>
      <trkpt lon="-106.519859" lat="37.688804">
        <ele>2586.56</ele>
        <time>2026-08-09T17:22:20.068Z</time>
      </trkpt>
      <trkpt lon="-106.518918" lat="37.689001">
        <ele>2590.82</ele>
        <time>2026-08-09T17:22:22.952Z</time>
      </trkpt>
      <trkpt lon="-106.516611" lat="37.689499">
        <ele>2598.35</ele>
        <time>2026-08-09T17:22:29.888Z</time>
      </trkpt>
      <trkpt lon="-106.512295" lat="37.690564">
        <ele>2621.59</ele>
        <time>2026-08-09T17:22:42.600Z</time>
      </trkpt>
      <trkpt lon="-106.507121" lat="37.692096">
        <ele>2646.32</ele>
        <time>2026-08-09T17:22:57.644Z</time>
      </trkpt>
      <trkpt lon="-106.505381" lat="37.692541">
        <ele>2672.28</ele>
        <time>2026-08-09T17:23:03.424Z</time>
      </trkpt>
      <trkpt lon="-106.504699" lat="37.692723">
        <ele>2689.24</ele>
        <time>2026-08-09T17:23:06.320Z</time>
      </trkpt>
      <trkpt lon="-106.504357" lat="37.692820">
        <ele>2698.22</ele>
        <time>2026-08-09T17:23:08.064Z</time>
      </trkpt>
      <trkpt lon="-106.504044" lat="37.692921">
        <ele>2704.72</ele>
        <time>2026-08-09T17:23:09.792Z</time>
      </trkpt>
      <trkpt lon="-106.503731" lat="37.693054">
        <ele>2707.23</ele>
        <time>2026-08-09T17:23:11.524Z</time>
      </trkpt>
      <trkpt lon="-106.502924" lat="37.693548">
        <ele>2703.7</ele>
        <time>2026-08-09T17:23:15.576Z</time>
      </trkpt>
      <trkpt lon="-106.502264" lat="37.694008">
        <ele>2700.17</ele>
        <time>2026-08-09T17:23:18.460Z</time>
      </trkpt>
      <trkpt lon="-106.500792" lat="37.694943">
        <ele>2691.32</ele>
        <time>2026-08-09T17:23:23.684Z</time>
      </trkpt>
      <trkpt lon="-106.494956" lat="37.697926">
        <ele>2715.22</ele>
        <time>2026-08-09T17:23:42.176Z</time>
      </trkpt>
      <trkpt lon="-106.492463" lat="37.698918">
        <ele>2719.64</ele>
        <time>2026-08-09T17:23:49.108Z</time>
      </trkpt>
      <trkpt lon="-106.490352" lat="37.699632">
        <ele>2713.51</ele>
        <time>2026-08-09T17:23:54.312Z</time>
      </trkpt>
      <trkpt lon="-106.477539" lat="37.703068">
        <ele>2742.81</ele>
        <time>2026-08-09T17:24:22.092Z</time>
      </trkpt>
      <trkpt lon="-106.476403" lat="37.703423">
        <ele>2767.13</ele>
        <time>2026-08-09T17:24:24.984Z</time>
      </trkpt>
      <trkpt lon="-106.473238" lat="37.704425">
        <ele>2763.31</ele>
        <time>2026-08-09T17:24:33.072Z</time>
      </trkpt>
      <trkpt lon="-106.470577" lat="37.705175">
        <ele>2745.25</ele>
        <time>2026-08-09T17:24:38.856Z</time>
      </trkpt>
      <trkpt lon="-106.467894" lat="37.705852">
        <ele>2718.59</ele>
        <time>2026-08-09T17:24:44.060Z</time>
      </trkpt>
      <trkpt lon="-106.461206" lat="37.707694">
        <ele>2709.65</ele>
        <time>2026-08-09T17:24:56.212Z</time>
      </trkpt>
      <trkpt lon="-106.453762" lat="37.710222">
        <ele>2706.8</ele>
        <time>2026-08-09T17:25:10.660Z</time>
      </trkpt>
      <trkpt lon="-106.452200" lat="37.710761">
        <ele>2700.85</ele>
        <time>2026-08-09T17:25:13.560Z</time>
      </trkpt>
      <trkpt lon="-106.448493" lat="37.712039">
        <ele>2703.7</ele>
        <time>2026-08-09T17:25:20.516Z</time>
      </trkpt>
      <trkpt lon="-106.440146" lat="37.714724">
        <ele>2695.53</ele>
        <time>2026-08-09T17:25:36.116Z</time>
      </trkpt>
      <trkpt lon="-106.437412" lat="37.716133">
        <ele>2691.2</ele>
        <time>2026-08-09T17:25:41.900Z</time>
      </trkpt>
      <trkpt lon="-106.431659" lat="37.719670">
        <ele>2666.82</ele>
        <time>2026-08-09T17:25:54.660Z</time>
      </trkpt>
      <trkpt lon="-106.424112" lat="37.724978">
        <ele>2651.83</ele>
        <time>2026-08-09T17:26:12.612Z</time>
      </trkpt>
      <trkpt lon="-106.418601" lat="37.729280">
        <ele>2665.62</ele>
        <time>2026-08-09T17:26:27.076Z</time>
      </trkpt>
      <trkpt lon="-106.415447" lat="37.731747">
        <ele>2645.18</ele>
        <time>2026-08-09T17:26:35.788Z</time>
      </trkpt>
      <trkpt lon="-106.412770" lat="37.733671">
        <ele>2629.24</ele>
        <time>2026-08-09T17:26:42.144Z</time>
      </trkpt>
      <trkpt lon="-106.410312" lat="37.735192">
        <ele>2649.23</ele>
        <time>2026-08-09T17:26:47.920Z</time>
      </trkpt>
      <trkpt lon="-106.405933" lat="37.738072">
        <ele>2670.81</ele>
        <time>2026-08-09T17:26:59.480Z</time>
      </trkpt>
      <trkpt lon="-106.401871" lat="37.740761">
        <ele>2680.57</ele>
        <time>2026-08-09T17:27:10.456Z</time>
      </trkpt>
      <trkpt lon="-106.397048" lat="37.743442">
        <ele>2665.32</ele>
        <time>2026-08-09T17:27:22.032Z</time>
      </trkpt>
      <trkpt lon="-106.395365" lat="37.744188">
        <ele>2657.15</ele>
        <time>2026-08-09T17:27:25.500Z</time>
      </trkpt>
      <trkpt lon="-106.390296" lat="37.746385">
        <ele>2677.29</ele>
        <time>2026-08-09T17:27:35.904Z</time>
      </trkpt>
      <trkpt lon="-106.387577" lat="37.747875">
        <ele>2677.77</ele>
        <time>2026-08-09T17:27:42.256Z</time>
      </trkpt>
      <trkpt lon="-106.385627" lat="37.749080">
        <ele>2657.34</ele>
        <time>2026-08-09T17:27:46.880Z</time>
      </trkpt>
      <trkpt lon="-106.381674" lat="37.751782">
        <ele>2674.79</ele>
        <time>2026-08-09T17:27:56.728Z</time>
      </trkpt>
      <trkpt lon="-106.373784" lat="37.757194">
        <ele>2675.1</ele>
        <time>2026-08-09T17:28:17.552Z</time>
      </trkpt>
      <trkpt lon="-106.371976" lat="37.758443">
        <ele>2673.82</ele>
        <time>2026-08-09T17:28:22.200Z</time>
      </trkpt>
      <trkpt lon="-106.369526" lat="37.760256">
        <ele>2671.07</ele>
        <time>2026-08-09T17:28:28.576Z</time>
      </trkpt>
      <trkpt lon="-106.369090" lat="37.760592">
        <ele>2671.13</ele>
        <time>2026-08-09T17:28:29.732Z</time>
      </trkpt>
      <trkpt lon="-106.358488" lat="37.770722">
        <ele>2657.84</ele>
        <time>2026-08-09T17:28:59.888Z</time>
      </trkpt>
      <trkpt lon="-106.354488" lat="37.774803">
        <ele>2662.35</ele>
        <time>2026-08-09T17:29:12.084Z</time>
      </trkpt>
      <trkpt lon="-106.350560" lat="37.779059">
        <ele>2655.78</ele>
        <time>2026-08-09T17:29:24.816Z</time>
      </trkpt>
      <trkpt lon="-106.343439" lat="37.786361">
        <ele>2636.47</ele>
        <time>2026-08-09T17:29:46.256Z</time>
      </trkpt>
      <trkpt lon="-106.342513" lat="37.787124">
        <ele>2633.74</ele>
        <time>2026-08-09T17:29:48.580Z</time>
      </trkpt>
      <trkpt lon="-106.340744" lat="37.788276">
        <ele>2637.86</ele>
        <time>2026-08-09T17:29:52.624Z</time>
      </trkpt>
      <trkpt lon="-106.327080" lat="37.795999">
        <ele>2637.8</ele>
        <time>2026-08-09T17:30:22.704Z</time>
      </trkpt>
      <trkpt lon="-106.319720" lat="37.801328">
        <ele>2625.7</ele>
        <time>2026-08-09T17:30:40.084Z</time>
      </trkpt>
      <trkpt lon="-106.313683" lat="37.806335">
        <ele>2604.74</ele>
        <time>2026-08-09T17:30:55.116Z</time>
      </trkpt>
      <trkpt lon="-106.311688" lat="37.808202">
        <ele>2605.09</ele>
        <time>2026-08-09T17:31:00.316Z</time>
      </trkpt>
      <trkpt lon="-106.308217" lat="37.811628">
        <ele>2581.65</ele>
        <time>2026-08-09T17:31:09.580Z</time>
      </trkpt>
      <trkpt lon="-106.304291" lat="37.815834">
        <ele>2570.13</ele>
        <time>2026-08-09T17:31:20.580Z</time>
      </trkpt>
      <trkpt lon="-106.302007" lat="37.818531">
        <ele>2550.2</ele>
        <time>2026-08-09T17:31:27.512Z</time>
      </trkpt>
      <trkpt lon="-106.298637" lat="37.822027">
        <ele>2530.55</ele>
        <time>2026-08-09T17:31:36.800Z</time>
      </trkpt>
      <trkpt lon="-106.289701" lat="37.831804">
        <ele>2510.42</ele>
        <time>2026-08-09T17:32:02.860Z</time>
      </trkpt>
      <trkpt lon="-106.286200" lat="37.835721">
        <ele>2523.13</ele>
        <time>2026-08-09T17:32:13.844Z</time>
      </trkpt>
      <trkpt lon="-106.282717" lat="37.840662">
        <ele>2531.68</ele>
        <time>2026-08-09T17:32:27.152Z</time>
      </trkpt>
      <trkpt lon="-106.280645" lat="37.843448">
        <ele>2532.32</ele>
        <time>2026-08-09T17:32:34.664Z</time>
      </trkpt>
      <trkpt lon="-106.278050" lat="37.846180">
        <ele>2552.66</ele>
        <time>2026-08-09T17:32:42.800Z</time>
      </trkpt>
      <trkpt lon="-106.269266" lat="37.856153">
        <ele>2555.08</ele>
        <time>2026-08-09T17:33:12.852Z</time>
      </trkpt>
      <trkpt lon="-106.268792" lat="37.856755">
        <ele>2554.05</ele>
        <time>2026-08-09T17:33:14.584Z</time>
      </trkpt>
      <trkpt lon="-106.267452" lat="37.858345">
        <ele>2555.98</ele>
        <time>2026-08-09T17:33:19.208Z</time>
      </trkpt>
      <trkpt lon="-106.265251" lat="37.860683">
        <ele>2535.62</ele>
        <time>2026-08-09T17:33:26.168Z</time>
      </trkpt>
      <trkpt lon="-106.262980" lat="37.863140">
        <ele>2540.84</ele>
        <time>2026-08-09T17:33:33.120Z</time>
      </trkpt>
      <trkpt lon="-106.256071" lat="37.871016">
        <ele>2563.34</ele>
        <time>2026-08-09T17:33:56.240Z</time>
      </trkpt>
      <trkpt lon="-106.252982" lat="37.874402">
        <ele>2586.54</ele>
        <time>2026-08-09T17:34:06.692Z</time>
      </trkpt>
      <trkpt lon="-106.247201" lat="37.881001">
        <ele>2611.07</ele>
        <time>2026-08-09T17:34:26.916Z</time>
      </trkpt>
      <trkpt lon="-106.241817" lat="37.886930">
        <ele>2639.45</ele>
        <time>2026-08-09T17:34:45.412Z</time>
      </trkpt>
      <trkpt lon="-106.240480" lat="37.888335">
        <ele>2667.86</ele>
        <time>2026-08-09T17:34:50.604Z</time>
      </trkpt>
      <trkpt lon="-106.236572" lat="37.892809">
        <ele>2696.86</ele>
        <time>2026-08-09T17:35:06.212Z</time>
      </trkpt>
      <trkpt lon="-106.232503" lat="37.897108">
        <ele>2728.78</ele>
        <time>2026-08-09T17:35:20.656Z</time>
      </trkpt>
      <trkpt lon="-106.229897" lat="37.899728">
        <ele>2764.11</ele>
        <time>2026-08-09T17:35:29.900Z</time>
      </trkpt>
      <trkpt lon="-106.228659" lat="37.900907">
        <ele>2790.35</ele>
        <time>2026-08-09T17:35:34.548Z</time>
      </trkpt>
      <trkpt lon="-106.227240" lat="37.902339">
        <ele>2787.64</ele>
        <time>2026-08-09T17:35:39.772Z</time>
      </trkpt>
      <trkpt lon="-106.226550" lat="37.903059">
        <ele>2779.88</ele>
        <time>2026-08-09T17:35:42.080Z</time>
      </trkpt>
      <trkpt lon="-106.225021" lat="37.904517">
        <ele>2781.09</ele>
        <time>2026-08-09T17:35:46.728Z</time>
      </trkpt>
      <trkpt lon="-106.220151" lat="37.908681">
        <ele>2776.49</ele>
        <time>2026-08-09T17:36:00.632Z</time>
      </trkpt>
      <trkpt lon="-106.212827" lat="37.914504">
        <ele>2759.39</ele>
        <time>2026-08-09T17:36:18.576Z</time>
      </trkpt>
      <trkpt lon="-106.204718" lat="37.921783">
        <ele>2748.45</ele>
        <time>2026-08-09T17:36:39.416Z</time>
      </trkpt>
      <trkpt lon="-106.196107" lat="37.930806">
        <ele>2732.18</ele>
        <time>2026-08-09T17:37:03.772Z</time>
      </trkpt>
      <trkpt lon="-106.184727" lat="37.941432">
        <ele>2739.07</ele>
        <time>2026-08-09T17:37:34.012Z</time>
      </trkpt>
      <trkpt lon="-106.180961" lat="37.945364">
        <ele>2733.09</ele>
        <time>2026-08-09T17:37:44.992Z</time>
      </trkpt>
      <trkpt lon="-106.175975" lat="37.951113">
        <ele>2729.95</ele>
        <time>2026-08-09T17:38:00.040Z</time>
      </trkpt>
      <trkpt lon="-106.173006" lat="37.954690">
        <ele>2709.73</ele>
        <time>2026-08-09T17:38:09.304Z</time>
      </trkpt>
      <trkpt lon="-106.165668" lat="37.962355">
        <ele>2693.21</ele>
        <time>2026-08-09T17:38:30.156Z</time>
      </trkpt>
      <trkpt lon="-106.161421" lat="37.966430">
        <ele>2709.96</ele>
        <time>2026-08-09T17:38:41.760Z</time>
      </trkpt>
      <trkpt lon="-106.158728" lat="37.969216">
        <ele>2679.79</ele>
        <time>2026-08-09T17:38:49.332Z</time>
      </trkpt>
      <trkpt lon="-106.148909" lat="37.977854">
        <ele>2660.08</ele>
        <time>2026-08-09T17:39:14.248Z</time>
      </trkpt>
      <trkpt lon="-106.140301" lat="37.983995">
        <ele>2655.53</ele>
        <time>2026-08-09T17:39:33.952Z</time>
      </trkpt>
      <trkpt lon="-106.133490" lat="37.988519">
        <ele>2667.31</ele>
        <time>2026-08-09T17:39:48.980Z</time>
      </trkpt>
      <trkpt lon="-106.124442" lat="37.995604">
        <ele>2652.38</ele>
        <time>2026-08-09T17:40:10.376Z</time>
      </trkpt>
      <trkpt lon="-106.123027" lat="37.996406">
        <ele>2648</ele>
        <time>2026-08-09T17:40:13.284Z</time>
      </trkpt>
      <trkpt lon="-106.121815" lat="37.996969">
        <ele>2642.47</ele>
        <time>2026-08-09T17:40:15.600Z</time>
      </trkpt>
      <trkpt lon="-106.120852" lat="37.997327">
        <ele>2637.54</ele>
        <time>2026-08-09T17:40:17.332Z</time>
      </trkpt>
      <trkpt lon="-106.118917" lat="37.997999">
        <ele>2636.88</ele>
        <time>2026-08-09T17:40:20.800Z</time>
      </trkpt>
      <trkpt lon="-106.116901" lat="37.998909">
        <ele>2648.15</ele>
        <time>2026-08-09T17:40:24.844Z</time>
      </trkpt>
      <trkpt lon="-106.115806" lat="37.999499">
        <ele>2648.97</ele>
        <time>2026-08-09T17:40:27.180Z</time>
      </trkpt>
      <trkpt lon="-106.110757" lat="38.002471">
        <ele>2619.88</ele>
        <time>2026-08-09T17:40:37.628Z</time>
      </trkpt>
      <trkpt lon="-106.107677" lat="38.004245">
        <ele>2630.85</ele>
        <time>2026-08-09T17:40:43.984Z</time>
      </trkpt>
      <trkpt lon="-106.106632" lat="38.004911">
        <ele>2634.78</ele>
        <time>2026-08-09T17:40:46.292Z</time>
      </trkpt>
      <trkpt lon="-106.105650" lat="38.005591">
        <ele>2639.23</ele>
        <time>2026-08-09T17:40:48.600Z</time>
      </trkpt>
      <trkpt lon="-106.105174" lat="38.005939">
        <ele>2640.81</ele>
        <time>2026-08-09T17:40:49.756Z</time>
      </trkpt>
      <trkpt lon="-106.103200" lat="38.007570">
        <ele>2651.49</ele>
        <time>2026-08-09T17:40:54.960Z</time>
      </trkpt>
      <trkpt lon="-106.100243" lat="38.010383">
        <ele>2664.32</ele>
        <time>2026-08-09T17:41:03.628Z</time>
      </trkpt>
      <trkpt lon="-106.098686" lat="38.011961">
        <ele>2654.65</ele>
        <time>2026-08-09T17:41:08.252Z</time>
      </trkpt>
      <trkpt lon="-106.091960" lat="38.018150">
        <ele>2624.84</ele>
        <time>2026-08-09T17:41:26.272Z</time>
      </trkpt>
      <trkpt lon="-106.084197" lat="38.025825">
        <ele>2597.71</ele>
        <time>2026-08-09T17:41:46.504Z</time>
      </trkpt>
      <trkpt lon="-106.076785" lat="38.035484">
        <ele>2570.69</ele>
        <time>2026-08-09T17:42:09.648Z</time>
      </trkpt>
      <trkpt lon="-106.069742" lat="38.044641">
        <ele>2544.81</ele>
        <time>2026-08-09T17:42:31.604Z</time>
      </trkpt>
      <trkpt lon="-106.068965" lat="38.045580">
        <ele>2537.05</ele>
        <time>2026-08-09T17:42:33.916Z</time>
      </trkpt>
      <trkpt lon="-106.066235" lat="38.048649">
        <ele>2512.44</ele>
        <time>2026-08-09T17:42:41.452Z</time>
      </trkpt>
      <trkpt lon="-106.064448" lat="38.050611">
        <ele>2487.94</ele>
        <time>2026-08-09T17:42:46.120Z</time>
      </trkpt>
      <trkpt lon="-106.058434" lat="38.056937">
        <ele>2464.27</ele>
        <time>2026-08-09T17:43:01.168Z</time>
      </trkpt>
      <trkpt lon="-106.056597" lat="38.058876">
        <ele>2443.01</ele>
        <time>2026-08-09T17:43:05.788Z</time>
      </trkpt>
      <trkpt lon="-106.056120" lat="38.059357">
        <ele>2439.66</ele>
        <time>2026-08-09T17:43:06.944Z</time>
      </trkpt>
      <trkpt lon="-106.055193" lat="38.060278">
        <ele>2445.02</ele>
        <time>2026-08-09T17:43:09.256Z</time>
      </trkpt>
      <trkpt lon="-106.054544" lat="38.060926">
        <ele>2456.75</ele>
        <time>2026-08-09T17:43:10.996Z</time>
      </trkpt>
      <trkpt lon="-106.053769" lat="38.061722">
        <ele>2480.01</ele>
        <time>2026-08-09T17:43:13.304Z</time>
      </trkpt>
      <trkpt lon="-106.053257" lat="38.062282">
        <ele>2497.43</ele>
        <time>2026-08-09T17:43:15.040Z</time>
      </trkpt>
      <trkpt lon="-106.052941" lat="38.062645">
        <ele>2507.12</ele>
        <time>2026-08-09T17:43:16.196Z</time>
      </trkpt>
      <trkpt lon="-106.052342" lat="38.063368">
        <ele>2519.83</ele>
        <time>2026-08-09T17:43:18.508Z</time>
      </trkpt>
      <trkpt lon="-106.051915" lat="38.063915">
        <ele>2526.92</ele>
        <time>2026-08-09T17:43:20.244Z</time>
      </trkpt>
      <trkpt lon="-106.051634" lat="38.064282">
        <ele>2531.48</ele>
        <time>2026-08-09T17:43:21.400Z</time>
      </trkpt>
      <trkpt lon="-106.051078" lat="38.065008">
        <ele>2536.38</ele>
        <time>2026-08-09T17:43:23.716Z</time>
      </trkpt>
      <trkpt lon="-106.050948" lat="38.065194">
        <ele>2536.28</ele>
        <time>2026-08-09T17:43:24.296Z</time>
      </trkpt>
      <trkpt lon="-106.050032" lat="38.066608">
        <ele>2516.43</ele>
        <time>2026-08-09T17:43:28.340Z</time>
      </trkpt>
      <trkpt lon="-106.049880" lat="38.066817">
        <ele>2513.44</ele>
        <time>2026-08-09T17:43:28.916Z</time>
      </trkpt>
      <trkpt lon="-106.049562" lat="38.067233">
        <ele>2509.6</ele>
        <time>2026-08-09T17:43:30.072Z</time>
      </trkpt>
      <trkpt lon="-106.049234" lat="38.067642">
        <ele>2508.73</ele>
        <time>2026-08-09T17:43:31.232Z</time>
      </trkpt>
      <trkpt lon="-106.048902" lat="38.068047">
        <ele>2509.37</ele>
        <time>2026-08-09T17:43:32.388Z</time>
      </trkpt>
      <trkpt lon="-106.046423" lat="38.071374">
        <ele>2501.09</ele>
        <time>2026-08-09T17:43:41.628Z</time>
      </trkpt>
      <trkpt lon="-106.045996" lat="38.072044">
        <ele>2498.62</ele>
        <time>2026-08-09T17:43:43.364Z</time>
      </trkpt>
      <trkpt lon="-106.045479" lat="38.072946">
        <ele>2499.49</ele>
        <time>2026-08-09T17:43:45.676Z</time>
      </trkpt>
      <trkpt lon="-106.044322" lat="38.075180">
        <ele>2500.43</ele>
        <time>2026-08-09T17:43:51.456Z</time>
      </trkpt>
      <trkpt lon="-106.043277" lat="38.077524">
        <ele>2490.14</ele>
        <time>2026-08-09T17:43:57.236Z</time>
      </trkpt>
      <trkpt lon="-106.041333" lat="38.080948">
        <ele>2503.8</ele>
        <time>2026-08-09T17:44:05.904Z</time>
      </trkpt>
      <trkpt lon="-106.040982" lat="38.081613">
        <ele>2507.13</ele>
        <time>2026-08-09T17:44:07.648Z</time>
      </trkpt>
      <trkpt lon="-106.040530" lat="38.082499">
        <ele>2509.22</ele>
        <time>2026-08-09T17:44:09.964Z</time>
      </trkpt>
      <trkpt lon="-106.039946" lat="38.083628">
        <ele>2504.51</ele>
        <time>2026-08-09T17:44:12.856Z</time>
      </trkpt>
      <trkpt lon="-106.037969" lat="38.087413">
        <ele>2525.53</ele>
        <time>2026-08-09T17:44:22.684Z</time>
      </trkpt>
      <trkpt lon="-106.035034" lat="38.093053">
        <ele>2518.21</ele>
        <time>2026-08-09T17:44:38.272Z</time>
      </trkpt>
      <trkpt lon="-106.032260" lat="38.096940">
        <ele>2508.76</ele>
        <time>2026-08-09T17:44:49.252Z</time>
      </trkpt>
      <trkpt lon="-106.029824" lat="38.099831">
        <ele>2521.83</ele>
        <time>2026-08-09T17:44:57.924Z</time>
      </trkpt>
      <trkpt lon="-106.029432" lat="38.100414">
        <ele>2522.39</ele>
        <time>2026-08-09T17:44:59.660Z</time>
      </trkpt>
      <trkpt lon="-106.028208" lat="38.102559">
        <ele>2498.73</ele>
        <time>2026-08-09T17:45:05.436Z</time>
      </trkpt>
      <trkpt lon="-106.027782" lat="38.103244">
        <ele>2488.95</ele>
        <time>2026-08-09T17:45:07.168Z</time>
      </trkpt>
      <trkpt lon="-106.025872" lat="38.105831">
        <ele>2498.34</ele>
        <time>2026-08-09T17:45:14.100Z</time>
      </trkpt>
      <trkpt lon="-106.024733" lat="38.107344">
        <ele>2522.12</ele>
        <time>2026-08-09T17:45:18.732Z</time>
      </trkpt>
      <trkpt lon="-106.022808" lat="38.109868">
        <ele>2513.78</ele>
        <time>2026-08-09T17:45:26.248Z</time>
      </trkpt>
      <trkpt lon="-106.019315" lat="38.114642">
        <ele>2533.35</ele>
        <time>2026-08-09T17:45:39.532Z</time>
      </trkpt>
      <trkpt lon="-106.017308" lat="38.117885">
        <ele>2527.01</ele>
        <time>2026-08-09T17:45:48.252Z</time>
      </trkpt>
      <trkpt lon="-106.015155" lat="38.120701">
        <ele>2546.75</ele>
        <time>2026-08-09T17:45:55.964Z</time>
      </trkpt>
      <trkpt lon="-106.013774" lat="38.122388">
        <ele>2571.54</ele>
        <time>2026-08-09T17:46:01.164Z</time>
      </trkpt>
      <trkpt lon="-106.008212" lat="38.129436">
        <ele>2590.02</ele>
        <time>2026-08-09T17:46:23.192Z</time>
      </trkpt>
      <trkpt lon="-106.001453" lat="38.139070">
        <ele>2611.35</ele>
        <time>2026-08-09T17:46:53.284Z</time>
      </trkpt>
      <trkpt lon="-105.998836" lat="38.142721">
        <ele>2633.37</ele>
        <time>2026-08-09T17:47:04.844Z</time>
      </trkpt>
      <trkpt lon="-105.997242" lat="38.145289">
        <ele>2629.02</ele>
        <time>2026-08-09T17:47:12.360Z</time>
      </trkpt>
      <trkpt lon="-105.995684" lat="38.147576">
        <ele>2642.97</ele>
        <time>2026-08-09T17:47:19.292Z</time>
      </trkpt>
      <trkpt lon="-105.994553" lat="38.149288">
        <ele>2640.21</ele>
        <time>2026-08-09T17:47:24.492Z</time>
      </trkpt>
      <trkpt lon="-105.994154" lat="38.149911">
        <ele>2635.51</ele>
        <time>2026-08-09T17:47:26.228Z</time>
      </trkpt>
      <trkpt lon="-105.993876" lat="38.150329">
        <ele>2633.71</ele>
        <time>2026-08-09T17:47:27.392Z</time>
      </trkpt>
      <trkpt lon="-105.993436" lat="38.150955">
        <ele>2634.02</ele>
        <time>2026-08-09T17:47:29.116Z</time>
      </trkpt>
      <trkpt lon="-105.992835" lat="38.151777">
        <ele>2638.24</ele>
        <time>2026-08-09T17:47:31.420Z</time>
      </trkpt>
      <trkpt lon="-105.992105" lat="38.152829">
        <ele>2642.12</ele>
        <time>2026-08-09T17:47:34.332Z</time>
      </trkpt>
      <trkpt lon="-105.990777" lat="38.154761">
        <ele>2638.12</ele>
        <time>2026-08-09T17:47:39.576Z</time>
      </trkpt>
      <trkpt lon="-105.985514" lat="38.161476">
        <ele>2655.1</ele>
        <time>2026-08-09T17:47:58.672Z</time>
      </trkpt>
      <trkpt lon="-105.981336" lat="38.168050">
        <ele>2677.83</ele>
        <time>2026-08-09T17:48:17.208Z</time>
      </trkpt>
      <trkpt lon="-105.979695" lat="38.171130">
        <ele>2687.66</ele>
        <time>2026-08-09T17:48:25.908Z</time>
      </trkpt>
      <trkpt lon="-105.975639" lat="38.183183">
        <ele>2684.47</ele>
        <time>2026-08-09T17:48:56.020Z</time>
      </trkpt>
      <trkpt lon="-105.975428" lat="38.184126">
        <ele>2686.98</ele>
        <time>2026-08-09T17:48:58.356Z</time>
      </trkpt>
      <trkpt lon="-105.975111" lat="38.187126">
        <ele>2668.95</ele>
        <time>2026-08-09T17:49:05.344Z</time>
      </trkpt>
      <trkpt lon="-105.974906" lat="38.190107">
        <ele>2650.2</ele>
        <time>2026-08-09T17:49:11.740Z</time>
      </trkpt>
      <trkpt lon="-105.974616" lat="38.195820">
        <ele>2640.62</ele>
        <time>2026-08-09T17:49:23.892Z</time>
      </trkpt>
      <trkpt lon="-105.974407" lat="38.200837">
        <ele>2629.12</ele>
        <time>2026-08-09T17:49:34.872Z</time>
      </trkpt>
      <trkpt lon="-105.973987" lat="38.204863">
        <ele>2624.86</ele>
        <time>2026-08-09T17:49:43.540Z</time>
      </trkpt>
      <trkpt lon="-105.973997" lat="38.208052">
        <ele>2619.8</ele>
        <time>2026-08-09T17:49:50.476Z</time>
      </trkpt>
      <trkpt lon="-105.974277" lat="38.210592">
        <ele>2622.47</ele>
        <time>2026-08-09T17:49:56.256Z</time>
      </trkpt>
      <trkpt lon="-105.975130" lat="38.217436">
        <ele>2606.46</ele>
        <time>2026-08-09T17:50:11.872Z</time>
      </trkpt>
      <trkpt lon="-105.975206" lat="38.218181">
        <ele>2605.98</ele>
        <time>2026-08-09T17:50:13.604Z</time>
      </trkpt>
      <trkpt lon="-105.975661" lat="38.221458">
        <ele>2597.98</ele>
        <time>2026-08-09T17:50:21.144Z</time>
      </trkpt>
      <trkpt lon="-105.975798" lat="38.222714">
        <ele>2602.72</ele>
        <time>2026-08-09T17:50:24.060Z</time>
      </trkpt>
      <trkpt lon="-105.976459" lat="38.227518">
        <ele>2613.47</ele>
        <time>2026-08-09T17:50:35.620Z</time>
      </trkpt>
      <trkpt lon="-105.976708" lat="38.229233">
        <ele>2603.7</ele>
        <time>2026-08-09T17:50:39.684Z</time>
      </trkpt>
      <trkpt lon="-105.976959" lat="38.231005">
        <ele>2586.76</ele>
        <time>2026-08-09T17:50:43.740Z</time>
      </trkpt>
      <trkpt lon="-105.977296" lat="38.233058">
        <ele>2582.46</ele>
        <time>2026-08-09T17:50:48.372Z</time>
      </trkpt>
      <trkpt lon="-105.977549" lat="38.234913">
        <ele>2583.17</ele>
        <time>2026-08-09T17:50:52.476Z</time>
      </trkpt>
      <trkpt lon="-105.978170" lat="38.240596">
        <ele>2586.69</ele>
        <time>2026-08-09T17:51:05.216Z</time>
      </trkpt>
      <trkpt lon="-105.979040" lat="38.244471">
        <ele>2608.43</ele>
        <time>2026-08-09T17:51:14.480Z</time>
      </trkpt>
      <trkpt lon="-105.979468" lat="38.246329">
        <ele>2613.2</ele>
        <time>2026-08-09T17:51:19.104Z</time>
      </trkpt>
      <trkpt lon="-105.979771" lat="38.247518">
        <ele>2615.98</ele>
        <time>2026-08-09T17:51:21.992Z</time>
      </trkpt>
      <trkpt lon="-105.980294" lat="38.249740">
        <ele>2607.12</ele>
        <time>2026-08-09T17:51:27.208Z</time>
      </trkpt>
      <trkpt lon="-105.980780" lat="38.252156">
        <ele>2586.09</ele>
        <time>2026-08-09T17:51:32.432Z</time>
      </trkpt>
      <trkpt lon="-105.981252" lat="38.254752">
        <ele>2567.31</ele>
        <time>2026-08-09T17:51:37.636Z</time>
      </trkpt>
      <trkpt lon="-105.981626" lat="38.257155">
        <ele>2549.54</ele>
        <time>2026-08-09T17:51:42.284Z</time>
      </trkpt>
      <trkpt lon="-105.981844" lat="38.258698">
        <ele>2535.52</ele>
        <time>2026-08-09T17:51:45.200Z</time>
      </trkpt>
      <trkpt lon="-105.981868" lat="38.259636">
        <ele>2527.45</ele>
        <time>2026-08-09T17:51:46.928Z</time>
      </trkpt>
      <trkpt lon="-105.981796" lat="38.260244">
        <ele>2528.1</ele>
        <time>2026-08-09T17:51:48.084Z</time>
      </trkpt>
      <trkpt lon="-105.981741" lat="38.260535">
        <ele>2530.32</ele>
        <time>2026-08-09T17:51:48.668Z</time>
      </trkpt>
      <trkpt lon="-105.981689" lat="38.260819">
        <ele>2533.5</ele>
        <time>2026-08-09T17:51:49.244Z</time>
      </trkpt>
      <trkpt lon="-105.981665" lat="38.261638">
        <ele>2545.32</ele>
        <time>2026-08-09T17:51:50.980Z</time>
      </trkpt>
      <trkpt lon="-105.982864" lat="38.267650">
        <ele>2554.12</ele>
        <time>2026-08-09T17:52:04.352Z</time>
      </trkpt>
      <trkpt lon="-105.983460" lat="38.271271">
        <ele>2535.99</ele>
        <time>2026-08-09T17:52:12.440Z</time>
      </trkpt>
      <trkpt lon="-105.985537" lat="38.280077">
        <ele>2519.53</ele>
        <time>2026-08-09T17:52:31.532Z</time>
      </trkpt>
      <trkpt lon="-105.986704" lat="38.283589">
        <ele>2530.9</ele>
        <time>2026-08-09T17:52:39.620Z</time>
      </trkpt>
      <trkpt lon="-105.987140" lat="38.284586">
        <ele>2526.44</ele>
        <time>2026-08-09T17:52:41.956Z</time>
      </trkpt>
      <trkpt lon="-105.987666" lat="38.285846">
        <ele>2526.31</ele>
        <time>2026-08-09T17:52:44.856Z</time>
      </trkpt>
      <trkpt lon="-105.989750" lat="38.291900">
        <ele>2528.35</ele>
        <time>2026-08-09T17:52:58.820Z</time>
      </trkpt>
      <trkpt lon="-105.990223" lat="38.294593">
        <ele>2543.08</ele>
        <time>2026-08-09T17:53:05.180Z</time>
      </trkpt>
      <trkpt lon="-105.990911" lat="38.300471">
        <ele>2525.97</ele>
        <time>2026-08-09T17:53:19.096Z</time>
      </trkpt>
      <trkpt lon="-105.991764" lat="38.303196">
        <ele>2524.54</ele>
        <time>2026-08-09T17:53:25.452Z</time>
      </trkpt>
      <trkpt lon="-105.992357" lat="38.304609">
        <ele>2529.48</ele>
        <time>2026-08-09T17:53:28.940Z</time>
      </trkpt>
      <trkpt lon="-105.994609" lat="38.308749">
        <ele>2511.95</ele>
        <time>2026-08-09T17:53:39.344Z</time>
      </trkpt>
      <trkpt lon="-105.996239" lat="38.311573">
        <ele>2501.2</ele>
        <time>2026-08-09T17:53:46.280Z</time>
      </trkpt>
      <trkpt lon="-105.998967" lat="38.315381">
        <ele>2503.91</ele>
        <time>2026-08-09T17:53:56.104Z</time>
      </trkpt>
      <trkpt lon="-106.002162" lat="38.319781">
        <ele>2516.3</ele>
        <time>2026-08-09T17:54:08.288Z</time>
      </trkpt>
      <trkpt lon="-106.005337" lat="38.324498">
        <ele>2533.81</ele>
        <time>2026-08-09T17:54:21.672Z</time>
      </trkpt>
      <trkpt lon="-106.007597" lat="38.327952">
        <ele>2552.08</ele>
        <time>2026-08-09T17:54:32.076Z</time>
      </trkpt>
      <trkpt lon="-106.008164" lat="38.328891">
        <ele>2556.91</ele>
        <time>2026-08-09T17:54:34.964Z</time>
      </trkpt>
      <trkpt lon="-106.010511" lat="38.333420">
        <ele>2551.65</ele>
        <time>2026-08-09T17:54:48.296Z</time>
      </trkpt>
      <trkpt lon="-106.010743" lat="38.333858">
        <ele>2547.37</ele>
        <time>2026-08-09T17:54:49.456Z</time>
      </trkpt>
      <trkpt lon="-106.011781" lat="38.335910">
        <ele>2532.47</ele>
        <time>2026-08-09T17:54:54.656Z</time>
      </trkpt>
      <trkpt lon="-106.012264" lat="38.336820">
        <ele>2538.01</ele>
        <time>2026-08-09T17:54:57.012Z</time>
      </trkpt>
      <trkpt lon="-106.012594" lat="38.337426">
        <ele>2549.67</ele>
        <time>2026-08-09T17:54:58.744Z</time>
      </trkpt>
      <trkpt lon="-106.012804" lat="38.337807">
        <ele>2556.87</ele>
        <time>2026-08-09T17:54:59.900Z</time>
      </trkpt>
      <trkpt lon="-106.014186" lat="38.339842">
        <ele>2561.33</ele>
        <time>2026-08-09T17:55:06.276Z</time>
      </trkpt>
      <trkpt lon="-106.014616" lat="38.340423">
        <ele>2558.77</ele>
        <time>2026-08-09T17:55:08.036Z</time>
      </trkpt>
      <trkpt lon="-106.016673" lat="38.343112">
        <ele>2557.83</ele>
        <time>2026-08-09T17:55:16.172Z</time>
      </trkpt>
      <trkpt lon="-106.017177" lat="38.343663">
        <ele>2557.85</ele>
        <time>2026-08-09T17:55:17.924Z</time>
      </trkpt>
      <trkpt lon="-106.019365" lat="38.345693">
        <ele>2564.08</ele>
        <time>2026-08-09T17:55:24.860Z</time>
      </trkpt>
      <trkpt lon="-106.022597" lat="38.348766">
        <ele>2559.27</ele>
        <time>2026-08-09T17:55:35.264Z</time>
      </trkpt>
      <trkpt lon="-106.022902" lat="38.349158">
        <ele>2560.3</ele>
        <time>2026-08-09T17:55:36.420Z</time>
      </trkpt>
      <trkpt lon="-106.026261" lat="38.353628">
        <ele>2568.66</ele>
        <time>2026-08-09T17:55:49.792Z</time>
      </trkpt>
      <trkpt lon="-106.028162" lat="38.355543">
        <ele>2570.88</ele>
        <time>2026-08-09T17:55:56.172Z</time>
      </trkpt>
      <trkpt lon="-106.029436" lat="38.356803">
        <ele>2566.39</ele>
        <time>2026-08-09T17:56:00.244Z</time>
      </trkpt>
      <trkpt lon="-106.032214" lat="38.360534">
        <ele>2577.82</ele>
        <time>2026-08-09T17:56:11.228Z</time>
      </trkpt>
      <trkpt lon="-106.032949" lat="38.361495">
        <ele>2583.11</ele>
        <time>2026-08-09T17:56:14.144Z</time>
      </trkpt>
      <trkpt lon="-106.035708" lat="38.365308">
        <ele>2598.94</ele>
        <time>2026-08-09T17:56:25.792Z</time>
      </trkpt>
      <trkpt lon="-106.036720" lat="38.366598">
        <ele>2601.43</ele>
        <time>2026-08-09T17:56:29.888Z</time>
      </trkpt>
      <trkpt lon="-106.037274" lat="38.367374">
        <ele>2602.79</ele>
        <time>2026-08-09T17:56:32.216Z</time>
      </trkpt>
      <trkpt lon="-106.038117" lat="38.368649">
        <ele>2619.68</ele>
        <time>2026-08-09T17:56:36.292Z</time>
      </trkpt>
      <trkpt lon="-106.038796" lat="38.369499">
        <ele>2619.6</ele>
        <time>2026-08-09T17:56:39.168Z</time>
      </trkpt>
      <trkpt lon="-106.043059" lat="38.375159">
        <ele>2637.08</ele>
        <time>2026-08-09T17:56:57.200Z</time>
      </trkpt>
      <trkpt lon="-106.049287" lat="38.382038">
        <ele>2654.32</ele>
        <time>2026-08-09T17:57:20.416Z</time>
      </trkpt>
      <trkpt lon="-106.057859" lat="38.391142">
        <ele>2664.05</ele>
        <time>2026-08-09T17:57:50.612Z</time>
      </trkpt>
      <trkpt lon="-106.062092" lat="38.395401">
        <ele>2670.32</ele>
        <time>2026-08-09T17:58:05.128Z</time>
      </trkpt>
      <trkpt lon="-106.064343" lat="38.397219">
        <ele>2679.94</ele>
        <time>2026-08-09T17:58:12.084Z</time>
      </trkpt>
      <trkpt lon="-106.064955" lat="38.397962">
        <ele>2678.56</ele>
        <time>2026-08-09T17:58:14.400Z</time>
      </trkpt>
      <trkpt lon="-106.065205" lat="38.398380">
        <ele>2677.81</ele>
        <time>2026-08-09T17:58:15.572Z</time>
      </trkpt>
      <trkpt lon="-106.065412" lat="38.398822">
        <ele>2677.64</ele>
        <time>2026-08-09T17:58:16.756Z</time>
      </trkpt>
      <trkpt lon="-106.065581" lat="38.399257">
        <ele>2679.14</ele>
        <time>2026-08-09T17:58:17.912Z</time>
      </trkpt>
      <trkpt lon="-106.065797" lat="38.399900">
        <ele>2683.72</ele>
        <time>2026-08-09T17:58:19.648Z</time>
      </trkpt>
      <trkpt lon="-106.065930" lat="38.400319">
        <ele>2686.44</ele>
        <time>2026-08-09T17:58:20.800Z</time>
      </trkpt>
      <trkpt lon="-106.066160" lat="38.400938">
        <ele>2688.56</ele>
        <time>2026-08-09T17:58:22.532Z</time>
      </trkpt>
      <trkpt lon="-106.067743" lat="38.406064">
        <ele>2695.77</ele>
        <time>2026-08-09T17:58:36.408Z</time>
      </trkpt>
      <trkpt lon="-106.068366" lat="38.407831">
        <ele>2713.16</ele>
        <time>2026-08-09T17:58:41.604Z</time>
      </trkpt>
      <trkpt lon="-106.068872" lat="38.408798">
        <ele>2732.09</ele>
        <time>2026-08-09T17:58:45.084Z</time>
      </trkpt>
      <trkpt lon="-106.069074" lat="38.409088">
        <ele>2736.69</ele>
        <time>2026-08-09T17:58:46.256Z</time>
      </trkpt>
      <trkpt lon="-106.069296" lat="38.409375">
        <ele>2739.05</ele>
        <time>2026-08-09T17:58:47.432Z</time>
      </trkpt>
      <trkpt lon="-106.070488" lat="38.410593">
        <ele>2740.71</ele>
        <time>2026-08-09T17:58:52.660Z</time>
      </trkpt>
      <trkpt lon="-106.072382" lat="38.412403">
        <ele>2749.38</ele>
        <time>2026-08-09T17:59:00.220Z</time>
      </trkpt>
      <trkpt lon="-106.073166" lat="38.413355">
        <ele>2753.13</ele>
        <time>2026-08-09T17:59:03.692Z</time>
      </trkpt>
      <trkpt lon="-106.074916" lat="38.415575">
        <ele>2767.58</ele>
        <time>2026-08-09T17:59:11.800Z</time>
      </trkpt>
      <trkpt lon="-106.075861" lat="38.416954">
        <ele>2772.49</ele>
        <time>2026-08-09T17:59:16.432Z</time>
      </trkpt>
      <trkpt lon="-106.076520" lat="38.418187">
        <ele>2780.77</ele>
        <time>2026-08-09T17:59:20.500Z</time>
      </trkpt>
      <trkpt lon="-106.077743" lat="38.419918">
        <ele>2765.16</ele>
        <time>2026-08-09T17:59:26.280Z</time>
      </trkpt>
      <trkpt lon="-106.079651" lat="38.422004">
        <ele>2776.3</ele>
        <time>2026-08-09T17:59:33.320Z</time>
      </trkpt>
      <trkpt lon="-106.079967" lat="38.422279">
        <ele>2782.15</ele>
        <time>2026-08-09T17:59:34.476Z</time>
      </trkpt>
      <trkpt lon="-106.081070" lat="38.422993">
        <ele>2786.42</ele>
        <time>2026-08-09T17:59:37.972Z</time>
      </trkpt>
      <trkpt lon="-106.082602" lat="38.424032">
        <ele>2786.37</ele>
        <time>2026-08-09T17:59:42.676Z</time>
      </trkpt>
      <trkpt lon="-106.085958" lat="38.426988">
        <ele>2805.18</ele>
        <time>2026-08-09T17:59:54.384Z</time>
      </trkpt>
      <trkpt lon="-106.087601" lat="38.428611">
        <ele>2824.24</ele>
        <time>2026-08-09T18:00:00.824Z</time>
      </trkpt>
      <trkpt lon="-106.089509" lat="38.430611">
        <ele>2843.85</ele>
        <time>2026-08-09T18:00:08.384Z</time>
      </trkpt>
      <trkpt lon="-106.090380" lat="38.431594">
        <ele>2846.03</ele>
        <time>2026-08-09T18:00:11.848Z</time>
      </trkpt>
      <trkpt lon="-106.093804" lat="38.436554">
        <ele>2847.18</ele>
        <time>2026-08-09T18:00:27.472Z</time>
      </trkpt>
      <trkpt lon="-106.094940" lat="38.438640">
        <ele>2847.52</ele>
        <time>2026-08-09T18:00:33.248Z</time>
      </trkpt>
      <trkpt lon="-106.095583" lat="38.439829">
        <ele>2867.39</ele>
        <time>2026-08-09T18:00:36.720Z</time>
      </trkpt>
      <trkpt lon="-106.096173" lat="38.440919">
        <ele>2889.29</ele>
        <time>2026-08-09T18:00:40.188Z</time>
      </trkpt>
      <trkpt lon="-106.097433" lat="38.443351">
        <ele>2893.37</ele>
        <time>2026-08-09T18:00:47.752Z</time>
      </trkpt>
      <trkpt lon="-106.098394" lat="38.445926">
        <ele>2899.18</ele>
        <time>2026-08-09T18:00:54.784Z</time>
      </trkpt>
      <trkpt lon="-106.098553" lat="38.446827">
        <ele>2905.54</ele>
        <time>2026-08-09T18:00:57.100Z</time>
      </trkpt>
      <trkpt lon="-106.098597" lat="38.447744">
        <ele>2911.27</ele>
        <time>2026-08-09T18:00:59.416Z</time>
      </trkpt>
      <trkpt lon="-106.098560" lat="38.448435">
        <ele>2913.29</ele>
        <time>2026-08-09T18:01:01.152Z</time>
      </trkpt>
      <trkpt lon="-106.098179" lat="38.450847">
        <ele>2890.89</ele>
        <time>2026-08-09T18:01:06.928Z</time>
      </trkpt>
      <trkpt lon="-106.097994" lat="38.451629">
        <ele>2878.44</ele>
        <time>2026-08-09T18:01:08.664Z</time>
      </trkpt>
      <trkpt lon="-106.097617" lat="38.452985">
        <ele>2854.23</ele>
        <time>2026-08-09T18:01:11.560Z</time>
      </trkpt>
      <trkpt lon="-106.097280" lat="38.454135">
        <ele>2828.54</ele>
        <time>2026-08-09T18:01:13.892Z</time>
      </trkpt>
      <trkpt lon="-106.096572" lat="38.456495">
        <ele>2804.81</ele>
        <time>2026-08-09T18:01:18.544Z</time>
      </trkpt>
      <trkpt lon="-106.094908" lat="38.461314">
        <ele>2797.26</ele>
        <time>2026-08-09T18:01:28.400Z</time>
      </trkpt>
      <trkpt lon="-106.093336" lat="38.465460">
        <ele>2770.95</ele>
        <time>2026-08-09T18:01:37.084Z</time>
      </trkpt>
      <trkpt lon="-106.091242" lat="38.471432">
        <ele>2742.72</ele>
        <time>2026-08-09T18:01:49.228Z</time>
      </trkpt>
      <trkpt lon="-106.090626" lat="38.473505">
        <ele>2718.9</ele>
        <time>2026-08-09T18:01:53.304Z</time>
      </trkpt>
      <trkpt lon="-106.090155" lat="38.475038">
        <ele>2692.73</ele>
        <time>2026-08-09T18:01:56.216Z</time>
      </trkpt>
      <trkpt lon="-106.089654" lat="38.476646">
        <ele>2668.56</ele>
        <time>2026-08-09T18:01:59.104Z</time>
      </trkpt>
      <trkpt lon="-106.089015" lat="38.478654">
        <ele>2641.87</ele>
        <time>2026-08-09T18:02:02.572Z</time>
      </trkpt>
      <trkpt lon="-106.088689" lat="38.479672">
        <ele>2631.96</ele>
        <time>2026-08-09T18:02:04.308Z</time>
      </trkpt>
      <trkpt lon="-106.087903" lat="38.482419">
        <ele>2606.02</ele>
        <time>2026-08-09T18:02:08.980Z</time>
      </trkpt>
      <trkpt lon="-106.086760" lat="38.487154">
        <ele>2598.25</ele>
        <time>2026-08-09T18:02:17.176Z</time>
      </trkpt>
      <trkpt lon="-106.085392" lat="38.492480">
        <ele>2573.06</ele>
        <time>2026-08-09T18:02:27.020Z</time>
      </trkpt>
      <trkpt lon="-106.084271" lat="38.496243">
        <ele>2549.23</ele>
        <time>2026-08-09T18:02:33.980Z</time>
      </trkpt>
      <trkpt lon="-106.083725" lat="38.498090">
        <ele>2522.65</ele>
        <time>2026-08-09T18:02:37.468Z</time>
      </trkpt>
      <trkpt lon="-106.083123" lat="38.500277">
        <ele>2499.14</ele>
        <time>2026-08-09T18:02:41.516Z</time>
      </trkpt>
      <trkpt lon="-106.082355" lat="38.502808">
        <ele>2476.08</ele>
        <time>2026-08-09T18:02:46.204Z</time>
      </trkpt>
      <trkpt lon="-106.080343" lat="38.508897">
        <ele>2456.83</ele>
        <time>2026-08-09T18:02:57.876Z</time>
      </trkpt>
      <trkpt lon="-106.078375" lat="38.515560">
        <ele>2431.47</ele>
        <time>2026-08-09T18:03:11.796Z</time>
      </trkpt>
      <trkpt lon="-106.077738" lat="38.517811">
        <ele>2409.08</ele>
        <time>2026-08-09T18:03:16.428Z</time>
      </trkpt>
      <trkpt lon="-106.076877" lat="38.521227">
        <ele>2388.92</ele>
        <time>2026-08-09T18:03:23.380Z</time>
      </trkpt>
      <trkpt lon="-106.075897" lat="38.526762">
        <ele>2379.52</ele>
        <time>2026-08-09T18:03:34.952Z</time>
      </trkpt>
      <trkpt lon="-106.075648" lat="38.528093">
        <ele>2374.85</ele>
        <time>2026-08-09T18:03:37.844Z</time>
      </trkpt>
      <trkpt lon="-106.075195" lat="38.529597">
        <ele>2374.64</ele>
        <time>2026-08-09T18:03:41.312Z</time>
      </trkpt>
      <trkpt lon="-106.074868" lat="38.530298">
        <ele>2373.72</ele>
        <time>2026-08-09T18:03:43.048Z</time>
      </trkpt>
      <trkpt lon="-106.074595" lat="38.530732">
        <ele>2373.97</ele>
        <time>2026-08-09T18:03:44.200Z</time>
      </trkpt>
      <trkpt lon="-106.074273" lat="38.531125">
        <ele>2374.8</ele>
        <time>2026-08-09T18:03:45.356Z</time>
      </trkpt>
      <trkpt lon="-106.073903" lat="38.531476">
        <ele>2375.63</ele>
        <time>2026-08-09T18:03:46.516Z</time>
      </trkpt>
      <trkpt lon="-106.073490" lat="38.531776">
        <ele>2376.4</ele>
        <time>2026-08-09T18:03:47.672Z</time>
      </trkpt>
      <trkpt lon="-106.073037" lat="38.532017">
        <ele>2375.9</ele>
        <time>2026-08-09T18:03:48.828Z</time>
      </trkpt>
      <trkpt lon="-106.072555" lat="38.532212">
        <ele>2374.71</ele>
        <time>2026-08-09T18:03:50.000Z</time>
      </trkpt>
      <trkpt lon="-106.071568" lat="38.532488">
        <ele>2370.81</ele>
        <time>2026-08-09T18:03:52.340Z</time>
      </trkpt>
      <trkpt lon="-106.070348" lat="38.532699">
        <ele>2364.19</ele>
        <time>2026-08-09T18:03:55.236Z</time>
      </trkpt>
      <trkpt lon="-106.067709" lat="38.533107">
        <ele>2346.81</ele>
        <time>2026-08-09T18:04:01.616Z</time>
      </trkpt>
      <trkpt lon="-106.065206" lat="38.533706">
        <ele>2335.33</ele>
        <time>2026-08-09T18:04:08.552Z</time>
      </trkpt>
      <trkpt lon="-106.063845" lat="38.534111">
        <ele>2328.37</ele>
        <time>2026-08-09T18:04:13.172Z</time>
      </trkpt>
      <trkpt lon="-106.062746" lat="38.534469">
        <ele>2317.72</ele>
        <time>2026-08-09T18:04:17.872Z</time>
      </trkpt>
      <trkpt lon="-106.061626" lat="38.534823">
        <ele>2304.45</ele>
        <time>2026-08-09T18:04:24.272Z</time>
      </trkpt>
      <trkpt lon="-106.060531" lat="38.535058">
        <ele>2293.37</ele>
        <time>2026-08-09T18:04:32.380Z</time>
      </trkpt>
      <trkpt lon="-106.059120" lat="38.535424">
        <ele>2290.58</ele>
        <time>2026-08-09T18:04:42.944Z</time>
      </trkpt>
      <trkpt lon="-106.058372" lat="38.535633">
        <ele>2289.41</ele>
        <time>2026-08-09T18:04:48.816Z</time>
      </trkpt>
      <trkpt lon="-106.058275" lat="38.535664">
        <ele>2289.27</ele>
        <time>2026-08-09T18:04:51.132Z</time>
      </trkpt>
      <trkpt lon="-106.058157" lat="38.535701">
        <ele>2289.1</ele>
        <time>2026-08-09T18:05:01.612Z</time>
      </trkpt>
      <trkpt lon="-106.057574" lat="38.535850">
        <ele>2288.14</ele>
        <time>2026-08-09T18:05:12.176Z</time>
      </trkpt>
      <trkpt lon="-106.056737" lat="38.536060">
        <ele>2286.61</ele>
        <time>2026-08-09T18:05:22.756Z</time>
      </trkpt>
      <trkpt lon="-106.056232" lat="38.536181">
        <ele>2285.64</ele>
        <time>2026-08-09T18:05:28.580Z</time>
      </trkpt>
      <trkpt lon="-106.056126" lat="38.536192">
        <ele>2285.45</ele>
        <time>2026-08-09T18:05:29.736Z</time>
      </trkpt>
      <trkpt lon="-106.056070" lat="38.536193">
        <ele>2285.36</ele>
        <time>2026-08-09T18:05:30.332Z</time>
      </trkpt>
      <trkpt lon="-106.056017" lat="38.536189">
        <ele>2285.27</ele>
        <time>2026-08-09T18:05:30.912Z</time>
      </trkpt>
      <trkpt lon="-106.055965" lat="38.536180">
        <ele>2285.18</ele>
        <time>2026-08-09T18:05:31.484Z</time>
      </trkpt>
      <trkpt lon="-106.055914" lat="38.536166">
        <ele>2285.09</ele>
        <time>2026-08-09T18:05:32.064Z</time>
      </trkpt>
      <trkpt lon="-106.055866" lat="38.536148">
        <ele>2285.01</ele>
        <time>2026-08-09T18:05:32.640Z</time>
      </trkpt>
      <trkpt lon="-106.055820" lat="38.536125">
        <ele>2284.94</ele>
        <time>2026-08-09T18:05:33.220Z</time>
      </trkpt>
      <trkpt lon="-106.055778" lat="38.536099">
        <ele>2284.87</ele>
        <time>2026-08-09T18:05:33.796Z</time>
      </trkpt>
      <trkpt lon="-106.055703" lat="38.536039">
        <ele>2284.74</ele>
        <time>2026-08-09T18:05:34.956Z</time>
      </trkpt>
      <trkpt lon="-106.055417" lat="38.535786">
        <ele>2284.34</ele>
        <time>2026-08-09T18:05:39.612Z</time>
      </trkpt>
      <trkpt lon="-106.055375" lat="38.535761">
        <ele>2284.28</ele>
        <time>2026-08-09T18:05:40.192Z</time>
      </trkpt>
      <trkpt lon="-106.055330" lat="38.535738">
        <ele>2284.22</ele>
        <time>2026-08-09T18:05:40.768Z</time>
      </trkpt>
      <trkpt lon="-106.055233" lat="38.535703">
        <ele>2284.08</ele>
        <time>2026-08-09T18:05:41.936Z</time>
      </trkpt>
      <trkpt lon="-106.055181" lat="38.535692">
        <ele>2284</ele>
        <time>2026-08-09T18:05:42.520Z</time>
      </trkpt>
      <trkpt lon="-106.055130" lat="38.535684">
        <ele>2283.92</ele>
        <time>2026-08-09T18:05:43.092Z</time>
      </trkpt>
      <trkpt lon="-106.055076" lat="38.535681">
        <ele>2283.83</ele>
        <time>2026-08-09T18:05:43.684Z</time>
      </trkpt>
      <trkpt lon="-106.054918" lat="38.535684">
        <ele>2283.6</ele>
        <time>2026-08-09T18:05:45.424Z</time>
      </trkpt>
      <trkpt lon="-106.054812" lat="38.535698">
        <ele>2283.43</ele>
        <time>2026-08-09T18:05:46.600Z</time>
      </trkpt>
      <trkpt lon="-106.054604" lat="38.535742">
        <ele>2283.08</ele>
        <time>2026-08-09T18:05:48.932Z</time>
      </trkpt>
      <trkpt lon="-106.053654" lat="38.536006">
        <ele>2281.52</ele>
        <time>2026-08-09T18:05:59.360Z</time>
      </trkpt>
      <trkpt lon="-106.052637" lat="38.536257">
        <ele>2279.85</ele>
        <time>2026-08-09T18:06:09.808Z</time>
      </trkpt>
      <trkpt lon="-106.052283" lat="38.536332">
        <ele>2279.26</ele>
        <time>2026-08-09T18:06:13.304Z</time>
      </trkpt>
      <trkpt lon="-106.052161" lat="38.536346">
        <ele>2279.06</ele>
        <time>2026-08-09T18:06:14.464Z</time>
      </trkpt>
      <trkpt lon="-106.052037" lat="38.536346">
        <ele>2278.86</ele>
        <time>2026-08-09T18:06:15.644Z</time>
      </trkpt>
      <trkpt lon="-106.051915" lat="38.536334">
        <ele>2278.68</ele>
        <time>2026-08-09T18:06:16.816Z</time>
      </trkpt>
      <trkpt lon="-106.051780" lat="38.536310">
        <ele>2278.5</ele>
        <time>2026-08-09T18:06:18.544Z</time>
      </trkpt>
      <trkpt lon="-106.051704" lat="38.536290">
        <ele>2278.4</ele>
        <time>2026-08-09T18:06:27.268Z</time>
      </trkpt>
      <trkpt lon="-106.051681" lat="38.536279">
        <ele>2278.36</ele>
        <time>2026-08-09T18:06:28.428Z</time>
      </trkpt>
      <trkpt lon="-106.051670" lat="38.536272">
        <ele>2278.35</ele>
        <time>2026-08-09T18:06:29.004Z</time>
      </trkpt>
      <trkpt lon="-106.051660" lat="38.536263">
        <ele>2278.34</ele>
        <time>2026-08-09T18:06:29.584Z</time>
      </trkpt>
      <trkpt lon="-106.051651" lat="38.536253">
        <ele>2278.33</ele>
        <time>2026-08-09T18:06:30.160Z</time>
      </trkpt>
      <trkpt lon="-106.051643" lat="38.536242">
        <ele>2278.32</ele>
        <time>2026-08-09T18:06:30.740Z</time>
      </trkpt>
      <trkpt lon="-106.051631" lat="38.536218">
        <ele>2278.3</ele>
        <time>2026-08-09T18:06:31.896Z</time>
      </trkpt>
      <trkpt lon="-106.051624" lat="38.536194">
        <ele>2278.3</ele>
        <time>2026-08-09T18:06:33.056Z</time>
      </trkpt>
      <trkpt lon="-106.051621" lat="38.536171">
        <ele>2278.31</ele>
        <time>2026-08-09T18:06:34.232Z</time>
      </trkpt>
      <trkpt lon="-106.051619" lat="38.536140">
        <ele>2278.33</ele>
        <time>2026-08-09T18:06:35.964Z</time>
      </trkpt>
      <trkpt lon="-106.051622" lat="38.536121">
        <ele>2278.36</ele>
        <time>2026-08-09T18:06:37.116Z</time>
      </trkpt>
      <trkpt lon="-106.051625" lat="38.536090">
        <ele>2278.39</ele>
        <time>2026-08-09T18:06:38.852Z</time>
      </trkpt>
      <trkpt lon="-106.051622" lat="38.536057">
        <ele>2278.39</ele>
        <time>2026-08-09T18:06:40.584Z</time>
      </trkpt>
      <trkpt lon="-106.051617" lat="38.536037">
        <ele>2278.39</ele>
        <time>2026-08-09T18:06:41.748Z</time>
      </trkpt>
      <trkpt lon="-106.051608" lat="38.536019">
        <ele>2278.39</ele>
        <time>2026-08-09T18:06:42.912Z</time>
      </trkpt>
    </trkseg>
    <trkseg>
      <trkpt lon="-104.292353" lat="39.049361">
        <ele>1962.91</ele>
        <time>2026-08-11T16:51:40.392Z</time>
      </trkpt>
      <trkpt lon="-104.292340" lat="39.049349">
        <ele>1962.64</ele>
        <time>2026-08-11T16:59:54.132Z</time>
      </trkpt>
      <trkpt lon="-104.292335" lat="39.049332">
        <ele>1962.67</ele>
        <time>2026-08-11T16:59:55.288Z</time>
      </trkpt>
      <trkpt lon="-104.292334" lat="39.049321">
        <ele>1962.66</ele>
        <time>2026-08-11T16:59:55.884Z</time>
      </trkpt>
      <trkpt lon="-104.292336" lat="39.049311">
        <ele>1962.68</ele>
        <time>2026-08-11T16:59:56.460Z</time>
      </trkpt>
      <trkpt lon="-104.292339" lat="39.049302">
        <ele>1962.71</ele>
        <time>2026-08-11T16:59:57.056Z</time>
      </trkpt>
      <trkpt lon="-104.292349" lat="39.049288">
        <ele>1962.79</ele>
        <time>2026-08-11T16:59:58.232Z</time>
      </trkpt>
      <trkpt lon="-104.292359" lat="39.049279">
        <ele>1962.88</ele>
        <time>2026-08-11T16:59:59.448Z</time>
      </trkpt>
      <trkpt lon="-104.292370" lat="39.049273">
        <ele>1962.92</ele>
        <time>2026-08-11T17:00:00.608Z</time>
      </trkpt>
      <trkpt lon="-104.292384" lat="39.049269">
        <ele>1962.9</ele>
        <time>2026-08-11T17:00:01.796Z</time>
      </trkpt>
      <trkpt lon="-104.292394" lat="39.049267">
        <ele>1962.86</ele>
        <time>2026-08-11T17:00:02.400Z</time>
      </trkpt>
      <trkpt lon="-104.292407" lat="39.049266">
        <ele>1962.83</ele>
        <time>2026-08-11T17:00:02.980Z</time>
      </trkpt>
      <trkpt lon="-104.292422" lat="39.049267">
        <ele>1962.76</ele>
        <time>2026-08-11T17:00:03.572Z</time>
      </trkpt>
      <trkpt lon="-104.292441" lat="39.049270">
        <ele>1962.65</ele>
        <time>2026-08-11T17:00:04.172Z</time>
      </trkpt>
      <trkpt lon="-104.292461" lat="39.049275">
        <ele>1962.62</ele>
        <time>2026-08-11T17:00:04.776Z</time>
      </trkpt>
      <trkpt lon="-104.292479" lat="39.049285">
        <ele>1962.65</ele>
        <time>2026-08-11T17:00:05.384Z</time>
      </trkpt>
      <trkpt lon="-104.292495" lat="39.049299">
        <ele>1962.77</ele>
        <time>2026-08-11T17:00:05.968Z</time>
      </trkpt>
      <trkpt lon="-104.292525" lat="39.049334">
        <ele>1963.14</ele>
        <time>2026-08-11T17:00:07.132Z</time>
      </trkpt>
      <trkpt lon="-104.292587" lat="39.049383">
        <ele>1962.69</ele>
        <time>2026-08-11T17:00:08.908Z</time>
      </trkpt>
      <trkpt lon="-104.292605" lat="39.049400">
        <ele>1962.7</ele>
        <time>2026-08-11T17:00:09.492Z</time>
      </trkpt>
      <trkpt lon="-104.292707" lat="39.049509">
        <ele>1962.59</ele>
        <time>2026-08-11T17:00:13.576Z</time>
      </trkpt>
      <trkpt lon="-104.292725" lat="39.049522">
        <ele>1962.54</ele>
        <time>2026-08-11T17:00:14.160Z</time>
      </trkpt>
      <trkpt lon="-104.292766" lat="39.049545">
        <ele>1962.51</ele>
        <time>2026-08-11T17:00:15.348Z</time>
      </trkpt>
      <trkpt lon="-104.292808" lat="39.049563">
        <ele>1962.5</ele>
        <time>2026-08-11T17:00:16.520Z</time>
      </trkpt>
      <trkpt lon="-104.292850" lat="39.049577">
        <ele>1962.48</ele>
        <time>2026-08-11T17:00:17.700Z</time>
      </trkpt>
      <trkpt lon="-104.292871" lat="39.049579">
        <ele>1962.48</ele>
        <time>2026-08-11T17:00:18.276Z</time>
      </trkpt>
      <trkpt lon="-104.292891" lat="39.049576">
        <ele>1962.48</ele>
        <time>2026-08-11T17:00:18.864Z</time>
      </trkpt>
      <trkpt lon="-104.292908" lat="39.049567">
        <ele>1962.48</ele>
        <time>2026-08-11T17:00:19.456Z</time>
      </trkpt>
      <trkpt lon="-104.292922" lat="39.049556">
        <ele>1962.49</ele>
        <time>2026-08-11T17:00:20.044Z</time>
      </trkpt>
      <trkpt lon="-104.292931" lat="39.049542">
        <ele>1962.49</ele>
        <time>2026-08-11T17:00:20.616Z</time>
      </trkpt>
      <trkpt lon="-104.292937" lat="39.049528">
        <ele>1962.49</ele>
        <time>2026-08-11T17:00:21.200Z</time>
      </trkpt>
      <trkpt lon="-104.292944" lat="39.049498">
        <ele>1962.53</ele>
        <time>2026-08-11T17:00:22.364Z</time>
      </trkpt>
      <trkpt lon="-104.292956" lat="39.049284">
        <ele>1962.88</ele>
        <time>2026-08-11T17:00:28.216Z</time>
      </trkpt>
      <trkpt lon="-104.292953" lat="39.048730">
        <ele>1963.77</ele>
        <time>2026-08-11T17:00:35.772Z</time>
      </trkpt>
      <trkpt lon="-104.292960" lat="39.047864">
        <ele>1965.03</ele>
        <time>2026-08-11T17:00:42.792Z</time>
      </trkpt>
      <trkpt lon="-104.293025" lat="39.046757">
        <ele>1968.14</ele>
        <time>2026-08-11T17:00:49.196Z</time>
      </trkpt>
      <trkpt lon="-104.292354" lat="39.049361">
        <ele>1962.61</ele>
        <time>2026-08-11T17:00:50.416Z</time>
      </trkpt>
      <trkpt lon="-104.292341" lat="39.049348">
        <ele>1962.67</ele>
        <time>2026-08-11T17:01:25.956Z</time>
      </trkpt>
      <trkpt lon="-104.292338" lat="39.049339">
        <ele>1962.7</ele>
        <time>2026-08-11T17:01:26.548Z</time>
      </trkpt>
      <trkpt lon="-104.292337" lat="39.049326">
        <ele>1962.76</ele>
        <time>2026-08-11T17:01:27.144Z</time>
      </trkpt>
      <trkpt lon="-104.292340" lat="39.049311">
        <ele>1962.86</ele>
        <time>2026-08-11T17:01:27.736Z</time>
      </trkpt>
      <trkpt lon="-104.292347" lat="39.049296">
        <ele>1962.93</ele>
        <time>2026-08-11T17:01:28.320Z</time>
      </trkpt>
      <trkpt lon="-104.292361" lat="39.049282">
        <ele>1962.97</ele>
        <time>2026-08-11T17:01:28.916Z</time>
      </trkpt>
      <trkpt lon="-104.292430" lat="39.049250">
        <ele>1962.89</ele>
        <time>2026-08-11T17:01:30.660Z</time>
      </trkpt>
      <trkpt lon="-104.292457" lat="39.049235">
        <ele>1962.82</ele>
        <time>2026-08-11T17:01:31.244Z</time>
      </trkpt>
      <trkpt lon="-104.292488" lat="39.049220">
        <ele>1962.92</ele>
        <time>2026-08-11T17:01:31.812Z</time>
      </trkpt>
      <trkpt lon="-104.292553" lat="39.049183">
        <ele>1962.86</ele>
        <time>2026-08-11T17:01:32.976Z</time>
      </trkpt>
      <trkpt lon="-104.292685" lat="39.049066">
        <ele>1963.33</ele>
        <time>2026-08-11T17:01:35.324Z</time>
      </trkpt>
      <trkpt lon="-104.292763" lat="39.048990">
        <ele>1963.46</ele>
        <time>2026-08-11T17:01:36.492Z</time>
      </trkpt>
      <trkpt lon="-104.292857" lat="39.048910">
        <ele>1963.52</ele>
        <time>2026-08-11T17:01:37.656Z</time>
      </trkpt>
      <trkpt lon="-104.292905" lat="39.048865">
        <ele>1963.58</ele>
        <time>2026-08-11T17:01:38.228Z</time>
      </trkpt>
      <trkpt lon="-104.292949" lat="39.048815">
        <ele>1963.64</ele>
        <time>2026-08-11T17:01:38.804Z</time>
      </trkpt>
      <trkpt lon="-104.292983" lat="39.048761">
        <ele>1963.75</ele>
        <time>2026-08-11T17:01:39.384Z</time>
      </trkpt>
      <trkpt lon="-104.293008" lat="39.048705">
        <ele>1963.85</ele>
        <time>2026-08-11T17:01:39.968Z</time>
      </trkpt>
      <trkpt lon="-104.293010" lat="39.048474">
        <ele>1964.22</ele>
        <time>2026-08-11T17:01:42.288Z</time>
      </trkpt>
      <trkpt lon="-104.292997" lat="39.048413">
        <ele>1964.29</ele>
        <time>2026-08-11T17:01:42.868Z</time>
      </trkpt>
      <trkpt lon="-104.292988" lat="39.048350">
        <ele>1964.48</ele>
        <time>2026-08-11T17:01:43.444Z</time>
      </trkpt>
      <trkpt lon="-104.292976" lat="39.048132">
        <ele>1966.3</ele>
        <time>2026-08-11T17:01:45.220Z</time>
      </trkpt>
      <trkpt lon="-104.293014" lat="39.047367">
        <ele>1971.03</ele>
        <time>2026-08-11T17:01:49.864Z</time>
      </trkpt>
      <trkpt lon="-104.293285" lat="39.044337">
        <ele>1987.74</ele>
        <time>2026-08-11T17:02:05.060Z</time>
      </trkpt>
      <trkpt lon="-104.293456" lat="39.043867">
        <ele>1992.42</ele>
        <time>2026-08-11T17:02:07.392Z</time>
      </trkpt>
      <trkpt lon="-104.293578" lat="39.043636">
        <ele>1994.08</ele>
        <time>2026-08-11T17:02:08.556Z</time>
      </trkpt>
      <trkpt lon="-104.293727" lat="39.043402">
        <ele>1995.4</ele>
        <time>2026-08-11T17:02:09.744Z</time>
      </trkpt>
      <trkpt lon="-104.293899" lat="39.043180">
        <ele>1996.61</ele>
        <time>2026-08-11T17:02:10.900Z</time>
      </trkpt>
      <trkpt lon="-104.294102" lat="39.042972">
        <ele>1998.24</ele>
        <time>2026-08-11T17:02:12.060Z</time>
      </trkpt>
      <trkpt lon="-104.294470" lat="39.042703">
        <ele>2000.91</ele>
        <time>2026-08-11T17:02:13.792Z</time>
      </trkpt>
      <trkpt lon="-104.294757" lat="39.042553">
        <ele>2002.7</ele>
        <time>2026-08-11T17:02:14.972Z</time>
      </trkpt>
      <trkpt lon="-104.295064" lat="39.042429">
        <ele>2004.84</ele>
        <time>2026-08-11T17:02:16.116Z</time>
      </trkpt>
      <trkpt lon="-104.295393" lat="39.042323">
        <ele>2007.68</ele>
        <time>2026-08-11T17:02:17.296Z</time>
      </trkpt>
      <trkpt lon="-104.295731" lat="39.042239">
        <ele>2011.1</ele>
        <time>2026-08-11T17:02:18.464Z</time>
      </trkpt>
      <trkpt lon="-104.296078" lat="39.042181">
        <ele>2014.99</ele>
        <time>2026-08-11T17:02:19.664Z</time>
      </trkpt>
      <trkpt lon="-104.296425" lat="39.042154">
        <ele>2018.98</ele>
        <time>2026-08-11T17:02:20.832Z</time>
      </trkpt>
      <trkpt lon="-104.296932" lat="39.042180">
        <ele>2024.49</ele>
        <time>2026-08-11T17:02:22.584Z</time>
      </trkpt>
      <trkpt lon="-104.297260" lat="39.042237">
        <ele>2027.97</ele>
        <time>2026-08-11T17:02:23.748Z</time>
      </trkpt>
      <trkpt lon="-104.297582" lat="39.042322">
        <ele>2031.69</ele>
        <time>2026-08-11T17:02:24.928Z</time>
      </trkpt>
      <trkpt lon="-104.297881" lat="39.042426">
        <ele>2035.63</ele>
        <time>2026-08-11T17:02:26.084Z</time>
      </trkpt>
      <trkpt lon="-104.298162" lat="39.042547">
        <ele>2039.77</ele>
        <time>2026-08-11T17:02:27.240Z</time>
      </trkpt>
      <trkpt lon="-104.298545" lat="39.042757">
        <ele>2046</ele>
        <time>2026-08-11T17:02:28.972Z</time>
      </trkpt>
      <trkpt lon="-104.298879" lat="39.043001">
        <ele>2051.78</ele>
        <time>2026-08-11T17:02:30.700Z</time>
      </trkpt>
      <trkpt lon="-104.299078" lat="39.043178">
        <ele>2055.06</ele>
        <time>2026-08-11T17:02:31.852Z</time>
      </trkpt>
      <trkpt lon="-104.299267" lat="39.043374">
        <ele>2057.92</ele>
        <time>2026-08-11T17:02:33.016Z</time>
      </trkpt>
      <trkpt lon="-104.299436" lat="39.043584">
        <ele>2060.3</ele>
        <time>2026-08-11T17:02:34.184Z</time>
      </trkpt>
      <trkpt lon="-104.299637" lat="39.043932">
        <ele>2063.18</ele>
        <time>2026-08-11T17:02:35.920Z</time>
      </trkpt>
      <trkpt lon="-104.299752" lat="39.044317">
        <ele>2065.42</ele>
        <time>2026-08-11T17:02:37.660Z</time>
      </trkpt>
      <trkpt lon="-104.299779" lat="39.044592">
        <ele>2066.76</ele>
        <time>2026-08-11T17:02:38.836Z</time>
      </trkpt>
      <trkpt lon="-104.299769" lat="39.044870">
        <ele>2068</ele>
        <time>2026-08-11T17:02:39.992Z</time>
      </trkpt>
      <trkpt lon="-104.299673" lat="39.045462">
        <ele>2069.06</ele>
        <time>2026-08-11T17:02:42.352Z</time>
      </trkpt>
      <trkpt lon="-104.299200" lat="39.047086">
        <ele>2068.31</ele>
        <time>2026-08-11T17:02:48.152Z</time>
      </trkpt>
      <trkpt lon="-104.298667" lat="39.048798">
        <ele>2066.88</ele>
        <time>2026-08-11T17:02:53.388Z</time>
      </trkpt>
      <trkpt lon="-104.298177" lat="39.050290">
        <ele>2056.04</ele>
        <time>2026-08-11T17:02:57.436Z</time>
      </trkpt>
      <trkpt lon="-104.297590" lat="39.051678">
        <ele>2055.09</ele>
        <time>2026-08-11T17:03:00.928Z</time>
      </trkpt>
      <trkpt lon="-104.296792" lat="39.053172">
        <ele>2076.5</ele>
        <time>2026-08-11T17:03:04.976Z</time>
      </trkpt>
      <trkpt lon="-104.295430" lat="39.055929">
        <ele>2085.96</ele>
        <time>2026-08-11T17:03:12.520Z</time>
      </trkpt>
      <trkpt lon="-104.292980" lat="39.060864">
        <ele>2101.38</ele>
        <time>2026-08-11T17:03:25.284Z</time>
      </trkpt>
      <trkpt lon="-104.290919" lat="39.064936">
        <ele>2123.73</ele>
        <time>2026-08-11T17:03:36.360Z</time>
      </trkpt>
      <trkpt lon="-104.288407" lat="39.070589">
        <ele>2149.81</ele>
        <time>2026-08-11T17:03:50.896Z</time>
      </trkpt>
      <trkpt lon="-104.286618" lat="39.074395">
        <ele>2175.98</ele>
        <time>2026-08-11T17:04:00.876Z</time>
      </trkpt>
      <trkpt lon="-104.285637" lat="39.076463">
        <ele>2205.41</ele>
        <time>2026-08-11T17:04:06.696Z</time>
      </trkpt>
      <trkpt lon="-104.285275" lat="39.077732">
        <ele>2210.13</ele>
        <time>2026-08-11T17:04:10.200Z</time>
      </trkpt>
      <trkpt lon="-104.285166" lat="39.079626">
        <ele>2196.49</ele>
        <time>2026-08-11T17:04:14.884Z</time>
      </trkpt>
      <trkpt lon="-104.285138" lat="39.080631">
        <ele>2194.42</ele>
        <time>2026-08-11T17:04:17.200Z</time>
      </trkpt>
      <trkpt lon="-104.284911" lat="39.082304">
        <ele>2221.7</ele>
        <time>2026-08-11T17:04:21.248Z</time>
      </trkpt>
      <trkpt lon="-104.284755" lat="39.083141">
        <ele>2248.29</ele>
        <time>2026-08-11T17:04:23.608Z</time>
      </trkpt>
      <trkpt lon="-104.284537" lat="39.084428">
        <ele>2276.95</ele>
        <time>2026-08-11T17:04:27.668Z</time>
      </trkpt>
      <trkpt lon="-104.284314" lat="39.085803">
        <ele>2278.29</ele>
        <time>2026-08-11T17:04:31.744Z</time>
      </trkpt>
      <trkpt lon="-104.284180" lat="39.086670">
        <ele>2272.79</ele>
        <time>2026-08-11T17:04:34.100Z</time>
      </trkpt>
      <trkpt lon="-104.284015" lat="39.087353">
        <ele>2263.69</ele>
        <time>2026-08-11T17:04:35.840Z</time>
      </trkpt>
      <trkpt lon="-104.283857" lat="39.087820">
        <ele>2258.32</ele>
        <time>2026-08-11T17:04:36.996Z</time>
      </trkpt>
      <trkpt lon="-104.283364" lat="39.089004">
        <ele>2255.39</ele>
        <time>2026-08-11T17:04:39.916Z</time>
      </trkpt>
      <trkpt lon="-104.282193" lat="39.091505">
        <ele>2277.89</ele>
        <time>2026-08-11T17:04:46.324Z</time>
      </trkpt>
      <trkpt lon="-104.277177" lat="39.102694">
        <ele>2287.56</ele>
        <time>2026-08-11T17:05:14.260Z</time>
      </trkpt>
      <trkpt lon="-104.272616" lat="39.111804">
        <ele>2291.34</ele>
        <time>2026-08-11T17:05:36.360Z</time>
      </trkpt>
      <trkpt lon="-104.269476" lat="39.117322">
        <ele>2318.2</ele>
        <time>2026-08-11T17:05:50.384Z</time>
      </trkpt>
      <trkpt lon="-104.266175" lat="39.124321">
        <ele>2352.94</ele>
        <time>2026-08-11T17:06:09.572Z</time>
      </trkpt>
      <trkpt lon="-104.265680" lat="39.125531">
        <ele>2358.74</ele>
        <time>2026-08-11T17:06:13.096Z</time>
      </trkpt>
      <trkpt lon="-104.265505" lat="39.125928">
        <ele>2357.39</ele>
        <time>2026-08-11T17:06:14.248Z</time>
      </trkpt>
      <trkpt lon="-104.264843" lat="39.127552">
        <ele>2360.77</ele>
        <time>2026-08-11T17:06:18.872Z</time>
      </trkpt>
      <trkpt lon="-104.264455" lat="39.128813">
        <ele>2366.05</ele>
        <time>2026-08-11T17:06:22.368Z</time>
      </trkpt>
      <trkpt lon="-104.263897" lat="39.130822">
        <ele>2405.95</ele>
        <time>2026-08-11T17:06:28.208Z</time>
      </trkpt>
      <trkpt lon="-104.263711" lat="39.131543">
        <ele>2423.88</ele>
        <time>2026-08-11T17:06:30.532Z</time>
      </trkpt>
      <trkpt lon="-104.262969" lat="39.134390">
        <ele>2464.74</ele>
        <time>2026-08-11T17:06:39.828Z</time>
      </trkpt>
      <trkpt lon="-104.262431" lat="39.136642">
        <ele>2505.13</ele>
        <time>2026-08-11T17:06:47.376Z</time>
      </trkpt>
      <trkpt lon="-104.261618" lat="39.140269">
        <ele>2546.69</ele>
        <time>2026-08-11T17:06:58.976Z</time>
      </trkpt>
      <trkpt lon="-104.261281" lat="39.141689">
        <ele>2579.07</ele>
        <time>2026-08-11T17:07:03.620Z</time>
      </trkpt>
      <trkpt lon="-104.261116" lat="39.142825">
        <ele>2620.66</ele>
        <time>2026-08-11T17:07:08.260Z</time>
      </trkpt>
      <trkpt lon="-104.261064" lat="39.143986">
        <ele>2629.08</ele>
        <time>2026-08-11T17:07:12.896Z</time>
      </trkpt>
      <trkpt lon="-104.261047" lat="39.144541">
        <ele>2615.01</ele>
        <time>2026-08-11T17:07:14.644Z</time>
      </trkpt>
      <trkpt lon="-104.261028" lat="39.144960">
        <ele>2602.47</ele>
        <time>2026-08-11T17:07:15.800Z</time>
      </trkpt>
      <trkpt lon="-104.260987" lat="39.145410">
        <ele>2589.4</ele>
        <time>2026-08-11T17:07:16.956Z</time>
      </trkpt>
      <trkpt lon="-104.260706" lat="39.146622">
        <ele>2573.92</ele>
        <time>2026-08-11T17:07:19.868Z</time>
      </trkpt>
      <trkpt lon="-104.259071" lat="39.150887">
        <ele>2591.07</ele>
        <time>2026-08-11T17:07:30.944Z</time>
      </trkpt>
      <trkpt lon="-104.257445" lat="39.155054">
        <ele>2594.17</ele>
        <time>2026-08-11T17:07:41.408Z</time>
      </trkpt>
      <trkpt lon="-104.255941" lat="39.157859">
        <ele>2585.4</ele>
        <time>2026-08-11T17:07:48.900Z</time>
      </trkpt>
      <trkpt lon="-104.252254" lat="39.163148">
        <ele>2570.61</ele>
        <time>2026-08-11T17:08:03.004Z</time>
      </trkpt>
      <trkpt lon="-104.243538" lat="39.174033">
        <ele>2568.35</ele>
        <time>2026-08-11T17:08:33.276Z</time>
      </trkpt>
      <trkpt lon="-104.234448" lat="39.184497">
        <ele>2543.08</ele>
        <time>2026-08-11T17:09:03.496Z</time>
      </trkpt>
      <trkpt lon="-104.225212" lat="39.195101">
        <ele>2528.12</ele>
        <time>2026-08-11T17:09:33.688Z</time>
      </trkpt>
      <trkpt lon="-104.222474" lat="39.197853">
        <ele>2525.77</ele>
        <time>2026-08-11T17:09:41.812Z</time>
      </trkpt>
      <trkpt lon="-104.220327" lat="39.200664">
        <ele>2524.03</ele>
        <time>2026-08-11T17:09:49.372Z</time>
      </trkpt>
      <trkpt lon="-104.219604" lat="39.202014">
        <ele>2527.81</ele>
        <time>2026-08-11T17:09:52.844Z</time>
      </trkpt>
      <trkpt lon="-104.219122" lat="39.203181">
        <ele>2530.95</ele>
        <time>2026-08-11T17:09:55.752Z</time>
      </trkpt>
      <trkpt lon="-104.214689" lat="39.215908">
        <ele>2521.73</ele>
        <time>2026-08-11T17:10:25.952Z</time>
      </trkpt>
      <trkpt lon="-104.213367" lat="39.219412">
        <ele>2510.19</ele>
        <time>2026-08-11T17:10:34.080Z</time>
      </trkpt>
      <trkpt lon="-104.210899" lat="39.225098">
        <ele>2510.93</ele>
        <time>2026-08-11T17:10:47.460Z</time>
      </trkpt>
      <trkpt lon="-104.206500" lat="39.237966">
        <ele>2478.29</ele>
        <time>2026-08-11T17:11:17.612Z</time>
      </trkpt>
      <trkpt lon="-104.203208" lat="39.246508">
        <ele>2434.25</ele>
        <time>2026-08-11T17:11:37.324Z</time>
      </trkpt>
      <trkpt lon="-104.197295" lat="39.259239">
        <ele>2393.95</ele>
        <time>2026-08-11T17:12:07.092Z</time>
      </trkpt>
      <trkpt lon="-104.193343" lat="39.269128">
        <ele>2355.74</ele>
        <time>2026-08-11T17:12:29.200Z</time>
      </trkpt>
      <trkpt lon="-104.192292" lat="39.271293">
        <ele>2338.08</ele>
        <time>2026-08-11T17:12:33.872Z</time>
      </trkpt>
      <trkpt lon="-104.191253" lat="39.272800">
        <ele>2335.55</ele>
        <time>2026-08-11T17:12:37.352Z</time>
      </trkpt>
      <trkpt lon="-104.190613" lat="39.273494">
        <ele>2334.45</ele>
        <time>2026-08-11T17:12:39.096Z</time>
      </trkpt>
      <trkpt lon="-104.189649" lat="39.274323">
        <ele>2332.7</ele>
        <time>2026-08-11T17:12:41.412Z</time>
      </trkpt>
      <trkpt lon="-104.188183" lat="39.275483">
        <ele>2337.98</ele>
        <time>2026-08-11T17:12:44.884Z</time>
      </trkpt>
      <trkpt lon="-104.179858" lat="39.283849">
        <ele>2315.39</ele>
        <time>2026-08-11T17:13:07.536Z</time>
      </trkpt>
      <trkpt lon="-104.171984" lat="39.293053">
        <ele>2284.09</ele>
        <time>2026-08-11T17:13:31.388Z</time>
      </trkpt>
      <trkpt lon="-104.170656" lat="39.294687">
        <ele>2273.26</ele>
        <time>2026-08-11T17:13:35.444Z</time>
      </trkpt>
      <trkpt lon="-104.165875" lat="39.300175">
        <ele>2238.18</ele>
        <time>2026-08-11T17:13:49.356Z</time>
      </trkpt>
      <trkpt lon="-104.164668" lat="39.301331">
        <ele>2219.57</ele>
        <time>2026-08-11T17:13:52.276Z</time>
      </trkpt>
      <trkpt lon="-104.163552" lat="39.302210">
        <ele>2206.13</ele>
        <time>2026-08-11T17:13:54.632Z</time>
      </trkpt>
      <trkpt lon="-104.160925" lat="39.303936">
        <ele>2208.92</ele>
        <time>2026-08-11T17:13:59.852Z</time>
      </trkpt>
      <trkpt lon="-104.159923" lat="39.304676">
        <ele>2220.25</ele>
        <time>2026-08-11T17:14:02.192Z</time>
      </trkpt>
      <trkpt lon="-104.159248" lat="39.305278">
        <ele>2221.9</ele>
        <time>2026-08-11T17:14:03.928Z</time>
      </trkpt>
      <trkpt lon="-104.157588" lat="39.307197">
        <ele>2226.7</ele>
        <time>2026-08-11T17:14:09.204Z</time>
      </trkpt>
      <trkpt lon="-104.157118" lat="39.307835">
        <ele>2226.24</ele>
        <time>2026-08-11T17:14:10.952Z</time>
      </trkpt>
      <trkpt lon="-104.155299" lat="39.310613">
        <ele>2192.17</ele>
        <time>2026-08-11T17:14:17.932Z</time>
      </trkpt>
      <trkpt lon="-104.147881" lat="39.322824">
        <ele>2190.16</ele>
        <time>2026-08-11T17:14:47.604Z</time>
      </trkpt>
      <trkpt lon="-104.143449" lat="39.332421">
        <ele>2184.15</ele>
        <time>2026-08-11T17:15:10.808Z</time>
      </trkpt>
      <trkpt lon="-104.139900" lat="39.338845">
        <ele>2199.51</ele>
        <time>2026-08-11T17:15:26.632Z</time>
      </trkpt>
      <trkpt lon="-104.138720" lat="39.342079">
        <ele>2167.07</ele>
        <time>2026-08-11T17:15:34.232Z</time>
      </trkpt>
      <trkpt lon="-104.137915" lat="39.344348">
        <ele>2152.32</ele>
        <time>2026-08-11T17:15:39.296Z</time>
      </trkpt>
      <trkpt lon="-104.137346" lat="39.345442">
        <ele>2145.82</ele>
        <time>2026-08-11T17:15:41.832Z</time>
      </trkpt>
      <trkpt lon="-104.136206" lat="39.346934">
        <ele>2148.23</ele>
        <time>2026-08-11T17:15:45.604Z</time>
      </trkpt>
      <trkpt lon="-104.135665" lat="39.347653">
        <ele>2156.66</ele>
        <time>2026-08-11T17:15:47.512Z</time>
      </trkpt>
      <trkpt lon="-104.135103" lat="39.348607">
        <ele>2164.76</ele>
        <time>2026-08-11T17:15:50.020Z</time>
      </trkpt>
      <trkpt lon="-104.134894" lat="39.349105">
        <ele>2165.52</ele>
        <time>2026-08-11T17:15:51.284Z</time>
      </trkpt>
      <trkpt lon="-104.134741" lat="39.349614">
        <ele>2162.83</ele>
        <time>2026-08-11T17:15:52.552Z</time>
      </trkpt>
      <trkpt lon="-104.134630" lat="39.350685">
        <ele>2149.07</ele>
        <time>2026-08-11T17:15:55.072Z</time>
      </trkpt>
      <trkpt lon="-104.134675" lat="39.351244">
        <ele>2138.46</ele>
        <time>2026-08-11T17:15:56.336Z</time>
      </trkpt>
      <trkpt lon="-104.134866" lat="39.352098">
        <ele>2121.91</ele>
        <time>2026-08-11T17:15:58.240Z</time>
      </trkpt>
      <trkpt lon="-104.135182" lat="39.352962">
        <ele>2107.94</ele>
        <time>2026-08-11T17:16:00.136Z</time>
      </trkpt>
      <trkpt lon="-104.136064" lat="39.354683">
        <ele>2098.06</ele>
        <time>2026-08-11T17:16:03.936Z</time>
      </trkpt>
      <trkpt lon="-104.137147" lat="39.356561">
        <ele>2116.3</ele>
        <time>2026-08-11T17:16:08.380Z</time>
      </trkpt>
      <trkpt lon="-104.138351" lat="39.358380">
        <ele>2143.02</ele>
        <time>2026-08-11T17:16:13.444Z</time>
      </trkpt>
      <trkpt lon="-104.139097" lat="39.359182">
        <ele>2141.6</ele>
        <time>2026-08-11T17:16:15.980Z</time>
      </trkpt>
      <trkpt lon="-104.139535" lat="39.359565">
        <ele>2135.37</ele>
        <time>2026-08-11T17:16:17.248Z</time>
      </trkpt>
      <trkpt lon="-104.140022" lat="39.359936">
        <ele>2125.39</ele>
        <time>2026-08-11T17:16:18.512Z</time>
      </trkpt>
      <trkpt lon="-104.141463" lat="39.360835">
        <ele>2092.58</ele>
        <time>2026-08-11T17:16:21.680Z</time>
      </trkpt>
      <trkpt lon="-104.143724" lat="39.362162">
        <ele>2064.45</ele>
        <time>2026-08-11T17:16:26.112Z</time>
      </trkpt>
      <trkpt lon="-104.146622" lat="39.363857">
        <ele>2081.72</ele>
        <time>2026-08-11T17:17:27.640Z</time>
      </trkpt>
      <trkpt lon="-104.150494" lat="39.365879">
        <ele>2114.11</ele>
        <time>2026-08-11T17:17:36.732Z</time>
      </trkpt>
      <trkpt lon="-104.154372" lat="39.367622">
        <ele>2118.51</ele>
        <time>2026-08-11T17:17:45.552Z</time>
      </trkpt>
      <trkpt lon="-104.156949" lat="39.368904">
        <ele>2132.31</ele>
        <time>2026-08-11T17:17:51.352Z</time>
      </trkpt>
      <trkpt lon="-104.157807" lat="39.369165">
        <ele>2138.58</ele>
        <time>2026-08-11T17:17:53.136Z</time>
      </trkpt>
      <trkpt lon="-104.158393" lat="39.369278">
        <ele>2140.62</ele>
        <time>2026-08-11T17:17:54.296Z</time>
      </trkpt>
      <trkpt lon="-104.159004" lat="39.369338">
        <ele>2140</ele>
        <time>2026-08-11T17:17:55.448Z</time>
      </trkpt>
      <trkpt lon="-104.159641" lat="39.369354">
        <ele>2135.9</ele>
        <time>2026-08-11T17:17:56.608Z</time>
      </trkpt>
      <trkpt lon="-104.160647" lat="39.369361">
        <ele>2121.92</ele>
        <time>2026-08-11T17:17:58.352Z</time>
      </trkpt>
      <trkpt lon="-104.162046" lat="39.369484">
        <ele>2101.61</ele>
        <time>2026-08-11T17:18:00.668Z</time>
      </trkpt>
      <trkpt lon="-104.162746" lat="39.369612">
        <ele>2095.52</ele>
        <time>2026-08-11T17:18:01.816Z</time>
      </trkpt>
      <trkpt lon="-104.164123" lat="39.369979">
        <ele>2094.18</ele>
        <time>2026-08-11T17:18:04.168Z</time>
      </trkpt>
      <trkpt lon="-104.166242" lat="39.370750">
        <ele>2115.47</ele>
        <time>2026-08-11T17:18:08.244Z</time>
      </trkpt>
      <trkpt lon="-104.168730" lat="39.371772">
        <ele>2125.3</ele>
        <time>2026-08-11T17:18:13.528Z</time>
      </trkpt>
      <trkpt lon="-104.168994" lat="39.371909">
        <ele>2123.46</ele>
        <time>2026-08-11T17:18:14.104Z</time>
      </trkpt>
      <trkpt lon="-104.169254" lat="39.372059">
        <ele>2121.32</ele>
        <time>2026-08-11T17:18:14.696Z</time>
      </trkpt>
      <trkpt lon="-104.169930" lat="39.372602">
        <ele>2114.02</ele>
        <time>2026-08-11T17:18:16.460Z</time>
      </trkpt>
      <trkpt lon="-104.170486" lat="39.373499">
        <ele>2100.37</ele>
        <time>2026-08-11T17:18:18.792Z</time>
      </trkpt>
      <trkpt lon="-104.170666" lat="39.373981">
        <ele>2094.15</ele>
        <time>2026-08-11T17:18:19.944Z</time>
      </trkpt>
      <trkpt lon="-104.171374" lat="39.377066">
        <ele>2066.41</ele>
        <time>2026-08-11T17:18:26.884Z</time>
      </trkpt>
      <trkpt lon="-104.171472" lat="39.378149">
        <ele>2061.09</ele>
        <time>2026-08-11T17:18:29.212Z</time>
      </trkpt>
      <trkpt lon="-104.171413" lat="39.381933">
        <ele>2062.26</ele>
        <time>2026-08-11T17:18:37.412Z</time>
      </trkpt>
      <trkpt lon="-104.170907" lat="39.385389">
        <ele>2051.14</ele>
        <time>2026-08-11T17:18:45.024Z</time>
      </trkpt>
      <trkpt lon="-104.169489" lat="39.390907">
        <ele>2025.8</ele>
        <time>2026-08-11T17:18:57.236Z</time>
      </trkpt>
      <trkpt lon="-104.169138" lat="39.392213">
        <ele>2027.33</ele>
        <time>2026-08-11T17:19:00.132Z</time>
      </trkpt>
      <trkpt lon="-104.168942" lat="39.392951">
        <ele>2037.76</ele>
        <time>2026-08-11T17:19:01.880Z</time>
      </trkpt>
      <trkpt lon="-104.168543" lat="39.394528">
        <ele>2067.83</ele>
        <time>2026-08-11T17:19:05.920Z</time>
      </trkpt>
      <trkpt lon="-104.168457" lat="39.394949">
        <ele>2076.53</ele>
        <time>2026-08-11T17:19:07.084Z</time>
      </trkpt>
      <trkpt lon="-104.168383" lat="39.395365">
        <ele>2082.97</ele>
        <time>2026-08-11T17:19:08.248Z</time>
      </trkpt>
      <trkpt lon="-104.168252" lat="39.396215">
        <ele>2084.59</ele>
        <time>2026-08-11T17:19:10.580Z</time>
      </trkpt>
      <trkpt lon="-104.168152" lat="39.397338">
        <ele>2078.71</ele>
        <time>2026-08-11T17:19:13.500Z</time>
      </trkpt>
      <trkpt lon="-104.168036" lat="39.398976">
        <ele>2081.44</ele>
        <time>2026-08-11T17:19:17.568Z</time>
      </trkpt>
      <trkpt lon="-104.167917" lat="39.400330">
        <ele>2096.69</ele>
        <time>2026-08-11T17:19:21.048Z</time>
      </trkpt>
      <trkpt lon="-104.167752" lat="39.402359">
        <ele>2102.7</ele>
        <time>2026-08-11T17:19:26.256Z</time>
      </trkpt>
      <trkpt lon="-104.167638" lat="39.403062">
        <ele>2100.47</ele>
        <time>2026-08-11T17:19:27.976Z</time>
      </trkpt>
      <trkpt lon="-104.167364" lat="39.404232">
        <ele>2105.75</ele>
        <time>2026-08-11T17:19:30.912Z</time>
      </trkpt>
      <trkpt lon="-104.167208" lat="39.404929">
        <ele>2104.93</ele>
        <time>2026-08-11T17:19:32.668Z</time>
      </trkpt>
      <trkpt lon="-104.166799" lat="39.407162">
        <ele>2078.84</ele>
        <time>2026-08-11T17:19:37.908Z</time>
      </trkpt>
      <trkpt lon="-104.166162" lat="39.410074">
        <ele>2067.02</ele>
        <time>2026-08-11T17:19:44.320Z</time>
      </trkpt>
      <trkpt lon="-104.161928" lat="39.423214">
        <ele>2081.91</ele>
        <time>2026-08-11T17:20:14.636Z</time>
      </trkpt>
      <trkpt lon="-104.160628" lat="39.427660">
        <ele>2076.82</ele>
        <time>2026-08-11T17:20:25.152Z</time>
      </trkpt>
      <trkpt lon="-104.160404" lat="39.428848">
        <ele>2088.66</ele>
        <time>2026-08-11T17:20:28.060Z</time>
      </trkpt>
      <trkpt lon="-104.159891" lat="39.432126">
        <ele>2119.85</ele>
        <time>2026-08-11T17:20:36.248Z</time>
      </trkpt>
      <trkpt lon="-104.158900" lat="39.438093">
        <ele>2139.45</ele>
        <time>2026-08-11T17:20:51.356Z</time>
      </trkpt>
      <trkpt lon="-104.155821" lat="39.448570">
        <ele>2155.41</ele>
        <time>2026-08-11T17:21:17.552Z</time>
      </trkpt>
      <trkpt lon="-104.155124" lat="39.449941">
        <ele>2156.8</ele>
        <time>2026-08-11T17:21:21.056Z</time>
      </trkpt>
      <trkpt lon="-104.150977" lat="39.456247">
        <ele>2164.51</ele>
        <time>2026-08-11T17:21:38.020Z</time>
      </trkpt>
      <trkpt lon="-104.146944" lat="39.461665">
        <ele>2200.29</ele>
        <time>2026-08-11T17:21:53.148Z</time>
      </trkpt>
      <trkpt lon="-104.145610" lat="39.463447">
        <ele>2220.45</ele>
        <time>2026-08-11T17:21:58.416Z</time>
      </trkpt>
      <trkpt lon="-104.143951" lat="39.465618">
        <ele>2228.5</ele>
        <time>2026-08-11T17:22:04.792Z</time>
      </trkpt>
      <trkpt lon="-104.141313" lat="39.468654">
        <ele>2229.83</ele>
        <time>2026-08-11T17:22:13.564Z</time>
      </trkpt>
      <trkpt lon="-104.139695" lat="39.470314">
        <ele>2218.47</ele>
        <time>2026-08-11T17:22:18.232Z</time>
      </trkpt>
      <trkpt lon="-104.133595" lat="39.476126">
        <ele>2235.11</ele>
        <time>2026-08-11T17:22:35.108Z</time>
      </trkpt>
      <trkpt lon="-104.127479" lat="39.483396">
        <ele>2254.44</ele>
        <time>2026-08-11T17:22:54.920Z</time>
      </trkpt>
      <trkpt lon="-104.124459" lat="39.487398">
        <ele>2272.91</ele>
        <time>2026-08-11T17:23:06.036Z</time>
      </trkpt>
      <trkpt lon="-104.121348" lat="39.492024">
        <ele>2247.17</ele>
        <time>2026-08-11T17:23:18.360Z</time>
      </trkpt>
      <trkpt lon="-104.120250" lat="39.493326">
        <ele>2247.74</ele>
        <time>2026-08-11T17:23:21.836Z</time>
      </trkpt>
      <trkpt lon="-104.117745" lat="39.495836">
        <ele>2268.31</ele>
        <time>2026-08-11T17:23:29.384Z</time>
      </trkpt>
      <trkpt lon="-104.114125" lat="39.499616">
        <ele>2254.79</ele>
        <time>2026-08-11T17:23:40.404Z</time>
      </trkpt>
      <trkpt lon="-104.109656" lat="39.504328">
        <ele>2264.47</ele>
        <time>2026-08-11T17:23:53.760Z</time>
      </trkpt>
      <trkpt lon="-104.102680" lat="39.512878">
        <ele>2225.92</ele>
        <time>2026-08-11T17:24:15.960Z</time>
      </trkpt>
      <trkpt lon="-104.101083" lat="39.515365">
        <ele>2198.3</ele>
        <time>2026-08-11T17:24:21.788Z</time>
      </trkpt>
      <trkpt lon="-104.099937" lat="39.516865">
        <ele>2180.27</ele>
        <time>2026-08-11T17:24:25.300Z</time>
      </trkpt>
      <trkpt lon="-104.095672" lat="39.521495">
        <ele>2141.77</ele>
        <time>2026-08-11T17:24:36.432Z</time>
      </trkpt>
      <trkpt lon="-104.092402" lat="39.524911">
        <ele>2104.3</ele>
        <time>2026-08-11T17:24:44.584Z</time>
      </trkpt>
      <trkpt lon="-104.089238" lat="39.528245">
        <ele>2108.21</ele>
        <time>2026-08-11T17:24:52.720Z</time>
      </trkpt>
      <trkpt lon="-104.080373" lat="39.538891">
        <ele>2097.42</ele>
        <time>2026-08-11T17:25:19.572Z</time>
      </trkpt>
      <trkpt lon="-104.077523" lat="39.543153">
        <ele>2087.6</ele>
        <time>2026-08-11T17:25:30.036Z</time>
      </trkpt>
      <trkpt lon="-104.071161" lat="39.554465">
        <ele>2050.9</ele>
        <time>2026-08-11T17:25:56.796Z</time>
      </trkpt>
      <trkpt lon="-104.069083" lat="39.558027">
        <ele>2033.19</ele>
        <time>2026-08-11T17:26:04.972Z</time>
      </trkpt>
      <trkpt lon="-104.065532" lat="39.563499">
        <ele>2000.6</ele>
        <time>2026-08-11T17:26:17.880Z</time>
      </trkpt>
      <trkpt lon="-104.064062" lat="39.566160">
        <ele>1969.13</ele>
        <time>2026-08-11T17:26:23.720Z</time>
      </trkpt>
      <trkpt lon="-104.063317" lat="39.567547">
        <ele>1940.5</ele>
        <time>2026-08-11T17:26:26.624Z</time>
      </trkpt>
      <trkpt lon="-104.062462" lat="39.568988">
        <ele>1912.86</ele>
        <time>2026-08-11T17:26:29.524Z</time>
      </trkpt>
      <trkpt lon="-104.057154" lat="39.576265">
        <ele>1898.47</ele>
        <time>2026-08-11T17:26:45.288Z</time>
      </trkpt>
      <trkpt lon="-104.053209" lat="39.581373">
        <ele>1893.01</ele>
        <time>2026-08-11T17:26:57.016Z</time>
      </trkpt>
      <trkpt lon="-104.045695" lat="39.593596">
        <ele>1886.77</ele>
        <time>2026-08-11T17:27:25.652Z</time>
      </trkpt>
      <trkpt lon="-104.042958" lat="39.598503">
        <ele>1858.17</ele>
        <time>2026-08-11T17:27:36.800Z</time>
      </trkpt>
      <trkpt lon="-104.042291" lat="39.599515">
        <ele>1854.19</ele>
        <time>2026-08-11T17:27:39.128Z</time>
      </trkpt>
      <trkpt lon="-104.039245" lat="39.603400">
        <ele>1838.03</ele>
        <time>2026-08-11T17:27:48.460Z</time>
      </trkpt>
      <trkpt lon="-104.037218" lat="39.605635">
        <ele>1846.94</ele>
        <time>2026-08-11T17:27:54.268Z</time>
      </trkpt>
      <trkpt lon="-104.036180" lat="39.607009">
        <ele>1837.7</ele>
        <time>2026-08-11T17:27:57.764Z</time>
      </trkpt>
      <trkpt lon="-104.035701" lat="39.607734">
        <ele>1832.28</ele>
        <time>2026-08-11T17:27:59.516Z</time>
      </trkpt>
      <trkpt lon="-104.035426" lat="39.608224">
        <ele>1829.29</ele>
        <time>2026-08-11T17:28:00.672Z</time>
      </trkpt>
      <trkpt lon="-104.034858" lat="39.609501">
        <ele>1823.75</ele>
        <time>2026-08-11T17:28:03.580Z</time>
      </trkpt>
      <trkpt lon="-104.031938" lat="39.617198">
        <ele>1822</ele>
        <time>2026-08-11T17:28:21.060Z</time>
      </trkpt>
      <trkpt lon="-104.031331" lat="39.619037">
        <ele>1807.1</ele>
        <time>2026-08-11T17:28:25.128Z</time>
      </trkpt>
      <trkpt lon="-104.027022" lat="39.632582">
        <ele>1806.1</ele>
        <time>2026-08-11T17:28:55.448Z</time>
      </trkpt>
      <trkpt lon="-104.026607" lat="39.633615">
        <ele>1806.77</ele>
        <time>2026-08-11T17:28:57.792Z</time>
      </trkpt>
      <trkpt lon="-104.025009" lat="39.637179">
        <ele>1822.04</ele>
        <time>2026-08-11T17:29:06.508Z</time>
      </trkpt>
      <trkpt lon="-104.019860" lat="39.650263">
        <ele>1814.86</ele>
        <time>2026-08-11T17:29:36.808Z</time>
      </trkpt>
      <trkpt lon="-104.017758" lat="39.654934">
        <ele>1791.71</ele>
        <time>2026-08-11T17:29:47.344Z</time>
      </trkpt>
      <trkpt lon="-104.014626" lat="39.662653">
        <ele>1787.34</ele>
        <time>2026-08-11T17:30:04.236Z</time>
      </trkpt>
      <trkpt lon="-104.013129" lat="39.665261">
        <ele>1762.43</ele>
        <time>2026-08-11T17:30:10.096Z</time>
      </trkpt>
      <trkpt lon="-104.009352" lat="39.671992">
        <ele>1738.57</ele>
        <time>2026-08-11T17:30:25.268Z</time>
      </trkpt>
      <trkpt lon="-104.005980" lat="39.678826">
        <ele>1741.76</ele>
        <time>2026-08-11T17:30:41.080Z</time>
      </trkpt>
      <trkpt lon="-104.003509" lat="39.685501">
        <ele>1739.7</ele>
        <time>2026-08-11T17:30:56.868Z</time>
      </trkpt>
      <trkpt lon="-104.000135" lat="39.695586">
        <ele>1732.34</ele>
        <time>2026-08-11T17:31:20.252Z</time>
      </trkpt>
      <trkpt lon="-103.999512" lat="39.697194">
        <ele>1706.87</ele>
        <time>2026-08-11T17:31:23.756Z</time>
      </trkpt>
      <trkpt lon="-103.999281" lat="39.697749">
        <ele>1698.2</ele>
        <time>2026-08-11T17:31:24.920Z</time>
      </trkpt>
      <trkpt lon="-103.993134" lat="39.709324">
        <ele>1711.34</ele>
        <time>2026-08-11T17:31:51.204Z</time>
      </trkpt>
      <trkpt lon="-103.991675" lat="39.712219">
        <ele>1719.86</ele>
        <time>2026-08-11T17:31:58.212Z</time>
      </trkpt>
      <trkpt lon="-103.986677" lat="39.724976">
        <ele>1743.71</ele>
        <time>2026-08-11T17:32:28.472Z</time>
      </trkpt>
      <trkpt lon="-103.986121" lat="39.726534">
        <ele>1763.99</ele>
        <time>2026-08-11T17:32:32.576Z</time>
      </trkpt>
      <trkpt lon="-103.985952" lat="39.726963">
        <ele>1766.99</ele>
        <time>2026-08-11T17:32:33.732Z</time>
      </trkpt>
      <trkpt lon="-103.984949" lat="39.729083">
        <ele>1779.72</ele>
        <time>2026-08-11T17:32:39.552Z</time>
      </trkpt>
      <trkpt lon="-103.984219" lat="39.730473">
        <ele>1809.6</ele>
        <time>2026-08-11T17:32:43.628Z</time>
      </trkpt>
      <trkpt lon="-103.983623" lat="39.731681">
        <ele>1842.59</ele>
        <time>2026-08-11T17:32:47.704Z</time>
      </trkpt>
      <trkpt lon="-103.982894" lat="39.733587">
        <ele>1861.19</ele>
        <time>2026-08-11T17:32:54.116Z</time>
      </trkpt>
      <trkpt lon="-103.982272" lat="39.734876">
        <ele>1870.98</ele>
        <time>2026-08-11T17:32:58.188Z</time>
      </trkpt>
      <trkpt lon="-103.981398" lat="39.736470">
        <ele>1903.62</ele>
        <time>2026-08-11T17:33:03.488Z</time>
      </trkpt>
      <trkpt lon="-103.980949" lat="39.737188">
        <ele>1934.25</ele>
        <time>2026-08-11T17:33:06.392Z</time>
      </trkpt>
      <trkpt lon="-103.980563" lat="39.737798">
        <ele>1965.57</ele>
        <time>2026-08-11T17:33:09.304Z</time>
      </trkpt>
      <trkpt lon="-103.980363" lat="39.738097">
        <ele>1987.51</ele>
        <time>2026-08-11T17:33:11.040Z</time>
      </trkpt>
      <trkpt lon="-103.980074" lat="39.738583">
        <ele>2028.84</ele>
        <time>2026-08-11T17:33:14.556Z</time>
      </trkpt>
      <trkpt lon="-103.979956" lat="39.738802">
        <ele>2045.91</ele>
        <time>2026-08-11T17:33:16.276Z</time>
      </trkpt>
      <trkpt lon="-103.979624" lat="39.739662">
        <ele>2068.66</ele>
        <time>2026-08-11T17:33:22.680Z</time>
      </trkpt>
      <trkpt lon="-103.979555" lat="39.740042">
        <ele>2054.15</ele>
        <time>2026-08-11T17:33:24.416Z</time>
      </trkpt>
      <trkpt lon="-103.979492" lat="39.740351">
        <ele>2040.87</ele>
        <time>2026-08-11T17:33:25.580Z</time>
      </trkpt>
      <trkpt lon="-103.979411" lat="39.740704">
        <ele>2027.45</ele>
        <time>2026-08-11T17:33:26.724Z</time>
      </trkpt>
      <trkpt lon="-103.979273" lat="39.741320">
        <ele>2014.33</ele>
        <time>2026-08-11T17:33:28.464Z</time>
      </trkpt>
      <trkpt lon="-103.979108" lat="39.741963">
        <ele>2011.84</ele>
        <time>2026-08-11T17:33:30.208Z</time>
      </trkpt>
      <trkpt lon="-103.976977" lat="39.747067">
        <ele>2051.75</ele>
        <time>2026-08-11T17:33:44.752Z</time>
      </trkpt>
      <trkpt lon="-103.976037" lat="39.749564">
        <ele>2094.66</ele>
        <time>2026-08-11T17:33:52.332Z</time>
      </trkpt>
      <trkpt lon="-103.975835" lat="39.750276">
        <ele>2108.57</ele>
        <time>2026-08-11T17:33:54.636Z</time>
      </trkpt>
      <trkpt lon="-103.975446" lat="39.752278">
        <ele>2135.27</ele>
        <time>2026-08-11T17:34:01.048Z</time>
      </trkpt>
      <trkpt lon="-103.975185" lat="39.753526">
        <ele>2161.67</ele>
        <time>2026-08-11T17:34:05.084Z</time>
      </trkpt>
      <trkpt lon="-103.975042" lat="39.754338">
        <ele>2186.76</ele>
        <time>2026-08-11T17:34:07.996Z</time>
      </trkpt>
      <trkpt lon="-103.974858" lat="39.756459">
        <ele>2217.09</ele>
        <time>2026-08-11T17:34:15.548Z</time>
      </trkpt>
      <trkpt lon="-103.974683" lat="39.758296">
        <ele>2206.48</ele>
        <time>2026-08-11T17:34:20.760Z</time>
      </trkpt>
      <trkpt lon="-103.973669" lat="39.763745">
        <ele>2250.51</ele>
        <time>2026-08-11T17:34:36.428Z</time>
      </trkpt>
      <trkpt lon="-103.971765" lat="39.768769">
        <ele>2254.68</ele>
        <time>2026-08-11T17:34:50.396Z</time>
      </trkpt>
      <trkpt lon="-103.967991" lat="39.777647">
        <ele>2263.54</ele>
        <time>2026-08-11T17:35:13.572Z</time>
      </trkpt>
      <trkpt lon="-103.963306" lat="39.787384">
        <ele>2287.86</ele>
        <time>2026-08-11T17:35:38.544Z</time>
      </trkpt>
      <trkpt lon="-103.958691" lat="39.797843">
        <ele>2286.22</ele>
        <time>2026-08-11T17:36:04.648Z</time>
      </trkpt>
      <trkpt lon="-103.951826" lat="39.810119">
        <ele>2265.01</ele>
        <time>2026-08-11T17:36:34.804Z</time>
      </trkpt>
      <trkpt lon="-103.947567" lat="39.818235">
        <ele>2218.78</ele>
        <time>2026-08-11T17:36:54.556Z</time>
      </trkpt>
      <trkpt lon="-103.946562" lat="39.820075">
        <ele>2196.37</ele>
        <time>2026-08-11T17:36:58.624Z</time>
      </trkpt>
      <trkpt lon="-103.939530" lat="39.830732">
        <ele>2182.92</ele>
        <time>2026-08-11T17:37:23.600Z</time>
      </trkpt>
      <trkpt lon="-103.935897" lat="39.835019">
        <ele>2182.88</ele>
        <time>2026-08-11T17:37:34.648Z</time>
      </trkpt>
      <trkpt lon="-103.935474" lat="39.835733">
        <ele>2182.26</ele>
        <time>2026-08-11T17:37:36.424Z</time>
      </trkpt>
      <trkpt lon="-103.934803" lat="39.837458">
        <ele>2176.24</ele>
        <time>2026-08-11T17:37:40.492Z</time>
      </trkpt>
      <trkpt lon="-103.934134" lat="39.840510">
        <ele>2168.61</ele>
        <time>2026-08-11T17:37:47.456Z</time>
      </trkpt>
      <trkpt lon="-103.933336" lat="39.844890">
        <ele>2161.14</ele>
        <time>2026-08-11T17:37:57.308Z</time>
      </trkpt>
      <trkpt lon="-103.930669" lat="39.852368">
        <ele>2141.22</ele>
        <time>2026-08-11T17:38:14.084Z</time>
      </trkpt>
      <trkpt lon="-103.925529" lat="39.865215">
        <ele>2143.25</ele>
        <time>2026-08-11T17:38:44.304Z</time>
      </trkpt>
      <trkpt lon="-103.920544" lat="39.876517">
        <ele>2126.51</ele>
        <time>2026-08-11T17:39:12.256Z</time>
      </trkpt>
      <trkpt lon="-103.917453" lat="39.881595">
        <ele>2123.96</ele>
        <time>2026-08-11T17:39:25.024Z</time>
      </trkpt>
      <trkpt lon="-103.913675" lat="39.887066">
        <ele>2129.91</ele>
        <time>2026-08-11T17:39:39.564Z</time>
      </trkpt>
      <trkpt lon="-103.908962" lat="39.893946">
        <ele>2115.11</ele>
        <time>2026-08-11T17:39:57.560Z</time>
      </trkpt>
      <trkpt lon="-103.900367" lat="39.905442">
        <ele>2117.57</ele>
        <time>2026-08-11T17:40:27.752Z</time>
      </trkpt>
      <trkpt lon="-103.897419" lat="39.910098">
        <ele>2105.85</ele>
        <time>2026-08-11T17:40:39.348Z</time>
      </trkpt>
      <trkpt lon="-103.891739" lat="39.919732">
        <ele>2088.47</ele>
        <time>2026-08-11T17:41:02.484Z</time>
      </trkpt>
      <trkpt lon="-103.887335" lat="39.926719">
        <ele>2047.4</ele>
        <time>2026-08-11T17:41:19.352Z</time>
      </trkpt>
      <trkpt lon="-103.886496" lat="39.928528">
        <ele>2036.63</ele>
        <time>2026-08-11T17:41:23.420Z</time>
      </trkpt>
      <trkpt lon="-103.883334" lat="39.937879">
        <ele>2025.28</ele>
        <time>2026-08-11T17:41:44.296Z</time>
      </trkpt>
      <trkpt lon="-103.881046" lat="39.944986">
        <ele>2006.79</ele>
        <time>2026-08-11T17:42:00.584Z</time>
      </trkpt>
      <trkpt lon="-103.879200" lat="39.949888">
        <ele>2025.71</ele>
        <time>2026-08-11T17:42:12.204Z</time>
      </trkpt>
      <trkpt lon="-103.876442" lat="39.958983">
        <ele>2049.8</ele>
        <time>2026-08-11T17:42:34.884Z</time>
      </trkpt>
      <trkpt lon="-103.875468" lat="39.962548">
        <ele>2057.14</ele>
        <time>2026-08-11T17:42:43.648Z</time>
      </trkpt>
      <trkpt lon="-103.874789" lat="39.964815">
        <ele>2097.18</ele>
        <time>2026-08-11T17:42:50.024Z</time>
      </trkpt>
      <trkpt lon="-103.874354" lat="39.966471">
        <ele>2131.64</ele>
        <time>2026-08-11T17:42:55.212Z</time>
      </trkpt>
      <trkpt lon="-103.874149" lat="39.967338">
        <ele>2149.81</ele>
        <time>2026-08-11T17:42:58.112Z</time>
      </trkpt>
      <trkpt lon="-103.874041" lat="39.967876">
        <ele>2154.6</ele>
        <time>2026-08-11T17:42:59.868Z</time>
      </trkpt>
      <trkpt lon="-103.873454" lat="39.970029">
        <ele>2158.46</ele>
        <time>2026-08-11T17:43:06.240Z</time>
      </trkpt>
      <trkpt lon="-103.871805" lat="39.974394">
        <ele>2209.76</ele>
        <time>2026-08-11T17:43:19.060Z</time>
      </trkpt>
      <trkpt lon="-103.869890" lat="39.978637">
        <ele>2253.83</ele>
        <time>2026-08-11T17:43:32.392Z</time>
      </trkpt>
      <trkpt lon="-103.869264" lat="39.979775">
        <ele>2251.19</ele>
        <time>2026-08-11T17:43:35.860Z</time>
      </trkpt>
      <trkpt lon="-103.864072" lat="39.987748">
        <ele>2305.52</ele>
        <time>2026-08-11T17:43:59.788Z</time>
      </trkpt>
      <trkpt lon="-103.862863" lat="39.989759">
        <ele>2314.14</ele>
        <time>2026-08-11T17:44:05.584Z</time>
      </trkpt>
      <trkpt lon="-103.860839" lat="39.992550">
        <ele>2313.9</ele>
        <time>2026-08-11T17:44:13.696Z</time>
      </trkpt>
      <trkpt lon="-103.855056" lat="40.000025">
        <ele>2295.08</ele>
        <time>2026-08-11T17:44:34.048Z</time>
      </trkpt>
      <trkpt lon="-103.854303" lat="40.001454">
        <ele>2291.86</ele>
        <time>2026-08-11T17:44:37.544Z</time>
      </trkpt>
      <trkpt lon="-103.848669" lat="40.013545">
        <ele>2295.62</ele>
        <time>2026-08-11T17:45:07.720Z</time>
      </trkpt>
      <trkpt lon="-103.846767" lat="40.017818">
        <ele>2270.79</ele>
        <time>2026-08-11T17:45:17.556Z</time>
      </trkpt>
      <trkpt lon="-103.843256" lat="40.024082">
        <ele>2233.98</ele>
        <time>2026-08-11T17:45:31.496Z</time>
      </trkpt>
      <trkpt lon="-103.839304" lat="40.030409">
        <ele>2234.05</ele>
        <time>2026-08-11T17:45:46.048Z</time>
      </trkpt>
      <trkpt lon="-103.838638" lat="40.031552">
        <ele>2245.3</ele>
        <time>2026-08-11T17:45:48.932Z</time>
      </trkpt>
      <trkpt lon="-103.837229" lat="40.034754">
        <ele>2247.03</ele>
        <time>2026-08-11T17:45:57.048Z</time>
      </trkpt>
      <trkpt lon="-103.832393" lat="40.047466">
        <ele>2221.46</ele>
        <time>2026-08-11T17:46:27.228Z</time>
      </trkpt>
      <trkpt lon="-103.828877" lat="40.059108">
        <ele>2183.11</ele>
        <time>2026-08-11T17:46:54.380Z</time>
      </trkpt>
      <trkpt lon="-103.828466" lat="40.059878">
        <ele>2171.09</ele>
        <time>2026-08-11T17:46:56.104Z</time>
      </trkpt>
      <trkpt lon="-103.826993" lat="40.062396">
        <ele>2164.98</ele>
        <time>2026-08-11T17:47:01.956Z</time>
      </trkpt>
      <trkpt lon="-103.825950" lat="40.064562">
        <ele>2184.77</ele>
        <time>2026-08-11T17:47:07.192Z</time>
      </trkpt>
      <trkpt lon="-103.825158" lat="40.066767">
        <ele>2206.95</ele>
        <time>2026-08-11T17:47:12.972Z</time>
      </trkpt>
      <trkpt lon="-103.824382" lat="40.070002">
        <ele>2186.37</ele>
        <time>2026-08-11T17:47:21.092Z</time>
      </trkpt>
      <trkpt lon="-103.824168" lat="40.071006">
        <ele>2179.48</ele>
        <time>2026-08-11T17:47:23.408Z</time>
      </trkpt>
      <trkpt lon="-103.823302" lat="40.073485">
        <ele>2182.04</ele>
        <time>2026-08-11T17:47:29.188Z</time>
      </trkpt>
      <trkpt lon="-103.822956" lat="40.074199">
        <ele>2181.82</ele>
        <time>2026-08-11T17:47:30.928Z</time>
      </trkpt>
      <trkpt lon="-103.819796" lat="40.080140">
        <ele>2165.64</ele>
        <time>2026-08-11T17:47:45.508Z</time>
      </trkpt>
      <trkpt lon="-103.819262" lat="40.080846">
        <ele>2161.84</ele>
        <time>2026-08-11T17:47:47.260Z</time>
      </trkpt>
      <trkpt lon="-103.818423" lat="40.081745">
        <ele>2161.36</ele>
        <time>2026-08-11T17:47:49.620Z</time>
      </trkpt>
      <trkpt lon="-103.817669" lat="40.082595">
        <ele>2174.85</ele>
        <time>2026-08-11T17:47:51.948Z</time>
      </trkpt>
      <trkpt lon="-103.817376" lat="40.083011">
        <ele>2184.65</ele>
        <time>2026-08-11T17:47:53.104Z</time>
      </trkpt>
      <trkpt lon="-103.816962" lat="40.083855">
        <ele>2200.63</ele>
        <time>2026-08-11T17:47:55.416Z</time>
      </trkpt>
      <trkpt lon="-103.816836" lat="40.084289">
        <ele>2203.75</ele>
        <time>2026-08-11T17:47:56.588Z</time>
      </trkpt>
      <trkpt lon="-103.816780" lat="40.084519">
        <ele>2203.2</ele>
        <time>2026-08-11T17:47:57.176Z</time>
      </trkpt>
      <trkpt lon="-103.816590" lat="40.085433">
        <ele>2186.79</ele>
        <time>2026-08-11T17:47:59.484Z</time>
      </trkpt>
      <trkpt lon="-103.816289" lat="40.086963">
        <ele>2152.25</ele>
        <time>2026-08-11T17:48:02.972Z</time>
      </trkpt>
      <trkpt lon="-103.816131" lat="40.087509">
        <ele>2140.02</ele>
        <time>2026-08-11T17:48:04.192Z</time>
      </trkpt>
      <trkpt lon="-103.815767" lat="40.088355">
        <ele>2123.63</ele>
        <time>2026-08-11T17:48:05.928Z</time>
      </trkpt>
      <trkpt lon="-103.815424" lat="40.088889">
        <ele>2114</ele>
        <time>2026-08-11T17:48:07.084Z</time>
      </trkpt>
      <trkpt lon="-103.814993" lat="40.089392">
        <ele>2104.51</ele>
        <time>2026-08-11T17:48:08.244Z</time>
      </trkpt>
      <trkpt lon="-103.814461" lat="40.089852">
        <ele>2096.2</ele>
        <time>2026-08-11T17:48:09.404Z</time>
      </trkpt>
      <trkpt lon="-103.813858" lat="40.090262">
        <ele>2093.04</ele>
        <time>2026-08-11T17:48:10.552Z</time>
      </trkpt>
      <trkpt lon="-103.812971" lat="40.090773">
        <ele>2106.9</ele>
        <time>2026-08-11T17:48:12.292Z</time>
      </trkpt>
      <trkpt lon="-103.812693" lat="40.090923">
        <ele>2113.26</ele>
        <time>2026-08-11T17:48:12.920Z</time>
      </trkpt>
      <trkpt lon="-103.811318" lat="40.091720">
        <ele>2117.15</ele>
        <time>2026-08-11T17:48:15.864Z</time>
      </trkpt>
      <trkpt lon="-103.810288" lat="40.092422">
        <ele>2096.9</ele>
        <time>2026-08-11T17:48:18.196Z</time>
      </trkpt>
      <trkpt lon="-103.809064" lat="40.093454">
        <ele>2071.02</ele>
        <time>2026-08-11T17:48:21.128Z</time>
      </trkpt>
      <trkpt lon="-103.807508" lat="40.095135">
        <ele>2034.66</ele>
        <time>2026-08-11T17:48:25.200Z</time>
      </trkpt>
      <trkpt lon="-103.805462" lat="40.097788">
        <ele>2008.94</ele>
        <time>2026-08-11T17:48:31.016Z</time>
      </trkpt>
      <trkpt lon="-103.804246" lat="40.099653">
        <ele>2015.42</ele>
        <time>2026-08-11T17:48:35.112Z</time>
      </trkpt>
      <trkpt lon="-103.803567" lat="40.100973">
        <ele>2022.67</ele>
        <time>2026-08-11T17:48:38.060Z</time>
      </trkpt>
      <trkpt lon="-103.803275" lat="40.101759">
        <ele>2024.11</ele>
        <time>2026-08-11T17:48:39.808Z</time>
      </trkpt>
      <trkpt lon="-103.803094" lat="40.102553">
        <ele>2021.78</ele>
        <time>2026-08-11T17:48:41.544Z</time>
      </trkpt>
      <trkpt lon="-103.802872" lat="40.104827">
        <ele>1977.68</ele>
        <time>2026-08-11T17:48:46.272Z</time>
      </trkpt>
      <trkpt lon="-103.802716" lat="40.105501">
        <ele>1952.83</ele>
        <time>2026-08-11T17:48:47.724Z</time>
      </trkpt>
      <trkpt lon="-103.802457" lat="40.106171">
        <ele>1924.36</ele>
        <time>2026-08-11T17:48:48.920Z</time>
      </trkpt>
      <trkpt lon="-103.802099" lat="40.106789">
        <ele>1894.6</ele>
        <time>2026-08-11T17:48:50.100Z</time>
      </trkpt>
      <trkpt lon="-103.801641" lat="40.107381">
        <ele>1869.18</ele>
        <time>2026-08-11T17:48:51.260Z</time>
      </trkpt>
      <trkpt lon="-103.800122" lat="40.109156">
        <ele>1829.13</ele>
        <time>2026-08-11T17:48:54.760Z</time>
      </trkpt>
      <trkpt lon="-103.798842" lat="40.110727">
        <ele>1791.27</ele>
        <time>2026-08-11T17:48:57.720Z</time>
      </trkpt>
      <trkpt lon="-103.797886" lat="40.111963">
        <ele>1742.35</ele>
        <time>2026-08-11T17:49:00.032Z</time>
      </trkpt>
      <trkpt lon="-103.797391" lat="40.112596">
        <ele>1705.32</ele>
        <time>2026-08-11T17:49:01.200Z</time>
      </trkpt>
      <trkpt lon="-103.796859" lat="40.113246">
        <ele>1669.07</ele>
        <time>2026-08-11T17:49:02.368Z</time>
      </trkpt>
      <trkpt lon="-103.796267" lat="40.113916">
        <ele>1646.63</ele>
        <time>2026-08-11T17:49:03.528Z</time>
      </trkpt>
      <trkpt lon="-103.795665" lat="40.114562">
        <ele>1637.18</ele>
        <time>2026-08-11T17:49:04.672Z</time>
      </trkpt>
      <trkpt lon="-103.795086" lat="40.115205">
        <ele>1632.41</ele>
        <time>2026-08-11T17:49:05.824Z</time>
      </trkpt>
      <trkpt lon="-103.793026" lat="40.117409">
        <ele>1596.78</ele>
        <time>2026-08-11T17:49:09.920Z</time>
      </trkpt>
      <trkpt lon="-103.792419" lat="40.118026">
        <ele>1569.65</ele>
        <time>2026-08-11T17:49:11.104Z</time>
      </trkpt>
      <trkpt lon="-103.791797" lat="40.118638">
        <ele>1539.06</ele>
        <time>2026-08-11T17:49:12.268Z</time>
      </trkpt>
      <trkpt lon="-103.791143" lat="40.119260">
        <ele>1508.63</ele>
        <time>2026-08-11T17:49:13.436Z</time>
      </trkpt>
      <trkpt lon="-103.790464" lat="40.119900">
        <ele>1479.81</ele>
        <time>2026-08-11T17:49:14.596Z</time>
      </trkpt>
      <trkpt lon="-103.789785" lat="40.120557">
        <ele>1454.54</ele>
        <time>2026-08-11T17:49:15.748Z</time>
      </trkpt>
      <trkpt lon="-103.789097" lat="40.121238">
        <ele>1433.36</ele>
        <time>2026-08-11T17:49:16.916Z</time>
      </trkpt>
      <trkpt lon="-103.787806" lat="40.122684">
        <ele>1416.31</ele>
        <time>2026-08-11T17:49:19.284Z</time>
      </trkpt>
      <trkpt lon="-103.787275" lat="40.123405">
        <ele>1419.67</ele>
        <time>2026-08-11T17:49:20.456Z</time>
      </trkpt>
      <trkpt lon="-103.785789" lat="40.125961">
        <ele>1415.2</ele>
        <time>2026-08-11T17:49:24.560Z</time>
      </trkpt>
      <trkpt lon="-103.785335" lat="40.127061">
        <ele>1414.85</ele>
        <time>2026-08-11T17:49:26.316Z</time>
      </trkpt>
      <trkpt lon="-103.785142" lat="40.127773">
        <ele>1422.29</ele>
        <time>2026-08-11T17:49:27.480Z</time>
      </trkpt>
      <trkpt lon="-103.785044" lat="40.128467">
        <ele>1433.72</ele>
        <time>2026-08-11T17:49:28.644Z</time>
      </trkpt>
      <trkpt lon="-103.785044" lat="40.129773">
        <ele>1457.51</ele>
        <time>2026-08-11T17:49:30.960Z</time>
      </trkpt>
      <trkpt lon="-103.785156" lat="40.130671">
        <ele>1482.5</ele>
        <time>2026-08-11T17:49:32.740Z</time>
      </trkpt>
      <trkpt lon="-103.785339" lat="40.131441">
        <ele>1512.98</ele>
        <time>2026-08-11T17:49:34.488Z</time>
      </trkpt>
      <trkpt lon="-103.785574" lat="40.132112">
        <ele>1542.71</ele>
        <time>2026-08-11T17:49:36.248Z</time>
      </trkpt>
      <trkpt lon="-103.785843" lat="40.132697">
        <ele>1572.26</ele>
        <time>2026-08-11T17:49:37.996Z</time>
      </trkpt>
      <trkpt lon="-103.786130" lat="40.133193">
        <ele>1602.25</ele>
        <time>2026-08-11T17:49:39.748Z</time>
      </trkpt>
      <trkpt lon="-103.786420" lat="40.133603">
        <ele>1631.27</ele>
        <time>2026-08-11T17:49:41.484Z</time>
      </trkpt>
      <trkpt lon="-103.786824" lat="40.134066">
        <ele>1664.17</ele>
        <time>2026-08-11T17:49:43.820Z</time>
      </trkpt>
      <trkpt lon="-103.787497" lat="40.134770">
        <ele>1678.79</ele>
        <time>2026-08-11T17:49:47.356Z</time>
      </trkpt>
      <trkpt lon="-103.787991" lat="40.135367">
        <ele>1668</ele>
        <time>2026-08-11T17:49:49.676Z</time>
      </trkpt>
      <trkpt lon="-103.788398" lat="40.135919">
        <ele>1654.21</ele>
        <time>2026-08-11T17:49:51.436Z</time>
      </trkpt>
      <trkpt lon="-103.788938" lat="40.136770">
        <ele>1638.98</ele>
        <time>2026-08-11T17:49:53.784Z</time>
      </trkpt>
      <trkpt lon="-103.791529" lat="40.142089">
        <ele>1652.17</ele>
        <time>2026-08-11T17:50:07.164Z</time>
      </trkpt>
      <trkpt lon="-103.796514" lat="40.151156">
        <ele>1649.02</ele>
        <time>2026-08-11T17:50:29.812Z</time>
      </trkpt>
      <trkpt lon="-103.797934" lat="40.153906">
        <ele>1679.43</ele>
        <time>2026-08-11T17:50:36.780Z</time>
      </trkpt>
      <trkpt lon="-103.803093" lat="40.162657">
        <ele>1672.27</ele>
        <time>2026-08-11T17:50:59.372Z</time>
      </trkpt>
      <trkpt lon="-103.803970" lat="40.164899">
        <ele>1675.15</ele>
        <time>2026-08-11T17:51:04.636Z</time>
      </trkpt>
      <trkpt lon="-103.805356" lat="40.170808">
        <ele>1681.82</ele>
        <time>2026-08-11T17:51:18.492Z</time>
      </trkpt>
      <trkpt lon="-103.807158" lat="40.177948">
        <ele>1672.34</ele>
        <time>2026-08-11T17:51:35.348Z</time>
      </trkpt>
      <trkpt lon="-103.808001" lat="40.180348">
        <ele>1668.03</ele>
        <time>2026-08-11T17:51:41.152Z</time>
      </trkpt>
      <trkpt lon="-103.808269" lat="40.181084">
        <ele>1665.24</ele>
        <time>2026-08-11T17:51:42.896Z</time>
      </trkpt>
      <trkpt lon="-103.809568" lat="40.184448">
        <ele>1673.64</ele>
        <time>2026-08-11T17:51:51.044Z</time>
      </trkpt>
      <trkpt lon="-103.812096" lat="40.190348">
        <ele>1661.67</ele>
        <time>2026-08-11T17:52:05.032Z</time>
      </trkpt>
      <trkpt lon="-103.813016" lat="40.192555">
        <ele>1627.66</ele>
        <time>2026-08-11T17:52:09.716Z</time>
      </trkpt>
      <trkpt lon="-103.813796" lat="40.194617">
        <ele>1598.62</ele>
        <time>2026-08-11T17:52:13.804Z</time>
      </trkpt>
      <trkpt lon="-103.815609" lat="40.199696">
        <ele>1572.09</ele>
        <time>2026-08-11T17:52:23.648Z</time>
      </trkpt>
      <trkpt lon="-103.818212" lat="40.206392">
        <ele>1546.89</ele>
        <time>2026-08-11T17:52:37.032Z</time>
      </trkpt>
      <trkpt lon="-103.819782" lat="40.209517">
        <ele>1530.49</ele>
        <time>2026-08-11T17:52:43.432Z</time>
      </trkpt>
      <trkpt lon="-103.821894" lat="40.212850">
        <ele>1506.86</ele>
        <time>2026-08-11T17:52:50.440Z</time>
      </trkpt>
      <trkpt lon="-103.822841" lat="40.214568">
        <ele>1503.87</ele>
        <time>2026-08-11T17:52:53.944Z</time>
      </trkpt>
      <trkpt lon="-103.824189" lat="40.217264">
        <ele>1526.08</ele>
        <time>2026-08-11T17:52:59.760Z</time>
      </trkpt>
      <trkpt lon="-103.825071" lat="40.218972">
        <ele>1552.95</ele>
        <time>2026-08-11T17:53:03.832Z</time>
      </trkpt>
      <trkpt lon="-103.825691" lat="40.220032">
        <ele>1583.99</ele>
        <time>2026-08-11T17:53:06.760Z</time>
      </trkpt>
      <trkpt lon="-103.826060" lat="40.220607">
        <ele>1599.09</ele>
        <time>2026-08-11T17:53:08.488Z</time>
      </trkpt>
      <trkpt lon="-103.826852" lat="40.221711">
        <ele>1618.33</ele>
        <time>2026-08-11T17:53:11.996Z</time>
      </trkpt>
      <trkpt lon="-103.828413" lat="40.223862">
        <ele>1630.12</ele>
        <time>2026-08-11T17:53:18.428Z</time>
      </trkpt>
      <trkpt lon="-103.829664" lat="40.225826">
        <ele>1664.28</ele>
        <time>2026-08-11T17:53:24.252Z</time>
      </trkpt>
      <trkpt lon="-103.830558" lat="40.227271">
        <ele>1696.57</ele>
        <time>2026-08-11T17:53:28.920Z</time>
      </trkpt>
      <trkpt lon="-103.831790" lat="40.229137">
        <ele>1702.5</ele>
        <time>2026-08-11T17:53:34.784Z</time>
      </trkpt>
      <trkpt lon="-103.832916" lat="40.230774">
        <ele>1715.37</ele>
        <time>2026-08-11T17:53:39.432Z</time>
      </trkpt>
      <trkpt lon="-103.834500" lat="40.233426">
        <ele>1725.78</ele>
        <time>2026-08-11T17:53:46.400Z</time>
      </trkpt>
      <trkpt lon="-103.835208" lat="40.234756">
        <ele>1731.55</ele>
        <time>2026-08-11T17:53:49.928Z</time>
      </trkpt>
      <trkpt lon="-103.839622" lat="40.241533">
        <ele>1701.59</ele>
        <time>2026-08-11T17:54:07.416Z</time>
      </trkpt>
      <trkpt lon="-103.842260" lat="40.245083">
        <ele>1688.59</ele>
        <time>2026-08-11T17:54:16.156Z</time>
      </trkpt>
      <trkpt lon="-103.843748" lat="40.247974">
        <ele>1710.55</ele>
        <time>2026-08-11T17:54:23.168Z</time>
      </trkpt>
      <trkpt lon="-103.844376" lat="40.249632">
        <ele>1710.11</ele>
        <time>2026-08-11T17:54:27.212Z</time>
      </trkpt>
      <trkpt lon="-103.844602" lat="40.250646">
        <ele>1699.19</ele>
        <time>2026-08-11T17:54:29.540Z</time>
      </trkpt>
      <trkpt lon="-103.844765" lat="40.251985">
        <ele>1684.29</ele>
        <time>2026-08-11T17:54:32.440Z</time>
      </trkpt>
      <trkpt lon="-103.844964" lat="40.256291">
        <ele>1699.96</ele>
        <time>2026-08-11T17:54:41.752Z</time>
      </trkpt>
      <trkpt lon="-103.845361" lat="40.259962">
        <ele>1681.69</ele>
        <time>2026-08-11T17:54:50.508Z</time>
      </trkpt>
      <trkpt lon="-103.845212" lat="40.260495">
        <ele>1672.2</ele>
        <time>2026-08-11T17:54:51.668Z</time>
      </trkpt>
      <trkpt lon="-103.845105" lat="40.260760">
        <ele>1667.88</ele>
        <time>2026-08-11T17:54:52.248Z</time>
      </trkpt>
      <trkpt lon="-103.844824" lat="40.261289">
        <ele>1660.63</ele>
        <time>2026-08-11T17:54:53.416Z</time>
      </trkpt>
      <trkpt lon="-103.844474" lat="40.261784">
        <ele>1656.99</ele>
        <time>2026-08-11T17:54:54.572Z</time>
      </trkpt>
      <trkpt lon="-103.844064" lat="40.262250">
        <ele>1656.65</ele>
        <time>2026-08-11T17:54:55.732Z</time>
      </trkpt>
      <trkpt lon="-103.834370" lat="40.271066">
        <ele>1625.48</ele>
        <time>2026-08-11T17:55:19.596Z</time>
      </trkpt>
      <trkpt lon="-103.830898" lat="40.274806">
        <ele>1620.45</ele>
        <time>2026-08-11T17:55:28.896Z</time>
      </trkpt>
      <trkpt lon="-103.823123" lat="40.283664">
        <ele>1606.73</ele>
        <time>2026-08-11T17:55:51.052Z</time>
      </trkpt>
      <trkpt lon="-103.815789" lat="40.295951">
        <ele>1586.55</ele>
        <time>2026-08-11T17:56:19.008Z</time>
      </trkpt>
      <trkpt lon="-103.812627" lat="40.300793">
        <ele>1586.15</ele>
        <time>2026-08-11T17:56:30.124Z</time>
      </trkpt>
      <trkpt lon="-103.808538" lat="40.307608">
        <ele>1581.16</ele>
        <time>2026-08-11T17:56:45.784Z</time>
      </trkpt>
      <trkpt lon="-103.805381" lat="40.313815">
        <ele>1578.11</ele>
        <time>2026-08-11T17:56:59.772Z</time>
      </trkpt>
      <trkpt lon="-103.805251" lat="40.314065">
        <ele>1577.92</ele>
        <time>2026-08-11T17:57:00.348Z</time>
      </trkpt>
      <trkpt lon="-103.804885" lat="40.314840">
        <ele>1575.33</ele>
        <time>2026-08-11T17:57:02.084Z</time>
      </trkpt>
      <trkpt lon="-103.804773" lat="40.315102">
        <ele>1574.04</ele>
        <time>2026-08-11T17:57:02.668Z</time>
      </trkpt>
      <trkpt lon="-103.804327" lat="40.316174">
        <ele>1569.77</ele>
        <time>2026-08-11T17:57:04.976Z</time>
      </trkpt>
      <trkpt lon="-103.803214" lat="40.319608">
        <ele>1586.21</ele>
        <time>2026-08-11T17:57:12.568Z</time>
      </trkpt>
      <trkpt lon="-103.802619" lat="40.321988">
        <ele>1560.64</ele>
        <time>2026-08-11T17:57:17.792Z</time>
      </trkpt>
      <trkpt lon="-103.802391" lat="40.322841">
        <ele>1536.6</ele>
        <time>2026-08-11T17:57:19.536Z</time>
      </trkpt>
      <trkpt lon="-103.802062" lat="40.324055">
        <ele>1509.49</ele>
        <time>2026-08-11T17:57:21.872Z</time>
      </trkpt>
      <trkpt lon="-103.801798" lat="40.325348">
        <ele>1485.26</ele>
        <time>2026-08-11T17:57:24.224Z</time>
      </trkpt>
      <trkpt lon="-103.801498" lat="40.326925">
        <ele>1484.84</ele>
        <time>2026-08-11T17:57:27.120Z</time>
      </trkpt>
      <trkpt lon="-103.801327" lat="40.328034">
        <ele>1507.25</ele>
        <time>2026-08-11T17:57:29.448Z</time>
      </trkpt>
      <trkpt lon="-103.801210" lat="40.328806">
        <ele>1517.86</ele>
        <time>2026-08-11T17:57:31.212Z</time>
      </trkpt>
      <trkpt lon="-103.801139" lat="40.329284">
        <ele>1520.47</ele>
        <time>2026-08-11T17:57:32.368Z</time>
      </trkpt>
      <trkpt lon="-103.801064" lat="40.329966">
        <ele>1521.2</ele>
        <time>2026-08-11T17:57:34.100Z</time>
      </trkpt>
      <trkpt lon="-103.801083" lat="40.330612">
        <ele>1519.57</ele>
        <time>2026-08-11T17:57:35.860Z</time>
      </trkpt>
      <trkpt lon="-103.801720" lat="40.331918">
        <ele>1501.97</ele>
        <time>2026-08-11T17:57:39.872Z</time>
      </trkpt>
      <trkpt lon="-103.802503" lat="40.332758">
        <ele>1481.84</ele>
        <time>2026-08-11T17:57:42.808Z</time>
      </trkpt>
      <trkpt lon="-103.803455" lat="40.333745">
        <ele>1460.61</ele>
        <time>2026-08-11T17:57:46.300Z</time>
      </trkpt>
      <trkpt lon="-103.804337" lat="40.334681">
        <ele>1439.48</ele>
        <time>2026-08-11T17:57:49.776Z</time>
      </trkpt>
      <trkpt lon="-103.805338" lat="40.335812">
        <ele>1420.48</ele>
        <time>2026-08-11T17:57:54.440Z</time>
      </trkpt>
      <trkpt lon="-103.805549" lat="40.336079">
        <ele>1416.85</ele>
        <time>2026-08-11T17:57:55.624Z</time>
      </trkpt>
      <trkpt lon="-103.806705" lat="40.337630">
        <ele>1400.51</ele>
        <time>2026-08-11T17:58:03.180Z</time>
      </trkpt>
      <trkpt lon="-103.807626" lat="40.339017">
        <ele>1386.73</ele>
        <time>2026-08-11T17:58:11.312Z</time>
      </trkpt>
      <trkpt lon="-103.808301" lat="40.339965">
        <ele>1379.71</ele>
        <time>2026-08-11T17:58:18.864Z</time>
      </trkpt>
      <trkpt lon="-103.808684" lat="40.340484">
        <ele>1378</ele>
        <time>2026-08-11T17:58:24.664Z</time>
      </trkpt>
      <trkpt lon="-103.809173" lat="40.341251">
        <ele>1378.03</ele>
        <time>2026-08-11T17:58:33.416Z</time>
      </trkpt>
      <trkpt lon="-103.809291" lat="40.341450">
        <ele>1378</ele>
        <time>2026-08-11T17:58:35.748Z</time>
      </trkpt>
      <trkpt lon="-103.809814" lat="40.342201">
        <ele>1377.97</ele>
        <time>2026-08-11T17:58:45.652Z</time>
      </trkpt>
      <trkpt lon="-103.809830" lat="40.342215">
        <ele>1377.97</ele>
        <time>2026-08-11T17:58:46.228Z</time>
      </trkpt>
      <trkpt lon="-103.809845" lat="40.342223">
        <ele>1377.97</ele>
        <time>2026-08-11T17:58:46.804Z</time>
      </trkpt>
      <trkpt lon="-103.809862" lat="40.342228">
        <ele>1377.96</ele>
        <time>2026-08-11T17:58:47.388Z</time>
      </trkpt>
      <trkpt lon="-103.809881" lat="40.342230">
        <ele>1377.96</ele>
        <time>2026-08-11T17:58:47.968Z</time>
      </trkpt>
      <trkpt lon="-103.809900" lat="40.342228">
        <ele>1377.95</ele>
        <time>2026-08-11T17:58:48.548Z</time>
      </trkpt>
      <trkpt lon="-103.809915" lat="40.342222">
        <ele>1377.95</ele>
        <time>2026-08-11T17:58:49.156Z</time>
      </trkpt>
      <trkpt lon="-103.809926" lat="40.342212">
        <ele>1377.94</ele>
        <time>2026-08-11T17:58:49.748Z</time>
      </trkpt>
      <trkpt lon="-103.809931" lat="40.342198">
        <ele>1377.94</ele>
        <time>2026-08-11T17:58:50.312Z</time>
      </trkpt>
      <trkpt lon="-103.809932" lat="40.342183">
        <ele>1377.94</ele>
        <time>2026-08-11T17:58:50.908Z</time>
      </trkpt>
      <trkpt lon="-103.809926" lat="40.342169">
        <ele>1377.93</ele>
        <time>2026-08-11T17:58:51.488Z</time>
      </trkpt>
      <trkpt lon="-103.809918" lat="40.342155">
        <ele>1377.93</ele>
        <time>2026-08-11T17:58:52.064Z</time>
      </trkpt>
      <trkpt lon="-103.809897" lat="40.342128">
        <ele>1377.93</ele>
        <time>2026-08-11T17:58:53.228Z</time>
      </trkpt>
      <trkpt lon="-103.809772" lat="40.341981">
        <ele>1377.91</ele>
        <time>2026-08-11T17:58:59.612Z</time>
      </trkpt>
      <trkpt lon="-103.809516" lat="40.341630">
        <ele>1377.95</ele>
        <time>2026-08-11T17:59:10.108Z</time>
      </trkpt>
      <trkpt lon="-103.809171" lat="40.341140">
        <ele>1378.04</ele>
        <time>2026-08-11T17:59:20.664Z</time>
      </trkpt>
      <trkpt lon="-103.808761" lat="40.340579">
        <ele>1377.99</ele>
        <time>2026-08-11T17:59:31.148Z</time>
      </trkpt>
      <trkpt lon="-103.808334" lat="40.339989">
        <ele>1377.69</ele>
        <time>2026-08-11T17:59:41.660Z</time>
      </trkpt>
      <trkpt lon="-103.808010" lat="40.339511">
        <ele>1377.51</ele>
        <time>2026-08-11T17:59:51.000Z</time>
      </trkpt>
      <trkpt lon="-103.807889" lat="40.339349">
        <ele>1377.52</ele>
        <time>2026-08-11T18:00:11.884Z</time>
      </trkpt>
      <trkpt lon="-103.807484" lat="40.338766">
        <ele>1377.5</ele>
        <time>2026-08-11T18:00:22.344Z</time>
      </trkpt>
      <trkpt lon="-103.806969" lat="40.338009">
        <ele>1377.42</ele>
        <time>2026-08-11T18:00:32.768Z</time>
      </trkpt>
      <trkpt lon="-103.806407" lat="40.337222">
        <ele>1377.16</ele>
        <time>2026-08-11T18:00:43.236Z</time>
      </trkpt>
      <trkpt lon="-103.805853" lat="40.336428">
        <ele>1377.36</ele>
        <time>2026-08-11T18:00:53.696Z</time>
      </trkpt>
      <trkpt lon="-103.805332" lat="40.335647">
        <ele>1377.58</ele>
        <time>2026-08-11T18:01:04.164Z</time>
      </trkpt>
      <trkpt lon="-103.804786" lat="40.334904">
        <ele>1377.5</ele>
        <time>2026-08-11T18:01:14.696Z</time>
      </trkpt>
      <trkpt lon="-103.804307" lat="40.334238">
        <ele>1377.6</ele>
        <time>2026-08-11T18:01:24.736Z</time>
      </trkpt>
      <trkpt lon="-103.803843" lat="40.333609">
        <ele>1377.85</ele>
        <time>2026-08-11T18:01:35.244Z</time>
      </trkpt>
      <trkpt lon="-103.803444" lat="40.333032">
        <ele>1377.83</ele>
        <time>2026-08-11T18:01:45.252Z</time>
      </trkpt>
      <trkpt lon="-103.803039" lat="40.332431">
        <ele>1377.57</ele>
        <time>2026-08-11T18:01:55.804Z</time>
      </trkpt>
      <trkpt lon="-103.802751" lat="40.332007">
        <ele>1377.49</ele>
        <time>2026-08-11T18:02:03.372Z</time>
      </trkpt>
      <trkpt lon="-103.802582" lat="40.331791">
        <ele>1377.49</ele>
        <time>2026-08-11T18:02:07.476Z</time>
      </trkpt>
      <trkpt lon="-103.802457" lat="40.331602">
        <ele>1377.51</ele>
        <time>2026-08-11T18:02:10.980Z</time>
      </trkpt>
      <trkpt lon="-103.802445" lat="40.331570">
        <ele>1377.51</ele>
        <time>2026-08-11T18:02:11.560Z</time>
      </trkpt>
      <trkpt lon="-103.802446" lat="40.331538">
        <ele>1377.52</ele>
        <time>2026-08-11T18:02:12.136Z</time>
      </trkpt>
      <trkpt lon="-103.802459" lat="40.331508">
        <ele>1377.52</ele>
        <time>2026-08-11T18:02:12.724Z</time>
      </trkpt>
      <trkpt lon="-103.802482" lat="40.331482">
        <ele>1377.53</ele>
        <time>2026-08-11T18:02:13.316Z</time>
      </trkpt>
      <trkpt lon="-103.802539" lat="40.331438">
        <ele>1377.54</ele>
        <time>2026-08-11T18:02:14.500Z</time>
      </trkpt>
      <trkpt lon="-103.802569" lat="40.331421">
        <ele>1377.56</ele>
        <time>2026-08-11T18:02:15.080Z</time>
      </trkpt>
      <trkpt lon="-103.802635" lat="40.331392">
        <ele>1377.58</ele>
        <time>2026-08-11T18:02:16.232Z</time>
      </trkpt>
      <trkpt lon="-103.802834" lat="40.331312">
        <ele>1377.65</ele>
        <time>2026-08-11T18:02:19.756Z</time>
      </trkpt>
      <trkpt lon="-103.802919" lat="40.331264">
        <ele>1377.67</ele>
        <time>2026-08-11T18:02:21.488Z</time>
      </trkpt>
      <trkpt lon="-103.802970" lat="40.331230">
        <ele>1377.69</ele>
        <time>2026-08-11T18:02:22.640Z</time>
      </trkpt>
      <trkpt lon="-103.803022" lat="40.331198">
        <ele>1377.7</ele>
        <time>2026-08-11T18:02:23.824Z</time>
      </trkpt>
      <trkpt lon="-103.803064" lat="40.331162">
        <ele>1377.69</ele>
        <time>2026-08-11T18:02:24.988Z</time>
      </trkpt>
      <trkpt lon="-103.803079" lat="40.331142">
        <ele>1377.7</ele>
        <time>2026-08-11T18:02:25.564Z</time>
      </trkpt>
      <trkpt lon="-103.803090" lat="40.331120">
        <ele>1377.69</ele>
        <time>2026-08-11T18:02:26.140Z</time>
      </trkpt>
      <trkpt lon="-103.803096" lat="40.331099">
        <ele>1377.7</ele>
        <time>2026-08-11T18:02:26.724Z</time>
      </trkpt>
      <trkpt lon="-103.803100" lat="40.331057">
        <ele>1377.72</ele>
        <time>2026-08-11T18:02:27.876Z</time>
      </trkpt>
      <trkpt lon="-103.803099" lat="40.331036">
        <ele>1377.74</ele>
        <time>2026-08-11T18:02:28.472Z</time>
      </trkpt>
      <trkpt lon="-103.803095" lat="40.331016">
        <ele>1377.74</ele>
        <time>2026-08-11T18:02:29.060Z</time>
      </trkpt>
      <trkpt lon="-103.803082" lat="40.330978">
        <ele>1377.75</ele>
        <time>2026-08-11T18:02:30.220Z</time>
      </trkpt>
      <trkpt lon="-103.803066" lat="40.330940">
        <ele>1377.75</ele>
        <time>2026-08-11T18:02:31.380Z</time>
      </trkpt>
      <trkpt lon="-103.803024" lat="40.330868">
        <ele>1377.76</ele>
        <time>2026-08-11T18:02:33.700Z</time>
      </trkpt>
      <trkpt lon="-103.802855" lat="40.330606">
        <ele>1377.79</ele>
        <time>2026-08-11T18:02:42.496Z</time>
      </trkpt>
      <trkpt lon="-103.802798" lat="40.330544">
        <ele>1377.8</ele>
        <time>2026-08-11T18:02:44.808Z</time>
      </trkpt>
      <trkpt lon="-103.802789" lat="40.330527">
        <ele>1377.8</ele>
        <time>2026-08-11T18:02:45.392Z</time>
      </trkpt>
      <trkpt lon="-103.802776" lat="40.330492">
        <ele>1377.8</ele>
        <time>2026-08-11T18:02:46.556Z</time>
      </trkpt>
      <trkpt lon="-103.802767" lat="40.330455">
        <ele>1377.83</ele>
        <time>2026-08-11T18:02:47.712Z</time>
      </trkpt>
      <trkpt lon="-103.802761" lat="40.330394">
        <ele>1377.84</ele>
        <time>2026-08-11T18:02:49.468Z</time>
      </trkpt>
      <trkpt lon="-103.802769" lat="40.330127">
        <ele>1377.82</ele>
        <time>2026-08-11T18:02:55.844Z</time>
      </trkpt>
      <trkpt lon="-103.802782" lat="40.329621">
        <ele>1377.81</ele>
        <time>2026-08-11T18:03:06.396Z</time>
      </trkpt>
      <trkpt lon="-103.802816" lat="40.329101">
        <ele>1377.81</ele>
        <time>2026-08-11T18:03:16.872Z</time>
      </trkpt>
      <trkpt lon="-103.802816" lat="40.329017">
        <ele>1377.8</ele>
        <time>2026-08-11T18:03:18.608Z</time>
      </trkpt>
      <trkpt lon="-103.802806" lat="40.328886">
        <ele>1377.82</ele>
        <time>2026-08-11T18:03:22.692Z</time>
      </trkpt>
    </trkseg>
    <trkseg>
      <trkpt lon="-106.051510" lat="38.536057">
        <ele>2279.35</ele>
        <time>2026-08-14T15:38:04.800Z</time>
      </trkpt>
    </trkseg>
    <trkseg>
      <trkpt lon="-103.802661" lat="40.329017">
        <ele>1377.83</ele>
        <time>2026-08-14T15:49:21.960Z</time>
      </trkpt>
      <trkpt lon="-103.802647" lat="40.329016">
        <ele>1377.79</ele>
        <time>2026-08-14T16:13:15.548Z</time>
      </trkpt>
      <trkpt lon="-103.802633" lat="40.329011">
        <ele>1377.78</ele>
        <time>2026-08-14T16:13:16.728Z</time>
      </trkpt>
      <trkpt lon="-103.802619" lat="40.329000">
        <ele>1377.77</ele>
        <time>2026-08-14T16:13:17.912Z</time>
      </trkpt>
      <trkpt lon="-103.802609" lat="40.328981">
        <ele>1377.77</ele>
        <time>2026-08-14T16:13:19.088Z</time>
      </trkpt>
      <trkpt lon="-103.802607" lat="40.328971">
        <ele>1377.76</ele>
        <time>2026-08-14T16:13:19.688Z</time>
      </trkpt>
      <trkpt lon="-103.802607" lat="40.328960">
        <ele>1377.76</ele>
        <time>2026-08-14T16:13:20.656Z</time>
      </trkpt>
      <trkpt lon="-103.802616" lat="40.328828">
        <ele>1377.76</ele>
        <time>2026-08-14T16:13:27.768Z</time>
      </trkpt>
      <trkpt lon="-103.802619" lat="40.328819">
        <ele>1377.76</ele>
        <time>2026-08-14T16:13:28.356Z</time>
      </trkpt>
      <trkpt lon="-103.802634" lat="40.328802">
        <ele>1377.76</ele>
        <time>2026-08-14T16:13:29.588Z</time>
      </trkpt>
      <trkpt lon="-103.802646" lat="40.328795">
        <ele>1377.76</ele>
        <time>2026-08-14T16:13:30.188Z</time>
      </trkpt>
      <trkpt lon="-103.802661" lat="40.328790">
        <ele>1377.76</ele>
        <time>2026-08-14T16:13:30.800Z</time>
      </trkpt>
      <trkpt lon="-103.802676" lat="40.328788">
        <ele>1377.76</ele>
        <time>2026-08-14T16:13:31.408Z</time>
      </trkpt>
      <trkpt lon="-103.802692" lat="40.328788">
        <ele>1377.76</ele>
        <time>2026-08-14T16:13:32.012Z</time>
      </trkpt>
      <trkpt lon="-103.802707" lat="40.328791">
        <ele>1377.76</ele>
        <time>2026-08-14T16:13:32.588Z</time>
      </trkpt>
      <trkpt lon="-103.802721" lat="40.328797">
        <ele>1377.76</ele>
        <time>2026-08-14T16:13:33.176Z</time>
      </trkpt>
      <trkpt lon="-103.802733" lat="40.328806">
        <ele>1377.76</ele>
        <time>2026-08-14T16:13:33.768Z</time>
      </trkpt>
      <trkpt lon="-103.802742" lat="40.328817">
        <ele>1377.76</ele>
        <time>2026-08-14T16:13:34.360Z</time>
      </trkpt>
      <trkpt lon="-103.802748" lat="40.328830">
        <ele>1377.76</ele>
        <time>2026-08-14T16:13:34.944Z</time>
      </trkpt>
      <trkpt lon="-103.802755" lat="40.328857">
        <ele>1377.76</ele>
        <time>2026-08-14T16:13:36.144Z</time>
      </trkpt>
      <trkpt lon="-103.802790" lat="40.329043">
        <ele>1377.76</ele>
        <time>2026-08-14T16:13:46.232Z</time>
      </trkpt>
      <trkpt lon="-103.802805" lat="40.329177">
        <ele>1377.79</ele>
        <time>2026-08-14T16:13:54.576Z</time>
      </trkpt>
      <trkpt lon="-103.802799" lat="40.329452">
        <ele>1377.79</ele>
        <time>2026-08-14T16:14:04.692Z</time>
      </trkpt>
      <trkpt lon="-103.802777" lat="40.329814">
        <ele>1377.81</ele>
        <time>2026-08-14T16:14:14.828Z</time>
      </trkpt>
      <trkpt lon="-103.802774" lat="40.329858">
        <ele>1377.8</ele>
        <time>2026-08-14T16:14:19.620Z</time>
      </trkpt>
      <trkpt lon="-103.802766" lat="40.329953">
        <ele>1377.82</ele>
        <time>2026-08-14T16:14:25.548Z</time>
      </trkpt>
      <trkpt lon="-103.802767" lat="40.330144">
        <ele>1377.88</ele>
        <time>2026-08-14T16:14:35.668Z</time>
      </trkpt>
      <trkpt lon="-103.802778" lat="40.330401">
        <ele>1377.77</ele>
        <time>2026-08-14T16:14:41.584Z</time>
      </trkpt>
      <trkpt lon="-103.802796" lat="40.330476">
        <ele>1377.76</ele>
        <time>2026-08-14T16:14:43.364Z</time>
      </trkpt>
      <trkpt lon="-103.802829" lat="40.330570">
        <ele>1377.76</ele>
        <time>2026-08-14T16:14:45.728Z</time>
      </trkpt>
      <trkpt lon="-103.802830" lat="40.330594">
        <ele>1377.76</ele>
        <time>2026-08-14T16:14:46.312Z</time>
      </trkpt>
      <trkpt lon="-103.802826" lat="40.330618">
        <ele>1377.76</ele>
        <time>2026-08-14T16:14:46.912Z</time>
      </trkpt>
      <trkpt lon="-103.802817" lat="40.330640">
        <ele>1377.75</ele>
        <time>2026-08-14T16:14:47.496Z</time>
      </trkpt>
      <trkpt lon="-103.802804" lat="40.330662">
        <ele>1377.75</ele>
        <time>2026-08-14T16:14:48.088Z</time>
      </trkpt>
      <trkpt lon="-103.802770" lat="40.330700">
        <ele>1377.75</ele>
        <time>2026-08-14T16:14:49.264Z</time>
      </trkpt>
      <trkpt lon="-103.802748" lat="40.330718">
        <ele>1377.74</ele>
        <time>2026-08-14T16:14:49.864Z</time>
      </trkpt>
      <trkpt lon="-103.802726" lat="40.330733">
        <ele>1377.74</ele>
        <time>2026-08-14T16:14:50.444Z</time>
      </trkpt>
      <trkpt lon="-103.802692" lat="40.330750">
        <ele>1377.75</ele>
        <time>2026-08-14T16:14:51.636Z</time>
      </trkpt>
      <trkpt lon="-103.802654" lat="40.330767">
        <ele>1377.73</ele>
        <time>2026-08-14T16:15:01.688Z</time>
      </trkpt>
      <trkpt lon="-103.802600" lat="40.330789">
        <ele>1377.79</ele>
        <time>2026-08-14T16:15:11.740Z</time>
      </trkpt>
      <trkpt lon="-103.802237" lat="40.330945">
        <ele>1377.64</ele>
        <time>2026-08-14T16:15:19.364Z</time>
      </trkpt>
      <trkpt lon="-103.802172" lat="40.330986">
        <ele>1377.6</ele>
        <time>2026-08-14T16:15:20.552Z</time>
      </trkpt>
      <trkpt lon="-103.802146" lat="40.331010">
        <ele>1377.58</ele>
        <time>2026-08-14T16:15:21.128Z</time>
      </trkpt>
      <trkpt lon="-103.802124" lat="40.331037">
        <ele>1377.58</ele>
        <time>2026-08-14T16:15:21.724Z</time>
      </trkpt>
      <trkpt lon="-103.802110" lat="40.331066">
        <ele>1377.57</ele>
        <time>2026-08-14T16:15:22.308Z</time>
      </trkpt>
      <trkpt lon="-103.802105" lat="40.331096">
        <ele>1377.57</ele>
        <time>2026-08-14T16:15:22.908Z</time>
      </trkpt>
      <trkpt lon="-103.802107" lat="40.331126">
        <ele>1377.57</ele>
        <time>2026-08-14T16:15:23.492Z</time>
      </trkpt>
      <trkpt lon="-103.802114" lat="40.331155">
        <ele>1377.61</ele>
        <time>2026-08-14T16:15:24.072Z</time>
      </trkpt>
      <trkpt lon="-103.802141" lat="40.331216">
        <ele>1377.62</ele>
        <time>2026-08-14T16:15:25.236Z</time>
      </trkpt>
      <trkpt lon="-103.802274" lat="40.331432">
        <ele>1377.62</ele>
        <time>2026-08-14T16:15:28.828Z</time>
      </trkpt>
      <trkpt lon="-103.802629" lat="40.331962">
        <ele>1377.64</ele>
        <time>2026-08-14T16:15:34.772Z</time>
      </trkpt>
      <trkpt lon="-103.802791" lat="40.332166">
        <ele>1377.58</ele>
        <time>2026-08-14T16:15:36.568Z</time>
      </trkpt>
      <trkpt lon="-103.803712" lat="40.333602">
        <ele>1378.05</ele>
        <time>2026-08-14T16:15:46.584Z</time>
      </trkpt>
      <trkpt lon="-103.805655" lat="40.336430">
        <ele>1383.41</ele>
        <time>2026-08-14T16:16:04.936Z</time>
      </trkpt>
      <trkpt lon="-103.806857" lat="40.338111">
        <ele>1385.58</ele>
        <time>2026-08-14T16:16:13.228Z</time>
      </trkpt>
      <trkpt lon="-103.807324" lat="40.338776">
        <ele>1386.23</ele>
        <time>2026-08-14T16:16:16.184Z</time>
      </trkpt>
      <trkpt lon="-103.809557" lat="40.341703">
        <ele>1398.69</ele>
        <time>2026-08-14T16:16:28.560Z</time>
      </trkpt>
      <trkpt lon="-103.811395" lat="40.344574">
        <ele>1402.29</ele>
        <time>2026-08-14T16:16:38.228Z</time>
      </trkpt>
      <trkpt lon="-103.811845" lat="40.345356">
        <ele>1405.54</ele>
        <time>2026-08-14T16:16:40.656Z</time>
      </trkpt>
      <trkpt lon="-103.812255" lat="40.346334">
        <ele>1413.68</ele>
        <time>2026-08-14T16:16:43.644Z</time>
      </trkpt>
      <trkpt lon="-103.812456" lat="40.347110">
        <ele>1421.25</ele>
        <time>2026-08-14T16:16:46.012Z</time>
      </trkpt>
      <trkpt lon="-103.812578" lat="40.348275">
        <ele>1431.34</ele>
        <time>2026-08-14T16:16:49.584Z</time>
      </trkpt>
      <trkpt lon="-103.812542" lat="40.350216">
        <ele>1437.58</ele>
        <time>2026-08-14T16:16:55.444Z</time>
      </trkpt>
      <trkpt lon="-103.812407" lat="40.351024">
        <ele>1437.32</ele>
        <time>2026-08-14T16:16:57.808Z</time>
      </trkpt>
      <trkpt lon="-103.812278" lat="40.351471">
        <ele>1435.9</ele>
        <time>2026-08-14T16:16:59.092Z</time>
      </trkpt>
      <trkpt lon="-103.811941" lat="40.352291">
        <ele>1432.09</ele>
        <time>2026-08-14T16:17:01.428Z</time>
      </trkpt>
      <trkpt lon="-103.811592" lat="40.352914">
        <ele>1428.56</ele>
        <time>2026-08-14T16:17:03.204Z</time>
      </trkpt>
      <trkpt lon="-103.811158" lat="40.353525">
        <ele>1426.57</ele>
        <time>2026-08-14T16:17:04.976Z</time>
      </trkpt>
      <trkpt lon="-103.810639" lat="40.354109">
        <ele>1425.11</ele>
        <time>2026-08-14T16:17:06.740Z</time>
      </trkpt>
      <trkpt lon="-103.808615" lat="40.355923">
        <ele>1416.33</ele>
        <time>2026-08-14T16:17:12.460Z</time>
      </trkpt>
      <trkpt lon="-103.807398" lat="40.356834">
        <ele>1408.66</ele>
        <time>2026-08-14T16:17:15.416Z</time>
      </trkpt>
      <trkpt lon="-103.806118" lat="40.357760">
        <ele>1405.83</ele>
        <time>2026-08-14T16:17:18.408Z</time>
      </trkpt>
      <trkpt lon="-103.805185" lat="40.358513">
        <ele>1409.04</ele>
        <time>2026-08-14T16:17:20.752Z</time>
      </trkpt>
      <trkpt lon="-103.804580" lat="40.359116">
        <ele>1411.52</ele>
        <time>2026-08-14T16:17:22.516Z</time>
      </trkpt>
      <trkpt lon="-103.803748" lat="40.360192">
        <ele>1412.69</ele>
        <time>2026-08-14T16:17:25.460Z</time>
      </trkpt>
      <trkpt lon="-103.803497" lat="40.360638">
        <ele>1411.69</ele>
        <time>2026-08-14T16:17:26.624Z</time>
      </trkpt>
      <trkpt lon="-103.803163" lat="40.361597">
        <ele>1406.98</ele>
        <time>2026-08-14T16:17:29.000Z</time>
      </trkpt>
      <trkpt lon="-103.803044" lat="40.362323">
        <ele>1405.19</ele>
        <time>2026-08-14T16:17:30.792Z</time>
      </trkpt>
      <trkpt lon="-103.802943" lat="40.363980">
        <ele>1408.6</ele>
        <time>2026-08-14T16:17:34.916Z</time>
      </trkpt>
      <trkpt lon="-103.803184" lat="40.370473">
        <ele>1403.4</ele>
        <time>2026-08-14T16:17:52.300Z</time>
      </trkpt>
      <trkpt lon="-103.803024" lat="40.371371">
        <ele>1397.7</ele>
        <time>2026-08-14T16:17:54.632Z</time>
      </trkpt>
      <trkpt lon="-103.802884" lat="40.371818">
        <ele>1396</ele>
        <time>2026-08-14T16:17:55.808Z</time>
      </trkpt>
      <trkpt lon="-103.799954" lat="40.378378">
        <ele>1406.34</ele>
        <time>2026-08-14T16:18:13.416Z</time>
      </trkpt>
      <trkpt lon="-103.799752" lat="40.379112">
        <ele>1403.13</ele>
        <time>2026-08-14T16:18:15.168Z</time>
      </trkpt>
      <trkpt lon="-103.799591" lat="40.380118">
        <ele>1400.11</ele>
        <time>2026-08-14T16:18:17.496Z</time>
      </trkpt>
      <trkpt lon="-103.799572" lat="40.380903">
        <ele>1399.06</ele>
        <time>2026-08-14T16:18:19.260Z</time>
      </trkpt>
      <trkpt lon="-103.799703" lat="40.381957">
        <ele>1399.82</ele>
        <time>2026-08-14T16:18:21.636Z</time>
      </trkpt>
      <trkpt lon="-103.799824" lat="40.382472">
        <ele>1401.42</ele>
        <time>2026-08-14T16:18:22.816Z</time>
      </trkpt>
      <trkpt lon="-103.800352" lat="40.383954">
        <ele>1410.83</ele>
        <time>2026-08-14T16:18:26.336Z</time>
      </trkpt>
      <trkpt lon="-103.800583" lat="40.384423">
        <ele>1413.31</ele>
        <time>2026-08-14T16:18:27.524Z</time>
      </trkpt>
      <trkpt lon="-103.803103" lat="40.389268">
        <ele>1417.8</ele>
        <time>2026-08-14T16:18:39.280Z</time>
      </trkpt>
      <trkpt lon="-103.803921" lat="40.391351">
        <ele>1416.24</ele>
        <time>2026-08-14T16:18:44.048Z</time>
      </trkpt>
      <trkpt lon="-103.804202" lat="40.392419">
        <ele>1412.04</ele>
        <time>2026-08-14T16:18:46.372Z</time>
      </trkpt>
      <trkpt lon="-103.804459" lat="40.394088">
        <ele>1409.93</ele>
        <time>2026-08-14T16:18:49.916Z</time>
      </trkpt>
      <trkpt lon="-103.804503" lat="40.394925">
        <ele>1411.34</ele>
        <time>2026-08-14T16:18:51.680Z</time>
      </trkpt>
      <trkpt lon="-103.804515" lat="40.395474">
        <ele>1414.69</ele>
        <time>2026-08-14T16:18:52.860Z</time>
      </trkpt>
      <trkpt lon="-103.804542" lat="40.397318">
        <ele>1432.99</ele>
        <time>2026-08-14T16:18:56.980Z</time>
      </trkpt>
      <trkpt lon="-103.804382" lat="40.402085">
        <ele>1433.89</ele>
        <time>2026-08-14T16:19:07.596Z</time>
      </trkpt>
      <trkpt lon="-103.803821" lat="40.410602">
        <ele>1434.12</ele>
        <time>2026-08-14T16:19:25.780Z</time>
      </trkpt>
      <trkpt lon="-103.803863" lat="40.411441">
        <ele>1435.41</ele>
        <time>2026-08-14T16:19:27.548Z</time>
      </trkpt>
      <trkpt lon="-103.803915" lat="40.412271">
        <ele>1437.87</ele>
        <time>2026-08-14T16:19:29.300Z</time>
      </trkpt>
      <trkpt lon="-103.804003" lat="40.419492">
        <ele>1448.03</ele>
        <time>2026-08-14T16:19:44.648Z</time>
      </trkpt>
      <trkpt lon="-103.803711" lat="40.422330">
        <ele>1444.9</ele>
        <time>2026-08-14T16:19:50.616Z</time>
      </trkpt>
      <trkpt lon="-103.803522" lat="40.423168">
        <ele>1444.66</ele>
        <time>2026-08-14T16:19:52.376Z</time>
      </trkpt>
      <trkpt lon="-103.802937" lat="40.424804">
        <ele>1452.63</ele>
        <time>2026-08-14T16:19:55.924Z</time>
      </trkpt>
      <trkpt lon="-103.802247" lat="40.426096">
        <ele>1459.26</ele>
        <time>2026-08-14T16:19:58.904Z</time>
      </trkpt>
      <trkpt lon="-103.801578" lat="40.427078">
        <ele>1461.77</ele>
        <time>2026-08-14T16:20:01.260Z</time>
      </trkpt>
      <trkpt lon="-103.800584" lat="40.428552">
        <ele>1467.27</ele>
        <time>2026-08-14T16:20:04.836Z</time>
      </trkpt>
      <trkpt lon="-103.800328" lat="40.429063">
        <ele>1468.51</ele>
        <time>2026-08-14T16:20:06.028Z</time>
      </trkpt>
      <trkpt lon="-103.799963" lat="40.430113">
        <ele>1471.91</ele>
        <time>2026-08-14T16:20:08.392Z</time>
      </trkpt>
      <trkpt lon="-103.799842" lat="40.430644">
        <ele>1475.99</ele>
        <time>2026-08-14T16:20:09.596Z</time>
      </trkpt>
      <trkpt lon="-103.799718" lat="40.432189">
        <ele>1496.83</ele>
        <time>2026-08-14T16:20:13.172Z</time>
      </trkpt>
      <trkpt lon="-103.799775" lat="40.432933">
        <ele>1503.37</ele>
        <time>2026-08-14T16:20:14.956Z</time>
      </trkpt>
      <trkpt lon="-103.800184" lat="40.435680">
        <ele>1504.76</ele>
        <time>2026-08-14T16:20:21.364Z</time>
      </trkpt>
      <trkpt lon="-103.800212" lat="40.438722">
        <ele>1515.73</ele>
        <time>2026-08-14T16:20:28.404Z</time>
      </trkpt>
      <trkpt lon="-103.800379" lat="40.439767">
        <ele>1510.27</ele>
        <time>2026-08-14T16:20:30.760Z</time>
      </trkpt>
      <trkpt lon="-103.801093" lat="40.442766">
        <ele>1500.03</ele>
        <time>2026-08-14T16:20:37.212Z</time>
      </trkpt>
      <trkpt lon="-103.801512" lat="40.445445">
        <ele>1520.57</ele>
        <time>2026-08-14T16:20:43.096Z</time>
      </trkpt>
      <trkpt lon="-103.801845" lat="40.449205">
        <ele>1517.29</ele>
        <time>2026-08-14T16:20:51.288Z</time>
      </trkpt>
      <trkpt lon="-103.801831" lat="40.450647">
        <ele>1508.24</ele>
        <time>2026-08-14T16:20:54.244Z</time>
      </trkpt>
      <trkpt lon="-103.801541" lat="40.454555">
        <ele>1528.44</ele>
        <time>2026-08-14T16:21:02.420Z</time>
      </trkpt>
      <trkpt lon="-103.801623" lat="40.455879">
        <ele>1532.97</ele>
        <time>2026-08-14T16:21:05.348Z</time>
      </trkpt>
      <trkpt lon="-103.801723" lat="40.457798">
        <ele>1523.65</ele>
        <time>2026-08-14T16:21:09.452Z</time>
      </trkpt>
      <trkpt lon="-103.801534" lat="40.461049">
        <ele>1546.69</ele>
        <time>2026-08-14T16:21:16.456Z</time>
      </trkpt>
      <trkpt lon="-103.801398" lat="40.462785">
        <ele>1567.82</ele>
        <time>2026-08-14T16:21:20.560Z</time>
      </trkpt>
      <trkpt lon="-103.801371" lat="40.466103">
        <ele>1553.47</ele>
        <time>2026-08-14T16:21:28.076Z</time>
      </trkpt>
      <trkpt lon="-103.801338" lat="40.467238">
        <ele>1546.06</ele>
        <time>2026-08-14T16:21:30.424Z</time>
      </trkpt>
      <trkpt lon="-103.801206" lat="40.468102">
        <ele>1542.8</ele>
        <time>2026-08-14T16:21:32.184Z</time>
      </trkpt>
      <trkpt lon="-103.801051" lat="40.468662">
        <ele>1542.59</ele>
        <time>2026-08-14T16:21:33.324Z</time>
      </trkpt>
      <trkpt lon="-103.800537" lat="40.469996">
        <ele>1556.81</ele>
        <time>2026-08-14T16:21:36.372Z</time>
      </trkpt>
      <trkpt lon="-103.800449" lat="40.470309">
        <ele>1564.21</ele>
        <time>2026-08-14T16:21:36.952Z</time>
      </trkpt>
      <trkpt lon="-103.800375" lat="40.470790">
        <ele>1576.61</ele>
        <time>2026-08-14T16:21:38.108Z</time>
      </trkpt>
      <trkpt lon="-103.800361" lat="40.471715">
        <ele>1595.8</ele>
        <time>2026-08-14T16:21:40.440Z</time>
      </trkpt>
      <trkpt lon="-103.800427" lat="40.473896">
        <ele>1588.78</ele>
        <time>2026-08-14T16:21:45.772Z</time>
      </trkpt>
      <trkpt lon="-103.800392" lat="40.474970">
        <ele>1573.94</ele>
        <time>2026-08-14T16:21:48.116Z</time>
      </trkpt>
      <trkpt lon="-103.800083" lat="40.478249">
        <ele>1589.6</ele>
        <time>2026-08-14T16:21:55.104Z</time>
      </trkpt>
      <trkpt lon="-103.800068" lat="40.479475">
        <ele>1614.81</ele>
        <time>2026-08-14T16:21:58.036Z</time>
      </trkpt>
      <trkpt lon="-103.800127" lat="40.480631">
        <ele>1629.9</ele>
        <time>2026-08-14T16:22:00.948Z</time>
      </trkpt>
      <trkpt lon="-103.800208" lat="40.482072">
        <ele>1623.97</ele>
        <time>2026-08-14T16:22:04.436Z</time>
      </trkpt>
      <trkpt lon="-103.800187" lat="40.482863">
        <ele>1617.95</ele>
        <time>2026-08-14T16:22:06.208Z</time>
      </trkpt>
      <trkpt lon="-103.799937" lat="40.484700">
        <ele>1613.66</ele>
        <time>2026-08-14T16:22:10.264Z</time>
      </trkpt>
      <trkpt lon="-103.799332" lat="40.487018">
        <ele>1625.55</ele>
        <time>2026-08-14T16:22:15.524Z</time>
      </trkpt>
      <trkpt lon="-103.797929" lat="40.490844">
        <ele>1637.2</ele>
        <time>2026-08-14T16:22:24.672Z</time>
      </trkpt>
      <trkpt lon="-103.796730" lat="40.493850">
        <ele>1645.82</ele>
        <time>2026-08-14T16:22:31.664Z</time>
      </trkpt>
      <trkpt lon="-103.796285" lat="40.495354">
        <ele>1654.22</ele>
        <time>2026-08-14T16:22:35.132Z</time>
      </trkpt>
      <trkpt lon="-103.795840" lat="40.497934">
        <ele>1655.79</ele>
        <time>2026-08-14T16:22:40.952Z</time>
      </trkpt>
      <trkpt lon="-103.795388" lat="40.501110">
        <ele>1660.07</ele>
        <time>2026-08-14T16:22:47.944Z</time>
      </trkpt>
      <trkpt lon="-103.794904" lat="40.503591">
        <ele>1685.33</ele>
        <time>2026-08-14T16:22:53.744Z</time>
      </trkpt>
      <trkpt lon="-103.794454" lat="40.505828">
        <ele>1683.64</ele>
        <time>2026-08-14T16:22:58.944Z</time>
      </trkpt>
      <trkpt lon="-103.794284" lat="40.506902">
        <ele>1680.13</ele>
        <time>2026-08-14T16:23:01.284Z</time>
      </trkpt>
      <trkpt lon="-103.793795" lat="40.509583">
        <ele>1691.11</ele>
        <time>2026-08-14T16:23:07.092Z</time>
      </trkpt>
      <trkpt lon="-103.793204" lat="40.511843">
        <ele>1721.17</ele>
        <time>2026-08-14T16:23:12.356Z</time>
      </trkpt>
      <trkpt lon="-103.792641" lat="40.514224">
        <ele>1737.24</ele>
        <time>2026-08-14T16:23:18.184Z</time>
      </trkpt>
      <trkpt lon="-103.792166" lat="40.516821">
        <ele>1718.52</ele>
        <time>2026-08-14T16:23:24.004Z</time>
      </trkpt>
      <trkpt lon="-103.791353" lat="40.520458">
        <ele>1745.86</ele>
        <time>2026-08-14T16:23:32.156Z</time>
      </trkpt>
      <trkpt lon="-103.791074" lat="40.521891">
        <ele>1760.95</ele>
        <time>2026-08-14T16:23:35.616Z</time>
      </trkpt>
      <trkpt lon="-103.791018" lat="40.522382">
        <ele>1763.66</ele>
        <time>2026-08-14T16:23:36.796Z</time>
      </trkpt>
      <trkpt lon="-103.790812" lat="40.524295">
        <ele>1749.66</ele>
        <time>2026-08-14T16:26:07.036Z</time>
      </trkpt>
      <trkpt lon="-103.790712" lat="40.524640">
        <ele>1749.53</ele>
        <time>2026-08-14T16:26:07.556Z</time>
      </trkpt>
      <trkpt lon="-103.790471" lat="40.525193">
        <ele>1750.69</ele>
        <time>2026-08-14T16:26:08.864Z</time>
      </trkpt>
      <trkpt lon="-103.790352" lat="40.525427">
        <ele>1749.47</ele>
        <time>2026-08-14T16:26:09.456Z</time>
      </trkpt>
      <trkpt lon="-103.789999" lat="40.526137">
        <ele>1740.5</ele>
        <time>2026-08-14T16:26:11.248Z</time>
      </trkpt>
      <trkpt lon="-103.789892" lat="40.526388">
        <ele>1737.08</ele>
        <time>2026-08-14T16:26:11.836Z</time>
      </trkpt>
      <trkpt lon="-103.789535" lat="40.527344">
        <ele>1726.48</ele>
        <time>2026-08-14T16:26:14.180Z</time>
      </trkpt>
      <trkpt lon="-103.789364" lat="40.527820">
        <ele>1721.06</ele>
        <time>2026-08-14T16:26:15.356Z</time>
      </trkpt>
      <trkpt lon="-103.788942" lat="40.529318">
        <ele>1690.16</ele>
        <time>2026-08-14T16:26:18.872Z</time>
      </trkpt>
      <trkpt lon="-103.788723" lat="40.530107">
        <ele>1667.9</ele>
        <time>2026-08-14T16:26:20.604Z</time>
      </trkpt>
      <trkpt lon="-103.788523" lat="40.530997">
        <ele>1642.71</ele>
        <time>2026-08-14T16:26:22.460Z</time>
      </trkpt>
      <trkpt lon="-103.788353" lat="40.531852">
        <ele>1614.83</ele>
        <time>2026-08-14T16:26:24.192Z</time>
      </trkpt>
      <trkpt lon="-103.788232" lat="40.532513">
        <ele>1593.6</ele>
        <time>2026-08-14T16:26:25.368Z</time>
      </trkpt>
      <trkpt lon="-103.788065" lat="40.533486">
        <ele>1569.92</ele>
        <time>2026-08-14T16:26:27.136Z</time>
      </trkpt>
      <trkpt lon="-103.787803" lat="40.534850">
        <ele>1547.98</ele>
        <time>2026-08-14T16:26:29.500Z</time>
      </trkpt>
      <trkpt lon="-103.787512" lat="40.536490">
        <ele>1540.56</ele>
        <time>2026-08-14T16:26:32.416Z</time>
      </trkpt>
      <trkpt lon="-103.787086" lat="40.540235">
        <ele>1540.9</ele>
        <time>2026-08-14T16:26:39.468Z</time>
      </trkpt>
      <trkpt lon="-103.787126" lat="40.541109">
        <ele>1540.2</ele>
        <time>2026-08-14T16:26:41.200Z</time>
      </trkpt>
      <trkpt lon="-103.787362" lat="40.542570">
        <ele>1528.79</ele>
        <time>2026-08-14T16:26:44.144Z</time>
      </trkpt>
      <trkpt lon="-103.788257" lat="40.546285">
        <ele>1519.72</ele>
        <time>2026-08-14T16:26:51.812Z</time>
      </trkpt>
      <trkpt lon="-103.789110" lat="40.548961">
        <ele>1534.01</ele>
        <time>2026-08-14T16:26:58.224Z</time>
      </trkpt>
      <trkpt lon="-103.789404" lat="40.550126">
        <ele>1534.78</ele>
        <time>2026-08-14T16:27:01.168Z</time>
      </trkpt>
      <trkpt lon="-103.789847" lat="40.552845">
        <ele>1523.46</ele>
        <time>2026-08-14T16:27:08.212Z</time>
      </trkpt>
      <trkpt lon="-103.789855" lat="40.553283">
        <ele>1522.58</ele>
        <time>2026-08-14T16:27:09.372Z</time>
      </trkpt>
      <trkpt lon="-103.789865" lat="40.554573">
        <ele>1522.05</ele>
        <time>2026-08-14T16:27:12.880Z</time>
      </trkpt>
      <trkpt lon="-103.789893" lat="40.558552">
        <ele>1524.21</ele>
        <time>2026-08-14T16:27:24.580Z</time>
      </trkpt>
      <trkpt lon="-103.789585" lat="40.561250">
        <ele>1512.79</ele>
        <time>2026-08-14T16:27:32.780Z</time>
      </trkpt>
      <trkpt lon="-103.789825" lat="40.563082">
        <ele>1496.82</ele>
        <time>2026-08-14T16:27:38.084Z</time>
      </trkpt>
      <trkpt lon="-103.790281" lat="40.565826">
        <ele>1489.9</ele>
        <time>2026-08-14T16:27:45.728Z</time>
      </trkpt>
      <trkpt lon="-103.790296" lat="40.566032">
        <ele>1490.59</ele>
        <time>2026-08-14T16:27:46.296Z</time>
      </trkpt>
      <trkpt lon="-103.790308" lat="40.566430">
        <ele>1494.01</ele>
        <time>2026-08-14T16:27:47.480Z</time>
      </trkpt>
      <trkpt lon="-103.790321" lat="40.567148">
        <ele>1503.55</ele>
        <time>2026-08-14T16:27:49.836Z</time>
      </trkpt>
      <trkpt lon="-103.790322" lat="40.567487">
        <ele>1505.57</ele>
        <time>2026-08-14T16:27:51.000Z</time>
      </trkpt>
      <trkpt lon="-103.790353" lat="40.570049">
        <ele>1489.38</ele>
        <time>2026-08-14T16:27:59.208Z</time>
      </trkpt>
      <trkpt lon="-103.790339" lat="40.570968">
        <ele>1481.47</ele>
        <time>2026-08-14T16:28:02.132Z</time>
      </trkpt>
      <trkpt lon="-103.790277" lat="40.571703">
        <ele>1477.2</ele>
        <time>2026-08-14T16:28:04.480Z</time>
      </trkpt>
      <trkpt lon="-103.790234" lat="40.572576">
        <ele>1478.19</ele>
        <time>2026-08-14T16:28:07.436Z</time>
      </trkpt>
      <trkpt lon="-103.790218" lat="40.572930">
        <ele>1477.23</ele>
        <time>2026-08-14T16:28:08.620Z</time>
      </trkpt>
      <trkpt lon="-103.790192" lat="40.573808">
        <ele>1475.35</ele>
        <time>2026-08-14T16:28:11.556Z</time>
      </trkpt>
      <trkpt lon="-103.790230" lat="40.574479">
        <ele>1476.96</ele>
        <time>2026-08-14T16:28:13.896Z</time>
      </trkpt>
      <trkpt lon="-103.790262" lat="40.574986">
        <ele>1477.73</ele>
        <time>2026-08-14T16:28:15.696Z</time>
      </trkpt>
      <trkpt lon="-103.790296" lat="40.575473">
        <ele>1477.73</ele>
        <time>2026-08-14T16:28:17.444Z</time>
      </trkpt>
      <trkpt lon="-103.790333" lat="40.575793">
        <ele>1477.08</ele>
        <time>2026-08-14T16:28:18.616Z</time>
      </trkpt>
      <trkpt lon="-103.790407" lat="40.576438">
        <ele>1476.54</ele>
        <time>2026-08-14T16:28:20.976Z</time>
      </trkpt>
      <trkpt lon="-103.790357" lat="40.577389">
        <ele>1475.23</ele>
        <time>2026-08-14T16:28:24.508Z</time>
      </trkpt>
      <trkpt lon="-103.790330" lat="40.577840">
        <ele>1476.5</ele>
        <time>2026-08-14T16:28:26.280Z</time>
      </trkpt>
      <trkpt lon="-103.790320" lat="40.578270">
        <ele>1478.23</ele>
        <time>2026-08-14T16:28:28.056Z</time>
      </trkpt>
      <trkpt lon="-103.790324" lat="40.579559">
        <ele>1478.43</ele>
        <time>2026-08-14T16:28:33.872Z</time>
      </trkpt>
      <trkpt lon="-103.790500" lat="40.580134">
        <ele>1464.28</ele>
        <time>2026-08-14T16:28:36.212Z</time>
      </trkpt>
      <trkpt lon="-103.790586" lat="40.580459">
        <ele>1451.52</ele>
        <time>2026-08-14T16:28:37.404Z</time>
      </trkpt>
      <trkpt lon="-103.790598" lat="40.580517">
        <ele>1649.43</ele>
        <time>2026-08-14T16:28:37.964Z</time>
      </trkpt>
      <trkpt lon="-103.790597" lat="40.580531">
        <ele>1644.88</ele>
        <time>2026-08-14T16:28:39.728Z</time>
      </trkpt>
      <trkpt lon="-103.790599" lat="40.580584">
        <ele>1635.65</ele>
        <time>2026-08-14T16:28:40.900Z</time>
      </trkpt>
      <trkpt lon="-103.790600" lat="40.580643">
        <ele>1630.14</ele>
        <time>2026-08-14T16:28:41.492Z</time>
      </trkpt>
      <trkpt lon="-103.790607" lat="40.580728">
        <ele>1623.99</ele>
        <time>2026-08-14T16:28:42.088Z</time>
      </trkpt>
      <trkpt lon="-103.790650" lat="40.580959">
        <ele>1610.75</ele>
        <time>2026-08-14T16:28:43.248Z</time>
      </trkpt>
      <trkpt lon="-103.790684" lat="40.581101">
        <ele>1604.25</ele>
        <time>2026-08-14T16:28:43.828Z</time>
      </trkpt>
      <trkpt lon="-103.790718" lat="40.581255">
        <ele>1598.49</ele>
        <time>2026-08-14T16:28:44.408Z</time>
      </trkpt>
      <trkpt lon="-103.790828" lat="40.582128">
        <ele>1580</ele>
        <time>2026-08-14T16:28:47.308Z</time>
      </trkpt>
      <trkpt lon="-103.790899" lat="40.582501">
        <ele>1576.07</ele>
        <time>2026-08-14T16:28:48.456Z</time>
      </trkpt>
      <trkpt lon="-103.790980" lat="40.582883">
        <ele>1574.86</ele>
        <time>2026-08-14T16:28:49.616Z</time>
      </trkpt>
      <trkpt lon="-103.791049" lat="40.583265">
        <ele>1575.54</ele>
        <time>2026-08-14T16:28:50.772Z</time>
      </trkpt>
      <trkpt lon="-103.791112" lat="40.583658">
        <ele>1574.83</ele>
        <time>2026-08-14T16:28:51.924Z</time>
      </trkpt>
      <trkpt lon="-103.791259" lat="40.584284">
        <ele>1567.27</ele>
        <time>2026-08-14T16:28:53.680Z</time>
      </trkpt>
      <trkpt lon="-103.791335" lat="40.584501">
        <ele>1563.96</ele>
        <time>2026-08-14T16:28:54.276Z</time>
      </trkpt>
      <trkpt lon="-103.791604" lat="40.585154">
        <ele>1557.98</ele>
        <time>2026-08-14T16:28:56.024Z</time>
      </trkpt>
      <trkpt lon="-103.792006" lat="40.587001">
        <ele>1562.49</ele>
        <time>2026-08-14T16:29:00.652Z</time>
      </trkpt>
      <trkpt lon="-103.792101" lat="40.588737">
        <ele>1564.03</ele>
        <time>2026-08-14T16:29:04.740Z</time>
      </trkpt>
      <trkpt lon="-103.792041" lat="40.589759">
        <ele>1566.77</ele>
        <time>2026-08-14T16:29:07.068Z</time>
      </trkpt>
      <trkpt lon="-103.791530" lat="40.592264">
        <ele>1582.86</ele>
        <time>2026-08-14T16:29:12.880Z</time>
      </trkpt>
      <trkpt lon="-103.791080" lat="40.594480">
        <ele>1605.88</ele>
        <time>2026-08-14T16:29:18.100Z</time>
      </trkpt>
      <trkpt lon="-103.790977" lat="40.595216">
        <ele>1614.05</ele>
        <time>2026-08-14T16:29:19.876Z</time>
      </trkpt>
      <trkpt lon="-103.790805" lat="40.596676">
        <ele>1617.9</ele>
        <time>2026-08-14T16:29:23.384Z</time>
      </trkpt>
      <trkpt lon="-103.790666" lat="40.598528">
        <ele>1596.56</ele>
        <time>2026-08-14T16:29:27.476Z</time>
      </trkpt>
      <trkpt lon="-103.790409" lat="40.600808">
        <ele>1584.78</ele>
        <time>2026-08-14T16:29:32.164Z</time>
      </trkpt>
      <trkpt lon="-103.788101" lat="40.612362">
        <ele>1609.23</ele>
        <time>2026-08-14T16:29:56.584Z</time>
      </trkpt>
      <trkpt lon="-103.787796" lat="40.613945">
        <ele>1627.25</ele>
        <time>2026-08-14T16:30:00.072Z</time>
      </trkpt>
      <trkpt lon="-103.787586" lat="40.615964">
        <ele>1650.97</ele>
        <time>2026-08-14T16:30:04.732Z</time>
      </trkpt>
      <trkpt lon="-103.787608" lat="40.618367">
        <ele>1671.49</ele>
        <time>2026-08-14T16:30:10.512Z</time>
      </trkpt>
      <trkpt lon="-103.787737" lat="40.621798">
        <ele>1688.8</ele>
        <time>2026-08-14T16:30:18.676Z</time>
      </trkpt>
      <trkpt lon="-103.787610" lat="40.625836">
        <ele>1681.87</ele>
        <time>2026-08-14T16:30:27.980Z</time>
      </trkpt>
      <trkpt lon="-103.787616" lat="40.626687">
        <ele>1675.54</ele>
        <time>2026-08-14T16:30:29.784Z</time>
      </trkpt>
      <trkpt lon="-103.787520" lat="40.627841">
        <ele>1671.54</ele>
        <time>2026-08-14T16:30:32.188Z</time>
      </trkpt>
      <trkpt lon="-103.787237" lat="40.628956">
        <ele>1673.91</ele>
        <time>2026-08-14T16:30:34.568Z</time>
      </trkpt>
      <trkpt lon="-103.786701" lat="40.630523">
        <ele>1694.67</ele>
        <time>2026-08-14T16:30:38.048Z</time>
      </trkpt>
      <trkpt lon="-103.786485" lat="40.631245">
        <ele>1708.1</ele>
        <time>2026-08-14T16:30:39.780Z</time>
      </trkpt>
      <trkpt lon="-103.786189" lat="40.632657">
        <ele>1728.19</ele>
        <time>2026-08-14T16:30:43.316Z</time>
      </trkpt>
      <trkpt lon="-103.786171" lat="40.633351">
        <ele>1731.52</ele>
        <time>2026-08-14T16:30:45.064Z</time>
      </trkpt>
      <trkpt lon="-103.786237" lat="40.633818">
        <ele>1730.03</ele>
        <time>2026-08-14T16:30:46.228Z</time>
      </trkpt>
      <trkpt lon="-103.786755" lat="40.635270">
        <ele>1700.15</ele>
        <time>2026-08-14T16:30:49.752Z</time>
      </trkpt>
      <trkpt lon="-103.787282" lat="40.636330">
        <ele>1674.35</ele>
        <time>2026-08-14T16:30:52.092Z</time>
      </trkpt>
      <trkpt lon="-103.787999" lat="40.637690">
        <ele>1660.04</ele>
        <time>2026-08-14T16:30:55.008Z</time>
      </trkpt>
      <trkpt lon="-103.788531" lat="40.638778">
        <ele>1658.85</ele>
        <time>2026-08-14T16:30:57.348Z</time>
      </trkpt>
      <trkpt lon="-103.789739" lat="40.642036">
        <ele>1675.72</ele>
        <time>2026-08-14T16:31:04.332Z</time>
      </trkpt>
      <trkpt lon="-103.790377" lat="40.644733">
        <ele>1683.14</ele>
        <time>2026-08-14T16:31:10.196Z</time>
      </trkpt>
      <trkpt lon="-103.790570" lat="40.646741">
        <ele>1676.91</ele>
        <time>2026-08-14T16:31:14.280Z</time>
      </trkpt>
      <trkpt lon="-103.790526" lat="40.648502">
        <ele>1675.3</ele>
        <time>2026-08-14T16:31:17.788Z</time>
      </trkpt>
      <trkpt lon="-103.790360" lat="40.649674">
        <ele>1675.65</ele>
        <time>2026-08-14T16:31:20.128Z</time>
      </trkpt>
      <trkpt lon="-103.789604" lat="40.654243">
        <ele>1683.47</ele>
        <time>2026-08-14T16:31:29.444Z</time>
      </trkpt>
      <trkpt lon="-103.788740" lat="40.668995">
        <ele>1680.59</ele>
        <time>2026-08-14T16:31:59.740Z</time>
      </trkpt>
      <trkpt lon="-103.788782" lat="40.670463">
        <ele>1670.83</ele>
        <time>2026-08-14T16:32:02.692Z</time>
      </trkpt>
      <trkpt lon="-103.789508" lat="40.678020">
        <ele>1671.35</ele>
        <time>2026-08-14T16:32:17.812Z</time>
      </trkpt>
      <trkpt lon="-103.789798" lat="40.679093">
        <ele>1673.61</ele>
        <time>2026-08-14T16:32:20.140Z</time>
      </trkpt>
      <trkpt lon="-103.791040" lat="40.682063">
        <ele>1645.56</ele>
        <time>2026-08-14T16:32:26.528Z</time>
      </trkpt>
      <trkpt lon="-103.791432" lat="40.683221">
        <ele>1631.92</ele>
        <time>2026-08-14T16:32:28.848Z</time>
      </trkpt>
      <trkpt lon="-103.791577" lat="40.683823">
        <ele>1625.72</ele>
        <time>2026-08-14T16:32:30.004Z</time>
      </trkpt>
      <trkpt lon="-103.791752" lat="40.685080">
        <ele>1619.91</ele>
        <time>2026-08-14T16:32:32.368Z</time>
      </trkpt>
      <trkpt lon="-103.791769" lat="40.685699">
        <ele>1619.64</ele>
        <time>2026-08-14T16:32:33.524Z</time>
      </trkpt>
      <trkpt lon="-103.791617" lat="40.687485">
        <ele>1634.81</ele>
        <time>2026-08-14T16:32:37.012Z</time>
      </trkpt>
      <trkpt lon="-103.791440" lat="40.689113">
        <ele>1661.5</ele>
        <time>2026-08-14T16:32:40.532Z</time>
      </trkpt>
      <trkpt lon="-103.791124" lat="40.691894">
        <ele>1681.46</ele>
        <time>2026-08-14T16:32:46.972Z</time>
      </trkpt>
      <trkpt lon="-103.791017" lat="40.692669">
        <ele>1681.05</ele>
        <time>2026-08-14T16:32:48.728Z</time>
      </trkpt>
      <trkpt lon="-103.789485" lat="40.703850">
        <ele>1709.34</ele>
        <time>2026-08-14T16:33:13.292Z</time>
      </trkpt>
      <trkpt lon="-103.788963" lat="40.705980">
        <ele>1713.9</ele>
        <time>2026-08-14T16:33:17.996Z</time>
      </trkpt>
      <trkpt lon="-103.785511" lat="40.716884">
        <ele>1731.07</ele>
        <time>2026-08-14T16:33:41.980Z</time>
      </trkpt>
      <trkpt lon="-103.785153" lat="40.719820">
        <ele>1740.8</ele>
        <time>2026-08-14T16:33:48.408Z</time>
      </trkpt>
      <trkpt lon="-103.784619" lat="40.725477">
        <ele>1736.67</ele>
        <time>2026-08-14T16:34:00.660Z</time>
      </trkpt>
      <trkpt lon="-103.783367" lat="40.731454">
        <ele>1744.04</ele>
        <time>2026-08-14T16:34:13.420Z</time>
      </trkpt>
      <trkpt lon="-103.782696" lat="40.733606">
        <ele>1748.65</ele>
        <time>2026-08-14T16:34:18.184Z</time>
      </trkpt>
      <trkpt lon="-103.782413" lat="40.734408">
        <ele>1747.91</ele>
        <time>2026-08-14T16:34:19.940Z</time>
      </trkpt>
      <trkpt lon="-103.777885" lat="40.748617">
        <ele>1738.92</ele>
        <time>2026-08-14T16:34:49.988Z</time>
      </trkpt>
      <trkpt lon="-103.777281" lat="40.750843">
        <ele>1734.69</ele>
        <time>2026-08-14T16:34:54.640Z</time>
      </trkpt>
      <trkpt lon="-103.776882" lat="40.752233">
        <ele>1740.49</ele>
        <time>2026-08-14T16:34:57.592Z</time>
      </trkpt>
      <trkpt lon="-103.775231" lat="40.757676">
        <ele>1738.55</ele>
        <time>2026-08-14T16:35:09.260Z</time>
      </trkpt>
      <trkpt lon="-103.774754" lat="40.759019">
        <ele>1745.92</ele>
        <time>2026-08-14T16:35:12.200Z</time>
      </trkpt>
      <trkpt lon="-103.773073" lat="40.763779">
        <ele>1739.6</ele>
        <time>2026-08-14T16:35:22.656Z</time>
      </trkpt>
      <trkpt lon="-103.771588" lat="40.767033">
        <ele>1741.93</ele>
        <time>2026-08-14T16:35:29.636Z</time>
      </trkpt>
      <trkpt lon="-103.771218" lat="40.767850">
        <ele>1740.57</ele>
        <time>2026-08-14T16:35:31.412Z</time>
      </trkpt>
      <trkpt lon="-103.769845" lat="40.770873">
        <ele>1727.89</ele>
        <time>2026-08-14T16:35:37.840Z</time>
      </trkpt>
      <trkpt lon="-103.768550" lat="40.773909">
        <ele>1721.37</ele>
        <time>2026-08-14T16:35:44.248Z</time>
      </trkpt>
      <trkpt lon="-103.767583" lat="40.776153">
        <ele>1721.46</ele>
        <time>2026-08-14T16:35:48.904Z</time>
      </trkpt>
      <trkpt lon="-103.763078" lat="40.783962">
        <ele>1730.84</ele>
        <time>2026-08-14T16:36:06.312Z</time>
      </trkpt>
      <trkpt lon="-103.759264" lat="40.789889">
        <ele>1718.17</ele>
        <time>2026-08-14T16:36:19.148Z</time>
      </trkpt>
      <trkpt lon="-103.754446" lat="40.799432">
        <ele>1719.75</ele>
        <time>2026-08-14T16:36:39.172Z</time>
      </trkpt>
      <trkpt lon="-103.753718" lat="40.800449">
        <ele>1709.78</ele>
        <time>2026-08-14T16:36:41.496Z</time>
      </trkpt>
      <trkpt lon="-103.750947" lat="40.803701">
        <ele>1695.53</ele>
        <time>2026-08-14T16:36:48.784Z</time>
      </trkpt>
      <trkpt lon="-103.744885" lat="40.810214">
        <ele>1666.92</ele>
        <time>2026-08-14T16:37:04.068Z</time>
      </trkpt>
      <trkpt lon="-103.742767" lat="40.812537">
        <ele>1639.43</ele>
        <time>2026-08-14T16:37:09.280Z</time>
      </trkpt>
      <trkpt lon="-103.742001" lat="40.813313">
        <ele>1628.29</ele>
        <time>2026-08-14T16:37:11.016Z</time>
      </trkpt>
      <trkpt lon="-103.740111" lat="40.815136">
        <ele>1626.17</ele>
        <time>2026-08-14T16:37:15.156Z</time>
      </trkpt>
      <trkpt lon="-103.737148" lat="40.818392">
        <ele>1644.5</ele>
        <time>2026-08-14T16:37:22.784Z</time>
      </trkpt>
      <trkpt lon="-103.734207" lat="40.821681">
        <ele>1622.53</ele>
        <time>2026-08-14T16:37:30.352Z</time>
      </trkpt>
      <trkpt lon="-103.732363" lat="40.823383">
        <ele>1616.8</ele>
        <time>2026-08-14T16:37:34.424Z</time>
      </trkpt>
      <trkpt lon="-103.725225" lat="40.829440">
        <ele>1626.14</ele>
        <time>2026-08-14T16:37:50.160Z</time>
      </trkpt>
      <trkpt lon="-103.723379" lat="40.831091">
        <ele>1618.73</ele>
        <time>2026-08-14T16:37:54.232Z</time>
      </trkpt>
      <trkpt lon="-103.714286" lat="40.838662">
        <ele>1594.35</ele>
        <time>2026-08-14T16:38:13.628Z</time>
      </trkpt>
      <trkpt lon="-103.711595" lat="40.841020">
        <ele>1586.68</ele>
        <time>2026-08-14T16:38:19.504Z</time>
      </trkpt>
      <trkpt lon="-103.702957" lat="40.850441">
        <ele>1581.78</ele>
        <time>2026-08-14T16:38:41.272Z</time>
      </trkpt>
      <trkpt lon="-103.699525" lat="40.854291">
        <ele>1573.63</ele>
        <time>2026-08-14T16:38:50.152Z</time>
      </trkpt>
      <trkpt lon="-103.694858" lat="40.859023">
        <ele>1561.13</ele>
        <time>2026-08-14T16:39:01.220Z</time>
      </trkpt>
      <trkpt lon="-103.690579" lat="40.864153">
        <ele>1576.68</ele>
        <time>2026-08-14T16:39:12.896Z</time>
      </trkpt>
      <trkpt lon="-103.689170" lat="40.866275">
        <ele>1554.78</ele>
        <time>2026-08-14T16:39:17.672Z</time>
      </trkpt>
      <trkpt lon="-103.688061" lat="40.867984">
        <ele>1533.87</ele>
        <time>2026-08-14T16:39:21.192Z</time>
      </trkpt>
      <trkpt lon="-103.684719" lat="40.872687">
        <ele>1527.88</ele>
        <time>2026-08-14T16:39:31.208Z</time>
      </trkpt>
      <trkpt lon="-103.681061" lat="40.877267">
        <ele>1506.97</ele>
        <time>2026-08-14T16:39:41.252Z</time>
      </trkpt>
      <trkpt lon="-103.677106" lat="40.882807">
        <ele>1515.32</ele>
        <time>2026-08-14T16:39:52.936Z</time>
      </trkpt>
      <trkpt lon="-103.675319" lat="40.885438">
        <ele>1493.86</ele>
        <time>2026-08-14T16:39:58.380Z</time>
      </trkpt>
      <trkpt lon="-103.672613" lat="40.888813">
        <ele>1482.13</ele>
        <time>2026-08-14T16:40:05.444Z</time>
      </trkpt>
      <trkpt lon="-103.670756" lat="40.890908">
        <ele>1493.02</ele>
        <time>2026-08-14T16:40:10.120Z</time>
      </trkpt>
      <trkpt lon="-103.669580" lat="40.892523">
        <ele>1497.57</ele>
        <time>2026-08-14T16:40:13.644Z</time>
      </trkpt>
      <trkpt lon="-103.668125" lat="40.895022">
        <ele>1500.79</ele>
        <time>2026-08-14T16:40:18.944Z</time>
      </trkpt>
      <trkpt lon="-103.667134" lat="40.897200">
        <ele>1522.14</ele>
        <time>2026-08-14T16:40:23.608Z</time>
      </trkpt>
      <trkpt lon="-103.666927" lat="40.897733">
        <ele>1531.5</ele>
        <time>2026-08-14T16:40:24.816Z</time>
      </trkpt>
      <trkpt lon="-103.666452" lat="40.899235">
        <ele>1554.24</ele>
        <time>2026-08-14T16:40:28.308Z</time>
      </trkpt>
      <trkpt lon="-103.666328" lat="40.899730">
        <ele>1559.31</ele>
        <time>2026-08-14T16:40:29.456Z</time>
      </trkpt>
      <trkpt lon="-103.665950" lat="40.902320">
        <ele>1576.34</ele>
        <time>2026-08-14T16:40:35.344Z</time>
      </trkpt>
      <trkpt lon="-103.665827" lat="40.904629">
        <ele>1601.3</ele>
        <time>2026-08-14T16:40:40.616Z</time>
      </trkpt>
      <trkpt lon="-103.665824" lat="40.907076">
        <ele>1626.54</ele>
        <time>2026-08-14T16:40:46.464Z</time>
      </trkpt>
      <trkpt lon="-103.665902" lat="40.911942">
        <ele>1646.17</ele>
        <time>2026-08-14T16:40:57.496Z</time>
      </trkpt>
      <trkpt lon="-103.665541" lat="40.913237">
        <ele>1658.92</ele>
        <time>2026-08-14T16:41:00.416Z</time>
      </trkpt>
      <trkpt lon="-103.665373" lat="40.913713">
        <ele>1669.17</ele>
        <time>2026-08-14T16:41:01.604Z</time>
      </trkpt>
      <trkpt lon="-103.665309" lat="40.913953">
        <ele>1675.28</ele>
        <time>2026-08-14T16:41:02.196Z</time>
      </trkpt>
      <trkpt lon="-103.665260" lat="40.914179">
        <ele>1679.65</ele>
        <time>2026-08-14T16:41:02.780Z</time>
      </trkpt>
      <trkpt lon="-103.665149" lat="40.915095">
        <ele>1680.72</ele>
        <time>2026-08-14T16:41:05.116Z</time>
      </trkpt>
      <trkpt lon="-103.665110" lat="40.915582">
        <ele>1673.11</ele>
        <time>2026-08-14T16:41:06.280Z</time>
      </trkpt>
      <trkpt lon="-103.664962" lat="40.916875">
        <ele>1654.68</ele>
        <time>2026-08-14T16:41:09.236Z</time>
      </trkpt>
      <trkpt lon="-103.664862" lat="40.918196">
        <ele>1655.24</ele>
        <time>2026-08-14T16:41:12.108Z</time>
      </trkpt>
      <trkpt lon="-103.664789" lat="40.920507">
        <ele>1682.07</ele>
        <time>2026-08-14T16:41:17.392Z</time>
      </trkpt>
      <trkpt lon="-103.664812" lat="40.922602">
        <ele>1709.6</ele>
        <time>2026-08-14T16:41:22.636Z</time>
      </trkpt>
      <trkpt lon="-103.664847" lat="40.923047">
        <ele>1715.23</ele>
        <time>2026-08-14T16:41:23.796Z</time>
      </trkpt>
      <trkpt lon="-103.665108" lat="40.925027">
        <ele>1743.16</ele>
        <time>2026-08-14T16:41:29.064Z</time>
      </trkpt>
      <trkpt lon="-103.665230" lat="40.925680">
        <ele>1748.16</ele>
        <time>2026-08-14T16:41:30.816Z</time>
      </trkpt>
      <trkpt lon="-103.665458" lat="40.927097">
        <ele>1738.88</ele>
        <time>2026-08-14T16:41:34.416Z</time>
      </trkpt>
      <trkpt lon="-103.665641" lat="40.928868">
        <ele>1726.28</ele>
        <time>2026-08-14T16:41:38.480Z</time>
      </trkpt>
      <trkpt lon="-103.665667" lat="40.929677">
        <ele>1724.12</ele>
        <time>2026-08-14T16:41:40.244Z</time>
      </trkpt>
      <trkpt lon="-103.665979" lat="40.933866">
        <ele>1707.39</ele>
        <time>2026-08-14T16:41:49.048Z</time>
      </trkpt>
      <trkpt lon="-103.665977" lat="40.936188">
        <ele>1711.91</ele>
        <time>2026-08-14T16:41:53.720Z</time>
      </trkpt>
      <trkpt lon="-103.665772" lat="40.940197">
        <ele>1721.15</ele>
        <time>2026-08-14T16:42:01.964Z</time>
      </trkpt>
      <trkpt lon="-103.665851" lat="40.941031">
        <ele>1724.94</ele>
        <time>2026-08-14T16:42:03.700Z</time>
      </trkpt>
      <trkpt lon="-103.666213" lat="40.942665">
        <ele>1737.01</ele>
        <time>2026-08-14T16:42:07.216Z</time>
      </trkpt>
      <trkpt lon="-103.666609" lat="40.943715">
        <ele>1742.44</ele>
        <time>2026-08-14T16:42:09.584Z</time>
      </trkpt>
      <trkpt lon="-103.667138" lat="40.944700">
        <ele>1746.17</ele>
        <time>2026-08-14T16:42:11.920Z</time>
      </trkpt>
      <trkpt lon="-103.668400" lat="40.946530">
        <ele>1752.68</ele>
        <time>2026-08-14T16:42:16.560Z</time>
      </trkpt>
      <trkpt lon="-103.668925" lat="40.947202">
        <ele>1753.65</ele>
        <time>2026-08-14T16:42:18.332Z</time>
      </trkpt>
      <trkpt lon="-103.675831" lat="40.954400">
        <ele>1774.57</ele>
        <time>2026-08-14T16:42:38.816Z</time>
      </trkpt>
      <trkpt lon="-103.680772" lat="40.958426">
        <ele>1792.2</ele>
        <time>2026-08-14T16:42:51.184Z</time>
      </trkpt>
      <trkpt lon="-103.683902" lat="40.960781">
        <ele>1793.46</ele>
        <time>2026-08-14T16:42:58.936Z</time>
      </trkpt>
      <trkpt lon="-103.684542" lat="40.961407">
        <ele>1793.07</ele>
        <time>2026-08-14T16:43:00.692Z</time>
      </trkpt>
      <trkpt lon="-103.685660" lat="40.962750">
        <ele>1790.96</ele>
        <time>2026-08-14T16:43:04.184Z</time>
      </trkpt>
      <trkpt lon="-103.685977" lat="40.963237">
        <ele>1787.9</ele>
        <time>2026-08-14T16:43:05.348Z</time>
      </trkpt>
      <trkpt lon="-103.686383" lat="40.964013">
        <ele>1782.61</ele>
        <time>2026-08-14T16:43:07.112Z</time>
      </trkpt>
      <trkpt lon="-103.686778" lat="40.965102">
        <ele>1777.15</ele>
        <time>2026-08-14T16:43:09.452Z</time>
      </trkpt>
      <trkpt lon="-103.687221" lat="40.967114">
        <ele>1768.4</ele>
        <time>2026-08-14T16:43:13.568Z</time>
      </trkpt>
      <trkpt lon="-103.687896" lat="40.970288">
        <ele>1772.7</ele>
        <time>2026-08-14T16:43:19.984Z</time>
      </trkpt>
      <trkpt lon="-103.689225" lat="40.975154">
        <ele>1758.02</ele>
        <time>2026-08-14T16:43:29.968Z</time>
      </trkpt>
      <trkpt lon="-103.689580" lat="40.977108">
        <ele>1778.11</ele>
        <time>2026-08-14T16:43:34.064Z</time>
      </trkpt>
      <trkpt lon="-103.690139" lat="40.978857">
        <ele>1799.48</ele>
        <time>2026-08-14T16:43:38.160Z</time>
      </trkpt>
      <trkpt lon="-103.692004" lat="40.983455">
        <ele>1782.77</ele>
        <time>2026-08-14T16:43:48.672Z</time>
      </trkpt>
      <trkpt lon="-103.696897" lat="40.994533">
        <ele>1757.7</ele>
        <time>2026-08-14T16:44:12.284Z</time>
      </trkpt>
      <trkpt lon="-103.698916" lat="40.999607">
        <ele>1756.69</ele>
        <time>2026-08-14T16:44:22.248Z</time>
      </trkpt>
      <trkpt lon="-103.699948" lat="41.002214">
        <ele>1755.76</ele>
        <time>2026-08-14T16:44:27.508Z</time>
      </trkpt>
      <trkpt lon="-103.700513" lat="41.005022">
        <ele>1728.77</ele>
        <time>2026-08-14T16:44:32.788Z</time>
      </trkpt>
      <trkpt lon="-103.700716" lat="41.005989">
        <ele>1716.99</ele>
        <time>2026-08-14T16:44:34.536Z</time>
      </trkpt>
      <trkpt lon="-103.701023" lat="41.008592">
        <ele>1696.48</ele>
        <time>2026-08-14T16:44:39.220Z</time>
      </trkpt>
      <trkpt lon="-103.701062" lat="41.009885">
        <ele>1707</ele>
        <time>2026-08-14T16:44:41.656Z</time>
      </trkpt>
      <trkpt lon="-103.701118" lat="41.011030">
        <ele>1725.06</ele>
        <time>2026-08-14T16:44:43.976Z</time>
      </trkpt>
      <trkpt lon="-103.701471" lat="41.013488">
        <ele>1742.4</ele>
        <time>2026-08-14T16:44:49.284Z</time>
      </trkpt>
      <trkpt lon="-103.702175" lat="41.015928">
        <ele>1715.25</ele>
        <time>2026-08-14T16:44:54.600Z</time>
      </trkpt>
      <trkpt lon="-103.702886" lat="41.018245">
        <ele>1691.73</ele>
        <time>2026-08-14T16:44:59.316Z</time>
      </trkpt>
      <trkpt lon="-103.704311" lat="41.022586">
        <ele>1706.43</ele>
        <time>2026-08-14T16:45:08.072Z</time>
      </trkpt>
      <trkpt lon="-103.704645" lat="41.023359">
        <ele>1712.43</ele>
        <time>2026-08-14T16:45:09.812Z</time>
      </trkpt>
      <trkpt lon="-103.705918" lat="41.026148">
        <ele>1704.63</ele>
        <time>2026-08-14T16:45:16.252Z</time>
      </trkpt>
      <trkpt lon="-103.706562" lat="41.027422">
        <ele>1705.41</ele>
        <time>2026-08-14T16:45:19.184Z</time>
      </trkpt>
      <trkpt lon="-103.706678" lat="41.027662">
        <ele>1708.7</ele>
        <time>2026-08-14T16:45:19.756Z</time>
      </trkpt>
      <trkpt lon="-103.707093" lat="41.028603">
        <ele>1725.92</ele>
        <time>2026-08-14T16:45:22.084Z</time>
      </trkpt>
      <trkpt lon="-103.707561" lat="41.029714">
        <ele>1746.02</ele>
        <time>2026-08-14T16:45:25.004Z</time>
      </trkpt>
      <trkpt lon="-103.707829" lat="41.030371">
        <ele>1754.94</ele>
        <time>2026-08-14T16:45:26.760Z</time>
      </trkpt>
      <trkpt lon="-103.708144" lat="41.031255">
        <ele>1764.96</ele>
        <time>2026-08-14T16:45:29.108Z</time>
      </trkpt>
      <trkpt lon="-103.708443" lat="41.032381">
        <ele>1775.38</ele>
        <time>2026-08-14T16:45:32.060Z</time>
      </trkpt>
      <trkpt lon="-103.708585" lat="41.033075">
        <ele>1779.86</ele>
        <time>2026-08-14T16:45:33.844Z</time>
      </trkpt>
      <trkpt lon="-103.708993" lat="41.037597">
        <ele>1790.47</ele>
        <time>2026-08-14T16:45:45.032Z</time>
      </trkpt>
      <trkpt lon="-103.708921" lat="41.039087">
        <ele>1785.9</ele>
        <time>2026-08-14T16:45:48.516Z</time>
      </trkpt>
      <trkpt lon="-103.708834" lat="41.039595">
        <ele>1786.17</ele>
        <time>2026-08-14T16:45:49.688Z</time>
      </trkpt>
      <trkpt lon="-103.708221" lat="41.042306">
        <ele>1805.55</ele>
        <time>2026-08-14T16:45:56.116Z</time>
      </trkpt>
      <trkpt lon="-103.708005" lat="41.044064">
        <ele>1808.17</ele>
        <time>2026-08-14T16:46:00.424Z</time>
      </trkpt>
      <trkpt lon="-103.707814" lat="41.047679">
        <ele>1788.21</ele>
        <time>2026-08-14T16:46:08.656Z</time>
      </trkpt>
      <trkpt lon="-103.707754" lat="41.048501">
        <ele>1783.19</ele>
        <time>2026-08-14T16:46:10.396Z</time>
      </trkpt>
      <trkpt lon="-103.706469" lat="41.054564">
        <ele>1806.52</ele>
        <time>2026-08-14T16:46:24.024Z</time>
      </trkpt>
      <trkpt lon="-103.704890" lat="41.060092">
        <ele>1782.38</ele>
        <time>2026-08-14T16:46:35.716Z</time>
      </trkpt>
      <trkpt lon="-103.703455" lat="41.066738">
        <ele>1774.69</ele>
        <time>2026-08-14T16:46:49.216Z</time>
      </trkpt>
      <trkpt lon="-103.703363" lat="41.068844">
        <ele>1760.25</ele>
        <time>2026-08-14T16:46:53.340Z</time>
      </trkpt>
      <trkpt lon="-103.703491" lat="41.071896">
        <ele>1756.62</ele>
        <time>2026-08-14T16:46:59.148Z</time>
      </trkpt>
      <trkpt lon="-103.703025" lat="41.075420">
        <ele>1784.81</ele>
        <time>2026-08-14T16:47:06.240Z</time>
      </trkpt>
      <trkpt lon="-103.702718" lat="41.078204">
        <ele>1793.48</ele>
        <time>2026-08-14T16:47:12.100Z</time>
      </trkpt>
      <trkpt lon="-103.702519" lat="41.079578">
        <ele>1797.27</ele>
        <time>2026-08-14T16:47:15.040Z</time>
      </trkpt>
      <trkpt lon="-103.701615" lat="41.083036">
        <ele>1793.83</ele>
        <time>2026-08-14T16:47:22.084Z</time>
      </trkpt>
      <trkpt lon="-103.701170" lat="41.085364">
        <ele>1797.69</ele>
        <time>2026-08-14T16:47:26.752Z</time>
      </trkpt>
      <trkpt lon="-103.701145" lat="41.086961">
        <ele>1821.81</ele>
        <time>2026-08-14T16:47:30.272Z</time>
      </trkpt>
      <trkpt lon="-103.701329" lat="41.089000">
        <ele>1834.87</ele>
        <time>2026-08-14T16:47:34.944Z</time>
      </trkpt>
      <trkpt lon="-103.701409" lat="41.090300">
        <ele>1840.76</ele>
        <time>2026-08-14T16:47:37.860Z</time>
      </trkpt>
      <trkpt lon="-103.701269" lat="41.092162">
        <ele>1841.05</ele>
        <time>2026-08-14T16:47:41.932Z</time>
      </trkpt>
      <trkpt lon="-103.700704" lat="41.095529">
        <ele>1841.06</ele>
        <time>2026-08-14T16:47:49.032Z</time>
      </trkpt>
      <trkpt lon="-103.700521" lat="41.096916">
        <ele>1846.57</ele>
        <time>2026-08-14T16:47:51.964Z</time>
      </trkpt>
      <trkpt lon="-103.700173" lat="41.101075">
        <ele>1845.83</ele>
        <time>2026-08-14T16:48:00.696Z</time>
      </trkpt>
      <trkpt lon="-103.699968" lat="41.101923">
        <ele>1841.02</ele>
        <time>2026-08-14T16:48:02.436Z</time>
      </trkpt>
      <trkpt lon="-103.699534" lat="41.103066">
        <ele>1825.28</ele>
        <time>2026-08-14T16:48:04.776Z</time>
      </trkpt>
      <trkpt lon="-103.699082" lat="41.103960">
        <ele>1805.61</ele>
        <time>2026-08-14T16:48:06.572Z</time>
      </trkpt>
      <trkpt lon="-103.698355" lat="41.105169">
        <ele>1777.13</ele>
        <time>2026-08-14T16:48:08.908Z</time>
      </trkpt>
      <trkpt lon="-103.697793" lat="41.106093">
        <ele>1761.11</ele>
        <time>2026-08-14T16:48:10.640Z</time>
      </trkpt>
      <trkpt lon="-103.696990" lat="41.107390">
        <ele>1746.19</ele>
        <time>2026-08-14T16:48:13.000Z</time>
      </trkpt>
      <trkpt lon="-103.696610" lat="41.108051">
        <ele>1745.89</ele>
        <time>2026-08-14T16:48:14.208Z</time>
      </trkpt>
      <trkpt lon="-103.696170" lat="41.109027">
        <ele>1748.63</ele>
        <time>2026-08-14T16:48:16.000Z</time>
      </trkpt>
      <trkpt lon="-103.695844" lat="41.110025">
        <ele>1748.81</ele>
        <time>2026-08-14T16:48:17.776Z</time>
      </trkpt>
      <trkpt lon="-103.693918" lat="41.118203">
        <ele>1722.05</ele>
        <time>2026-08-14T16:48:33.156Z</time>
      </trkpt>
      <trkpt lon="-103.692751" lat="41.123294">
        <ele>1714.41</ele>
        <time>2026-08-14T16:48:42.508Z</time>
      </trkpt>
      <trkpt lon="-103.692776" lat="41.123904">
        <ele>1716.78</ele>
        <time>2026-08-14T16:48:43.672Z</time>
      </trkpt>
      <trkpt lon="-103.693009" lat="41.125094">
        <ele>1714.85</ele>
        <time>2026-08-14T16:48:46.004Z</time>
      </trkpt>
      <trkpt lon="-103.694349" lat="41.131775">
        <ele>1703</ele>
        <time>2026-08-14T16:48:58.948Z</time>
      </trkpt>
      <trkpt lon="-103.694617" lat="41.135746">
        <ele>1699.83</ele>
        <time>2026-08-14T16:49:06.592Z</time>
      </trkpt>
      <trkpt lon="-103.694708" lat="41.138154">
        <ele>1705.54</ele>
        <time>2026-08-14T16:49:11.292Z</time>
      </trkpt>
      <trkpt lon="-103.694706" lat="41.140876">
        <ele>1703.45</ele>
        <time>2026-08-14T16:49:16.624Z</time>
      </trkpt>
      <trkpt lon="-103.694356" lat="41.145441">
        <ele>1724.56</ele>
        <time>2026-08-14T16:49:25.968Z</time>
      </trkpt>
      <trkpt lon="-103.694205" lat="41.155510">
        <ele>1732.32</ele>
        <time>2026-08-14T16:49:47.140Z</time>
      </trkpt>
      <trkpt lon="-103.692995" lat="41.170398">
        <ele>1749.41</ele>
        <time>2026-08-14T16:50:17.720Z</time>
      </trkpt>
      <trkpt lon="-103.692501" lat="41.174908">
        <ele>1731.06</ele>
        <time>2026-08-14T16:50:26.776Z</time>
      </trkpt>
      <trkpt lon="-103.691192" lat="41.183355">
        <ele>1750.99</ele>
        <time>2026-08-14T16:50:43.304Z</time>
      </trkpt>
      <trkpt lon="-103.690493" lat="41.186758">
        <ele>1742.58</ele>
        <time>2026-08-14T16:50:50.412Z</time>
      </trkpt>
      <trkpt lon="-103.687105" lat="41.200213">
        <ele>1724.97</ele>
        <time>2026-08-14T16:51:17.248Z</time>
      </trkpt>
      <trkpt lon="-103.685160" lat="41.207917">
        <ele>1712.87</ele>
        <time>2026-08-14T16:51:31.968Z</time>
      </trkpt>
      <trkpt lon="-103.685016" lat="41.208554">
        <ele>1711.6</ele>
        <time>2026-08-14T16:51:33.184Z</time>
      </trkpt>
      <trkpt lon="-103.684024" lat="41.212686">
        <ele>1736.16</ele>
        <time>2026-08-14T16:51:41.376Z</time>
      </trkpt>
      <trkpt lon="-103.683306" lat="41.215684">
        <ele>1751.15</ele>
        <time>2026-08-14T16:51:47.828Z</time>
      </trkpt>
      <trkpt lon="-103.682844" lat="41.217713">
        <ele>1732.65</ele>
        <time>2026-08-14T16:51:52.020Z</time>
      </trkpt>
      <trkpt lon="-103.680802" lat="41.225974">
        <ele>1752.05</ele>
        <time>2026-08-14T16:52:08.984Z</time>
      </trkpt>
      <trkpt lon="-103.680661" lat="41.226763">
        <ele>1752.19</ele>
        <time>2026-08-14T16:52:10.752Z</time>
      </trkpt>
      <trkpt lon="-103.680248" lat="41.229607">
        <ele>1730.72</ele>
        <time>2026-08-14T16:52:16.660Z</time>
      </trkpt>
      <trkpt lon="-103.677783" lat="41.242349">
        <ele>1760.65</ele>
        <time>2026-08-14T16:52:42.108Z</time>
      </trkpt>
      <trkpt lon="-103.677144" lat="41.244602">
        <ele>1767.37</ele>
        <time>2026-08-14T16:52:46.836Z</time>
      </trkpt>
      <trkpt lon="-103.676743" lat="41.245741">
        <ele>1767.03</ele>
        <time>2026-08-14T16:52:49.200Z</time>
      </trkpt>
      <trkpt lon="-103.675449" lat="41.249045">
        <ele>1776.02</ele>
        <time>2026-08-14T16:52:56.236Z</time>
      </trkpt>
      <trkpt lon="-103.674644" lat="41.252011">
        <ele>1788.07</ele>
        <time>2026-08-14T16:53:02.732Z</time>
      </trkpt>
      <trkpt lon="-103.674487" lat="41.253386">
        <ele>1788.25</ele>
        <time>2026-08-14T16:53:05.660Z</time>
      </trkpt>
      <trkpt lon="-103.674403" lat="41.255318">
        <ele>1784.49</ele>
        <time>2026-08-14T16:53:09.752Z</time>
      </trkpt>
      <trkpt lon="-103.674299" lat="41.257333">
        <ele>1779.6</ele>
        <time>2026-08-14T16:53:13.908Z</time>
      </trkpt>
      <trkpt lon="-103.673835" lat="41.260210">
        <ele>1784.11</ele>
        <time>2026-08-14T16:53:19.796Z</time>
      </trkpt>
      <trkpt lon="-103.672035" lat="41.272175">
        <ele>1779.59</ele>
        <time>2026-08-14T16:53:43.804Z</time>
      </trkpt>
      <trkpt lon="-103.670767" lat="41.277433">
        <ele>1787.18</ele>
        <time>2026-08-14T16:53:54.288Z</time>
      </trkpt>
      <trkpt lon="-103.670407" lat="41.280913">
        <ele>1790.46</ele>
        <time>2026-08-14T16:54:01.304Z</time>
      </trkpt>
      <trkpt lon="-103.670335" lat="41.284960">
        <ele>1790.77</ele>
        <time>2026-08-14T16:54:09.584Z</time>
      </trkpt>
      <trkpt lon="-103.670386" lat="41.285816">
        <ele>1787.91</ele>
        <time>2026-08-14T16:54:11.344Z</time>
      </trkpt>
      <trkpt lon="-103.670499" lat="41.288933">
        <ele>1792.72</ele>
        <time>2026-08-14T16:54:17.788Z</time>
      </trkpt>
      <trkpt lon="-103.670573" lat="41.293485">
        <ele>1802.92</ele>
        <time>2026-08-14T16:54:27.688Z</time>
      </trkpt>
      <trkpt lon="-103.670469" lat="41.294308">
        <ele>1798.27</ele>
        <time>2026-08-14T16:54:29.452Z</time>
      </trkpt>
      <trkpt lon="-103.669880" lat="41.297574">
        <ele>1802.74</ele>
        <time>2026-08-14T16:54:36.588Z</time>
      </trkpt>
      <trkpt lon="-103.669759" lat="41.298391">
        <ele>1801.94</ele>
        <time>2026-08-14T16:54:38.376Z</time>
      </trkpt>
      <trkpt lon="-103.669579" lat="41.299482">
        <ele>1798.53</ele>
        <time>2026-08-14T16:54:40.720Z</time>
      </trkpt>
      <trkpt lon="-103.669433" lat="41.300301">
        <ele>1796.83</ele>
        <time>2026-08-14T16:54:42.448Z</time>
      </trkpt>
      <trkpt lon="-103.668779" lat="41.303851">
        <ele>1814.43</ele>
        <time>2026-08-14T16:54:50.108Z</time>
      </trkpt>
      <trkpt lon="-103.668686" lat="41.305094">
        <ele>1830.2</ele>
        <time>2026-08-14T16:54:53.076Z</time>
      </trkpt>
      <trkpt lon="-103.668654" lat="41.306267">
        <ele>1839.16</ele>
        <time>2026-08-14T16:54:55.980Z</time>
      </trkpt>
      <trkpt lon="-103.668621" lat="41.307186">
        <ele>1841.94</ele>
        <time>2026-08-14T16:54:58.288Z</time>
      </trkpt>
      <trkpt lon="-103.668569" lat="41.307886">
        <ele>1842.25</ele>
        <time>2026-08-14T16:55:00.036Z</time>
      </trkpt>
      <trkpt lon="-103.668281" lat="41.311139">
        <ele>1835.08</ele>
        <time>2026-08-14T16:55:07.624Z</time>
      </trkpt>
      <trkpt lon="-103.667347" lat="41.316400">
        <ele>1859.8</ele>
        <time>2026-08-14T16:55:20.512Z</time>
      </trkpt>
      <trkpt lon="-103.666165" lat="41.329325">
        <ele>1855.67</ele>
        <time>2026-08-14T16:55:50.360Z</time>
      </trkpt>
      <trkpt lon="-103.665735" lat="41.343068">
        <ele>1889.19</ele>
        <time>2026-08-14T16:56:20.876Z</time>
      </trkpt>
      <trkpt lon="-103.665010" lat="41.356951">
        <ele>1902.17</ele>
        <time>2026-08-14T16:56:51.416Z</time>
      </trkpt>
      <trkpt lon="-103.664422" lat="41.359668">
        <ele>1905.49</ele>
        <time>2026-08-14T16:56:57.260Z</time>
      </trkpt>
      <trkpt lon="-103.663484" lat="41.364145">
        <ele>1899.19</ele>
        <time>2026-08-14T16:57:06.708Z</time>
      </trkpt>
      <trkpt lon="-103.662741" lat="41.371366">
        <ele>1907.05</ele>
        <time>2026-08-14T16:57:21.936Z</time>
      </trkpt>
      <trkpt lon="-103.662172" lat="41.381405">
        <ele>1890.44</ele>
        <time>2026-08-14T16:57:42.448Z</time>
      </trkpt>
      <trkpt lon="-103.661125" lat="41.388186">
        <ele>1879.36</ele>
        <time>2026-08-14T16:57:56.520Z</time>
      </trkpt>
      <trkpt lon="-103.660682" lat="41.395040">
        <ele>1883.54</ele>
        <time>2026-08-14T16:58:11.724Z</time>
      </trkpt>
      <trkpt lon="-103.660417" lat="41.398132">
        <ele>1886.41</ele>
        <time>2026-08-14T16:58:18.732Z</time>
      </trkpt>
      <trkpt lon="-103.660119" lat="41.399678">
        <ele>1887.21</ele>
        <time>2026-08-14T16:58:22.232Z</time>
      </trkpt>
      <trkpt lon="-103.658829" lat="41.404454">
        <ele>1894.28</ele>
        <time>2026-08-14T16:58:33.268Z</time>
      </trkpt>
      <trkpt lon="-103.658295" lat="41.406849">
        <ele>1883.18</ele>
        <time>2026-08-14T16:58:38.540Z</time>
      </trkpt>
      <trkpt lon="-103.657921" lat="41.408207">
        <ele>1878.92</ele>
        <time>2026-08-14T16:58:41.440Z</time>
      </trkpt>
      <trkpt lon="-103.656879" lat="41.411724">
        <ele>1873.62</ele>
        <time>2026-08-14T16:58:48.976Z</time>
      </trkpt>
      <trkpt lon="-103.655499" lat="41.418434">
        <ele>1855.66</ele>
        <time>2026-08-14T16:59:02.944Z</time>
      </trkpt>
      <trkpt lon="-103.654494" lat="41.430633">
        <ele>1868.67</ele>
        <time>2026-08-14T16:59:28.836Z</time>
      </trkpt>
      <trkpt lon="-103.654045" lat="41.433152">
        <ele>1868.34</ele>
        <time>2026-08-14T16:59:34.056Z</time>
      </trkpt>
      <trkpt lon="-103.653882" lat="41.434888">
        <ele>1864.46</ele>
        <time>2026-08-14T16:59:37.620Z</time>
      </trkpt>
      <trkpt lon="-103.653713" lat="41.437179">
        <ele>1861.72</ele>
        <time>2026-08-14T16:59:42.296Z</time>
      </trkpt>
      <trkpt lon="-103.653404" lat="41.439214">
        <ele>1860.02</ele>
        <time>2026-08-14T16:59:46.412Z</time>
      </trkpt>
      <trkpt lon="-103.651916" lat="41.445293">
        <ele>1853.57</ele>
        <time>2026-08-14T16:59:58.720Z</time>
      </trkpt>
      <trkpt lon="-103.650861" lat="41.450401">
        <ele>1825.07</ele>
        <time>2026-08-14T17:00:08.712Z</time>
      </trkpt>
      <trkpt lon="-103.649845" lat="41.458098">
        <ele>1796.01</ele>
        <time>2026-08-14T17:00:23.912Z</time>
      </trkpt>
      <trkpt lon="-103.649790" lat="41.459290">
        <ele>1785.48</ele>
        <time>2026-08-14T17:00:26.232Z</time>
      </trkpt>
      <trkpt lon="-103.649662" lat="41.462989">
        <ele>1757.94</ele>
        <time>2026-08-14T17:00:33.244Z</time>
      </trkpt>
      <trkpt lon="-103.649839" lat="41.469026">
        <ele>1750.14</ele>
        <time>2026-08-14T17:00:44.976Z</time>
      </trkpt>
      <trkpt lon="-103.650263" lat="41.473016">
        <ele>1724.03</ele>
        <time>2026-08-14T17:00:52.564Z</time>
      </trkpt>
      <trkpt lon="-103.651283" lat="41.478501">
        <ele>1721.08</ele>
        <time>2026-08-14T17:01:03.132Z</time>
      </trkpt>
      <trkpt lon="-103.653041" lat="41.484445">
        <ele>1698.82</ele>
        <time>2026-08-14T17:01:14.804Z</time>
      </trkpt>
      <trkpt lon="-103.654805" lat="41.488853">
        <ele>1682.98</ele>
        <time>2026-08-14T17:01:23.596Z</time>
      </trkpt>
      <trkpt lon="-103.655863" lat="41.491485">
        <ele>1670.6</ele>
        <time>2026-08-14T17:01:28.828Z</time>
      </trkpt>
      <trkpt lon="-103.656360" lat="41.493314">
        <ele>1663.04</ele>
        <time>2026-08-14T17:01:32.324Z</time>
      </trkpt>
      <trkpt lon="-103.656494" lat="41.494261">
        <ele>1662.61</ele>
        <time>2026-08-14T17:01:34.092Z</time>
      </trkpt>
      <trkpt lon="-103.656799" lat="41.498487">
        <ele>1671.41</ele>
        <time>2026-08-14T17:01:42.280Z</time>
      </trkpt>
      <trkpt lon="-103.656973" lat="41.504554">
        <ele>1658.09</ele>
        <time>2026-08-14T17:01:53.988Z</time>
      </trkpt>
      <trkpt lon="-103.657183" lat="41.507121">
        <ele>1636.66</ele>
        <time>2026-08-14T17:01:58.732Z</time>
      </trkpt>
      <trkpt lon="-103.657382" lat="41.510422">
        <ele>1630.65</ele>
        <time>2026-08-14T17:02:04.592Z</time>
      </trkpt>
      <trkpt lon="-103.657319" lat="41.514378">
        <ele>1637.55</ele>
        <time>2026-08-14T17:02:11.660Z</time>
      </trkpt>
      <trkpt lon="-103.657862" lat="41.522694">
        <ele>1645.8</ele>
        <time>2026-08-14T17:02:26.912Z</time>
      </trkpt>
      <trkpt lon="-103.658123" lat="41.527233">
        <ele>1651.84</ele>
        <time>2026-08-14T17:02:35.760Z</time>
      </trkpt>
      <trkpt lon="-103.657944" lat="41.535926">
        <ele>1637</ele>
        <time>2026-08-14T17:02:52.260Z</time>
      </trkpt>
      <trkpt lon="-103.657773" lat="41.537238">
        <ele>1634.79</ele>
        <time>2026-08-14T17:02:54.676Z</time>
      </trkpt>
      <trkpt lon="-103.656903" lat="41.540915">
        <ele>1659.69</ele>
        <time>2026-08-14T17:03:01.744Z</time>
      </trkpt>
      <trkpt lon="-103.654709" lat="41.548429">
        <ele>1641.47</ele>
        <time>2026-08-14T17:03:16.364Z</time>
      </trkpt>
      <trkpt lon="-103.652995" lat="41.554640">
        <ele>1641.05</ele>
        <time>2026-08-14T17:03:28.056Z</time>
      </trkpt>
      <trkpt lon="-103.652495" lat="41.557353">
        <ele>1643.99</ele>
        <time>2026-08-14T17:03:33.268Z</time>
      </trkpt>
      <trkpt lon="-103.652188" lat="41.562256">
        <ele>1618.07</ele>
        <time>2026-08-14T17:03:42.552Z</time>
      </trkpt>
      <trkpt lon="-103.651684" lat="41.571267">
        <ele>1620.76</ele>
        <time>2026-08-14T17:03:59.552Z</time>
      </trkpt>
      <trkpt lon="-103.651969" lat="41.575143">
        <ele>1593.62</ele>
        <time>2026-08-14T17:04:07.116Z</time>
      </trkpt>
      <trkpt lon="-103.652341" lat="41.577651">
        <ele>1575.91</ele>
        <time>2026-08-14T17:04:11.800Z</time>
      </trkpt>
      <trkpt lon="-103.652743" lat="41.579448">
        <ele>1585.13</ele>
        <time>2026-08-14T17:04:15.308Z</time>
      </trkpt>
      <trkpt lon="-103.654228" lat="41.584682">
        <ele>1557.69</ele>
        <time>2026-08-14T17:04:25.816Z</time>
      </trkpt>
      <trkpt lon="-103.654536" lat="41.585967">
        <ele>1539.22</ele>
        <time>2026-08-14T17:04:28.140Z</time>
      </trkpt>
      <trkpt lon="-103.655305" lat="41.590529">
        <ele>1548.79</ele>
        <time>2026-08-14T17:04:36.324Z</time>
      </trkpt>
      <trkpt lon="-103.655463" lat="41.591403">
        <ele>1561.25</ele>
        <time>2026-08-14T17:04:38.064Z</time>
      </trkpt>
      <trkpt lon="-103.655744" lat="41.592484">
        <ele>1575.63</ele>
        <time>2026-08-14T17:04:40.376Z</time>
      </trkpt>
      <trkpt lon="-103.656987" lat="41.595960">
        <ele>1549.37</ele>
        <time>2026-08-14T17:04:47.960Z</time>
      </trkpt>
      <trkpt lon="-103.657607" lat="41.597456">
        <ele>1523.7</ele>
        <time>2026-08-14T17:04:50.952Z</time>
      </trkpt>
      <trkpt lon="-103.660075" lat="41.604482">
        <ele>1541.39</ele>
        <time>2026-08-14T17:05:04.432Z</time>
      </trkpt>
      <trkpt lon="-103.661546" lat="41.608045">
        <ele>1563.83</ele>
        <time>2026-08-14T17:05:12.084Z</time>
      </trkpt>
      <trkpt lon="-103.663459" lat="41.612560">
        <ele>1566.98</ele>
        <time>2026-08-14T17:05:22.024Z</time>
      </trkpt>
      <trkpt lon="-103.666047" lat="41.618963">
        <ele>1568.42</ele>
        <time>2026-08-14T17:05:35.472Z</time>
      </trkpt>
      <trkpt lon="-103.666148" lat="41.619567">
        <ele>1567.36</ele>
        <time>2026-08-14T17:05:36.652Z</time>
      </trkpt>
      <trkpt lon="-103.666217" lat="41.620488">
        <ele>1565.57</ele>
        <time>2026-08-14T17:05:38.416Z</time>
      </trkpt>
      <trkpt lon="-103.666201" lat="41.621417">
        <ele>1563.24</ele>
        <time>2026-08-14T17:05:40.164Z</time>
      </trkpt>
      <trkpt lon="-103.666056" lat="41.622660">
        <ele>1559.48</ele>
        <time>2026-08-14T17:05:42.484Z</time>
      </trkpt>
      <trkpt lon="-103.665450" lat="41.625175">
        <ele>1554.1</ele>
        <time>2026-08-14T17:05:47.168Z</time>
      </trkpt>
      <trkpt lon="-103.664308" lat="41.628303">
        <ele>1555.27</ele>
        <time>2026-08-14T17:05:53.036Z</time>
      </trkpt>
      <trkpt lon="-103.662677" lat="41.632538">
        <ele>1573.42</ele>
        <time>2026-08-14T17:06:01.280Z</time>
      </trkpt>
      <trkpt lon="-103.662290" lat="41.633970">
        <ele>1584.51</ele>
        <time>2026-08-14T17:06:04.204Z</time>
      </trkpt>
      <trkpt lon="-103.659332" lat="41.647072">
        <ele>1586.78</ele>
        <time>2026-08-14T17:06:30.032Z</time>
      </trkpt>
      <trkpt lon="-103.658148" lat="41.652545">
        <ele>1584.03</ele>
        <time>2026-08-14T17:06:40.528Z</time>
      </trkpt>
      <trkpt lon="-103.656249" lat="41.658424">
        <ele>1556.05</ele>
        <time>2026-08-14T17:06:51.672Z</time>
      </trkpt>
      <trkpt lon="-103.655424" lat="41.660561">
        <ele>1548.15</ele>
        <time>2026-08-14T17:06:55.736Z</time>
      </trkpt>
      <trkpt lon="-103.654928" lat="41.661786">
        <ele>1540.65</ele>
        <time>2026-08-14T17:06:58.076Z</time>
      </trkpt>
      <trkpt lon="-103.653929" lat="41.664537">
        <ele>1540.87</ele>
        <time>2026-08-14T17:07:03.348Z</time>
      </trkpt>
      <trkpt lon="-103.652070" lat="41.670538">
        <ele>1568.72</ele>
        <time>2026-08-14T17:07:15.652Z</time>
      </trkpt>
      <trkpt lon="-103.651352" lat="41.672703">
        <ele>1576.95</ele>
        <time>2026-08-14T17:07:20.300Z</time>
      </trkpt>
      <trkpt lon="-103.648640" lat="41.681262">
        <ele>1605.48</ele>
        <time>2026-08-14T17:07:38.512Z</time>
      </trkpt>
      <trkpt lon="-103.648019" lat="41.683479">
        <ele>1607.59</ele>
        <time>2026-08-14T17:07:43.192Z</time>
      </trkpt>
      <trkpt lon="-103.647708" lat="41.684645">
        <ele>1607.43</ele>
        <time>2026-08-14T17:07:45.556Z</time>
      </trkpt>
      <trkpt lon="-103.645754" lat="41.692111">
        <ele>1612.24</ele>
        <time>2026-08-14T17:08:00.784Z</time>
      </trkpt>
      <trkpt lon="-103.645791" lat="41.692686">
        <ele>1607.88</ele>
        <time>2026-08-14T17:08:01.940Z</time>
      </trkpt>
      <trkpt lon="-103.645972" lat="41.693554">
        <ele>1599.5</ele>
        <time>2026-08-14T17:08:03.672Z</time>
      </trkpt>
      <trkpt lon="-103.646415" lat="41.694711">
        <ele>1587.18</ele>
        <time>2026-08-14T17:08:06.016Z</time>
      </trkpt>
      <trkpt lon="-103.648773" lat="41.698838">
        <ele>1589.41</ele>
        <time>2026-08-14T17:08:14.832Z</time>
      </trkpt>
      <trkpt lon="-103.650101" lat="41.700900">
        <ele>1588.77</ele>
        <time>2026-08-14T17:08:19.496Z</time>
      </trkpt>
      <trkpt lon="-103.651502" lat="41.702619">
        <ele>1583.39</ele>
        <time>2026-08-14T17:08:23.628Z</time>
      </trkpt>
      <trkpt lon="-103.658299" lat="41.708902">
        <ele>1568.86</ele>
        <time>2026-08-14T17:08:40.064Z</time>
      </trkpt>
      <trkpt lon="-103.658905" lat="41.709287">
        <ele>1564.1</ele>
        <time>2026-08-14T17:08:41.248Z</time>
      </trkpt>
      <trkpt lon="-103.659913" lat="41.709809">
        <ele>1550.39</ele>
        <time>2026-08-14T17:08:43.020Z</time>
      </trkpt>
      <trkpt lon="-103.661777" lat="41.710611">
        <ele>1527.13</ele>
        <time>2026-08-14T17:08:46.000Z</time>
      </trkpt>
      <trkpt lon="-103.663761" lat="41.711367">
        <ele>1500.51</ele>
        <time>2026-08-14T17:08:48.940Z</time>
      </trkpt>
      <trkpt lon="-103.665460" lat="41.712010">
        <ele>1477.59</ele>
        <time>2026-08-14T17:08:51.320Z</time>
      </trkpt>
      <trkpt lon="-103.667213" lat="41.712693">
        <ele>1457.18</ele>
        <time>2026-08-14T17:08:53.700Z</time>
      </trkpt>
      <trkpt lon="-103.668079" lat="41.713066">
        <ele>1449.62</ele>
        <time>2026-08-14T17:08:54.868Z</time>
      </trkpt>
      <trkpt lon="-103.671497" lat="41.714703">
        <ele>1425.8</ele>
        <time>2026-08-14T17:08:59.592Z</time>
      </trkpt>
      <trkpt lon="-103.672770" lat="41.715333">
        <ele>1398.11</ele>
        <time>2026-08-14T17:09:01.364Z</time>
      </trkpt>
      <trkpt lon="-103.673642" lat="41.715786">
        <ele>1377.16</ele>
        <time>2026-08-14T17:09:02.552Z</time>
      </trkpt>
      <trkpt lon="-103.674925" lat="41.716538">
        <ele>1356.09</ele>
        <time>2026-08-14T17:09:04.340Z</time>
      </trkpt>
      <trkpt lon="-103.677278" lat="41.718194">
        <ele>1345.33</ele>
        <time>2026-08-14T17:09:07.924Z</time>
      </trkpt>
      <trkpt lon="-103.679915" lat="41.720269">
        <ele>1354.85</ele>
        <time>2026-08-14T17:09:12.364Z</time>
      </trkpt>
      <trkpt lon="-103.681735" lat="41.721913">
        <ele>1363.08</ele>
        <time>2026-08-14T17:09:15.928Z</time>
      </trkpt>
      <trkpt lon="-103.682252" lat="41.722550">
        <ele>1363.21</ele>
        <time>2026-08-14T17:09:17.116Z</time>
      </trkpt>
      <trkpt lon="-103.682654" lat="41.723175">
        <ele>1363.11</ele>
        <time>2026-08-14T17:09:18.280Z</time>
      </trkpt>
      <trkpt lon="-103.683116" lat="41.724155">
        <ele>1362.58</ele>
        <time>2026-08-14T17:09:20.028Z</time>
      </trkpt>
      <trkpt lon="-103.683326" lat="41.724835">
        <ele>1361.77</ele>
        <time>2026-08-14T17:09:21.204Z</time>
      </trkpt>
      <trkpt lon="-103.683448" lat="41.725528">
        <ele>1359.78</ele>
        <time>2026-08-14T17:09:22.400Z</time>
      </trkpt>
      <trkpt lon="-103.683481" lat="41.726247">
        <ele>1358.68</ele>
        <time>2026-08-14T17:09:23.580Z</time>
      </trkpt>
      <trkpt lon="-103.683340" lat="41.727616">
        <ele>1362.46</ele>
        <time>2026-08-14T17:09:25.928Z</time>
      </trkpt>
      <trkpt lon="-103.681886" lat="41.733481">
        <ele>1366.9</ele>
        <time>2026-08-14T17:09:36.532Z</time>
      </trkpt>
      <trkpt lon="-103.680445" lat="41.737679">
        <ele>1369.21</ele>
        <time>2026-08-14T17:09:44.700Z</time>
      </trkpt>
      <trkpt lon="-103.680031" lat="41.740110">
        <ele>1373.65</ele>
        <time>2026-08-14T17:09:49.384Z</time>
      </trkpt>
      <trkpt lon="-103.679573" lat="41.743941">
        <ele>1385.88</ele>
        <time>2026-08-14T17:09:56.996Z</time>
      </trkpt>
      <trkpt lon="-103.679419" lat="41.747417">
        <ele>1384.18</ele>
        <time>2026-08-14T17:10:04.084Z</time>
      </trkpt>
      <trkpt lon="-103.679622" lat="41.752125">
        <ele>1385</ele>
        <time>2026-08-14T17:10:13.564Z</time>
      </trkpt>
      <trkpt lon="-103.679258" lat="41.755744">
        <ele>1409.48</ele>
        <time>2026-08-14T17:10:21.156Z</time>
      </trkpt>
      <trkpt lon="-103.678980" lat="41.757412">
        <ele>1409.26</ele>
        <time>2026-08-14T17:10:24.668Z</time>
      </trkpt>
      <trkpt lon="-103.678357" lat="41.760008">
        <ele>1405.22</ele>
        <time>2026-08-14T17:10:29.928Z</time>
      </trkpt>
      <trkpt lon="-103.676946" lat="41.764786">
        <ele>1419.15</ele>
        <time>2026-08-14T17:10:39.916Z</time>
      </trkpt>
      <trkpt lon="-103.676104" lat="41.767634">
        <ele>1425.42</ele>
        <time>2026-08-14T17:10:45.816Z</time>
      </trkpt>
      <trkpt lon="-103.674589" lat="41.772595">
        <ele>1411.78</ele>
        <time>2026-08-14T17:10:55.744Z</time>
      </trkpt>
      <trkpt lon="-103.674510" lat="41.772894">
        <ele>1410.18</ele>
        <time>2026-08-14T17:10:56.320Z</time>
      </trkpt>
      <trkpt lon="-103.674808" lat="41.776197">
        <ele>1413.66</ele>
        <time>2026-08-14T17:11:02.832Z</time>
      </trkpt>
      <trkpt lon="-103.674897" lat="41.776512">
        <ele>1415.34</ele>
        <time>2026-08-14T17:11:03.508Z</time>
      </trkpt>
      <trkpt lon="-103.675143" lat="41.777386">
        <ele>1418</ele>
        <time>2026-08-14T17:11:05.280Z</time>
      </trkpt>
      <trkpt lon="-103.675825" lat="41.782731">
        <ele>1404.27</ele>
        <time>2026-08-14T17:11:15.836Z</time>
      </trkpt>
      <trkpt lon="-103.675431" lat="41.790879">
        <ele>1396.87</ele>
        <time>2026-08-14T17:11:31.116Z</time>
      </trkpt>
      <trkpt lon="-103.674498" lat="41.795519">
        <ele>1379.31</ele>
        <time>2026-08-14T17:11:39.412Z</time>
      </trkpt>
      <trkpt lon="-103.672913" lat="41.803203">
        <ele>1366.5</ele>
        <time>2026-08-14T17:11:53.012Z</time>
      </trkpt>
      <trkpt lon="-103.672930" lat="41.804861">
        <ele>1359.25</ele>
        <time>2026-08-14T17:11:55.996Z</time>
      </trkpt>
      <trkpt lon="-103.673017" lat="41.805498">
        <ele>1355.63</ele>
        <time>2026-08-14T17:11:57.152Z</time>
      </trkpt>
      <trkpt lon="-103.673376" lat="41.806747">
        <ele>1356.67</ele>
        <time>2026-08-14T17:11:59.480Z</time>
      </trkpt>
      <trkpt lon="-103.673633" lat="41.807333">
        <ele>1360.52</ele>
        <time>2026-08-14T17:12:00.636Z</time>
      </trkpt>
      <trkpt lon="-103.674117" lat="41.808186">
        <ele>1367.21</ele>
        <time>2026-08-14T17:12:02.452Z</time>
      </trkpt>
      <trkpt lon="-103.674655" lat="41.808995">
        <ele>1372.74</ele>
        <time>2026-08-14T17:12:04.200Z</time>
      </trkpt>
      <trkpt lon="-103.675161" lat="41.809771">
        <ele>1381.92</ele>
        <time>2026-08-14T17:12:05.928Z</time>
      </trkpt>
      <trkpt lon="-103.675827" lat="41.811032">
        <ele>1406.54</ele>
        <time>2026-08-14T17:12:08.828Z</time>
      </trkpt>
      <trkpt lon="-103.676662" lat="41.812762">
        <ele>1432.76</ele>
        <time>2026-08-14T17:12:12.988Z</time>
      </trkpt>
      <trkpt lon="-103.679531" lat="41.818461">
        <ele>1444.21</ele>
        <time>2026-08-14T17:12:26.404Z</time>
      </trkpt>
      <trkpt lon="-103.680562" lat="41.821291">
        <ele>1455.92</ele>
        <time>2026-08-14T17:12:32.332Z</time>
      </trkpt>
      <trkpt lon="-103.681344" lat="41.824099">
        <ele>1484.53</ele>
        <time>2026-08-14T17:12:38.180Z</time>
      </trkpt>
      <trkpt lon="-103.681668" lat="41.825612">
        <ele>1502.77</ele>
        <time>2026-08-14T17:12:41.896Z</time>
      </trkpt>
      <trkpt lon="-103.682356" lat="41.831004">
        <ele>1502.58</ele>
        <time>2026-08-14T17:12:53.972Z</time>
      </trkpt>
      <trkpt lon="-103.682390" lat="41.832224">
        <ele>1497.72</ele>
        <time>2026-08-14T17:12:56.328Z</time>
      </trkpt>
      <trkpt lon="-103.682259" lat="41.834897">
        <ele>1528.14</ele>
        <time>2026-08-14T17:13:01.696Z</time>
      </trkpt>
      <trkpt lon="-103.682210" lat="41.836803">
        <ele>1563.65</ele>
        <time>2026-08-14T17:13:06.064Z</time>
      </trkpt>
      <trkpt lon="-103.682466" lat="41.840049">
        <ele>1556.55</ele>
        <time>2026-08-14T17:13:13.232Z</time>
      </trkpt>
      <trkpt lon="-103.682752" lat="41.842718">
        <ele>1537.77</ele>
        <time>2026-08-14T17:13:18.580Z</time>
      </trkpt>
      <trkpt lon="-103.682910" lat="41.845235">
        <ele>1559.77</ele>
        <time>2026-08-14T17:13:23.776Z</time>
      </trkpt>
      <trkpt lon="-103.683132" lat="41.847329">
        <ele>1585.24</ele>
        <time>2026-08-14T17:13:28.520Z</time>
      </trkpt>
      <trkpt lon="-103.683500" lat="41.849134">
        <ele>1587.18</ele>
        <time>2026-08-14T17:13:32.680Z</time>
      </trkpt>
      <trkpt lon="-103.684218" lat="41.851702">
        <ele>1562.57</ele>
        <time>2026-08-14T17:13:38.172Z</time>
      </trkpt>
      <trkpt lon="-103.685085" lat="41.855677">
        <ele>1588.02</ele>
        <time>2026-08-14T17:13:46.516Z</time>
      </trkpt>
      <trkpt lon="-103.687407" lat="41.866203">
        <ele>1623.3</ele>
        <time>2026-08-14T17:14:09.516Z</time>
      </trkpt>
      <trkpt lon="-103.688549" lat="41.870090">
        <ele>1642.88</ele>
        <time>2026-08-14T17:14:18.348Z</time>
      </trkpt>
      <trkpt lon="-103.690341" lat="41.874383">
        <ele>1674.64</ele>
        <time>2026-08-14T17:14:28.264Z</time>
      </trkpt>
      <trkpt lon="-103.690703" lat="41.875261">
        <ele>1696.22</ele>
        <time>2026-08-14T17:14:30.572Z</time>
      </trkpt>
      <trkpt lon="-103.692216" lat="41.878693">
        <ele>1730.1</ele>
        <time>2026-08-14T17:14:39.388Z</time>
      </trkpt>
      <trkpt lon="-103.694346" lat="41.883611">
        <ele>1773.63</ele>
        <time>2026-08-14T17:14:51.128Z</time>
      </trkpt>
      <trkpt lon="-103.695276" lat="41.885346">
        <ele>1796.37</ele>
        <time>2026-08-14T17:14:55.808Z</time>
      </trkpt>
      <trkpt lon="-103.696222" lat="41.886775">
        <ele>1806.35</ele>
        <time>2026-08-14T17:14:59.916Z</time>
      </trkpt>
      <trkpt lon="-103.698165" lat="41.889276">
        <ele>1790.49</ele>
        <time>2026-08-14T17:15:06.968Z</time>
      </trkpt>
      <trkpt lon="-103.699196" lat="41.890650">
        <ele>1781.42</ele>
        <time>2026-08-14T17:15:10.460Z</time>
      </trkpt>
      <trkpt lon="-103.700897" lat="41.893458">
        <ele>1749.74</ele>
        <time>2026-08-14T17:15:16.960Z</time>
      </trkpt>
      <trkpt lon="-103.701148" lat="41.894018">
        <ele>1742.45</ele>
        <time>2026-08-14T17:15:18.116Z</time>
      </trkpt>
      <trkpt lon="-103.701591" lat="41.895497">
        <ele>1742.11</ele>
        <time>2026-08-14T17:15:21.068Z</time>
      </trkpt>
      <trkpt lon="-103.702000" lat="41.898401">
        <ele>1739.51</ele>
        <time>2026-08-14T17:15:26.960Z</time>
      </trkpt>
      <trkpt lon="-103.702095" lat="41.900209">
        <ele>1689.42</ele>
        <time>2026-08-14T17:15:30.444Z</time>
      </trkpt>
      <trkpt lon="-103.702116" lat="41.900503">
        <ele>1669.69</ele>
        <time>2026-08-14T17:15:31.052Z</time>
      </trkpt>
      <trkpt lon="-103.702136" lat="41.900801">
        <ele>1646.21</ele>
        <time>2026-08-14T17:15:31.656Z</time>
      </trkpt>
      <trkpt lon="-103.702157" lat="41.901420">
        <ele>1593.33</ele>
        <time>2026-08-14T17:15:32.864Z</time>
      </trkpt>
      <trkpt lon="-103.702154" lat="41.902077">
        <ele>1531.58</ele>
        <time>2026-08-14T17:15:34.116Z</time>
      </trkpt>
      <trkpt lon="-103.702122" lat="41.902441">
        <ele>1497.21</ele>
        <time>2026-08-14T17:15:34.716Z</time>
      </trkpt>
      <trkpt lon="-103.702058" lat="41.902790">
        <ele>1465.73</ele>
        <time>2026-08-14T17:15:35.300Z</time>
      </trkpt>
      <trkpt lon="-103.701940" lat="41.903165">
        <ele>1436.08</ele>
        <time>2026-08-14T17:15:35.884Z</time>
      </trkpt>
      <trkpt lon="-103.701766" lat="41.903543">
        <ele>1412.17</ele>
        <time>2026-08-14T17:15:36.472Z</time>
      </trkpt>
      <trkpt lon="-103.701262" lat="41.904303">
        <ele>1381.59</ele>
        <time>2026-08-14T17:15:37.652Z</time>
      </trkpt>
      <trkpt lon="-103.700959" lat="41.904692">
        <ele>1371.44</ele>
        <time>2026-08-14T17:15:38.256Z</time>
      </trkpt>
      <trkpt lon="-103.700377" lat="41.905474">
        <ele>1358.35</ele>
        <time>2026-08-14T17:15:39.468Z</time>
      </trkpt>
      <trkpt lon="-103.698890" lat="41.907844">
        <ele>1354.26</ele>
        <time>2026-08-14T17:15:42.980Z</time>
      </trkpt>
      <trkpt lon="-103.698378" lat="41.908626">
        <ele>1354.76</ele>
        <time>2026-08-14T17:15:44.184Z</time>
      </trkpt>
      <trkpt lon="-103.697844" lat="41.909355">
        <ele>1358.03</ele>
        <time>2026-08-14T17:15:45.360Z</time>
      </trkpt>
      <trkpt lon="-103.696356" lat="41.911017">
        <ele>1369.11</ele>
        <time>2026-08-14T17:15:48.292Z</time>
      </trkpt>
      <trkpt lon="-103.695056" lat="41.912202">
        <ele>1375.4</ele>
        <time>2026-08-14T17:15:50.636Z</time>
      </trkpt>
      <trkpt lon="-103.693261" lat="41.913497">
        <ele>1388.39</ele>
        <time>2026-08-14T17:15:53.640Z</time>
      </trkpt>
      <trkpt lon="-103.691184" lat="41.914816">
        <ele>1412.96</ele>
        <time>2026-08-14T17:15:57.152Z</time>
      </trkpt>
      <trkpt lon="-103.689928" lat="41.915747">
        <ele>1420.07</ele>
        <time>2026-08-14T17:15:59.516Z</time>
      </trkpt>
      <trkpt lon="-103.689371" lat="41.916250">
        <ele>1424.4</ele>
        <time>2026-08-14T17:16:00.712Z</time>
      </trkpt>
      <trkpt lon="-103.688684" lat="41.917030">
        <ele>1431.75</ele>
        <time>2026-08-14T17:16:02.444Z</time>
      </trkpt>
      <trkpt lon="-103.688319" lat="41.917585">
        <ele>1436.24</ele>
        <time>2026-08-14T17:16:03.612Z</time>
      </trkpt>
      <trkpt lon="-103.687930" lat="41.918475">
        <ele>1440.17</ele>
        <time>2026-08-14T17:16:05.376Z</time>
      </trkpt>
      <trkpt lon="-103.687786" lat="41.919095">
        <ele>1441.23</ele>
        <time>2026-08-14T17:16:06.580Z</time>
      </trkpt>
      <trkpt lon="-103.687742" lat="41.920033">
        <ele>1440.28</ele>
        <time>2026-08-14T17:16:08.328Z</time>
      </trkpt>
      <trkpt lon="-103.687829" lat="41.920675">
        <ele>1438.68</ele>
        <time>2026-08-14T17:16:09.548Z</time>
      </trkpt>
      <trkpt lon="-103.688014" lat="41.921347">
        <ele>1437.26</ele>
        <time>2026-08-14T17:16:10.852Z</time>
      </trkpt>
      <trkpt lon="-103.688251" lat="41.921936">
        <ele>1436.98</ele>
        <time>2026-08-14T17:16:12.032Z</time>
      </trkpt>
      <trkpt lon="-103.688389" lat="41.922224">
        <ele>1436.99</ele>
        <time>2026-08-14T17:16:12.624Z</time>
      </trkpt>
      <trkpt lon="-103.688713" lat="41.922788">
        <ele>1437.16</ele>
        <time>2026-08-14T17:16:13.820Z</time>
      </trkpt>
      <trkpt lon="-103.689325" lat="41.923550">
        <ele>1438.26</ele>
        <time>2026-08-14T17:16:15.584Z</time>
      </trkpt>
      <trkpt lon="-103.689560" lat="41.923773">
        <ele>1438.77</ele>
        <time>2026-08-14T17:16:16.172Z</time>
      </trkpt>
      <trkpt lon="-103.689813" lat="41.923984">
        <ele>1439.32</ele>
        <time>2026-08-14T17:16:16.752Z</time>
      </trkpt>
      <trkpt lon="-103.690077" lat="41.924175">
        <ele>1439.9</ele>
        <time>2026-08-14T17:16:17.332Z</time>
      </trkpt>
      <trkpt lon="-103.690356" lat="41.924351">
        <ele>1440.51</ele>
        <time>2026-08-14T17:16:17.932Z</time>
      </trkpt>
      <trkpt lon="-103.690667" lat="41.924513">
        <ele>1441.12</ele>
        <time>2026-08-14T17:16:18.528Z</time>
      </trkpt>
      <trkpt lon="-103.690981" lat="41.924636">
        <ele>1441.68</ele>
        <time>2026-08-14T17:16:19.116Z</time>
      </trkpt>
      <trkpt lon="-103.692300" lat="41.924677">
        <ele>1431.84</ele>
        <time>2026-08-14T17:16:21.484Z</time>
      </trkpt>
      <trkpt lon="-103.692616" lat="41.924588">
        <ele>1426.48</ele>
        <time>2026-08-14T17:16:22.112Z</time>
      </trkpt>
      <trkpt lon="-103.692915" lat="41.924464">
        <ele>1421.86</ele>
        <time>2026-08-14T17:16:22.700Z</time>
      </trkpt>
      <trkpt lon="-103.693903" lat="41.923854">
        <ele>1421.16</ele>
        <time>2026-08-14T17:16:25.028Z</time>
      </trkpt>
      <trkpt lon="-103.694123" lat="41.923696">
        <ele>1424.2</ele>
        <time>2026-08-14T17:16:25.596Z</time>
      </trkpt>
      <trkpt lon="-103.694548" lat="41.923370">
        <ele>1431.23</ele>
        <time>2026-08-14T17:16:26.792Z</time>
      </trkpt>
      <trkpt lon="-103.695280" lat="41.922722">
        <ele>1442.9</ele>
        <time>2026-08-14T17:16:29.136Z</time>
      </trkpt>
      <trkpt lon="-103.696242" lat="41.921850">
        <ele>1443.41</ele>
        <time>2026-08-14T17:16:32.688Z</time>
      </trkpt>
      <trkpt lon="-103.697077" lat="41.921101">
        <ele>1437.27</ele>
        <time>2026-08-14T17:16:36.216Z</time>
      </trkpt>
      <trkpt lon="-103.697655" lat="41.920334">
        <ele>1429.61</ele>
        <time>2026-08-14T17:16:39.756Z</time>
      </trkpt>
      <trkpt lon="-103.697731" lat="41.920201">
        <ele>1427.91</ele>
        <time>2026-08-14T17:16:40.364Z</time>
      </trkpt>
      <trkpt lon="-103.698036" lat="41.919414">
        <ele>1416.86</ele>
        <time>2026-08-14T17:16:43.868Z</time>
      </trkpt>
      <trkpt lon="-103.698054" lat="41.918146">
        <ele>1393.42</ele>
        <time>2026-08-14T17:16:49.208Z</time>
      </trkpt>
      <trkpt lon="-103.697984" lat="41.917303">
        <ele>1372.61</ele>
        <time>2026-08-14T17:16:52.708Z</time>
      </trkpt>
      <trkpt lon="-103.698067" lat="41.916273">
        <ele>1347.72</ele>
        <time>2026-08-14T17:16:56.820Z</time>
      </trkpt>
      <trkpt lon="-103.698401" lat="41.915366">
        <ele>1324.45</ele>
        <time>2026-08-14T17:17:00.332Z</time>
      </trkpt>
      <trkpt lon="-103.698757" lat="41.914396">
        <ele>1304.41</ele>
        <time>2026-08-14T17:17:03.924Z</time>
      </trkpt>
      <trkpt lon="-103.698901" lat="41.913926">
        <ele>1296.65</ele>
        <time>2026-08-14T17:17:05.672Z</time>
      </trkpt>
      <trkpt lon="-103.698946" lat="41.913770">
        <ele>1294.51</ele>
        <time>2026-08-14T17:17:06.248Z</time>
      </trkpt>
      <trkpt lon="-103.699025" lat="41.913459">
        <ele>1291.45</ele>
        <time>2026-08-14T17:17:07.416Z</time>
      </trkpt>
      <trkpt lon="-103.699098" lat="41.912826">
        <ele>1285.97</ele>
        <time>2026-08-14T17:17:09.804Z</time>
      </trkpt>
      <trkpt lon="-103.699021" lat="41.911640">
        <ele>1270.16</ele>
        <time>2026-08-14T17:17:14.492Z</time>
      </trkpt>
      <trkpt lon="-103.698969" lat="41.911282">
        <ele>1267.78</ele>
        <time>2026-08-14T17:17:16.256Z</time>
      </trkpt>
      <trkpt lon="-103.698897" lat="41.910993">
        <ele>1265.42</ele>
        <time>2026-08-14T17:17:18.028Z</time>
      </trkpt>
      <trkpt lon="-103.698789" lat="41.910710">
        <ele>1259.9</ele>
        <time>2026-08-14T17:17:20.388Z</time>
      </trkpt>
      <trkpt lon="-103.698675" lat="41.910505">
        <ele>1251.42</ele>
        <time>2026-08-14T17:17:22.744Z</time>
      </trkpt>
      <trkpt lon="-103.698553" lat="41.910283">
        <ele>1243.7</ele>
        <time>2026-08-14T17:17:25.140Z</time>
      </trkpt>
      <trkpt lon="-103.698555" lat="41.909547">
        <ele>1236.53</ele>
        <time>2026-08-14T17:17:31.716Z</time>
      </trkpt>
      <trkpt lon="-103.698563" lat="41.909475">
        <ele>1236.65</ele>
        <time>2026-08-14T17:17:32.292Z</time>
      </trkpt>
      <trkpt lon="-103.698568" lat="41.909407">
        <ele>1236.31</ele>
        <time>2026-08-14T17:17:32.884Z</time>
      </trkpt>
      <trkpt lon="-103.698571" lat="41.909338">
        <ele>1235.76</ele>
        <time>2026-08-14T17:17:33.476Z</time>
      </trkpt>
      <trkpt lon="-103.698721" lat="41.908801">
        <ele>1230.54</ele>
        <time>2026-08-14T17:17:38.232Z</time>
      </trkpt>
      <trkpt lon="-103.698951" lat="41.908485">
        <ele>1229.32</ele>
        <time>2026-08-14T17:17:41.152Z</time>
      </trkpt>
      <trkpt lon="-103.699229" lat="41.907789">
        <ele>1224.54</ele>
        <time>2026-08-14T17:17:47.064Z</time>
      </trkpt>
      <trkpt lon="-103.699294" lat="41.907592">
        <ele>1223.5</ele>
        <time>2026-08-14T17:17:48.844Z</time>
      </trkpt>
      <trkpt lon="-103.699489" lat="41.906986">
        <ele>1218.69</ele>
        <time>2026-08-14T17:17:54.756Z</time>
      </trkpt>
      <trkpt lon="-103.699706" lat="41.906262">
        <ele>1213.18</ele>
        <time>2026-08-14T17:18:04.160Z</time>
      </trkpt>
      <trkpt lon="-103.699712" lat="41.906160">
        <ele>1212.38</ele>
        <time>2026-08-14T17:18:05.932Z</time>
      </trkpt>
      <trkpt lon="-103.699707" lat="41.906013">
        <ele>1209.91</ele>
        <time>2026-08-14T17:18:08.928Z</time>
      </trkpt>
      <trkpt lon="-103.699740" lat="41.905923">
        <ele>1208.96</ele>
        <time>2026-08-14T17:18:11.304Z</time>
      </trkpt>
      <trkpt lon="-103.699793" lat="41.905826">
        <ele>1208.34</ele>
        <time>2026-08-14T17:18:13.680Z</time>
      </trkpt>
      <trkpt lon="-103.699800" lat="41.905647">
        <ele>1207.63</ele>
        <time>2026-08-14T17:18:17.236Z</time>
      </trkpt>
      <trkpt lon="-103.699788" lat="41.904974">
        <ele>1205.91</ele>
        <time>2026-08-14T17:18:27.528Z</time>
      </trkpt>
      <trkpt lon="-103.699784" lat="41.904945">
        <ele>1205.86</ele>
        <time>2026-08-14T17:18:28.124Z</time>
      </trkpt>
      <trkpt lon="-103.699757" lat="41.904793">
        <ele>1205.47</ele>
        <time>2026-08-14T17:18:31.160Z</time>
      </trkpt>
      <trkpt lon="-103.699759" lat="41.904702">
        <ele>1205.32</ele>
        <time>2026-08-14T17:18:32.956Z</time>
      </trkpt>
      <trkpt lon="-103.699773" lat="41.904616">
        <ele>1205.12</ele>
        <time>2026-08-14T17:18:34.732Z</time>
      </trkpt>
      <trkpt lon="-103.699801" lat="41.904535">
        <ele>1204.95</ele>
        <time>2026-08-14T17:18:36.508Z</time>
      </trkpt>
      <trkpt lon="-103.699878" lat="41.904358">
        <ele>1204.65</ele>
        <time>2026-08-14T17:18:40.664Z</time>
      </trkpt>
      <trkpt lon="-103.699922" lat="41.904187">
        <ele>1204.5</ele>
        <time>2026-08-14T17:18:47.244Z</time>
      </trkpt>
      <trkpt lon="-103.699937" lat="41.904158">
        <ele>1204.48</ele>
        <time>2026-08-14T17:18:49.568Z</time>
      </trkpt>
      <trkpt lon="-103.699950" lat="41.904141">
        <ele>1204.46</ele>
        <time>2026-08-14T17:18:50.788Z</time>
      </trkpt>
      <trkpt lon="-103.699969" lat="41.904124">
        <ele>1204.44</ele>
        <time>2026-08-14T17:18:51.976Z</time>
      </trkpt>
      <trkpt lon="-103.699995" lat="41.904108">
        <ele>1204.41</ele>
        <time>2026-08-14T17:18:53.172Z</time>
      </trkpt>
      <trkpt lon="-103.700024" lat="41.904093">
        <ele>1204.39</ele>
        <time>2026-08-14T17:18:54.324Z</time>
      </trkpt>
      <trkpt lon="-103.700041" lat="41.904087">
        <ele>1204.38</ele>
        <time>2026-08-14T17:18:54.908Z</time>
      </trkpt>
      <trkpt lon="-103.700058" lat="41.904083">
        <ele>1204.36</ele>
        <time>2026-08-14T17:18:55.488Z</time>
      </trkpt>
    </trkseg>
    <trkseg>
      <trkpt lon="9.986741" lat="53.625856">
        <ele>11.2654</ele>
        <time>2026-08-15T21:24:22.576Z</time>
      </trkpt>
    </trkseg>
    <trkseg>
      <trkpt lon="9.766871" lat="48.115866">
        <ele>580.907</ele>
        <time>2026-08-16T09:45:41.540Z</time>
      </trkpt>
      <trkpt lon="9.766858" lat="48.115873">
        <ele>580.95</ele>
        <time>2026-08-16T10:00:30.180Z</time>
      </trkpt>
      <trkpt lon="9.766847" lat="48.115874">
        <ele>580.961</ele>
        <time>2026-08-16T10:00:31.328Z</time>
      </trkpt>
      <trkpt lon="9.766831" lat="48.115871">
        <ele>580.978</ele>
        <time>2026-08-16T10:00:32.520Z</time>
      </trkpt>
      <trkpt lon="9.766815" lat="48.115863">
        <ele>580.992</ele>
        <time>2026-08-16T10:00:33.784Z</time>
      </trkpt>
      <trkpt lon="9.766811" lat="48.115853">
        <ele>580.995</ele>
        <time>2026-08-16T10:00:39.888Z</time>
      </trkpt>
      <trkpt lon="9.766815" lat="48.115841">
        <ele>580.971</ele>
        <time>2026-08-16T10:00:41.084Z</time>
      </trkpt>
      <trkpt lon="9.766833" lat="48.115821">
        <ele>580.945</ele>
        <time>2026-08-16T10:00:42.868Z</time>
      </trkpt>
      <trkpt lon="9.766909" lat="48.115753">
        <ele>580.814</ele>
        <time>2026-08-16T10:00:52.924Z</time>
      </trkpt>
      <trkpt lon="9.766934" lat="48.115730">
        <ele>580.782</ele>
        <time>2026-08-16T10:01:02.948Z</time>
      </trkpt>
      <trkpt lon="9.766985" lat="48.115676">
        <ele>580.714</ele>
        <time>2026-08-16T10:02:15.000Z</time>
      </trkpt>
      <trkpt lon="9.767111" lat="48.115539">
        <ele>580.601</ele>
        <time>2026-08-16T10:02:25.136Z</time>
      </trkpt>
      <trkpt lon="9.767178" lat="48.115466">
        <ele>580.563</ele>
        <time>2026-08-16T10:02:45.236Z</time>
      </trkpt>
      <trkpt lon="9.767261" lat="48.115384">
        <ele>580.544</ele>
        <time>2026-08-16T10:02:49.972Z</time>
      </trkpt>
      <trkpt lon="9.767465" lat="48.115214">
        <ele>580.569</ele>
        <time>2026-08-16T10:02:55.336Z</time>
      </trkpt>
      <trkpt lon="9.767514" lat="48.115171">
        <ele>580.604</ele>
        <time>2026-08-16T10:02:56.544Z</time>
      </trkpt>
      <trkpt lon="9.767529" lat="48.115147">
        <ele>580.611</ele>
        <time>2026-08-16T10:02:57.108Z</time>
      </trkpt>
      <trkpt lon="9.767538" lat="48.115125">
        <ele>580.612</ele>
        <time>2026-08-16T10:02:57.700Z</time>
      </trkpt>
      <trkpt lon="9.767540" lat="48.115112">
        <ele>580.619</ele>
        <time>2026-08-16T10:02:58.292Z</time>
      </trkpt>
      <trkpt lon="9.767537" lat="48.115088">
        <ele>580.673</ele>
        <time>2026-08-16T10:03:35.020Z</time>
      </trkpt>
      <trkpt lon="9.767533" lat="48.115079">
        <ele>580.678</ele>
        <time>2026-08-16T10:03:35.640Z</time>
      </trkpt>
      <trkpt lon="9.767526" lat="48.115067">
        <ele>580.684</ele>
        <time>2026-08-16T10:03:36.256Z</time>
      </trkpt>
      <trkpt lon="9.767516" lat="48.115055">
        <ele>580.682</ele>
        <time>2026-08-16T10:03:36.824Z</time>
      </trkpt>
      <trkpt lon="9.767502" lat="48.115041">
        <ele>580.694</ele>
        <time>2026-08-16T10:03:37.444Z</time>
      </trkpt>
      <trkpt lon="9.767218" lat="48.114814">
        <ele>580.739</ele>
        <time>2026-08-16T10:03:44.064Z</time>
      </trkpt>
      <trkpt lon="9.767194" lat="48.114796">
        <ele>580.728</ele>
        <time>2026-08-16T10:03:54.172Z</time>
      </trkpt>
      <trkpt lon="9.767051" lat="48.114691">
        <ele>580.822</ele>
        <time>2026-08-16T10:05:23.944Z</time>
      </trkpt>
      <trkpt lon="9.766707" lat="48.114432">
        <ele>580.795</ele>
        <time>2026-08-16T10:05:28.752Z</time>
      </trkpt>
      <trkpt lon="9.766362" lat="48.114179">
        <ele>580.54</ele>
        <time>2026-08-16T10:05:31.668Z</time>
      </trkpt>
      <trkpt lon="9.766201" lat="48.114058">
        <ele>580.546</ele>
        <time>2026-08-16T10:05:32.848Z</time>
      </trkpt>
      <trkpt lon="9.765737" lat="48.113751">
        <ele>581.691</ele>
        <time>2026-08-16T10:05:35.860Z</time>
      </trkpt>
      <trkpt lon="9.765185" lat="48.113356">
        <ele>584.267</ele>
        <time>2026-08-16T10:05:39.516Z</time>
      </trkpt>
      <trkpt lon="9.764723" lat="48.112988">
        <ele>585.457</ele>
        <time>2026-08-16T10:05:42.564Z</time>
      </trkpt>
      <trkpt lon="9.762470" lat="48.111351">
        <ele>589.422</ele>
        <time>2026-08-16T10:05:54.060Z</time>
      </trkpt>
      <trkpt lon="9.758613" lat="48.108548">
        <ele>598.212</ele>
        <time>2026-08-16T10:06:10.880Z</time>
      </trkpt>
      <trkpt lon="9.755834" lat="48.106115">
        <ele>613.713</ele>
        <time>2026-08-16T10:06:22.264Z</time>
      </trkpt>
      <trkpt lon="9.755368" lat="48.105693">
        <ele>617.837</ele>
        <time>2026-08-16T10:06:24.040Z</time>
      </trkpt>
      <trkpt lon="9.752774" lat="48.103386">
        <ele>632.96</ele>
        <time>2026-08-16T10:06:33.104Z</time>
      </trkpt>
      <trkpt lon="9.749973" lat="48.101047">
        <ele>638.004</ele>
        <time>2026-08-16T10:06:41.444Z</time>
      </trkpt>
      <trkpt lon="9.747345" lat="48.098618">
        <ele>634.384</ele>
        <time>2026-08-16T10:06:48.712Z</time>
      </trkpt>
      <trkpt lon="9.741405" lat="48.093149">
        <ele>653.37</ele>
        <time>2026-08-16T10:07:03.664Z</time>
      </trkpt>
      <trkpt lon="9.739583" lat="48.091710">
        <ele>674.889</ele>
        <time>2026-08-16T10:07:07.848Z</time>
      </trkpt>
      <trkpt lon="9.738262" lat="48.090784">
        <ele>694.862</ele>
        <time>2026-08-16T10:07:10.816Z</time>
      </trkpt>
      <trkpt lon="9.736803" lat="48.089664">
        <ele>718.058</ele>
        <time>2026-08-16T10:07:14.448Z</time>
      </trkpt>
      <trkpt lon="9.736602" lat="48.089458">
        <ele>721.198</ele>
        <time>2026-08-16T10:07:15.048Z</time>
      </trkpt>
      <trkpt lon="9.736415" lat="48.089253">
        <ele>724.434</ele>
        <time>2026-08-16T10:07:15.636Z</time>
      </trkpt>
      <trkpt lon="9.735652" lat="48.088189">
        <ele>741.292</ele>
        <time>2026-08-16T10:07:18.604Z</time>
      </trkpt>
      <trkpt lon="9.735306" lat="48.087492">
        <ele>751.217</ele>
        <time>2026-08-16T10:07:20.444Z</time>
      </trkpt>
      <trkpt lon="9.735068" lat="48.086809">
        <ele>759.934</ele>
        <time>2026-08-16T10:07:22.240Z</time>
      </trkpt>
      <trkpt lon="9.734900" lat="48.085888">
        <ele>770.76</ele>
        <time>2026-08-16T10:07:24.620Z</time>
      </trkpt>
      <trkpt lon="9.734883" lat="48.085316">
        <ele>776.546</ele>
        <time>2026-08-16T10:07:26.096Z</time>
      </trkpt>
      <trkpt lon="9.734962" lat="48.084604">
        <ele>783.791</ele>
        <time>2026-08-16T10:07:27.916Z</time>
      </trkpt>
      <trkpt lon="9.735148" lat="48.083907">
        <ele>790.51</ele>
        <time>2026-08-16T10:07:29.748Z</time>
      </trkpt>
      <trkpt lon="9.735439" lat="48.083223">
        <ele>797.926</ele>
        <time>2026-08-16T10:07:31.556Z</time>
      </trkpt>
      <trkpt lon="9.735824" lat="48.082586">
        <ele>805.833</ele>
        <time>2026-08-16T10:07:33.328Z</time>
      </trkpt>
      <trkpt lon="9.736332" lat="48.081974">
        <ele>812.498</ele>
        <time>2026-08-16T10:07:35.124Z</time>
      </trkpt>
      <trkpt lon="9.736732" lat="48.081600">
        <ele>816.71</ele>
        <time>2026-08-16T10:07:36.312Z</time>
      </trkpt>
      <trkpt lon="9.737188" lat="48.081246">
        <ele>821.246</ele>
        <time>2026-08-16T10:07:37.508Z</time>
      </trkpt>
      <trkpt lon="9.737695" lat="48.080920">
        <ele>825.828</ele>
        <time>2026-08-16T10:07:38.716Z</time>
      </trkpt>
      <trkpt lon="9.738243" lat="48.080627">
        <ele>830.313</ele>
        <time>2026-08-16T10:07:39.904Z</time>
      </trkpt>
      <trkpt lon="9.738819" lat="48.080371">
        <ele>834.585</ele>
        <time>2026-08-16T10:07:41.080Z</time>
      </trkpt>
      <trkpt lon="9.739429" lat="48.080147">
        <ele>838.725</ele>
        <time>2026-08-16T10:07:42.264Z</time>
      </trkpt>
      <trkpt lon="9.740743" lat="48.079799">
        <ele>845.565</ele>
        <time>2026-08-16T10:07:44.652Z</time>
      </trkpt>
      <trkpt lon="9.741439" lat="48.079678">
        <ele>847.897</ele>
        <time>2026-08-16T10:07:45.848Z</time>
      </trkpt>
      <trkpt lon="9.742142" lat="48.079595">
        <ele>849.154</ele>
        <time>2026-08-16T10:07:47.028Z</time>
      </trkpt>
      <trkpt lon="9.743226" lat="48.079541">
        <ele>849.905</ele>
        <time>2026-08-16T10:07:48.792Z</time>
      </trkpt>
      <trkpt lon="9.744303" lat="48.079571">
        <ele>849.853</ele>
        <time>2026-08-16T10:07:50.524Z</time>
      </trkpt>
      <trkpt lon="9.745792" lat="48.079742">
        <ele>849.185</ele>
        <time>2026-08-16T10:07:52.900Z</time>
      </trkpt>
      <trkpt lon="9.746920" lat="48.079973">
        <ele>848.018</ele>
        <time>2026-08-16T10:07:54.720Z</time>
      </trkpt>
      <trkpt lon="9.748379" lat="48.080398">
        <ele>845.643</ele>
        <time>2026-08-16T10:07:57.068Z</time>
      </trkpt>
      <trkpt lon="9.749827" lat="48.080953">
        <ele>844.435</ele>
        <time>2026-08-16T10:07:59.484Z</time>
      </trkpt>
      <trkpt lon="9.751525" lat="48.081774">
        <ele>842.256</ele>
        <time>2026-08-16T10:08:02.420Z</time>
      </trkpt>
      <trkpt lon="9.752505" lat="48.082353">
        <ele>844.068</ele>
        <time>2026-08-16T10:08:04.220Z</time>
      </trkpt>
      <trkpt lon="9.753966" lat="48.083414">
        <ele>852.614</ele>
        <time>2026-08-16T10:08:07.180Z</time>
      </trkpt>
      <trkpt lon="9.754749" lat="48.084134">
        <ele>862.249</ele>
        <time>2026-08-16T10:08:09.052Z</time>
      </trkpt>
      <trkpt lon="9.755158" lat="48.084632">
        <ele>870.658</ele>
        <time>2026-08-16T10:08:10.244Z</time>
      </trkpt>
      <trkpt lon="9.755491" lat="48.085156">
        <ele>880.063</ele>
        <time>2026-08-16T10:08:11.496Z</time>
      </trkpt>
      <trkpt lon="9.755908" lat="48.086213">
        <ele>896.084</ele>
        <time>2026-08-16T10:08:13.876Z</time>
      </trkpt>
      <trkpt lon="9.756107" lat="48.087027">
        <ele>902.766</ele>
        <time>2026-08-16T10:08:15.672Z</time>
      </trkpt>
      <trkpt lon="9.756435" lat="48.088685">
        <ele>908.046</ele>
        <time>2026-08-16T10:08:19.260Z</time>
      </trkpt>
      <trkpt lon="9.756309" lat="48.092033">
        <ele>936.758</ele>
        <time>2026-08-16T10:08:26.428Z</time>
      </trkpt>
      <trkpt lon="9.755928" lat="48.093102">
        <ele>946.037</ele>
        <time>2026-08-16T10:08:28.808Z</time>
      </trkpt>
      <trkpt lon="9.753943" lat="48.097739">
        <ele>980.037</ele>
        <time>2026-08-16T10:08:38.956Z</time>
      </trkpt>
      <trkpt lon="9.751932" lat="48.101711">
        <ele>1016</ele>
        <time>2026-08-16T10:08:47.336Z</time>
      </trkpt>
      <trkpt lon="9.747213" lat="48.109026">
        <ele>1051.82</ele>
        <time>2026-08-16T10:09:02.808Z</time>
      </trkpt>
      <trkpt lon="9.739877" lat="48.118470">
        <ele>1082.78</ele>
        <time>2026-08-16T10:09:23.096Z</time>
      </trkpt>
      <trkpt lon="9.735876" lat="48.122503">
        <ele>1069.21</ele>
        <time>2026-08-16T10:09:32.688Z</time>
      </trkpt>
      <trkpt lon="9.726820" lat="48.130754">
        <ele>1068.3</ele>
        <time>2026-08-16T10:09:53.528Z</time>
      </trkpt>
      <trkpt lon="9.723540" lat="48.133182">
        <ele>1073.04</ele>
        <time>2026-08-16T10:10:00.656Z</time>
      </trkpt>
      <trkpt lon="9.718787" lat="48.136465">
        <ele>1083.58</ele>
        <time>2026-08-16T10:10:10.844Z</time>
      </trkpt>
      <trkpt lon="9.714471" lat="48.140205">
        <ele>1086.25</ele>
        <time>2026-08-16T10:10:21.452Z</time>
      </trkpt>
      <trkpt lon="9.712226" lat="48.142708">
        <ele>1098.97</ele>
        <time>2026-08-16T10:10:28.104Z</time>
      </trkpt>
      <trkpt lon="9.706581" lat="48.150754">
        <ele>1132.96</ele>
        <time>2026-08-16T10:10:48.496Z</time>
      </trkpt>
      <trkpt lon="9.702770" lat="48.157661">
        <ele>1177.89</ele>
        <time>2026-08-16T10:11:05.100Z</time>
      </trkpt>
      <trkpt lon="9.700454" lat="48.162418">
        <ele>1223.68</ele>
        <time>2026-08-16T10:11:16.420Z</time>
      </trkpt>
      <trkpt lon="9.698471" lat="48.166811">
        <ele>1272.28</ele>
        <time>2026-08-16T10:11:27.072Z</time>
      </trkpt>
      <trkpt lon="9.695794" lat="48.171912">
        <ele>1323.21</ele>
        <time>2026-08-16T10:11:40.128Z</time>
      </trkpt>
      <trkpt lon="9.689133" lat="48.184287">
        <ele>1371.34</ele>
        <time>2026-08-16T10:12:10.452Z</time>
      </trkpt>
      <trkpt lon="9.682741" lat="48.197320">
        <ele>1417.54</ele>
        <time>2026-08-16T10:12:40.592Z</time>
      </trkpt>
      <trkpt lon="9.681048" lat="48.200763">
        <ele>1436.93</ele>
        <time>2026-08-16T10:12:48.844Z</time>
      </trkpt>
      <trkpt lon="9.676894" lat="48.207991">
        <ele>1442.4</ele>
        <time>2026-08-16T10:13:05.964Z</time>
      </trkpt>
      <trkpt lon="9.670390" lat="48.221346">
        <ele>1455.31</ele>
        <time>2026-08-16T10:13:36.000Z</time>
      </trkpt>
      <trkpt lon="9.663976" lat="48.233817">
        <ele>1411.65</ele>
        <time>2026-08-16T10:14:03.724Z</time>
      </trkpt>
      <trkpt lon="9.663373" lat="48.235927">
        <ele>1393.86</ele>
        <time>2026-08-16T10:14:07.856Z</time>
      </trkpt>
      <trkpt lon="9.663012" lat="48.239059">
        <ele>1374.33</ele>
        <time>2026-08-16T10:14:13.764Z</time>
      </trkpt>
      <trkpt lon="9.663210" lat="48.254849">
        <ele>1360.22</ele>
        <time>2026-08-16T10:14:44.032Z</time>
      </trkpt>
      <trkpt lon="9.663803" lat="48.261339">
        <ele>1338.39</ele>
        <time>2026-08-16T10:14:56.676Z</time>
      </trkpt>
      <trkpt lon="9.666615" lat="48.270979">
        <ele>1303.96</ele>
        <time>2026-08-16T10:15:14.548Z</time>
      </trkpt>
      <trkpt lon="9.669061" lat="48.277202">
        <ele>1314.59</ele>
        <time>2026-08-16T10:15:26.528Z</time>
      </trkpt>
      <trkpt lon="9.669804" lat="48.279796">
        <ele>1278.61</ele>
        <time>2026-08-16T10:15:31.332Z</time>
      </trkpt>
      <trkpt lon="9.670148" lat="48.280837">
        <ele>1263.06</ele>
        <time>2026-08-16T10:15:33.160Z</time>
      </trkpt>
      <trkpt lon="9.670405" lat="48.281568">
        <ele>1254.75</ele>
        <time>2026-08-16T10:15:34.408Z</time>
      </trkpt>
      <trkpt lon="9.670655" lat="48.282264">
        <ele>1249.22</ele>
        <time>2026-08-16T10:15:35.600Z</time>
      </trkpt>
      <trkpt lon="9.671507" lat="48.284713">
        <ele>1246.75</ele>
        <time>2026-08-16T10:15:39.844Z</time>
      </trkpt>
      <trkpt lon="9.672004" lat="48.287705">
        <ele>1249.77</ele>
        <time>2026-08-16T10:15:45.244Z</time>
      </trkpt>
      <trkpt lon="9.671782" lat="48.290997">
        <ele>1216.59</ele>
        <time>2026-08-16T10:15:51.180Z</time>
      </trkpt>
      <trkpt lon="9.668999" lat="48.303158">
        <ele>1197.64</ele>
        <time>2026-08-16T10:16:13.336Z</time>
      </trkpt>
      <trkpt lon="9.668340" lat="48.304757">
        <ele>1183.18</ele>
        <time>2026-08-16T10:16:16.304Z</time>
      </trkpt>
      <trkpt lon="9.667799" lat="48.305681">
        <ele>1177.88</ele>
        <time>2026-08-16T10:16:18.084Z</time>
      </trkpt>
      <trkpt lon="9.664035" lat="48.312125">
        <ele>1161.28</ele>
        <time>2026-08-16T10:16:30.636Z</time>
      </trkpt>
      <trkpt lon="9.662824" lat="48.315279">
        <ele>1124.26</ele>
        <time>2026-08-16T10:16:36.592Z</time>
      </trkpt>
      <trkpt lon="9.662072" lat="48.317308">
        <ele>1088.63</ele>
        <time>2026-08-16T10:16:40.232Z</time>
      </trkpt>
      <trkpt lon="9.660224" lat="48.321518">
        <ele>1052.91</ele>
        <time>2026-08-16T10:16:47.612Z</time>
      </trkpt>
      <trkpt lon="9.658026" lat="48.327149">
        <ele>1063.76</ele>
        <time>2026-08-16T10:16:57.908Z</time>
      </trkpt>
      <trkpt lon="9.654721" lat="48.339361">
        <ele>1045.31</ele>
        <time>2026-08-16T10:17:21.328Z</time>
      </trkpt>
      <trkpt lon="9.653401" lat="48.344723">
        <ele>1014.92</ele>
        <time>2026-08-16T10:17:30.944Z</time>
      </trkpt>
      <trkpt lon="9.652456" lat="48.350463">
        <ele>1015.63</ele>
        <time>2026-08-16T10:17:41.204Z</time>
      </trkpt>
      <trkpt lon="9.651356" lat="48.363274">
        <ele>1043.01</ele>
        <time>2026-08-16T10:18:05.748Z</time>
      </trkpt>
      <trkpt lon="9.650555" lat="48.371808">
        <ele>1074.58</ele>
        <time>2026-08-16T10:18:22.488Z</time>
      </trkpt>
      <trkpt lon="9.649578" lat="48.378089">
        <ele>1106.88</ele>
        <time>2026-08-16T10:18:35.116Z</time>
      </trkpt>
      <trkpt lon="9.649216" lat="48.380167">
        <ele>1144.74</ele>
        <time>2026-08-16T10:18:39.328Z</time>
      </trkpt>
      <trkpt lon="9.648705" lat="48.382402">
        <ele>1180.3</ele>
        <time>2026-08-16T10:18:44.092Z</time>
      </trkpt>
      <trkpt lon="9.648308" lat="48.384026">
        <ele>1221.17</ele>
        <time>2026-08-16T10:18:47.676Z</time>
      </trkpt>
      <trkpt lon="9.647261" lat="48.387787">
        <ele>1248.81</ele>
        <time>2026-08-16T10:18:56.052Z</time>
      </trkpt>
      <trkpt lon="9.646714" lat="48.389939">
        <ele>1239.45</ele>
        <time>2026-08-16T10:19:00.248Z</time>
      </trkpt>
      <trkpt lon="9.646338" lat="48.392480">
        <ele>1284.7</ele>
        <time>2026-08-16T10:19:05.080Z</time>
      </trkpt>
      <trkpt lon="9.646225" lat="48.393660">
        <ele>1313.46</ele>
        <time>2026-08-16T10:19:07.484Z</time>
      </trkpt>
      <trkpt lon="9.646133" lat="48.394550">
        <ele>1321.12</ele>
        <time>2026-08-16T10:19:09.324Z</time>
      </trkpt>
      <trkpt lon="9.645482" lat="48.397485">
        <ele>1327.91</ele>
        <time>2026-08-16T10:19:15.320Z</time>
      </trkpt>
      <trkpt lon="9.644969" lat="48.398684">
        <ele>1317.99</ele>
        <time>2026-08-16T10:19:17.752Z</time>
      </trkpt>
      <trkpt lon="9.644460" lat="48.399582">
        <ele>1309.62</ele>
        <time>2026-08-16T10:19:19.556Z</time>
      </trkpt>
      <trkpt lon="9.643293" lat="48.400993">
        <ele>1298.52</ele>
        <time>2026-08-16T10:19:22.548Z</time>
      </trkpt>
      <trkpt lon="9.642749" lat="48.401498">
        <ele>1291.33</ele>
        <time>2026-08-16T10:19:23.708Z</time>
      </trkpt>
      <trkpt lon="9.641371" lat="48.402506">
        <ele>1269.07</ele>
        <time>2026-08-16T10:19:26.164Z</time>
      </trkpt>
      <trkpt lon="9.640547" lat="48.402946">
        <ele>1254.85</ele>
        <time>2026-08-16T10:19:27.416Z</time>
      </trkpt>
      <trkpt lon="9.639660" lat="48.403318">
        <ele>1240.25</ele>
        <time>2026-08-16T10:19:28.620Z</time>
      </trkpt>
      <trkpt lon="9.637710" lat="48.403948">
        <ele>1206.98</ele>
        <time>2026-08-16T10:19:31.076Z</time>
      </trkpt>
      <trkpt lon="9.636669" lat="48.404169">
        <ele>1190</ele>
        <time>2026-08-16T10:19:32.268Z</time>
      </trkpt>
      <trkpt lon="9.635039" lat="48.404388">
        <ele>1162.59</ele>
        <time>2026-08-16T10:19:34.064Z</time>
      </trkpt>
      <trkpt lon="9.632734" lat="48.404462">
        <ele>1135.37</ele>
        <time>2026-08-16T10:19:36.452Z</time>
      </trkpt>
      <trkpt lon="9.629790" lat="48.404320">
        <ele>1093.54</ele>
        <time>2026-08-16T10:19:39.476Z</time>
      </trkpt>
      <trkpt lon="9.627959" lat="48.404205">
        <ele>1063.04</ele>
        <time>2026-08-16T10:19:41.296Z</time>
      </trkpt>
      <trkpt lon="9.625496" lat="48.404043">
        <ele>1026.29</ele>
        <time>2026-08-16T10:19:43.712Z</time>
      </trkpt>
      <trkpt lon="9.622970" lat="48.403981">
        <ele>993.494</ele>
        <time>2026-08-16T10:19:46.116Z</time>
      </trkpt>
      <trkpt lon="9.618594" lat="48.404255">
        <ele>966.65</ele>
        <time>2026-08-16T10:19:50.340Z</time>
      </trkpt>
      <trkpt lon="9.617411" lat="48.404402">
        <ele>962.454</ele>
        <time>2026-08-16T10:19:51.560Z</time>
      </trkpt>
      <trkpt lon="9.616800" lat="48.404482">
        <ele>960.687</ele>
        <time>2026-08-16T10:19:52.160Z</time>
      </trkpt>
      <trkpt lon="9.615693" lat="48.404669">
        <ele>961.042</ele>
        <time>2026-08-16T10:19:53.340Z</time>
      </trkpt>
      <trkpt lon="9.614144" lat="48.405113">
        <ele>970.809</ele>
        <time>2026-08-16T10:19:55.144Z</time>
      </trkpt>
      <trkpt lon="9.613680" lat="48.405301">
        <ele>975.618</ele>
        <time>2026-08-16T10:19:55.752Z</time>
      </trkpt>
      <trkpt lon="9.612856" lat="48.405740">
        <ele>986.047</ele>
        <time>2026-08-16T10:19:56.992Z</time>
      </trkpt>
      <trkpt lon="9.611903" lat="48.406495">
        <ele>996.841</ele>
        <time>2026-08-16T10:19:58.796Z</time>
      </trkpt>
      <trkpt lon="9.611639" lat="48.406773">
        <ele>999.149</ele>
        <time>2026-08-16T10:19:59.416Z</time>
      </trkpt>
      <trkpt lon="9.611218" lat="48.407324">
        <ele>1001.24</ele>
        <time>2026-08-16T10:20:00.584Z</time>
      </trkpt>
      <trkpt lon="9.610912" lat="48.407889">
        <ele>1002.02</ele>
        <time>2026-08-16T10:20:01.760Z</time>
      </trkpt>
      <trkpt lon="9.610797" lat="48.408201">
        <ele>1002.77</ele>
        <time>2026-08-16T10:20:02.396Z</time>
      </trkpt>
      <trkpt lon="9.610681" lat="48.408805">
        <ele>1004.45</ele>
        <time>2026-08-16T10:20:03.604Z</time>
      </trkpt>
      <trkpt lon="9.610668" lat="48.409104">
        <ele>1005.55</ele>
        <time>2026-08-16T10:20:04.212Z</time>
      </trkpt>
      <trkpt lon="9.610684" lat="48.409394">
        <ele>1007.1</ele>
        <time>2026-08-16T10:20:04.804Z</time>
      </trkpt>
      <trkpt lon="9.610799" lat="48.409950">
        <ele>1011.21</ele>
        <time>2026-08-16T10:20:06.012Z</time>
      </trkpt>
      <trkpt lon="9.611008" lat="48.410495">
        <ele>1016.38</ele>
        <time>2026-08-16T10:20:07.248Z</time>
      </trkpt>
      <trkpt lon="9.611274" lat="48.410982">
        <ele>1022.36</ele>
        <time>2026-08-16T10:20:08.432Z</time>
      </trkpt>
      <trkpt lon="9.611598" lat="48.411432">
        <ele>1028.52</ele>
        <time>2026-08-16T10:20:09.628Z</time>
      </trkpt>
      <trkpt lon="9.611950" lat="48.411835">
        <ele>1034.11</ele>
        <time>2026-08-16T10:20:10.816Z</time>
      </trkpt>
      <trkpt lon="9.612345" lat="48.412229">
        <ele>1040.05</ele>
        <time>2026-08-16T10:20:12.036Z</time>
      </trkpt>
      <trkpt lon="9.612744" lat="48.412585">
        <ele>1045.93</ele>
        <time>2026-08-16T10:20:13.244Z</time>
      </trkpt>
      <trkpt lon="9.613317" lat="48.413045">
        <ele>1053.6</ele>
        <time>2026-08-16T10:20:14.996Z</time>
      </trkpt>
      <trkpt lon="9.613710" lat="48.413328">
        <ele>1058.73</ele>
        <time>2026-08-16T10:20:16.176Z</time>
      </trkpt>
      <trkpt lon="9.614114" lat="48.413581">
        <ele>1064.09</ele>
        <time>2026-08-16T10:20:17.388Z</time>
      </trkpt>
      <trkpt lon="9.614549" lat="48.413801">
        <ele>1068.45</ele>
        <time>2026-08-16T10:20:18.644Z</time>
      </trkpt>
      <trkpt lon="9.614977" lat="48.413979">
        <ele>1070.94</ele>
        <time>2026-08-16T10:20:19.844Z</time>
      </trkpt>
      <trkpt lon="9.615414" lat="48.414126">
        <ele>1072.32</ele>
        <time>2026-08-16T10:20:21.040Z</time>
      </trkpt>
      <trkpt lon="9.616073" lat="48.414260">
        <ele>1073.97</ele>
        <time>2026-08-16T10:20:22.776Z</time>
      </trkpt>
      <trkpt lon="9.616777" lat="48.414298">
        <ele>1073.91</ele>
        <time>2026-08-16T10:20:24.592Z</time>
      </trkpt>
      <trkpt lon="9.617249" lat="48.414273">
        <ele>1072.42</ele>
        <time>2026-08-16T10:20:25.836Z</time>
      </trkpt>
      <trkpt lon="9.617465" lat="48.414248">
        <ele>1071.38</ele>
        <time>2026-08-16T10:20:26.424Z</time>
      </trkpt>
      <trkpt lon="9.617908" lat="48.414169">
        <ele>1068.53</ele>
        <time>2026-08-16T10:20:27.636Z</time>
      </trkpt>
      <trkpt lon="9.618329" lat="48.414057">
        <ele>1065.1</ele>
        <time>2026-08-16T10:20:28.820Z</time>
      </trkpt>
      <trkpt lon="9.618734" lat="48.413912">
        <ele>1061.21</ele>
        <time>2026-08-16T10:20:30.036Z</time>
      </trkpt>
      <trkpt lon="9.618929" lat="48.413831">
        <ele>1059.11</ele>
        <time>2026-08-16T10:20:30.640Z</time>
      </trkpt>
      <trkpt lon="9.619118" lat="48.413743">
        <ele>1056.97</ele>
        <time>2026-08-16T10:20:31.236Z</time>
      </trkpt>
      <trkpt lon="9.619296" lat="48.413651">
        <ele>1054.89</ele>
        <time>2026-08-16T10:20:31.820Z</time>
      </trkpt>
      <trkpt lon="9.619459" lat="48.413554">
        <ele>1052.86</ele>
        <time>2026-08-16T10:20:32.404Z</time>
      </trkpt>
      <trkpt lon="9.619751" lat="48.413326">
        <ele>1049</ele>
        <time>2026-08-16T10:20:33.608Z</time>
      </trkpt>
      <trkpt lon="9.620003" lat="48.412926">
        <ele>1042.04</ele>
        <time>2026-08-16T10:20:35.400Z</time>
      </trkpt>
      <trkpt lon="9.620053" lat="48.412618">
        <ele>1035.1</ele>
        <time>2026-08-16T10:20:36.608Z</time>
      </trkpt>
      <trkpt lon="9.620042" lat="48.412456">
        <ele>1030.74</ele>
        <time>2026-08-16T10:20:37.232Z</time>
      </trkpt>
      <trkpt lon="9.620007" lat="48.412301">
        <ele>1026.34</ele>
        <time>2026-08-16T10:20:37.824Z</time>
      </trkpt>
      <trkpt lon="9.619867" lat="48.411995">
        <ele>1017.5</ele>
        <time>2026-08-16T10:20:39.036Z</time>
      </trkpt>
      <trkpt lon="9.619655" lat="48.411708">
        <ele>1009.46</ele>
        <time>2026-08-16T10:20:40.220Z</time>
      </trkpt>
      <trkpt lon="9.619385" lat="48.411435">
        <ele>1001.76</ele>
        <time>2026-08-16T10:20:41.416Z</time>
      </trkpt>
      <trkpt lon="9.619062" lat="48.411180">
        <ele>994.655</ele>
        <time>2026-08-16T10:20:42.616Z</time>
      </trkpt>
      <trkpt lon="9.618517" lat="48.410839">
        <ele>986.345</ele>
        <time>2026-08-16T10:20:44.416Z</time>
      </trkpt>
      <trkpt lon="9.618143" lat="48.410629">
        <ele>982.741</ele>
        <time>2026-08-16T10:20:45.612Z</time>
      </trkpt>
      <trkpt lon="9.617602" lat="48.410298">
        <ele>979.69</ele>
        <time>2026-08-16T10:20:47.420Z</time>
      </trkpt>
      <trkpt lon="9.617278" lat="48.410073">
        <ele>978.888</ele>
        <time>2026-08-16T10:20:48.620Z</time>
      </trkpt>
      <trkpt lon="9.616688" lat="48.409652">
        <ele>977.301</ele>
        <time>2026-08-16T10:20:51.012Z</time>
      </trkpt>
      <trkpt lon="9.616415" lat="48.409467">
        <ele>975.711</ele>
        <time>2026-08-16T10:20:52.184Z</time>
      </trkpt>
      <trkpt lon="9.616278" lat="48.409376">
        <ele>974.55</ele>
        <time>2026-08-16T10:20:52.792Z</time>
      </trkpt>
      <trkpt lon="9.616142" lat="48.409287">
        <ele>973.245</ele>
        <time>2026-08-16T10:20:53.408Z</time>
      </trkpt>
      <trkpt lon="9.616016" lat="48.409200">
        <ele>971.883</ele>
        <time>2026-08-16T10:20:54.008Z</time>
      </trkpt>
      <trkpt lon="9.615894" lat="48.409108">
        <ele>970.344</ele>
        <time>2026-08-16T10:20:54.600Z</time>
      </trkpt>
      <trkpt lon="9.615782" lat="48.409013">
        <ele>968.539</ele>
        <time>2026-08-16T10:20:55.196Z</time>
      </trkpt>
      <trkpt lon="9.615684" lat="48.408914">
        <ele>966.462</ele>
        <time>2026-08-16T10:20:55.800Z</time>
      </trkpt>
      <trkpt lon="9.615542" lat="48.408693">
        <ele>961.503</ele>
        <time>2026-08-16T10:20:57.008Z</time>
      </trkpt>
      <trkpt lon="9.615516" lat="48.408573">
        <ele>959.639</ele>
        <time>2026-08-16T10:20:57.616Z</time>
      </trkpt>
      <trkpt lon="9.615528" lat="48.408449">
        <ele>958.158</ele>
        <time>2026-08-16T10:20:58.212Z</time>
      </trkpt>
      <trkpt lon="9.615948" lat="48.408015">
        <ele>949.5</ele>
        <time>2026-08-16T10:21:00.552Z</time>
      </trkpt>
      <trkpt lon="9.616133" lat="48.407924">
        <ele>945.198</ele>
        <time>2026-08-16T10:21:01.156Z</time>
      </trkpt>
      <trkpt lon="9.616339" lat="48.407845">
        <ele>939.887</ele>
        <time>2026-08-16T10:21:01.760Z</time>
      </trkpt>
      <trkpt lon="9.616792" lat="48.407725">
        <ele>927.625</ele>
        <time>2026-08-16T10:21:02.952Z</time>
      </trkpt>
      <trkpt lon="9.617299" lat="48.407642">
        <ele>914.709</ele>
        <time>2026-08-16T10:21:04.156Z</time>
      </trkpt>
      <trkpt lon="9.617552" lat="48.407613">
        <ele>908.958</ele>
        <time>2026-08-16T10:21:04.728Z</time>
      </trkpt>
      <trkpt lon="9.617829" lat="48.407587">
        <ele>903.072</ele>
        <time>2026-08-16T10:21:05.328Z</time>
      </trkpt>
      <trkpt lon="9.618391" lat="48.407551">
        <ele>892.157</ele>
        <time>2026-08-16T10:21:06.520Z</time>
      </trkpt>
      <trkpt lon="9.619287" lat="48.407545">
        <ele>877.019</ele>
        <time>2026-08-16T10:21:08.296Z</time>
      </trkpt>
      <trkpt lon="9.619589" lat="48.407558">
        <ele>872.735</ele>
        <time>2026-08-16T10:21:08.892Z</time>
      </trkpt>
      <trkpt lon="9.620788" lat="48.407622">
        <ele>862.992</ele>
        <time>2026-08-16T10:21:11.260Z</time>
      </trkpt>
      <trkpt lon="9.621088" lat="48.407630">
        <ele>861.98</ele>
        <time>2026-08-16T10:21:11.872Z</time>
      </trkpt>
      <trkpt lon="9.621381" lat="48.407633">
        <ele>861.353</ele>
        <time>2026-08-16T10:21:12.496Z</time>
      </trkpt>
      <trkpt lon="9.622396" lat="48.407631">
        <ele>862.38</ele>
        <time>2026-08-16T10:21:14.864Z</time>
      </trkpt>
      <trkpt lon="9.622627" lat="48.407639">
        <ele>863.188</ele>
        <time>2026-08-16T10:21:15.456Z</time>
      </trkpt>
      <trkpt lon="9.622851" lat="48.407652">
        <ele>863.998</ele>
        <time>2026-08-16T10:21:16.076Z</time>
      </trkpt>
      <trkpt lon="9.623053" lat="48.407669">
        <ele>864.711</ele>
        <time>2026-08-16T10:21:16.668Z</time>
      </trkpt>
      <trkpt lon="9.623579" lat="48.407738">
        <ele>865.257</ele>
        <time>2026-08-16T10:21:18.464Z</time>
      </trkpt>
      <trkpt lon="9.623741" lat="48.407765">
        <ele>864.544</ele>
        <time>2026-08-16T10:21:19.076Z</time>
      </trkpt>
      <trkpt lon="9.623894" lat="48.407792">
        <ele>863.576</ele>
        <time>2026-08-16T10:21:19.700Z</time>
      </trkpt>
      <trkpt lon="9.624178" lat="48.407837">
        <ele>861.721</ele>
        <time>2026-08-16T10:21:20.904Z</time>
      </trkpt>
      <trkpt lon="9.624420" lat="48.407864">
        <ele>858.801</ele>
        <time>2026-08-16T10:21:22.084Z</time>
      </trkpt>
      <trkpt lon="9.624524" lat="48.407871">
        <ele>856.57</ele>
        <time>2026-08-16T10:21:22.680Z</time>
      </trkpt>
      <trkpt lon="9.624617" lat="48.407874">
        <ele>853.797</ele>
        <time>2026-08-16T10:21:23.276Z</time>
      </trkpt>
      <trkpt lon="9.624692" lat="48.407874">
        <ele>850.702</ele>
        <time>2026-08-16T10:21:23.840Z</time>
      </trkpt>
      <trkpt lon="9.624767" lat="48.407871">
        <ele>846.532</ele>
        <time>2026-08-16T10:21:24.472Z</time>
      </trkpt>
      <trkpt lon="9.624824" lat="48.407866">
        <ele>842.204</ele>
        <time>2026-08-16T10:21:25.084Z</time>
      </trkpt>
      <trkpt lon="9.624873" lat="48.407857">
        <ele>837.159</ele>
        <time>2026-08-16T10:21:25.700Z</time>
      </trkpt>
      <trkpt lon="9.624936" lat="48.407823">
        <ele>827.326</ele>
        <time>2026-08-16T10:21:26.916Z</time>
      </trkpt>
      <trkpt lon="9.624971" lat="48.407686">
        <ele>815.246</ele>
        <time>2026-08-16T10:21:28.740Z</time>
      </trkpt>
      <trkpt lon="9.624973" lat="48.407462">
        <ele>802.826</ele>
        <time>2026-08-16T10:21:30.568Z</time>
      </trkpt>
      <trkpt lon="9.624640" lat="48.406800">
        <ele>789.225</ele>
        <time>2026-08-16T10:21:35.300Z</time>
      </trkpt>
      <trkpt lon="9.624424" lat="48.406558">
        <ele>786.896</ele>
        <time>2026-08-16T10:21:37.064Z</time>
      </trkpt>
      <trkpt lon="9.624253" lat="48.406396">
        <ele>785.357</ele>
        <time>2026-08-16T10:21:38.264Z</time>
      </trkpt>
      <trkpt lon="9.624063" lat="48.406242">
        <ele>783.35</ele>
        <time>2026-08-16T10:21:39.472Z</time>
      </trkpt>
      <trkpt lon="9.623845" lat="48.406101">
        <ele>781.242</ele>
        <time>2026-08-16T10:21:40.700Z</time>
      </trkpt>
      <trkpt lon="9.623602" lat="48.405984">
        <ele>779.896</ele>
        <time>2026-08-16T10:21:41.920Z</time>
      </trkpt>
      <trkpt lon="9.623100" lat="48.405848">
        <ele>777.111</ele>
        <time>2026-08-16T10:21:44.296Z</time>
      </trkpt>
      <trkpt lon="9.622725" lat="48.405812">
        <ele>774.42</ele>
        <time>2026-08-16T10:21:46.064Z</time>
      </trkpt>
      <trkpt lon="9.622132" lat="48.405808">
        <ele>770.16</ele>
        <time>2026-08-16T10:21:49.072Z</time>
      </trkpt>
      <trkpt lon="9.621246" lat="48.405821">
        <ele>767.119</ele>
        <time>2026-08-16T10:21:55.008Z</time>
      </trkpt>
      <trkpt lon="9.620991" lat="48.405808">
        <ele>767.082</ele>
        <time>2026-08-16T10:21:58.616Z</time>
      </trkpt>
      <trkpt lon="9.620970" lat="48.405808">
        <ele>767.063</ele>
        <time>2026-08-16T10:22:08.732Z</time>
      </trkpt>
    </trkseg>
    <trkseg>
      <trkpt lon="7.153082" lat="50.768935">
        <ele>60.8417</ele>
        <time>2026-08-16T14:55:51.292Z</time>
      </trkpt>
      <trkpt lon="7.153060" lat="50.768939">
        <ele>61.685</ele>
        <time>2026-08-16T14:57:40.728Z</time>
      </trkpt>
      <trkpt lon="7.152927" lat="50.768941">
        <ele>63.8772</ele>
        <time>2026-08-16T15:00:48.028Z</time>
      </trkpt>
      <trkpt lon="7.152720" lat="50.768942">
        <ele>66.3658</ele>
        <time>2026-08-16T15:00:50.552Z</time>
      </trkpt>
      <trkpt lon="7.152167" lat="50.768966">
        <ele>71.6204</ele>
        <time>2026-08-16T15:00:54.368Z</time>
      </trkpt>
      <trkpt lon="7.152056" lat="50.768977">
        <ele>72.8105</ele>
        <time>2026-08-16T15:00:55.000Z</time>
      </trkpt>
      <trkpt lon="7.151328" lat="50.769264">
        <ele>80.1403</ele>
        <time>2026-08-16T15:00:59.436Z</time>
      </trkpt>
      <trkpt lon="7.151132" lat="50.769406">
        <ele>80.6313</ele>
        <time>2026-08-16T15:01:00.704Z</time>
      </trkpt>
      <trkpt lon="7.150351" lat="50.770096">
        <ele>90.6212</ele>
        <time>2026-08-16T15:01:05.772Z</time>
      </trkpt>
      <trkpt lon="7.149558" lat="50.770814">
        <ele>109.247</ele>
        <time>2026-08-16T15:01:10.752Z</time>
      </trkpt>
      <trkpt lon="7.148953" lat="50.771325">
        <ele>125.659</ele>
        <time>2026-08-16T15:01:14.436Z</time>
      </trkpt>
      <trkpt lon="7.148168" lat="50.771878">
        <ele>144.024</ele>
        <time>2026-08-16T15:01:18.780Z</time>
      </trkpt>
      <trkpt lon="7.146960" lat="50.772424">
        <ele>157.369</ele>
        <time>2026-08-16T15:01:23.848Z</time>
      </trkpt>
      <trkpt lon="7.146790" lat="50.772484">
        <ele>158.765</ele>
        <time>2026-08-16T15:01:24.460Z</time>
      </trkpt>
      <trkpt lon="7.146609" lat="50.772543">
        <ele>160.292</ele>
        <time>2026-08-16T15:01:25.092Z</time>
      </trkpt>
      <trkpt lon="7.144926" lat="50.772817">
        <ele>167.184</ele>
        <time>2026-08-16T15:01:30.128Z</time>
      </trkpt>
      <trkpt lon="7.144824" lat="50.772823">
        <ele>167.351</ele>
        <time>2026-08-16T15:01:30.760Z</time>
      </trkpt>
      <trkpt lon="7.144786" lat="50.772809">
        <ele>167.058</ele>
        <time>2026-08-16T15:01:32.028Z</time>
      </trkpt>
      <trkpt lon="7.144741" lat="50.772794">
        <ele>165.861</ele>
        <time>2026-08-16T15:01:32.660Z</time>
      </trkpt>
      <trkpt lon="7.144575" lat="50.772737">
        <ele>160.912</ele>
        <time>2026-08-16T15:01:33.916Z</time>
      </trkpt>
      <trkpt lon="7.144316" lat="50.772644">
        <ele>152.581</ele>
        <time>2026-08-16T15:01:35.168Z</time>
      </trkpt>
      <trkpt lon="7.143765" lat="50.772433">
        <ele>140.829</ele>
        <time>2026-08-16T15:01:37.068Z</time>
      </trkpt>
      <trkpt lon="7.142566" lat="50.772025">
        <ele>145.19</ele>
        <time>2026-08-16T15:01:40.836Z</time>
      </trkpt>
      <trkpt lon="7.142200" lat="50.771888">
        <ele>151.183</ele>
        <time>2026-08-16T15:01:42.104Z</time>
      </trkpt>
      <trkpt lon="7.141615" lat="50.771562">
        <ele>164.323</ele>
        <time>2026-08-16T15:01:44.640Z</time>
      </trkpt>
      <trkpt lon="7.141506" lat="50.771466">
        <ele>167.448</ele>
        <time>2026-08-16T15:01:45.272Z</time>
      </trkpt>
      <trkpt lon="7.141340" lat="50.771253">
        <ele>173.197</ele>
        <time>2026-08-16T15:01:46.532Z</time>
      </trkpt>
      <trkpt lon="7.141215" lat="50.770882">
        <ele>179.408</ele>
        <time>2026-08-16T15:01:48.436Z</time>
      </trkpt>
      <trkpt lon="7.141184" lat="50.770621">
        <ele>182.642</ele>
        <time>2026-08-16T15:01:49.660Z</time>
      </trkpt>
      <trkpt lon="7.141134" lat="50.770199">
        <ele>188.517</ele>
        <time>2026-08-16T15:01:51.528Z</time>
      </trkpt>
      <trkpt lon="7.141014" lat="50.769772">
        <ele>196.009</ele>
        <time>2026-08-16T15:01:53.428Z</time>
      </trkpt>
      <trkpt lon="7.140818" lat="50.769364">
        <ele>203.955</ele>
        <time>2026-08-16T15:01:55.296Z</time>
      </trkpt>
      <trkpt lon="7.140330" lat="50.768546">
        <ele>220.057</ele>
        <time>2026-08-16T15:01:59.096Z</time>
      </trkpt>
      <trkpt lon="7.139650" lat="50.767312">
        <ele>246.085</ele>
        <time>2026-08-16T15:02:04.764Z</time>
      </trkpt>
      <trkpt lon="7.139165" lat="50.766354">
        <ele>272.566</ele>
        <time>2026-08-16T15:02:09.204Z</time>
      </trkpt>
      <trkpt lon="7.138868" lat="50.765709">
        <ele>290.595</ele>
        <time>2026-08-16T15:02:12.336Z</time>
      </trkpt>
      <trkpt lon="7.138813" lat="50.765580">
        <ele>293.577</ele>
        <time>2026-08-16T15:02:12.968Z</time>
      </trkpt>
      <trkpt lon="7.138633" lat="50.764770">
        <ele>303.389</ele>
        <time>2026-08-16T15:02:16.756Z</time>
      </trkpt>
      <trkpt lon="7.138672" lat="50.764165">
        <ele>306.554</ele>
        <time>2026-08-16T15:02:19.288Z</time>
      </trkpt>
      <trkpt lon="7.138790" lat="50.762833">
        <ele>314.894</ele>
        <time>2026-08-16T15:02:24.360Z</time>
      </trkpt>
      <trkpt lon="7.138890" lat="50.759762">
        <ele>329.194</ele>
        <time>2026-08-16T15:02:35.068Z</time>
      </trkpt>
      <trkpt lon="7.139035" lat="50.758781">
        <ele>334.687</ele>
        <time>2026-08-16T15:02:38.232Z</time>
      </trkpt>
      <trkpt lon="7.139160" lat="50.758179">
        <ele>338.636</ele>
        <time>2026-08-16T15:02:40.132Z</time>
      </trkpt>
      <trkpt lon="7.139502" lat="50.756948">
        <ele>348.571</ele>
        <time>2026-08-16T15:02:43.916Z</time>
      </trkpt>
      <trkpt lon="7.139787" lat="50.756110">
        <ele>356.505</ele>
        <time>2026-08-16T15:02:46.444Z</time>
      </trkpt>
      <trkpt lon="7.139860" lat="50.755908">
        <ele>358.291</ele>
        <time>2026-08-16T15:02:47.052Z</time>
      </trkpt>
      <trkpt lon="7.140039" lat="50.755486">
        <ele>362.18</ele>
        <time>2026-08-16T15:02:48.324Z</time>
      </trkpt>
      <trkpt lon="7.140272" lat="50.755096">
        <ele>366.611</ele>
        <time>2026-08-16T15:02:49.548Z</time>
      </trkpt>
      <trkpt lon="7.140989" lat="50.754343">
        <ele>374.365</ele>
        <time>2026-08-16T15:02:52.088Z</time>
      </trkpt>
      <trkpt lon="7.141210" lat="50.754171">
        <ele>376.244</ele>
        <time>2026-08-16T15:02:52.724Z</time>
      </trkpt>
      <trkpt lon="7.141416" lat="50.754023">
        <ele>377.891</ele>
        <time>2026-08-16T15:02:53.316Z</time>
      </trkpt>
      <trkpt lon="7.141910" lat="50.753710">
        <ele>381.379</ele>
        <time>2026-08-16T15:02:54.584Z</time>
      </trkpt>
      <trkpt lon="7.142428" lat="50.753424">
        <ele>384.276</ele>
        <time>2026-08-16T15:02:55.852Z</time>
      </trkpt>
      <trkpt lon="7.142965" lat="50.753164">
        <ele>386.945</ele>
        <time>2026-08-16T15:02:57.096Z</time>
      </trkpt>
      <trkpt lon="7.152381" lat="50.749971">
        <ele>400.447</ele>
        <time>2026-08-16T15:03:15.976Z</time>
      </trkpt>
      <trkpt lon="7.156669" lat="50.748166">
        <ele>400.568</ele>
        <time>2026-08-16T15:03:24.164Z</time>
      </trkpt>
      <trkpt lon="7.158607" lat="50.747442">
        <ele>404.212</ele>
        <time>2026-08-16T15:03:27.848Z</time>
      </trkpt>
      <trkpt lon="7.159267" lat="50.747213">
        <ele>405.39</ele>
        <time>2026-08-16T15:03:29.112Z</time>
      </trkpt>
      <trkpt lon="7.161592" lat="50.746622">
        <ele>412.901</ele>
        <time>2026-08-16T15:03:33.504Z</time>
      </trkpt>
      <trkpt lon="7.162271" lat="50.746518">
        <ele>414.463</ele>
        <time>2026-08-16T15:03:34.768Z</time>
      </trkpt>
      <trkpt lon="7.163979" lat="50.746336">
        <ele>415.678</ele>
        <time>2026-08-16T15:03:37.916Z</time>
      </trkpt>
      <trkpt lon="7.167159" lat="50.746131">
        <ele>413.406</ele>
        <time>2026-08-16T15:03:43.552Z</time>
      </trkpt>
      <trkpt lon="7.167889" lat="50.746093">
        <ele>412.267</ele>
        <time>2026-08-16T15:03:44.820Z</time>
      </trkpt>
      <trkpt lon="7.171158" lat="50.746205">
        <ele>408.167</ele>
        <time>2026-08-16T15:03:50.516Z</time>
      </trkpt>
      <trkpt lon="7.171859" lat="50.746326">
        <ele>406.565</ele>
        <time>2026-08-16T15:03:51.784Z</time>
      </trkpt>
      <trkpt lon="7.173233" lat="50.746629">
        <ele>399.842</ele>
        <time>2026-08-16T15:03:54.316Z</time>
      </trkpt>
      <trkpt lon="7.175250" lat="50.747196">
        <ele>389.337</ele>
        <time>2026-08-16T15:03:58.108Z</time>
      </trkpt>
      <trkpt lon="7.180490" lat="50.748764">
        <ele>360.5</ele>
        <time>2026-08-16T15:04:07.620Z</time>
      </trkpt>
      <trkpt lon="7.185725" lat="50.750215">
        <ele>343.432</ele>
        <time>2026-08-16T15:04:16.468Z</time>
      </trkpt>
      <trkpt lon="7.191286" lat="50.752043">
        <ele>319.595</ele>
        <time>2026-08-16T15:04:25.860Z</time>
      </trkpt>
      <trkpt lon="7.192640" lat="50.752680">
        <ele>315.745</ele>
        <time>2026-08-16T15:04:28.364Z</time>
      </trkpt>
      <trkpt lon="7.194209" lat="50.753594">
        <ele>312.48</ele>
        <time>2026-08-16T15:04:31.516Z</time>
      </trkpt>
      <trkpt lon="7.195046" lat="50.754176">
        <ele>308.485</ele>
        <time>2026-08-16T15:04:33.384Z</time>
      </trkpt>
      <trkpt lon="7.196278" lat="50.755250">
        <ele>298.896</ele>
        <time>2026-08-16T15:04:36.556Z</time>
      </trkpt>
      <trkpt lon="7.196844" lat="50.755935">
        <ele>294.454</ele>
        <time>2026-08-16T15:04:38.404Z</time>
      </trkpt>
      <trkpt lon="7.197388" lat="50.756929">
        <ele>290.333</ele>
        <time>2026-08-16T15:04:40.932Z</time>
      </trkpt>
      <trkpt lon="7.197558" lat="50.757434">
        <ele>287.861</ele>
        <time>2026-08-16T15:04:42.180Z</time>
      </trkpt>
      <trkpt lon="7.197623" lat="50.757692">
        <ele>286.217</ele>
        <time>2026-08-16T15:04:42.816Z</time>
      </trkpt>
      <trkpt lon="7.197697" lat="50.758220">
        <ele>283.042</ele>
        <time>2026-08-16T15:04:44.096Z</time>
      </trkpt>
      <trkpt lon="7.197598" lat="50.758993">
        <ele>281.268</ele>
        <time>2026-08-16T15:04:46.012Z</time>
      </trkpt>
      <trkpt lon="7.197373" lat="50.759481">
        <ele>281.484</ele>
        <time>2026-08-16T15:04:47.276Z</time>
      </trkpt>
      <trkpt lon="7.197053" lat="50.759928">
        <ele>281.763</ele>
        <time>2026-08-16T15:04:48.512Z</time>
      </trkpt>
      <trkpt lon="7.196653" lat="50.760348">
        <ele>281.194</ele>
        <time>2026-08-16T15:04:49.748Z</time>
      </trkpt>
      <trkpt lon="7.196178" lat="50.760749">
        <ele>279.753</ele>
        <time>2026-08-16T15:04:51.012Z</time>
      </trkpt>
      <trkpt lon="7.195336" lat="50.761288">
        <ele>277.155</ele>
        <time>2026-08-16T15:04:52.912Z</time>
      </trkpt>
      <trkpt lon="7.194342" lat="50.761721">
        <ele>273.582</ele>
        <time>2026-08-16T15:04:54.812Z</time>
      </trkpt>
      <trkpt lon="7.193633" lat="50.761943">
        <ele>270.753</ele>
        <time>2026-08-16T15:04:56.052Z</time>
      </trkpt>
      <trkpt lon="7.188788" lat="50.763056">
        <ele>272.18</ele>
        <time>2026-08-16T15:05:04.252Z</time>
      </trkpt>
      <trkpt lon="7.186973" lat="50.763490">
        <ele>280.612</ele>
        <time>2026-08-16T15:05:07.988Z</time>
      </trkpt>
      <trkpt lon="7.184622" lat="50.764060">
        <ele>278.409</ele>
        <time>2026-08-16T15:05:13.656Z</time>
      </trkpt>
      <trkpt lon="7.181716" lat="50.764720">
        <ele>254.332</ele>
        <time>2026-08-16T15:05:21.772Z</time>
      </trkpt>
      <trkpt lon="7.179953" lat="50.765103">
        <ele>231.783</ele>
        <time>2026-08-16T15:05:26.796Z</time>
      </trkpt>
      <trkpt lon="7.178142" lat="50.765564">
        <ele>208.526</ele>
        <time>2026-08-16T15:05:31.836Z</time>
      </trkpt>
      <trkpt lon="7.176242" lat="50.766082">
        <ele>186.504</ele>
        <time>2026-08-16T15:05:36.860Z</time>
      </trkpt>
      <trkpt lon="7.174234" lat="50.766586">
        <ele>165.646</ele>
        <time>2026-08-16T15:05:41.884Z</time>
      </trkpt>
      <trkpt lon="7.172135" lat="50.767022">
        <ele>145.45</ele>
        <time>2026-08-16T15:05:46.880Z</time>
      </trkpt>
      <trkpt lon="7.169914" lat="50.767529">
        <ele>135.92</ele>
        <time>2026-08-16T15:05:52.584Z</time>
      </trkpt>
      <trkpt lon="7.168756" lat="50.767815">
        <ele>134.905</ele>
        <time>2026-08-16T15:05:56.384Z</time>
      </trkpt>
      <trkpt lon="7.167776" lat="50.768061">
        <ele>129.278</ele>
        <time>2026-08-16T15:06:00.816Z</time>
      </trkpt>
      <trkpt lon="7.166545" lat="50.768247">
        <ele>110.48</ele>
        <time>2026-08-16T15:06:07.764Z</time>
      </trkpt>
      <trkpt lon="7.165327" lat="50.768381">
        <ele>92.0628</ele>
        <time>2026-08-16T15:06:14.676Z</time>
      </trkpt>
      <trkpt lon="7.163724" lat="50.768727">
        <ele>75.7323</ele>
        <time>2026-08-16T15:06:23.388Z</time>
      </trkpt>
      <trkpt lon="7.162016" lat="50.769166">
        <ele>64.3268</ele>
        <time>2026-08-16T15:06:34.656Z</time>
      </trkpt>
      <trkpt lon="7.161413" lat="50.769276">
        <ele>62.7207</ele>
        <time>2026-08-16T15:06:42.864Z</time>
      </trkpt>
      <trkpt lon="7.161395" lat="50.769279">
        <ele>62.7656</ele>
        <time>2026-08-16T15:06:52.996Z</time>
      </trkpt>
      <trkpt lon="7.160859" lat="50.769358">
        <ele>62.7966</ele>
        <time>2026-08-16T15:07:03.048Z</time>
      </trkpt>
      <trkpt lon="7.160119" lat="50.769528">
        <ele>62.8957</ele>
        <time>2026-08-16T15:07:13.184Z</time>
      </trkpt>
      <trkpt lon="7.159327" lat="50.769713">
        <ele>62.7101</ele>
        <time>2026-08-16T15:07:23.300Z</time>
      </trkpt>
      <trkpt lon="7.158540" lat="50.769879">
        <ele>62.4454</ele>
        <time>2026-08-16T15:07:33.372Z</time>
      </trkpt>
      <trkpt lon="7.158440" lat="50.769895">
        <ele>62.4257</ele>
        <time>2026-08-16T15:07:34.636Z</time>
      </trkpt>
      <trkpt lon="7.158336" lat="50.769904">
        <ele>62.4024</ele>
        <time>2026-08-16T15:07:35.904Z</time>
      </trkpt>
      <trkpt lon="7.158229" lat="50.769906">
        <ele>62.3882</ele>
        <time>2026-08-16T15:07:37.172Z</time>
      </trkpt>
      <trkpt lon="7.158006" lat="50.769904">
        <ele>62.3638</ele>
        <time>2026-08-16T15:07:39.704Z</time>
      </trkpt>
      <trkpt lon="7.157893" lat="50.769892">
        <ele>62.3648</ele>
        <time>2026-08-16T15:07:40.968Z</time>
      </trkpt>
      <trkpt lon="7.157786" lat="50.769868">
        <ele>62.3819</ele>
        <time>2026-08-16T15:07:42.200Z</time>
      </trkpt>
      <trkpt lon="7.157680" lat="50.769833">
        <ele>62.4199</ele>
        <time>2026-08-16T15:07:43.468Z</time>
      </trkpt>
      <trkpt lon="7.157581" lat="50.769789">
        <ele>62.4393</ele>
        <time>2026-08-16T15:07:44.736Z</time>
      </trkpt>
      <trkpt lon="7.157494" lat="50.769738">
        <ele>62.4275</ele>
        <time>2026-08-16T15:07:45.968Z</time>
      </trkpt>
      <trkpt lon="7.157415" lat="50.769678">
        <ele>62.4281</ele>
        <time>2026-08-16T15:07:47.236Z</time>
      </trkpt>
      <trkpt lon="7.157350" lat="50.769611">
        <ele>62.4421</ele>
        <time>2026-08-16T15:07:48.504Z</time>
      </trkpt>
      <trkpt lon="7.157295" lat="50.769540">
        <ele>62.4579</ele>
        <time>2026-08-16T15:07:49.768Z</time>
      </trkpt>
      <trkpt lon="7.157153" lat="50.769311">
        <ele>62.4679</ele>
        <time>2026-08-16T15:07:53.572Z</time>
      </trkpt>
      <trkpt lon="7.156800" lat="50.768698">
        <ele>62.0813</ele>
        <time>2026-08-16T15:08:03.716Z</time>
      </trkpt>
      <trkpt lon="7.156768" lat="50.768643">
        <ele>62.0514</ele>
        <time>2026-08-16T15:08:04.980Z</time>
      </trkpt>
      <trkpt lon="7.156726" lat="50.768588">
        <ele>61.9739</ele>
        <time>2026-08-16T15:08:06.248Z</time>
      </trkpt>
      <trkpt lon="7.156670" lat="50.768534">
        <ele>61.9412</ele>
        <time>2026-08-16T15:08:07.512Z</time>
      </trkpt>
      <trkpt lon="7.156638" lat="50.768509">
        <ele>61.9331</ele>
        <time>2026-08-16T15:08:08.144Z</time>
      </trkpt>
      <trkpt lon="7.156562" lat="50.768463">
        <ele>61.917</ele>
        <time>2026-08-16T15:08:09.416Z</time>
      </trkpt>
      <trkpt lon="7.156519" lat="50.768445">
        <ele>61.9144</ele>
        <time>2026-08-16T15:08:10.048Z</time>
      </trkpt>
      <trkpt lon="7.156472" lat="50.768429">
        <ele>61.9508</ele>
        <time>2026-08-16T15:08:10.680Z</time>
      </trkpt>
      <trkpt lon="7.156375" lat="50.768405">
        <ele>61.9808</ele>
        <time>2026-08-16T15:08:11.944Z</time>
      </trkpt>
      <trkpt lon="7.156225" lat="50.768380">
        <ele>61.9841</ele>
        <time>2026-08-16T15:08:13.848Z</time>
      </trkpt>
      <trkpt lon="7.155966" lat="50.768352">
        <ele>61.9311</ele>
        <time>2026-08-16T15:08:18.284Z</time>
      </trkpt>
      <trkpt lon="7.153082" lat="50.768935">
        <ele>60.9678</ele>
        <time>2026-08-16T15:19:55.860Z</time>
      </trkpt>
      <trkpt lon="7.153067" lat="50.768938">
        <ele>61.686</ele>
        <time>2026-08-16T15:22:11.648Z</time>
      </trkpt>
      <trkpt lon="7.153054" lat="50.768943">
        <ele>61.6872</ele>
        <time>2026-08-16T15:22:12.868Z</time>
      </trkpt>
      <trkpt lon="7.153040" lat="50.768954">
        <ele>61.6792</ele>
        <time>2026-08-16T15:22:14.064Z</time>
      </trkpt>
      <trkpt lon="7.153034" lat="50.768972">
        <ele>61.6768</ele>
        <time>2026-08-16T15:22:15.304Z</time>
      </trkpt>
      <trkpt lon="7.153037" lat="50.768982">
        <ele>61.6856</ele>
        <time>2026-08-16T15:22:15.932Z</time>
      </trkpt>
      <trkpt lon="7.153044" lat="50.768992">
        <ele>61.6978</ele>
        <time>2026-08-16T15:22:16.572Z</time>
      </trkpt>
      <trkpt lon="7.153057" lat="50.769001">
        <ele>61.7105</ele>
        <time>2026-08-16T15:22:17.212Z</time>
      </trkpt>
      <trkpt lon="7.153076" lat="50.769008">
        <ele>61.7267</ele>
        <time>2026-08-16T15:22:17.864Z</time>
      </trkpt>
      <trkpt lon="7.153098" lat="50.769011">
        <ele>61.74</ele>
        <time>2026-08-16T15:22:18.476Z</time>
      </trkpt>
      <trkpt lon="7.153122" lat="50.769009">
        <ele>61.7427</ele>
        <time>2026-08-16T15:22:19.084Z</time>
      </trkpt>
      <trkpt lon="7.153145" lat="50.769004">
        <ele>61.7382</ele>
        <time>2026-08-16T15:22:19.684Z</time>
      </trkpt>
      <trkpt lon="7.153170" lat="50.768997">
        <ele>61.7316</ele>
        <time>2026-08-16T15:22:20.296Z</time>
      </trkpt>
      <trkpt lon="7.153501" lat="50.768878">
        <ele>61.5793</ele>
        <time>2026-08-16T15:22:27.448Z</time>
      </trkpt>
      <trkpt lon="7.153660" lat="50.768834">
        <ele>61.6669</ele>
        <time>2026-08-16T15:22:30.408Z</time>
      </trkpt>
      <trkpt lon="7.153718" lat="50.768811">
        <ele>61.692</ele>
        <time>2026-08-16T15:22:31.592Z</time>
      </trkpt>
      <trkpt lon="7.153745" lat="50.768798">
        <ele>61.7056</ele>
        <time>2026-08-16T15:22:32.180Z</time>
      </trkpt>
      <trkpt lon="7.153821" lat="50.768750">
        <ele>61.7238</ele>
        <time>2026-08-16T15:22:33.968Z</time>
      </trkpt>
      <trkpt lon="7.153995" lat="50.768634">
        <ele>61.9325</ele>
        <time>2026-08-16T15:22:38.120Z</time>
      </trkpt>
      <trkpt lon="7.154055" lat="50.768608">
        <ele>61.9714</ele>
        <time>2026-08-16T15:22:39.300Z</time>
      </trkpt>
      <trkpt lon="7.154185" lat="50.768569">
        <ele>61.9833</ele>
        <time>2026-08-16T15:22:41.636Z</time>
      </trkpt>
      <trkpt lon="7.154847" lat="50.768425">
        <ele>61.9909</ele>
        <time>2026-08-16T15:22:51.772Z</time>
      </trkpt>
      <trkpt lon="7.155460" lat="50.768314">
        <ele>61.971</ele>
        <time>2026-08-16T15:22:59.596Z</time>
      </trkpt>
      <trkpt lon="7.155557" lat="50.768309">
        <ele>61.9738</ele>
        <time>2026-08-16T15:23:00.768Z</time>
      </trkpt>
      <trkpt lon="7.155703" lat="50.768314">
        <ele>61.9774</ele>
        <time>2026-08-16T15:23:02.560Z</time>
      </trkpt>
      <trkpt lon="7.155799" lat="50.768325">
        <ele>61.9636</ele>
        <time>2026-08-16T15:23:03.756Z</time>
      </trkpt>
      <trkpt lon="7.156414" lat="50.768418">
        <ele>61.9654</ele>
        <time>2026-08-16T15:23:11.480Z</time>
      </trkpt>
      <trkpt lon="7.156506" lat="50.768443">
        <ele>61.907</ele>
        <time>2026-08-16T15:23:12.688Z</time>
      </trkpt>
      <trkpt lon="7.156591" lat="50.768475">
        <ele>61.9151</ele>
        <time>2026-08-16T15:23:13.892Z</time>
      </trkpt>
      <trkpt lon="7.156631" lat="50.768493">
        <ele>61.9228</ele>
        <time>2026-08-16T15:23:14.504Z</time>
      </trkpt>
      <trkpt lon="7.156663" lat="50.768515">
        <ele>61.9305</ele>
        <time>2026-08-16T15:23:15.108Z</time>
      </trkpt>
      <trkpt lon="7.156689" lat="50.768539">
        <ele>61.9403</ele>
        <time>2026-08-16T15:23:15.724Z</time>
      </trkpt>
      <trkpt lon="7.156767" lat="50.768639">
        <ele>62.0377</ele>
        <time>2026-08-16T15:23:18.116Z</time>
      </trkpt>
      <trkpt lon="7.156904" lat="50.768885">
        <ele>62.382</ele>
        <time>2026-08-16T15:23:24.648Z</time>
      </trkpt>
      <trkpt lon="7.157107" lat="50.769256">
        <ele>62.4584</ele>
        <time>2026-08-16T15:23:34.720Z</time>
      </trkpt>
      <trkpt lon="7.157195" lat="50.769423">
        <ele>62.462</ele>
        <time>2026-08-16T15:23:44.764Z</time>
      </trkpt>
      <trkpt lon="7.157345" lat="50.769666">
        <ele>62.5083</ele>
        <time>2026-08-16T15:24:23.380Z</time>
      </trkpt>
      <trkpt lon="7.157421" lat="50.769769">
        <ele>62.8509</ele>
        <time>2026-08-16T15:24:25.140Z</time>
      </trkpt>
      <trkpt lon="7.157452" lat="50.769810">
        <ele>62.8174</ele>
        <time>2026-08-16T15:24:25.748Z</time>
      </trkpt>
      <trkpt lon="7.157483" lat="50.769853">
        <ele>62.8928</ele>
        <time>2026-08-16T15:24:26.368Z</time>
      </trkpt>
      <trkpt lon="7.157509" lat="50.769896">
        <ele>63.131</ele>
        <time>2026-08-16T15:24:26.976Z</time>
      </trkpt>
      <trkpt lon="7.157528" lat="50.769936">
        <ele>63.4204</ele>
        <time>2026-08-16T15:24:27.560Z</time>
      </trkpt>
      <trkpt lon="7.157539" lat="50.769974">
        <ele>63.6665</ele>
        <time>2026-08-16T15:24:28.156Z</time>
      </trkpt>
      <trkpt lon="7.157537" lat="50.770010">
        <ele>64.0681</ele>
        <time>2026-08-16T15:24:28.752Z</time>
      </trkpt>
      <trkpt lon="7.157523" lat="50.770043">
        <ele>64.6689</ele>
        <time>2026-08-16T15:24:29.348Z</time>
      </trkpt>
      <trkpt lon="7.157445" lat="50.770097">
        <ele>66.143</ele>
        <time>2026-08-16T15:24:30.560Z</time>
      </trkpt>
      <trkpt lon="7.157236" lat="50.770154">
        <ele>64.912</ele>
        <time>2026-08-16T15:24:32.312Z</time>
      </trkpt>
      <trkpt lon="7.156502" lat="50.770434">
        <ele>63.8137</ele>
        <time>2026-08-16T15:24:37.048Z</time>
      </trkpt>
      <trkpt lon="7.154498" lat="50.771432">
        <ele>77.572</ele>
        <time>2026-08-16T15:24:47.196Z</time>
      </trkpt>
      <trkpt lon="7.152188" lat="50.772287">
        <ele>95.2683</ele>
        <time>2026-08-16T15:24:56.144Z</time>
      </trkpt>
      <trkpt lon="7.151007" lat="50.772604">
        <ele>110.402</ele>
        <time>2026-08-16T15:25:00.268Z</time>
      </trkpt>
      <trkpt lon="7.150129" lat="50.772778">
        <ele>129.983</ele>
        <time>2026-08-16T15:25:03.268Z</time>
      </trkpt>
      <trkpt lon="7.149078" lat="50.772934">
        <ele>152.142</ele>
        <time>2026-08-16T15:25:06.832Z</time>
      </trkpt>
      <trkpt lon="7.147340" lat="50.773125">
        <ele>172.572</ele>
        <time>2026-08-16T15:25:12.244Z</time>
      </trkpt>
      <trkpt lon="7.146315" lat="50.773283">
        <ele>175.162</ele>
        <time>2026-08-16T15:25:15.196Z</time>
      </trkpt>
      <trkpt lon="7.145423" lat="50.773453">
        <ele>176.505</ele>
        <time>2026-08-16T15:25:17.592Z</time>
      </trkpt>
      <trkpt lon="7.143987" lat="50.773674">
        <ele>182.323</ele>
        <time>2026-08-16T15:25:21.164Z</time>
      </trkpt>
      <trkpt lon="7.143475" lat="50.773725">
        <ele>184.481</ele>
        <time>2026-08-16T15:25:22.372Z</time>
      </trkpt>
      <trkpt lon="7.142965" lat="50.773742">
        <ele>187.905</ele>
        <time>2026-08-16T15:25:23.556Z</time>
      </trkpt>
      <trkpt lon="7.141744" lat="50.773514">
        <ele>198.855</ele>
        <time>2026-08-16T15:25:26.508Z</time>
      </trkpt>
      <trkpt lon="7.141518" lat="50.773421">
        <ele>200.469</ele>
        <time>2026-08-16T15:25:27.100Z</time>
      </trkpt>
      <trkpt lon="7.141302" lat="50.773311">
        <ele>201.888</ele>
        <time>2026-08-16T15:25:27.700Z</time>
      </trkpt>
      <trkpt lon="7.140899" lat="50.773044">
        <ele>204.512</ele>
        <time>2026-08-16T15:25:28.916Z</time>
      </trkpt>
      <trkpt lon="7.140549" lat="50.772728">
        <ele>206.424</ele>
        <time>2026-08-16T15:25:30.124Z</time>
      </trkpt>
      <trkpt lon="7.140245" lat="50.772375">
        <ele>207.205</ele>
        <time>2026-08-16T15:25:31.320Z</time>
      </trkpt>
      <trkpt lon="7.139839" lat="50.771811">
        <ele>207.571</ele>
        <time>2026-08-16T15:25:33.096Z</time>
      </trkpt>
      <trkpt lon="7.136774" lat="50.767664">
        <ele>219.539</ele>
        <time>2026-08-16T15:25:45.100Z</time>
      </trkpt>
      <trkpt lon="7.135203" lat="50.765495">
        <ele>244.152</ele>
        <time>2026-08-16T15:25:51.052Z</time>
      </trkpt>
      <trkpt lon="7.134929" lat="50.765054">
        <ele>250.082</ele>
        <time>2026-08-16T15:25:52.256Z</time>
      </trkpt>
      <trkpt lon="7.134507" lat="50.764156">
        <ele>261.329</ele>
        <time>2026-08-16T15:25:54.660Z</time>
      </trkpt>
      <trkpt lon="7.134296" lat="50.763222">
        <ele>273.778</ele>
        <time>2026-08-16T15:25:57.076Z</time>
      </trkpt>
      <trkpt lon="7.134260" lat="50.762742">
        <ele>279.804</ele>
        <time>2026-08-16T15:25:58.288Z</time>
      </trkpt>
      <trkpt lon="7.134386" lat="50.761343">
        <ele>295.388</ele>
        <time>2026-08-16T15:26:01.836Z</time>
      </trkpt>
      <trkpt lon="7.135833" lat="50.756019">
        <ele>307.089</ele>
        <time>2026-08-16T15:26:14.952Z</time>
      </trkpt>
      <trkpt lon="7.136308" lat="50.754739">
        <ele>306.303</ele>
        <time>2026-08-16T15:26:17.956Z</time>
      </trkpt>
      <trkpt lon="7.136588" lat="50.754242">
        <ele>306.411</ele>
        <time>2026-08-16T15:26:19.148Z</time>
      </trkpt>
      <trkpt lon="7.137176" lat="50.753511">
        <ele>307.358</ele>
        <time>2026-08-16T15:26:20.944Z</time>
      </trkpt>
      <trkpt lon="7.137413" lat="50.753279">
        <ele>308</ele>
        <time>2026-08-16T15:26:21.556Z</time>
      </trkpt>
      <trkpt lon="7.137936" lat="50.752851">
        <ele>310.1</ele>
        <time>2026-08-16T15:26:22.748Z</time>
      </trkpt>
      <trkpt lon="7.138526" lat="50.752467">
        <ele>313.24</ele>
        <time>2026-08-16T15:26:23.932Z</time>
      </trkpt>
      <trkpt lon="7.139192" lat="50.752127">
        <ele>317.023</ele>
        <time>2026-08-16T15:26:25.148Z</time>
      </trkpt>
      <trkpt lon="7.139897" lat="50.751845">
        <ele>321.229</ele>
        <time>2026-08-16T15:26:26.352Z</time>
      </trkpt>
      <trkpt lon="7.140650" lat="50.751612">
        <ele>325.401</ele>
        <time>2026-08-16T15:26:27.572Z</time>
      </trkpt>
      <trkpt lon="7.141424" lat="50.751421">
        <ele>326.215</ele>
        <time>2026-08-16T15:26:28.796Z</time>
      </trkpt>
      <trkpt lon="7.142185" lat="50.751256">
        <ele>324.696</ele>
        <time>2026-08-16T15:26:29.988Z</time>
      </trkpt>
      <trkpt lon="7.142576" lat="50.751173">
        <ele>323.787</ele>
        <time>2026-08-16T15:26:30.592Z</time>
      </trkpt>
      <trkpt lon="7.142982" lat="50.751087">
        <ele>322.744</ele>
        <time>2026-08-16T15:26:31.204Z</time>
      </trkpt>
      <trkpt lon="7.145371" lat="50.750613">
        <ele>319.842</ele>
        <time>2026-08-16T15:26:34.776Z</time>
      </trkpt>
      <trkpt lon="7.147406" lat="50.750237">
        <ele>323.555</ele>
        <time>2026-08-16T15:26:37.744Z</time>
      </trkpt>
      <trkpt lon="7.149803" lat="50.749768">
        <ele>343.522</ele>
        <time>2026-08-16T15:26:41.324Z</time>
      </trkpt>
      <trkpt lon="7.151601" lat="50.749374">
        <ele>369.673</ele>
        <time>2026-08-16T15:26:44.348Z</time>
      </trkpt>
      <trkpt lon="7.162754" lat="50.746636">
        <ele>392.013</ele>
        <time>2026-08-16T15:27:04.804Z</time>
      </trkpt>
      <trkpt lon="7.163806" lat="50.746438">
        <ele>391.416</ele>
        <time>2026-08-16T15:27:06.616Z</time>
      </trkpt>
      <trkpt lon="7.171069" lat="50.745393">
        <ele>386.969</ele>
        <time>2026-08-16T15:27:18.592Z</time>
      </trkpt>
      <trkpt lon="7.172166" lat="50.745357">
        <ele>384.799</ele>
        <time>2026-08-16T15:27:20.400Z</time>
      </trkpt>
      <trkpt lon="7.173215" lat="50.745408">
        <ele>380.406</ele>
        <time>2026-08-16T15:27:22.160Z</time>
      </trkpt>
      <trkpt lon="7.173932" lat="50.745494">
        <ele>376.164</ele>
        <time>2026-08-16T15:27:23.392Z</time>
      </trkpt>
      <trkpt lon="7.175254" lat="50.745783">
        <ele>367.379</ele>
        <time>2026-08-16T15:27:25.744Z</time>
      </trkpt>
      <trkpt lon="7.176239" lat="50.746066">
        <ele>362.788</ele>
        <time>2026-08-16T15:27:27.560Z</time>
      </trkpt>
      <trkpt lon="7.181962" lat="50.748052">
        <ele>337.158</ele>
        <time>2026-08-16T15:27:38.268Z</time>
      </trkpt>
      <trkpt lon="7.192555" lat="50.752727">
        <ele>321.362</ele>
        <time>2026-08-16T15:27:58.036Z</time>
      </trkpt>
      <trkpt lon="7.195095" lat="50.754027">
        <ele>323.094</ele>
        <time>2026-08-16T15:28:02.800Z</time>
      </trkpt>
      <trkpt lon="7.195729" lat="50.754374">
        <ele>322.865</ele>
        <time>2026-08-16T15:28:04.004Z</time>
      </trkpt>
      <trkpt lon="7.197244" lat="50.755554">
        <ele>323.406</ele>
        <time>2026-08-16T15:28:07.592Z</time>
      </trkpt>
      <trkpt lon="7.197401" lat="50.755774">
        <ele>324.043</ele>
        <time>2026-08-16T15:28:08.180Z</time>
      </trkpt>
      <trkpt lon="7.197634" lat="50.756243">
        <ele>325.529</ele>
        <time>2026-08-16T15:28:09.364Z</time>
      </trkpt>
      <trkpt lon="7.197767" lat="50.756728">
        <ele>326.499</ele>
        <time>2026-08-16T15:28:10.568Z</time>
      </trkpt>
      <trkpt lon="7.197818" lat="50.757972">
        <ele>323.231</ele>
        <time>2026-08-16T15:28:13.544Z</time>
      </trkpt>
      <trkpt lon="7.197664" lat="50.759493">
        <ele>318.202</ele>
        <time>2026-08-16T15:28:17.140Z</time>
      </trkpt>
      <trkpt lon="7.197630" lat="50.759753">
        <ele>317.63</ele>
        <time>2026-08-16T15:28:17.752Z</time>
      </trkpt>
      <trkpt lon="7.197535" lat="50.760259">
        <ele>317.138</ele>
        <time>2026-08-16T15:28:18.960Z</time>
      </trkpt>
      <trkpt lon="7.197078" lat="50.761224">
        <ele>314.992</ele>
        <time>2026-08-16T15:28:21.376Z</time>
      </trkpt>
      <trkpt lon="7.196889" lat="50.761444">
        <ele>313.891</ele>
        <time>2026-08-16T15:28:21.968Z</time>
      </trkpt>
      <trkpt lon="7.196660" lat="50.761658">
        <ele>312.897</ele>
        <time>2026-08-16T15:28:22.596Z</time>
      </trkpt>
      <trkpt lon="7.196399" lat="50.761855">
        <ele>312.217</ele>
        <time>2026-08-16T15:28:23.224Z</time>
      </trkpt>
      <trkpt lon="7.195790" lat="50.762177">
        <ele>311.598</ele>
        <time>2026-08-16T15:28:24.436Z</time>
      </trkpt>
      <trkpt lon="7.194368" lat="50.762593">
        <ele>307.06</ele>
        <time>2026-08-16T15:28:26.828Z</time>
      </trkpt>
      <trkpt lon="7.193165" lat="50.762804">
        <ele>299.532</ele>
        <time>2026-08-16T15:28:28.672Z</time>
      </trkpt>
      <trkpt lon="7.189535" lat="50.763325">
        <ele>273.774</ele>
        <time>2026-08-16T15:28:34.028Z</time>
      </trkpt>
      <trkpt lon="7.184620" lat="50.764136">
        <ele>256.074</ele>
        <time>2026-08-16T15:28:41.312Z</time>
      </trkpt>
      <trkpt lon="7.183288" lat="50.764417">
        <ele>264.448</ele>
        <time>2026-08-16T15:28:43.700Z</time>
      </trkpt>
      <trkpt lon="7.182189" lat="50.764679">
        <ele>271.348</ele>
        <time>2026-08-16T15:28:46.048Z</time>
      </trkpt>
      <trkpt lon="7.181067" lat="50.764989">
        <ele>273.846</ele>
        <time>2026-08-16T15:28:48.988Z</time>
      </trkpt>
      <trkpt lon="7.180316" lat="50.765187">
        <ele>274.783</ele>
        <time>2026-08-16T15:28:51.348Z</time>
      </trkpt>
      <trkpt lon="7.178874" lat="50.765388">
        <ele>267.89</ele>
        <time>2026-08-16T15:28:56.092Z</time>
      </trkpt>
      <trkpt lon="7.177145" lat="50.765656">
        <ele>243.607</ele>
        <time>2026-08-16T15:29:01.496Z</time>
      </trkpt>
      <trkpt lon="7.175851" lat="50.765980">
        <ele>220.854</ele>
        <time>2026-08-16T15:29:05.088Z</time>
      </trkpt>
      <trkpt lon="7.174453" lat="50.766361">
        <ele>195.917</ele>
        <time>2026-08-16T15:29:08.680Z</time>
      </trkpt>
      <trkpt lon="7.173203" lat="50.766706">
        <ele>173.552</ele>
        <time>2026-08-16T15:29:11.708Z</time>
      </trkpt>
      <trkpt lon="7.172150" lat="50.766988">
        <ele>153.849</ele>
        <time>2026-08-16T15:29:14.104Z</time>
      </trkpt>
      <trkpt lon="7.170740" lat="50.767334">
        <ele>131.453</ele>
        <time>2026-08-16T15:29:17.132Z</time>
      </trkpt>
      <trkpt lon="7.167835" lat="50.767963">
        <ele>113.854</ele>
        <time>2026-08-16T15:29:23.616Z</time>
      </trkpt>
      <trkpt lon="7.166734" lat="50.768192">
        <ele>109.696</ele>
        <time>2026-08-16T15:29:26.612Z</time>
      </trkpt>
      <trkpt lon="7.165851" lat="50.768367">
        <ele>104.842</ele>
        <time>2026-08-16T15:29:29.628Z</time>
      </trkpt>
      <trkpt lon="7.164201" lat="50.768574">
        <ele>87.4919</ele>
        <time>2026-08-16T15:29:36.768Z</time>
      </trkpt>
      <trkpt lon="7.162826" lat="50.768898">
        <ele>71.5768</ele>
        <time>2026-08-16T15:29:42.748Z</time>
      </trkpt>
      <trkpt lon="7.161557" lat="50.769236">
        <ele>62.8484</ele>
        <time>2026-08-16T15:29:48.776Z</time>
      </trkpt>
      <trkpt lon="7.160247" lat="50.769492">
        <ele>62.8878</ele>
        <time>2026-08-16T15:29:58.972Z</time>
      </trkpt>
      <trkpt lon="7.159151" lat="50.769732">
        <ele>62.6952</ele>
        <time>2026-08-16T15:30:08.992Z</time>
      </trkpt>
      <trkpt lon="7.158801" lat="50.769820">
        <ele>62.5264</ele>
        <time>2026-08-16T15:30:11.988Z</time>
      </trkpt>
      <trkpt lon="7.158388" lat="50.769935">
        <ele>62.3852</ele>
        <time>2026-08-16T15:30:17.316Z</time>
      </trkpt>
      <trkpt lon="7.158096" lat="50.769988">
        <ele>62.3308</ele>
        <time>2026-08-16T15:30:21.452Z</time>
      </trkpt>
      <trkpt lon="7.158015" lat="50.769995">
        <ele>62.3225</ele>
        <time>2026-08-16T15:30:22.636Z</time>
      </trkpt>
      <trkpt lon="7.157934" lat="50.769995">
        <ele>62.3215</ele>
        <time>2026-08-16T15:30:23.844Z</time>
      </trkpt>
      <trkpt lon="7.157848" lat="50.769988">
        <ele>62.3601</ele>
        <time>2026-08-16T15:30:25.056Z</time>
      </trkpt>
      <trkpt lon="7.157804" lat="50.769980">
        <ele>62.3686</ele>
        <time>2026-08-16T15:30:25.664Z</time>
      </trkpt>
      <trkpt lon="7.157761" lat="50.769969">
        <ele>62.3769</ele>
        <time>2026-08-16T15:30:26.256Z</time>
      </trkpt>
      <trkpt lon="7.157673" lat="50.769936">
        <ele>62.3995</ele>
        <time>2026-08-16T15:30:27.456Z</time>
      </trkpt>
      <trkpt lon="7.157630" lat="50.769913">
        <ele>62.4076</ele>
        <time>2026-08-16T15:30:28.072Z</time>
      </trkpt>
      <trkpt lon="7.157437" lat="50.769779">
        <ele>62.4134</ele>
        <time>2026-08-16T15:30:31.072Z</time>
      </trkpt>
      <trkpt lon="7.157376" lat="50.769715">
        <ele>62.4271</ele>
        <time>2026-08-16T15:30:32.264Z</time>
      </trkpt>
      <trkpt lon="7.157326" lat="50.769647">
        <ele>62.4399</ele>
        <time>2026-08-16T15:30:33.480Z</time>
      </trkpt>
      <trkpt lon="7.157009" lat="50.769062">
        <ele>62.4922</ele>
        <time>2026-08-16T15:30:43.556Z</time>
      </trkpt>
      <trkpt lon="7.156703" lat="50.768540">
        <ele>61.9295</ele>
        <time>2026-08-16T15:30:52.472Z</time>
      </trkpt>
      <trkpt lon="7.156670" lat="50.768508">
        <ele>61.9131</ele>
        <time>2026-08-16T15:30:53.072Z</time>
      </trkpt>
      <trkpt lon="7.156630" lat="50.768479">
        <ele>61.9055</ele>
        <time>2026-08-16T15:30:53.688Z</time>
      </trkpt>
      <trkpt lon="7.156585" lat="50.768453">
        <ele>61.8947</ele>
        <time>2026-08-16T15:30:54.292Z</time>
      </trkpt>
      <trkpt lon="7.156537" lat="50.768432">
        <ele>61.8917</ele>
        <time>2026-08-16T15:30:54.884Z</time>
      </trkpt>
      <trkpt lon="7.156486" lat="50.768415">
        <ele>61.9302</ele>
        <time>2026-08-16T15:30:55.488Z</time>
      </trkpt>
      <trkpt lon="7.156433" lat="50.768403">
        <ele>61.9448</ele>
        <time>2026-08-16T15:30:56.104Z</time>
      </trkpt>
      <trkpt lon="7.155869" lat="50.768321">
        <ele>61.9039</ele>
        <time>2026-08-16T15:31:03.272Z</time>
      </trkpt>
      <trkpt lon="7.155713" lat="50.768307">
        <ele>61.9544</ele>
        <time>2026-08-16T15:31:05.672Z</time>
      </trkpt>
      <trkpt lon="7.155641" lat="50.768310">
        <ele>61.9517</ele>
        <time>2026-08-16T15:31:06.868Z</time>
      </trkpt>
      <trkpt lon="7.155575" lat="50.768319">
        <ele>61.9495</ele>
        <time>2026-08-16T15:31:08.072Z</time>
      </trkpt>
      <trkpt lon="7.155517" lat="50.768333">
        <ele>61.9476</ele>
        <time>2026-08-16T15:31:09.252Z</time>
      </trkpt>
      <trkpt lon="7.155492" lat="50.768341">
        <ele>61.9482</ele>
        <time>2026-08-16T15:31:09.852Z</time>
      </trkpt>
      <trkpt lon="7.155469" lat="50.768351">
        <ele>61.9517</ele>
        <time>2026-08-16T15:31:10.460Z</time>
      </trkpt>
      <trkpt lon="7.155449" lat="50.768363">
        <ele>61.963</ele>
        <time>2026-08-16T15:31:11.056Z</time>
      </trkpt>
      <trkpt lon="7.155431" lat="50.768375">
        <ele>61.9651</ele>
        <time>2026-08-16T15:31:11.656Z</time>
      </trkpt>
      <trkpt lon="7.155401" lat="50.768402">
        <ele>61.9642</ele>
        <time>2026-08-16T15:31:12.828Z</time>
      </trkpt>
      <trkpt lon="7.155390" lat="50.768417">
        <ele>61.965</ele>
        <time>2026-08-16T15:31:13.424Z</time>
      </trkpt>
      <trkpt lon="7.155373" lat="50.768448">
        <ele>61.9664</ele>
        <time>2026-08-16T15:31:14.612Z</time>
      </trkpt>
      <trkpt lon="7.155364" lat="50.768480">
        <ele>61.961</ele>
        <time>2026-08-16T15:31:15.800Z</time>
      </trkpt>
      <trkpt lon="7.155363" lat="50.768513">
        <ele>61.9549</ele>
        <time>2026-08-16T15:31:17.000Z</time>
      </trkpt>
      <trkpt lon="7.155370" lat="50.768545">
        <ele>61.9452</ele>
        <time>2026-08-16T15:31:18.204Z</time>
      </trkpt>
      <trkpt lon="7.155377" lat="50.768560">
        <ele>61.9462</ele>
        <time>2026-08-16T15:31:18.788Z</time>
      </trkpt>
      <trkpt lon="7.155396" lat="50.768587">
        <ele>61.9461</ele>
        <time>2026-08-16T15:31:20.000Z</time>
      </trkpt>
      <trkpt lon="7.155409" lat="50.768599">
        <ele>61.9387</ele>
        <time>2026-08-16T15:31:20.588Z</time>
      </trkpt>
      <trkpt lon="7.155425" lat="50.768608">
        <ele>61.9308</ele>
        <time>2026-08-16T15:31:21.188Z</time>
      </trkpt>
      <trkpt lon="7.155443" lat="50.768616">
        <ele>61.9217</ele>
        <time>2026-08-16T15:31:21.812Z</time>
      </trkpt>
      <trkpt lon="7.155464" lat="50.768620">
        <ele>61.9144</ele>
        <time>2026-08-16T15:31:22.428Z</time>
      </trkpt>
      <trkpt lon="7.155486" lat="50.768620">
        <ele>61.913</ele>
        <time>2026-08-16T15:31:23.064Z</time>
      </trkpt>
      <trkpt lon="7.155508" lat="50.768616">
        <ele>61.9135</ele>
        <time>2026-08-16T15:31:23.668Z</time>
      </trkpt>
      <trkpt lon="7.155529" lat="50.768611">
        <ele>61.906</ele>
        <time>2026-08-16T15:31:24.268Z</time>
      </trkpt>
      <trkpt lon="7.155548" lat="50.768603">
        <ele>61.9053</ele>
        <time>2026-08-16T15:31:24.872Z</time>
      </trkpt>
      <trkpt lon="7.155565" lat="50.768594">
        <ele>61.9145</ele>
        <time>2026-08-16T15:31:25.468Z</time>
      </trkpt>
      <trkpt lon="7.155578" lat="50.768583">
        <ele>61.9271</ele>
        <time>2026-08-16T15:31:26.096Z</time>
      </trkpt>
      <trkpt lon="7.155587" lat="50.768570">
        <ele>61.9331</ele>
        <time>2026-08-16T15:31:26.716Z</time>
      </trkpt>
      <trkpt lon="7.155591" lat="50.768558">
        <ele>61.9439</ele>
        <time>2026-08-16T15:31:27.348Z</time>
      </trkpt>
      <trkpt lon="7.155590" lat="50.768541">
        <ele>61.9706</ele>
        <time>2026-08-16T15:31:35.052Z</time>
      </trkpt>
    </trkseg>
    <trkseg>
      <trkpt lon="9.710581" lat="53.645573">
        <ele>6.30665</ele>
        <time>2026-08-16T16:36:38.000Z</time>
      </trkpt>
      <trkpt lon="9.710446" lat="53.645837">
        <ele>5.55666</ele>
        <time>2026-08-16T16:36:53.592Z</time>
      </trkpt>
      <trkpt lon="9.710427" lat="53.645837">
        <ele>5.721</ele>
        <time>2026-08-16T16:42:24.916Z</time>
      </trkpt>
      <trkpt lon="9.710312" lat="53.645808">
        <ele>9.91342</ele>
        <time>2026-08-16T16:42:27.792Z</time>
      </trkpt>
      <trkpt lon="9.710222" lat="53.645770">
        <ele>11.9349</ele>
        <time>2026-08-16T16:42:28.956Z</time>
      </trkpt>
      <trkpt lon="9.710091" lat="53.645711">
        <ele>13.6883</ele>
        <time>2026-08-16T16:42:30.112Z</time>
      </trkpt>
      <trkpt lon="9.709817" lat="53.645583">
        <ele>16.5662</ele>
        <time>2026-08-16T16:42:31.836Z</time>
      </trkpt>
      <trkpt lon="9.708962" lat="53.645162">
        <ele>36.213</ele>
        <time>2026-08-16T16:42:35.908Z</time>
      </trkpt>
      <trkpt lon="9.708404" lat="53.644805">
        <ele>49.4035</ele>
        <time>2026-08-16T16:42:38.224Z</time>
      </trkpt>
      <trkpt lon="9.707598" lat="53.644226">
        <ele>62.0037</ele>
        <time>2026-08-16T16:42:41.100Z</time>
      </trkpt>
      <trkpt lon="9.706418" lat="53.643419">
        <ele>72.4648</ele>
        <time>2026-08-16T16:42:44.564Z</time>
      </trkpt>
      <trkpt lon="9.705230" lat="53.642650">
        <ele>77.8852</ele>
        <time>2026-08-16T16:42:47.432Z</time>
      </trkpt>
      <trkpt lon="9.704694" lat="53.642353">
        <ele>82.1271</ele>
        <time>2026-08-16T16:42:48.584Z</time>
      </trkpt>
      <trkpt lon="9.703820" lat="53.641943">
        <ele>88.6664</ele>
        <time>2026-08-16T16:42:50.300Z</time>
      </trkpt>
      <trkpt lon="9.703199" lat="53.641690">
        <ele>92.6749</ele>
        <time>2026-08-16T16:42:51.460Z</time>
      </trkpt>
      <trkpt lon="9.702226" lat="53.641340">
        <ele>97.6146</ele>
        <time>2026-08-16T16:42:53.192Z</time>
      </trkpt>
      <trkpt lon="9.701899" lat="53.641229">
        <ele>98.7649</ele>
        <time>2026-08-16T16:42:53.760Z</time>
      </trkpt>
      <trkpt lon="9.700609" lat="53.640760">
        <ele>103.771</ele>
        <time>2026-08-16T16:42:56.060Z</time>
      </trkpt>
      <trkpt lon="9.699337" lat="53.640237">
        <ele>99.1089</ele>
        <time>2026-08-16T16:42:58.364Z</time>
      </trkpt>
      <trkpt lon="9.690555" lat="53.636139">
        <ele>106.893</ele>
        <time>2026-08-16T16:43:13.356Z</time>
      </trkpt>
      <trkpt lon="9.688063" lat="53.635024">
        <ele>108.893</ele>
        <time>2026-08-16T16:43:17.380Z</time>
      </trkpt>
      <trkpt lon="9.684232" lat="53.633395">
        <ele>89.5285</ele>
        <time>2026-08-16T16:43:23.156Z</time>
      </trkpt>
      <trkpt lon="9.681346" lat="53.632321">
        <ele>87.6928</ele>
        <time>2026-08-16T16:43:27.220Z</time>
      </trkpt>
      <trkpt lon="9.679006" lat="53.631442">
        <ele>103.205</ele>
        <time>2026-08-16T16:43:30.688Z</time>
      </trkpt>
      <trkpt lon="9.675075" lat="53.629826">
        <ele>124.303</ele>
        <time>2026-08-16T16:43:37.060Z</time>
      </trkpt>
      <trkpt lon="9.673172" lat="53.628783">
        <ele>135.039</ele>
        <time>2026-08-16T16:43:40.512Z</time>
      </trkpt>
      <trkpt lon="9.670917" lat="53.627382">
        <ele>132.46</ele>
        <time>2026-08-16T16:43:44.548Z</time>
      </trkpt>
      <trkpt lon="9.668232" lat="53.625775">
        <ele>158.302</ele>
        <time>2026-08-16T16:43:49.212Z</time>
      </trkpt>
      <trkpt lon="9.666688" lat="53.624864">
        <ele>182.764</ele>
        <time>2026-08-16T16:43:52.056Z</time>
      </trkpt>
      <trkpt lon="9.664964" lat="53.623801">
        <ele>210.233</ele>
        <time>2026-08-16T16:43:55.516Z</time>
      </trkpt>
      <trkpt lon="9.662355" lat="53.621949">
        <ele>236.793</ele>
        <time>2026-08-16T16:44:01.288Z</time>
      </trkpt>
      <trkpt lon="9.659335" lat="53.619465">
        <ele>264.38</ele>
        <time>2026-08-16T16:44:08.232Z</time>
      </trkpt>
      <trkpt lon="9.656060" lat="53.616746">
        <ele>292.913</ele>
        <time>2026-08-16T16:44:15.704Z</time>
      </trkpt>
      <trkpt lon="9.650011" lat="53.611846">
        <ele>315.011</ele>
        <time>2026-08-16T16:44:28.292Z</time>
      </trkpt>
      <trkpt lon="9.634732" lat="53.599049">
        <ele>323.543</ele>
        <time>2026-08-16T16:44:58.672Z</time>
      </trkpt>
      <trkpt lon="9.617905" lat="53.586172">
        <ele>313.316</ele>
        <time>2026-08-16T16:45:29.056Z</time>
      </trkpt>
      <trkpt lon="9.601535" lat="53.572999">
        <ele>292.894</ele>
        <time>2026-08-16T16:45:59.576Z</time>
      </trkpt>
      <trkpt lon="9.595721" lat="53.567960">
        <ele>302.922</ele>
        <time>2026-08-16T16:46:11.048Z</time>
      </trkpt>
      <trkpt lon="9.589533" lat="53.560707">
        <ele>300.505</ele>
        <time>2026-08-16T16:46:26.168Z</time>
      </trkpt>
      <trkpt lon="9.582633" lat="53.552432">
        <ele>327.139</ele>
        <time>2026-08-16T16:46:43.448Z</time>
      </trkpt>
      <trkpt lon="9.581342" lat="53.551362">
        <ele>327.303</ele>
        <time>2026-08-16T16:46:45.984Z</time>
      </trkpt>
      <trkpt lon="9.579555" lat="53.550132">
        <ele>331.156</ele>
        <time>2026-08-16T16:46:49.148Z</time>
      </trkpt>
      <trkpt lon="9.578011" lat="53.549241">
        <ele>334.686</ele>
        <time>2026-08-16T16:46:51.684Z</time>
      </trkpt>
      <trkpt lon="9.576782" lat="53.548641">
        <ele>337.234</ele>
        <time>2026-08-16T16:46:53.584Z</time>
      </trkpt>
      <trkpt lon="9.575506" lat="53.548104">
        <ele>340.016</ele>
        <time>2026-08-16T16:46:55.484Z</time>
      </trkpt>
      <trkpt lon="9.573287" lat="53.547353">
        <ele>345.836</ele>
        <time>2026-08-16T16:46:58.652Z</time>
      </trkpt>
      <trkpt lon="9.570512" lat="53.546654">
        <ele>351.378</ele>
        <time>2026-08-16T16:47:02.448Z</time>
      </trkpt>
      <trkpt lon="9.565666" lat="53.545770">
        <ele>354.717</ele>
        <time>2026-08-16T16:47:08.784Z</time>
      </trkpt>
      <trkpt lon="9.563137" lat="53.545471">
        <ele>354.02</ele>
        <time>2026-08-16T16:47:11.948Z</time>
      </trkpt>
      <trkpt lon="9.561086" lat="53.545348">
        <ele>354.876</ele>
        <time>2026-08-16T16:47:14.484Z</time>
      </trkpt>
      <trkpt lon="9.548053" lat="53.545055">
        <ele>345.1</ele>
        <time>2026-08-16T16:47:30.320Z</time>
      </trkpt>
      <trkpt lon="9.539721" lat="53.544043">
        <ele>345.116</ele>
        <time>2026-08-16T16:47:40.452Z</time>
      </trkpt>
      <trkpt lon="9.530496" lat="53.542879">
        <ele>328.605</ele>
        <time>2026-08-16T16:47:51.852Z</time>
      </trkpt>
      <trkpt lon="9.528870" lat="53.542806">
        <ele>324.538</ele>
        <time>2026-08-16T16:47:53.752Z</time>
      </trkpt>
      <trkpt lon="9.527252" lat="53.542830">
        <ele>322.766</ele>
        <time>2026-08-16T16:47:55.652Z</time>
      </trkpt>
      <trkpt lon="9.525671" lat="53.542968">
        <ele>321.695</ele>
        <time>2026-08-16T16:47:57.556Z</time>
      </trkpt>
      <trkpt lon="9.524656" lat="53.543128">
        <ele>322.036</ele>
        <time>2026-08-16T16:47:58.820Z</time>
      </trkpt>
      <trkpt lon="9.523208" lat="53.543456">
        <ele>322.656</ele>
        <time>2026-08-16T16:48:00.720Z</time>
      </trkpt>
      <trkpt lon="9.521852" lat="53.543878">
        <ele>323.295</ele>
        <time>2026-08-16T16:48:02.620Z</time>
      </trkpt>
      <trkpt lon="9.520603" lat="53.544376">
        <ele>326.988</ele>
        <time>2026-08-16T16:48:04.520Z</time>
      </trkpt>
      <trkpt lon="9.518088" lat="53.545692">
        <ele>341.783</ele>
        <time>2026-08-16T16:48:08.936Z</time>
      </trkpt>
      <trkpt lon="9.517179" lat="53.546317">
        <ele>347.549</ele>
        <time>2026-08-16T16:48:10.852Z</time>
      </trkpt>
      <trkpt lon="9.516393" lat="53.546989">
        <ele>354.2</ele>
        <time>2026-08-16T16:48:12.752Z</time>
      </trkpt>
      <trkpt lon="9.515081" lat="53.548405">
        <ele>361.972</ele>
        <time>2026-08-16T16:48:16.552Z</time>
      </trkpt>
      <trkpt lon="9.514011" lat="53.549907">
        <ele>365.776</ele>
        <time>2026-08-16T16:48:20.352Z</time>
      </trkpt>
      <trkpt lon="9.513480" lat="53.550963">
        <ele>367.005</ele>
        <time>2026-08-16T16:48:22.888Z</time>
      </trkpt>
      <trkpt lon="9.513219" lat="53.551784">
        <ele>368.869</ele>
        <time>2026-08-16T16:48:24.784Z</time>
      </trkpt>
      <trkpt lon="9.513081" lat="53.552895">
        <ele>370.364</ele>
        <time>2026-08-16T16:48:27.320Z</time>
      </trkpt>
      <trkpt lon="9.513168" lat="53.553742">
        <ele>370.102</ele>
        <time>2026-08-16T16:48:29.220Z</time>
      </trkpt>
      <trkpt lon="9.513430" lat="53.554586">
        <ele>368.636</ele>
        <time>2026-08-16T16:48:31.120Z</time>
      </trkpt>
      <trkpt lon="9.513869" lat="53.555425">
        <ele>365.595</ele>
        <time>2026-08-16T16:48:33.020Z</time>
      </trkpt>
      <trkpt lon="9.514272" lat="53.555972">
        <ele>364.953</ele>
        <time>2026-08-16T16:48:34.284Z</time>
      </trkpt>
      <trkpt lon="9.514763" lat="53.556501">
        <ele>365.695</ele>
        <time>2026-08-16T16:48:35.552Z</time>
      </trkpt>
      <trkpt lon="9.515639" lat="53.557246">
        <ele>368.336</ele>
        <time>2026-08-16T16:48:37.452Z</time>
      </trkpt>
      <trkpt lon="9.517366" lat="53.558372">
        <ele>374.287</ele>
        <time>2026-08-16T16:48:40.620Z</time>
      </trkpt>
      <trkpt lon="9.528112" lat="53.565052">
        <ele>382.777</ele>
        <time>2026-08-16T16:48:59.616Z</time>
      </trkpt>
      <trkpt lon="9.543730" lat="53.576989">
        <ele>395.116</ele>
        <time>2026-08-16T16:49:30.020Z</time>
      </trkpt>
      <trkpt lon="9.553472" lat="53.584626">
        <ele>374.603</ele>
        <time>2026-08-16T16:49:49.020Z</time>
      </trkpt>
      <trkpt lon="9.570781" lat="53.596011">
        <ele>371.98</ele>
        <time>2026-08-16T16:50:19.420Z</time>
      </trkpt>
      <trkpt lon="9.575231" lat="53.599573">
        <ele>375.006</ele>
        <time>2026-08-16T16:50:28.288Z</time>
      </trkpt>
      <trkpt lon="9.582796" lat="53.605441">
        <ele>363.092</ele>
        <time>2026-08-16T16:50:42.856Z</time>
      </trkpt>
      <trkpt lon="9.599991" lat="53.617374">
        <ele>351.27</ele>
        <time>2026-08-16T16:51:13.252Z</time>
      </trkpt>
      <trkpt lon="9.611350" lat="53.625482">
        <ele>350.305</ele>
        <time>2026-08-16T16:51:33.488Z</time>
      </trkpt>
      <trkpt lon="9.616204" lat="53.628488">
        <ele>353.949</ele>
        <time>2026-08-16T16:51:42.356Z</time>
      </trkpt>
      <trkpt lon="9.622610" lat="53.632633">
        <ele>345.174</ele>
        <time>2026-08-16T16:51:55.656Z</time>
      </trkpt>
      <trkpt lon="9.624313" lat="53.633702">
        <ele>353.341</ele>
        <time>2026-08-16T16:51:59.452Z</time>
      </trkpt>
      <trkpt lon="9.626958" lat="53.635092">
        <ele>357.091</ele>
        <time>2026-08-16T16:52:05.124Z</time>
      </trkpt>
      <trkpt lon="9.628497" lat="53.635785">
        <ele>355.626</ele>
        <time>2026-08-16T16:52:08.292Z</time>
      </trkpt>
      <trkpt lon="9.634490" lat="53.638034">
        <ele>337.242</ele>
        <time>2026-08-16T16:52:19.692Z</time>
      </trkpt>
      <trkpt lon="9.637948" lat="53.639025">
        <ele>309.691</ele>
        <time>2026-08-16T16:52:25.392Z</time>
      </trkpt>
      <trkpt lon="9.640925" lat="53.639720">
        <ele>280.567</ele>
        <time>2026-08-16T16:52:29.824Z</time>
      </trkpt>
      <trkpt lon="9.644149" lat="53.640351">
        <ele>250.469</ele>
        <time>2026-08-16T16:52:34.256Z</time>
      </trkpt>
      <trkpt lon="9.646095" lat="53.640650">
        <ele>238.014</ele>
        <time>2026-08-16T16:52:36.792Z</time>
      </trkpt>
      <trkpt lon="9.649600" lat="53.640967">
        <ele>223.784</ele>
        <time>2026-08-16T16:52:41.228Z</time>
      </trkpt>
      <trkpt lon="9.651640" lat="53.641016">
        <ele>216.099</ele>
        <time>2026-08-16T16:52:43.756Z</time>
      </trkpt>
      <trkpt lon="9.653176" lat="53.641018">
        <ele>209.683</ele>
        <time>2026-08-16T16:52:45.656Z</time>
      </trkpt>
      <trkpt lon="9.657825" lat="53.641032">
        <ele>187.379</ele>
        <time>2026-08-16T16:52:51.360Z</time>
      </trkpt>
      <trkpt lon="9.662390" lat="53.641204">
        <ele>182.132</ele>
        <time>2026-08-16T16:52:57.060Z</time>
      </trkpt>
      <trkpt lon="9.663752" lat="53.641299">
        <ele>186.503</ele>
        <time>2026-08-16T16:52:58.956Z</time>
      </trkpt>
      <trkpt lon="9.665777" lat="53.641505">
        <ele>193.988</ele>
        <time>2026-08-16T16:53:02.124Z</time>
      </trkpt>
      <trkpt lon="9.667147" lat="53.641701">
        <ele>193.597</ele>
        <time>2026-08-16T16:53:04.656Z</time>
      </trkpt>
      <trkpt lon="9.667982" lat="53.641877">
        <ele>191.615</ele>
        <time>2026-08-16T16:53:06.560Z</time>
      </trkpt>
      <trkpt lon="9.668860" lat="53.642137">
        <ele>190.98</ele>
        <time>2026-08-16T16:53:09.088Z</time>
      </trkpt>
      <trkpt lon="9.669053" lat="53.642207">
        <ele>191.383</ele>
        <time>2026-08-16T16:53:09.724Z</time>
      </trkpt>
      <trkpt lon="9.669244" lat="53.642277">
        <ele>191.356</ele>
        <time>2026-08-16T16:53:10.360Z</time>
      </trkpt>
      <trkpt lon="9.669636" lat="53.642423">
        <ele>189.335</ele>
        <time>2026-08-16T16:53:11.624Z</time>
      </trkpt>
      <trkpt lon="9.670282" lat="53.642652">
        <ele>181.592</ele>
        <time>2026-08-16T16:53:13.524Z</time>
      </trkpt>
      <trkpt lon="9.670511" lat="53.642729">
        <ele>177.882</ele>
        <time>2026-08-16T16:53:14.156Z</time>
      </trkpt>
      <trkpt lon="9.670736" lat="53.642805">
        <ele>174.009</ele>
        <time>2026-08-16T16:53:14.792Z</time>
      </trkpt>
      <trkpt lon="9.670956" lat="53.642881">
        <ele>170.641</ele>
        <time>2026-08-16T16:53:15.424Z</time>
      </trkpt>
      <trkpt lon="9.671926" lat="53.643241">
        <ele>158.238</ele>
        <time>2026-08-16T16:53:18.588Z</time>
      </trkpt>
      <trkpt lon="9.672268" lat="53.643368">
        <ele>154.743</ele>
        <time>2026-08-16T16:53:19.860Z</time>
      </trkpt>
      <trkpt lon="9.672925" lat="53.643578">
        <ele>149.646</ele>
        <time>2026-08-16T16:53:22.392Z</time>
      </trkpt>
      <trkpt lon="9.674059" lat="53.643903">
        <ele>142.669</ele>
        <time>2026-08-16T16:53:26.828Z</time>
      </trkpt>
      <trkpt lon="9.676470" lat="53.644474">
        <ele>123.575</ele>
        <time>2026-08-16T16:53:35.060Z</time>
      </trkpt>
      <trkpt lon="9.677798" lat="53.644742">
        <ele>113.177</ele>
        <time>2026-08-16T16:53:38.860Z</time>
      </trkpt>
      <trkpt lon="9.678493" lat="53.644874">
        <ele>109.084</ele>
        <time>2026-08-16T16:53:40.760Z</time>
      </trkpt>
      <trkpt lon="9.681775" lat="53.645623">
        <ele>100.052</ele>
        <time>2026-08-16T16:53:49.624Z</time>
      </trkpt>
      <trkpt lon="9.685942" lat="53.646474">
        <ele>90.826</ele>
        <time>2026-08-16T16:54:01.028Z</time>
      </trkpt>
      <trkpt lon="9.686689" lat="53.646562">
        <ele>84.9147</ele>
        <time>2026-08-16T16:54:02.924Z</time>
      </trkpt>
      <trkpt lon="9.690072" lat="53.646799">
        <ele>68.6813</ele>
        <time>2026-08-16T16:54:11.160Z</time>
      </trkpt>
      <trkpt lon="9.692249" lat="53.646882">
        <ele>61.4812</ele>
        <time>2026-08-16T16:54:16.860Z</time>
      </trkpt>
      <trkpt lon="9.696755" lat="53.647335">
        <ele>44.9832</ele>
        <time>2026-08-16T16:54:28.260Z</time>
      </trkpt>
      <trkpt lon="9.698962" lat="53.647786">
        <ele>36.0358</ele>
        <time>2026-08-16T16:54:34.592Z</time>
      </trkpt>
      <trkpt lon="9.699357" lat="53.647906">
        <ele>33.2061</ele>
        <time>2026-08-16T16:54:35.860Z</time>
      </trkpt>
      <trkpt lon="9.699929" lat="53.648096">
        <ele>29.0487</ele>
        <time>2026-08-16T16:54:37.760Z</time>
      </trkpt>
      <trkpt lon="9.702296" lat="53.648934">
        <ele>14.069</ele>
        <time>2026-08-16T16:54:46.624Z</time>
      </trkpt>
      <trkpt lon="9.703144" lat="53.649212">
        <ele>10.9458</ele>
        <time>2026-08-16T16:54:51.060Z</time>
      </trkpt>
      <trkpt lon="9.703344" lat="53.649279">
        <ele>10.4175</ele>
        <time>2026-08-16T16:54:52.328Z</time>
      </trkpt>
      <trkpt lon="9.703615" lat="53.649376">
        <ele>9.02618</ele>
        <time>2026-08-16T16:54:54.228Z</time>
      </trkpt>
      <trkpt lon="9.703930" lat="53.649532">
        <ele>8.72696</ele>
        <time>2026-08-16T16:54:57.396Z</time>
      </trkpt>
      <trkpt lon="9.704003" lat="53.649570">
        <ele>8.68058</ele>
        <time>2026-08-16T16:54:59.292Z</time>
      </trkpt>
      <trkpt lon="9.710581" lat="53.645573">
        <ele>6.19877</ele>
        <time>2026-08-16T17:12:42.364Z</time>
      </trkpt>
      <trkpt lon="9.710446" lat="53.645837">
        <ele>5.55299</ele>
        <time>2026-08-16T17:12:55.300Z</time>
      </trkpt>
      <trkpt lon="9.710397" lat="53.645840">
        <ele>5.64651</ele>
        <time>2026-08-16T17:16:51.036Z</time>
      </trkpt>
      <trkpt lon="9.710096" lat="53.645832">
        <ele>7.59203</ele>
        <time>2026-08-16T17:16:55.008Z</time>
      </trkpt>
      <trkpt lon="9.709607" lat="53.645755">
        <ele>12.0767</ele>
        <time>2026-08-16T17:16:57.856Z</time>
      </trkpt>
      <trkpt lon="9.708582" lat="53.645661">
        <ele>15.0385</ele>
        <time>2026-08-16T17:17:01.836Z</time>
      </trkpt>
      <trkpt lon="9.706806" lat="53.645648">
        <ele>16.2027</ele>
        <time>2026-08-16T17:17:07.004Z</time>
      </trkpt>
      <trkpt lon="9.705888" lat="53.645663">
        <ele>17.2242</ele>
        <time>2026-08-16T17:17:09.296Z</time>
      </trkpt>
      <trkpt lon="9.704419" lat="53.645707">
        <ele>20.1776</ele>
        <time>2026-08-16T17:17:12.708Z</time>
      </trkpt>
      <trkpt lon="9.699579" lat="53.645901">
        <ele>37.2028</ele>
        <time>2026-08-16T17:17:23.036Z</time>
      </trkpt>
      <trkpt lon="9.696940" lat="53.645837">
        <ele>40.0323</ele>
        <time>2026-08-16T17:17:28.228Z</time>
      </trkpt>
      <trkpt lon="9.696346" lat="53.645742">
        <ele>43.2576</ele>
        <time>2026-08-16T17:17:29.400Z</time>
      </trkpt>
      <trkpt lon="9.695778" lat="53.645612">
        <ele>48.7267</ele>
        <time>2026-08-16T17:17:30.560Z</time>
      </trkpt>
      <trkpt lon="9.695255" lat="53.645450">
        <ele>54.6351</ele>
        <time>2026-08-16T17:17:31.720Z</time>
      </trkpt>
      <trkpt lon="9.694775" lat="53.645261">
        <ele>60.2157</ele>
        <time>2026-08-16T17:17:32.860Z</time>
      </trkpt>
      <trkpt lon="9.694318" lat="53.645045">
        <ele>65.7634</ele>
        <time>2026-08-16T17:17:34.040Z</time>
      </trkpt>
      <trkpt lon="9.692960" lat="53.644280">
        <ele>85.1215</ele>
        <time>2026-08-16T17:17:38.044Z</time>
      </trkpt>
      <trkpt lon="9.690784" lat="53.643094">
        <ele>105.592</ele>
        <time>2026-08-16T17:17:44.900Z</time>
      </trkpt>
      <trkpt lon="9.688955" lat="53.642191">
        <ele>127.353</ele>
        <time>2026-08-16T17:17:50.580Z</time>
      </trkpt>
      <trkpt lon="9.687153" lat="53.641365">
        <ele>149.295</ele>
        <time>2026-08-16T17:17:56.216Z</time>
      </trkpt>
      <trkpt lon="9.684555" lat="53.640012">
        <ele>170.923</ele>
        <time>2026-08-16T17:18:04.684Z</time>
      </trkpt>
      <trkpt lon="9.682090" lat="53.638745">
        <ele>173.188</ele>
        <time>2026-08-16T17:18:11.492Z</time>
      </trkpt>
      <trkpt lon="9.678080" lat="53.636930">
        <ele>154.11</ele>
        <time>2026-08-16T17:18:20.608Z</time>
      </trkpt>
      <trkpt lon="9.674766" lat="53.635278">
        <ele>144.749</ele>
        <time>2026-08-16T17:18:28.020Z</time>
      </trkpt>
      <trkpt lon="9.669279" lat="53.631617">
        <ele>148.915</ele>
        <time>2026-08-16T17:18:41.664Z</time>
      </trkpt>
      <trkpt lon="9.665857" lat="53.628797">
        <ele>172.621</ele>
        <time>2026-08-16T17:18:51.288Z</time>
      </trkpt>
      <trkpt lon="9.661371" lat="53.624867">
        <ele>174.522</ele>
        <time>2026-08-16T17:19:03.376Z</time>
      </trkpt>
      <trkpt lon="9.658645" lat="53.622745">
        <ele>166.757</ele>
        <time>2026-08-16T17:19:09.708Z</time>
      </trkpt>
      <trkpt lon="9.655159" lat="53.620395">
        <ele>163.403</ele>
        <time>2026-08-16T17:19:17.272Z</time>
      </trkpt>
      <trkpt lon="9.652571" lat="53.618920">
        <ele>149.004</ele>
        <time>2026-08-16T17:19:22.292Z</time>
      </trkpt>
      <trkpt lon="9.649957" lat="53.617634">
        <ele>142.643</ele>
        <time>2026-08-16T17:19:26.932Z</time>
      </trkpt>
      <trkpt lon="9.646460" lat="53.616027">
        <ele>119.188</ele>
        <time>2026-08-16T17:19:32.648Z</time>
      </trkpt>
      <trkpt lon="9.643908" lat="53.614780">
        <ele>102.67</ele>
        <time>2026-08-16T17:19:36.680Z</time>
      </trkpt>
      <trkpt lon="9.641018" lat="53.613208">
        <ele>81.4468</ele>
        <time>2026-08-16T17:19:41.320Z</time>
      </trkpt>
      <trkpt lon="9.637595" lat="53.611634">
        <ele>82.9838</ele>
        <time>2026-08-16T17:19:46.392Z</time>
      </trkpt>
      <trkpt lon="9.636039" lat="53.610885">
        <ele>102.155</ele>
        <time>2026-08-16T17:19:48.924Z</time>
      </trkpt>
      <trkpt lon="9.635397" lat="53.610464">
        <ele>113.167</ele>
        <time>2026-08-16T17:19:50.204Z</time>
      </trkpt>
      <trkpt lon="9.634860" lat="53.610019">
        <ele>122.586</ele>
        <time>2026-08-16T17:19:51.468Z</time>
      </trkpt>
      <trkpt lon="9.634427" lat="53.609552">
        <ele>131.737</ele>
        <time>2026-08-16T17:19:52.736Z</time>
      </trkpt>
      <trkpt lon="9.634124" lat="53.609066">
        <ele>141.245</ele>
        <time>2026-08-16T17:19:54.000Z</time>
      </trkpt>
      <trkpt lon="9.633953" lat="53.608570">
        <ele>150.4</ele>
        <time>2026-08-16T17:19:55.268Z</time>
      </trkpt>
      <trkpt lon="9.633904" lat="53.608077">
        <ele>158.623</ele>
        <time>2026-08-16T17:19:56.536Z</time>
      </trkpt>
      <trkpt lon="9.633973" lat="53.607591">
        <ele>165.71</ele>
        <time>2026-08-16T17:19:57.800Z</time>
      </trkpt>
      <trkpt lon="9.634161" lat="53.607124">
        <ele>172.002</ele>
        <time>2026-08-16T17:19:59.072Z</time>
      </trkpt>
      <trkpt lon="9.634300" lat="53.606901">
        <ele>174.865</ele>
        <time>2026-08-16T17:19:59.704Z</time>
      </trkpt>
      <trkpt lon="9.634471" lat="53.606684">
        <ele>177.573</ele>
        <time>2026-08-16T17:20:00.336Z</time>
      </trkpt>
      <trkpt lon="9.634669" lat="53.606479">
        <ele>180.068</ele>
        <time>2026-08-16T17:20:00.968Z</time>
      </trkpt>
      <trkpt lon="9.634896" lat="53.606286">
        <ele>182.45</ele>
        <time>2026-08-16T17:20:01.600Z</time>
      </trkpt>
      <trkpt lon="9.635148" lat="53.606110">
        <ele>184.78</ele>
        <time>2026-08-16T17:20:02.236Z</time>
      </trkpt>
      <trkpt lon="9.635425" lat="53.605950">
        <ele>187.129</ele>
        <time>2026-08-16T17:20:02.868Z</time>
      </trkpt>
      <trkpt lon="9.635719" lat="53.605810">
        <ele>189.487</ele>
        <time>2026-08-16T17:20:03.500Z</time>
      </trkpt>
      <trkpt lon="9.636034" lat="53.605689">
        <ele>191.882</ele>
        <time>2026-08-16T17:20:04.136Z</time>
      </trkpt>
      <trkpt lon="9.636358" lat="53.605591">
        <ele>194.135</ele>
        <time>2026-08-16T17:20:04.768Z</time>
      </trkpt>
      <trkpt lon="9.636696" lat="53.605513">
        <ele>196.181</ele>
        <time>2026-08-16T17:20:05.404Z</time>
      </trkpt>
      <trkpt lon="9.637038" lat="53.605459">
        <ele>197.886</ele>
        <time>2026-08-16T17:20:06.036Z</time>
      </trkpt>
      <trkpt lon="9.637383" lat="53.605426">
        <ele>199.261</ele>
        <time>2026-08-16T17:20:06.668Z</time>
      </trkpt>
      <trkpt lon="9.637729" lat="53.605418">
        <ele>200.377</ele>
        <time>2026-08-16T17:20:07.300Z</time>
      </trkpt>
      <trkpt lon="9.638066" lat="53.605434">
        <ele>201.232</ele>
        <time>2026-08-16T17:20:07.932Z</time>
      </trkpt>
      <trkpt lon="9.638395" lat="53.605476">
        <ele>201.82</ele>
        <time>2026-08-16T17:20:08.572Z</time>
      </trkpt>
      <trkpt lon="9.638709" lat="53.605541">
        <ele>202.084</ele>
        <time>2026-08-16T17:20:09.204Z</time>
      </trkpt>
      <trkpt lon="9.639003" lat="53.605628">
        <ele>201.986</ele>
        <time>2026-08-16T17:20:09.836Z</time>
      </trkpt>
      <trkpt lon="9.639275" lat="53.605738">
        <ele>201.525</ele>
        <time>2026-08-16T17:20:10.468Z</time>
      </trkpt>
      <trkpt lon="9.639521" lat="53.605865">
        <ele>200.683</ele>
        <time>2026-08-16T17:20:11.100Z</time>
      </trkpt>
      <trkpt lon="9.639742" lat="53.606009">
        <ele>199.344</ele>
        <time>2026-08-16T17:20:11.736Z</time>
      </trkpt>
      <trkpt lon="9.639940" lat="53.606165">
        <ele>197.649</ele>
        <time>2026-08-16T17:20:12.368Z</time>
      </trkpt>
      <trkpt lon="9.640118" lat="53.606334">
        <ele>195.79</ele>
        <time>2026-08-16T17:20:13.004Z</time>
      </trkpt>
      <trkpt lon="9.642417" lat="53.609020">
        <ele>193.2</ele>
        <time>2026-08-16T17:20:21.872Z</time>
      </trkpt>
      <trkpt lon="9.644497" lat="53.610897">
        <ele>204.873</ele>
        <time>2026-08-16T17:20:28.204Z</time>
      </trkpt>
      <trkpt lon="9.646943" lat="53.612731">
        <ele>213.193</ele>
        <time>2026-08-16T17:20:34.536Z</time>
      </trkpt>
      <trkpt lon="9.651170" lat="53.615149">
        <ele>207.048</ele>
        <time>2026-08-16T17:20:43.404Z</time>
      </trkpt>
      <trkpt lon="9.653679" lat="53.616717">
        <ele>189.282</ele>
        <time>2026-08-16T17:20:48.468Z</time>
      </trkpt>
      <trkpt lon="9.658214" lat="53.619774">
        <ele>165.499</ele>
        <time>2026-08-16T17:20:57.336Z</time>
      </trkpt>
      <trkpt lon="9.665075" lat="53.624370">
        <ele>152.188</ele>
        <time>2026-08-16T17:21:10.636Z</time>
      </trkpt>
      <trkpt lon="9.669786" lat="53.627626">
        <ele>168.764</ele>
        <time>2026-08-16T17:21:20.136Z</time>
      </trkpt>
      <trkpt lon="9.678441" lat="53.633495">
        <ele>158.836</ele>
        <time>2026-08-16T17:21:37.872Z</time>
      </trkpt>
      <trkpt lon="9.682419" lat="53.636770">
        <ele>136.752</ele>
        <time>2026-08-16T17:21:46.740Z</time>
      </trkpt>
      <trkpt lon="9.688398" lat="53.641360">
        <ele>132.912</ele>
        <time>2026-08-16T17:21:59.408Z</time>
      </trkpt>
      <trkpt lon="9.692066" lat="53.643349">
        <ele>133.211</ele>
        <time>2026-08-16T17:22:05.740Z</time>
      </trkpt>
      <trkpt lon="9.693505" lat="53.643982">
        <ele>133.982</ele>
        <time>2026-08-16T17:22:08.272Z</time>
      </trkpt>
      <trkpt lon="9.694878" lat="53.644479">
        <ele>130.967</ele>
        <time>2026-08-16T17:22:10.804Z</time>
      </trkpt>
      <trkpt lon="9.696145" lat="53.644900">
        <ele>124.005</ele>
        <time>2026-08-16T17:22:13.340Z</time>
      </trkpt>
      <trkpt lon="9.697509" lat="53.645387">
        <ele>113.6</ele>
        <time>2026-08-16T17:22:16.508Z</time>
      </trkpt>
      <trkpt lon="9.697980" lat="53.645579">
        <ele>108.66</ele>
        <time>2026-08-16T17:22:17.772Z</time>
      </trkpt>
      <trkpt lon="9.699244" lat="53.646102">
        <ele>93.8785</ele>
        <time>2026-08-16T17:22:21.576Z</time>
      </trkpt>
      <trkpt lon="9.700841" lat="53.646739">
        <ele>76.4281</ele>
        <time>2026-08-16T17:22:27.240Z</time>
      </trkpt>
      <trkpt lon="9.701701" lat="53.647078">
        <ele>63.1925</ele>
        <time>2026-08-16T17:22:31.040Z</time>
      </trkpt>
      <trkpt lon="9.701930" lat="53.647189">
        <ele>57.9777</ele>
        <time>2026-08-16T17:22:32.308Z</time>
      </trkpt>
      <trkpt lon="9.702423" lat="53.647528">
        <ele>47.1592</ele>
        <time>2026-08-16T17:22:36.104Z</time>
      </trkpt>
      <trkpt lon="9.703027" lat="53.647853">
        <ele>28.8163</ele>
        <time>2026-08-16T17:22:41.176Z</time>
      </trkpt>
      <trkpt lon="9.703398" lat="53.648092">
        <ele>20.4137</ele>
        <time>2026-08-16T17:22:44.340Z</time>
      </trkpt>
      <trkpt lon="9.703729" lat="53.648289">
        <ele>17.5094</ele>
        <time>2026-08-16T17:22:46.876Z</time>
      </trkpt>
      <trkpt lon="9.704614" lat="53.648564">
        <ele>14.1251</ele>
        <time>2026-08-16T17:22:51.940Z</time>
      </trkpt>
      <trkpt lon="9.704838" lat="53.648649">
        <ele>12.6267</ele>
        <time>2026-08-16T17:22:53.208Z</time>
      </trkpt>
      <trkpt lon="9.707084" lat="53.649633">
        <ele>10.5405</ele>
        <time>2026-08-16T17:23:05.876Z</time>
      </trkpt>
      <trkpt lon="9.708351" lat="53.650164">
        <ele>8.62146</ele>
        <time>2026-08-16T17:23:12.208Z</time>
      </trkpt>
      <trkpt lon="9.709709" lat="53.650813">
        <ele>8.19731</ele>
        <time>2026-08-16T17:23:20.440Z</time>
      </trkpt>
      <trkpt lon="9.709948" lat="53.650907">
        <ele>8.1245</ele>
        <time>2026-08-16T17:23:22.976Z</time>
      </trkpt>
      <trkpt lon="9.710192" lat="53.651015">
        <ele>8.01578</ele>
        <time>2026-08-16T17:23:33.108Z</time>
      </trkpt>
    </trkseg>
    <trkseg>
      <trkpt lon="-103.392445" lat="43.367873">
        <ele>958.989</ele>
        <time>2026-08-23T08:48:26.606Z</time>
      </trkpt>
    </trkseg>
    <trkseg>
      <trkpt lon="-122.294505" lat="47.518932">
        <ele>37.4439</ele>
        <time>2026-08-23T09:28:06.028Z</time>
      </trkpt>
      <trkpt lon="-122.294505" lat="47.518932">
        <ele>7.48846</ele>
        <time>2024-06-15T00:00:07.143Z</time>
      </trkpt>
    </trkseg>
    <trkseg>
      <trkpt lon="-103.392445" lat="43.367873">
        <ele>959.538</ele>
        <time>2026-08-23T09:29:55.832Z</time>
      </trkpt>
    </trkseg>
    <trkseg>
      <trkpt lon="9.710581" lat="53.645573">
        <ele>5.94245</ele>
        <time>2026-08-23T09:30:40.896Z</time>
      </trkpt>
      <trkpt lon="9.710446" lat="53.645837">
        <ele>5.55769</ele>
        <time>2026-08-23T09:30:59.736Z</time>
      </trkpt>
      <trkpt lon="9.710581" lat="53.645573">
        <ele>5.37366</ele>
        <time>2026-08-23T09:31:30.372Z</time>
      </trkpt>
      <trkpt lon="9.710446" lat="53.645837">
        <ele>5.5551</ele>
        <time>2026-08-23T09:31:48.512Z</time>
      </trkpt>
    </trkseg>
    <trkseg>
      <trkpt lon="7.153082" lat="50.768935">
        <ele>60.2867</ele>
        <time>2026-08-23T09:32:53.396Z</time>
      </trkpt>
    </trkseg>
    <trkseg>
      <trkpt lon="-103.392445" lat="43.367873">
        <ele>958.988</ele>
        <time>2026-08-23T09:34:14.364Z</time>
      </trkpt>
      <trkpt lon="-103.392256" lat="43.363672">
        <ele>958.193</ele>
        <time>2026-08-23T12:10:08.612Z</time>
      </trkpt>
      <trkpt lon="-103.392363" lat="43.368019">
        <ele>959</ele>
        <time>2026-08-23T12:27:01.344Z</time>
      </trkpt>
      <trkpt lon="-103.392377" lat="43.368039">
        <ele>959.015</ele>
        <time>2026-08-23T12:47:14.672Z</time>
      </trkpt>
      <trkpt lon="-103.392344" lat="43.368057">
        <ele>960.009</ele>
        <time>2026-08-23T12:47:17.024Z</time>
      </trkpt>
      <trkpt lon="-103.392096" lat="43.368121">
        <ele>961.828</ele>
        <time>2026-08-23T12:47:22.964Z</time>
      </trkpt>
      <trkpt lon="-103.391939" lat="43.368239">
        <ele>978.644</ele>
        <time>2026-08-23T12:47:29.412Z</time>
      </trkpt>
      <trkpt lon="-103.391969" lat="43.368381">
        <ele>997.038</ele>
        <time>2026-08-23T12:47:35.304Z</time>
      </trkpt>
      <trkpt lon="-103.392102" lat="43.368439">
        <ele>1015.15</ele>
        <time>2026-08-23T12:47:40.004Z</time>
      </trkpt>
      <trkpt lon="-103.392426" lat="43.368662">
        <ele>1024.48</ele>
        <time>2026-08-23T12:47:48.164Z</time>
      </trkpt>
      <trkpt lon="-103.392717" lat="43.368983">
        <ele>1026.39</ele>
        <time>2026-08-23T12:47:52.848Z</time>
      </trkpt>
      <trkpt lon="-103.393584" lat="43.369953">
        <ele>1047.36</ele>
        <time>2026-08-23T12:48:02.208Z</time>
      </trkpt>
      <trkpt lon="-103.393917" lat="43.370221">
        <ele>1069.56</ele>
        <time>2026-08-23T12:48:05.688Z</time>
      </trkpt>
      <trkpt lon="-103.394178" lat="43.370458">
        <ele>1092.25</ele>
        <time>2026-08-23T12:48:09.756Z</time>
      </trkpt>
      <trkpt lon="-103.394259" lat="43.370576">
        <ele>1101.96</ele>
        <time>2026-08-23T12:48:12.636Z</time>
      </trkpt>
      <trkpt lon="-103.394268" lat="43.370653">
        <ele>1104.46</ele>
        <time>2026-08-23T12:48:14.360Z</time>
      </trkpt>
      <trkpt lon="-103.394173" lat="43.370712">
        <ele>1111.63</ele>
        <time>2026-08-23T12:48:16.104Z</time>
      </trkpt>
      <trkpt lon="-103.393942" lat="43.370727">
        <ele>1121.47</ele>
        <time>2026-08-23T12:48:17.872Z</time>
      </trkpt>
      <trkpt lon="-103.393457" lat="43.370677">
        <ele>1131.13</ele>
        <time>2026-08-23T12:48:20.188Z</time>
      </trkpt>
      <trkpt lon="-103.393155" lat="43.370627">
        <ele>1134.5</ele>
        <time>2026-08-23T12:48:21.352Z</time>
      </trkpt>
      <trkpt lon="-103.392814" lat="43.370555">
        <ele>1138.52</ele>
        <time>2026-08-23T12:48:22.496Z</time>
      </trkpt>
      <trkpt lon="-103.392411" lat="43.370442">
        <ele>1144.28</ele>
        <time>2026-08-23T12:48:23.664Z</time>
      </trkpt>
      <trkpt lon="-103.391967" lat="43.370285">
        <ele>1150.82</ele>
        <time>2026-08-23T12:48:24.816Z</time>
      </trkpt>
      <trkpt lon="-103.391465" lat="43.370068">
        <ele>1158.02</ele>
        <time>2026-08-23T12:48:26.000Z</time>
      </trkpt>
      <trkpt lon="-103.390926" lat="43.369787">
        <ele>1165.36</ele>
        <time>2026-08-23T12:48:27.176Z</time>
      </trkpt>
      <trkpt lon="-103.390379" lat="43.369450">
        <ele>1172.69</ele>
        <time>2026-08-23T12:48:28.328Z</time>
      </trkpt>
      <trkpt lon="-103.389814" lat="43.369047">
        <ele>1180.6</ele>
        <time>2026-08-23T12:48:29.504Z</time>
      </trkpt>
      <trkpt lon="-103.389263" lat="43.368594">
        <ele>1188.68</ele>
        <time>2026-08-23T12:48:30.656Z</time>
      </trkpt>
      <trkpt lon="-103.388716" lat="43.368082">
        <ele>1197.02</ele>
        <time>2026-08-23T12:48:31.832Z</time>
      </trkpt>
      <trkpt lon="-103.388193" lat="43.367532">
        <ele>1205.76</ele>
        <time>2026-08-23T12:48:33.004Z</time>
      </trkpt>
      <trkpt lon="-103.387938" lat="43.367239">
        <ele>1210.59</ele>
        <time>2026-08-23T12:48:33.584Z</time>
      </trkpt>
      <trkpt lon="-103.387696" lat="43.366945">
        <ele>1215.44</ele>
        <time>2026-08-23T12:48:34.160Z</time>
      </trkpt>
      <trkpt lon="-103.387233" lat="43.366327">
        <ele>1225.23</ele>
        <time>2026-08-23T12:48:35.316Z</time>
      </trkpt>
      <trkpt lon="-103.386585" lat="43.365344">
        <ele>1239.07</ele>
        <time>2026-08-23T12:48:37.064Z</time>
      </trkpt>
      <trkpt lon="-103.385406" lat="43.363254">
        <ele>1261.82</ele>
        <time>2026-08-23T12:48:40.580Z</time>
      </trkpt>
      <trkpt lon="-103.385029" lat="43.362524">
        <ele>1268.43</ele>
        <time>2026-08-23T12:48:41.756Z</time>
      </trkpt>
      <trkpt lon="-103.384151" lat="43.360640">
        <ele>1285.42</ele>
        <time>2026-08-23T12:48:44.700Z</time>
      </trkpt>
      <trkpt lon="-103.383820" lat="43.359862">
        <ele>1293.34</ele>
        <time>2026-08-23T12:48:45.880Z</time>
      </trkpt>
      <trkpt lon="-103.382391" lat="43.355847">
        <ele>1324.21</ele>
        <time>2026-08-23T12:48:51.720Z</time>
      </trkpt>
      <trkpt lon="-103.382022" lat="43.354604">
        <ele>1331.14</ele>
        <time>2026-08-23T12:48:53.440Z</time>
      </trkpt>
      <trkpt lon="-103.381220" lat="43.351610">
        <ele>1347.96</ele>
        <time>2026-08-23T12:48:57.516Z</time>
      </trkpt>
      <trkpt lon="-103.380473" lat="43.348295">
        <ele>1382.38</ele>
        <time>2026-08-23T12:49:02.180Z</time>
      </trkpt>
      <trkpt lon="-103.379959" lat="43.346350">
        <ele>1400</ele>
        <time>2026-08-23T12:49:05.104Z</time>
      </trkpt>
      <trkpt lon="-103.379623" lat="43.345212">
        <ele>1408.55</ele>
        <time>2026-08-23T12:49:06.872Z</time>
      </trkpt>
      <trkpt lon="-103.379416" lat="43.344434">
        <ele>1412.08</ele>
        <time>2026-08-23T12:49:08.048Z</time>
      </trkpt>
      <trkpt lon="-103.379215" lat="43.343654">
        <ele>1414.78</ele>
        <time>2026-08-23T12:49:09.236Z</time>
      </trkpt>
      <trkpt lon="-103.379114" lat="43.343252">
        <ele>1416.43</ele>
        <time>2026-08-23T12:49:09.824Z</time>
      </trkpt>
      <trkpt lon="-103.379021" lat="43.342850">
        <ele>1418.35</ele>
        <time>2026-08-23T12:49:10.416Z</time>
      </trkpt>
      <trkpt lon="-103.378826" lat="43.341652">
        <ele>1424.82</ele>
        <time>2026-08-23T12:49:12.156Z</time>
      </trkpt>
      <trkpt lon="-103.378760" lat="43.340438">
        <ele>1428.95</ele>
        <time>2026-08-23T12:49:13.880Z</time>
      </trkpt>
      <trkpt lon="-103.378763" lat="43.340033">
        <ele>1429.95</ele>
        <time>2026-08-23T12:49:14.464Z</time>
      </trkpt>
      <trkpt lon="-103.378782" lat="43.339617">
        <ele>1430.97</ele>
        <time>2026-08-23T12:49:15.056Z</time>
      </trkpt>
      <trkpt lon="-103.378821" lat="43.339219">
        <ele>1432.02</ele>
        <time>2026-08-23T12:49:15.620Z</time>
      </trkpt>
      <trkpt lon="-103.378887" lat="43.338824">
        <ele>1433.21</ele>
        <time>2026-08-23T12:49:16.204Z</time>
      </trkpt>
      <trkpt lon="-103.378982" lat="43.338441">
        <ele>1434.44</ele>
        <time>2026-08-23T12:49:16.788Z</time>
      </trkpt>
      <trkpt lon="-103.379425" lat="43.337381">
        <ele>1435.72</ele>
        <time>2026-08-23T12:49:18.576Z</time>
      </trkpt>
      <trkpt lon="-103.379612" lat="43.337062">
        <ele>1435.29</ele>
        <time>2026-08-23T12:49:19.176Z</time>
      </trkpt>
      <trkpt lon="-103.379809" lat="43.336764">
        <ele>1434.36</ele>
        <time>2026-08-23T12:49:19.760Z</time>
      </trkpt>
      <trkpt lon="-103.380013" lat="43.336488">
        <ele>1432.95</ele>
        <time>2026-08-23T12:49:20.356Z</time>
      </trkpt>
      <trkpt lon="-103.380220" lat="43.336232">
        <ele>1431.3</ele>
        <time>2026-08-23T12:49:20.936Z</time>
      </trkpt>
      <trkpt lon="-103.380423" lat="43.336002">
        <ele>1429.64</ele>
        <time>2026-08-23T12:49:21.536Z</time>
      </trkpt>
      <trkpt lon="-103.380624" lat="43.335790">
        <ele>1428.03</ele>
        <time>2026-08-23T12:49:22.112Z</time>
      </trkpt>
      <trkpt lon="-103.380813" lat="43.335602">
        <ele>1426.68</ele>
        <time>2026-08-23T12:49:22.700Z</time>
      </trkpt>
      <trkpt lon="-103.380994" lat="43.335429">
        <ele>1425.57</ele>
        <time>2026-08-23T12:49:23.280Z</time>
      </trkpt>
      <trkpt lon="-103.381158" lat="43.335275">
        <ele>1424.79</ele>
        <time>2026-08-23T12:49:23.860Z</time>
      </trkpt>
      <trkpt lon="-103.381309" lat="43.335133">
        <ele>1424.25</ele>
        <time>2026-08-23T12:49:24.440Z</time>
      </trkpt>
      <trkpt lon="-103.381450" lat="43.334999">
        <ele>1424.05</ele>
        <time>2026-08-23T12:49:25.020Z</time>
      </trkpt>
      <trkpt lon="-103.381570" lat="43.334877">
        <ele>1424.2</ele>
        <time>2026-08-23T12:49:25.596Z</time>
      </trkpt>
      <trkpt lon="-103.381678" lat="43.334761">
        <ele>1424.63</ele>
        <time>2026-08-23T12:49:26.180Z</time>
      </trkpt>
      <trkpt lon="-103.381766" lat="43.334653">
        <ele>1425.29</ele>
        <time>2026-08-23T12:49:26.752Z</time>
      </trkpt>
      <trkpt lon="-103.381905" lat="43.334448">
        <ele>1426.34</ele>
        <time>2026-08-23T12:49:27.900Z</time>
      </trkpt>
      <trkpt lon="-103.382013" lat="43.334260">
        <ele>1425.03</ele>
        <time>2026-08-23T12:49:29.068Z</time>
      </trkpt>
      <trkpt lon="-103.382144" lat="43.333959">
        <ele>1411.71</ele>
        <time>2026-08-23T12:49:31.384Z</time>
      </trkpt>
      <trkpt lon="-103.382155" lat="43.333766">
        <ele>1379.93</ele>
        <time>2026-08-23T12:49:33.720Z</time>
      </trkpt>
      <trkpt lon="-103.382004" lat="43.333709">
        <ele>1342.45</ele>
        <time>2026-08-23T12:49:36.044Z</time>
      </trkpt>
      <trkpt lon="-103.381721" lat="43.333753">
        <ele>1304.57</ele>
        <time>2026-08-23T12:49:38.360Z</time>
      </trkpt>
      <trkpt lon="-103.381427" lat="43.333837">
        <ele>1274.4</ele>
        <time>2026-08-23T12:49:40.152Z</time>
      </trkpt>
      <trkpt lon="-103.381095" lat="43.333955">
        <ele>1242.08</ele>
        <time>2026-08-23T12:49:41.912Z</time>
      </trkpt>
      <trkpt lon="-103.380713" lat="43.334121">
        <ele>1206.33</ele>
        <time>2026-08-23T12:49:43.740Z</time>
      </trkpt>
      <trkpt lon="-103.380176" lat="43.334384">
        <ele>1180.33</ele>
        <time>2026-08-23T12:49:46.076Z</time>
      </trkpt>
      <trkpt lon="-103.378911" lat="43.334971">
        <ele>1156.1</ele>
        <time>2026-08-23T12:49:51.324Z</time>
      </trkpt>
      <trkpt lon="-103.378171" lat="43.335270">
        <ele>1132.46</ele>
        <time>2026-08-23T12:49:54.212Z</time>
      </trkpt>
      <trkpt lon="-103.377484" lat="43.335625">
        <ele>1111.03</ele>
        <time>2026-08-23T12:49:57.172Z</time>
      </trkpt>
      <trkpt lon="-103.377116" lat="43.335851">
        <ele>1103.56</ele>
        <time>2026-08-23T12:49:58.912Z</time>
      </trkpt>
      <trkpt lon="-103.375908" lat="43.337020">
        <ele>1095.43</ele>
        <time>2026-08-23T12:50:07.208Z</time>
      </trkpt>
      <trkpt lon="-103.375569" lat="43.337872">
        <ele>1099.76</ele>
        <time>2026-08-23T12:50:13.616Z</time>
      </trkpt>
      <trkpt lon="-103.375556" lat="43.338295">
        <ele>1111.46</ele>
        <time>2026-08-23T12:50:17.152Z</time>
      </trkpt>
      <trkpt lon="-103.375535" lat="43.338781">
        <ele>1116.34</ele>
        <time>2026-08-23T12:50:21.232Z</time>
      </trkpt>
      <trkpt lon="-103.375297" lat="43.340431">
        <ele>1097.1</ele>
        <time>2026-08-23T12:50:33.472Z</time>
      </trkpt>
      <trkpt lon="-103.375320" lat="43.341199">
        <ele>1077.23</ele>
        <time>2026-08-23T12:50:39.316Z</time>
      </trkpt>
      <trkpt lon="-103.375262" lat="43.341742">
        <ele>1058.44</ele>
        <time>2026-08-23T12:50:43.380Z</time>
      </trkpt>
      <trkpt lon="-103.375351" lat="43.342196">
        <ele>1059.72</ele>
        <time>2026-08-23T12:50:48.064Z</time>
      </trkpt>
      <trkpt lon="-103.375491" lat="43.342821">
        <ele>1045.04</ele>
        <time>2026-08-23T12:50:57.956Z</time>
      </trkpt>
      <trkpt lon="-103.375567" lat="43.342956">
        <ele>1044.57</ele>
        <time>2026-08-23T12:51:00.380Z</time>
      </trkpt>
      <trkpt lon="-103.375719" lat="43.343133">
        <ele>1041.56</ele>
        <time>2026-08-23T12:51:03.332Z</time>
      </trkpt>
      <trkpt lon="-103.375818" lat="43.343243">
        <ele>1041.26</ele>
        <time>2026-08-23T12:51:05.116Z</time>
      </trkpt>
      <trkpt lon="-103.375881" lat="43.343322">
        <ele>1039.82</ele>
        <time>2026-08-23T12:51:06.320Z</time>
      </trkpt>
      <trkpt lon="-103.375898" lat="43.343535">
        <ele>1037.07</ele>
        <time>2026-08-23T12:51:09.256Z</time>
      </trkpt>
      <trkpt lon="-103.375737" lat="43.343681">
        <ele>1037.25</ele>
        <time>2026-08-23T12:51:11.596Z</time>
      </trkpt>
      <trkpt lon="-103.375491" lat="43.343805">
        <ele>1034.45</ele>
        <time>2026-08-23T12:51:13.964Z</time>
      </trkpt>
      <trkpt lon="-103.375282" lat="43.343890">
        <ele>1032.18</ele>
        <time>2026-08-23T12:51:15.752Z</time>
      </trkpt>
      <trkpt lon="-103.374842" lat="43.344011">
        <ele>1019.85</ele>
        <time>2026-08-23T12:51:19.224Z</time>
      </trkpt>
      <trkpt lon="-103.374547" lat="43.344107">
        <ele>1019.65</ele>
        <time>2026-08-23T12:51:22.708Z</time>
      </trkpt>
      <trkpt lon="-103.374400" lat="43.344150">
        <ele>1007.77</ele>
        <time>2026-08-23T12:51:29.104Z</time>
      </trkpt>
      <trkpt lon="-103.374417" lat="43.344115">
        <ele>1003.96</ele>
        <time>2026-08-23T12:51:32.044Z</time>
      </trkpt>
    </trkseg>
    <trkseg>
      <trkpt lon="-103.613344" lat="43.732961">
        <ele>1695.12</ele>
        <time>2026-08-30T10:46:54.356Z</time>
      </trkpt>
      <trkpt lon="-103.613334" lat="43.732959">
        <ele>1695.01</ele>
        <time>2026-08-30T12:02:29.224Z</time>
      </trkpt>
      <trkpt lon="-103.613322" lat="43.732951">
        <ele>1694.98</ele>
        <time>2026-08-30T12:02:31.012Z</time>
      </trkpt>
      <trkpt lon="-103.613320" lat="43.732940">
        <ele>1694.98</ele>
        <time>2026-08-30T12:02:32.184Z</time>
      </trkpt>
      <trkpt lon="-103.613330" lat="43.732929">
        <ele>1695.01</ele>
        <time>2026-08-30T12:02:33.392Z</time>
      </trkpt>
      <trkpt lon="-103.613341" lat="43.732926">
        <ele>1695.03</ele>
        <time>2026-08-30T12:02:34.572Z</time>
      </trkpt>
      <trkpt lon="-103.613353" lat="43.732923">
        <ele>1695.11</ele>
        <time>2026-08-30T12:06:09.460Z</time>
      </trkpt>
      <trkpt lon="-103.613367" lat="43.732921">
        <ele>1695.14</ele>
        <time>2026-08-30T12:06:11.840Z</time>
      </trkpt>
      <trkpt lon="-103.613379" lat="43.732920">
        <ele>1695.17</ele>
        <time>2026-08-30T12:06:13.032Z</time>
      </trkpt>
      <trkpt lon="-103.613397" lat="43.732921">
        <ele>1695.2</ele>
        <time>2026-08-30T12:06:14.200Z</time>
      </trkpt>
      <trkpt lon="-103.613420" lat="43.732923">
        <ele>1695.23</ele>
        <time>2026-08-30T12:06:15.400Z</time>
      </trkpt>
      <trkpt lon="-103.613483" lat="43.732934">
        <ele>1695.36</ele>
        <time>2026-08-30T12:06:18.372Z</time>
      </trkpt>
      <trkpt lon="-103.613592" lat="43.732960">
        <ele>1695.58</ele>
        <time>2026-08-30T12:06:21.924Z</time>
      </trkpt>
      <trkpt lon="-103.613658" lat="43.732981">
        <ele>1695.68</ele>
        <time>2026-08-30T12:06:23.700Z</time>
      </trkpt>
      <trkpt lon="-103.613738" lat="43.733015">
        <ele>1695.85</ele>
        <time>2026-08-30T12:06:27.280Z</time>
      </trkpt>
      <trkpt lon="-103.613797" lat="43.733045">
        <ele>1695.99</ele>
        <time>2026-08-30T12:06:30.820Z</time>
      </trkpt>
      <trkpt lon="-103.613844" lat="43.733073">
        <ele>1695.97</ele>
        <time>2026-08-30T12:06:34.924Z</time>
      </trkpt>
      <trkpt lon="-103.613879" lat="43.733099">
        <ele>1696.06</ele>
        <time>2026-08-30T12:06:43.732Z</time>
      </trkpt>
      <trkpt lon="-103.613891" lat="43.733112">
        <ele>1696.12</ele>
        <time>2026-08-30T12:07:01.540Z</time>
      </trkpt>
      <trkpt lon="-103.613916" lat="43.733163">
        <ele>1696.18</ele>
        <time>2026-08-30T12:07:21.688Z</time>
      </trkpt>
      <trkpt lon="-103.613935" lat="43.733215">
        <ele>1696.14</ele>
        <time>2026-08-30T12:07:23.480Z</time>
      </trkpt>
      <trkpt lon="-103.613984" lat="43.733416">
        <ele>1696.11</ele>
        <time>2026-08-30T12:07:29.488Z</time>
      </trkpt>
      <trkpt lon="-103.614008" lat="43.733595">
        <ele>1696.09</ele>
        <time>2026-08-30T12:07:39.592Z</time>
      </trkpt>
      <trkpt lon="-103.614025" lat="43.733697">
        <ele>1695.99</ele>
        <time>2026-08-30T12:07:46.112Z</time>
      </trkpt>
      <trkpt lon="-103.614028" lat="43.733736">
        <ele>1696</ele>
        <time>2026-08-30T12:07:48.488Z</time>
      </trkpt>
      <trkpt lon="-103.614032" lat="43.733746">
        <ele>1696</ele>
        <time>2026-08-30T12:07:49.084Z</time>
      </trkpt>
      <trkpt lon="-103.614044" lat="43.733769">
        <ele>1696</ele>
        <time>2026-08-30T12:07:50.256Z</time>
      </trkpt>
      <trkpt lon="-103.614052" lat="43.733781">
        <ele>1696.01</ele>
        <time>2026-08-30T12:07:50.852Z</time>
      </trkpt>
      <trkpt lon="-103.614063" lat="43.733792">
        <ele>1696.02</ele>
        <time>2026-08-30T12:07:51.440Z</time>
      </trkpt>
      <trkpt lon="-103.614076" lat="43.733803">
        <ele>1696.03</ele>
        <time>2026-08-30T12:07:52.040Z</time>
      </trkpt>
      <trkpt lon="-103.614104" lat="43.733823">
        <ele>1696.02</ele>
        <time>2026-08-30T12:07:53.220Z</time>
      </trkpt>
      <trkpt lon="-103.614146" lat="43.733846">
        <ele>1696.06</ele>
        <time>2026-08-30T12:07:55.000Z</time>
      </trkpt>
      <trkpt lon="-103.614160" lat="43.733852">
        <ele>1696.08</ele>
        <time>2026-08-30T12:07:55.600Z</time>
      </trkpt>
      <trkpt lon="-103.614186" lat="43.733860">
        <ele>1696.11</ele>
        <time>2026-08-30T12:07:56.796Z</time>
      </trkpt>
      <trkpt lon="-103.614211" lat="43.733865">
        <ele>1696.15</ele>
        <time>2026-08-30T12:07:58.008Z</time>
      </trkpt>
      <trkpt lon="-103.614232" lat="43.733868">
        <ele>1696.18</ele>
        <time>2026-08-30T12:07:59.220Z</time>
      </trkpt>
      <trkpt lon="-103.614318" lat="43.733865">
        <ele>1696.43</ele>
        <time>2026-08-30T12:08:09.968Z</time>
      </trkpt>
      <trkpt lon="-103.614616" lat="43.733859">
        <ele>1697.13</ele>
        <time>2026-08-30T12:08:15.316Z</time>
      </trkpt>
      <trkpt lon="-103.615073" lat="43.733832">
        <ele>1697.9</ele>
        <time>2026-08-30T12:08:18.920Z</time>
      </trkpt>
      <trkpt lon="-103.615697" lat="43.733774">
        <ele>1703.97</ele>
        <time>2026-08-30T12:08:22.496Z</time>
      </trkpt>
      <trkpt lon="-103.616637" lat="43.733703">
        <ele>1710.15</ele>
        <time>2026-08-30T12:08:27.188Z</time>
      </trkpt>
      <trkpt lon="-103.617310" lat="43.733673">
        <ele>1712.24</ele>
        <time>2026-08-30T12:08:30.152Z</time>
      </trkpt>
      <trkpt lon="-103.620668" lat="43.733641">
        <ele>1729.02</ele>
        <time>2026-08-30T12:08:42.648Z</time>
      </trkpt>
      <trkpt lon="-103.621981" lat="43.733766">
        <ele>1747.13</ele>
        <time>2026-08-30T12:08:47.376Z</time>
      </trkpt>
      <trkpt lon="-103.622311" lat="43.733851">
        <ele>1751.7</ele>
        <time>2026-08-30T12:08:48.568Z</time>
      </trkpt>
      <trkpt lon="-103.622475" lat="43.733900">
        <ele>1753.93</ele>
        <time>2026-08-30T12:08:49.164Z</time>
      </trkpt>
      <trkpt lon="-103.622801" lat="43.734010">
        <ele>1758.47</ele>
        <time>2026-08-30T12:08:50.348Z</time>
      </trkpt>
      <trkpt lon="-103.623541" lat="43.734379">
        <ele>1770.06</ele>
        <time>2026-08-30T12:08:53.276Z</time>
      </trkpt>
      <trkpt lon="-103.623937" lat="43.734673">
        <ele>1775.99</ele>
        <time>2026-08-30T12:08:55.060Z</time>
      </trkpt>
      <trkpt lon="-103.624180" lat="43.734889">
        <ele>1779.79</ele>
        <time>2026-08-30T12:08:56.240Z</time>
      </trkpt>
      <trkpt lon="-103.624411" lat="43.735123">
        <ele>1784.07</ele>
        <time>2026-08-30T12:08:57.432Z</time>
      </trkpt>
      <trkpt lon="-103.624697" lat="43.735487">
        <ele>1791.78</ele>
        <time>2026-08-30T12:08:59.204Z</time>
      </trkpt>
      <trkpt lon="-103.625028" lat="43.736121">
        <ele>1805.16</ele>
        <time>2026-08-30T12:09:02.132Z</time>
      </trkpt>
      <trkpt lon="-103.625124" lat="43.736385">
        <ele>1810.5</ele>
        <time>2026-08-30T12:09:03.316Z</time>
      </trkpt>
      <trkpt lon="-103.625193" lat="43.736652">
        <ele>1815.78</ele>
        <time>2026-08-30T12:09:04.492Z</time>
      </trkpt>
      <trkpt lon="-103.625220" lat="43.737057">
        <ele>1823.55</ele>
        <time>2026-08-30T12:09:06.252Z</time>
      </trkpt>
      <trkpt lon="-103.625129" lat="43.737454">
        <ele>1830.93</ele>
        <time>2026-08-30T12:09:08.020Z</time>
      </trkpt>
      <trkpt lon="-103.625012" lat="43.737713">
        <ele>1835.11</ele>
        <time>2026-08-30T12:09:09.200Z</time>
      </trkpt>
      <trkpt lon="-103.624861" lat="43.737965">
        <ele>1837.41</ele>
        <time>2026-08-30T12:09:10.356Z</time>
      </trkpt>
      <trkpt lon="-103.624666" lat="43.738225">
        <ele>1837.07</ele>
        <time>2026-08-30T12:09:11.532Z</time>
      </trkpt>
      <trkpt lon="-103.624414" lat="43.738489">
        <ele>1834.38</ele>
        <time>2026-08-30T12:09:12.716Z</time>
      </trkpt>
      <trkpt lon="-103.624110" lat="43.738749">
        <ele>1829.97</ele>
        <time>2026-08-30T12:09:13.888Z</time>
      </trkpt>
      <trkpt lon="-103.623141" lat="43.739415">
        <ele>1813.2</ele>
        <time>2026-08-30T12:09:16.832Z</time>
      </trkpt>
      <trkpt lon="-103.622155" lat="43.740009">
        <ele>1794.14</ele>
        <time>2026-08-30T12:09:19.224Z</time>
      </trkpt>
      <trkpt lon="-103.620774" lat="43.740787">
        <ele>1778.23</ele>
        <time>2026-08-30T12:09:22.148Z</time>
      </trkpt>
      <trkpt lon="-103.615567" lat="43.743451">
        <ele>1784.67</ele>
        <time>2026-08-30T12:09:32.708Z</time>
      </trkpt>
      <trkpt lon="-103.615057" lat="43.743824">
        <ele>1782.12</ele>
        <time>2026-08-30T12:09:33.864Z</time>
      </trkpt>
      <trkpt lon="-103.614341" lat="43.744450">
        <ele>1779.76</ele>
        <time>2026-08-30T12:09:35.640Z</time>
      </trkpt>
      <trkpt lon="-103.613725" lat="43.745123">
        <ele>1778.52</ele>
        <time>2026-08-30T12:09:37.384Z</time>
      </trkpt>
      <trkpt lon="-103.612995" lat="43.746101">
        <ele>1775.29</ele>
        <time>2026-08-30T12:09:39.736Z</time>
      </trkpt>
      <trkpt lon="-103.609138" lat="43.751835">
        <ele>1755.84</ele>
        <time>2026-08-30T12:09:52.804Z</time>
      </trkpt>
      <trkpt lon="-103.607257" lat="43.755039">
        <ele>1749.7</ele>
        <time>2026-08-30T12:09:59.912Z</time>
      </trkpt>
      <trkpt lon="-103.606608" lat="43.756676">
        <ele>1746.69</ele>
        <time>2026-08-30T12:10:03.440Z</time>
      </trkpt>
      <trkpt lon="-103.606312" lat="43.757821">
        <ele>1741.06</ele>
        <time>2026-08-30T12:10:05.804Z</time>
      </trkpt>
      <trkpt lon="-103.606155" lat="43.759826">
        <ele>1739.32</ele>
        <time>2026-08-30T12:10:09.924Z</time>
      </trkpt>
      <trkpt lon="-103.606304" lat="43.761415">
        <ele>1753</ele>
        <time>2026-08-30T12:10:13.460Z</time>
      </trkpt>
      <trkpt lon="-103.606515" lat="43.762384">
        <ele>1764.91</ele>
        <time>2026-08-30T12:10:15.804Z</time>
      </trkpt>
      <trkpt lon="-103.607000" lat="43.764174">
        <ele>1788.38</ele>
        <time>2026-08-30T12:10:20.444Z</time>
      </trkpt>
      <trkpt lon="-103.606999" lat="43.765219">
        <ele>1801.82</ele>
        <time>2026-08-30T12:10:23.336Z</time>
      </trkpt>
      <trkpt lon="-103.606795" lat="43.766929">
        <ele>1826.24</ele>
        <time>2026-08-30T12:10:28.540Z</time>
      </trkpt>
      <trkpt lon="-103.606797" lat="43.767393">
        <ele>1839.84</ele>
        <time>2026-08-30T12:10:30.264Z</time>
      </trkpt>
      <trkpt lon="-103.606841" lat="43.767690">
        <ele>1846.71</ele>
        <time>2026-08-30T12:10:31.420Z</time>
      </trkpt>
      <trkpt lon="-103.607020" lat="43.768286">
        <ele>1851.13</ele>
        <time>2026-08-30T12:10:33.760Z</time>
      </trkpt>
      <trkpt lon="-103.607193" lat="43.768936">
        <ele>1846.85</ele>
        <time>2026-08-30T12:10:36.100Z</time>
      </trkpt>
      <trkpt lon="-103.607220" lat="43.769111">
        <ele>1844.83</ele>
        <time>2026-08-30T12:10:36.696Z</time>
      </trkpt>
      <trkpt lon="-103.607272" lat="43.769471">
        <ele>1839.16</ele>
        <time>2026-08-30T12:10:37.864Z</time>
      </trkpt>
      <trkpt lon="-103.607409" lat="43.770058">
        <ele>1828.82</ele>
        <time>2026-08-30T12:10:39.620Z</time>
      </trkpt>
      <trkpt lon="-103.608024" lat="43.771313">
        <ele>1806.78</ele>
        <time>2026-08-30T12:10:43.188Z</time>
      </trkpt>
      <trkpt lon="-103.608304" lat="43.771757">
        <ele>1797.86</ele>
        <time>2026-08-30T12:10:44.380Z</time>
      </trkpt>
      <trkpt lon="-103.608983" lat="43.772672">
        <ele>1781.4</ele>
        <time>2026-08-30T12:10:46.756Z</time>
      </trkpt>
      <trkpt lon="-103.610296" lat="43.774068">
        <ele>1760.91</ele>
        <time>2026-08-30T12:10:50.364Z</time>
      </trkpt>
      <trkpt lon="-103.612154" lat="43.775865">
        <ele>1756.77</ele>
        <time>2026-08-30T12:10:55.120Z</time>
      </trkpt>
      <trkpt lon="-103.612892" lat="43.776497">
        <ele>1757.01</ele>
        <time>2026-08-30T12:10:56.904Z</time>
      </trkpt>
      <trkpt lon="-103.619502" lat="43.781882">
        <ele>1753.66</ele>
        <time>2026-08-30T12:11:12.420Z</time>
      </trkpt>
      <trkpt lon="-103.620691" lat="43.783247">
        <ele>1752.18</ele>
        <time>2026-08-30T12:11:15.984Z</time>
      </trkpt>
      <trkpt lon="-103.622640" lat="43.785911">
        <ele>1733.03</ele>
        <time>2026-08-30T12:11:22.496Z</time>
      </trkpt>
      <trkpt lon="-103.623913" lat="43.787692">
        <ele>1720.62</ele>
        <time>2026-08-30T12:11:26.620Z</time>
      </trkpt>
      <trkpt lon="-103.627232" lat="43.792906">
        <ele>1737</ele>
        <time>2026-08-30T12:11:39.088Z</time>
      </trkpt>
      <trkpt lon="-103.629343" lat="43.796148">
        <ele>1754.8</ele>
        <time>2026-08-30T12:11:47.444Z</time>
      </trkpt>
      <trkpt lon="-103.630389" lat="43.797412">
        <ele>1755.44</ele>
        <time>2026-08-30T12:11:51.016Z</time>
      </trkpt>
      <trkpt lon="-103.631317" lat="43.798369">
        <ele>1766.16</ele>
        <time>2026-08-30T12:11:53.976Z</time>
      </trkpt>
      <trkpt lon="-103.631922" lat="43.798835">
        <ele>1777.43</ele>
        <time>2026-08-30T12:11:55.752Z</time>
      </trkpt>
      <trkpt lon="-103.633013" lat="43.799528">
        <ele>1788.03</ele>
        <time>2026-08-30T12:11:58.704Z</time>
      </trkpt>
      <trkpt lon="-103.633942" lat="43.800038">
        <ele>1791.25</ele>
        <time>2026-08-30T12:12:01.048Z</time>
      </trkpt>
      <trkpt lon="-103.635141" lat="43.800591">
        <ele>1801.11</ele>
        <time>2026-08-30T12:12:03.992Z</time>
      </trkpt>
      <trkpt lon="-103.636255" lat="43.801027">
        <ele>1818.2</ele>
        <time>2026-08-30T12:12:06.916Z</time>
      </trkpt>
      <trkpt lon="-103.637092" lat="43.801421">
        <ele>1826.89</ele>
        <time>2026-08-30T12:12:09.288Z</time>
      </trkpt>
      <trkpt lon="-103.637470" lat="43.801652">
        <ele>1828.55</ele>
        <time>2026-08-30T12:12:10.448Z</time>
      </trkpt>
      <trkpt lon="-103.637843" lat="43.801906">
        <ele>1829.6</ele>
        <time>2026-08-30T12:12:11.636Z</time>
      </trkpt>
      <trkpt lon="-103.639085" lat="43.802897">
        <ele>1829.49</ele>
        <time>2026-08-30T12:12:15.732Z</time>
      </trkpt>
      <trkpt lon="-103.639578" lat="43.803370">
        <ele>1828.76</ele>
        <time>2026-08-30T12:12:17.472Z</time>
      </trkpt>
      <trkpt lon="-103.640334" lat="43.804234">
        <ele>1826.81</ele>
        <time>2026-08-30T12:12:20.384Z</time>
      </trkpt>
      <trkpt lon="-103.640600" lat="43.804616">
        <ele>1825.41</ele>
        <time>2026-08-30T12:12:21.568Z</time>
      </trkpt>
      <trkpt lon="-103.640984" lat="43.805441">
        <ele>1823.4</ele>
        <time>2026-08-30T12:12:23.940Z</time>
      </trkpt>
      <trkpt lon="-103.641109" lat="43.805871">
        <ele>1822</ele>
        <time>2026-08-30T12:12:25.120Z</time>
      </trkpt>
      <trkpt lon="-103.641312" lat="43.807017">
        <ele>1813.72</ele>
        <time>2026-08-30T12:12:28.084Z</time>
      </trkpt>
      <trkpt lon="-103.641333" lat="43.807492">
        <ele>1809.7</ele>
        <time>2026-08-30T12:12:29.252Z</time>
      </trkpt>
      <trkpt lon="-103.641309" lat="43.807976">
        <ele>1807.21</ele>
        <time>2026-08-30T12:12:30.432Z</time>
      </trkpt>
      <trkpt lon="-103.640485" lat="43.813478">
        <ele>1806.59</ele>
        <time>2026-08-30T12:12:44.076Z</time>
      </trkpt>
      <trkpt lon="-103.640348" lat="43.815759">
        <ele>1802.05</ele>
        <time>2026-08-30T12:12:49.400Z</time>
      </trkpt>
      <trkpt lon="-103.640008" lat="43.819414">
        <ele>1807.43</ele>
        <time>2026-08-30T12:12:58.228Z</time>
      </trkpt>
      <trkpt lon="-103.639949" lat="43.820708">
        <ele>1805.03</ele>
        <time>2026-08-30T12:13:01.336Z</time>
      </trkpt>
      <trkpt lon="-103.639885" lat="43.821891">
        <ele>1809.09</ele>
        <time>2026-08-30T12:13:04.312Z</time>
      </trkpt>
      <trkpt lon="-103.639989" lat="43.824015">
        <ele>1808.32</ele>
        <time>2026-08-30T12:13:09.632Z</time>
      </trkpt>
      <trkpt lon="-103.640038" lat="43.824682">
        <ele>1815.36</ele>
        <time>2026-08-30T12:13:11.412Z</time>
      </trkpt>
      <trkpt lon="-103.640063" lat="43.825106">
        <ele>1821.72</ele>
        <time>2026-08-30T12:13:12.584Z</time>
      </trkpt>
      <trkpt lon="-103.639766" lat="43.826202">
        <ele>1843.13</ele>
        <time>2026-08-30T12:13:16.108Z</time>
      </trkpt>
      <trkpt lon="-103.639659" lat="43.826361">
        <ele>1846.18</ele>
        <time>2026-08-30T12:13:16.708Z</time>
      </trkpt>
      <trkpt lon="-103.639541" lat="43.826508">
        <ele>1849.2</ele>
        <time>2026-08-30T12:13:17.300Z</time>
      </trkpt>
      <trkpt lon="-103.639269" lat="43.826780">
        <ele>1855.09</ele>
        <time>2026-08-30T12:13:18.500Z</time>
      </trkpt>
      <trkpt lon="-103.638967" lat="43.827011">
        <ele>1860.26</ele>
        <time>2026-08-30T12:13:19.668Z</time>
      </trkpt>
      <trkpt lon="-103.638629" lat="43.827210">
        <ele>1864.71</ele>
        <time>2026-08-30T12:13:20.860Z</time>
      </trkpt>
      <trkpt lon="-103.638269" lat="43.827376">
        <ele>1868.16</ele>
        <time>2026-08-30T12:13:22.040Z</time>
      </trkpt>
      <trkpt lon="-103.637887" lat="43.827519">
        <ele>1870.5</ele>
        <time>2026-08-30T12:13:23.220Z</time>
      </trkpt>
      <trkpt lon="-103.637284" lat="43.827710">
        <ele>1871.99</ele>
        <time>2026-08-30T12:13:24.980Z</time>
      </trkpt>
      <trkpt lon="-103.634436" lat="43.828605">
        <ele>1870.44</ele>
        <time>2026-08-30T12:13:32.688Z</time>
      </trkpt>
      <trkpt lon="-103.633782" lat="43.828842">
        <ele>1873.01</ele>
        <time>2026-08-30T12:13:34.456Z</time>
      </trkpt>
      <trkpt lon="-103.633360" lat="43.829011">
        <ele>1875.32</ele>
        <time>2026-08-30T12:13:35.640Z</time>
      </trkpt>
      <trkpt lon="-103.632745" lat="43.829258">
        <ele>1879.57</ele>
        <time>2026-08-30T12:13:37.392Z</time>
      </trkpt>
      <trkpt lon="-103.632328" lat="43.829410">
        <ele>1882.22</ele>
        <time>2026-08-30T12:13:38.580Z</time>
      </trkpt>
      <trkpt lon="-103.631328" lat="43.829772">
        <ele>1888.96</ele>
        <time>2026-08-30T12:13:41.488Z</time>
      </trkpt>
      <trkpt lon="-103.630578" lat="43.830116">
        <ele>1894.52</ele>
        <time>2026-08-30T12:13:43.860Z</time>
      </trkpt>
      <trkpt lon="-103.630223" lat="43.830306">
        <ele>1896.99</ele>
        <time>2026-08-30T12:13:45.040Z</time>
      </trkpt>
      <trkpt lon="-103.629569" lat="43.830725">
        <ele>1902.05</ele>
        <time>2026-08-30T12:13:47.416Z</time>
      </trkpt>
      <trkpt lon="-103.629149" lat="43.831084">
        <ele>1906.05</ele>
        <time>2026-08-30T12:13:49.200Z</time>
      </trkpt>
      <trkpt lon="-103.628794" lat="43.831469">
        <ele>1909.86</ele>
        <time>2026-08-30T12:13:50.988Z</time>
      </trkpt>
      <trkpt lon="-103.628485" lat="43.831866">
        <ele>1912.98</ele>
        <time>2026-08-30T12:13:52.752Z</time>
      </trkpt>
      <trkpt lon="-103.628149" lat="43.832426">
        <ele>1916.78</ele>
        <time>2026-08-30T12:13:55.104Z</time>
      </trkpt>
      <trkpt lon="-103.627977" lat="43.832873">
        <ele>1919.12</ele>
        <time>2026-08-30T12:13:56.884Z</time>
      </trkpt>
      <trkpt lon="-103.627898" lat="43.833182">
        <ele>1920.31</ele>
        <time>2026-08-30T12:13:58.068Z</time>
      </trkpt>
      <trkpt lon="-103.627832" lat="43.833659">
        <ele>1921.45</ele>
        <time>2026-08-30T12:13:59.844Z</time>
      </trkpt>
      <trkpt lon="-103.627892" lat="43.836702">
        <ele>1941.58</ele>
        <time>2026-08-30T12:14:11.024Z</time>
      </trkpt>
      <trkpt lon="-103.627788" lat="43.837248">
        <ele>1950.56</ele>
        <time>2026-08-30T12:14:13.380Z</time>
      </trkpt>
      <trkpt lon="-103.627676" lat="43.837505">
        <ele>1954.94</ele>
        <time>2026-08-30T12:14:14.596Z</time>
      </trkpt>
      <trkpt lon="-103.627532" lat="43.837731">
        <ele>1959.41</ele>
        <time>2026-08-30T12:14:15.784Z</time>
      </trkpt>
      <trkpt lon="-103.627199" lat="43.838124">
        <ele>1966.94</ele>
        <time>2026-08-30T12:14:18.148Z</time>
      </trkpt>
      <trkpt lon="-103.627138" lat="43.838228">
        <ele>1967.71</ele>
        <time>2026-08-30T12:14:18.740Z</time>
      </trkpt>
      <trkpt lon="-103.627100" lat="43.838337">
        <ele>1967.88</ele>
        <time>2026-08-30T12:14:19.324Z</time>
      </trkpt>
      <trkpt lon="-103.627090" lat="43.838454">
        <ele>1967.28</ele>
        <time>2026-08-30T12:14:19.916Z</time>
      </trkpt>
      <trkpt lon="-103.627112" lat="43.838574">
        <ele>1965.66</ele>
        <time>2026-08-30T12:14:20.520Z</time>
      </trkpt>
      <trkpt lon="-103.627167" lat="43.838691">
        <ele>1963.02</ele>
        <time>2026-08-30T12:14:21.104Z</time>
      </trkpt>
      <trkpt lon="-103.627253" lat="43.838804">
        <ele>1959.3</ele>
        <time>2026-08-30T12:14:21.696Z</time>
      </trkpt>
      <trkpt lon="-103.627368" lat="43.838908">
        <ele>1954.77</ele>
        <time>2026-08-30T12:14:22.292Z</time>
      </trkpt>
      <trkpt lon="-103.627515" lat="43.839002">
        <ele>1949.65</ele>
        <time>2026-08-30T12:14:22.900Z</time>
      </trkpt>
      <trkpt lon="-103.627687" lat="43.839083">
        <ele>1944.38</ele>
        <time>2026-08-30T12:14:23.504Z</time>
      </trkpt>
      <trkpt lon="-103.627874" lat="43.839143">
        <ele>1939.42</ele>
        <time>2026-08-30T12:14:24.084Z</time>
      </trkpt>
      <trkpt lon="-103.628076" lat="43.839181">
        <ele>1934.91</ele>
        <time>2026-08-30T12:14:24.672Z</time>
      </trkpt>
      <trkpt lon="-103.628291" lat="43.839194">
        <ele>1930.92</ele>
        <time>2026-08-30T12:14:25.272Z</time>
      </trkpt>
      <trkpt lon="-103.628509" lat="43.839180">
        <ele>1927.42</ele>
        <time>2026-08-30T12:14:25.876Z</time>
      </trkpt>
      <trkpt lon="-103.628722" lat="43.839138">
        <ele>1924.43</ele>
        <time>2026-08-30T12:14:26.472Z</time>
      </trkpt>
      <trkpt lon="-103.628925" lat="43.839071">
        <ele>1921.85</ele>
        <time>2026-08-30T12:14:27.084Z</time>
      </trkpt>
      <trkpt lon="-103.629114" lat="43.838984">
        <ele>1919.7</ele>
        <time>2026-08-30T12:14:27.680Z</time>
      </trkpt>
      <trkpt lon="-103.629284" lat="43.838882">
        <ele>1918.03</ele>
        <time>2026-08-30T12:14:28.268Z</time>
      </trkpt>
      <trkpt lon="-103.629442" lat="43.838766">
        <ele>1916.81</ele>
        <time>2026-08-30T12:14:28.864Z</time>
      </trkpt>
      <trkpt lon="-103.629586" lat="43.838639">
        <ele>1915.99</ele>
        <time>2026-08-30T12:14:29.460Z</time>
      </trkpt>
      <trkpt lon="-103.629711" lat="43.838508">
        <ele>1915.61</ele>
        <time>2026-08-30T12:14:30.044Z</time>
      </trkpt>
      <trkpt lon="-103.630192" lat="43.837605">
        <ele>1913.8</ele>
        <time>2026-08-30T12:14:33.564Z</time>
      </trkpt>
      <trkpt lon="-103.630241" lat="43.837440">
        <ele>1913.56</ele>
        <time>2026-08-30T12:14:34.160Z</time>
      </trkpt>
      <trkpt lon="-103.630282" lat="43.837268">
        <ele>1913.57</ele>
        <time>2026-08-30T12:14:34.768Z</time>
      </trkpt>
      <trkpt lon="-103.630310" lat="43.837097">
        <ele>1913.87</ele>
        <time>2026-08-30T12:14:35.364Z</time>
      </trkpt>
      <trkpt lon="-103.630310" lat="43.836767">
        <ele>1915.58</ele>
        <time>2026-08-30T12:14:36.556Z</time>
      </trkpt>
      <trkpt lon="-103.630225" lat="43.836470">
        <ele>1917.82</ele>
        <time>2026-08-30T12:14:37.708Z</time>
      </trkpt>
      <trkpt lon="-103.630056" lat="43.836192">
        <ele>1919.14</ele>
        <time>2026-08-30T12:14:38.888Z</time>
      </trkpt>
      <trkpt lon="-103.629943" lat="43.836061">
        <ele>1919.48</ele>
        <time>2026-08-30T12:14:39.480Z</time>
      </trkpt>
      <trkpt lon="-103.629812" lat="43.835934">
        <ele>1919.55</ele>
        <time>2026-08-30T12:14:40.084Z</time>
      </trkpt>
      <trkpt lon="-103.629669" lat="43.835816">
        <ele>1919.39</ele>
        <time>2026-08-30T12:14:40.680Z</time>
      </trkpt>
      <trkpt lon="-103.629346" lat="43.835596">
        <ele>1918.21</ele>
        <time>2026-08-30T12:14:41.876Z</time>
      </trkpt>
      <trkpt lon="-103.628978" lat="43.835401">
        <ele>1916.64</ele>
        <time>2026-08-30T12:14:43.072Z</time>
      </trkpt>
      <trkpt lon="-103.628568" lat="43.835236">
        <ele>1915.52</ele>
        <time>2026-08-30T12:14:44.264Z</time>
      </trkpt>
      <trkpt lon="-103.627911" lat="43.835040">
        <ele>1913.58</ele>
        <time>2026-08-30T12:14:46.064Z</time>
      </trkpt>
      <trkpt lon="-103.626157" lat="43.834653">
        <ele>1916.71</ele>
        <time>2026-08-30T12:14:50.820Z</time>
      </trkpt>
      <trkpt lon="-103.625620" lat="43.834565">
        <ele>1919.83</ele>
        <time>2026-08-30T12:14:52.596Z</time>
      </trkpt>
      <trkpt lon="-103.625013" lat="43.834498">
        <ele>1922.91</ele>
        <time>2026-08-30T12:14:54.976Z</time>
      </trkpt>
      <trkpt lon="-103.624762" lat="43.834487">
        <ele>1924.37</ele>
        <time>2026-08-30T12:14:56.156Z</time>
      </trkpt>
      <trkpt lon="-103.624541" lat="43.834489">
        <ele>1925.01</ele>
        <time>2026-08-30T12:14:57.324Z</time>
      </trkpt>
      <trkpt lon="-103.624337" lat="43.834503">
        <ele>1926.4</ele>
        <time>2026-08-30T12:14:58.508Z</time>
      </trkpt>
      <trkpt lon="-103.624141" lat="43.834531">
        <ele>1927.96</ele>
        <time>2026-08-30T12:14:59.700Z</time>
      </trkpt>
      <trkpt lon="-103.623544" lat="43.834653">
        <ele>1929.12</ele>
        <time>2026-08-30T12:15:03.228Z</time>
      </trkpt>
      <trkpt lon="-103.623257" lat="43.834739">
        <ele>1929.57</ele>
        <time>2026-08-30T12:15:04.988Z</time>
      </trkpt>
      <trkpt lon="-103.623089" lat="43.834803">
        <ele>1930.24</ele>
        <time>2026-08-30T12:15:06.160Z</time>
      </trkpt>
      <trkpt lon="-103.622938" lat="43.834872">
        <ele>1931.1</ele>
        <time>2026-08-30T12:15:07.340Z</time>
      </trkpt>
      <trkpt lon="-103.622579" lat="43.835095">
        <ele>1929.11</ele>
        <time>2026-08-30T12:15:10.856Z</time>
      </trkpt>
      <trkpt lon="-103.622524" lat="43.835133">
        <ele>1928.55</ele>
        <time>2026-08-30T12:15:11.448Z</time>
      </trkpt>
      <trkpt lon="-103.622474" lat="43.835171">
        <ele>1928.12</ele>
        <time>2026-08-30T12:15:12.032Z</time>
      </trkpt>
      <trkpt lon="-103.622428" lat="43.835208">
        <ele>1927.81</ele>
        <time>2026-08-30T12:15:12.620Z</time>
      </trkpt>
      <trkpt lon="-103.622349" lat="43.835283">
        <ele>1927.32</ele>
        <time>2026-08-30T12:15:13.800Z</time>
      </trkpt>
      <trkpt lon="-103.622274" lat="43.835357">
        <ele>1926.74</ele>
        <time>2026-08-30T12:15:14.988Z</time>
      </trkpt>
      <trkpt lon="-103.622199" lat="43.835433">
        <ele>1925.74</ele>
        <time>2026-08-30T12:15:16.168Z</time>
      </trkpt>
      <trkpt lon="-103.622161" lat="43.835471">
        <ele>1925.09</ele>
        <time>2026-08-30T12:15:16.760Z</time>
      </trkpt>
      <trkpt lon="-103.622122" lat="43.835509">
        <ele>1924.28</ele>
        <time>2026-08-30T12:15:17.360Z</time>
      </trkpt>
      <trkpt lon="-103.622083" lat="43.835546">
        <ele>1923.27</ele>
        <time>2026-08-30T12:15:17.944Z</time>
      </trkpt>
      <trkpt lon="-103.622043" lat="43.835583">
        <ele>1922.13</ele>
        <time>2026-08-30T12:15:18.540Z</time>
      </trkpt>
      <trkpt lon="-103.622002" lat="43.835618">
        <ele>1920.82</ele>
        <time>2026-08-30T12:15:19.132Z</time>
      </trkpt>
      <trkpt lon="-103.621961" lat="43.835649">
        <ele>1919.36</ele>
        <time>2026-08-30T12:15:19.712Z</time>
      </trkpt>
      <trkpt lon="-103.621919" lat="43.835675">
        <ele>1917.58</ele>
        <time>2026-08-30T12:15:20.300Z</time>
      </trkpt>
      <trkpt lon="-103.621878" lat="43.835697">
        <ele>1915.31</ele>
        <time>2026-08-30T12:15:20.884Z</time>
      </trkpt>
      <trkpt lon="-103.621832" lat="43.835717">
        <ele>1912.5</ele>
        <time>2026-08-30T12:15:21.492Z</time>
      </trkpt>
      <trkpt lon="-103.621785" lat="43.835735">
        <ele>1909.47</ele>
        <time>2026-08-30T12:15:22.084Z</time>
      </trkpt>
      <trkpt lon="-103.621739" lat="43.835754">
        <ele>1906.28</ele>
        <time>2026-08-30T12:15:22.684Z</time>
      </trkpt>
      <trkpt lon="-103.621700" lat="43.835773">
        <ele>1902.78</ele>
        <time>2026-08-30T12:15:23.264Z</time>
      </trkpt>
      <trkpt lon="-103.621673" lat="43.835791">
        <ele>1898.8</ele>
        <time>2026-08-30T12:15:23.868Z</time>
      </trkpt>
      <trkpt lon="-103.621662" lat="43.835804">
        <ele>1894.2</ele>
        <time>2026-08-30T12:15:24.448Z</time>
      </trkpt>
      <trkpt lon="-103.621662" lat="43.835805">
        <ele>2093.53</ele>
        <time>2026-08-30T12:15:25.032Z</time>
      </trkpt>
      <trkpt lon="-103.621660" lat="43.835790">
        <ele>2092.39</ele>
        <time>2026-08-30T12:15:26.760Z</time>
      </trkpt>
      <trkpt lon="-103.621657" lat="43.835769">
        <ele>2092.35</ele>
        <time>2026-08-30T12:15:27.340Z</time>
      </trkpt>
      <trkpt lon="-103.621651" lat="43.835739">
        <ele>2091.81</ele>
        <time>2026-08-30T12:15:27.916Z</time>
      </trkpt>
      <trkpt lon="-103.621640" lat="43.835698">
        <ele>2090.8</ele>
        <time>2026-08-30T12:15:28.492Z</time>
      </trkpt>
      <trkpt lon="-103.621621" lat="43.835648">
        <ele>2089.27</ele>
        <time>2026-08-30T12:15:29.076Z</time>
      </trkpt>
      <trkpt lon="-103.621550" lat="43.835526">
        <ele>2084.65</ele>
        <time>2026-08-30T12:15:30.248Z</time>
      </trkpt>
      <trkpt lon="-103.621500" lat="43.835458">
        <ele>2081.54</ele>
        <time>2026-08-30T12:15:30.840Z</time>
      </trkpt>
      <trkpt lon="-103.621444" lat="43.835385">
        <ele>2078.23</ele>
        <time>2026-08-30T12:15:31.420Z</time>
      </trkpt>
      <trkpt lon="-103.621388" lat="43.835309">
        <ele>2075.18</ele>
        <time>2026-08-30T12:15:31.996Z</time>
      </trkpt>
      <trkpt lon="-103.621335" lat="43.835230">
        <ele>2072.6</ele>
        <time>2026-08-30T12:15:32.580Z</time>
      </trkpt>
      <trkpt lon="-103.621212" lat="43.835005">
        <ele>2066.97</ele>
        <time>2026-08-30T12:15:34.308Z</time>
      </trkpt>
      <trkpt lon="-103.621162" lat="43.834866">
        <ele>2063.92</ele>
        <time>2026-08-30T12:15:35.464Z</time>
      </trkpt>
      <trkpt lon="-103.621146" lat="43.834802">
        <ele>2062.37</ele>
        <time>2026-08-30T12:15:36.032Z</time>
      </trkpt>
      <trkpt lon="-103.621133" lat="43.834738">
        <ele>2060.58</ele>
        <time>2026-08-30T12:15:36.608Z</time>
      </trkpt>
      <trkpt lon="-103.621128" lat="43.834681">
        <ele>2058.89</ele>
        <time>2026-08-30T12:15:37.188Z</time>
      </trkpt>
      <trkpt lon="-103.621131" lat="43.834632">
        <ele>2057.5</ele>
        <time>2026-08-30T12:15:37.764Z</time>
      </trkpt>
      <trkpt lon="-103.621152" lat="43.834562">
        <ele>2053.94</ele>
        <time>2026-08-30T12:15:38.920Z</time>
      </trkpt>
      <trkpt lon="-103.621181" lat="43.834521">
        <ele>2047.9</ele>
        <time>2026-08-30T12:15:40.100Z</time>
      </trkpt>
      <trkpt lon="-103.621192" lat="43.834505">
        <ele>2042.42</ele>
        <time>2026-08-30T12:15:40.676Z</time>
      </trkpt>
      <trkpt lon="-103.621201" lat="43.834491">
        <ele>2035.44</ele>
        <time>2026-08-30T12:15:41.252Z</time>
      </trkpt>
      <trkpt lon="-103.621205" lat="43.834479">
        <ele>2027.63</ele>
        <time>2026-08-30T12:15:41.832Z</time>
      </trkpt>
      <trkpt lon="-103.621207" lat="43.834471">
        <ele>2019.89</ele>
        <time>2026-08-30T12:15:42.412Z</time>
      </trkpt>
      <trkpt lon="-103.621211" lat="43.834470">
        <ele>2012.71</ele>
        <time>2026-08-30T12:15:42.988Z</time>
      </trkpt>
      <trkpt lon="-103.621253" lat="43.834517">
        <ele>1994.71</ele>
        <time>2026-08-30T12:15:44.724Z</time>
      </trkpt>
      <trkpt lon="-103.621314" lat="43.834580">
        <ele>1983.11</ele>
        <time>2026-08-30T12:15:45.876Z</time>
      </trkpt>
      <trkpt lon="-103.621442" lat="43.834692">
        <ele>1965.5</ele>
        <time>2026-08-30T12:15:47.608Z</time>
      </trkpt>
      <trkpt lon="-103.621548" lat="43.834788">
        <ele>1953.73</ele>
        <time>2026-08-30T12:15:48.772Z</time>
      </trkpt>
      <trkpt lon="-103.621653" lat="43.834911">
        <ele>1941.85</ele>
        <time>2026-08-30T12:15:49.936Z</time>
      </trkpt>
      <trkpt lon="-103.621700" lat="43.834980">
        <ele>1935.58</ele>
        <time>2026-08-30T12:15:50.532Z</time>
      </trkpt>
      <trkpt lon="-103.621740" lat="43.835052">
        <ele>1929.4</ele>
        <time>2026-08-30T12:15:51.128Z</time>
      </trkpt>
      <trkpt lon="-103.621767" lat="43.835126">
        <ele>1923.65</ele>
        <time>2026-08-30T12:15:51.716Z</time>
      </trkpt>
      <trkpt lon="-103.621779" lat="43.835198">
        <ele>1918.5</ele>
        <time>2026-08-30T12:15:52.288Z</time>
      </trkpt>
      <trkpt lon="-103.621698" lat="43.835418">
        <ele>1905.03</ele>
        <time>2026-08-30T12:15:54.068Z</time>
      </trkpt>
      <trkpt lon="-103.621368" lat="43.835679">
        <ele>1890.56</ele>
        <time>2026-08-30T12:15:56.424Z</time>
      </trkpt>
      <trkpt lon="-103.621067" lat="43.835825">
        <ele>1884.72</ele>
        <time>2026-08-30T12:15:58.200Z</time>
      </trkpt>
      <trkpt lon="-103.620888" lat="43.835917">
        <ele>1883.54</ele>
        <time>2026-08-30T12:15:59.384Z</time>
      </trkpt>
      <trkpt lon="-103.620736" lat="43.836012">
        <ele>1883.54</ele>
        <time>2026-08-30T12:16:00.576Z</time>
      </trkpt>
      <trkpt lon="-103.620396" lat="43.836237">
        <ele>1883.91</ele>
        <time>2026-08-30T12:16:04.124Z</time>
      </trkpt>
      <trkpt lon="-103.620154" lat="43.836477">
        <ele>1871.78</ele>
        <time>2026-08-30T12:16:10.068Z</time>
      </trkpt>
      <trkpt lon="-103.620096" lat="43.836482">
        <ele>1871.55</ele>
        <time>2026-08-30T12:16:11.260Z</time>
      </trkpt>
      <trkpt lon="-103.620054" lat="43.836475">
        <ele>1870.94</ele>
        <time>2026-08-30T12:16:11.872Z</time>
      </trkpt>
      <trkpt lon="-103.620014" lat="43.836466">
        <ele>1870.15</ele>
        <time>2026-08-30T12:16:12.480Z</time>
      </trkpt>
      <trkpt lon="-103.619990" lat="43.836462">
        <ele>1869.95</ele>
        <time>2026-08-30T12:16:13.080Z</time>
      </trkpt>
      <trkpt lon="-103.619980" lat="43.836462">
        <ele>1870.37</ele>
        <time>2026-08-30T12:16:13.692Z</time>
      </trkpt>
      <trkpt lon="-103.620150" lat="43.836478">
        <ele>1871.48</ele>
        <time>2026-08-30T12:16:14.888Z</time>
      </trkpt>
      <trkpt lon="-103.620131" lat="43.836503">
        <ele>1875.02</ele>
        <time>2026-08-30T12:16:16.652Z</time>
      </trkpt>
      <trkpt lon="-103.620109" lat="43.836542">
        <ele>1876.45</ele>
        <time>2026-08-30T12:16:17.860Z</time>
      </trkpt>
      <trkpt lon="-103.620093" lat="43.836581">
        <ele>1877.26</ele>
        <time>2026-08-30T12:16:19.024Z</time>
      </trkpt>
      <trkpt lon="-103.620080" lat="43.836605">
        <ele>1880.01</ele>
        <time>2026-08-30T12:16:20.804Z</time>
      </trkpt>
      <trkpt lon="-103.620068" lat="43.836610">
        <ele>1879.78</ele>
        <time>2026-08-30T12:16:21.392Z</time>
      </trkpt>
      <trkpt lon="-103.620048" lat="43.836612">
        <ele>1878.96</ele>
        <time>2026-08-30T12:16:21.972Z</time>
      </trkpt>
      <trkpt lon="-103.620019" lat="43.836611">
        <ele>1877.76</ele>
        <time>2026-08-30T12:16:22.556Z</time>
      </trkpt>
      <trkpt lon="-103.619992" lat="43.836614">
        <ele>1876.57</ele>
        <time>2026-08-30T12:16:23.160Z</time>
      </trkpt>
      <trkpt lon="-103.619965" lat="43.836633">
        <ele>1873.16</ele>
        <time>2026-08-30T12:16:24.372Z</time>
      </trkpt>
      <trkpt lon="-103.619963" lat="43.836610">
        <ele>1872.47</ele>
        <time>2026-08-30T12:16:26.180Z</time>
      </trkpt>
      <trkpt lon="-103.619948" lat="43.836605">
        <ele>1872.7</ele>
        <time>2026-08-30T12:16:47.660Z</time>
      </trkpt>
      <trkpt lon="-103.619938" lat="43.836619">
        <ele>1873.33</ele>
        <time>2026-08-30T12:16:52.460Z</time>
      </trkpt>
      <trkpt lon="-103.619940" lat="43.836606">
        <ele>1872.5</ele>
        <time>2026-08-30T12:16:57.852Z</time>
      </trkpt>
      <trkpt lon="-103.619945" lat="43.836596">
        <ele>1875.19</ele>
        <time>2026-08-30T12:17:51.336Z</time>
      </trkpt>
      <trkpt lon="-103.619945" lat="43.836586">
        <ele>1876.71</ele>
        <time>2026-08-30T12:17:56.160Z</time>
      </trkpt>
      <trkpt lon="-103.619978" lat="43.836548">
        <ele>1877.63</ele>
        <time>2026-08-30T12:17:57.376Z</time>
      </trkpt>
      <trkpt lon="-103.620003" lat="43.836521">
        <ele>1877.61</ele>
        <time>2026-08-30T12:17:57.972Z</time>
      </trkpt>
      <trkpt lon="-103.620029" lat="43.836491">
        <ele>1877.34</ele>
        <time>2026-08-30T12:17:58.584Z</time>
      </trkpt>
      <trkpt lon="-103.620052" lat="43.836457">
        <ele>1876.91</ele>
        <time>2026-08-30T12:17:59.172Z</time>
      </trkpt>
      <trkpt lon="-103.620068" lat="43.836419">
        <ele>1876.26</ele>
        <time>2026-08-30T12:17:59.780Z</time>
      </trkpt>
      <trkpt lon="-103.620076" lat="43.836380">
        <ele>1875.47</ele>
        <time>2026-08-30T12:18:00.380Z</time>
      </trkpt>
      <trkpt lon="-103.620076" lat="43.836341">
        <ele>1874.72</ele>
        <time>2026-08-30T12:18:00.972Z</time>
      </trkpt>
      <trkpt lon="-103.620069" lat="43.836301">
        <ele>1873.95</ele>
        <time>2026-08-30T12:18:01.568Z</time>
      </trkpt>
      <trkpt lon="-103.619884" lat="43.836115">
        <ele>1865.82</ele>
        <time>2026-08-30T12:18:05.140Z</time>
      </trkpt>
      <trkpt lon="-103.619791" lat="43.836026">
        <ele>1864.17</ele>
        <time>2026-08-30T12:18:07.572Z</time>
      </trkpt>
      <trkpt lon="-103.619697" lat="43.835964">
        <ele>1865.11</ele>
        <time>2026-08-30T12:18:08.764Z</time>
      </trkpt>
      <trkpt lon="-103.619644" lat="43.835936">
        <ele>1864.67</ele>
        <time>2026-08-30T12:18:09.372Z</time>
      </trkpt>
      <trkpt lon="-103.619583" lat="43.835912">
        <ele>1863.6</ele>
        <time>2026-08-30T12:18:09.968Z</time>
      </trkpt>
      <trkpt lon="-103.619518" lat="43.835894">
        <ele>1862.14</ele>
        <time>2026-08-30T12:18:10.568Z</time>
      </trkpt>
      <trkpt lon="-103.619466" lat="43.835887">
        <ele>1861.13</ele>
        <time>2026-08-30T12:18:11.156Z</time>
      </trkpt>
      <trkpt lon="-103.619456" lat="43.835900">
        <ele>1861.09</ele>
        <time>2026-08-30T12:18:14.720Z</time>
      </trkpt>
      <trkpt lon="-103.619444" lat="43.835904">
        <ele>1860.94</ele>
        <time>2026-08-30T12:18:15.300Z</time>
      </trkpt>
      <trkpt lon="-103.619433" lat="43.835908">
        <ele>1860.73</ele>
        <time>2026-08-30T12:18:15.884Z</time>
      </trkpt>
      <trkpt lon="-103.619337" lat="43.835896">
        <ele>1858.99</ele>
        <time>2026-08-30T12:18:17.696Z</time>
      </trkpt>
      <trkpt lon="-103.619144" lat="43.835871">
        <ele>1857.31</ele>
        <time>2026-08-30T12:18:19.488Z</time>
      </trkpt>
      <trkpt lon="-103.619083" lat="43.835871">
        <ele>1857.86</ele>
        <time>2026-08-30T12:18:20.096Z</time>
      </trkpt>
      <trkpt lon="-103.619045" lat="43.835874">
        <ele>1858.44</ele>
        <time>2026-08-30T12:18:20.684Z</time>
      </trkpt>
      <trkpt lon="-103.619026" lat="43.835879">
        <ele>1858.2</ele>
        <time>2026-08-30T12:18:21.272Z</time>
      </trkpt>
      <trkpt lon="-103.619030" lat="43.835855">
        <ele>1858.18</ele>
        <time>2026-08-30T12:18:27.244Z</time>
      </trkpt>
      <trkpt lon="-103.619016" lat="43.835859">
        <ele>1858.26</ele>
        <time>2026-08-30T12:18:28.444Z</time>
      </trkpt>
      <trkpt lon="-103.619021" lat="43.835878">
        <ele>1858.34</ele>
        <time>2026-08-30T12:19:49.640Z</time>
      </trkpt>
      <trkpt lon="-103.619041" lat="43.835957">
        <ele>1859.76</ele>
        <time>2026-08-30T12:19:53.836Z</time>
      </trkpt>
      <trkpt lon="-103.619122" lat="43.836138">
        <ele>1862.06</ele>
        <time>2026-08-30T12:19:57.448Z</time>
      </trkpt>
      <trkpt lon="-103.619256" lat="43.836406">
        <ele>1867.16</ele>
        <time>2026-08-30T12:20:01.576Z</time>
      </trkpt>
      <trkpt lon="-103.619375" lat="43.836661">
        <ele>1874.1</ele>
        <time>2026-08-30T12:20:05.752Z</time>
      </trkpt>
      <trkpt lon="-103.619414" lat="43.836717">
        <ele>1875.82</ele>
        <time>2026-08-30T12:20:06.928Z</time>
      </trkpt>
      <trkpt lon="-103.619463" lat="43.836961">
        <ele>1879.69</ele>
        <time>2026-08-30T12:20:11.744Z</time>
      </trkpt>
      <trkpt lon="-103.619450" lat="43.837205">
        <ele>1882.43</ele>
        <time>2026-08-30T12:20:15.316Z</time>
      </trkpt>
      <trkpt lon="-103.619429" lat="43.837369">
        <ele>1884.04</ele>
        <time>2026-08-30T12:20:17.100Z</time>
      </trkpt>
      <trkpt lon="-103.619411" lat="43.837700">
        <ele>1888.76</ele>
        <time>2026-08-30T12:20:20.080Z</time>
      </trkpt>
      <trkpt lon="-103.619409" lat="43.837770">
        <ele>1889.98</ele>
        <time>2026-08-30T12:20:20.664Z</time>
      </trkpt>
      <trkpt lon="-103.619414" lat="43.837917">
        <ele>1892.64</ele>
        <time>2026-08-30T12:20:21.848Z</time>
      </trkpt>
      <trkpt lon="-103.619445" lat="43.838150">
        <ele>1896.89</ele>
        <time>2026-08-30T12:20:23.620Z</time>
      </trkpt>
      <trkpt lon="-103.619454" lat="43.838229">
        <ele>1898.45</ele>
        <time>2026-08-30T12:20:24.212Z</time>
      </trkpt>
      <trkpt lon="-103.619460" lat="43.838310">
        <ele>1900.13</ele>
        <time>2026-08-30T12:20:24.804Z</time>
      </trkpt>
      <trkpt lon="-103.619443" lat="43.838469">
        <ele>1903.7</ele>
        <time>2026-08-30T12:20:25.980Z</time>
      </trkpt>
      <trkpt lon="-103.619379" lat="43.838622">
        <ele>1907.33</ele>
        <time>2026-08-30T12:20:27.160Z</time>
      </trkpt>
      <trkpt lon="-103.619262" lat="43.838760">
        <ele>1910.63</ele>
        <time>2026-08-30T12:20:28.364Z</time>
      </trkpt>
      <trkpt lon="-103.619187" lat="43.838820">
        <ele>1912.01</ele>
        <time>2026-08-30T12:20:28.940Z</time>
      </trkpt>
      <trkpt lon="-103.619096" lat="43.838879">
        <ele>1913.31</ele>
        <time>2026-08-30T12:20:29.544Z</time>
      </trkpt>
      <trkpt lon="-103.618998" lat="43.838931">
        <ele>1914.42</ele>
        <time>2026-08-30T12:20:30.128Z</time>
      </trkpt>
      <trkpt lon="-103.618888" lat="43.838978">
        <ele>1915.41</ele>
        <time>2026-08-30T12:20:30.720Z</time>
      </trkpt>
      <trkpt lon="-103.618767" lat="43.839021">
        <ele>1916.3</ele>
        <time>2026-08-30T12:20:31.312Z</time>
      </trkpt>
      <trkpt lon="-103.618635" lat="43.839057">
        <ele>1917.1</ele>
        <time>2026-08-30T12:20:31.916Z</time>
      </trkpt>
      <trkpt lon="-103.618492" lat="43.839084">
        <ele>1917.87</ele>
        <time>2026-08-30T12:20:32.520Z</time>
      </trkpt>
      <trkpt lon="-103.618340" lat="43.839100">
        <ele>1918.62</ele>
        <time>2026-08-30T12:20:33.132Z</time>
      </trkpt>
      <trkpt lon="-103.618184" lat="43.839102">
        <ele>1919.38</ele>
        <time>2026-08-30T12:20:33.748Z</time>
      </trkpt>
      <trkpt lon="-103.618026" lat="43.839088">
        <ele>1920.12</ele>
        <time>2026-08-30T12:20:34.352Z</time>
      </trkpt>
      <trkpt lon="-103.617875" lat="43.839058">
        <ele>1920.8</ele>
        <time>2026-08-30T12:20:34.940Z</time>
      </trkpt>
      <trkpt lon="-103.617729" lat="43.839012">
        <ele>1921.39</ele>
        <time>2026-08-30T12:20:35.532Z</time>
      </trkpt>
      <trkpt lon="-103.617590" lat="43.838947">
        <ele>1921.84</ele>
        <time>2026-08-30T12:20:36.132Z</time>
      </trkpt>
      <trkpt lon="-103.617463" lat="43.838867">
        <ele>1922.02</ele>
        <time>2026-08-30T12:20:36.728Z</time>
      </trkpt>
      <trkpt lon="-103.617345" lat="43.838769">
        <ele>1921.88</ele>
        <time>2026-08-30T12:20:37.336Z</time>
      </trkpt>
      <trkpt lon="-103.617246" lat="43.838660">
        <ele>1921.46</ele>
        <time>2026-08-30T12:20:37.928Z</time>
      </trkpt>
      <trkpt lon="-103.617165" lat="43.838539">
        <ele>1920.81</ele>
        <time>2026-08-30T12:20:38.520Z</time>
      </trkpt>
      <trkpt lon="-103.617101" lat="43.838408">
        <ele>1920</ele>
        <time>2026-08-30T12:20:39.104Z</time>
      </trkpt>
      <trkpt lon="-103.617056" lat="43.838266">
        <ele>1919.08</ele>
        <time>2026-08-30T12:20:39.704Z</time>
      </trkpt>
      <trkpt lon="-103.617030" lat="43.838116">
        <ele>1918.12</ele>
        <time>2026-08-30T12:20:40.300Z</time>
      </trkpt>
      <trkpt lon="-103.617023" lat="43.837962">
        <ele>1917.19</ele>
        <time>2026-08-30T12:20:40.892Z</time>
      </trkpt>
      <trkpt lon="-103.617035" lat="43.837807">
        <ele>1916.4</ele>
        <time>2026-08-30T12:20:41.476Z</time>
      </trkpt>
      <trkpt lon="-103.617064" lat="43.837648">
        <ele>1915.81</ele>
        <time>2026-08-30T12:20:42.080Z</time>
      </trkpt>
      <trkpt lon="-103.617175" lat="43.837329">
        <ele>1915.38</ele>
        <time>2026-08-30T12:20:43.256Z</time>
      </trkpt>
      <trkpt lon="-103.617352" lat="43.837015">
        <ele>1916.11</ele>
        <time>2026-08-30T12:20:44.452Z</time>
      </trkpt>
      <trkpt lon="-103.617851" lat="43.836418">
        <ele>1918.72</ele>
        <time>2026-08-30T12:20:46.848Z</time>
      </trkpt>
      <trkpt lon="-103.618290" lat="43.835986">
        <ele>1921.03</ele>
        <time>2026-08-30T12:20:48.612Z</time>
      </trkpt>
      <trkpt lon="-103.618788" lat="43.835579">
        <ele>1925.95</ele>
        <time>2026-08-30T12:20:50.404Z</time>
      </trkpt>
      <trkpt lon="-103.619744" lat="43.834987">
        <ele>1933.12</ele>
        <time>2026-08-30T12:20:53.392Z</time>
      </trkpt>
      <trkpt lon="-103.620385" lat="43.834668">
        <ele>1933.55</ele>
        <time>2026-08-30T12:20:55.156Z</time>
      </trkpt>
      <trkpt lon="-103.621562" lat="43.834185">
        <ele>1932.96</ele>
        <time>2026-08-30T12:20:58.084Z</time>
      </trkpt>
      <trkpt lon="-103.622603" lat="43.833866">
        <ele>1934.45</ele>
        <time>2026-08-30T12:21:00.428Z</time>
      </trkpt>
      <trkpt lon="-103.623422" lat="43.833674">
        <ele>1936.39</ele>
        <time>2026-08-30T12:21:02.192Z</time>
      </trkpt>
      <trkpt lon="-103.624278" lat="43.833530">
        <ele>1938.26</ele>
        <time>2026-08-30T12:21:03.956Z</time>
      </trkpt>
      <trkpt lon="-103.625169" lat="43.833456">
        <ele>1941.3</ele>
        <time>2026-08-30T12:21:05.748Z</time>
      </trkpt>
      <trkpt lon="-103.626334" lat="43.833486">
        <ele>1945.25</ele>
        <time>2026-08-30T12:21:08.084Z</time>
      </trkpt>
      <trkpt lon="-103.626925" lat="43.833556">
        <ele>1944.88</ele>
        <time>2026-08-30T12:21:09.252Z</time>
      </trkpt>
      <trkpt lon="-103.627513" lat="43.833678">
        <ele>1943.9</ele>
        <time>2026-08-30T12:21:10.432Z</time>
      </trkpt>
      <trkpt lon="-103.628070" lat="43.833854">
        <ele>1942.9</ele>
        <time>2026-08-30T12:21:11.600Z</time>
      </trkpt>
      <trkpt lon="-103.628600" lat="43.834079">
        <ele>1941.58</ele>
        <time>2026-08-30T12:21:12.764Z</time>
      </trkpt>
      <trkpt lon="-103.629099" lat="43.834348">
        <ele>1940.14</ele>
        <time>2026-08-30T12:21:13.932Z</time>
      </trkpt>
      <trkpt lon="-103.629564" lat="43.834664">
        <ele>1938.47</ele>
        <time>2026-08-30T12:21:15.116Z</time>
      </trkpt>
      <trkpt lon="-103.629978" lat="43.835022">
        <ele>1936.36</ele>
        <time>2026-08-30T12:21:16.296Z</time>
      </trkpt>
      <trkpt lon="-103.630332" lat="43.835413">
        <ele>1933.76</ele>
        <time>2026-08-30T12:21:17.468Z</time>
      </trkpt>
      <trkpt lon="-103.630638" lat="43.835833">
        <ele>1930.34</ele>
        <time>2026-08-30T12:21:18.640Z</time>
      </trkpt>
      <trkpt lon="-103.630899" lat="43.836274">
        <ele>1926.78</ele>
        <time>2026-08-30T12:21:19.808Z</time>
      </trkpt>
      <trkpt lon="-103.631319" lat="43.837226">
        <ele>1917.65</ele>
        <time>2026-08-30T12:21:22.156Z</time>
      </trkpt>
      <trkpt lon="-103.631610" lat="43.838229">
        <ele>1909.71</ele>
        <time>2026-08-30T12:21:24.504Z</time>
      </trkpt>
      <trkpt lon="-103.631942" lat="43.840345">
        <ele>1892.13</ele>
        <time>2026-08-30T12:21:29.160Z</time>
      </trkpt>
      <trkpt lon="-103.632012" lat="43.842051">
        <ele>1871.69</ele>
        <time>2026-08-30T12:21:32.692Z</time>
      </trkpt>
      <trkpt lon="-103.631987" lat="43.843559">
        <ele>1848.76</ele>
        <time>2026-08-30T12:21:35.664Z</time>
      </trkpt>
      <trkpt lon="-103.631915" lat="43.844838">
        <ele>1825.55</ele>
        <time>2026-08-30T12:21:38.064Z</time>
      </trkpt>
      <trkpt lon="-103.631703" lat="43.846803">
        <ele>1805.37</ele>
        <time>2026-08-30T12:21:41.656Z</time>
      </trkpt>
      <trkpt lon="-103.630877" lat="43.851414">
        <ele>1809.56</ele>
        <time>2026-08-30T12:21:50.496Z</time>
      </trkpt>
      <trkpt lon="-103.629708" lat="43.854986">
        <ele>1819.75</ele>
        <time>2026-08-30T12:21:58.100Z</time>
      </trkpt>
      <trkpt lon="-103.627893" lat="43.859013">
        <ele>1797.11</ele>
        <time>2026-08-30T12:22:06.928Z</time>
      </trkpt>
      <trkpt lon="-103.626888" lat="43.860971">
        <ele>1774.88</ele>
        <time>2026-08-30T12:22:11.032Z</time>
      </trkpt>
      <trkpt lon="-103.625515" lat="43.863262">
        <ele>1753.54</ele>
        <time>2026-08-30T12:22:15.760Z</time>
      </trkpt>
      <trkpt lon="-103.624258" lat="43.864919">
        <ele>1740.48</ele>
        <time>2026-08-30T12:22:19.276Z</time>
      </trkpt>
      <trkpt lon="-103.620908" lat="43.868476">
        <ele>1742.03</ele>
        <time>2026-08-30T12:22:27.600Z</time>
      </trkpt>
      <trkpt lon="-103.617429" lat="43.872008">
        <ele>1748.32</ele>
        <time>2026-08-30T12:22:36.500Z</time>
      </trkpt>
      <trkpt lon="-103.614744" lat="43.875450">
        <ele>1739.05</ele>
        <time>2026-08-30T12:22:44.748Z</time>
      </trkpt>
      <trkpt lon="-103.611216" lat="43.880303">
        <ele>1730.16</ele>
        <time>2026-08-30T12:22:56.112Z</time>
      </trkpt>
      <trkpt lon="-103.609769" lat="43.881664">
        <ele>1730.56</ele>
        <time>2026-08-30T12:22:59.728Z</time>
      </trkpt>
      <trkpt lon="-103.608963" lat="43.882298">
        <ele>1729.49</ele>
        <time>2026-08-30T12:23:01.548Z</time>
      </trkpt>
      <trkpt lon="-103.607513" lat="43.883226">
        <ele>1725.37</ele>
        <time>2026-08-30T12:23:04.484Z</time>
      </trkpt>
      <trkpt lon="-103.606546" lat="43.883719">
        <ele>1722.38</ele>
        <time>2026-08-30T12:23:06.260Z</time>
      </trkpt>
      <trkpt lon="-103.605168" lat="43.884272">
        <ele>1719.2</ele>
        <time>2026-08-30T12:23:08.624Z</time>
      </trkpt>
      <trkpt lon="-103.603700" lat="43.884738">
        <ele>1713.3</ele>
        <time>2026-08-30T12:23:11.004Z</time>
      </trkpt>
      <trkpt lon="-103.600981" lat="43.885395">
        <ele>1700.77</ele>
        <time>2026-08-30T12:23:15.188Z</time>
      </trkpt>
      <trkpt lon="-103.596225" lat="43.886449">
        <ele>1681.19</ele>
        <time>2026-08-30T12:23:22.276Z</time>
      </trkpt>
      <trkpt lon="-103.594630" lat="43.886895">
        <ele>1671.39</ele>
        <time>2026-08-30T12:23:24.648Z</time>
      </trkpt>
      <trkpt lon="-103.593869" lat="43.887171">
        <ele>1667.77</ele>
        <time>2026-08-30T12:23:25.832Z</time>
      </trkpt>
      <trkpt lon="-103.593146" lat="43.887495">
        <ele>1666.09</ele>
        <time>2026-08-30T12:23:27.020Z</time>
      </trkpt>
      <trkpt lon="-103.592159" lat="43.888054">
        <ele>1666.09</ele>
        <time>2026-08-30T12:23:28.800Z</time>
      </trkpt>
      <trkpt lon="-103.591571" lat="43.888465">
        <ele>1667.22</ele>
        <time>2026-08-30T12:23:29.976Z</time>
      </trkpt>
      <trkpt lon="-103.590776" lat="43.889123">
        <ele>1669.47</ele>
        <time>2026-08-30T12:23:31.752Z</time>
      </trkpt>
      <trkpt lon="-103.586237" lat="43.893207">
        <ele>1690.79</ele>
        <time>2026-08-30T12:23:42.964Z</time>
      </trkpt>
      <trkpt lon="-103.584169" lat="43.894573">
        <ele>1706.04</ele>
        <time>2026-08-30T12:23:47.660Z</time>
      </trkpt>
      <trkpt lon="-103.582268" lat="43.895613">
        <ele>1719.48</ele>
        <time>2026-08-30T12:23:51.788Z</time>
      </trkpt>
      <trkpt lon="-103.581413" lat="43.895970">
        <ele>1724.1</ele>
        <time>2026-08-30T12:23:53.552Z</time>
      </trkpt>
      <trkpt lon="-103.580495" lat="43.896268">
        <ele>1727.84</ele>
        <time>2026-08-30T12:23:55.348Z</time>
      </trkpt>
      <trkpt lon="-103.579855" lat="43.896428">
        <ele>1729.7</ele>
        <time>2026-08-30T12:23:56.556Z</time>
      </trkpt>
      <trkpt lon="-103.579211" lat="43.896544">
        <ele>1731.87</ele>
        <time>2026-08-30T12:23:57.748Z</time>
      </trkpt>
      <trkpt lon="-103.578565" lat="43.896610">
        <ele>1734.61</ele>
        <time>2026-08-30T12:23:58.932Z</time>
      </trkpt>
      <trkpt lon="-103.577921" lat="43.896628">
        <ele>1737.51</ele>
        <time>2026-08-30T12:24:00.120Z</time>
      </trkpt>
      <trkpt lon="-103.577292" lat="43.896598">
        <ele>1739.92</ele>
        <time>2026-08-30T12:24:01.288Z</time>
      </trkpt>
      <trkpt lon="-103.576661" lat="43.896518">
        <ele>1742.18</ele>
        <time>2026-08-30T12:24:02.472Z</time>
      </trkpt>
      <trkpt lon="-103.576053" lat="43.896390">
        <ele>1744.2</ele>
        <time>2026-08-30T12:24:03.656Z</time>
      </trkpt>
      <trkpt lon="-103.575475" lat="43.896224">
        <ele>1745.56</ele>
        <time>2026-08-30T12:24:04.820Z</time>
      </trkpt>
      <trkpt lon="-103.574903" lat="43.896015">
        <ele>1746.1</ele>
        <time>2026-08-30T12:24:06.012Z</time>
      </trkpt>
      <trkpt lon="-103.574083" lat="43.895641">
        <ele>1744.75</ele>
        <time>2026-08-30T12:24:07.780Z</time>
      </trkpt>
      <trkpt lon="-103.573301" lat="43.895209">
        <ele>1741.6</ele>
        <time>2026-08-30T12:24:09.536Z</time>
      </trkpt>
      <trkpt lon="-103.570405" lat="43.893324">
        <ele>1722.3</ele>
        <time>2026-08-30T12:24:16.028Z</time>
      </trkpt>
      <trkpt lon="-103.568478" lat="43.892541">
        <ele>1719.7</ele>
        <time>2026-08-30T12:24:19.600Z</time>
      </trkpt>
      <trkpt lon="-103.568138" lat="43.892462">
        <ele>1719.9</ele>
        <time>2026-08-30T12:24:20.184Z</time>
      </trkpt>
      <trkpt lon="-103.567795" lat="43.892396">
        <ele>1720.24</ele>
        <time>2026-08-30T12:24:20.764Z</time>
      </trkpt>
      <trkpt lon="-103.567077" lat="43.892307">
        <ele>1721.54</ele>
        <time>2026-08-30T12:24:21.960Z</time>
      </trkpt>
      <trkpt lon="-103.566372" lat="43.892297">
        <ele>1723.26</ele>
        <time>2026-08-30T12:24:23.136Z</time>
      </trkpt>
      <trkpt lon="-103.565678" lat="43.892367">
        <ele>1724.15</ele>
        <time>2026-08-30T12:24:24.296Z</time>
      </trkpt>
      <trkpt lon="-103.564988" lat="43.892507">
        <ele>1723.07</ele>
        <time>2026-08-30T12:24:25.488Z</time>
      </trkpt>
      <trkpt lon="-103.564328" lat="43.892706">
        <ele>1720.37</ele>
        <time>2026-08-30T12:24:26.668Z</time>
      </trkpt>
      <trkpt lon="-103.563073" lat="43.893247">
        <ele>1710.75</ele>
        <time>2026-08-30T12:24:29.028Z</time>
      </trkpt>
      <trkpt lon="-103.562145" lat="43.893725">
        <ele>1702.04</ele>
        <time>2026-08-30T12:24:30.796Z</time>
      </trkpt>
      <trkpt lon="-103.559574" lat="43.895113">
        <ele>1680.93</ele>
        <time>2026-08-30T12:24:35.584Z</time>
      </trkpt>
      <trkpt lon="-103.556539" lat="43.896622">
        <ele>1663.5</ele>
        <time>2026-08-30T12:24:40.876Z</time>
      </trkpt>
      <trkpt lon="-103.555081" lat="43.897211">
        <ele>1655.49</ele>
        <time>2026-08-30T12:24:43.232Z</time>
      </trkpt>
      <trkpt lon="-103.553517" lat="43.897704">
        <ele>1649</ele>
        <time>2026-08-30T12:24:45.628Z</time>
      </trkpt>
      <trkpt lon="-103.552707" lat="43.897897">
        <ele>1646.24</ele>
        <time>2026-08-30T12:24:46.824Z</time>
      </trkpt>
      <trkpt lon="-103.551055" lat="43.898146">
        <ele>1642.54</ele>
        <time>2026-08-30T12:24:49.208Z</time>
      </trkpt>
      <trkpt lon="-103.550206" lat="43.898215">
        <ele>1641.07</ele>
        <time>2026-08-30T12:24:50.416Z</time>
      </trkpt>
      <trkpt lon="-103.544522" lat="43.898512">
        <ele>1649.03</ele>
        <time>2026-08-30T12:24:58.788Z</time>
      </trkpt>
      <trkpt lon="-103.542625" lat="43.898792">
        <ele>1650.15</ele>
        <time>2026-08-30T12:25:01.716Z</time>
      </trkpt>
      <trkpt lon="-103.540000" lat="43.899383">
        <ele>1649.04</ele>
        <time>2026-08-30T12:25:05.892Z</time>
      </trkpt>
      <trkpt lon="-103.534177" lat="43.901067">
        <ele>1633.6</ele>
        <time>2026-08-30T12:25:15.348Z</time>
      </trkpt>
      <trkpt lon="-103.532248" lat="43.901421">
        <ele>1628.9</ele>
        <time>2026-08-30T12:25:18.304Z</time>
      </trkpt>
      <trkpt lon="-103.531448" lat="43.901502">
        <ele>1628.45</ele>
        <time>2026-08-30T12:25:19.516Z</time>
      </trkpt>
      <trkpt lon="-103.530261" lat="43.901542">
        <ele>1629.3</ele>
        <time>2026-08-30T12:25:21.320Z</time>
      </trkpt>
      <trkpt lon="-103.529094" lat="43.901469">
        <ele>1630.11</ele>
        <time>2026-08-30T12:25:23.128Z</time>
      </trkpt>
      <trkpt lon="-103.528337" lat="43.901360">
        <ele>1630.35</ele>
        <time>2026-08-30T12:25:24.340Z</time>
      </trkpt>
      <trkpt lon="-103.527236" lat="43.901109">
        <ele>1630.47</ele>
        <time>2026-08-30T12:25:26.216Z</time>
      </trkpt>
      <trkpt lon="-103.518282" lat="43.898666">
        <ele>1634.34</ele>
        <time>2026-08-30T12:25:41.804Z</time>
      </trkpt>
      <trkpt lon="-103.516549" lat="43.898425">
        <ele>1636.46</ele>
        <time>2026-08-30T12:25:44.772Z</time>
      </trkpt>
      <trkpt lon="-103.513786" lat="43.898234">
        <ele>1638.6</ele>
        <time>2026-08-30T12:25:49.504Z</time>
      </trkpt>
      <trkpt lon="-103.510959" lat="43.898196">
        <ele>1638.55</ele>
        <time>2026-08-30T12:25:54.300Z</time>
      </trkpt>
      <trkpt lon="-103.509197" lat="43.898304">
        <ele>1643.28</ele>
        <time>2026-08-30T12:25:57.344Z</time>
      </trkpt>
      <trkpt lon="-103.507524" lat="43.898509">
        <ele>1652.34</ele>
        <time>2026-08-30T12:26:00.360Z</time>
      </trkpt>
      <trkpt lon="-103.505639" lat="43.898862">
        <ele>1661.36</ele>
        <time>2026-08-30T12:26:03.920Z</time>
      </trkpt>
      <trkpt lon="-103.502455" lat="43.899448">
        <ele>1657.63</ele>
        <time>2026-08-30T12:26:09.840Z</time>
      </trkpt>
      <trkpt lon="-103.500431" lat="43.899647">
        <ele>1651.1</ele>
        <time>2026-08-30T12:26:13.376Z</time>
      </trkpt>
      <trkpt lon="-103.499020" lat="43.899697">
        <ele>1644.74</ele>
        <time>2026-08-30T12:26:15.748Z</time>
      </trkpt>
      <trkpt lon="-103.497554" lat="43.899661">
        <ele>1637.77</ele>
        <time>2026-08-30T12:26:18.152Z</time>
      </trkpt>
      <trkpt lon="-103.496094" lat="43.899524">
        <ele>1631.17</ele>
        <time>2026-08-30T12:26:20.528Z</time>
      </trkpt>
      <trkpt lon="-103.491917" lat="43.898907">
        <ele>1611.21</ele>
        <time>2026-08-30T12:26:27.172Z</time>
      </trkpt>
      <trkpt lon="-103.488666" lat="43.898546">
        <ele>1593.47</ele>
        <time>2026-08-30T12:26:32.084Z</time>
      </trkpt>
      <trkpt lon="-103.487005" lat="43.898454">
        <ele>1586.25</ele>
        <time>2026-08-30T12:26:34.520Z</time>
      </trkpt>
      <trkpt lon="-103.483202" lat="43.898460">
        <ele>1584.31</ele>
        <time>2026-08-30T12:26:40.096Z</time>
      </trkpt>
      <trkpt lon="-103.469300" lat="43.898522">
        <ele>1587.02</ele>
        <time>2026-08-30T12:27:01.396Z</time>
      </trkpt>
      <trkpt lon="-103.466294" lat="43.898285">
        <ele>1593.82</ele>
        <time>2026-08-30T12:27:06.200Z</time>
      </trkpt>
      <trkpt lon="-103.464137" lat="43.897963">
        <ele>1598.13</ele>
        <time>2026-08-30T12:27:09.804Z</time>
      </trkpt>
      <trkpt lon="-103.462093" lat="43.897516">
        <ele>1607.21</ele>
        <time>2026-08-30T12:27:13.416Z</time>
      </trkpt>
      <trkpt lon="-103.460804" lat="43.897146">
        <ele>1613.9</ele>
        <time>2026-08-30T12:27:15.828Z</time>
      </trkpt>
      <trkpt lon="-103.458668" lat="43.896355">
        <ele>1623.87</ele>
        <time>2026-08-30T12:27:20.080Z</time>
      </trkpt>
      <trkpt lon="-103.457282" lat="43.895691">
        <ele>1634.06</ele>
        <time>2026-08-30T12:27:23.104Z</time>
      </trkpt>
      <trkpt lon="-103.456328" lat="43.895095">
        <ele>1644.06</ele>
        <time>2026-08-30T12:27:25.512Z</time>
      </trkpt>
      <trkpt lon="-103.455715" lat="43.894608">
        <ele>1650.81</ele>
        <time>2026-08-30T12:27:27.300Z</time>
      </trkpt>
      <trkpt lon="-103.455358" lat="43.894263">
        <ele>1654.36</ele>
        <time>2026-08-30T12:27:28.504Z</time>
      </trkpt>
      <trkpt lon="-103.455045" lat="43.893901">
        <ele>1657.06</ele>
        <time>2026-08-30T12:27:29.708Z</time>
      </trkpt>
      <trkpt lon="-103.454783" lat="43.893528">
        <ele>1659.4</ele>
        <time>2026-08-30T12:27:30.912Z</time>
      </trkpt>
      <trkpt lon="-103.454486" lat="43.892960">
        <ele>1663.21</ele>
        <time>2026-08-30T12:27:32.704Z</time>
      </trkpt>
      <trkpt lon="-103.454213" lat="43.892201">
        <ele>1666.9</ele>
        <time>2026-08-30T12:27:35.068Z</time>
      </trkpt>
      <trkpt lon="-103.453866" lat="43.890631">
        <ele>1672.65</ele>
        <time>2026-08-30T12:27:39.916Z</time>
      </trkpt>
      <trkpt lon="-103.453184" lat="43.884370">
        <ele>1671.87</ele>
        <time>2026-08-30T12:27:58.344Z</time>
      </trkpt>
      <trkpt lon="-103.452655" lat="43.882545">
        <ele>1660.12</ele>
        <time>2026-08-30T12:28:03.164Z</time>
      </trkpt>
      <trkpt lon="-103.451510" lat="43.879206">
        <ele>1649.06</ele>
        <time>2026-08-30T12:28:11.576Z</time>
      </trkpt>
      <trkpt lon="-103.451216" lat="43.877779">
        <ele>1649.03</ele>
        <time>2026-08-30T12:28:15.228Z</time>
      </trkpt>
      <trkpt lon="-103.451163" lat="43.877093">
        <ele>1651.28</ele>
        <time>2026-08-30T12:28:17.040Z</time>
      </trkpt>
      <trkpt lon="-103.451181" lat="43.876456">
        <ele>1657.29</ele>
        <time>2026-08-30T12:28:18.816Z</time>
      </trkpt>
      <trkpt lon="-103.451274" lat="43.875884">
        <ele>1666.79</ele>
        <time>2026-08-30T12:28:20.596Z</time>
      </trkpt>
      <trkpt lon="-103.451421" lat="43.875384">
        <ele>1677.5</ele>
        <time>2026-08-30T12:28:22.368Z</time>
      </trkpt>
      <trkpt lon="-103.451539" lat="43.875090">
        <ele>1683.82</ele>
        <time>2026-08-30T12:28:23.540Z</time>
      </trkpt>
      <trkpt lon="-103.451674" lat="43.874821">
        <ele>1688.79</ele>
        <time>2026-08-30T12:28:24.716Z</time>
      </trkpt>
      <trkpt lon="-103.451823" lat="43.874578">
        <ele>1691.97</ele>
        <time>2026-08-30T12:28:25.892Z</time>
      </trkpt>
      <trkpt lon="-103.451987" lat="43.874363">
        <ele>1694.45</ele>
        <time>2026-08-30T12:28:27.060Z</time>
      </trkpt>
      <trkpt lon="-103.452254" lat="43.874087">
        <ele>1697.27</ele>
        <time>2026-08-30T12:28:28.808Z</time>
      </trkpt>
      <trkpt lon="-103.452445" lat="43.873923">
        <ele>1697.59</ele>
        <time>2026-08-30T12:28:29.980Z</time>
      </trkpt>
      <trkpt lon="-103.452644" lat="43.873780">
        <ele>1696.44</ele>
        <time>2026-08-30T12:28:31.156Z</time>
      </trkpt>
      <trkpt lon="-103.452973" lat="43.873601">
        <ele>1693.04</ele>
        <time>2026-08-30T12:28:32.920Z</time>
      </trkpt>
      <trkpt lon="-103.453217" lat="43.873504">
        <ele>1690.27</ele>
        <time>2026-08-30T12:28:34.100Z</time>
      </trkpt>
      <trkpt lon="-103.453760" lat="43.873375">
        <ele>1685.17</ele>
        <time>2026-08-30T12:28:36.444Z</time>
      </trkpt>
      <trkpt lon="-103.454063" lat="43.873345">
        <ele>1682.67</ele>
        <time>2026-08-30T12:28:37.640Z</time>
      </trkpt>
      <trkpt lon="-103.454374" lat="43.873340">
        <ele>1680.12</ele>
        <time>2026-08-30T12:28:38.844Z</time>
      </trkpt>
      <trkpt lon="-103.454684" lat="43.873362">
        <ele>1677.77</ele>
        <time>2026-08-30T12:28:40.024Z</time>
      </trkpt>
      <trkpt lon="-103.454993" lat="43.873412">
        <ele>1675.66</ele>
        <time>2026-08-30T12:28:41.212Z</time>
      </trkpt>
      <trkpt lon="-103.455290" lat="43.873490">
        <ele>1673.87</ele>
        <time>2026-08-30T12:28:42.388Z</time>
      </trkpt>
      <trkpt lon="-103.455572" lat="43.873595">
        <ele>1672.33</ele>
        <time>2026-08-30T12:28:43.572Z</time>
      </trkpt>
      <trkpt lon="-103.455709" lat="43.873657">
        <ele>1671.73</ele>
        <time>2026-08-30T12:28:44.168Z</time>
      </trkpt>
      <trkpt lon="-103.455836" lat="43.873723">
        <ele>1671.31</ele>
        <time>2026-08-30T12:28:44.756Z</time>
      </trkpt>
      <trkpt lon="-103.455960" lat="43.873798">
        <ele>1671.05</ele>
        <time>2026-08-30T12:28:45.368Z</time>
      </trkpt>
      <trkpt lon="-103.456169" lat="43.873959">
        <ele>1670.9</ele>
        <time>2026-08-30T12:28:46.536Z</time>
      </trkpt>
      <trkpt lon="-103.456399" lat="43.874239">
        <ele>1670.55</ele>
        <time>2026-08-30T12:28:48.304Z</time>
      </trkpt>
      <trkpt lon="-103.456684" lat="43.874989">
        <ele>1666.49</ele>
        <time>2026-08-30T12:28:52.440Z</time>
      </trkpt>
      <trkpt lon="-103.456955" lat="43.876252">
        <ele>1662.05</ele>
        <time>2026-08-30T12:28:58.976Z</time>
      </trkpt>
      <trkpt lon="-103.457028" lat="43.876474">
        <ele>1661.93</ele>
        <time>2026-08-30T12:29:00.172Z</time>
      </trkpt>
      <trkpt lon="-103.457301" lat="43.876969">
        <ele>1662.44</ele>
        <time>2026-08-30T12:29:03.148Z</time>
      </trkpt>
      <trkpt lon="-103.457366" lat="43.877060">
        <ele>1662.68</ele>
        <time>2026-08-30T12:29:03.756Z</time>
      </trkpt>
      <trkpt lon="-103.457428" lat="43.877148">
        <ele>1662.98</ele>
        <time>2026-08-30T12:29:04.348Z</time>
      </trkpt>
      <trkpt lon="-103.457482" lat="43.877234">
        <ele>1663.34</ele>
        <time>2026-08-30T12:29:04.936Z</time>
      </trkpt>
      <trkpt lon="-103.457556" lat="43.877407">
        <ele>1663.85</ele>
        <time>2026-08-30T12:29:06.144Z</time>
      </trkpt>
      <trkpt lon="-103.457571" lat="43.877578">
        <ele>1663.42</ele>
        <time>2026-08-30T12:29:07.320Z</time>
      </trkpt>
      <trkpt lon="-103.457521" lat="43.877751">
        <ele>1661.47</ele>
        <time>2026-08-30T12:29:08.500Z</time>
      </trkpt>
      <trkpt lon="-103.457469" lat="43.877839">
        <ele>1659.83</ele>
        <time>2026-08-30T12:29:09.096Z</time>
      </trkpt>
      <trkpt lon="-103.457399" lat="43.877927">
        <ele>1657.76</ele>
        <time>2026-08-30T12:29:09.704Z</time>
      </trkpt>
      <trkpt lon="-103.457309" lat="43.878015">
        <ele>1655.29</ele>
        <time>2026-08-30T12:29:10.300Z</time>
      </trkpt>
      <trkpt lon="-103.457203" lat="43.878099">
        <ele>1652.54</ele>
        <time>2026-08-30T12:29:10.912Z</time>
      </trkpt>
      <trkpt lon="-103.457079" lat="43.878179">
        <ele>1649.57</ele>
        <time>2026-08-30T12:29:11.512Z</time>
      </trkpt>
      <trkpt lon="-103.456933" lat="43.878256">
        <ele>1646.37</ele>
        <time>2026-08-30T12:29:12.132Z</time>
      </trkpt>
      <trkpt lon="-103.456773" lat="43.878324">
        <ele>1643.2</ele>
        <time>2026-08-30T12:29:12.752Z</time>
      </trkpt>
      <trkpt lon="-103.456600" lat="43.878383">
        <ele>1640.29</ele>
        <time>2026-08-30T12:29:13.364Z</time>
      </trkpt>
      <trkpt lon="-103.456420" lat="43.878430">
        <ele>1637.77</ele>
        <time>2026-08-30T12:29:13.972Z</time>
      </trkpt>
      <trkpt lon="-103.456230" lat="43.878467">
        <ele>1635.63</ele>
        <time>2026-08-30T12:29:14.600Z</time>
      </trkpt>
      <trkpt lon="-103.456033" lat="43.878489">
        <ele>1633.93</ele>
        <time>2026-08-30T12:29:15.224Z</time>
      </trkpt>
      <trkpt lon="-103.455846" lat="43.878496">
        <ele>1632.76</ele>
        <time>2026-08-30T12:29:15.836Z</time>
      </trkpt>
      <trkpt lon="-103.455479" lat="43.878470">
        <ele>1631.56</ele>
        <time>2026-08-30T12:29:17.052Z</time>
      </trkpt>
      <trkpt lon="-103.455138" lat="43.878397">
        <ele>1631.56</ele>
        <time>2026-08-30T12:29:18.292Z</time>
      </trkpt>
      <trkpt lon="-103.454837" lat="43.878291">
        <ele>1632.07</ele>
        <time>2026-08-30T12:29:19.520Z</time>
      </trkpt>
      <trkpt lon="-103.454571" lat="43.878162">
        <ele>1632.55</ele>
        <time>2026-08-30T12:29:20.732Z</time>
      </trkpt>
      <trkpt lon="-103.454334" lat="43.878018">
        <ele>1632.86</ele>
        <time>2026-08-30T12:29:21.924Z</time>
      </trkpt>
      <trkpt lon="-103.454115" lat="43.877862">
        <ele>1633.1</ele>
        <time>2026-08-30T12:29:23.132Z</time>
      </trkpt>
      <trkpt lon="-103.453919" lat="43.877703">
        <ele>1633.34</ele>
        <time>2026-08-30T12:29:24.324Z</time>
      </trkpt>
      <trkpt lon="-103.453741" lat="43.877536">
        <ele>1633.64</ele>
        <time>2026-08-30T12:29:25.528Z</time>
      </trkpt>
      <trkpt lon="-103.453589" lat="43.877367">
        <ele>1633.96</ele>
        <time>2026-08-30T12:29:26.732Z</time>
      </trkpt>
      <trkpt lon="-103.453471" lat="43.877200">
        <ele>1634.46</ele>
        <time>2026-08-30T12:29:27.912Z</time>
      </trkpt>
      <trkpt lon="-103.453381" lat="43.877031">
        <ele>1635.62</ele>
        <time>2026-08-30T12:29:29.124Z</time>
      </trkpt>
      <trkpt lon="-103.453325" lat="43.876873">
        <ele>1636.88</ele>
        <time>2026-08-30T12:29:30.312Z</time>
      </trkpt>
      <trkpt lon="-103.453300" lat="43.876729">
        <ele>1638.03</ele>
        <time>2026-08-30T12:29:31.484Z</time>
      </trkpt>
      <trkpt lon="-103.453297" lat="43.876663">
        <ele>1638.5</ele>
        <time>2026-08-30T12:29:32.084Z</time>
      </trkpt>
      <trkpt lon="-103.453300" lat="43.876601">
        <ele>1638.85</ele>
        <time>2026-08-30T12:29:32.680Z</time>
      </trkpt>
      <trkpt lon="-103.453309" lat="43.876543">
        <ele>1639.1</ele>
        <time>2026-08-30T12:29:33.288Z</time>
      </trkpt>
      <trkpt lon="-103.453323" lat="43.876490">
        <ele>1639.25</ele>
        <time>2026-08-30T12:29:33.904Z</time>
      </trkpt>
      <trkpt lon="-103.453341" lat="43.876443">
        <ele>1639.25</ele>
        <time>2026-08-30T12:29:34.500Z</time>
      </trkpt>
      <trkpt lon="-103.453362" lat="43.876399">
        <ele>1639.05</ele>
        <time>2026-08-30T12:29:35.116Z</time>
      </trkpt>
      <trkpt lon="-103.453385" lat="43.876361">
        <ele>1638.61</ele>
        <time>2026-08-30T12:29:35.736Z</time>
      </trkpt>
      <trkpt lon="-103.453409" lat="43.876329">
        <ele>1637.96</ele>
        <time>2026-08-30T12:29:36.332Z</time>
      </trkpt>
      <trkpt lon="-103.453435" lat="43.876300">
        <ele>1637.13</ele>
        <time>2026-08-30T12:29:36.952Z</time>
      </trkpt>
      <trkpt lon="-103.453485" lat="43.876255">
        <ele>1635.15</ele>
        <time>2026-08-30T12:29:38.140Z</time>
      </trkpt>
      <trkpt lon="-103.453548" lat="43.876214">
        <ele>1630.56</ele>
        <time>2026-08-30T12:29:39.916Z</time>
      </trkpt>
      <trkpt lon="-103.453567" lat="43.876204">
        <ele>1628.3</ele>
        <time>2026-08-30T12:29:40.520Z</time>
      </trkpt>
      <trkpt lon="-103.453586" lat="43.876194">
        <ele>1625.6</ele>
        <time>2026-08-30T12:29:41.100Z</time>
      </trkpt>
      <trkpt lon="-103.453605" lat="43.876180">
        <ele>1622.51</ele>
        <time>2026-08-30T12:29:41.688Z</time>
      </trkpt>
      <trkpt lon="-103.453624" lat="43.876158">
        <ele>1618.86</ele>
        <time>2026-08-30T12:29:42.280Z</time>
      </trkpt>
      <trkpt lon="-103.453662" lat="43.876076">
        <ele>1610.38</ele>
        <time>2026-08-30T12:29:43.448Z</time>
      </trkpt>
      <trkpt lon="-103.453684" lat="43.876012">
        <ele>1606.07</ele>
        <time>2026-08-30T12:29:44.036Z</time>
      </trkpt>
      <trkpt lon="-103.453708" lat="43.875935">
        <ele>1602.05</ele>
        <time>2026-08-30T12:29:44.624Z</time>
      </trkpt>
      <trkpt lon="-103.453733" lat="43.875845">
        <ele>1598.57</ele>
        <time>2026-08-30T12:29:45.236Z</time>
      </trkpt>
      <trkpt lon="-103.453757" lat="43.875758">
        <ele>1598.19</ele>
        <time>2026-08-30T12:29:45.832Z</time>
      </trkpt>
      <trkpt lon="-103.453779" lat="43.875674">
        <ele>1599.27</ele>
        <time>2026-08-30T12:29:46.436Z</time>
      </trkpt>
      <trkpt lon="-103.453814" lat="43.875516">
        <ele>1600.12</ele>
        <time>2026-08-30T12:29:47.592Z</time>
      </trkpt>
      <trkpt lon="-103.453828" lat="43.875431">
        <ele>1600.33</ele>
        <time>2026-08-30T12:29:48.212Z</time>
      </trkpt>
      <trkpt lon="-103.453837" lat="43.875347">
        <ele>1600.72</ele>
        <time>2026-08-30T12:29:48.800Z</time>
      </trkpt>
      <trkpt lon="-103.453840" lat="43.875261">
        <ele>1601.18</ele>
        <time>2026-08-30T12:29:49.388Z</time>
      </trkpt>
      <trkpt lon="-103.453839" lat="43.875175">
        <ele>1601.69</ele>
        <time>2026-08-30T12:29:49.960Z</time>
      </trkpt>
      <trkpt lon="-103.453836" lat="43.875086">
        <ele>1602.28</ele>
        <time>2026-08-30T12:29:50.564Z</time>
      </trkpt>
      <trkpt lon="-103.453836" lat="43.874999">
        <ele>1602.91</ele>
        <time>2026-08-30T12:29:51.156Z</time>
      </trkpt>
      <trkpt lon="-103.453857" lat="43.874844">
        <ele>1605.27</ele>
        <time>2026-08-30T12:29:52.340Z</time>
      </trkpt>
      <trkpt lon="-103.454023" lat="43.874641">
        <ele>1611.02</ele>
        <time>2026-08-30T12:29:54.752Z</time>
      </trkpt>
      <trkpt lon="-103.454083" lat="43.874613">
        <ele>1612.12</ele>
        <time>2026-08-30T12:29:55.352Z</time>
      </trkpt>
      <trkpt lon="-103.454150" lat="43.874593">
        <ele>1613.08</ele>
        <time>2026-08-30T12:29:55.960Z</time>
      </trkpt>
      <trkpt lon="-103.454217" lat="43.874582">
        <ele>1613.86</ele>
        <time>2026-08-30T12:29:56.572Z</time>
      </trkpt>
      <trkpt lon="-103.454285" lat="43.874579">
        <ele>1614.49</ele>
        <time>2026-08-30T12:29:57.168Z</time>
      </trkpt>
      <trkpt lon="-103.454353" lat="43.874583">
        <ele>1615.05</ele>
        <time>2026-08-30T12:29:57.776Z</time>
      </trkpt>
      <trkpt lon="-103.454416" lat="43.874593">
        <ele>1615.52</ele>
        <time>2026-08-30T12:29:58.364Z</time>
      </trkpt>
      <trkpt lon="-103.454474" lat="43.874608">
        <ele>1615.91</ele>
        <time>2026-08-30T12:29:58.944Z</time>
      </trkpt>
      <trkpt lon="-103.454529" lat="43.874630">
        <ele>1616.26</ele>
        <time>2026-08-30T12:29:59.544Z</time>
      </trkpt>
      <trkpt lon="-103.454578" lat="43.874656">
        <ele>1616.58</ele>
        <time>2026-08-30T12:30:00.132Z</time>
      </trkpt>
      <trkpt lon="-103.454623" lat="43.874688">
        <ele>1616.89</ele>
        <time>2026-08-30T12:30:00.728Z</time>
      </trkpt>
      <trkpt lon="-103.454664" lat="43.874725">
        <ele>1617.2</ele>
        <time>2026-08-30T12:30:01.308Z</time>
      </trkpt>
      <trkpt lon="-103.454735" lat="43.874816">
        <ele>1617.79</ele>
        <time>2026-08-30T12:30:02.532Z</time>
      </trkpt>
      <trkpt lon="-103.454765" lat="43.874868">
        <ele>1618.07</ele>
        <time>2026-08-30T12:30:03.120Z</time>
      </trkpt>
      <trkpt lon="-103.454793" lat="43.874925">
        <ele>1618.4</ele>
        <time>2026-08-30T12:30:03.736Z</time>
      </trkpt>
      <trkpt lon="-103.454818" lat="43.874986">
        <ele>1618.79</ele>
        <time>2026-08-30T12:30:04.340Z</time>
      </trkpt>
      <trkpt lon="-103.454838" lat="43.875051">
        <ele>1619.27</ele>
        <time>2026-08-30T12:30:04.948Z</time>
      </trkpt>
      <trkpt lon="-103.454852" lat="43.875117">
        <ele>1619.84</ele>
        <time>2026-08-30T12:30:05.544Z</time>
      </trkpt>
      <trkpt lon="-103.454860" lat="43.875184">
        <ele>1620.54</ele>
        <time>2026-08-30T12:30:06.132Z</time>
      </trkpt>
      <trkpt lon="-103.454844" lat="43.875325">
        <ele>1622.2</ele>
        <time>2026-08-30T12:30:07.344Z</time>
      </trkpt>
      <trkpt lon="-103.454781" lat="43.875460">
        <ele>1623.84</ele>
        <time>2026-08-30T12:30:08.544Z</time>
      </trkpt>
      <trkpt lon="-103.454666" lat="43.875590">
        <ele>1625.14</ele>
        <time>2026-08-30T12:30:09.752Z</time>
      </trkpt>
      <trkpt lon="-103.454507" lat="43.875713">
        <ele>1626.05</ele>
        <time>2026-08-30T12:30:10.964Z</time>
      </trkpt>
      <trkpt lon="-103.454414" lat="43.875774">
        <ele>1626.44</ele>
        <time>2026-08-30T12:30:11.580Z</time>
      </trkpt>
      <trkpt lon="-103.454316" lat="43.875833">
        <ele>1626.85</ele>
        <time>2026-08-30T12:30:12.176Z</time>
      </trkpt>
      <trkpt lon="-103.454212" lat="43.875892">
        <ele>1627.34</ele>
        <time>2026-08-30T12:30:12.768Z</time>
      </trkpt>
      <trkpt lon="-103.454103" lat="43.875949">
        <ele>1627.99</ele>
        <time>2026-08-30T12:30:13.368Z</time>
      </trkpt>
      <trkpt lon="-103.453756" lat="43.876093">
        <ele>1630.03</ele>
        <time>2026-08-30T12:30:15.120Z</time>
      </trkpt>
      <trkpt lon="-103.453505" lat="43.876164">
        <ele>1630.46</ele>
        <time>2026-08-30T12:30:16.300Z</time>
      </trkpt>
      <trkpt lon="-103.452946" lat="43.876267">
        <ele>1630.37</ele>
        <time>2026-08-30T12:30:18.668Z</time>
      </trkpt>
      <trkpt lon="-103.452801" lat="43.876292">
        <ele>1630.46</ele>
        <time>2026-08-30T12:30:19.252Z</time>
      </trkpt>
      <trkpt lon="-103.452497" lat="43.876336">
        <ele>1631.22</ele>
        <time>2026-08-30T12:30:20.456Z</time>
      </trkpt>
      <trkpt lon="-103.451880" lat="43.876366">
        <ele>1635.07</ele>
        <time>2026-08-30T12:30:22.876Z</time>
      </trkpt>
      <trkpt lon="-103.451725" lat="43.876360">
        <ele>1636.32</ele>
        <time>2026-08-30T12:30:23.480Z</time>
      </trkpt>
      <trkpt lon="-103.451571" lat="43.876347">
        <ele>1637.59</ele>
        <time>2026-08-30T12:30:24.084Z</time>
      </trkpt>
      <trkpt lon="-103.451137" lat="43.876263">
        <ele>1641.15</ele>
        <time>2026-08-30T12:30:25.868Z</time>
      </trkpt>
      <trkpt lon="-103.450717" lat="43.876097">
        <ele>1644.12</ele>
        <time>2026-08-30T12:30:27.712Z</time>
      </trkpt>
      <trkpt lon="-103.450586" lat="43.876025">
        <ele>1644.93</ele>
        <time>2026-08-30T12:30:28.320Z</time>
      </trkpt>
      <trkpt lon="-103.450461" lat="43.875947">
        <ele>1645.75</ele>
        <time>2026-08-30T12:30:28.924Z</time>
      </trkpt>
      <trkpt lon="-103.450231" lat="43.875774">
        <ele>1647.52</ele>
        <time>2026-08-30T12:30:30.128Z</time>
      </trkpt>
      <trkpt lon="-103.450033" lat="43.875580">
        <ele>1649.63</ele>
        <time>2026-08-30T12:30:31.324Z</time>
      </trkpt>
      <trkpt lon="-103.449866" lat="43.875361">
        <ele>1652.32</ele>
        <time>2026-08-30T12:30:32.552Z</time>
      </trkpt>
      <trkpt lon="-103.449736" lat="43.875130">
        <ele>1655.39</ele>
        <time>2026-08-30T12:30:33.776Z</time>
      </trkpt>
      <trkpt lon="-103.449684" lat="43.875008">
        <ele>1657.06</ele>
        <time>2026-08-30T12:30:34.392Z</time>
      </trkpt>
      <trkpt lon="-103.449644" lat="43.874886">
        <ele>1658.8</ele>
        <time>2026-08-30T12:30:35.020Z</time>
      </trkpt>
      <trkpt lon="-103.449605" lat="43.874647">
        <ele>1662.41</ele>
        <time>2026-08-30T12:30:36.216Z</time>
      </trkpt>
      <trkpt lon="-103.449628" lat="43.874408">
        <ele>1666.06</ele>
        <time>2026-08-30T12:30:37.436Z</time>
      </trkpt>
      <trkpt lon="-103.449724" lat="43.874175">
        <ele>1669.16</ele>
        <time>2026-08-30T12:30:38.684Z</time>
      </trkpt>
      <trkpt lon="-103.449879" lat="43.873964">
        <ele>1671.45</ele>
        <time>2026-08-30T12:30:39.888Z</time>
      </trkpt>
      <trkpt lon="-103.449976" lat="43.873865">
        <ele>1672.39</ele>
        <time>2026-08-30T12:30:40.476Z</time>
      </trkpt>
      <trkpt lon="-103.450087" lat="43.873770">
        <ele>1673.26</ele>
        <time>2026-08-30T12:30:41.088Z</time>
      </trkpt>
      <trkpt lon="-103.450210" lat="43.873681">
        <ele>1674.09</ele>
        <time>2026-08-30T12:30:41.700Z</time>
      </trkpt>
      <trkpt lon="-103.450343" lat="43.873597">
        <ele>1674.95</ele>
        <time>2026-08-30T12:30:42.304Z</time>
      </trkpt>
      <trkpt lon="-103.450491" lat="43.873517">
        <ele>1675.93</ele>
        <time>2026-08-30T12:30:42.924Z</time>
      </trkpt>
      <trkpt lon="-103.450804" lat="43.873386">
        <ele>1678.11</ele>
        <time>2026-08-30T12:30:44.144Z</time>
      </trkpt>
      <trkpt lon="-103.451129" lat="43.873289">
        <ele>1680.58</ele>
        <time>2026-08-30T12:30:45.332Z</time>
      </trkpt>
      <trkpt lon="-103.451294" lat="43.873253">
        <ele>1681.91</ele>
        <time>2026-08-30T12:30:45.916Z</time>
      </trkpt>
      <trkpt lon="-103.451458" lat="43.873224">
        <ele>1683.31</ele>
        <time>2026-08-30T12:30:46.500Z</time>
      </trkpt>
      <trkpt lon="-103.451625" lat="43.873203">
        <ele>1684.82</ele>
        <time>2026-08-30T12:30:47.096Z</time>
      </trkpt>
      <trkpt lon="-103.451791" lat="43.873192">
        <ele>1686.38</ele>
        <time>2026-08-30T12:30:47.696Z</time>
      </trkpt>
      <trkpt lon="-103.452117" lat="43.873199">
        <ele>1689.75</ele>
        <time>2026-08-30T12:30:48.888Z</time>
      </trkpt>
      <trkpt lon="-103.452425" lat="43.873246">
        <ele>1693.17</ele>
        <time>2026-08-30T12:30:50.064Z</time>
      </trkpt>
      <trkpt lon="-103.452971" lat="43.873446">
        <ele>1698.07</ele>
        <time>2026-08-30T12:30:52.396Z</time>
      </trkpt>
      <trkpt lon="-103.453961" lat="43.874083">
        <ele>1701.62</ele>
        <time>2026-08-30T12:30:57.084Z</time>
      </trkpt>
      <trkpt lon="-103.457286" lat="43.876598">
        <ele>1703.32</ele>
        <time>2026-08-30T12:31:12.980Z</time>
      </trkpt>
      <trkpt lon="-103.457687" lat="43.876957">
        <ele>1699.87</ele>
        <time>2026-08-30T12:31:15.308Z</time>
      </trkpt>
      <trkpt lon="-103.458027" lat="43.877329">
        <ele>1697.77</ele>
        <time>2026-08-30T12:31:17.676Z</time>
      </trkpt>
      <trkpt lon="-103.458209" lat="43.877616">
        <ele>1697.62</ele>
        <time>2026-08-30T12:31:19.440Z</time>
      </trkpt>
      <trkpt lon="-103.458294" lat="43.877807">
        <ele>1697.89</ele>
        <time>2026-08-30T12:31:20.616Z</time>
      </trkpt>
      <trkpt lon="-103.458349" lat="43.877994">
        <ele>1698.25</ele>
        <time>2026-08-30T12:31:21.768Z</time>
      </trkpt>
      <trkpt lon="-103.458378" lat="43.878182">
        <ele>1698.54</ele>
        <time>2026-08-30T12:31:22.940Z</time>
      </trkpt>
      <trkpt lon="-103.458381" lat="43.878369">
        <ele>1698.67</ele>
        <time>2026-08-30T12:31:24.120Z</time>
      </trkpt>
      <trkpt lon="-103.458309" lat="43.878733">
        <ele>1697.78</ele>
        <time>2026-08-30T12:31:26.452Z</time>
      </trkpt>
      <trkpt lon="-103.458234" lat="43.878918">
        <ele>1696.65</ele>
        <time>2026-08-30T12:31:27.644Z</time>
      </trkpt>
      <trkpt lon="-103.458135" lat="43.879103">
        <ele>1695.11</ele>
        <time>2026-08-30T12:31:28.836Z</time>
      </trkpt>
      <trkpt lon="-103.458005" lat="43.879287">
        <ele>1693.23</ele>
        <time>2026-08-30T12:31:30.024Z</time>
      </trkpt>
      <trkpt lon="-103.457533" lat="43.879738">
        <ele>1686.87</ele>
        <time>2026-08-30T12:31:33.016Z</time>
      </trkpt>
      <trkpt lon="-103.457158" lat="43.880002">
        <ele>1682.79</ele>
        <time>2026-08-30T12:31:34.800Z</time>
      </trkpt>
      <trkpt lon="-103.455918" lat="43.880700">
        <ele>1677.25</ele>
        <time>2026-08-30T12:31:39.576Z</time>
      </trkpt>
      <trkpt lon="-103.455554" lat="43.880871">
        <ele>1675.88</ele>
        <time>2026-08-30T12:31:40.768Z</time>
      </trkpt>
      <trkpt lon="-103.454101" lat="43.881296">
        <ele>1668.34</ele>
        <time>2026-08-30T12:31:44.948Z</time>
      </trkpt>
      <trkpt lon="-103.453408" lat="43.881442">
        <ele>1661.66</ele>
        <time>2026-08-30T12:31:46.748Z</time>
      </trkpt>
      <trkpt lon="-103.452189" lat="43.881720">
        <ele>1647.59</ele>
        <time>2026-08-30T12:31:49.764Z</time>
      </trkpt>
      <trkpt lon="-103.450723" lat="43.882189">
        <ele>1632.46</ele>
        <time>2026-08-30T12:31:53.344Z</time>
      </trkpt>
      <trkpt lon="-103.449746" lat="43.882586">
        <ele>1623.39</ele>
        <time>2026-08-30T12:31:55.752Z</time>
      </trkpt>
      <trkpt lon="-103.447273" lat="43.883747">
        <ele>1599.66</ele>
        <time>2026-08-30T12:32:01.792Z</time>
      </trkpt>
      <trkpt lon="-103.445539" lat="43.884446">
        <ele>1575.28</ele>
        <time>2026-08-30T12:32:05.500Z</time>
      </trkpt>
      <trkpt lon="-103.444598" lat="43.884750">
        <ele>1560.24</ele>
        <time>2026-08-30T12:32:07.288Z</time>
      </trkpt>
      <trkpt lon="-103.443571" lat="43.885019">
        <ele>1545.41</ele>
        <time>2026-08-30T12:32:09.120Z</time>
      </trkpt>
      <trkpt lon="-103.441775" lat="43.885378">
        <ele>1525.3</ele>
        <time>2026-08-30T12:32:12.128Z</time>
      </trkpt>
      <trkpt lon="-103.439489" lat="43.885760">
        <ele>1504.02</ele>
        <time>2026-08-30T12:32:15.780Z</time>
      </trkpt>
      <trkpt lon="-103.436779" lat="43.886174">
        <ele>1482.83</ele>
        <time>2026-08-30T12:32:20.004Z</time>
      </trkpt>
      <trkpt lon="-103.432517" lat="43.886909">
        <ele>1463.6</ele>
        <time>2026-08-30T12:32:26.708Z</time>
      </trkpt>
      <trkpt lon="-103.431065" lat="43.887274">
        <ele>1457.85</ele>
        <time>2026-08-30T12:32:29.104Z</time>
      </trkpt>
      <trkpt lon="-103.430051" lat="43.887617">
        <ele>1453.9</ele>
        <time>2026-08-30T12:32:30.884Z</time>
      </trkpt>
      <trkpt lon="-103.429100" lat="43.888037">
        <ele>1452.71</ele>
        <time>2026-08-30T12:32:32.688Z</time>
      </trkpt>
      <trkpt lon="-103.428250" lat="43.888513">
        <ele>1452.93</ele>
        <time>2026-08-30T12:32:34.476Z</time>
      </trkpt>
      <trkpt lon="-103.427494" lat="43.889032">
        <ele>1453.54</ele>
        <time>2026-08-30T12:32:36.252Z</time>
      </trkpt>
      <trkpt lon="-103.426833" lat="43.889577">
        <ele>1454.38</ele>
        <time>2026-08-30T12:32:38.012Z</time>
      </trkpt>
      <trkpt lon="-103.426445" lat="43.889957">
        <ele>1454.88</ele>
        <time>2026-08-30T12:32:39.184Z</time>
      </trkpt>
      <trkpt lon="-103.425956" lat="43.890560">
        <ele>1454.78</ele>
        <time>2026-08-30T12:32:40.952Z</time>
      </trkpt>
      <trkpt lon="-103.425510" lat="43.891421">
        <ele>1452.53</ele>
        <time>2026-08-30T12:32:43.332Z</time>
      </trkpt>
      <trkpt lon="-103.425380" lat="43.891865">
        <ele>1451.95</ele>
        <time>2026-08-30T12:32:44.516Z</time>
      </trkpt>
      <trkpt lon="-103.425310" lat="43.892312">
        <ele>1451.97</ele>
        <time>2026-08-30T12:32:45.712Z</time>
      </trkpt>
      <trkpt lon="-103.425310" lat="43.892960">
        <ele>1452.14</ele>
        <time>2026-08-30T12:32:47.464Z</time>
      </trkpt>
      <trkpt lon="-103.425419" lat="43.893599">
        <ele>1451.86</ele>
        <time>2026-08-30T12:32:49.236Z</time>
      </trkpt>
      <trkpt lon="-103.425620" lat="43.894216">
        <ele>1451.45</ele>
        <time>2026-08-30T12:32:51.016Z</time>
      </trkpt>
      <trkpt lon="-103.425905" lat="43.894817">
        <ele>1451.53</ele>
        <time>2026-08-30T12:32:52.820Z</time>
      </trkpt>
      <trkpt lon="-103.426265" lat="43.895381">
        <ele>1452.25</ele>
        <time>2026-08-30T12:32:54.632Z</time>
      </trkpt>
      <trkpt lon="-103.426821" lat="43.896080">
        <ele>1453.01</ele>
        <time>2026-08-30T12:32:57.040Z</time>
      </trkpt>
      <trkpt lon="-103.427493" lat="43.896958">
        <ele>1452.56</ele>
        <time>2026-08-30T12:33:00.064Z</time>
      </trkpt>
      <trkpt lon="-103.427832" lat="43.897497">
        <ele>1451.38</ele>
        <time>2026-08-30T12:33:01.864Z</time>
      </trkpt>
      <trkpt lon="-103.430619" lat="43.903086">
        <ele>1470.79</ele>
        <time>2026-08-30T12:33:20.576Z</time>
      </trkpt>
      <trkpt lon="-103.431103" lat="43.904054">
        <ele>1477.13</ele>
        <time>2026-08-30T12:33:24.144Z</time>
      </trkpt>
      <trkpt lon="-103.431427" lat="43.904505">
        <ele>1480</ele>
        <time>2026-08-30T12:33:25.960Z</time>
      </trkpt>
      <trkpt lon="-103.431816" lat="43.904922">
        <ele>1483.07</ele>
        <time>2026-08-30T12:33:27.796Z</time>
      </trkpt>
      <trkpt lon="-103.432259" lat="43.905283">
        <ele>1485.77</ele>
        <time>2026-08-30T12:33:29.616Z</time>
      </trkpt>
      <trkpt lon="-103.432759" lat="43.905600">
        <ele>1487.52</ele>
        <time>2026-08-30T12:33:31.452Z</time>
      </trkpt>
      <trkpt lon="-103.433285" lat="43.905883">
        <ele>1488.43</ele>
        <time>2026-08-30T12:33:33.280Z</time>
      </trkpt>
      <trkpt lon="-103.434497" lat="43.906535">
        <ele>1490.55</ele>
        <time>2026-08-30T12:33:37.548Z</time>
      </trkpt>
      <trkpt lon="-103.435290" lat="43.907053">
        <ele>1492.79</ele>
        <time>2026-08-30T12:33:40.628Z</time>
      </trkpt>
      <trkpt lon="-103.435716" lat="43.907407">
        <ele>1493.4</ele>
        <time>2026-08-30T12:33:42.496Z</time>
      </trkpt>
      <trkpt lon="-103.436086" lat="43.907795">
        <ele>1493.38</ele>
        <time>2026-08-30T12:33:44.344Z</time>
      </trkpt>
      <trkpt lon="-103.436389" lat="43.908206">
        <ele>1493.22</ele>
        <time>2026-08-30T12:33:46.152Z</time>
      </trkpt>
      <trkpt lon="-103.436643" lat="43.908654">
        <ele>1493.13</ele>
        <time>2026-08-30T12:33:48.008Z</time>
      </trkpt>
      <trkpt lon="-103.437803" lat="43.910858">
        <ele>1495.6</ele>
        <time>2026-08-30T12:33:57.148Z</time>
      </trkpt>
      <trkpt lon="-103.438161" lat="43.911435">
        <ele>1494.97</ele>
        <time>2026-08-30T12:33:59.556Z</time>
      </trkpt>
      <trkpt lon="-103.438999" lat="43.912718">
        <ele>1492.24</ele>
        <time>2026-08-30T12:34:04.392Z</time>
      </trkpt>
      <trkpt lon="-103.439382" lat="43.913418">
        <ele>1497.12</ele>
        <time>2026-08-30T12:34:06.796Z</time>
      </trkpt>
      <trkpt lon="-103.440413" lat="43.915386">
        <ele>1514.98</ele>
        <time>2026-08-30T12:34:13.432Z</time>
      </trkpt>
      <trkpt lon="-103.441187" lat="43.916793">
        <ele>1531.96</ele>
        <time>2026-08-30T12:34:18.304Z</time>
      </trkpt>
      <trkpt lon="-103.441573" lat="43.917697">
        <ele>1541.29</ele>
        <time>2026-08-30T12:34:21.364Z</time>
      </trkpt>
      <trkpt lon="-103.441732" lat="43.918252">
        <ele>1545.68</ele>
        <time>2026-08-30T12:34:23.172Z</time>
      </trkpt>
      <trkpt lon="-103.442300" lat="43.920810">
        <ele>1562.54</ele>
        <time>2026-08-30T12:34:31.084Z</time>
      </trkpt>
      <trkpt lon="-103.442718" lat="43.922179">
        <ele>1578.99</ele>
        <time>2026-08-30T12:34:35.348Z</time>
      </trkpt>
      <trkpt lon="-103.442979" lat="43.923261">
        <ele>1592.24</ele>
        <time>2026-08-30T12:34:38.932Z</time>
      </trkpt>
      <trkpt lon="-103.443015" lat="43.923608">
        <ele>1596.26</ele>
        <time>2026-08-30T12:34:40.120Z</time>
      </trkpt>
      <trkpt lon="-103.442913" lat="43.924454">
        <ele>1608.4</ele>
        <time>2026-08-30T12:34:43.108Z</time>
      </trkpt>
      <trkpt lon="-103.442869" lat="43.924614">
        <ele>1611.46</ele>
        <time>2026-08-30T12:34:43.712Z</time>
      </trkpt>
      <trkpt lon="-103.442818" lat="43.924765">
        <ele>1614.57</ele>
        <time>2026-08-30T12:34:44.292Z</time>
      </trkpt>
      <trkpt lon="-103.442756" lat="43.924912">
        <ele>1617.84</ele>
        <time>2026-08-30T12:34:44.892Z</time>
      </trkpt>
      <trkpt lon="-103.442595" lat="43.925187">
        <ele>1624.53</ele>
        <time>2026-08-30T12:34:46.088Z</time>
      </trkpt>
      <trkpt lon="-103.442237" lat="43.925528">
        <ele>1632.68</ele>
        <time>2026-08-30T12:34:47.880Z</time>
      </trkpt>
      <trkpt lon="-103.441750" lat="43.925781">
        <ele>1636.06</ele>
        <time>2026-08-30T12:34:49.684Z</time>
      </trkpt>
      <trkpt lon="-103.441559" lat="43.925851">
        <ele>1636.4</ele>
        <time>2026-08-30T12:34:50.296Z</time>
      </trkpt>
      <trkpt lon="-103.441369" lat="43.925910">
        <ele>1636.45</ele>
        <time>2026-08-30T12:34:50.892Z</time>
      </trkpt>
      <trkpt lon="-103.441167" lat="43.925965">
        <ele>1636.26</ele>
        <time>2026-08-30T12:34:51.484Z</time>
      </trkpt>
      <trkpt lon="-103.440957" lat="43.926015">
        <ele>1635.84</ele>
        <time>2026-08-30T12:34:52.084Z</time>
      </trkpt>
      <trkpt lon="-103.440509" lat="43.926100">
        <ele>1634.18</ele>
        <time>2026-08-30T12:34:53.280Z</time>
      </trkpt>
      <trkpt lon="-103.438976" lat="43.926270">
        <ele>1623.31</ele>
        <time>2026-08-30T12:34:56.880Z</time>
      </trkpt>
      <trkpt lon="-103.436890" lat="43.926442">
        <ele>1606.53</ele>
        <time>2026-08-30T12:35:01.064Z</time>
      </trkpt>
      <trkpt lon="-103.435237" lat="43.926665">
        <ele>1592.93</ele>
        <time>2026-08-30T12:35:04.068Z</time>
      </trkpt>
      <trkpt lon="-103.434227" lat="43.926890">
        <ele>1585.6</ele>
        <time>2026-08-30T12:35:05.872Z</time>
      </trkpt>
      <trkpt lon="-103.433250" lat="43.927191">
        <ele>1580</ele>
        <time>2026-08-30T12:35:07.648Z</time>
      </trkpt>
      <trkpt lon="-103.432295" lat="43.927574">
        <ele>1576.29</ele>
        <time>2026-08-30T12:35:09.468Z</time>
      </trkpt>
      <trkpt lon="-103.431131" lat="43.928167">
        <ele>1573.88</ele>
        <time>2026-08-30T12:35:11.832Z</time>
      </trkpt>
      <trkpt lon="-103.429760" lat="43.929010">
        <ele>1568.61</ele>
        <time>2026-08-30T12:35:14.792Z</time>
      </trkpt>
      <trkpt lon="-103.427499" lat="43.930386">
        <ele>1553.88</ele>
        <time>2026-08-30T12:35:19.548Z</time>
      </trkpt>
      <trkpt lon="-103.424679" lat="43.931851">
        <ele>1533.56</ele>
        <time>2026-08-30T12:35:24.904Z</time>
      </trkpt>
      <trkpt lon="-103.419464" lat="43.934425">
        <ele>1525.54</ele>
        <time>2026-08-30T12:35:34.448Z</time>
      </trkpt>
      <trkpt lon="-103.417149" lat="43.935876">
        <ele>1534.42</ele>
        <time>2026-08-30T12:35:39.244Z</time>
      </trkpt>
      <trkpt lon="-103.414590" lat="43.937447">
        <ele>1534.15</ele>
        <time>2026-08-30T12:35:44.596Z</time>
      </trkpt>
      <trkpt lon="-103.413045" lat="43.938187">
        <ele>1531.84</ele>
        <time>2026-08-30T12:35:47.544Z</time>
      </trkpt>
      <trkpt lon="-103.411054" lat="43.938961">
        <ele>1529.88</ele>
        <time>2026-08-30T12:35:51.120Z</time>
      </trkpt>
      <trkpt lon="-103.406127" lat="43.940473">
        <ele>1550.31</ele>
        <time>2026-08-30T12:35:59.952Z</time>
      </trkpt>
      <trkpt lon="-103.405271" lat="43.940835">
        <ele>1557.91</ele>
        <time>2026-08-30T12:36:01.700Z</time>
      </trkpt>
      <trkpt lon="-103.404466" lat="43.941251">
        <ele>1565.47</ele>
        <time>2026-08-30T12:36:03.488Z</time>
      </trkpt>
      <trkpt lon="-103.403750" lat="43.941706">
        <ele>1570.81</ele>
        <time>2026-08-30T12:36:05.236Z</time>
      </trkpt>
      <trkpt lon="-103.403085" lat="43.942219">
        <ele>1573.92</ele>
        <time>2026-08-30T12:36:07.016Z</time>
      </trkpt>
      <trkpt lon="-103.402291" lat="43.942968">
        <ele>1574.7</ele>
        <time>2026-08-30T12:36:09.376Z</time>
      </trkpt>
      <trkpt lon="-103.399150" lat="43.946268">
        <ele>1558.91</ele>
        <time>2026-08-30T12:36:18.856Z</time>
      </trkpt>
      <trkpt lon="-103.396425" lat="43.949150">
        <ele>1553.19</ele>
        <time>2026-08-30T12:36:26.572Z</time>
      </trkpt>
      <trkpt lon="-103.395093" lat="43.950949">
        <ele>1563.48</ele>
        <time>2026-08-30T12:36:31.308Z</time>
      </trkpt>
      <trkpt lon="-103.393729" lat="43.952712">
        <ele>1561.8</ele>
        <time>2026-08-30T12:36:36.036Z</time>
      </trkpt>
      <trkpt lon="-103.390165" lat="43.957047">
        <ele>1541.66</ele>
        <time>2026-08-30T12:36:47.312Z</time>
      </trkpt>
      <trkpt lon="-103.388648" lat="43.958960">
        <ele>1539.85</ele>
        <time>2026-08-30T12:36:52.072Z</time>
      </trkpt>
      <trkpt lon="-103.387936" lat="43.960158">
        <ele>1553.52</ele>
        <time>2026-08-30T12:36:55.036Z</time>
      </trkpt>
      <trkpt lon="-103.387526" lat="43.961088">
        <ele>1568.45</ele>
        <time>2026-08-30T12:36:57.420Z</time>
      </trkpt>
      <trkpt lon="-103.387343" lat="43.961769">
        <ele>1581.31</ele>
        <time>2026-08-30T12:36:59.216Z</time>
      </trkpt>
      <trkpt lon="-103.387275" lat="43.962422">
        <ele>1593.52</ele>
        <time>2026-08-30T12:37:00.988Z</time>
      </trkpt>
      <trkpt lon="-103.387323" lat="43.963068">
        <ele>1603.56</ele>
        <time>2026-08-30T12:37:02.800Z</time>
      </trkpt>
      <trkpt lon="-103.387425" lat="43.963478">
        <ele>1608.84</ele>
        <time>2026-08-30T12:37:03.988Z</time>
      </trkpt>
      <trkpt lon="-103.387583" lat="43.963877">
        <ele>1612.7</ele>
        <time>2026-08-30T12:37:05.188Z</time>
      </trkpt>
      <trkpt lon="-103.387794" lat="43.964256">
        <ele>1615.7</ele>
        <time>2026-08-30T12:37:06.372Z</time>
      </trkpt>
      <trkpt lon="-103.388067" lat="43.964623">
        <ele>1618.46</ele>
        <time>2026-08-30T12:37:07.576Z</time>
      </trkpt>
      <trkpt lon="-103.388570" lat="43.965120">
        <ele>1621.37</ele>
        <time>2026-08-30T12:37:09.360Z</time>
      </trkpt>
      <trkpt lon="-103.388968" lat="43.965430">
        <ele>1622.19</ele>
        <time>2026-08-30T12:37:10.556Z</time>
      </trkpt>
      <trkpt lon="-103.390104" lat="43.966134">
        <ele>1622.77</ele>
        <time>2026-08-30T12:37:13.548Z</time>
      </trkpt>
      <trkpt lon="-103.391103" lat="43.966675">
        <ele>1623.63</ele>
        <time>2026-08-30T12:37:15.952Z</time>
      </trkpt>
      <trkpt lon="-103.396319" lat="43.969191">
        <ele>1620.22</ele>
        <time>2026-08-30T12:37:27.708Z</time>
      </trkpt>
      <trkpt lon="-103.399716" lat="43.970617">
        <ele>1599.57</ele>
        <time>2026-08-30T12:37:34.180Z</time>
      </trkpt>
      <trkpt lon="-103.401079" lat="43.971124">
        <ele>1591.58</ele>
        <time>2026-08-30T12:37:36.580Z</time>
      </trkpt>
      <trkpt lon="-103.409311" lat="43.973644">
        <ele>1596.73</ele>
        <time>2026-08-30T12:37:50.148Z</time>
      </trkpt>
      <trkpt lon="-103.411189" lat="43.974086">
        <ele>1622.8</ele>
        <time>2026-08-30T12:37:53.636Z</time>
      </trkpt>
      <trkpt lon="-103.411783" lat="43.974223">
        <ele>1631.42</ele>
        <time>2026-08-30T12:37:54.808Z</time>
      </trkpt>
      <trkpt lon="-103.413697" lat="43.974754">
        <ele>1664.09</ele>
        <time>2026-08-30T12:37:58.936Z</time>
      </trkpt>
      <trkpt lon="-103.415103" lat="43.975193">
        <ele>1695.7</ele>
        <time>2026-08-30T12:38:02.432Z</time>
      </trkpt>
      <trkpt lon="-103.415542" lat="43.975337">
        <ele>1705</ele>
        <time>2026-08-30T12:38:03.604Z</time>
      </trkpt>
      <trkpt lon="-103.417498" lat="43.975780">
        <ele>1731.15</ele>
        <time>2026-08-30T12:38:08.820Z</time>
      </trkpt>
      <trkpt lon="-103.417947" lat="43.975830">
        <ele>1734.71</ele>
        <time>2026-08-30T12:38:09.972Z</time>
      </trkpt>
      <trkpt lon="-103.418630" lat="43.975876">
        <ele>1739.64</ele>
        <time>2026-08-30T12:38:11.708Z</time>
      </trkpt>
      <trkpt lon="-103.420841" lat="43.975858">
        <ele>1736.21</ele>
        <time>2026-08-30T12:38:16.944Z</time>
      </trkpt>
      <trkpt lon="-103.422836" lat="43.975833">
        <ele>1726.73</ele>
        <time>2026-08-30T12:38:21.020Z</time>
      </trkpt>
      <trkpt lon="-103.428206" lat="43.976070">
        <ele>1701.85</ele>
        <time>2026-08-30T12:38:30.964Z</time>
      </trkpt>
      <trkpt lon="-103.433091" lat="43.976684">
        <ele>1675.97</ele>
        <time>2026-08-30T12:38:39.180Z</time>
      </trkpt>
      <trkpt lon="-103.450844" lat="43.979035">
        <ele>1650.55</ele>
        <time>2026-08-30T12:39:07.420Z</time>
      </trkpt>
      <trkpt lon="-103.456685" lat="43.979607">
        <ele>1630.72</ele>
        <time>2026-08-30T12:39:16.304Z</time>
      </trkpt>
      <trkpt lon="-103.464962" lat="43.980335">
        <ele>1609.72</ele>
        <time>2026-08-30T12:39:28.904Z</time>
      </trkpt>
      <trkpt lon="-103.468803" lat="43.980827">
        <ele>1605.17</ele>
        <time>2026-08-30T12:39:34.820Z</time>
      </trkpt>
      <trkpt lon="-103.472138" lat="43.981464">
        <ele>1599.23</ele>
        <time>2026-08-30T12:39:40.084Z</time>
      </trkpt>
      <trkpt lon="-103.477904" lat="43.982987">
        <ele>1593.02</ele>
        <time>2026-08-30T12:39:49.608Z</time>
      </trkpt>
      <trkpt lon="-103.480283" lat="43.983769">
        <ele>1592</ele>
        <time>2026-08-30T12:39:53.748Z</time>
      </trkpt>
      <trkpt lon="-103.483477" lat="43.985088">
        <ele>1594.34</ele>
        <time>2026-08-30T12:39:59.588Z</time>
      </trkpt>
      <trkpt lon="-103.493226" lat="43.990095">
        <ele>1594.72</ele>
        <time>2026-08-30T12:40:19.684Z</time>
      </trkpt>
      <trkpt lon="-103.495175" lat="43.991427">
        <ele>1617.31</ele>
        <time>2026-08-30T12:40:24.388Z</time>
      </trkpt>
      <trkpt lon="-103.496966" lat="43.992932">
        <ele>1641.09</ele>
        <time>2026-08-30T12:40:29.636Z</time>
      </trkpt>
      <trkpt lon="-103.499442" lat="43.995119">
        <ele>1656.82</ele>
        <time>2026-08-30T12:40:37.300Z</time>
      </trkpt>
      <trkpt lon="-103.500467" lat="43.996647">
        <ele>1676.62</ele>
        <time>2026-08-30T12:40:42.036Z</time>
      </trkpt>
      <trkpt lon="-103.500532" lat="43.996859">
        <ele>1679.05</ele>
        <time>2026-08-30T12:40:42.628Z</time>
      </trkpt>
      <trkpt lon="-103.500585" lat="43.997076">
        <ele>1681.33</ele>
        <time>2026-08-30T12:40:43.232Z</time>
      </trkpt>
      <trkpt lon="-103.500624" lat="43.997289">
        <ele>1683.29</ele>
        <time>2026-08-30T12:40:43.808Z</time>
      </trkpt>
      <trkpt lon="-103.500654" lat="43.997735">
        <ele>1686.64</ele>
        <time>2026-08-30T12:40:45.004Z</time>
      </trkpt>
      <trkpt lon="-103.500484" lat="43.998627">
        <ele>1689.49</ele>
        <time>2026-08-30T12:40:47.336Z</time>
      </trkpt>
      <trkpt lon="-103.500298" lat="43.999085">
        <ele>1688.47</ele>
        <time>2026-08-30T12:40:48.520Z</time>
      </trkpt>
      <trkpt lon="-103.500057" lat="43.999544">
        <ele>1686.19</ele>
        <time>2026-08-30T12:40:49.712Z</time>
      </trkpt>
      <trkpt lon="-103.499594" lat="44.000236">
        <ele>1679.29</ele>
        <time>2026-08-30T12:40:51.476Z</time>
      </trkpt>
      <trkpt lon="-103.499211" lat="44.000699">
        <ele>1673.15</ele>
        <time>2026-08-30T12:40:52.672Z</time>
      </trkpt>
      <trkpt lon="-103.498541" lat="44.001379">
        <ele>1663</ele>
        <time>2026-08-30T12:40:54.440Z</time>
      </trkpt>
      <trkpt lon="-103.497760" lat="44.002076">
        <ele>1651.2</ele>
        <time>2026-08-30T12:40:56.256Z</time>
      </trkpt>
      <trkpt lon="-103.493638" lat="44.005278">
        <ele>1629.86</ele>
        <time>2026-08-30T12:41:04.604Z</time>
      </trkpt>
      <trkpt lon="-103.492016" lat="44.006823">
        <ele>1624.07</ele>
        <time>2026-08-30T12:41:08.208Z</time>
      </trkpt>
      <trkpt lon="-103.491375" lat="44.007657">
        <ele>1625.38</ele>
        <time>2026-08-30T12:41:09.992Z</time>
      </trkpt>
      <trkpt lon="-103.490874" lat="44.008520">
        <ele>1627.54</ele>
        <time>2026-08-30T12:41:11.772Z</time>
      </trkpt>
      <trkpt lon="-103.490515" lat="44.009405">
        <ele>1629.95</ele>
        <time>2026-08-30T12:41:13.552Z</time>
      </trkpt>
      <trkpt lon="-103.490286" lat="44.010313">
        <ele>1630.7</ele>
        <time>2026-08-30T12:41:15.340Z</time>
      </trkpt>
      <trkpt lon="-103.490187" lat="44.011254">
        <ele>1630.19</ele>
        <time>2026-08-30T12:41:17.168Z</time>
      </trkpt>
      <trkpt lon="-103.490198" lat="44.011881">
        <ele>1630.29</ele>
        <time>2026-08-30T12:41:18.380Z</time>
      </trkpt>
      <trkpt lon="-103.490337" lat="44.012801">
        <ele>1631.45</ele>
        <time>2026-08-30T12:41:20.180Z</time>
      </trkpt>
      <trkpt lon="-103.490706" lat="44.014021">
        <ele>1633.67</ele>
        <time>2026-08-30T12:41:22.632Z</time>
      </trkpt>
      <trkpt lon="-103.491981" lat="44.017805">
        <ele>1650.07</ele>
        <time>2026-08-30T12:41:30.468Z</time>
      </trkpt>
      <trkpt lon="-103.492319" lat="44.019858">
        <ele>1647.74</ele>
        <time>2026-08-30T12:41:34.652Z</time>
      </trkpt>
      <trkpt lon="-103.492415" lat="44.022344">
        <ele>1630.28</ele>
        <time>2026-08-30T12:41:39.400Z</time>
      </trkpt>
      <trkpt lon="-103.492895" lat="44.025489">
        <ele>1628.94</ele>
        <time>2026-08-30T12:41:45.332Z</time>
      </trkpt>
      <trkpt lon="-103.493097" lat="44.026097">
        <ele>1628.94</ele>
        <time>2026-08-30T12:41:46.516Z</time>
      </trkpt>
      <trkpt lon="-103.496784" lat="44.034722">
        <ele>1642.35</ele>
        <time>2026-08-30T12:42:03.696Z</time>
      </trkpt>
      <trkpt lon="-103.497233" lat="44.036352">
        <ele>1665.27</ele>
        <time>2026-08-30T12:42:07.236Z</time>
      </trkpt>
      <trkpt lon="-103.497456" lat="44.037611">
        <ele>1688.27</ele>
        <time>2026-08-30T12:42:10.180Z</time>
      </trkpt>
      <trkpt lon="-103.497658" lat="44.042057">
        <ele>1693.01</ele>
        <time>2026-08-30T12:42:20.724Z</time>
      </trkpt>
      <trkpt lon="-103.497356" lat="44.045479">
        <ele>1685.9</ele>
        <time>2026-08-30T12:42:27.816Z</time>
      </trkpt>
      <trkpt lon="-103.497276" lat="44.046054">
        <ele>1684.87</ele>
        <time>2026-08-30T12:42:28.976Z</time>
      </trkpt>
      <trkpt lon="-103.496286" lat="44.049011">
        <ele>1675.8</ele>
        <time>2026-08-30T12:42:34.884Z</time>
      </trkpt>
      <trkpt lon="-103.495680" lat="44.050148">
        <ele>1681.25</ele>
        <time>2026-08-30T12:42:37.248Z</time>
      </trkpt>
      <trkpt lon="-103.492825" lat="44.054622">
        <ele>1657.81</ele>
        <time>2026-08-30T12:42:46.624Z</time>
      </trkpt>
      <trkpt lon="-103.491998" lat="44.055798">
        <ele>1646</ele>
        <time>2026-08-30T12:42:48.972Z</time>
      </trkpt>
      <trkpt lon="-103.489345" lat="44.059237">
        <ele>1621.22</ele>
        <time>2026-08-30T12:42:56.052Z</time>
      </trkpt>
      <trkpt lon="-103.487891" lat="44.061002">
        <ele>1597.2</ele>
        <time>2026-08-30T12:42:59.592Z</time>
      </trkpt>
      <trkpt lon="-103.486541" lat="44.062639">
        <ele>1583.76</ele>
        <time>2026-08-30T12:43:02.928Z</time>
      </trkpt>
      <trkpt lon="-103.484676" lat="44.065037">
        <ele>1559.74</ele>
        <time>2026-08-30T12:43:07.616Z</time>
      </trkpt>
      <trkpt lon="-103.483560" lat="44.066566">
        <ele>1537.79</ele>
        <time>2026-08-30T12:43:10.552Z</time>
      </trkpt>
      <trkpt lon="-103.483137" lat="44.067217">
        <ele>1530.06</ele>
        <time>2026-08-30T12:43:11.756Z</time>
      </trkpt>
      <trkpt lon="-103.482798" lat="44.067874">
        <ele>1526.61</ele>
        <time>2026-08-30T12:43:12.936Z</time>
      </trkpt>
      <trkpt lon="-103.482402" lat="44.069202">
        <ele>1527.48</ele>
        <time>2026-08-30T12:43:15.324Z</time>
      </trkpt>
      <trkpt lon="-103.482319" lat="44.069855">
        <ele>1526.47</ele>
        <time>2026-08-30T12:43:16.496Z</time>
      </trkpt>
      <trkpt lon="-103.482321" lat="44.070516">
        <ele>1525.14</ele>
        <time>2026-08-30T12:43:17.692Z</time>
      </trkpt>
      <trkpt lon="-103.482512" lat="44.071488">
        <ele>1523.41</ele>
        <time>2026-08-30T12:43:19.488Z</time>
      </trkpt>
      <trkpt lon="-103.482740" lat="44.072103">
        <ele>1521.37</ele>
        <time>2026-08-30T12:43:20.672Z</time>
      </trkpt>
      <trkpt lon="-103.483210" lat="44.073012">
        <ele>1515.59</ele>
        <time>2026-08-30T12:43:22.464Z</time>
      </trkpt>
      <trkpt lon="-103.483811" lat="44.073857">
        <ele>1510.26</ele>
        <time>2026-08-30T12:43:24.228Z</time>
      </trkpt>
      <trkpt lon="-103.484537" lat="44.074636">
        <ele>1506.33</ele>
        <time>2026-08-30T12:43:25.976Z</time>
      </trkpt>
      <trkpt lon="-103.485934" lat="44.075845">
        <ele>1502.47</ele>
        <time>2026-08-30T12:43:28.936Z</time>
      </trkpt>
      <trkpt lon="-103.489695" lat="44.078833">
        <ele>1515.36</ele>
        <time>2026-08-30T12:43:36.660Z</time>
      </trkpt>
      <trkpt lon="-103.490722" lat="44.079643">
        <ele>1537.09</ele>
        <time>2026-08-30T12:43:39.004Z</time>
      </trkpt>
      <trkpt lon="-103.491687" lat="44.080391">
        <ele>1559.93</ele>
        <time>2026-08-30T12:43:41.344Z</time>
      </trkpt>
      <trkpt lon="-103.492830" lat="44.081267">
        <ele>1588.19</ele>
        <time>2026-08-30T12:43:44.300Z</time>
      </trkpt>
      <trkpt lon="-103.493915" lat="44.082040">
        <ele>1615.92</ele>
        <time>2026-08-30T12:43:47.248Z</time>
      </trkpt>
      <trkpt lon="-103.494363" lat="44.082323">
        <ele>1625.53</ele>
        <time>2026-08-30T12:43:48.424Z</time>
      </trkpt>
      <trkpt lon="-103.495040" lat="44.082705">
        <ele>1640.04</ele>
        <time>2026-08-30T12:43:50.180Z</time>
      </trkpt>
      <trkpt lon="-103.496158" lat="44.083254">
        <ele>1666.88</ele>
        <time>2026-08-30T12:43:53.104Z</time>
      </trkpt>
      <trkpt lon="-103.497432" lat="44.083816">
        <ele>1698.61</ele>
        <time>2026-08-30T12:43:56.592Z</time>
      </trkpt>
      <trkpt lon="-103.498632" lat="44.084312">
        <ele>1729.15</ele>
        <time>2026-08-30T12:44:00.084Z</time>
      </trkpt>
      <trkpt lon="-103.499938" lat="44.084823">
        <ele>1761.64</ele>
        <time>2026-08-30T12:44:04.140Z</time>
      </trkpt>
      <trkpt lon="-103.501531" lat="44.085478">
        <ele>1795.64</ele>
        <time>2026-08-30T12:44:09.340Z</time>
      </trkpt>
      <trkpt lon="-103.503086" lat="44.086140">
        <ele>1809.36</ele>
        <time>2026-08-30T12:44:14.004Z</time>
      </trkpt>
      <trkpt lon="-103.504590" lat="44.086875">
        <ele>1812.72</ele>
        <time>2026-08-30T12:44:18.068Z</time>
      </trkpt>
      <trkpt lon="-103.506409" lat="44.087938">
        <ele>1812.15</ele>
        <time>2026-08-30T12:44:22.704Z</time>
      </trkpt>
      <trkpt lon="-103.507575" lat="44.088735">
        <ele>1804.87</ele>
        <time>2026-08-30T12:44:25.592Z</time>
      </trkpt>
      <trkpt lon="-103.508770" lat="44.089663">
        <ele>1788.7</ele>
        <time>2026-08-30T12:44:28.504Z</time>
      </trkpt>
      <trkpt lon="-103.510930" lat="44.091637">
        <ele>1760.35</ele>
        <time>2026-08-30T12:44:33.708Z</time>
      </trkpt>
      <trkpt lon="-103.517136" lat="44.098423">
        <ele>1743.11</ele>
        <time>2026-08-30T12:44:49.444Z</time>
      </trkpt>
      <trkpt lon="-103.530221" lat="44.110436">
        <ele>1767.35</ele>
        <time>2026-08-30T12:45:19.704Z</time>
      </trkpt>
      <trkpt lon="-103.533747" lat="44.113076">
        <ele>1751.51</ele>
        <time>2026-08-30T12:45:28.544Z</time>
      </trkpt>
      <trkpt lon="-103.536800" lat="44.115159">
        <ele>1731.14</ele>
        <time>2026-08-30T12:45:35.296Z</time>
      </trkpt>
      <trkpt lon="-103.537590" lat="44.115792">
        <ele>1734.51</ele>
        <time>2026-08-30T12:45:36.704Z</time>
      </trkpt>
      <trkpt lon="-103.538081" lat="44.116239">
        <ele>1744.63</ele>
        <time>2026-08-30T12:45:37.888Z</time>
      </trkpt>
      <trkpt lon="-103.538517" lat="44.116640">
        <ele>1757.13</ele>
        <time>2026-08-30T12:45:39.052Z</time>
      </trkpt>
      <trkpt lon="-103.538949" lat="44.117034">
        <ele>1766.85</ele>
        <time>2026-08-30T12:45:40.232Z</time>
      </trkpt>
      <trkpt lon="-103.541341" lat="44.119434">
        <ele>1795.45</ele>
        <time>2026-08-30T12:45:47.292Z</time>
      </trkpt>
      <trkpt lon="-103.543434" lat="44.121661">
        <ele>1823.99</ele>
        <time>2026-08-30T12:45:54.004Z</time>
      </trkpt>
      <trkpt lon="-103.545283" lat="44.123902">
        <ele>1854.25</ele>
        <time>2026-08-30T12:46:01.308Z</time>
      </trkpt>
      <trkpt lon="-103.546770" lat="44.126041">
        <ele>1886.13</ele>
        <time>2026-08-30T12:46:08.264Z</time>
      </trkpt>
      <trkpt lon="-103.547895" lat="44.127239">
        <ele>1882.68</ele>
        <time>2026-08-30T12:46:12.332Z</time>
      </trkpt>
      <trkpt lon="-103.549228" lat="44.128251">
        <ele>1865.56</ele>
        <time>2026-08-30T12:46:15.792Z</time>
      </trkpt>
      <trkpt lon="-103.550016" lat="44.128739">
        <ele>1858.69</ele>
        <time>2026-08-30T12:46:17.540Z</time>
      </trkpt>
      <trkpt lon="-103.552919" lat="44.130143">
        <ele>1847.63</ele>
        <time>2026-08-30T12:46:23.396Z</time>
      </trkpt>
      <trkpt lon="-103.555954" lat="44.131670">
        <ele>1826.62</ele>
        <time>2026-08-30T12:46:29.208Z</time>
      </trkpt>
      <trkpt lon="-103.557056" lat="44.132338">
        <ele>1832.26</ele>
        <time>2026-08-30T12:46:31.520Z</time>
      </trkpt>
      <trkpt lon="-103.560749" lat="44.135053">
        <ele>1821.03</ele>
        <time>2026-08-30T12:46:40.260Z</time>
      </trkpt>
      <trkpt lon="-103.566568" lat="44.140006">
        <ele>1794.31</ele>
        <time>2026-08-30T12:46:54.232Z</time>
      </trkpt>
      <trkpt lon="-103.570786" lat="44.143241">
        <ele>1770.63</ele>
        <time>2026-08-30T12:47:03.508Z</time>
      </trkpt>
      <trkpt lon="-103.574826" lat="44.146633">
        <ele>1753.27</ele>
        <time>2026-08-30T12:47:12.840Z</time>
      </trkpt>
      <trkpt lon="-103.575310" lat="44.147078">
        <ele>1752.45</ele>
        <time>2026-08-30T12:47:14.008Z</time>
      </trkpt>
      <trkpt lon="-103.582188" lat="44.154631">
        <ele>1730.73</ele>
        <time>2026-08-30T12:47:32.572Z</time>
      </trkpt>
      <trkpt lon="-103.590323" lat="44.164564">
        <ele>1742.4</ele>
        <time>2026-08-30T12:47:56.376Z</time>
      </trkpt>
      <trkpt lon="-103.591220" lat="44.165749">
        <ele>1748.1</ele>
        <time>2026-08-30T12:47:59.304Z</time>
      </trkpt>
      <trkpt lon="-103.601940" lat="44.178106">
        <ele>1733.73</ele>
        <time>2026-08-30T12:48:29.580Z</time>
      </trkpt>
      <trkpt lon="-103.603718" lat="44.179682">
        <ele>1740.14</ele>
        <time>2026-08-30T12:48:33.748Z</time>
      </trkpt>
      <trkpt lon="-103.606229" lat="44.181506">
        <ele>1736.64</ele>
        <time>2026-08-30T12:48:39.024Z</time>
      </trkpt>
      <trkpt lon="-103.607805" lat="44.182388">
        <ele>1731.69</ele>
        <time>2026-08-30T12:48:41.932Z</time>
      </trkpt>
      <trkpt lon="-103.610232" lat="44.183480">
        <ele>1720.47</ele>
        <time>2026-08-30T12:48:46.108Z</time>
      </trkpt>
      <trkpt lon="-103.623314" lat="44.188713">
        <ele>1724.09</ele>
        <time>2026-08-30T12:49:08.732Z</time>
      </trkpt>
      <trkpt lon="-103.630752" lat="44.192855">
        <ele>1744.04</ele>
        <time>2026-08-30T12:49:24.268Z</time>
      </trkpt>
      <trkpt lon="-103.641663" lat="44.199793">
        <ele>1744.13</ele>
        <time>2026-08-30T12:49:48.212Z</time>
      </trkpt>
      <trkpt lon="-103.642847" lat="44.200600">
        <ele>1725.28</ele>
        <time>2026-08-30T12:49:50.604Z</time>
      </trkpt>
      <trkpt lon="-103.645433" lat="44.202281">
        <ele>1741.38</ele>
        <time>2026-08-30T12:49:55.908Z</time>
      </trkpt>
      <trkpt lon="-103.648067" lat="44.204065">
        <ele>1755.7</ele>
        <time>2026-08-30T12:50:01.748Z</time>
      </trkpt>
      <trkpt lon="-103.653435" lat="44.208283">
        <ele>1765.27</ele>
        <time>2026-08-30T12:50:14.716Z</time>
      </trkpt>
      <trkpt lon="-103.656988" lat="44.211427">
        <ele>1785.66</ele>
        <time>2026-08-30T12:50:24.288Z</time>
      </trkpt>
      <trkpt lon="-103.661559" lat="44.215577">
        <ele>1795.51</ele>
        <time>2026-08-30T12:50:37.392Z</time>
      </trkpt>
      <trkpt lon="-103.665119" lat="44.218977">
        <ele>1795.18</ele>
        <time>2026-08-30T12:50:47.476Z</time>
      </trkpt>
      <trkpt lon="-103.677080" lat="44.228678">
        <ele>1809.65</ele>
        <time>2026-08-30T12:51:17.668Z</time>
      </trkpt>
      <trkpt lon="-103.680039" lat="44.230940">
        <ele>1805.97</ele>
        <time>2026-08-30T12:51:24.776Z</time>
      </trkpt>
      <trkpt lon="-103.681583" lat="44.232430">
        <ele>1805.26</ele>
        <time>2026-08-30T12:51:28.976Z</time>
      </trkpt>
      <trkpt lon="-103.683732" lat="44.235319">
        <ele>1794.59</ele>
        <time>2026-08-30T12:51:36.236Z</time>
      </trkpt>
      <trkpt lon="-103.685083" lat="44.237051">
        <ele>1790.34</ele>
        <time>2026-08-30T12:51:40.452Z</time>
      </trkpt>
      <trkpt lon="-103.691274" lat="44.243985">
        <ele>1796.77</ele>
        <time>2026-08-30T12:51:57.844Z</time>
      </trkpt>
      <trkpt lon="-103.693093" lat="44.247010">
        <ele>1816.96</ele>
        <time>2026-08-30T12:52:04.924Z</time>
      </trkpt>
      <trkpt lon="-103.695403" lat="44.250940">
        <ele>1833.77</ele>
        <time>2026-08-30T12:52:14.412Z</time>
      </trkpt>
      <trkpt lon="-103.695942" lat="44.251940">
        <ele>1835.37</ele>
        <time>2026-08-30T12:52:16.768Z</time>
      </trkpt>
      <trkpt lon="-103.696430" lat="44.252985">
        <ele>1835.18</ele>
        <time>2026-08-30T12:52:19.164Z</time>
      </trkpt>
      <trkpt lon="-103.697450" lat="44.255665">
        <ele>1833.95</ele>
        <time>2026-08-30T12:52:25.128Z</time>
      </trkpt>
      <trkpt lon="-103.697774" lat="44.257354">
        <ele>1831.27</ele>
        <time>2026-08-30T12:52:28.696Z</time>
      </trkpt>
      <trkpt lon="-103.697820" lat="44.258218">
        <ele>1829.71</ele>
        <time>2026-08-30T12:52:30.488Z</time>
      </trkpt>
      <trkpt lon="-103.697736" lat="44.259379">
        <ele>1827.79</ele>
        <time>2026-08-30T12:52:32.880Z</time>
      </trkpt>
      <trkpt lon="-103.697569" lat="44.260244">
        <ele>1827.03</ele>
        <time>2026-08-30T12:52:34.668Z</time>
      </trkpt>
      <trkpt lon="-103.697110" lat="44.261656">
        <ele>1826.47</ele>
        <time>2026-08-30T12:52:37.628Z</time>
      </trkpt>
      <trkpt lon="-103.694706" lat="44.267130">
        <ele>1808.03</ele>
        <time>2026-08-30T12:52:49.076Z</time>
      </trkpt>
      <trkpt lon="-103.694389" lat="44.268981">
        <ele>1804.79</ele>
        <time>2026-08-30T12:52:52.744Z</time>
      </trkpt>
      <trkpt lon="-103.694354" lat="44.270776">
        <ele>1806.39</ele>
        <time>2026-08-30T12:52:56.308Z</time>
      </trkpt>
      <trkpt lon="-103.694505" lat="44.271923">
        <ele>1812.21</ele>
        <time>2026-08-30T12:52:58.684Z</time>
      </trkpt>
      <trkpt lon="-103.694707" lat="44.272756">
        <ele>1816.16</ele>
        <time>2026-08-30T12:53:00.456Z</time>
      </trkpt>
      <trkpt lon="-103.695305" lat="44.274345">
        <ele>1822.16</ele>
        <time>2026-08-30T12:53:03.988Z</time>
      </trkpt>
      <trkpt lon="-103.696301" lat="44.276084">
        <ele>1829.82</ele>
        <time>2026-08-30T12:53:08.140Z</time>
      </trkpt>
      <trkpt lon="-103.697106" lat="44.277288">
        <ele>1832.03</ele>
        <time>2026-08-30T12:53:11.104Z</time>
      </trkpt>
      <trkpt lon="-103.697402" lat="44.277772">
        <ele>1832.48</ele>
        <time>2026-08-30T12:53:12.268Z</time>
      </trkpt>
      <trkpt lon="-103.697910" lat="44.279320">
        <ele>1833.62</ele>
        <time>2026-08-30T12:53:15.828Z</time>
      </trkpt>
      <trkpt lon="-103.697940" lat="44.279846">
        <ele>1833.79</ele>
        <time>2026-08-30T12:53:17.012Z</time>
      </trkpt>
      <trkpt lon="-103.697780" lat="44.280902">
        <ele>1833.07</ele>
        <time>2026-08-30T12:53:19.372Z</time>
      </trkpt>
      <trkpt lon="-103.697596" lat="44.281429">
        <ele>1830.46</ele>
        <time>2026-08-30T12:53:20.560Z</time>
      </trkpt>
      <trkpt lon="-103.697346" lat="44.281950">
        <ele>1826.96</ele>
        <time>2026-08-30T12:53:21.752Z</time>
      </trkpt>
      <trkpt lon="-103.697036" lat="44.282468">
        <ele>1822.69</ele>
        <time>2026-08-30T12:53:22.944Z</time>
      </trkpt>
      <trkpt lon="-103.696053" lat="44.283731">
        <ele>1808.15</ele>
        <time>2026-08-30T12:53:25.908Z</time>
      </trkpt>
      <trkpt lon="-103.694862" lat="44.284986">
        <ele>1790.17</ele>
        <time>2026-08-30T12:53:28.872Z</time>
      </trkpt>
      <trkpt lon="-103.692693" lat="44.286947">
        <ele>1771.07</ele>
        <time>2026-08-30T12:53:33.592Z</time>
      </trkpt>
      <trkpt lon="-103.689895" lat="44.289023">
        <ele>1750.52</ele>
        <time>2026-08-30T12:53:38.916Z</time>
      </trkpt>
      <trkpt lon="-103.685462" lat="44.291842">
        <ele>1729.33</ele>
        <time>2026-08-30T12:53:46.636Z</time>
      </trkpt>
      <trkpt lon="-103.684211" lat="44.292821">
        <ele>1720.72</ele>
        <time>2026-08-30T12:53:49.012Z</time>
      </trkpt>
      <trkpt lon="-103.682859" lat="44.294123">
        <ele>1720.16</ele>
        <time>2026-08-30T12:53:51.976Z</time>
      </trkpt>
      <trkpt lon="-103.681925" lat="44.295219">
        <ele>1722.89</ele>
        <time>2026-08-30T12:53:54.388Z</time>
      </trkpt>
      <trkpt lon="-103.680772" lat="44.296855">
        <ele>1729.05</ele>
        <time>2026-08-30T12:53:57.948Z</time>
      </trkpt>
      <trkpt lon="-103.676352" lat="44.304130">
        <ele>1718.43</ele>
        <time>2026-08-30T12:54:13.912Z</time>
      </trkpt>
      <trkpt lon="-103.676239" lat="44.304417">
        <ele>1719.17</ele>
        <time>2026-08-30T12:54:14.516Z</time>
      </trkpt>
      <trkpt lon="-103.676160" lat="44.304703">
        <ele>1721.05</ele>
        <time>2026-08-30T12:54:15.116Z</time>
      </trkpt>
      <trkpt lon="-103.676129" lat="44.304976">
        <ele>1723.48</ele>
        <time>2026-08-30T12:54:15.712Z</time>
      </trkpt>
      <trkpt lon="-103.676587" lat="44.306206">
        <ele>1717.41</ele>
        <time>2026-08-30T12:54:18.644Z</time>
      </trkpt>
      <trkpt lon="-103.676764" lat="44.306438">
        <ele>1711.71</ele>
        <time>2026-08-30T12:54:19.248Z</time>
      </trkpt>
      <trkpt lon="-103.676969" lat="44.306654">
        <ele>1706.15</ele>
        <time>2026-08-30T12:54:19.832Z</time>
      </trkpt>
      <trkpt lon="-103.677212" lat="44.306856">
        <ele>1701.29</ele>
        <time>2026-08-30T12:54:20.436Z</time>
      </trkpt>
      <trkpt lon="-103.678427" lat="44.307406">
        <ele>1688.91</ele>
        <time>2026-08-30T12:54:22.828Z</time>
      </trkpt>
      <trkpt lon="-103.678775" lat="44.307497">
        <ele>1686.73</ele>
        <time>2026-08-30T12:54:23.436Z</time>
      </trkpt>
      <trkpt lon="-103.679487" lat="44.307643">
        <ele>1683.32</ele>
        <time>2026-08-30T12:54:24.648Z</time>
      </trkpt>
      <trkpt lon="-103.681279" lat="44.307989">
        <ele>1676.78</ele>
        <time>2026-08-30T12:54:27.628Z</time>
      </trkpt>
      <trkpt lon="-103.681978" lat="44.308189">
        <ele>1677.04</ele>
        <time>2026-08-30T12:54:28.840Z</time>
      </trkpt>
      <trkpt lon="-103.683559" lat="44.308877">
        <ele>1680.09</ele>
        <time>2026-08-30T12:54:31.880Z</time>
      </trkpt>
      <trkpt lon="-103.686999" lat="44.310648">
        <ele>1698.42</ele>
        <time>2026-08-30T12:54:39.104Z</time>
      </trkpt>
      <trkpt lon="-103.687630" lat="44.310841">
        <ele>1700.41</ele>
        <time>2026-08-30T12:54:40.304Z</time>
      </trkpt>
      <trkpt lon="-103.687958" lat="44.310916">
        <ele>1701.2</ele>
        <time>2026-08-30T12:54:40.900Z</time>
      </trkpt>
      <trkpt lon="-103.688619" lat="44.311023">
        <ele>1702.44</ele>
        <time>2026-08-30T12:54:42.088Z</time>
      </trkpt>
      <trkpt lon="-103.689976" lat="44.311122">
        <ele>1705.99</ele>
        <time>2026-08-30T12:54:44.492Z</time>
      </trkpt>
      <trkpt lon="-103.691682" lat="44.311267">
        <ele>1712.92</ele>
        <time>2026-08-30T12:54:47.544Z</time>
      </trkpt>
      <trkpt lon="-103.692001" lat="44.311327">
        <ele>1714.53</ele>
        <time>2026-08-30T12:54:48.140Z</time>
      </trkpt>
      <trkpt lon="-103.692316" lat="44.311405">
        <ele>1716.52</ele>
        <time>2026-08-30T12:54:48.748Z</time>
      </trkpt>
      <trkpt lon="-103.692612" lat="44.311498">
        <ele>1719.01</ele>
        <time>2026-08-30T12:54:49.356Z</time>
      </trkpt>
      <trkpt lon="-103.693162" lat="44.311741">
        <ele>1725.62</ele>
        <time>2026-08-30T12:54:50.576Z</time>
      </trkpt>
      <trkpt lon="-103.693822" lat="44.312171">
        <ele>1735.56</ele>
        <time>2026-08-30T12:54:52.348Z</time>
      </trkpt>
      <trkpt lon="-103.694292" lat="44.312576">
        <ele>1742.36</ele>
        <time>2026-08-30T12:54:53.832Z</time>
      </trkpt>
      <trkpt lon="-103.694643" lat="44.312934">
        <ele>1746.38</ele>
        <time>2026-08-30T12:54:55.060Z</time>
      </trkpt>
      <trkpt lon="-103.696672" lat="44.315167">
        <ele>1762.39</ele>
        <time>2026-08-30T12:55:02.340Z</time>
      </trkpt>
      <trkpt lon="-103.697547" lat="44.315752">
        <ele>1772.72</ele>
        <time>2026-08-30T12:55:04.748Z</time>
      </trkpt>
      <trkpt lon="-103.698023" lat="44.315998">
        <ele>1777.52</ele>
        <time>2026-08-30T12:55:05.956Z</time>
      </trkpt>
      <trkpt lon="-103.698757" lat="44.316325">
        <ele>1783.49</ele>
        <time>2026-08-30T12:55:07.752Z</time>
      </trkpt>
      <trkpt lon="-103.705332" lat="44.319226">
        <ele>1797.41</ele>
        <time>2026-08-30T12:55:23.408Z</time>
      </trkpt>
      <trkpt lon="-103.706600" lat="44.320019">
        <ele>1792.68</ele>
        <time>2026-08-30T12:55:26.472Z</time>
      </trkpt>
      <trkpt lon="-103.707064" lat="44.320404">
        <ele>1789.52</ele>
        <time>2026-08-30T12:55:27.716Z</time>
      </trkpt>
      <trkpt lon="-103.707468" lat="44.320807">
        <ele>1786.62</ele>
        <time>2026-08-30T12:55:28.904Z</time>
      </trkpt>
      <trkpt lon="-103.708347" lat="44.321928">
        <ele>1779.38</ele>
        <time>2026-08-30T12:55:31.912Z</time>
      </trkpt>
      <trkpt lon="-103.709132" lat="44.323115">
        <ele>1773.55</ele>
        <time>2026-08-30T12:55:34.900Z</time>
      </trkpt>
      <trkpt lon="-103.711472" lat="44.326491">
        <ele>1759.96</ele>
        <time>2026-08-30T12:55:43.336Z</time>
      </trkpt>
      <trkpt lon="-103.712475" lat="44.327626">
        <ele>1757.68</ele>
        <time>2026-08-30T12:55:46.320Z</time>
      </trkpt>
      <trkpt lon="-103.713839" lat="44.328916">
        <ele>1752.96</ele>
        <time>2026-08-30T12:55:49.896Z</time>
      </trkpt>
      <trkpt lon="-103.717174" lat="44.331670">
        <ele>1731.32</ele>
        <time>2026-08-30T12:55:57.692Z</time>
      </trkpt>
      <trkpt lon="-103.719422" lat="44.333687">
        <ele>1715.11</ele>
        <time>2026-08-30T12:56:03.048Z</time>
      </trkpt>
      <trkpt lon="-103.720765" lat="44.335148">
        <ele>1705.18</ele>
        <time>2026-08-30T12:56:06.620Z</time>
      </trkpt>
      <trkpt lon="-103.722536" lat="44.337490">
        <ele>1683.6</ele>
        <time>2026-08-30T12:56:11.928Z</time>
      </trkpt>
      <trkpt lon="-103.724412" lat="44.340283">
        <ele>1661.72</ele>
        <time>2026-08-30T12:56:17.944Z</time>
      </trkpt>
      <trkpt lon="-103.726070" lat="44.342508">
        <ele>1641.03</ele>
        <time>2026-08-30T12:56:22.736Z</time>
      </trkpt>
      <trkpt lon="-103.726804" lat="44.343295">
        <ele>1634.34</ele>
        <time>2026-08-30T12:56:24.508Z</time>
      </trkpt>
      <trkpt lon="-103.728499" lat="44.344716">
        <ele>1637.96</ele>
        <time>2026-08-30T12:56:28.076Z</time>
      </trkpt>
      <trkpt lon="-103.728790" lat="44.344931">
        <ele>1639.69</ele>
        <time>2026-08-30T12:56:28.660Z</time>
      </trkpt>
      <trkpt lon="-103.731391" lat="44.346504">
        <ele>1653.16</ele>
        <time>2026-08-30T12:56:33.660Z</time>
      </trkpt>
      <trkpt lon="-103.735980" lat="44.348801">
        <ele>1648.41</ele>
        <time>2026-08-30T12:56:42.444Z</time>
      </trkpt>
      <trkpt lon="-103.736822" lat="44.349346">
        <ele>1644.01</ele>
        <time>2026-08-30T12:56:44.216Z</time>
      </trkpt>
      <trkpt lon="-103.737579" lat="44.349954">
        <ele>1638.93</ele>
        <time>2026-08-30T12:56:45.956Z</time>
      </trkpt>
      <trkpt lon="-103.738233" lat="44.350628">
        <ele>1634.06</ele>
        <time>2026-08-30T12:56:47.696Z</time>
      </trkpt>
      <trkpt lon="-103.738785" lat="44.351356">
        <ele>1627.96</ele>
        <time>2026-08-30T12:56:49.424Z</time>
      </trkpt>
      <trkpt lon="-103.739397" lat="44.352413">
        <ele>1614.5</ele>
        <time>2026-08-30T12:56:51.764Z</time>
      </trkpt>
      <trkpt lon="-103.739641" lat="44.352979">
        <ele>1607.24</ele>
        <time>2026-08-30T12:56:52.944Z</time>
      </trkpt>
      <trkpt lon="-103.739817" lat="44.353553">
        <ele>1603.21</ele>
        <time>2026-08-30T12:56:54.120Z</time>
      </trkpt>
      <trkpt lon="-103.739990" lat="44.355025">
        <ele>1603.17</ele>
        <time>2026-08-30T12:56:57.132Z</time>
      </trkpt>
      <trkpt lon="-103.739946" lat="44.355870">
        <ele>1604.15</ele>
        <time>2026-08-30T12:56:58.888Z</time>
      </trkpt>
      <trkpt lon="-103.739578" lat="44.357796">
        <ele>1603.81</ele>
        <time>2026-08-30T12:57:03.000Z</time>
      </trkpt>
      <trkpt lon="-103.738483" lat="44.361405">
        <ele>1581.5</ele>
        <time>2026-08-30T12:57:10.684Z</time>
      </trkpt>
      <trkpt lon="-103.737655" lat="44.363745">
        <ele>1559.28</ele>
        <time>2026-08-30T12:57:15.416Z</time>
      </trkpt>
      <trkpt lon="-103.736835" lat="44.365495">
        <ele>1544.83</ele>
        <time>2026-08-30T12:57:18.944Z</time>
      </trkpt>
      <trkpt lon="-103.735742" lat="44.367173">
        <ele>1536.06</ele>
        <time>2026-08-30T12:57:22.492Z</time>
      </trkpt>
      <trkpt lon="-103.734535" lat="44.368657">
        <ele>1510.25</ele>
        <time>2026-08-30T12:57:43.404Z</time>
      </trkpt>
      <trkpt lon="-103.733705" lat="44.369522">
        <ele>1482.16</ele>
        <time>2026-08-30T12:57:45.236Z</time>
      </trkpt>
      <trkpt lon="-103.733114" lat="44.370069">
        <ele>1461.89</ele>
        <time>2026-08-30T12:57:46.456Z</time>
      </trkpt>
      <trkpt lon="-103.732473" lat="44.370599">
        <ele>1443.48</ele>
        <time>2026-08-30T12:57:47.656Z</time>
      </trkpt>
      <trkpt lon="-103.732087" lat="44.370819">
        <ele>1444.63</ele>
        <time>2026-08-30T12:57:48.264Z</time>
      </trkpt>
      <trkpt lon="-103.731297" lat="44.371123">
        <ele>1450.75</ele>
        <time>2026-08-30T12:57:49.468Z</time>
      </trkpt>
      <trkpt lon="-103.730874" lat="44.371257">
        <ele>1450.41</ele>
        <time>2026-08-30T12:57:50.096Z</time>
      </trkpt>
      <trkpt lon="-103.730055" lat="44.371516">
        <ele>1444.71</ele>
        <time>2026-08-30T12:57:51.360Z</time>
      </trkpt>
      <trkpt lon="-103.729681" lat="44.371639">
        <ele>1437.11</ele>
        <time>2026-08-30T12:57:51.968Z</time>
      </trkpt>
      <trkpt lon="-103.729018" lat="44.371851">
        <ele>1407.9</ele>
        <time>2026-08-30T12:57:53.172Z</time>
      </trkpt>
      <trkpt lon="-103.728417" lat="44.372047">
        <ele>1398.21</ele>
        <time>2026-08-30T12:57:54.404Z</time>
      </trkpt>
      <trkpt lon="-103.727878" lat="44.372275">
        <ele>1409.32</ele>
        <time>2026-08-30T12:57:55.616Z</time>
      </trkpt>
      <trkpt lon="-103.727619" lat="44.372408">
        <ele>1411.93</ele>
        <time>2026-08-30T12:57:56.236Z</time>
      </trkpt>
      <trkpt lon="-103.727276" lat="44.372602">
        <ele>1410.69</ele>
        <time>2026-08-30T12:59:46.012Z</time>
      </trkpt>
      <trkpt lon="-103.726722" lat="44.372881">
        <ele>1396.14</ele>
        <time>2026-08-30T12:59:47.780Z</time>
      </trkpt>
      <trkpt lon="-103.726740" lat="44.372907">
        <ele>1398.31</ele>
        <time>2026-08-30T12:59:48.960Z</time>
      </trkpt>
      <trkpt lon="-103.726754" lat="44.372927">
        <ele>1399.07</ele>
        <time>2026-08-30T12:59:49.540Z</time>
      </trkpt>
      <trkpt lon="-103.726745" lat="44.372914">
        <ele>1395.87</ele>
        <time>2026-08-30T12:59:52.448Z</time>
      </trkpt>
      <trkpt lon="-103.726730" lat="44.372937">
        <ele>1394.38</ele>
        <time>2026-08-30T12:59:57.176Z</time>
      </trkpt>
      <trkpt lon="-103.726358" lat="44.373048">
        <ele>1416.78</ele>
        <time>2026-08-30T13:00:35.396Z</time>
      </trkpt>
      <trkpt lon="-103.726650" lat="44.373444">
        <ele>1402.71</ele>
        <time>2026-08-30T13:00:39.012Z</time>
      </trkpt>
      <trkpt lon="-103.726804" lat="44.373698">
        <ele>1408.11</ele>
        <time>2026-08-30T13:00:39.624Z</time>
      </trkpt>
      <trkpt lon="-103.727580" lat="44.374518">
        <ele>1405.8</ele>
        <time>2026-08-30T13:00:40.832Z</time>
      </trkpt>
      <trkpt lon="-103.727953" lat="44.375130">
        <ele>1402.69</ele>
        <time>2026-08-30T13:00:41.532Z</time>
      </trkpt>
      <trkpt lon="-103.729336" lat="44.374880">
        <ele>1385.93</ele>
        <time>2026-08-30T13:00:43.344Z</time>
      </trkpt>
      <trkpt lon="-103.729342" lat="44.374895">
        <ele>1385.88</ele>
        <time>2026-08-30T13:01:02.280Z</time>
      </trkpt>
      <trkpt lon="-103.729345" lat="44.374909">
        <ele>1385.79</ele>
        <time>2026-08-30T13:01:03.464Z</time>
      </trkpt>
      <trkpt lon="-103.729349" lat="44.374919">
        <ele>1385.87</ele>
        <time>2026-08-30T13:01:07.036Z</time>
      </trkpt>
      <trkpt lon="-103.729406" lat="44.374977">
        <ele>1385.55</ele>
        <time>2026-08-30T13:01:11.176Z</time>
      </trkpt>
      <trkpt lon="-103.729431" lat="44.374989">
        <ele>1385.55</ele>
        <time>2026-08-30T13:01:11.772Z</time>
      </trkpt>
      <trkpt lon="-103.729462" lat="44.375003">
        <ele>1385.6</ele>
        <time>2026-08-30T13:01:12.360Z</time>
      </trkpt>
      <trkpt lon="-103.729545" lat="44.375048">
        <ele>1385.91</ele>
        <time>2026-08-30T13:01:13.552Z</time>
      </trkpt>
      <trkpt lon="-103.729680" lat="44.375133">
        <ele>1386.1</ele>
        <time>2026-08-30T13:01:15.316Z</time>
      </trkpt>
      <trkpt lon="-103.729756" lat="44.375184">
        <ele>1387.71</ele>
        <time>2026-08-30T13:01:16.504Z</time>
      </trkpt>
      <trkpt lon="-103.729787" lat="44.375209">
        <ele>1388.97</ele>
        <time>2026-08-30T13:01:17.092Z</time>
      </trkpt>
      <trkpt lon="-103.729833" lat="44.375268">
        <ele>1391.06</ele>
        <time>2026-08-30T13:01:18.264Z</time>
      </trkpt>
      <trkpt lon="-103.729899" lat="44.375586">
        <ele>1396.01</ele>
        <time>2026-08-30T13:01:22.956Z</time>
      </trkpt>
      <trkpt lon="-103.730015" lat="44.375741">
        <ele>1397.19</ele>
        <time>2026-08-30T13:01:24.708Z</time>
      </trkpt>
      <trkpt lon="-103.730065" lat="44.375799">
        <ele>1397.84</ele>
        <time>2026-08-30T13:01:25.284Z</time>
      </trkpt>
      <trkpt lon="-103.730117" lat="44.375861">
        <ele>1398.78</ele>
        <time>2026-08-30T13:01:25.876Z</time>
      </trkpt>
      <trkpt lon="-103.730165" lat="44.375925">
        <ele>1400.02</ele>
        <time>2026-08-30T13:01:26.456Z</time>
      </trkpt>
      <trkpt lon="-103.730231" lat="44.376062">
        <ele>1402.77</ele>
        <time>2026-08-30T13:01:27.620Z</time>
      </trkpt>
      <trkpt lon="-103.730241" lat="44.376205">
        <ele>1405.64</ele>
        <time>2026-08-30T13:01:28.796Z</time>
      </trkpt>
      <trkpt lon="-103.730039" lat="44.376682">
        <ele>1412.21</ele>
        <time>2026-08-30T13:01:32.308Z</time>
      </trkpt>
      <trkpt lon="-103.729991" lat="44.376772">
        <ele>1413.27</ele>
        <time>2026-08-30T13:01:32.892Z</time>
      </trkpt>
      <trkpt lon="-103.729888" lat="44.376962">
        <ele>1415.5</ele>
        <time>2026-08-30T13:01:34.064Z</time>
      </trkpt>
      <trkpt lon="-103.729766" lat="44.377165">
        <ele>1417.67</ele>
        <time>2026-08-30T13:01:35.268Z</time>
      </trkpt>
      <trkpt lon="-103.729464" lat="44.377567">
        <ele>1422.11</ele>
        <time>2026-08-30T13:01:37.652Z</time>
      </trkpt>
      <trkpt lon="-103.728006" lat="44.379145">
        <ele>1441.08</ele>
        <time>2026-08-30T13:01:46.592Z</time>
      </trkpt>
      <trkpt lon="-103.727623" lat="44.379474">
        <ele>1443.77</ele>
        <time>2026-08-30T13:01:48.372Z</time>
      </trkpt>
      <trkpt lon="-103.725806" lat="44.380775">
        <ele>1461.99</ele>
        <time>2026-08-30T13:01:55.560Z</time>
      </trkpt>
      <trkpt lon="-103.723822" lat="44.382238">
        <ele>1482.96</ele>
        <time>2026-08-30T13:02:03.456Z</time>
      </trkpt>
      <trkpt lon="-103.721052" lat="44.384341">
        <ele>1489.17</ele>
        <time>2026-08-30T13:02:14.132Z</time>
      </trkpt>
      <trkpt lon="-103.719809" lat="44.385481">
        <ele>1500.26</ele>
        <time>2026-08-30T13:02:18.868Z</time>
      </trkpt>
      <trkpt lon="-103.718638" lat="44.386706">
        <ele>1523.13</ele>
        <time>2026-08-30T13:02:24.124Z</time>
      </trkpt>
      <trkpt lon="-103.716498" lat="44.389200">
        <ele>1538.72</ele>
        <time>2026-08-30T13:02:34.384Z</time>
      </trkpt>
      <trkpt lon="-103.715609" lat="44.390747">
        <ele>1525.55</ele>
        <time>2026-08-30T13:02:39.208Z</time>
      </trkpt>
      <trkpt lon="-103.715438" lat="44.391175">
        <ele>1522.73</ele>
        <time>2026-08-30T13:02:40.392Z</time>
      </trkpt>
      <trkpt lon="-103.715309" lat="44.391611">
        <ele>1521.92</ele>
        <time>2026-08-30T13:02:41.584Z</time>
      </trkpt>
      <trkpt lon="-103.715232" lat="44.392052">
        <ele>1523.25</ele>
        <time>2026-08-30T13:02:42.776Z</time>
      </trkpt>
      <trkpt lon="-103.715212" lat="44.392700">
        <ele>1528.3</ele>
        <time>2026-08-30T13:02:44.564Z</time>
      </trkpt>
      <trkpt lon="-103.715328" lat="44.394017">
        <ele>1534.67</ele>
        <time>2026-08-30T13:02:48.180Z</time>
      </trkpt>
      <trkpt lon="-103.715362" lat="44.394922">
        <ele>1530.26</ele>
        <time>2026-08-30T13:02:50.568Z</time>
      </trkpt>
      <trkpt lon="-103.715380" lat="44.396384">
        <ele>1519.05</ele>
        <time>2026-08-30T13:02:54.148Z</time>
      </trkpt>
      <trkpt lon="-103.715516" lat="44.400732">
        <ele>1519.88</ele>
        <time>2026-08-30T13:03:04.484Z</time>
      </trkpt>
      <trkpt lon="-103.715501" lat="44.402942">
        <ele>1499.89</ele>
        <time>2026-08-30T13:03:09.280Z</time>
      </trkpt>
      <trkpt lon="-103.715816" lat="44.407145">
        <ele>1500.84</ele>
        <time>2026-08-30T13:03:18.264Z</time>
      </trkpt>
      <trkpt lon="-103.716188" lat="44.410568">
        <ele>1481.39</ele>
        <time>2026-08-30T13:03:25.544Z</time>
      </trkpt>
      <trkpt lon="-103.716356" lat="44.413578">
        <ele>1462</ele>
        <time>2026-08-30T13:03:31.588Z</time>
      </trkpt>
      <trkpt lon="-103.716481" lat="44.418546">
        <ele>1465.9</ele>
        <time>2026-08-30T13:03:41.852Z</time>
      </trkpt>
      <trkpt lon="-103.716788" lat="44.421718">
        <ele>1468.02</ele>
        <time>2026-08-30T13:03:49.044Z</time>
      </trkpt>
      <trkpt lon="-103.717407" lat="44.424107">
        <ele>1473.94</ele>
        <time>2026-08-30T13:03:54.516Z</time>
      </trkpt>
      <trkpt lon="-103.718176" lat="44.426389">
        <ele>1449.09</ele>
        <time>2026-08-30T13:03:59.844Z</time>
      </trkpt>
      <trkpt lon="-103.718449" lat="44.427244">
        <ele>1422.31</ele>
        <time>2026-08-30T13:04:01.632Z</time>
      </trkpt>
      <trkpt lon="-103.718655" lat="44.427856">
        <ele>1403.66</ele>
        <time>2026-08-30T13:04:02.848Z</time>
      </trkpt>
      <trkpt lon="-103.719003" lat="44.428812">
        <ele>1384.01</ele>
        <time>2026-08-30T13:04:04.688Z</time>
      </trkpt>
      <trkpt lon="-103.719952" lat="44.431061">
        <ele>1363.96</ele>
        <time>2026-08-30T13:04:08.972Z</time>
      </trkpt>
      <trkpt lon="-103.720549" lat="44.432362">
        <ele>1352.59</ele>
        <time>2026-08-30T13:04:11.456Z</time>
      </trkpt>
      <trkpt lon="-103.722758" lat="44.435998">
        <ele>1349.71</ele>
        <time>2026-08-30T13:04:18.728Z</time>
      </trkpt>
      <trkpt lon="-103.723975" lat="44.437746">
        <ele>1330.61</ele>
        <time>2026-08-30T13:04:22.272Z</time>
      </trkpt>
      <trkpt lon="-103.726334" lat="44.440903">
        <ele>1311.8</ele>
        <time>2026-08-30T13:04:28.764Z</time>
      </trkpt>
      <trkpt lon="-103.727209" lat="44.442047">
        <ele>1293.35</ele>
        <time>2026-08-30T13:04:31.116Z</time>
      </trkpt>
      <trkpt lon="-103.729377" lat="44.444952">
        <ele>1274.51</ele>
        <time>2026-08-30T13:04:37.056Z</time>
      </trkpt>
      <trkpt lon="-103.732320" lat="44.448865">
        <ele>1270.08</ele>
        <time>2026-08-30T13:04:45.332Z</time>
      </trkpt>
      <trkpt lon="-103.733585" lat="44.450285">
        <ele>1290.95</ele>
        <time>2026-08-30T13:04:48.880Z</time>
      </trkpt>
      <trkpt lon="-103.735152" lat="44.451839">
        <ele>1302.02</ele>
        <time>2026-08-30T13:04:53.104Z</time>
      </trkpt>
      <trkpt lon="-103.736540" lat="44.453020">
        <ele>1311.13</ele>
        <time>2026-08-30T13:04:56.584Z</time>
      </trkpt>
      <trkpt lon="-103.739049" lat="44.454834">
        <ele>1314.89</ele>
        <time>2026-08-30T13:05:02.476Z</time>
      </trkpt>
      <trkpt lon="-103.740669" lat="44.455983">
        <ele>1294.69</ele>
        <time>2026-08-30T13:05:06.016Z</time>
      </trkpt>
      <trkpt lon="-103.741466" lat="44.456650">
        <ele>1280.21</ele>
        <time>2026-08-30T13:05:07.792Z</time>
      </trkpt>
      <trkpt lon="-103.742197" lat="44.457409">
        <ele>1265.4</ele>
        <time>2026-08-30T13:05:09.584Z</time>
      </trkpt>
      <trkpt lon="-103.742613" lat="44.457963">
        <ele>1255.65</ele>
        <time>2026-08-30T13:05:10.776Z</time>
      </trkpt>
      <trkpt lon="-103.742957" lat="44.458544">
        <ele>1247</ele>
        <time>2026-08-30T13:05:11.960Z</time>
      </trkpt>
      <trkpt lon="-103.743223" lat="44.459153">
        <ele>1239.25</ele>
        <time>2026-08-30T13:05:13.132Z</time>
      </trkpt>
      <trkpt lon="-103.743464" lat="44.460083">
        <ele>1233.13</ele>
        <time>2026-08-30T13:05:14.892Z</time>
      </trkpt>
      <trkpt lon="-103.743562" lat="44.461000">
        <ele>1234.04</ele>
        <time>2026-08-30T13:05:16.636Z</time>
      </trkpt>
      <trkpt lon="-103.743499" lat="44.465576">
        <ele>1237.28</ele>
        <time>2026-08-30T13:05:25.528Z</time>
      </trkpt>
      <trkpt lon="-103.743578" lat="44.466364">
        <ele>1253.94</ele>
        <time>2026-08-30T13:05:27.276Z</time>
      </trkpt>
      <trkpt lon="-103.743755" lat="44.467129">
        <ele>1261.84</ele>
        <time>2026-08-30T13:05:29.028Z</time>
      </trkpt>
      <trkpt lon="-103.744046" lat="44.467899">
        <ele>1261.41</ele>
        <time>2026-08-30T13:05:30.788Z</time>
      </trkpt>
      <trkpt lon="-103.744313" lat="44.468399">
        <ele>1259.9</ele>
        <time>2026-08-30T13:05:31.956Z</time>
      </trkpt>
      <trkpt lon="-103.744858" lat="44.469131">
        <ele>1258.01</ele>
        <time>2026-08-30T13:05:33.748Z</time>
      </trkpt>
      <trkpt lon="-103.745301" lat="44.469584">
        <ele>1258.05</ele>
        <time>2026-08-30T13:05:34.936Z</time>
      </trkpt>
      <trkpt lon="-103.745785" lat="44.469976">
        <ele>1263.02</ele>
        <time>2026-08-30T13:05:36.108Z</time>
      </trkpt>
      <trkpt lon="-103.746576" lat="44.470455">
        <ele>1275.26</ele>
        <time>2026-08-30T13:05:37.876Z</time>
      </trkpt>
      <trkpt lon="-103.747128" lat="44.470719">
        <ele>1283.14</ele>
        <time>2026-08-30T13:05:39.060Z</time>
      </trkpt>
      <trkpt lon="-103.747696" lat="44.470958">
        <ele>1290.02</ele>
        <time>2026-08-30T13:05:40.240Z</time>
      </trkpt>
      <trkpt lon="-103.750518" lat="44.471968">
        <ele>1314.96</ele>
        <time>2026-08-30T13:05:46.092Z</time>
      </trkpt>
      <trkpt lon="-103.752900" lat="44.472748">
        <ele>1339.14</ele>
        <time>2026-08-30T13:05:51.364Z</time>
      </trkpt>
      <trkpt lon="-103.754552" lat="44.473133">
        <ele>1343.24</ele>
        <time>2026-08-30T13:05:54.844Z</time>
      </trkpt>
      <trkpt lon="-103.757664" lat="44.473660">
        <ele>1325.94</ele>
        <time>2026-08-30T13:06:00.664Z</time>
      </trkpt>
      <trkpt lon="-103.760826" lat="44.473999">
        <ele>1301.18</ele>
        <time>2026-08-30T13:06:05.864Z</time>
      </trkpt>
      <trkpt lon="-103.761969" lat="44.474092">
        <ele>1272.74</ele>
        <time>2026-08-30T13:06:07.644Z</time>
      </trkpt>
      <trkpt lon="-103.762765" lat="44.474170">
        <ele>1248.69</ele>
        <time>2026-08-30T13:06:08.816Z</time>
      </trkpt>
      <trkpt lon="-103.763181" lat="44.474222">
        <ele>1240.18</ele>
        <time>2026-08-30T13:06:09.412Z</time>
      </trkpt>
      <trkpt lon="-103.763590" lat="44.474281">
        <ele>1235.66</ele>
        <time>2026-08-30T13:06:10.000Z</time>
      </trkpt>
      <trkpt lon="-103.763989" lat="44.474343">
        <ele>1234.3</ele>
        <time>2026-08-30T13:06:10.588Z</time>
      </trkpt>
      <trkpt lon="-103.764761" lat="44.474475">
        <ele>1234.26</ele>
        <time>2026-08-30T13:06:11.760Z</time>
      </trkpt>
      <trkpt lon="-103.765147" lat="44.474545">
        <ele>1233.63</ele>
        <time>2026-08-30T13:06:12.352Z</time>
      </trkpt>
      <trkpt lon="-103.767469" lat="44.474968">
        <ele>1230.87</ele>
        <time>2026-08-30T13:06:15.932Z</time>
      </trkpt>
      <trkpt lon="-103.767827" lat="44.475037">
        <ele>1233.47</ele>
        <time>2026-08-30T13:06:16.532Z</time>
      </trkpt>
      <trkpt lon="-103.768169" lat="44.475109">
        <ele>1236.46</ele>
        <time>2026-08-30T13:06:17.128Z</time>
      </trkpt>
      <trkpt lon="-103.769370" lat="44.475386">
        <ele>1247.16</ele>
        <time>2026-08-30T13:06:19.496Z</time>
      </trkpt>
      <trkpt lon="-103.770903" lat="44.475764">
        <ele>1251.05</ele>
        <time>2026-08-30T13:06:23.028Z</time>
      </trkpt>
      <trkpt lon="-103.772836" lat="44.476230">
        <ele>1245.06</ele>
        <time>2026-08-30T13:06:28.320Z</time>
      </trkpt>
      <trkpt lon="-103.775742" lat="44.476866">
        <ele>1227.83</ele>
        <time>2026-08-30T13:06:37.804Z</time>
      </trkpt>
      <trkpt lon="-103.777708" lat="44.477383">
        <ele>1211.36</ele>
        <time>2026-08-30T13:06:44.916Z</time>
      </trkpt>
      <trkpt lon="-103.778762" lat="44.477826">
        <ele>1204.75</ele>
        <time>2026-08-30T13:06:49.084Z</time>
      </trkpt>
      <trkpt lon="-103.780609" lat="44.478961">
        <ele>1191.76</ele>
        <time>2026-08-30T13:06:57.968Z</time>
      </trkpt>
      <trkpt lon="-103.781726" lat="44.479762">
        <ele>1187.23</ele>
        <time>2026-08-30T13:07:05.064Z</time>
      </trkpt>
      <trkpt lon="-103.782522" lat="44.480299">
        <ele>1186.61</ele>
        <time>2026-08-30T13:07:11.040Z</time>
      </trkpt>
      <trkpt lon="-103.783786" lat="44.481251">
        <ele>1187.21</ele>
        <time>2026-08-30T13:07:21.120Z</time>
      </trkpt>
      <trkpt lon="-103.784228" lat="44.481584">
        <ele>1187.35</ele>
        <time>2026-08-30T13:07:25.272Z</time>
      </trkpt>
      <trkpt lon="-103.784604" lat="44.481875">
        <ele>1187.58</ele>
        <time>2026-08-30T13:07:31.200Z</time>
      </trkpt>
      <trkpt lon="-103.784628" lat="44.481905">
        <ele>1187.61</ele>
        <time>2026-08-30T13:07:31.800Z</time>
      </trkpt>
      <trkpt lon="-103.784646" lat="44.481936">
        <ele>1187.64</ele>
        <time>2026-08-30T13:07:32.396Z</time>
      </trkpt>
      <trkpt lon="-103.784657" lat="44.481969">
        <ele>1187.66</ele>
        <time>2026-08-30T13:07:32.992Z</time>
      </trkpt>
      <trkpt lon="-103.784661" lat="44.482001">
        <ele>1187.69</ele>
        <time>2026-08-30T13:07:33.576Z</time>
      </trkpt>
      <trkpt lon="-103.784659" lat="44.482033">
        <ele>1187.71</ele>
        <time>2026-08-30T13:07:34.168Z</time>
      </trkpt>
      <trkpt lon="-103.784650" lat="44.482064">
        <ele>1187.73</ele>
        <time>2026-08-30T13:07:34.756Z</time>
      </trkpt>
      <trkpt lon="-103.784635" lat="44.482093">
        <ele>1187.75</ele>
        <time>2026-08-30T13:07:35.348Z</time>
      </trkpt>
      <trkpt lon="-103.784616" lat="44.482120">
        <ele>1187.77</ele>
        <time>2026-08-30T13:07:35.932Z</time>
      </trkpt>
      <trkpt lon="-103.784570" lat="44.482172">
        <ele>1187.81</ele>
        <time>2026-08-30T13:07:37.128Z</time>
      </trkpt>
      <trkpt lon="-103.784516" lat="44.482217">
        <ele>1187.85</ele>
        <time>2026-08-30T13:07:38.300Z</time>
      </trkpt>
      <trkpt lon="-103.784228" lat="44.482423">
        <ele>1187.97</ele>
        <time>2026-08-30T13:07:47.196Z</time>
      </trkpt>
      <trkpt lon="-103.784194" lat="44.482449">
        <ele>1188</ele>
        <time>2026-08-30T13:07:57.280Z</time>
      </trkpt>
      <trkpt lon="-103.784184" lat="44.482455">
        <ele>1188.02</ele>
        <time>2026-08-30T13:07:59.052Z</time>
      </trkpt>
      <trkpt lon="-103.784103" lat="44.482479">
        <ele>1188.06</ele>
        <time>2026-08-30T13:08:03.180Z</time>
      </trkpt>
      <trkpt lon="-103.784061" lat="44.482485">
        <ele>1188.05</ele>
        <time>2026-08-30T13:08:04.344Z</time>
      </trkpt>
      <trkpt lon="-103.784008" lat="44.482489">
        <ele>1188.05</ele>
        <time>2026-08-30T13:08:05.520Z</time>
      </trkpt>
      <trkpt lon="-103.783979" lat="44.482488">
        <ele>1188.05</ele>
        <time>2026-08-30T13:08:06.088Z</time>
      </trkpt>
      <trkpt lon="-103.783946" lat="44.482484">
        <ele>1188.04</ele>
        <time>2026-08-30T13:08:06.688Z</time>
      </trkpt>
      <trkpt lon="-103.783913" lat="44.482476">
        <ele>1188.01</ele>
        <time>2026-08-30T13:08:07.296Z</time>
      </trkpt>
      <trkpt lon="-103.783881" lat="44.482464">
        <ele>1187.99</ele>
        <time>2026-08-30T13:08:07.896Z</time>
      </trkpt>
      <trkpt lon="-103.783785" lat="44.482416">
        <ele>1187.94</ele>
        <time>2026-08-30T13:08:09.696Z</time>
      </trkpt>
      <trkpt lon="-103.783696" lat="44.482361">
        <ele>1187.88</ele>
        <time>2026-08-30T13:08:11.464Z</time>
      </trkpt>
      <trkpt lon="-103.783636" lat="44.482324">
        <ele>1187.86</ele>
        <time>2026-08-30T13:08:12.668Z</time>
      </trkpt>
      <trkpt lon="-103.783605" lat="44.482310">
        <ele>1187.85</ele>
        <time>2026-08-30T13:08:13.248Z</time>
      </trkpt>
      <trkpt lon="-103.783571" lat="44.482299">
        <ele>1187.84</ele>
        <time>2026-08-30T13:08:13.848Z</time>
      </trkpt>
      <trkpt lon="-103.783536" lat="44.482292">
        <ele>1187.84</ele>
        <time>2026-08-30T13:08:14.444Z</time>
      </trkpt>
      <trkpt lon="-103.783501" lat="44.482289">
        <ele>1187.83</ele>
        <time>2026-08-30T13:08:15.044Z</time>
      </trkpt>
      <trkpt lon="-103.783428" lat="44.482289">
        <ele>1187.83</ele>
        <time>2026-08-30T13:08:16.272Z</time>
      </trkpt>
      <trkpt lon="-103.783362" lat="44.482298">
        <ele>1187.82</ele>
        <time>2026-08-30T13:08:17.456Z</time>
      </trkpt>
      <trkpt lon="-103.783331" lat="44.482305">
        <ele>1187.82</ele>
        <time>2026-08-30T13:08:18.064Z</time>
      </trkpt>
      <trkpt lon="-103.783250" lat="44.482329">
        <ele>1187.83</ele>
        <time>2026-08-30T13:08:19.860Z</time>
      </trkpt>
      <trkpt lon="-103.783239" lat="44.482334">
        <ele>1187.84</ele>
        <time>2026-08-30T13:08:20.444Z</time>
      </trkpt>
      <trkpt lon="-103.783230" lat="44.482340">
        <ele>1187.83</ele>
        <time>2026-08-30T13:08:21.032Z</time>
      </trkpt>
      <trkpt lon="-103.783216" lat="44.482352">
        <ele>1187.82</ele>
        <time>2026-08-30T13:08:32.184Z</time>
      </trkpt>
    </trkseg>
    <trkseg>
      <trkpt lon="8.570099" lat="50.043722">
        <ele>103.455</ele>
        <time>2026-09-03T18:27:17.492Z</time>
      </trkpt>
      <trkpt lon="8.570111" lat="50.043719">
        <ele>103.852</ele>
        <time>2026-09-03T10:25:24.180Z</time>
      </trkpt>
      <trkpt lon="8.570125" lat="50.043712">
        <ele>104.026</ele>
        <time>2026-09-03T10:25:24.800Z</time>
      </trkpt>
      <trkpt lon="8.570144" lat="50.043695">
        <ele>104.141</ele>
        <time>2026-09-03T10:25:25.432Z</time>
      </trkpt>
      <trkpt lon="8.570099" lat="50.043722">
        <ele>103.531</ele>
        <time>2026-09-03T10:25:26.084Z</time>
      </trkpt>
      <trkpt lon="8.570080" lat="50.043734">
        <ele>103.53</ele>
        <time>2026-09-03T10:25:27.276Z</time>
      </trkpt>
      <trkpt lon="8.570063" lat="50.043745">
        <ele>103.378</ele>
        <time>2026-09-03T10:25:27.904Z</time>
      </trkpt>
      <trkpt lon="8.570065" lat="50.043757">
        <ele>103.382</ele>
        <time>2026-09-03T10:25:28.488Z</time>
      </trkpt>
      <trkpt lon="8.570081" lat="50.043762">
        <ele>103.447</ele>
        <time>2026-09-03T10:25:29.108Z</time>
      </trkpt>
      <trkpt lon="8.570108" lat="50.043779">
        <ele>103.589</ele>
        <time>2026-09-03T10:25:29.716Z</time>
      </trkpt>
      <trkpt lon="8.570142" lat="50.043790">
        <ele>103.534</ele>
        <time>2026-09-03T10:25:30.328Z</time>
      </trkpt>
      <trkpt lon="8.570167" lat="50.043807">
        <ele>104.35</ele>
        <time>2026-09-03T10:25:30.952Z</time>
      </trkpt>
      <trkpt lon="8.570191" lat="50.043815">
        <ele>103.409</ele>
        <time>2026-09-03T10:25:31.564Z</time>
      </trkpt>
      <trkpt lon="8.570161" lat="50.043780">
        <ele>103.802</ele>
        <time>2026-09-03T10:25:32.752Z</time>
      </trkpt>
      <trkpt lon="8.570185" lat="50.043774">
        <ele>106.739</ele>
        <time>2026-09-03T10:25:33.444Z</time>
      </trkpt>
      <trkpt lon="8.570270" lat="50.043687">
        <ele>108.834</ele>
        <time>2026-09-03T10:25:34.080Z</time>
      </trkpt>
      <trkpt lon="8.570438" lat="50.043638">
        <ele>106.316</ele>
        <time>2026-09-03T10:25:34.728Z</time>
      </trkpt>
      <trkpt lon="8.570519" lat="50.043622">
        <ele>105.145</ele>
        <time>2026-09-03T10:25:35.344Z</time>
      </trkpt>
      <trkpt lon="8.570435" lat="50.043646">
        <ele>105.139</ele>
        <time>2026-09-03T10:25:37.120Z</time>
      </trkpt>
      <trkpt lon="8.570016" lat="50.043769">
        <ele>105.144</ele>
        <time>2026-09-03T10:25:39.576Z</time>
      </trkpt>
    </trkseg>
  </trk>
</gpx>
